<?xml version="1.0" encoding="UTF-8" standalone="no" ?>
<gpx xmlns="http://www.topografix.com/GPX/1/1" xmlns:xsi="http://www.w3.org/2001/XMLSchema-instance" xsi:schemaLocation="http://www.topografix.com/GPX/1/1 http://www.topografix.com/GPX/1/1/gpx.xsd" version="1.1" creator="VisuGPX - https://www.visugpx.com">
  <metadata>
    <name>balade aux environs de Pouilly les Feurs</name>
    <desc><![CDATA[Balade agréable, peu de passage sur goudron, un maximum de chemins et sentiers sous les bois. ]]></desc>
  </metadata>
  <trk>
    <name><![CDATA[20180924202326-dixA7]]></name>
    <trkseg>
      <trkpt lat="45.79843" lon="4.23239">
        <ele>415.014</ele>
        <time>2018-09-24T12:19:22Z</time>
      </trkpt>
      <trkpt lat="45.79843" lon="4.23239">
        <ele>415.028</ele>
        <time>2018-09-24T12:19:27Z</time>
      </trkpt>
      <trkpt lat="45.79843" lon="4.23239">
        <ele>414.993</ele>
        <time>2018-09-24T12:19:33Z</time>
      </trkpt>
      <trkpt lat="45.79843" lon="4.23239">
        <ele>414.945</ele>
        <time>2018-09-24T12:19:39Z</time>
      </trkpt>
      <trkpt lat="45.79843" lon="4.23239">
        <ele>414.946</ele>
        <time>2018-09-24T12:19:45Z</time>
      </trkpt>
      <trkpt lat="45.79843" lon="4.23239">
        <ele>414.94</ele>
        <time>2018-09-24T12:19:50Z</time>
      </trkpt>
      <trkpt lat="45.79843" lon="4.23239">
        <ele>414.897</ele>
        <time>2018-09-24T12:19:55Z</time>
      </trkpt>
      <trkpt lat="45.79843" lon="4.23239">
        <ele>414.866</ele>
        <time>2018-09-24T12:20:01Z</time>
      </trkpt>
      <trkpt lat="45.79843" lon="4.23239">
        <ele>414.855</ele>
        <time>2018-09-24T12:20:07Z</time>
      </trkpt>
      <trkpt lat="45.79843" lon="4.23239">
        <ele>414.861</ele>
        <time>2018-09-24T12:20:13Z</time>
      </trkpt>
      <trkpt lat="45.79843" lon="4.23239">
        <ele>415.185</ele>
        <time>2018-09-24T12:20:18Z</time>
      </trkpt>
      <trkpt lat="45.79843" lon="4.23239">
        <ele>415.301</ele>
        <time>2018-09-24T12:20:24Z</time>
      </trkpt>
      <trkpt lat="45.79846" lon="4.23225">
        <ele>415.596</ele>
        <time>2018-09-24T12:20:29Z</time>
      </trkpt>
      <trkpt lat="45.79854" lon="4.23227">
        <ele>415.66</ele>
        <time>2018-09-24T12:20:34Z</time>
      </trkpt>
      <trkpt lat="45.79861" lon="4.23229">
        <ele>415.867</ele>
        <time>2018-09-24T12:20:39Z</time>
      </trkpt>
      <trkpt lat="45.79861" lon="4.23229">
        <ele>416.189</ele>
        <time>2018-09-24T12:20:44Z</time>
      </trkpt>
      <trkpt lat="45.7987" lon="4.23236">
        <ele>416.272</ele>
        <time>2018-09-24T12:20:50Z</time>
      </trkpt>
      <trkpt lat="45.79875" lon="4.23243">
        <ele>415.865</ele>
        <time>2018-09-24T12:20:55Z</time>
      </trkpt>
      <trkpt lat="45.79877" lon="4.23249">
        <ele>415.588</ele>
        <time>2018-09-24T12:21:01Z</time>
      </trkpt>
      <trkpt lat="45.79879" lon="4.23255">
        <ele>415.392</ele>
        <time>2018-09-24T12:21:06Z</time>
      </trkpt>
      <trkpt lat="45.79881" lon="4.23265">
        <ele>415.272</ele>
        <time>2018-09-24T12:21:12Z</time>
      </trkpt>
      <trkpt lat="45.79884" lon="4.23271">
        <ele>415.221</ele>
        <time>2018-09-24T12:21:17Z</time>
      </trkpt>
      <trkpt lat="45.79888" lon="4.23278">
        <ele>415.714</ele>
        <time>2018-09-24T12:21:22Z</time>
      </trkpt>
      <trkpt lat="45.79892" lon="4.23284">
        <ele>416.018</ele>
        <time>2018-09-24T12:21:28Z</time>
      </trkpt>
      <trkpt lat="45.79896" lon="4.23293">
        <ele>416.334</ele>
        <time>2018-09-24T12:21:34Z</time>
      </trkpt>
      <trkpt lat="45.79898" lon="4.233">
        <ele>416.725</ele>
        <time>2018-09-24T12:21:39Z</time>
      </trkpt>
      <trkpt lat="45.799" lon="4.23307">
        <ele>417.426</ele>
        <time>2018-09-24T12:21:44Z</time>
      </trkpt>
      <trkpt lat="45.79904" lon="4.23314">
        <ele>417.874</ele>
        <time>2018-09-24T12:21:50Z</time>
      </trkpt>
      <trkpt lat="45.79907" lon="4.2332">
        <ele>417.916</ele>
        <time>2018-09-24T12:21:56Z</time>
      </trkpt>
      <trkpt lat="45.79908" lon="4.23325">
        <ele>418.156</ele>
        <time>2018-09-24T12:22:01Z</time>
      </trkpt>
      <trkpt lat="45.79911" lon="4.23335">
        <ele>418.339</ele>
        <time>2018-09-24T12:22:07Z</time>
      </trkpt>
      <trkpt lat="45.79913" lon="4.23341">
        <ele>418.577</ele>
        <time>2018-09-24T12:22:13Z</time>
      </trkpt>
      <trkpt lat="45.79915" lon="4.23345">
        <ele>418.838</ele>
        <time>2018-09-24T12:22:18Z</time>
      </trkpt>
      <trkpt lat="45.79919" lon="4.23351">
        <ele>419.03</ele>
        <time>2018-09-24T12:22:24Z</time>
      </trkpt>
      <trkpt lat="45.79921" lon="4.23356">
        <ele>419.062</ele>
        <time>2018-09-24T12:22:29Z</time>
      </trkpt>
      <trkpt lat="45.79923" lon="4.23363">
        <ele>419.15</ele>
        <time>2018-09-24T12:22:34Z</time>
      </trkpt>
      <trkpt lat="45.79927" lon="4.2337">
        <ele>419.589</ele>
        <time>2018-09-24T12:22:40Z</time>
      </trkpt>
      <trkpt lat="45.79929" lon="4.23378">
        <ele>419.722</ele>
        <time>2018-09-24T12:22:46Z</time>
      </trkpt>
      <trkpt lat="45.79932" lon="4.23386">
        <ele>420.023</ele>
        <time>2018-09-24T12:22:52Z</time>
      </trkpt>
      <trkpt lat="45.79934" lon="4.23391">
        <ele>420.527</ele>
        <time>2018-09-24T12:22:57Z</time>
      </trkpt>
      <trkpt lat="45.79936" lon="4.23396">
        <ele>420.828</ele>
        <time>2018-09-24T12:23:02Z</time>
      </trkpt>
      <trkpt lat="45.79937" lon="4.23399">
        <ele>421.236</ele>
        <time>2018-09-24T12:23:07Z</time>
      </trkpt>
      <trkpt lat="45.79941" lon="4.23402">
        <ele>421.421</ele>
        <time>2018-09-24T12:23:13Z</time>
      </trkpt>
      <trkpt lat="45.79947" lon="4.23403">
        <ele>421.367</ele>
        <time>2018-09-24T12:23:19Z</time>
      </trkpt>
      <trkpt lat="45.79954" lon="4.23405">
        <ele>421.761</ele>
        <time>2018-09-24T12:23:25Z</time>
      </trkpt>
      <trkpt lat="45.79959" lon="4.23408">
        <ele>422.28</ele>
        <time>2018-09-24T12:23:31Z</time>
      </trkpt>
      <trkpt lat="45.79965" lon="4.23407">
        <ele>422.807</ele>
        <time>2018-09-24T12:23:37Z</time>
      </trkpt>
      <trkpt lat="45.79972" lon="4.23408">
        <ele>423.047</ele>
        <time>2018-09-24T12:23:43Z</time>
      </trkpt>
      <trkpt lat="45.79977" lon="4.23408">
        <ele>422.797</ele>
        <time>2018-09-24T12:23:48Z</time>
      </trkpt>
      <trkpt lat="45.79982" lon="4.23409">
        <ele>422.335</ele>
        <time>2018-09-24T12:23:54Z</time>
      </trkpt>
      <trkpt lat="45.79989" lon="4.2341">
        <ele>422.634</ele>
        <time>2018-09-24T12:24:00Z</time>
      </trkpt>
      <trkpt lat="45.79995" lon="4.23413">
        <ele>423.101</ele>
        <time>2018-09-24T12:24:06Z</time>
      </trkpt>
      <trkpt lat="45.8" lon="4.23414">
        <ele>423.483</ele>
        <time>2018-09-24T12:24:12Z</time>
      </trkpt>
      <trkpt lat="45.80009" lon="4.23414">
        <ele>424.097</ele>
        <time>2018-09-24T12:24:18Z</time>
      </trkpt>
      <trkpt lat="45.80015" lon="4.23418">
        <ele>424.344</ele>
        <time>2018-09-24T12:24:23Z</time>
      </trkpt>
      <trkpt lat="45.80018" lon="4.23418">
        <ele>424.823</ele>
        <time>2018-09-24T12:24:28Z</time>
      </trkpt>
      <trkpt lat="45.80024" lon="4.23419">
        <ele>425.025</ele>
        <time>2018-09-24T12:24:34Z</time>
      </trkpt>
      <trkpt lat="45.80031" lon="4.23419">
        <ele>424.999</ele>
        <time>2018-09-24T12:24:40Z</time>
      </trkpt>
      <trkpt lat="45.80038" lon="4.2342">
        <ele>425.166</ele>
        <time>2018-09-24T12:24:46Z</time>
      </trkpt>
      <trkpt lat="45.80044" lon="4.23421">
        <ele>425.476</ele>
        <time>2018-09-24T12:24:52Z</time>
      </trkpt>
      <trkpt lat="45.80051" lon="4.23423">
        <ele>425.748</ele>
        <time>2018-09-24T12:24:58Z</time>
      </trkpt>
      <trkpt lat="45.80054" lon="4.23423">
        <ele>426.016</ele>
        <time>2018-09-24T12:25:03Z</time>
      </trkpt>
      <trkpt lat="45.80061" lon="4.23423">
        <ele>426.795</ele>
        <time>2018-09-24T12:25:09Z</time>
      </trkpt>
      <trkpt lat="45.80066" lon="4.23421">
        <ele>427.27</ele>
        <time>2018-09-24T12:25:14Z</time>
      </trkpt>
      <trkpt lat="45.80072" lon="4.23419">
        <ele>428.244</ele>
        <time>2018-09-24T12:25:20Z</time>
      </trkpt>
      <trkpt lat="45.80079" lon="4.2342">
        <ele>429.242</ele>
        <time>2018-09-24T12:25:26Z</time>
      </trkpt>
      <trkpt lat="45.80085" lon="4.23426">
        <ele>430.53</ele>
        <time>2018-09-24T12:25:31Z</time>
      </trkpt>
      <trkpt lat="45.80089" lon="4.23427">
        <ele>431.937</ele>
        <time>2018-09-24T12:25:37Z</time>
      </trkpt>
      <trkpt lat="45.80096" lon="4.23429">
        <ele>432.961</ele>
        <time>2018-09-24T12:25:42Z</time>
      </trkpt>
      <trkpt lat="45.80101" lon="4.2343">
        <ele>433.524</ele>
        <time>2018-09-24T12:25:48Z</time>
      </trkpt>
      <trkpt lat="45.80106" lon="4.23431">
        <ele>434.138</ele>
        <time>2018-09-24T12:25:53Z</time>
      </trkpt>
      <trkpt lat="45.80112" lon="4.23431">
        <ele>434.296</ele>
        <time>2018-09-24T12:25:59Z</time>
      </trkpt>
      <trkpt lat="45.80116" lon="4.23433">
        <ele>434.23</ele>
        <time>2018-09-24T12:26:05Z</time>
      </trkpt>
      <trkpt lat="45.80119" lon="4.23438">
        <ele>433.863</ele>
        <time>2018-09-24T12:26:11Z</time>
      </trkpt>
      <trkpt lat="45.80126" lon="4.23442">
        <ele>433.799</ele>
        <time>2018-09-24T12:26:16Z</time>
      </trkpt>
      <trkpt lat="45.80131" lon="4.23447">
        <ele>434.029</ele>
        <time>2018-09-24T12:26:21Z</time>
      </trkpt>
      <trkpt lat="45.80136" lon="4.2345">
        <ele>434.849</ele>
        <time>2018-09-24T12:26:27Z</time>
      </trkpt>
      <trkpt lat="45.80139" lon="4.23454">
        <ele>435.957</ele>
        <time>2018-09-24T12:26:32Z</time>
      </trkpt>
      <trkpt lat="45.80142" lon="4.23457">
        <ele>436.879</ele>
        <time>2018-09-24T12:26:37Z</time>
      </trkpt>
      <trkpt lat="45.80148" lon="4.2346">
        <ele>437.848</ele>
        <time>2018-09-24T12:26:43Z</time>
      </trkpt>
      <trkpt lat="45.80151" lon="4.23464">
        <ele>438.431</ele>
        <time>2018-09-24T12:26:48Z</time>
      </trkpt>
      <trkpt lat="45.80157" lon="4.23471">
        <ele>438.785</ele>
        <time>2018-09-24T12:26:54Z</time>
      </trkpt>
      <trkpt lat="45.80161" lon="4.23474">
        <ele>439.5</ele>
        <time>2018-09-24T12:26:59Z</time>
      </trkpt>
      <trkpt lat="45.80167" lon="4.23479">
        <ele>440.186</ele>
        <time>2018-09-24T12:27:04Z</time>
      </trkpt>
      <trkpt lat="45.80173" lon="4.23482">
        <ele>440.785</ele>
        <time>2018-09-24T12:27:10Z</time>
      </trkpt>
      <trkpt lat="45.80179" lon="4.23487">
        <ele>441.459</ele>
        <time>2018-09-24T12:27:15Z</time>
      </trkpt>
      <trkpt lat="45.80184" lon="4.23493">
        <ele>442.214</ele>
        <time>2018-09-24T12:27:21Z</time>
      </trkpt>
      <trkpt lat="45.80189" lon="4.23498">
        <ele>443.046</ele>
        <time>2018-09-24T12:27:27Z</time>
      </trkpt>
      <trkpt lat="45.80193" lon="4.23503">
        <ele>443.565</ele>
        <time>2018-09-24T12:27:32Z</time>
      </trkpt>
      <trkpt lat="45.80196" lon="4.23506">
        <ele>443.969</ele>
        <time>2018-09-24T12:27:37Z</time>
      </trkpt>
      <trkpt lat="45.80201" lon="4.23512">
        <ele>444.536</ele>
        <time>2018-09-24T12:27:43Z</time>
      </trkpt>
      <trkpt lat="45.80205" lon="4.23516">
        <ele>445.064</ele>
        <time>2018-09-24T12:27:48Z</time>
      </trkpt>
      <trkpt lat="45.80211" lon="4.23523">
        <ele>445.805</ele>
        <time>2018-09-24T12:27:54Z</time>
      </trkpt>
      <trkpt lat="45.80215" lon="4.23529">
        <ele>446.257</ele>
        <time>2018-09-24T12:27:59Z</time>
      </trkpt>
      <trkpt lat="45.80219" lon="4.23537">
        <ele>446.875</ele>
        <time>2018-09-24T12:28:05Z</time>
      </trkpt>
      <trkpt lat="45.80224" lon="4.23542">
        <ele>447.448</ele>
        <time>2018-09-24T12:28:10Z</time>
      </trkpt>
      <trkpt lat="45.80228" lon="4.23548">
        <ele>448.276</ele>
        <time>2018-09-24T12:28:16Z</time>
      </trkpt>
      <trkpt lat="45.80233" lon="4.23555">
        <ele>449.214</ele>
        <time>2018-09-24T12:28:22Z</time>
      </trkpt>
      <trkpt lat="45.80238" lon="4.23562">
        <ele>449.753</ele>
        <time>2018-09-24T12:28:27Z</time>
      </trkpt>
      <trkpt lat="45.80242" lon="4.23568">
        <ele>450.435</ele>
        <time>2018-09-24T12:28:32Z</time>
      </trkpt>
      <trkpt lat="45.80245" lon="4.23575">
        <ele>451.096</ele>
        <time>2018-09-24T12:28:37Z</time>
      </trkpt>
      <trkpt lat="45.80248" lon="4.23582">
        <ele>451.775</ele>
        <time>2018-09-24T12:28:42Z</time>
      </trkpt>
      <trkpt lat="45.80251" lon="4.2359">
        <ele>452.2</ele>
        <time>2018-09-24T12:28:48Z</time>
      </trkpt>
      <trkpt lat="45.80255" lon="4.23598">
        <ele>452.514</ele>
        <time>2018-09-24T12:28:54Z</time>
      </trkpt>
      <trkpt lat="45.8026" lon="4.23604">
        <ele>452.886</ele>
        <time>2018-09-24T12:28:59Z</time>
      </trkpt>
      <trkpt lat="45.80264" lon="4.23612">
        <ele>453.605</ele>
        <time>2018-09-24T12:29:05Z</time>
      </trkpt>
      <trkpt lat="45.80268" lon="4.23618">
        <ele>454.342</ele>
        <time>2018-09-24T12:29:10Z</time>
      </trkpt>
      <trkpt lat="45.80272" lon="4.23622">
        <ele>455.011</ele>
        <time>2018-09-24T12:29:16Z</time>
      </trkpt>
      <trkpt lat="45.80276" lon="4.23632">
        <ele>455.538</ele>
        <time>2018-09-24T12:29:22Z</time>
      </trkpt>
      <trkpt lat="45.80277" lon="4.2364">
        <ele>455.987</ele>
        <time>2018-09-24T12:29:27Z</time>
      </trkpt>
      <trkpt lat="45.8028" lon="4.2365">
        <ele>456.78</ele>
        <time>2018-09-24T12:29:33Z</time>
      </trkpt>
      <trkpt lat="45.80283" lon="4.23659">
        <ele>457.527</ele>
        <time>2018-09-24T12:29:38Z</time>
      </trkpt>
      <trkpt lat="45.80285" lon="4.23666">
        <ele>458.47</ele>
        <time>2018-09-24T12:29:44Z</time>
      </trkpt>
      <trkpt lat="45.80285" lon="4.23675">
        <ele>459.509</ele>
        <time>2018-09-24T12:29:50Z</time>
      </trkpt>
      <trkpt lat="45.80285" lon="4.23683">
        <ele>460.359</ele>
        <time>2018-09-24T12:29:55Z</time>
      </trkpt>
      <trkpt lat="45.80286" lon="4.23691">
        <ele>460.879</ele>
        <time>2018-09-24T12:30:01Z</time>
      </trkpt>
      <trkpt lat="45.80287" lon="4.23697">
        <ele>461.203</ele>
        <time>2018-09-24T12:30:06Z</time>
      </trkpt>
      <trkpt lat="45.80287" lon="4.23705">
        <ele>461.489</ele>
        <time>2018-09-24T12:30:12Z</time>
      </trkpt>
      <trkpt lat="45.80289" lon="4.23716">
        <ele>461.968</ele>
        <time>2018-09-24T12:30:18Z</time>
      </trkpt>
      <trkpt lat="45.80291" lon="4.23727">
        <ele>462.543</ele>
        <time>2018-09-24T12:30:24Z</time>
      </trkpt>
      <trkpt lat="45.80294" lon="4.23735">
        <ele>463.066</ele>
        <time>2018-09-24T12:30:30Z</time>
      </trkpt>
      <trkpt lat="45.80296" lon="4.23745">
        <ele>464.015</ele>
        <time>2018-09-24T12:30:35Z</time>
      </trkpt>
      <trkpt lat="45.80299" lon="4.23754">
        <ele>464.926</ele>
        <time>2018-09-24T12:30:41Z</time>
      </trkpt>
      <trkpt lat="45.80301" lon="4.23761">
        <ele>465.637</ele>
        <time>2018-09-24T12:30:46Z</time>
      </trkpt>
      <trkpt lat="45.80304" lon="4.2377">
        <ele>466.147</ele>
        <time>2018-09-24T12:30:51Z</time>
      </trkpt>
      <trkpt lat="45.80308" lon="4.23779">
        <ele>466.802</ele>
        <time>2018-09-24T12:30:57Z</time>
      </trkpt>
      <trkpt lat="45.80311" lon="4.23786">
        <ele>467.309</ele>
        <time>2018-09-24T12:31:02Z</time>
      </trkpt>
      <trkpt lat="45.80316" lon="4.23793">
        <ele>468.004</ele>
        <time>2018-09-24T12:31:08Z</time>
      </trkpt>
      <trkpt lat="45.8032" lon="4.23801">
        <ele>468.449</ele>
        <time>2018-09-24T12:31:13Z</time>
      </trkpt>
      <trkpt lat="45.80323" lon="4.2381">
        <ele>469.061</ele>
        <time>2018-09-24T12:31:19Z</time>
      </trkpt>
      <trkpt lat="45.80325" lon="4.23818">
        <ele>469.414</ele>
        <time>2018-09-24T12:31:24Z</time>
      </trkpt>
      <trkpt lat="45.80329" lon="4.23825">
        <ele>470.147</ele>
        <time>2018-09-24T12:31:30Z</time>
      </trkpt>
      <trkpt lat="45.80332" lon="4.23835">
        <ele>470.86</ele>
        <time>2018-09-24T12:31:35Z</time>
      </trkpt>
      <trkpt lat="45.80335" lon="4.2384">
        <ele>471.952</ele>
        <time>2018-09-24T12:31:41Z</time>
      </trkpt>
      <trkpt lat="45.8034" lon="4.23849">
        <ele>473.652</ele>
        <time>2018-09-24T12:31:47Z</time>
      </trkpt>
      <trkpt lat="45.80343" lon="4.23858">
        <ele>475</ele>
        <time>2018-09-24T12:31:53Z</time>
      </trkpt>
      <trkpt lat="45.80346" lon="4.23866">
        <ele>475.866</ele>
        <time>2018-09-24T12:31:59Z</time>
      </trkpt>
      <trkpt lat="45.80348" lon="4.23875">
        <ele>476.573</ele>
        <time>2018-09-24T12:32:04Z</time>
      </trkpt>
      <trkpt lat="45.80351" lon="4.23882">
        <ele>477.169</ele>
        <time>2018-09-24T12:32:10Z</time>
      </trkpt>
      <trkpt lat="45.80353" lon="4.23889">
        <ele>477.476</ele>
        <time>2018-09-24T12:32:15Z</time>
      </trkpt>
      <trkpt lat="45.80356" lon="4.23898">
        <ele>478.167</ele>
        <time>2018-09-24T12:32:21Z</time>
      </trkpt>
      <trkpt lat="45.80359" lon="4.23907">
        <ele>478.662</ele>
        <time>2018-09-24T12:32:26Z</time>
      </trkpt>
      <trkpt lat="45.80362" lon="4.23917">
        <ele>479.311</ele>
        <time>2018-09-24T12:32:32Z</time>
      </trkpt>
      <trkpt lat="45.80366" lon="4.23925">
        <ele>480.205</ele>
        <time>2018-09-24T12:32:37Z</time>
      </trkpt>
      <trkpt lat="45.80369" lon="4.23933">
        <ele>481.181</ele>
        <time>2018-09-24T12:32:43Z</time>
      </trkpt>
      <trkpt lat="45.80372" lon="4.23942">
        <ele>482.15</ele>
        <time>2018-09-24T12:32:49Z</time>
      </trkpt>
      <trkpt lat="45.80376" lon="4.2395">
        <ele>483.14</ele>
        <time>2018-09-24T12:32:55Z</time>
      </trkpt>
      <trkpt lat="45.80379" lon="4.2396">
        <ele>483.831</ele>
        <time>2018-09-24T12:33:01Z</time>
      </trkpt>
      <trkpt lat="45.80384" lon="4.23966">
        <ele>484.381</ele>
        <time>2018-09-24T12:33:06Z</time>
      </trkpt>
      <trkpt lat="45.80389" lon="4.2397">
        <ele>485.261</ele>
        <time>2018-09-24T12:33:12Z</time>
      </trkpt>
      <trkpt lat="45.80393" lon="4.23976">
        <ele>485.967</ele>
        <time>2018-09-24T12:33:17Z</time>
      </trkpt>
      <trkpt lat="45.80399" lon="4.23983">
        <ele>486.886</ele>
        <time>2018-09-24T12:33:23Z</time>
      </trkpt>
      <trkpt lat="45.80404" lon="4.23989">
        <ele>487.366</ele>
        <time>2018-09-24T12:33:28Z</time>
      </trkpt>
      <trkpt lat="45.80408" lon="4.23993">
        <ele>487.604</ele>
        <time>2018-09-24T12:33:34Z</time>
      </trkpt>
      <trkpt lat="45.80409" lon="4.23992">
        <ele>488.421</ele>
        <time>2018-09-24T12:33:40Z</time>
      </trkpt>
      <trkpt lat="45.80409" lon="4.23994">
        <ele>489.097</ele>
        <time>2018-09-24T12:33:45Z</time>
      </trkpt>
      <trkpt lat="45.80414" lon="4.23998">
        <ele>489.803</ele>
        <time>2018-09-24T12:33:51Z</time>
      </trkpt>
      <trkpt lat="45.80418" lon="4.24001">
        <ele>489.962</ele>
        <time>2018-09-24T12:33:56Z</time>
      </trkpt>
      <trkpt lat="45.80423" lon="4.24006">
        <ele>490.275</ele>
        <time>2018-09-24T12:34:02Z</time>
      </trkpt>
      <trkpt lat="45.80427" lon="4.2401">
        <ele>490.651</ele>
        <time>2018-09-24T12:34:07Z</time>
      </trkpt>
      <trkpt lat="45.80432" lon="4.24013">
        <ele>491.228</ele>
        <time>2018-09-24T12:34:13Z</time>
      </trkpt>
      <trkpt lat="45.80436" lon="4.24015">
        <ele>491.757</ele>
        <time>2018-09-24T12:34:19Z</time>
      </trkpt>
      <trkpt lat="45.80441" lon="4.24017">
        <ele>492.274</ele>
        <time>2018-09-24T12:34:25Z</time>
      </trkpt>
      <trkpt lat="45.80446" lon="4.24021">
        <ele>492.509</ele>
        <time>2018-09-24T12:34:31Z</time>
      </trkpt>
      <trkpt lat="45.80449" lon="4.24022">
        <ele>492.814</ele>
        <time>2018-09-24T12:34:37Z</time>
      </trkpt>
      <trkpt lat="45.80455" lon="4.24025">
        <ele>493.209</ele>
        <time>2018-09-24T12:34:43Z</time>
      </trkpt>
      <trkpt lat="45.80459" lon="4.24026">
        <ele>493.387</ele>
        <time>2018-09-24T12:34:48Z</time>
      </trkpt>
      <trkpt lat="45.80461" lon="4.24023">
        <ele>494.029</ele>
        <time>2018-09-24T12:34:54Z</time>
      </trkpt>
      <trkpt lat="45.80461" lon="4.24022">
        <ele>494.369</ele>
        <time>2018-09-24T12:35:00Z</time>
      </trkpt>
      <trkpt lat="45.8046" lon="4.24021">
        <ele>495.035</ele>
        <time>2018-09-24T12:35:06Z</time>
      </trkpt>
      <trkpt lat="45.80459" lon="4.24022">
        <ele>495.523</ele>
        <time>2018-09-24T12:35:11Z</time>
      </trkpt>
      <trkpt lat="45.80459" lon="4.24023">
        <ele>496.072</ele>
        <time>2018-09-24T12:35:17Z</time>
      </trkpt>
      <trkpt lat="45.8046" lon="4.24023">
        <ele>496.411</ele>
        <time>2018-09-24T12:35:22Z</time>
      </trkpt>
      <trkpt lat="45.8046" lon="4.24023">
        <ele>496.367</ele>
        <time>2018-09-24T12:35:28Z</time>
      </trkpt>
      <trkpt lat="45.80459" lon="4.24021">
        <ele>496.426</ele>
        <time>2018-09-24T12:35:34Z</time>
      </trkpt>
      <trkpt lat="45.80464" lon="4.24018">
        <ele>496.183</ele>
        <time>2018-09-24T12:35:39Z</time>
      </trkpt>
      <trkpt lat="45.80467" lon="4.24017">
        <ele>496.162</ele>
        <time>2018-09-24T12:35:44Z</time>
      </trkpt>
      <trkpt lat="45.8047" lon="4.24016">
        <ele>496.316</ele>
        <time>2018-09-24T12:35:50Z</time>
      </trkpt>
      <trkpt lat="45.80469" lon="4.24016">
        <ele>496.413</ele>
        <time>2018-09-24T12:35:55Z</time>
      </trkpt>
      <trkpt lat="45.80469" lon="4.24016">
        <ele>496.731</ele>
        <time>2018-09-24T12:36:01Z</time>
      </trkpt>
      <trkpt lat="45.80471" lon="4.24015">
        <ele>497.032</ele>
        <time>2018-09-24T12:36:06Z</time>
      </trkpt>
      <trkpt lat="45.80471" lon="4.24015">
        <ele>497.182</ele>
        <time>2018-09-24T12:36:12Z</time>
      </trkpt>
      <trkpt lat="45.80471" lon="4.24014">
        <ele>497.283</ele>
        <time>2018-09-24T12:36:17Z</time>
      </trkpt>
      <trkpt lat="45.80471" lon="4.24012">
        <ele>497.593</ele>
        <time>2018-09-24T12:36:23Z</time>
      </trkpt>
      <trkpt lat="45.80471" lon="4.2401">
        <ele>497.878</ele>
        <time>2018-09-24T12:36:28Z</time>
      </trkpt>
      <trkpt lat="45.8047" lon="4.24011">
        <ele>498.097</ele>
        <time>2018-09-24T12:36:34Z</time>
      </trkpt>
      <trkpt lat="45.8047" lon="4.24011">
        <ele>498.407</ele>
        <time>2018-09-24T12:36:40Z</time>
      </trkpt>
      <trkpt lat="45.80471" lon="4.24011">
        <ele>498.573</ele>
        <time>2018-09-24T12:36:45Z</time>
      </trkpt>
      <trkpt lat="45.80471" lon="4.24011">
        <ele>498.754</ele>
        <time>2018-09-24T12:36:51Z</time>
      </trkpt>
      <trkpt lat="45.80471" lon="4.24012">
        <ele>498.798</ele>
        <time>2018-09-24T12:36:57Z</time>
      </trkpt>
      <trkpt lat="45.80469" lon="4.24012">
        <ele>498.997</ele>
        <time>2018-09-24T12:37:02Z</time>
      </trkpt>
      <trkpt lat="45.80468" lon="4.24011">
        <ele>499.444</ele>
        <time>2018-09-24T12:37:08Z</time>
      </trkpt>
      <trkpt lat="45.80468" lon="4.2401">
        <ele>499.718</ele>
        <time>2018-09-24T12:37:14Z</time>
      </trkpt>
      <trkpt lat="45.80468" lon="4.2401">
        <ele>500.065</ele>
        <time>2018-09-24T12:37:19Z</time>
      </trkpt>
      <trkpt lat="45.80469" lon="4.2401">
        <ele>500.606</ele>
        <time>2018-09-24T12:37:25Z</time>
      </trkpt>
      <trkpt lat="45.80469" lon="4.24011">
        <ele>500.572</ele>
        <time>2018-09-24T12:37:31Z</time>
      </trkpt>
      <trkpt lat="45.80469" lon="4.24012">
        <ele>500.659</ele>
        <time>2018-09-24T12:37:36Z</time>
      </trkpt>
      <trkpt lat="45.80468" lon="4.24011">
        <ele>500.837</ele>
        <time>2018-09-24T12:37:41Z</time>
      </trkpt>
      <trkpt lat="45.80469" lon="4.24011">
        <ele>501.177</ele>
        <time>2018-09-24T12:37:47Z</time>
      </trkpt>
      <trkpt lat="45.8047" lon="4.2401">
        <ele>501.298</ele>
        <time>2018-09-24T12:37:52Z</time>
      </trkpt>
      <trkpt lat="45.80471" lon="4.2401">
        <ele>501.251</ele>
        <time>2018-09-24T12:37:58Z</time>
      </trkpt>
      <trkpt lat="45.80471" lon="4.24011">
        <ele>501.226</ele>
        <time>2018-09-24T12:38:03Z</time>
      </trkpt>
      <trkpt lat="45.80472" lon="4.24014">
        <ele>501.288</ele>
        <time>2018-09-24T12:38:09Z</time>
      </trkpt>
      <trkpt lat="45.80474" lon="4.24014">
        <ele>500.942</ele>
        <time>2018-09-24T12:38:15Z</time>
      </trkpt>
      <trkpt lat="45.80475" lon="4.24012">
        <ele>500.433</ele>
        <time>2018-09-24T12:38:21Z</time>
      </trkpt>
      <trkpt lat="45.80475" lon="4.24012">
        <ele>500.15</ele>
        <time>2018-09-24T12:38:27Z</time>
      </trkpt>
      <trkpt lat="45.80476" lon="4.24014">
        <ele>499.875</ele>
        <time>2018-09-24T12:38:33Z</time>
      </trkpt>
      <trkpt lat="45.80476" lon="4.24014">
        <ele>499.833</ele>
        <time>2018-09-24T12:38:38Z</time>
      </trkpt>
      <trkpt lat="45.80476" lon="4.24014">
        <ele>499.664</ele>
        <time>2018-09-24T12:38:44Z</time>
      </trkpt>
      <trkpt lat="45.80476" lon="4.24014">
        <ele>499.573</ele>
        <time>2018-09-24T12:38:50Z</time>
      </trkpt>
      <trkpt lat="45.80476" lon="4.24014">
        <ele>499.464</ele>
        <time>2018-09-24T12:38:55Z</time>
      </trkpt>
      <trkpt lat="45.80476" lon="4.24014">
        <ele>499.334</ele>
        <time>2018-09-24T12:39:01Z</time>
      </trkpt>
      <trkpt lat="45.80476" lon="4.24014">
        <ele>499.231</ele>
        <time>2018-09-24T12:39:06Z</time>
      </trkpt>
      <trkpt lat="45.80476" lon="4.24014">
        <ele>499.156</ele>
        <time>2018-09-24T12:39:12Z</time>
      </trkpt>
      <trkpt lat="45.80475" lon="4.24014">
        <ele>499.004</ele>
        <time>2018-09-24T12:39:18Z</time>
      </trkpt>
      <trkpt lat="45.80474" lon="4.24014">
        <ele>498.82</ele>
        <time>2018-09-24T12:39:24Z</time>
      </trkpt>
      <trkpt lat="45.80473" lon="4.24016">
        <ele>498.383</ele>
        <time>2018-09-24T12:39:29Z</time>
      </trkpt>
      <trkpt lat="45.80469" lon="4.24015">
        <ele>497.854</ele>
        <time>2018-09-24T12:39:35Z</time>
      </trkpt>
      <trkpt lat="45.80467" lon="4.24018">
        <ele>497.925</ele>
        <time>2018-09-24T12:39:40Z</time>
      </trkpt>
      <trkpt lat="45.80465" lon="4.24019">
        <ele>497.667</ele>
        <time>2018-09-24T12:39:46Z</time>
      </trkpt>
      <trkpt lat="45.80464" lon="4.2402">
        <ele>497.48</ele>
        <time>2018-09-24T12:39:51Z</time>
      </trkpt>
      <trkpt lat="45.80464" lon="4.2402">
        <ele>497.243</ele>
        <time>2018-09-24T12:39:57Z</time>
      </trkpt>
      <trkpt lat="45.80464" lon="4.2402">
        <ele>496.69</ele>
        <time>2018-09-24T12:40:02Z</time>
      </trkpt>
      <trkpt lat="45.80464" lon="4.2402">
        <ele>496.461</ele>
        <time>2018-09-24T12:40:08Z</time>
      </trkpt>
      <trkpt lat="45.80467" lon="4.24022">
        <ele>496.223</ele>
        <time>2018-09-24T12:40:14Z</time>
      </trkpt>
      <trkpt lat="45.80471" lon="4.24024">
        <ele>495.93</ele>
        <time>2018-09-24T12:40:19Z</time>
      </trkpt>
      <trkpt lat="45.80475" lon="4.24025">
        <ele>495.575</ele>
        <time>2018-09-24T12:40:25Z</time>
      </trkpt>
      <trkpt lat="45.80478" lon="4.24027">
        <ele>494.948</ele>
        <time>2018-09-24T12:40:31Z</time>
      </trkpt>
      <trkpt lat="45.80482" lon="4.24028">
        <ele>494.998</ele>
        <time>2018-09-24T12:40:37Z</time>
      </trkpt>
      <trkpt lat="45.80489" lon="4.24034">
        <ele>494.972</ele>
        <time>2018-09-24T12:40:43Z</time>
      </trkpt>
      <trkpt lat="45.80495" lon="4.2404">
        <ele>494.572</ele>
        <time>2018-09-24T12:40:48Z</time>
      </trkpt>
      <trkpt lat="45.805" lon="4.24044">
        <ele>494.851</ele>
        <time>2018-09-24T12:40:54Z</time>
      </trkpt>
      <trkpt lat="45.80505" lon="4.24048">
        <ele>494.894</ele>
        <time>2018-09-24T12:41:00Z</time>
      </trkpt>
      <trkpt lat="45.8051" lon="4.24052">
        <ele>494.989</ele>
        <time>2018-09-24T12:41:05Z</time>
      </trkpt>
      <trkpt lat="45.80517" lon="4.24058">
        <ele>495.123</ele>
        <time>2018-09-24T12:41:11Z</time>
      </trkpt>
      <trkpt lat="45.80523" lon="4.24062">
        <ele>495.59</ele>
        <time>2018-09-24T12:41:17Z</time>
      </trkpt>
      <trkpt lat="45.80528" lon="4.24064">
        <ele>496</ele>
        <time>2018-09-24T12:41:22Z</time>
      </trkpt>
      <trkpt lat="45.80533" lon="4.24068">
        <ele>496.182</ele>
        <time>2018-09-24T12:41:28Z</time>
      </trkpt>
      <trkpt lat="45.80539" lon="4.24073">
        <ele>496.524</ele>
        <time>2018-09-24T12:41:34Z</time>
      </trkpt>
      <trkpt lat="45.80544" lon="4.24077">
        <ele>496.785</ele>
        <time>2018-09-24T12:41:39Z</time>
      </trkpt>
      <trkpt lat="45.80549" lon="4.24081">
        <ele>496.985</ele>
        <time>2018-09-24T12:41:44Z</time>
      </trkpt>
      <trkpt lat="45.80554" lon="4.24084">
        <ele>497.389</ele>
        <time>2018-09-24T12:41:49Z</time>
      </trkpt>
      <trkpt lat="45.80558" lon="4.24088">
        <ele>497.674</ele>
        <time>2018-09-24T12:41:55Z</time>
      </trkpt>
      <trkpt lat="45.80563" lon="4.24092">
        <ele>497.973</ele>
        <time>2018-09-24T12:42:01Z</time>
      </trkpt>
      <trkpt lat="45.80568" lon="4.24095">
        <ele>498.211</ele>
        <time>2018-09-24T12:42:06Z</time>
      </trkpt>
      <trkpt lat="45.80573" lon="4.24099">
        <ele>498.504</ele>
        <time>2018-09-24T12:42:12Z</time>
      </trkpt>
      <trkpt lat="45.80578" lon="4.24103">
        <ele>499.036</ele>
        <time>2018-09-24T12:42:18Z</time>
      </trkpt>
      <trkpt lat="45.80583" lon="4.24104">
        <ele>499.615</ele>
        <time>2018-09-24T12:42:23Z</time>
      </trkpt>
      <trkpt lat="45.80588" lon="4.24107">
        <ele>500.054</ele>
        <time>2018-09-24T12:42:29Z</time>
      </trkpt>
      <trkpt lat="45.80592" lon="4.2411">
        <ele>500.401</ele>
        <time>2018-09-24T12:42:35Z</time>
      </trkpt>
      <trkpt lat="45.80597" lon="4.24113">
        <ele>500.853</ele>
        <time>2018-09-24T12:42:40Z</time>
      </trkpt>
      <trkpt lat="45.80602" lon="4.24116">
        <ele>501.502</ele>
        <time>2018-09-24T12:42:46Z</time>
      </trkpt>
      <trkpt lat="45.80605" lon="4.24119">
        <ele>501.787</ele>
        <time>2018-09-24T12:42:51Z</time>
      </trkpt>
      <trkpt lat="45.80611" lon="4.24123">
        <ele>501.991</ele>
        <time>2018-09-24T12:42:57Z</time>
      </trkpt>
      <trkpt lat="45.80615" lon="4.24126">
        <ele>502.361</ele>
        <time>2018-09-24T12:43:02Z</time>
      </trkpt>
      <trkpt lat="45.80619" lon="4.24128">
        <ele>502.597</ele>
        <time>2018-09-24T12:43:07Z</time>
      </trkpt>
      <trkpt lat="45.80624" lon="4.24134">
        <ele>503.412</ele>
        <time>2018-09-24T12:43:13Z</time>
      </trkpt>
      <trkpt lat="45.8063" lon="4.2414">
        <ele>503.946</ele>
        <time>2018-09-24T12:43:19Z</time>
      </trkpt>
      <trkpt lat="45.80633" lon="4.24143">
        <ele>504.392</ele>
        <time>2018-09-24T12:43:24Z</time>
      </trkpt>
      <trkpt lat="45.80638" lon="4.24146">
        <ele>505.017</ele>
        <time>2018-09-24T12:43:30Z</time>
      </trkpt>
      <trkpt lat="45.80642" lon="4.24149">
        <ele>505.861</ele>
        <time>2018-09-24T12:43:36Z</time>
      </trkpt>
      <trkpt lat="45.80648" lon="4.2415">
        <ele>506.51</ele>
        <time>2018-09-24T12:43:41Z</time>
      </trkpt>
      <trkpt lat="45.80653" lon="4.24152">
        <ele>507.188</ele>
        <time>2018-09-24T12:43:47Z</time>
      </trkpt>
      <trkpt lat="45.80658" lon="4.24151">
        <ele>507.906</ele>
        <time>2018-09-24T12:43:52Z</time>
      </trkpt>
      <trkpt lat="45.80664" lon="4.24151">
        <ele>508.934</ele>
        <time>2018-09-24T12:43:58Z</time>
      </trkpt>
      <trkpt lat="45.80669" lon="4.24152">
        <ele>509.54</ele>
        <time>2018-09-24T12:44:04Z</time>
      </trkpt>
      <trkpt lat="45.80676" lon="4.24153">
        <ele>510.251</ele>
        <time>2018-09-24T12:44:10Z</time>
      </trkpt>
      <trkpt lat="45.80681" lon="4.24154">
        <ele>510.969</ele>
        <time>2018-09-24T12:44:15Z</time>
      </trkpt>
      <trkpt lat="45.80686" lon="4.24155">
        <ele>511.572</ele>
        <time>2018-09-24T12:44:21Z</time>
      </trkpt>
      <trkpt lat="45.80687" lon="4.24155">
        <ele>512.026</ele>
        <time>2018-09-24T12:44:26Z</time>
      </trkpt>
      <trkpt lat="45.80687" lon="4.24155">
        <ele>512.323</ele>
        <time>2018-09-24T12:44:32Z</time>
      </trkpt>
      <trkpt lat="45.80686" lon="4.24156">
        <ele>513.057</ele>
        <time>2018-09-24T12:44:38Z</time>
      </trkpt>
      <trkpt lat="45.80687" lon="4.24157">
        <ele>513.731</ele>
        <time>2018-09-24T12:44:43Z</time>
      </trkpt>
      <trkpt lat="45.80687" lon="4.24157">
        <ele>514.234</ele>
        <time>2018-09-24T12:44:48Z</time>
      </trkpt>
      <trkpt lat="45.8069" lon="4.2416">
        <ele>514.5</ele>
        <time>2018-09-24T12:44:54Z</time>
      </trkpt>
      <trkpt lat="45.80697" lon="4.24159">
        <ele>514.618</ele>
        <time>2018-09-24T12:45:00Z</time>
      </trkpt>
      <trkpt lat="45.80701" lon="4.24156">
        <ele>514.646</ele>
        <time>2018-09-24T12:45:05Z</time>
      </trkpt>
      <trkpt lat="45.80704" lon="4.24154">
        <ele>515.061</ele>
        <time>2018-09-24T12:45:10Z</time>
      </trkpt>
      <trkpt lat="45.8071" lon="4.2415">
        <ele>515.315</ele>
        <time>2018-09-24T12:45:15Z</time>
      </trkpt>
      <trkpt lat="45.80714" lon="4.2415">
        <ele>515.734</ele>
        <time>2018-09-24T12:45:20Z</time>
      </trkpt>
      <trkpt lat="45.80717" lon="4.24148">
        <ele>516.074</ele>
        <time>2018-09-24T12:45:26Z</time>
      </trkpt>
      <trkpt lat="45.80722" lon="4.24149">
        <ele>516.273</ele>
        <time>2018-09-24T12:45:31Z</time>
      </trkpt>
      <trkpt lat="45.80727" lon="4.24149">
        <ele>516.57</ele>
        <time>2018-09-24T12:45:36Z</time>
      </trkpt>
      <trkpt lat="45.80733" lon="4.2415">
        <ele>516.755</ele>
        <time>2018-09-24T12:45:42Z</time>
      </trkpt>
      <trkpt lat="45.80739" lon="4.24153">
        <ele>517.012</ele>
        <time>2018-09-24T12:45:48Z</time>
      </trkpt>
      <trkpt lat="45.80744" lon="4.24155">
        <ele>517.314</ele>
        <time>2018-09-24T12:45:54Z</time>
      </trkpt>
      <trkpt lat="45.8075" lon="4.24156">
        <ele>517.808</ele>
        <time>2018-09-24T12:46:00Z</time>
      </trkpt>
      <trkpt lat="45.80757" lon="4.24159">
        <ele>518.225</ele>
        <time>2018-09-24T12:46:06Z</time>
      </trkpt>
      <trkpt lat="45.80763" lon="4.24161">
        <ele>518.615</ele>
        <time>2018-09-24T12:46:12Z</time>
      </trkpt>
      <trkpt lat="45.80767" lon="4.24161">
        <ele>518.957</ele>
        <time>2018-09-24T12:46:17Z</time>
      </trkpt>
      <trkpt lat="45.80773" lon="4.24165">
        <ele>519.162</ele>
        <time>2018-09-24T12:46:23Z</time>
      </trkpt>
      <trkpt lat="45.8078" lon="4.24168">
        <ele>519.553</ele>
        <time>2018-09-24T12:46:28Z</time>
      </trkpt>
      <trkpt lat="45.80785" lon="4.24171">
        <ele>520.084</ele>
        <time>2018-09-24T12:46:34Z</time>
      </trkpt>
      <trkpt lat="45.80789" lon="4.24172">
        <ele>520.507</ele>
        <time>2018-09-24T12:46:39Z</time>
      </trkpt>
      <trkpt lat="45.80794" lon="4.24175">
        <ele>520.652</ele>
        <time>2018-09-24T12:46:45Z</time>
      </trkpt>
      <trkpt lat="45.80798" lon="4.24177">
        <ele>520.843</ele>
        <time>2018-09-24T12:46:50Z</time>
      </trkpt>
      <trkpt lat="45.80805" lon="4.24181">
        <ele>520.999</ele>
        <time>2018-09-24T12:46:55Z</time>
      </trkpt>
      <trkpt lat="45.8081" lon="4.24182">
        <ele>521.333</ele>
        <time>2018-09-24T12:47:00Z</time>
      </trkpt>
      <trkpt lat="45.80817" lon="4.24185">
        <ele>521.768</ele>
        <time>2018-09-24T12:47:06Z</time>
      </trkpt>
      <trkpt lat="45.80821" lon="4.24187">
        <ele>521.882</ele>
        <time>2018-09-24T12:47:11Z</time>
      </trkpt>
      <trkpt lat="45.80827" lon="4.2419">
        <ele>521.898</ele>
        <time>2018-09-24T12:47:16Z</time>
      </trkpt>
      <trkpt lat="45.80833" lon="4.24194">
        <ele>522.09</ele>
        <time>2018-09-24T12:47:22Z</time>
      </trkpt>
      <trkpt lat="45.80838" lon="4.24198">
        <ele>522.537</ele>
        <time>2018-09-24T12:47:28Z</time>
      </trkpt>
      <trkpt lat="45.80846" lon="4.24203">
        <ele>522.734</ele>
        <time>2018-09-24T12:47:34Z</time>
      </trkpt>
      <trkpt lat="45.80852" lon="4.24207">
        <ele>522.903</ele>
        <time>2018-09-24T12:47:39Z</time>
      </trkpt>
      <trkpt lat="45.80856" lon="4.24212">
        <ele>523.112</ele>
        <time>2018-09-24T12:47:44Z</time>
      </trkpt>
      <trkpt lat="45.80862" lon="4.24218">
        <ele>523.331</ele>
        <time>2018-09-24T12:47:50Z</time>
      </trkpt>
      <trkpt lat="45.80868" lon="4.24223">
        <ele>523.696</ele>
        <time>2018-09-24T12:47:56Z</time>
      </trkpt>
      <trkpt lat="45.80875" lon="4.24229">
        <ele>523.955</ele>
        <time>2018-09-24T12:48:02Z</time>
      </trkpt>
      <trkpt lat="45.8088" lon="4.24232">
        <ele>524.217</ele>
        <time>2018-09-24T12:48:07Z</time>
      </trkpt>
      <trkpt lat="45.80885" lon="4.24235">
        <ele>524.49</ele>
        <time>2018-09-24T12:48:12Z</time>
      </trkpt>
      <trkpt lat="45.8089" lon="4.24239">
        <ele>524.691</ele>
        <time>2018-09-24T12:48:17Z</time>
      </trkpt>
      <trkpt lat="45.80896" lon="4.24241">
        <ele>525.086</ele>
        <time>2018-09-24T12:48:23Z</time>
      </trkpt>
      <trkpt lat="45.80902" lon="4.24244">
        <ele>525.185</ele>
        <time>2018-09-24T12:48:28Z</time>
      </trkpt>
      <trkpt lat="45.80908" lon="4.24247">
        <ele>525.572</ele>
        <time>2018-09-24T12:48:34Z</time>
      </trkpt>
      <trkpt lat="45.80913" lon="4.2425">
        <ele>526.121</ele>
        <time>2018-09-24T12:48:39Z</time>
      </trkpt>
      <trkpt lat="45.8092" lon="4.24251">
        <ele>526.833</ele>
        <time>2018-09-24T12:48:45Z</time>
      </trkpt>
      <trkpt lat="45.80926" lon="4.24251">
        <ele>527.089</ele>
        <time>2018-09-24T12:48:50Z</time>
      </trkpt>
      <trkpt lat="45.80934" lon="4.24251">
        <ele>527.417</ele>
        <time>2018-09-24T12:48:56Z</time>
      </trkpt>
      <trkpt lat="45.80941" lon="4.2425">
        <ele>527.779</ele>
        <time>2018-09-24T12:49:02Z</time>
      </trkpt>
      <trkpt lat="45.80949" lon="4.2425">
        <ele>527.921</ele>
        <time>2018-09-24T12:49:08Z</time>
      </trkpt>
      <trkpt lat="45.80954" lon="4.2425">
        <ele>528.334</ele>
        <time>2018-09-24T12:49:13Z</time>
      </trkpt>
      <trkpt lat="45.8096" lon="4.24249">
        <ele>528.776</ele>
        <time>2018-09-24T12:49:19Z</time>
      </trkpt>
      <trkpt lat="45.80967" lon="4.24248">
        <ele>529.149</ele>
        <time>2018-09-24T12:49:25Z</time>
      </trkpt>
      <trkpt lat="45.80972" lon="4.24247">
        <ele>529.471</ele>
        <time>2018-09-24T12:49:30Z</time>
      </trkpt>
      <trkpt lat="45.80979" lon="4.24247">
        <ele>529.749</ele>
        <time>2018-09-24T12:49:36Z</time>
      </trkpt>
      <trkpt lat="45.80986" lon="4.24247">
        <ele>530.022</ele>
        <time>2018-09-24T12:49:41Z</time>
      </trkpt>
      <trkpt lat="45.80993" lon="4.24246">
        <ele>530.226</ele>
        <time>2018-09-24T12:49:47Z</time>
      </trkpt>
      <trkpt lat="45.80998" lon="4.24246">
        <ele>530.644</ele>
        <time>2018-09-24T12:49:52Z</time>
      </trkpt>
      <trkpt lat="45.81004" lon="4.24245">
        <ele>530.992</ele>
        <time>2018-09-24T12:49:58Z</time>
      </trkpt>
      <trkpt lat="45.81011" lon="4.24245">
        <ele>531.376</ele>
        <time>2018-09-24T12:50:03Z</time>
      </trkpt>
      <trkpt lat="45.81017" lon="4.24246">
        <ele>531.706</ele>
        <time>2018-09-24T12:50:08Z</time>
      </trkpt>
      <trkpt lat="45.81023" lon="4.24246">
        <ele>531.917</ele>
        <time>2018-09-24T12:50:14Z</time>
      </trkpt>
      <trkpt lat="45.81027" lon="4.24246">
        <ele>532.289</ele>
        <time>2018-09-24T12:50:19Z</time>
      </trkpt>
      <trkpt lat="45.81033" lon="4.24246">
        <ele>532.396</ele>
        <time>2018-09-24T12:50:24Z</time>
      </trkpt>
      <trkpt lat="45.81039" lon="4.24247">
        <ele>532.35</ele>
        <time>2018-09-24T12:50:30Z</time>
      </trkpt>
      <trkpt lat="45.81047" lon="4.24247">
        <ele>532.269</ele>
        <time>2018-09-24T12:50:36Z</time>
      </trkpt>
      <trkpt lat="45.81054" lon="4.24245">
        <ele>532.301</ele>
        <time>2018-09-24T12:50:42Z</time>
      </trkpt>
      <trkpt lat="45.81062" lon="4.24246">
        <ele>532.32</ele>
        <time>2018-09-24T12:50:48Z</time>
      </trkpt>
      <trkpt lat="45.81067" lon="4.24247">
        <ele>532.854</ele>
        <time>2018-09-24T12:50:53Z</time>
      </trkpt>
      <trkpt lat="45.81074" lon="4.24246">
        <ele>533.294</ele>
        <time>2018-09-24T12:50:59Z</time>
      </trkpt>
      <trkpt lat="45.8108" lon="4.24246">
        <ele>533.87</ele>
        <time>2018-09-24T12:51:05Z</time>
      </trkpt>
      <trkpt lat="45.81087" lon="4.24244">
        <ele>534.363</ele>
        <time>2018-09-24T12:51:10Z</time>
      </trkpt>
      <trkpt lat="45.81095" lon="4.24247">
        <ele>534.631</ele>
        <time>2018-09-24T12:51:16Z</time>
      </trkpt>
      <trkpt lat="45.811" lon="4.24246">
        <ele>534.818</ele>
        <time>2018-09-24T12:51:22Z</time>
      </trkpt>
      <trkpt lat="45.81106" lon="4.24245">
        <ele>534.864</ele>
        <time>2018-09-24T12:51:27Z</time>
      </trkpt>
      <trkpt lat="45.81112" lon="4.24244">
        <ele>534.739</ele>
        <time>2018-09-24T12:51:32Z</time>
      </trkpt>
      <trkpt lat="45.81117" lon="4.24246">
        <ele>534.606</ele>
        <time>2018-09-24T12:51:37Z</time>
      </trkpt>
      <trkpt lat="45.81123" lon="4.24245">
        <ele>534.547</ele>
        <time>2018-09-24T12:51:43Z</time>
      </trkpt>
      <trkpt lat="45.81129" lon="4.24246">
        <ele>534.519</ele>
        <time>2018-09-24T12:51:48Z</time>
      </trkpt>
      <trkpt lat="45.81137" lon="4.24247">
        <ele>534.244</ele>
        <time>2018-09-24T12:51:54Z</time>
      </trkpt>
      <trkpt lat="45.81144" lon="4.24248">
        <ele>534.254</ele>
        <time>2018-09-24T12:52:00Z</time>
      </trkpt>
      <trkpt lat="45.81152" lon="4.24247">
        <ele>534.331</ele>
        <time>2018-09-24T12:52:06Z</time>
      </trkpt>
      <trkpt lat="45.81159" lon="4.24248">
        <ele>534.525</ele>
        <time>2018-09-24T12:52:12Z</time>
      </trkpt>
      <trkpt lat="45.81166" lon="4.24248">
        <ele>534.713</ele>
        <time>2018-09-24T12:52:17Z</time>
      </trkpt>
      <trkpt lat="45.81173" lon="4.24248">
        <ele>535.046</ele>
        <time>2018-09-24T12:52:23Z</time>
      </trkpt>
      <trkpt lat="45.81177" lon="4.24248">
        <ele>535.555</ele>
        <time>2018-09-24T12:52:28Z</time>
      </trkpt>
      <trkpt lat="45.81186" lon="4.24247">
        <ele>536.213</ele>
        <time>2018-09-24T12:52:34Z</time>
      </trkpt>
      <trkpt lat="45.81193" lon="4.24248">
        <ele>536.733</ele>
        <time>2018-09-24T12:52:39Z</time>
      </trkpt>
      <trkpt lat="45.81202" lon="4.24247">
        <ele>537.516</ele>
        <time>2018-09-24T12:52:45Z</time>
      </trkpt>
      <trkpt lat="45.8121" lon="4.24247">
        <ele>538.197</ele>
        <time>2018-09-24T12:52:51Z</time>
      </trkpt>
      <trkpt lat="45.81218" lon="4.24249">
        <ele>538.919</ele>
        <time>2018-09-24T12:52:57Z</time>
      </trkpt>
      <trkpt lat="45.81225" lon="4.24249">
        <ele>538.97</ele>
        <time>2018-09-24T12:53:03Z</time>
      </trkpt>
      <trkpt lat="45.81234" lon="4.2425">
        <ele>539.282</ele>
        <time>2018-09-24T12:53:09Z</time>
      </trkpt>
      <trkpt lat="45.81241" lon="4.24251">
        <ele>539.651</ele>
        <time>2018-09-24T12:53:14Z</time>
      </trkpt>
      <trkpt lat="45.81247" lon="4.24255">
        <ele>539.955</ele>
        <time>2018-09-24T12:53:20Z</time>
      </trkpt>
      <trkpt lat="45.81248" lon="4.24255">
        <ele>540.054</ele>
        <time>2018-09-24T12:53:25Z</time>
      </trkpt>
      <trkpt lat="45.8125" lon="4.24256">
        <ele>540.179</ele>
        <time>2018-09-24T12:53:30Z</time>
      </trkpt>
      <trkpt lat="45.81257" lon="4.24261">
        <ele>540.084</ele>
        <time>2018-09-24T12:53:36Z</time>
      </trkpt>
      <trkpt lat="45.81264" lon="4.24264">
        <ele>540.008</ele>
        <time>2018-09-24T12:53:41Z</time>
      </trkpt>
      <trkpt lat="45.81272" lon="4.24268">
        <ele>539.703</ele>
        <time>2018-09-24T12:53:47Z</time>
      </trkpt>
      <trkpt lat="45.81282" lon="4.24273">
        <ele>539.714</ele>
        <time>2018-09-24T12:53:53Z</time>
      </trkpt>
      <trkpt lat="45.81292" lon="4.24277">
        <ele>539.647</ele>
        <time>2018-09-24T12:53:59Z</time>
      </trkpt>
      <trkpt lat="45.81299" lon="4.24278">
        <ele>539.818</ele>
        <time>2018-09-24T12:54:04Z</time>
      </trkpt>
      <trkpt lat="45.81306" lon="4.24279">
        <ele>539.599</ele>
        <time>2018-09-24T12:54:10Z</time>
      </trkpt>
      <trkpt lat="45.81315" lon="4.24278">
        <ele>539.546</ele>
        <time>2018-09-24T12:54:15Z</time>
      </trkpt>
      <trkpt lat="45.81322" lon="4.24277">
        <ele>539.747</ele>
        <time>2018-09-24T12:54:20Z</time>
      </trkpt>
      <trkpt lat="45.8133" lon="4.24274">
        <ele>539.979</ele>
        <time>2018-09-24T12:54:25Z</time>
      </trkpt>
      <trkpt lat="45.81338" lon="4.24269">
        <ele>540.633</ele>
        <time>2018-09-24T12:54:31Z</time>
      </trkpt>
      <trkpt lat="45.81345" lon="4.24265">
        <ele>540.773</ele>
        <time>2018-09-24T12:54:37Z</time>
      </trkpt>
      <trkpt lat="45.81353" lon="4.24262">
        <ele>541.009</ele>
        <time>2018-09-24T12:54:43Z</time>
      </trkpt>
      <trkpt lat="45.81362" lon="4.24257">
        <ele>541.551</ele>
        <time>2018-09-24T12:54:49Z</time>
      </trkpt>
      <trkpt lat="45.8137" lon="4.24255">
        <ele>542.109</ele>
        <time>2018-09-24T12:54:54Z</time>
      </trkpt>
      <trkpt lat="45.81378" lon="4.24251">
        <ele>542.511</ele>
        <time>2018-09-24T12:55:00Z</time>
      </trkpt>
      <trkpt lat="45.81386" lon="4.24246">
        <ele>543.071</ele>
        <time>2018-09-24T12:55:06Z</time>
      </trkpt>
      <trkpt lat="45.81392" lon="4.24244">
        <ele>544.453</ele>
        <time>2018-09-24T12:55:11Z</time>
      </trkpt>
      <trkpt lat="45.81398" lon="4.24242">
        <ele>545.693</ele>
        <time>2018-09-24T12:55:17Z</time>
      </trkpt>
      <trkpt lat="45.81403" lon="4.24239">
        <ele>546.167</ele>
        <time>2018-09-24T12:55:22Z</time>
      </trkpt>
      <trkpt lat="45.81411" lon="4.24235">
        <ele>546.453</ele>
        <time>2018-09-24T12:55:27Z</time>
      </trkpt>
      <trkpt lat="45.8142" lon="4.24228">
        <ele>546.386</ele>
        <time>2018-09-24T12:55:32Z</time>
      </trkpt>
      <trkpt lat="45.81427" lon="4.24222">
        <ele>546.218</ele>
        <time>2018-09-24T12:55:38Z</time>
      </trkpt>
      <trkpt lat="45.81435" lon="4.24218">
        <ele>546.213</ele>
        <time>2018-09-24T12:55:44Z</time>
      </trkpt>
      <trkpt lat="45.81443" lon="4.24213">
        <ele>546.459</ele>
        <time>2018-09-24T12:55:49Z</time>
      </trkpt>
      <trkpt lat="45.81453" lon="4.24207">
        <ele>546.599</ele>
        <time>2018-09-24T12:55:55Z</time>
      </trkpt>
      <trkpt lat="45.81462" lon="4.24203">
        <ele>546.8</ele>
        <time>2018-09-24T12:56:01Z</time>
      </trkpt>
      <trkpt lat="45.81469" lon="4.24201">
        <ele>547.473</ele>
        <time>2018-09-24T12:56:07Z</time>
      </trkpt>
      <trkpt lat="45.81476" lon="4.24199">
        <ele>547.708</ele>
        <time>2018-09-24T12:56:12Z</time>
      </trkpt>
      <trkpt lat="45.81484" lon="4.24197">
        <ele>548.062</ele>
        <time>2018-09-24T12:56:17Z</time>
      </trkpt>
      <trkpt lat="45.8149" lon="4.24196">
        <ele>548.275</ele>
        <time>2018-09-24T12:56:23Z</time>
      </trkpt>
      <trkpt lat="45.815" lon="4.24195">
        <ele>548.405</ele>
        <time>2018-09-24T12:56:29Z</time>
      </trkpt>
      <trkpt lat="45.81507" lon="4.24191">
        <ele>548.7</ele>
        <time>2018-09-24T12:56:35Z</time>
      </trkpt>
      <trkpt lat="45.81515" lon="4.24189">
        <ele>548.996</ele>
        <time>2018-09-24T12:56:41Z</time>
      </trkpt>
      <trkpt lat="45.81523" lon="4.2419">
        <ele>548.891</ele>
        <time>2018-09-24T12:56:47Z</time>
      </trkpt>
      <trkpt lat="45.81533" lon="4.2419">
        <ele>549.163</ele>
        <time>2018-09-24T12:56:53Z</time>
      </trkpt>
      <trkpt lat="45.81541" lon="4.24191">
        <ele>549.355</ele>
        <time>2018-09-24T12:56:58Z</time>
      </trkpt>
      <trkpt lat="45.8155" lon="4.24189">
        <ele>549.239</ele>
        <time>2018-09-24T12:57:04Z</time>
      </trkpt>
      <trkpt lat="45.81557" lon="4.24188">
        <ele>549.081</ele>
        <time>2018-09-24T12:57:09Z</time>
      </trkpt>
      <trkpt lat="45.81558" lon="4.24184">
        <ele>549.046</ele>
        <time>2018-09-24T12:57:15Z</time>
      </trkpt>
      <trkpt lat="45.81559" lon="4.24184">
        <ele>549.611</ele>
        <time>2018-09-24T12:57:21Z</time>
      </trkpt>
      <trkpt lat="45.8156" lon="4.24184">
        <ele>550.279</ele>
        <time>2018-09-24T12:57:26Z</time>
      </trkpt>
      <trkpt lat="45.81561" lon="4.24182">
        <ele>550.6</ele>
        <time>2018-09-24T12:57:31Z</time>
      </trkpt>
      <trkpt lat="45.81558" lon="4.24181">
        <ele>550.261</ele>
        <time>2018-09-24T12:57:37Z</time>
      </trkpt>
      <trkpt lat="45.81556" lon="4.24181">
        <ele>549.92</ele>
        <time>2018-09-24T12:57:42Z</time>
      </trkpt>
      <trkpt lat="45.81556" lon="4.2418">
        <ele>549.871</ele>
        <time>2018-09-24T12:57:48Z</time>
      </trkpt>
      <trkpt lat="45.81556" lon="4.2418">
        <ele>550.492</ele>
        <time>2018-09-24T12:57:53Z</time>
      </trkpt>
      <trkpt lat="45.81557" lon="4.2418">
        <ele>550.648</ele>
        <time>2018-09-24T12:57:58Z</time>
      </trkpt>
      <trkpt lat="45.81556" lon="4.24184">
        <ele>550.528</ele>
        <time>2018-09-24T12:58:03Z</time>
      </trkpt>
      <trkpt lat="45.81556" lon="4.24186">
        <ele>550.418</ele>
        <time>2018-09-24T12:58:08Z</time>
      </trkpt>
      <trkpt lat="45.81557" lon="4.24188">
        <ele>550.464</ele>
        <time>2018-09-24T12:58:14Z</time>
      </trkpt>
      <trkpt lat="45.81557" lon="4.24186">
        <ele>550.508</ele>
        <time>2018-09-24T12:58:20Z</time>
      </trkpt>
      <trkpt lat="45.81559" lon="4.24183">
        <ele>550.475</ele>
        <time>2018-09-24T12:58:26Z</time>
      </trkpt>
      <trkpt lat="45.8156" lon="4.24182">
        <ele>550.063</ele>
        <time>2018-09-24T12:58:32Z</time>
      </trkpt>
      <trkpt lat="45.81559" lon="4.24182">
        <ele>550.032</ele>
        <time>2018-09-24T12:58:38Z</time>
      </trkpt>
      <trkpt lat="45.81558" lon="4.24183">
        <ele>549.84</ele>
        <time>2018-09-24T12:58:43Z</time>
      </trkpt>
      <trkpt lat="45.81562" lon="4.24183">
        <ele>549.916</ele>
        <time>2018-09-24T12:58:49Z</time>
      </trkpt>
      <trkpt lat="45.8157" lon="4.24183">
        <ele>550.002</ele>
        <time>2018-09-24T12:58:54Z</time>
      </trkpt>
      <trkpt lat="45.81576" lon="4.24184">
        <ele>550.244</ele>
        <time>2018-09-24T12:59:00Z</time>
      </trkpt>
      <trkpt lat="45.81582" lon="4.24182">
        <ele>550.222</ele>
        <time>2018-09-24T12:59:05Z</time>
      </trkpt>
      <trkpt lat="45.81589" lon="4.2418">
        <ele>549.874</ele>
        <time>2018-09-24T12:59:11Z</time>
      </trkpt>
      <trkpt lat="45.81597" lon="4.24178">
        <ele>549.489</ele>
        <time>2018-09-24T12:59:16Z</time>
      </trkpt>
      <trkpt lat="45.81604" lon="4.24179">
        <ele>549.403</ele>
        <time>2018-09-24T12:59:22Z</time>
      </trkpt>
      <trkpt lat="45.81609" lon="4.2418">
        <ele>549.748</ele>
        <time>2018-09-24T12:59:27Z</time>
      </trkpt>
      <trkpt lat="45.81614" lon="4.2418">
        <ele>550.041</ele>
        <time>2018-09-24T12:59:32Z</time>
      </trkpt>
      <trkpt lat="45.81618" lon="4.24178">
        <ele>550.455</ele>
        <time>2018-09-24T12:59:38Z</time>
      </trkpt>
      <trkpt lat="45.81628" lon="4.2418">
        <ele>550.716</ele>
        <time>2018-09-24T12:59:43Z</time>
      </trkpt>
      <trkpt lat="45.81635" lon="4.2418">
        <ele>550.747</ele>
        <time>2018-09-24T12:59:49Z</time>
      </trkpt>
      <trkpt lat="45.8164" lon="4.2418">
        <ele>550.849</ele>
        <time>2018-09-24T12:59:54Z</time>
      </trkpt>
      <trkpt lat="45.81642" lon="4.24181">
        <ele>551.044</ele>
        <time>2018-09-24T13:00:00Z</time>
      </trkpt>
      <trkpt lat="45.81648" lon="4.24183">
        <ele>551.589</ele>
        <time>2018-09-24T13:00:06Z</time>
      </trkpt>
      <trkpt lat="45.81655" lon="4.24185">
        <ele>552.07</ele>
        <time>2018-09-24T13:00:12Z</time>
      </trkpt>
      <trkpt lat="45.81662" lon="4.24187">
        <ele>552.208</ele>
        <time>2018-09-24T13:00:18Z</time>
      </trkpt>
      <trkpt lat="45.81667" lon="4.24188">
        <ele>551.497</ele>
        <time>2018-09-24T13:00:23Z</time>
      </trkpt>
      <trkpt lat="45.81676" lon="4.2419">
        <ele>550.656</ele>
        <time>2018-09-24T13:00:29Z</time>
      </trkpt>
      <trkpt lat="45.81683" lon="4.24191">
        <ele>550.213</ele>
        <time>2018-09-24T13:00:34Z</time>
      </trkpt>
      <trkpt lat="45.8169" lon="4.24194">
        <ele>549.709</ele>
        <time>2018-09-24T13:00:39Z</time>
      </trkpt>
      <trkpt lat="45.81696" lon="4.24195">
        <ele>549.7</ele>
        <time>2018-09-24T13:00:44Z</time>
      </trkpt>
      <trkpt lat="45.81703" lon="4.24195">
        <ele>549.092</ele>
        <time>2018-09-24T13:00:49Z</time>
      </trkpt>
      <trkpt lat="45.81711" lon="4.24192">
        <ele>548.782</ele>
        <time>2018-09-24T13:00:54Z</time>
      </trkpt>
      <trkpt lat="45.81716" lon="4.2419">
        <ele>548.861</ele>
        <time>2018-09-24T13:01:00Z</time>
      </trkpt>
      <trkpt lat="45.81722" lon="4.24188">
        <ele>548.984</ele>
        <time>2018-09-24T13:01:05Z</time>
      </trkpt>
      <trkpt lat="45.81728" lon="4.24188">
        <ele>549.384</ele>
        <time>2018-09-24T13:01:11Z</time>
      </trkpt>
      <trkpt lat="45.81734" lon="4.24188">
        <ele>549.88</ele>
        <time>2018-09-24T13:01:16Z</time>
      </trkpt>
      <trkpt lat="45.81738" lon="4.24189">
        <ele>550.547</ele>
        <time>2018-09-24T13:01:22Z</time>
      </trkpt>
      <trkpt lat="45.81743" lon="4.24189">
        <ele>551.056</ele>
        <time>2018-09-24T13:01:28Z</time>
      </trkpt>
      <trkpt lat="45.81745" lon="4.24188">
        <ele>551.835</ele>
        <time>2018-09-24T13:01:34Z</time>
      </trkpt>
      <trkpt lat="45.81746" lon="4.24184">
        <ele>552.975</ele>
        <time>2018-09-24T13:01:40Z</time>
      </trkpt>
      <trkpt lat="45.81746" lon="4.24185">
        <ele>553.071</ele>
        <time>2018-09-24T13:01:46Z</time>
      </trkpt>
      <trkpt lat="45.81746" lon="4.24186">
        <ele>552.97</ele>
        <time>2018-09-24T13:01:51Z</time>
      </trkpt>
      <trkpt lat="45.81747" lon="4.24186">
        <ele>552.72</ele>
        <time>2018-09-24T13:01:57Z</time>
      </trkpt>
      <trkpt lat="45.81747" lon="4.24187">
        <ele>552.657</ele>
        <time>2018-09-24T13:02:02Z</time>
      </trkpt>
      <trkpt lat="45.81746" lon="4.24186">
        <ele>552.409</ele>
        <time>2018-09-24T13:02:08Z</time>
      </trkpt>
      <trkpt lat="45.81746" lon="4.24187">
        <ele>552.364</ele>
        <time>2018-09-24T13:02:14Z</time>
      </trkpt>
      <trkpt lat="45.81746" lon="4.24188">
        <ele>552.421</ele>
        <time>2018-09-24T13:02:19Z</time>
      </trkpt>
      <trkpt lat="45.81745" lon="4.24187">
        <ele>552.697</ele>
        <time>2018-09-24T13:02:25Z</time>
      </trkpt>
      <trkpt lat="45.81746" lon="4.24187">
        <ele>552.682</ele>
        <time>2018-09-24T13:02:30Z</time>
      </trkpt>
      <trkpt lat="45.81746" lon="4.24187">
        <ele>552.645</ele>
        <time>2018-09-24T13:02:36Z</time>
      </trkpt>
      <trkpt lat="45.81746" lon="4.24189">
        <ele>552.736</ele>
        <time>2018-09-24T13:02:42Z</time>
      </trkpt>
      <trkpt lat="45.81747" lon="4.24189">
        <ele>552.72</ele>
        <time>2018-09-24T13:02:47Z</time>
      </trkpt>
      <trkpt lat="45.81748" lon="4.24191">
        <ele>553.131</ele>
        <time>2018-09-24T13:02:52Z</time>
      </trkpt>
      <trkpt lat="45.81749" lon="4.24192">
        <ele>553.367</ele>
        <time>2018-09-24T13:02:58Z</time>
      </trkpt>
      <trkpt lat="45.81753" lon="4.24195">
        <ele>553.525</ele>
        <time>2018-09-24T13:03:03Z</time>
      </trkpt>
      <trkpt lat="45.81756" lon="4.24199">
        <ele>554.298</ele>
        <time>2018-09-24T13:03:09Z</time>
      </trkpt>
      <trkpt lat="45.8176" lon="4.24202">
        <ele>554.621</ele>
        <time>2018-09-24T13:03:15Z</time>
      </trkpt>
      <trkpt lat="45.81762" lon="4.24204">
        <ele>554.548</ele>
        <time>2018-09-24T13:03:21Z</time>
      </trkpt>
      <trkpt lat="45.81764" lon="4.24207">
        <ele>554.296</ele>
        <time>2018-09-24T13:03:26Z</time>
      </trkpt>
      <trkpt lat="45.81772" lon="4.24219">
        <ele>553.781</ele>
        <time>2018-09-24T13:03:31Z</time>
      </trkpt>
      <trkpt lat="45.81777" lon="4.24222">
        <ele>553.759</ele>
        <time>2018-09-24T13:03:37Z</time>
      </trkpt>
      <trkpt lat="45.81781" lon="4.24225">
        <ele>554.127</ele>
        <time>2018-09-24T13:03:42Z</time>
      </trkpt>
      <trkpt lat="45.81788" lon="4.24231">
        <ele>554.69</ele>
        <time>2018-09-24T13:03:48Z</time>
      </trkpt>
      <trkpt lat="45.81792" lon="4.24235">
        <ele>554.677</ele>
        <time>2018-09-24T13:03:54Z</time>
      </trkpt>
      <trkpt lat="45.81796" lon="4.24242">
        <ele>554.934</ele>
        <time>2018-09-24T13:04:00Z</time>
      </trkpt>
      <trkpt lat="45.818" lon="4.24245">
        <ele>555.047</ele>
        <time>2018-09-24T13:04:06Z</time>
      </trkpt>
      <trkpt lat="45.81804" lon="4.2425">
        <ele>555.29</ele>
        <time>2018-09-24T13:04:12Z</time>
      </trkpt>
      <trkpt lat="45.81807" lon="4.24253">
        <ele>555.481</ele>
        <time>2018-09-24T13:04:17Z</time>
      </trkpt>
      <trkpt lat="45.81812" lon="4.24257">
        <ele>555.524</ele>
        <time>2018-09-24T13:04:22Z</time>
      </trkpt>
      <trkpt lat="45.81816" lon="4.2426">
        <ele>555.558</ele>
        <time>2018-09-24T13:04:28Z</time>
      </trkpt>
      <trkpt lat="45.8182" lon="4.24266">
        <ele>555.952</ele>
        <time>2018-09-24T13:04:34Z</time>
      </trkpt>
      <trkpt lat="45.81825" lon="4.24274">
        <ele>555.841</ele>
        <time>2018-09-24T13:04:40Z</time>
      </trkpt>
      <trkpt lat="45.81829" lon="4.24279">
        <ele>555.731</ele>
        <time>2018-09-24T13:04:45Z</time>
      </trkpt>
      <trkpt lat="45.81835" lon="4.24286">
        <ele>556.294</ele>
        <time>2018-09-24T13:04:51Z</time>
      </trkpt>
      <trkpt lat="45.8184" lon="4.24291">
        <ele>556.568</ele>
        <time>2018-09-24T13:04:56Z</time>
      </trkpt>
      <trkpt lat="45.81843" lon="4.24294">
        <ele>556.996</ele>
        <time>2018-09-24T13:05:01Z</time>
      </trkpt>
      <trkpt lat="45.81847" lon="4.24299">
        <ele>557.267</ele>
        <time>2018-09-24T13:05:07Z</time>
      </trkpt>
      <trkpt lat="45.8185" lon="4.24302">
        <ele>557.725</ele>
        <time>2018-09-24T13:05:12Z</time>
      </trkpt>
      <trkpt lat="45.81853" lon="4.24306">
        <ele>558.189</ele>
        <time>2018-09-24T13:05:18Z</time>
      </trkpt>
      <trkpt lat="45.81858" lon="4.24315">
        <ele>558.126</ele>
        <time>2018-09-24T13:05:23Z</time>
      </trkpt>
      <trkpt lat="45.81862" lon="4.24319">
        <ele>558.205</ele>
        <time>2018-09-24T13:05:28Z</time>
      </trkpt>
      <trkpt lat="45.81866" lon="4.24326">
        <ele>558.611</ele>
        <time>2018-09-24T13:05:34Z</time>
      </trkpt>
      <trkpt lat="45.81872" lon="4.24333">
        <ele>559.164</ele>
        <time>2018-09-24T13:05:40Z</time>
      </trkpt>
      <trkpt lat="45.81876" lon="4.24339">
        <ele>559.372</ele>
        <time>2018-09-24T13:05:46Z</time>
      </trkpt>
      <trkpt lat="45.81881" lon="4.24345">
        <ele>559.405</ele>
        <time>2018-09-24T13:05:52Z</time>
      </trkpt>
      <trkpt lat="45.81885" lon="4.2435">
        <ele>559.282</ele>
        <time>2018-09-24T13:05:57Z</time>
      </trkpt>
      <trkpt lat="45.8189" lon="4.24357">
        <ele>559.451</ele>
        <time>2018-09-24T13:06:03Z</time>
      </trkpt>
      <trkpt lat="45.81896" lon="4.24362">
        <ele>559.609</ele>
        <time>2018-09-24T13:06:08Z</time>
      </trkpt>
      <trkpt lat="45.81901" lon="4.24369">
        <ele>559.601</ele>
        <time>2018-09-24T13:06:14Z</time>
      </trkpt>
      <trkpt lat="45.81904" lon="4.24374">
        <ele>559.681</ele>
        <time>2018-09-24T13:06:19Z</time>
      </trkpt>
      <trkpt lat="45.81909" lon="4.24379">
        <ele>560.089</ele>
        <time>2018-09-24T13:06:24Z</time>
      </trkpt>
      <trkpt lat="45.81915" lon="4.24387">
        <ele>560.433</ele>
        <time>2018-09-24T13:06:30Z</time>
      </trkpt>
      <trkpt lat="45.81919" lon="4.24393">
        <ele>560.605</ele>
        <time>2018-09-24T13:06:35Z</time>
      </trkpt>
      <trkpt lat="45.81923" lon="4.244">
        <ele>560.959</ele>
        <time>2018-09-24T13:06:40Z</time>
      </trkpt>
      <trkpt lat="45.81929" lon="4.24406">
        <ele>561.28</ele>
        <time>2018-09-24T13:06:46Z</time>
      </trkpt>
      <trkpt lat="45.81935" lon="4.24412">
        <ele>561.758</ele>
        <time>2018-09-24T13:06:52Z</time>
      </trkpt>
      <trkpt lat="45.8194" lon="4.24418">
        <ele>561.984</ele>
        <time>2018-09-24T13:06:58Z</time>
      </trkpt>
      <trkpt lat="45.81945" lon="4.24426">
        <ele>561.985</ele>
        <time>2018-09-24T13:07:04Z</time>
      </trkpt>
      <trkpt lat="45.8195" lon="4.2443">
        <ele>562.227</ele>
        <time>2018-09-24T13:07:09Z</time>
      </trkpt>
      <trkpt lat="45.81956" lon="4.24435">
        <ele>562.646</ele>
        <time>2018-09-24T13:07:15Z</time>
      </trkpt>
      <trkpt lat="45.81962" lon="4.24443">
        <ele>563.108</ele>
        <time>2018-09-24T13:07:21Z</time>
      </trkpt>
      <trkpt lat="45.81966" lon="4.24448">
        <ele>563.249</ele>
        <time>2018-09-24T13:07:26Z</time>
      </trkpt>
      <trkpt lat="45.81972" lon="4.24454">
        <ele>563.632</ele>
        <time>2018-09-24T13:07:32Z</time>
      </trkpt>
      <trkpt lat="45.81976" lon="4.2446">
        <ele>564.001</ele>
        <time>2018-09-24T13:07:38Z</time>
      </trkpt>
      <trkpt lat="45.8198" lon="4.24465">
        <ele>564.559</ele>
        <time>2018-09-24T13:07:43Z</time>
      </trkpt>
      <trkpt lat="45.81984" lon="4.24471">
        <ele>565.032</ele>
        <time>2018-09-24T13:07:49Z</time>
      </trkpt>
      <trkpt lat="45.8199" lon="4.24478">
        <ele>565.411</ele>
        <time>2018-09-24T13:07:55Z</time>
      </trkpt>
      <trkpt lat="45.81997" lon="4.24484">
        <ele>565.751</ele>
        <time>2018-09-24T13:08:01Z</time>
      </trkpt>
      <trkpt lat="45.82003" lon="4.24493">
        <ele>566.16</ele>
        <time>2018-09-24T13:08:07Z</time>
      </trkpt>
      <trkpt lat="45.8201" lon="4.24499">
        <ele>566.66</ele>
        <time>2018-09-24T13:08:13Z</time>
      </trkpt>
      <trkpt lat="45.82015" lon="4.24504">
        <ele>567.189</ele>
        <time>2018-09-24T13:08:18Z</time>
      </trkpt>
      <trkpt lat="45.82021" lon="4.24509">
        <ele>567.647</ele>
        <time>2018-09-24T13:08:23Z</time>
      </trkpt>
      <trkpt lat="45.82028" lon="4.24514">
        <ele>568.442</ele>
        <time>2018-09-24T13:08:29Z</time>
      </trkpt>
      <trkpt lat="45.82034" lon="4.24519">
        <ele>568.953</ele>
        <time>2018-09-24T13:08:34Z</time>
      </trkpt>
      <trkpt lat="45.8204" lon="4.24525">
        <ele>569.39</ele>
        <time>2018-09-24T13:08:40Z</time>
      </trkpt>
      <trkpt lat="45.82045" lon="4.24529">
        <ele>569.883</ele>
        <time>2018-09-24T13:08:45Z</time>
      </trkpt>
      <trkpt lat="45.82053" lon="4.24536">
        <ele>570.535</ele>
        <time>2018-09-24T13:08:51Z</time>
      </trkpt>
      <trkpt lat="45.82059" lon="4.24539">
        <ele>571.177</ele>
        <time>2018-09-24T13:08:57Z</time>
      </trkpt>
      <trkpt lat="45.82065" lon="4.24547">
        <ele>571.451</ele>
        <time>2018-09-24T13:09:02Z</time>
      </trkpt>
      <trkpt lat="45.82072" lon="4.24553">
        <ele>571.825</ele>
        <time>2018-09-24T13:09:08Z</time>
      </trkpt>
      <trkpt lat="45.82079" lon="4.24557">
        <ele>572.416</ele>
        <time>2018-09-24T13:09:14Z</time>
      </trkpt>
      <trkpt lat="45.82083" lon="4.24562">
        <ele>572.834</ele>
        <time>2018-09-24T13:09:19Z</time>
      </trkpt>
      <trkpt lat="45.8209" lon="4.24569">
        <ele>573.36</ele>
        <time>2018-09-24T13:09:25Z</time>
      </trkpt>
      <trkpt lat="45.82095" lon="4.24575">
        <ele>573.404</ele>
        <time>2018-09-24T13:09:31Z</time>
      </trkpt>
      <trkpt lat="45.821" lon="4.24581">
        <ele>573.438</ele>
        <time>2018-09-24T13:09:36Z</time>
      </trkpt>
      <trkpt lat="45.82107" lon="4.24589">
        <ele>573.525</ele>
        <time>2018-09-24T13:09:42Z</time>
      </trkpt>
      <trkpt lat="45.82111" lon="4.24595">
        <ele>573.558</ele>
        <time>2018-09-24T13:09:48Z</time>
      </trkpt>
      <trkpt lat="45.82115" lon="4.24599">
        <ele>573.543</ele>
        <time>2018-09-24T13:09:53Z</time>
      </trkpt>
      <trkpt lat="45.82121" lon="4.24605">
        <ele>573.132</ele>
        <time>2018-09-24T13:09:58Z</time>
      </trkpt>
      <trkpt lat="45.82126" lon="4.24612">
        <ele>572.98</ele>
        <time>2018-09-24T13:10:04Z</time>
      </trkpt>
      <trkpt lat="45.82133" lon="4.24618">
        <ele>573.056</ele>
        <time>2018-09-24T13:10:09Z</time>
      </trkpt>
      <trkpt lat="45.82137" lon="4.24623">
        <ele>573.305</ele>
        <time>2018-09-24T13:10:14Z</time>
      </trkpt>
      <trkpt lat="45.82144" lon="4.24631">
        <ele>573.302</ele>
        <time>2018-09-24T13:10:20Z</time>
      </trkpt>
      <trkpt lat="45.82148" lon="4.24636">
        <ele>573.006</ele>
        <time>2018-09-24T13:10:25Z</time>
      </trkpt>
      <trkpt lat="45.82155" lon="4.24644">
        <ele>572.862</ele>
        <time>2018-09-24T13:10:31Z</time>
      </trkpt>
      <trkpt lat="45.82161" lon="4.24651">
        <ele>572.85</ele>
        <time>2018-09-24T13:10:36Z</time>
      </trkpt>
      <trkpt lat="45.82167" lon="4.24656">
        <ele>572.89</ele>
        <time>2018-09-24T13:10:41Z</time>
      </trkpt>
      <trkpt lat="45.82174" lon="4.24664">
        <ele>572.879</ele>
        <time>2018-09-24T13:10:47Z</time>
      </trkpt>
      <trkpt lat="45.82181" lon="4.24671">
        <ele>572.754</ele>
        <time>2018-09-24T13:10:53Z</time>
      </trkpt>
      <trkpt lat="45.82187" lon="4.24679">
        <ele>572.526</ele>
        <time>2018-09-24T13:10:58Z</time>
      </trkpt>
      <trkpt lat="45.82193" lon="4.24685">
        <ele>572.234</ele>
        <time>2018-09-24T13:11:04Z</time>
      </trkpt>
      <trkpt lat="45.82197" lon="4.24689">
        <ele>572.013</ele>
        <time>2018-09-24T13:11:09Z</time>
      </trkpt>
      <trkpt lat="45.82201" lon="4.24692">
        <ele>572.144</ele>
        <time>2018-09-24T13:11:15Z</time>
      </trkpt>
      <trkpt lat="45.82202" lon="4.24691">
        <ele>572.503</ele>
        <time>2018-09-24T13:11:20Z</time>
      </trkpt>
      <trkpt lat="45.82201" lon="4.24691">
        <ele>572.619</ele>
        <time>2018-09-24T13:11:26Z</time>
      </trkpt>
      <trkpt lat="45.82201" lon="4.24691">
        <ele>572.606</ele>
        <time>2018-09-24T13:11:31Z</time>
      </trkpt>
      <trkpt lat="45.82201" lon="4.24691">
        <ele>572.759</ele>
        <time>2018-09-24T13:11:37Z</time>
      </trkpt>
      <trkpt lat="45.82201" lon="4.24691">
        <ele>572.541</ele>
        <time>2018-09-24T13:11:42Z</time>
      </trkpt>
      <trkpt lat="45.82201" lon="4.24692">
        <ele>572.461</ele>
        <time>2018-09-24T13:11:48Z</time>
      </trkpt>
      <trkpt lat="45.82201" lon="4.24693">
        <ele>572.28</ele>
        <time>2018-09-24T13:11:54Z</time>
      </trkpt>
      <trkpt lat="45.82201" lon="4.24693">
        <ele>571.985</ele>
        <time>2018-09-24T13:11:59Z</time>
      </trkpt>
      <trkpt lat="45.82201" lon="4.24694">
        <ele>571.467</ele>
        <time>2018-09-24T13:12:04Z</time>
      </trkpt>
      <trkpt lat="45.822" lon="4.24693">
        <ele>571.222</ele>
        <time>2018-09-24T13:12:10Z</time>
      </trkpt>
      <trkpt lat="45.822" lon="4.24693">
        <ele>570.993</ele>
        <time>2018-09-24T13:12:16Z</time>
      </trkpt>
      <trkpt lat="45.82202" lon="4.24693">
        <ele>570.596</ele>
        <time>2018-09-24T13:12:22Z</time>
      </trkpt>
      <trkpt lat="45.82203" lon="4.24693">
        <ele>570.555</ele>
        <time>2018-09-24T13:12:27Z</time>
      </trkpt>
      <trkpt lat="45.82202" lon="4.24692">
        <ele>570.568</ele>
        <time>2018-09-24T13:12:33Z</time>
      </trkpt>
      <trkpt lat="45.82201" lon="4.24691">
        <ele>570.571</ele>
        <time>2018-09-24T13:12:39Z</time>
      </trkpt>
      <trkpt lat="45.82203" lon="4.24691">
        <ele>570.714</ele>
        <time>2018-09-24T13:12:45Z</time>
      </trkpt>
      <trkpt lat="45.82203" lon="4.2469">
        <ele>570.734</ele>
        <time>2018-09-24T13:12:50Z</time>
      </trkpt>
      <trkpt lat="45.82203" lon="4.2469">
        <ele>570.769</ele>
        <time>2018-09-24T13:12:56Z</time>
      </trkpt>
      <trkpt lat="45.82204" lon="4.2469">
        <ele>570.787</ele>
        <time>2018-09-24T13:13:01Z</time>
      </trkpt>
      <trkpt lat="45.82204" lon="4.24692">
        <ele>570.655</ele>
        <time>2018-09-24T13:13:06Z</time>
      </trkpt>
      <trkpt lat="45.82203" lon="4.24691">
        <ele>570.413</ele>
        <time>2018-09-24T13:13:13Z</time>
      </trkpt>
      <trkpt lat="45.82202" lon="4.2469">
        <ele>570.272</ele>
        <time>2018-09-24T13:13:18Z</time>
      </trkpt>
      <trkpt lat="45.82201" lon="4.24691">
        <ele>570.017</ele>
        <time>2018-09-24T13:13:24Z</time>
      </trkpt>
      <trkpt lat="45.82201" lon="4.24693">
        <ele>570.033</ele>
        <time>2018-09-24T13:13:30Z</time>
      </trkpt>
      <trkpt lat="45.822" lon="4.24701">
        <ele>569.838</ele>
        <time>2018-09-24T13:13:36Z</time>
      </trkpt>
      <trkpt lat="45.822" lon="4.24713">
        <ele>569.761</ele>
        <time>2018-09-24T13:13:42Z</time>
      </trkpt>
      <trkpt lat="45.822" lon="4.24722">
        <ele>569.765</ele>
        <time>2018-09-24T13:13:48Z</time>
      </trkpt>
      <trkpt lat="45.82202" lon="4.2473">
        <ele>569.606</ele>
        <time>2018-09-24T13:13:54Z</time>
      </trkpt>
      <trkpt lat="45.82202" lon="4.24736">
        <ele>569.302</ele>
        <time>2018-09-24T13:13:59Z</time>
      </trkpt>
      <trkpt lat="45.82202" lon="4.24747">
        <ele>568.761</ele>
        <time>2018-09-24T13:14:05Z</time>
      </trkpt>
      <trkpt lat="45.822" lon="4.24754">
        <ele>568.724</ele>
        <time>2018-09-24T13:14:10Z</time>
      </trkpt>
      <trkpt lat="45.822" lon="4.24761">
        <ele>568.599</ele>
        <time>2018-09-24T13:14:15Z</time>
      </trkpt>
      <trkpt lat="45.82199" lon="4.24773">
        <ele>568.463</ele>
        <time>2018-09-24T13:14:21Z</time>
      </trkpt>
      <trkpt lat="45.82198" lon="4.24778">
        <ele>568.089</ele>
        <time>2018-09-24T13:14:26Z</time>
      </trkpt>
      <trkpt lat="45.82196" lon="4.24787">
        <ele>567.379</ele>
        <time>2018-09-24T13:14:31Z</time>
      </trkpt>
      <trkpt lat="45.82194" lon="4.24799">
        <ele>566.429</ele>
        <time>2018-09-24T13:14:37Z</time>
      </trkpt>
      <trkpt lat="45.82192" lon="4.24806">
        <ele>565.506</ele>
        <time>2018-09-24T13:14:42Z</time>
      </trkpt>
      <trkpt lat="45.82189" lon="4.24815">
        <ele>564.34</ele>
        <time>2018-09-24T13:14:48Z</time>
      </trkpt>
      <trkpt lat="45.82185" lon="4.24825">
        <ele>563.337</ele>
        <time>2018-09-24T13:14:53Z</time>
      </trkpt>
      <trkpt lat="45.82182" lon="4.24832">
        <ele>562.509</ele>
        <time>2018-09-24T13:14:59Z</time>
      </trkpt>
      <trkpt lat="45.82179" lon="4.24843">
        <ele>561.876</ele>
        <time>2018-09-24T13:15:05Z</time>
      </trkpt>
      <trkpt lat="45.82178" lon="4.24852">
        <ele>560.899</ele>
        <time>2018-09-24T13:15:11Z</time>
      </trkpt>
      <trkpt lat="45.82177" lon="4.24857">
        <ele>560.03</ele>
        <time>2018-09-24T13:15:17Z</time>
      </trkpt>
      <trkpt lat="45.82177" lon="4.24854">
        <ele>559.438</ele>
        <time>2018-09-24T13:15:23Z</time>
      </trkpt>
      <trkpt lat="45.82176" lon="4.24854">
        <ele>559.094</ele>
        <time>2018-09-24T13:15:29Z</time>
      </trkpt>
      <trkpt lat="45.82175" lon="4.24855">
        <ele>558.386</ele>
        <time>2018-09-24T13:15:35Z</time>
      </trkpt>
      <trkpt lat="45.82174" lon="4.24858">
        <ele>557.79</ele>
        <time>2018-09-24T13:15:40Z</time>
      </trkpt>
      <trkpt lat="45.82171" lon="4.2486">
        <ele>557.557</ele>
        <time>2018-09-24T13:15:45Z</time>
      </trkpt>
      <trkpt lat="45.82165" lon="4.24863">
        <ele>557.219</ele>
        <time>2018-09-24T13:15:51Z</time>
      </trkpt>
      <trkpt lat="45.8216" lon="4.24866">
        <ele>556.48</ele>
        <time>2018-09-24T13:15:57Z</time>
      </trkpt>
      <trkpt lat="45.82152" lon="4.2487">
        <ele>556.008</ele>
        <time>2018-09-24T13:16:03Z</time>
      </trkpt>
      <trkpt lat="45.82146" lon="4.24872">
        <ele>555.41</ele>
        <time>2018-09-24T13:16:08Z</time>
      </trkpt>
      <trkpt lat="45.82139" lon="4.24873">
        <ele>555.01</ele>
        <time>2018-09-24T13:16:14Z</time>
      </trkpt>
      <trkpt lat="45.82133" lon="4.24874">
        <ele>554.984</ele>
        <time>2018-09-24T13:16:19Z</time>
      </trkpt>
      <trkpt lat="45.82127" lon="4.24876">
        <ele>554.715</ele>
        <time>2018-09-24T13:16:24Z</time>
      </trkpt>
      <trkpt lat="45.8212" lon="4.2488">
        <ele>554.28</ele>
        <time>2018-09-24T13:16:30Z</time>
      </trkpt>
      <trkpt lat="45.82114" lon="4.24885">
        <ele>554.103</ele>
        <time>2018-09-24T13:16:36Z</time>
      </trkpt>
      <trkpt lat="45.82109" lon="4.24886">
        <ele>553.794</ele>
        <time>2018-09-24T13:16:41Z</time>
      </trkpt>
      <trkpt lat="45.82108" lon="4.24886">
        <ele>552.785</ele>
        <time>2018-09-24T13:16:46Z</time>
      </trkpt>
      <trkpt lat="45.82107" lon="4.24885">
        <ele>552.556</ele>
        <time>2018-09-24T13:16:51Z</time>
      </trkpt>
      <trkpt lat="45.82107" lon="4.24885">
        <ele>551.831</ele>
        <time>2018-09-24T13:16:57Z</time>
      </trkpt>
      <trkpt lat="45.82103" lon="4.24888">
        <ele>551.274</ele>
        <time>2018-09-24T13:17:03Z</time>
      </trkpt>
      <trkpt lat="45.82095" lon="4.24893">
        <ele>550.918</ele>
        <time>2018-09-24T13:17:09Z</time>
      </trkpt>
      <trkpt lat="45.82088" lon="4.24895">
        <ele>550.8</ele>
        <time>2018-09-24T13:17:14Z</time>
      </trkpt>
      <trkpt lat="45.8208" lon="4.24897">
        <ele>550.378</ele>
        <time>2018-09-24T13:17:20Z</time>
      </trkpt>
      <trkpt lat="45.82075" lon="4.24899">
        <ele>550.227</ele>
        <time>2018-09-24T13:17:25Z</time>
      </trkpt>
      <trkpt lat="45.82068" lon="4.24904">
        <ele>550.04</ele>
        <time>2018-09-24T13:17:31Z</time>
      </trkpt>
      <trkpt lat="45.82062" lon="4.24909">
        <ele>549.567</ele>
        <time>2018-09-24T13:17:36Z</time>
      </trkpt>
      <trkpt lat="45.82055" lon="4.24913">
        <ele>548.745</ele>
        <time>2018-09-24T13:17:42Z</time>
      </trkpt>
      <trkpt lat="45.82048" lon="4.24917">
        <ele>547.981</ele>
        <time>2018-09-24T13:17:47Z</time>
      </trkpt>
      <trkpt lat="45.82041" lon="4.24921">
        <ele>547.253</ele>
        <time>2018-09-24T13:17:52Z</time>
      </trkpt>
      <trkpt lat="45.82035" lon="4.24926">
        <ele>546.668</ele>
        <time>2018-09-24T13:17:58Z</time>
      </trkpt>
      <trkpt lat="45.82028" lon="4.24932">
        <ele>545.705</ele>
        <time>2018-09-24T13:18:04Z</time>
      </trkpt>
      <trkpt lat="45.82023" lon="4.24936">
        <ele>545.158</ele>
        <time>2018-09-24T13:18:09Z</time>
      </trkpt>
      <trkpt lat="45.82017" lon="4.24939">
        <ele>544.826</ele>
        <time>2018-09-24T13:18:15Z</time>
      </trkpt>
      <trkpt lat="45.82009" lon="4.24944">
        <ele>544.46</ele>
        <time>2018-09-24T13:18:20Z</time>
      </trkpt>
      <trkpt lat="45.82003" lon="4.24949">
        <ele>543.624</ele>
        <time>2018-09-24T13:18:26Z</time>
      </trkpt>
      <trkpt lat="45.81997" lon="4.24955">
        <ele>543.07</ele>
        <time>2018-09-24T13:18:31Z</time>
      </trkpt>
      <trkpt lat="45.8199" lon="4.24958">
        <ele>542.098</ele>
        <time>2018-09-24T13:18:37Z</time>
      </trkpt>
      <trkpt lat="45.81984" lon="4.24962">
        <ele>541.179</ele>
        <time>2018-09-24T13:18:43Z</time>
      </trkpt>
      <trkpt lat="45.8198" lon="4.24964">
        <ele>540.321</ele>
        <time>2018-09-24T13:18:48Z</time>
      </trkpt>
      <trkpt lat="45.81975" lon="4.24967">
        <ele>539.22</ele>
        <time>2018-09-24T13:18:54Z</time>
      </trkpt>
      <trkpt lat="45.81969" lon="4.24967">
        <ele>538.611</ele>
        <time>2018-09-24T13:19:00Z</time>
      </trkpt>
      <trkpt lat="45.81964" lon="4.2497">
        <ele>537.793</ele>
        <time>2018-09-24T13:19:06Z</time>
      </trkpt>
      <trkpt lat="45.81956" lon="4.24971">
        <ele>536.799</ele>
        <time>2018-09-24T13:19:12Z</time>
      </trkpt>
      <trkpt lat="45.81951" lon="4.24969">
        <ele>535.768</ele>
        <time>2018-09-24T13:19:18Z</time>
      </trkpt>
      <trkpt lat="45.81943" lon="4.24967">
        <ele>534.66</ele>
        <time>2018-09-24T13:19:24Z</time>
      </trkpt>
      <trkpt lat="45.81936" lon="4.24967">
        <ele>533.437</ele>
        <time>2018-09-24T13:19:30Z</time>
      </trkpt>
      <trkpt lat="45.81929" lon="4.24966">
        <ele>532.705</ele>
        <time>2018-09-24T13:19:36Z</time>
      </trkpt>
      <trkpt lat="45.81924" lon="4.24966">
        <ele>531.94</ele>
        <time>2018-09-24T13:19:42Z</time>
      </trkpt>
      <trkpt lat="45.81917" lon="4.24967">
        <ele>530.603</ele>
        <time>2018-09-24T13:19:48Z</time>
      </trkpt>
      <trkpt lat="45.81911" lon="4.24968">
        <ele>529.436</ele>
        <time>2018-09-24T13:19:53Z</time>
      </trkpt>
      <trkpt lat="45.81904" lon="4.24969">
        <ele>528.206</ele>
        <time>2018-09-24T13:19:59Z</time>
      </trkpt>
      <trkpt lat="45.81898" lon="4.24973">
        <ele>527.446</ele>
        <time>2018-09-24T13:20:04Z</time>
      </trkpt>
      <trkpt lat="45.81897" lon="4.24983">
        <ele>526.93</ele>
        <time>2018-09-24T13:20:10Z</time>
      </trkpt>
      <trkpt lat="45.819" lon="4.24992">
        <ele>526.222</ele>
        <time>2018-09-24T13:20:15Z</time>
      </trkpt>
      <trkpt lat="45.81905" lon="4.24999">
        <ele>525.177</ele>
        <time>2018-09-24T13:20:21Z</time>
      </trkpt>
      <trkpt lat="45.8191" lon="4.25005">
        <ele>524.235</ele>
        <time>2018-09-24T13:20:26Z</time>
      </trkpt>
      <trkpt lat="45.81915" lon="4.25012">
        <ele>523.064</ele>
        <time>2018-09-24T13:20:32Z</time>
      </trkpt>
      <trkpt lat="45.8192" lon="4.25018">
        <ele>522.011</ele>
        <time>2018-09-24T13:20:37Z</time>
      </trkpt>
      <trkpt lat="45.81923" lon="4.25021">
        <ele>520.536</ele>
        <time>2018-09-24T13:20:42Z</time>
      </trkpt>
      <trkpt lat="45.81927" lon="4.25024">
        <ele>519.354</ele>
        <time>2018-09-24T13:20:47Z</time>
      </trkpt>
      <trkpt lat="45.81932" lon="4.25033">
        <ele>518.027</ele>
        <time>2018-09-24T13:20:53Z</time>
      </trkpt>
      <trkpt lat="45.81935" lon="4.25036">
        <ele>516.858</ele>
        <time>2018-09-24T13:20:58Z</time>
      </trkpt>
      <trkpt lat="45.81936" lon="4.2504">
        <ele>515.501</ele>
        <time>2018-09-24T13:21:04Z</time>
      </trkpt>
      <trkpt lat="45.81936" lon="4.2504">
        <ele>515.263</ele>
        <time>2018-09-24T13:21:10Z</time>
      </trkpt>
      <trkpt lat="45.81937" lon="4.2504">
        <ele>514.47</ele>
        <time>2018-09-24T13:21:15Z</time>
      </trkpt>
      <trkpt lat="45.81937" lon="4.2504">
        <ele>514.055</ele>
        <time>2018-09-24T13:21:20Z</time>
      </trkpt>
      <trkpt lat="45.81935" lon="4.25041">
        <ele>513.705</ele>
        <time>2018-09-24T13:21:26Z</time>
      </trkpt>
      <trkpt lat="45.81933" lon="4.2504">
        <ele>513.387</ele>
        <time>2018-09-24T13:21:32Z</time>
      </trkpt>
      <trkpt lat="45.81935" lon="4.25042">
        <ele>513.359</ele>
        <time>2018-09-24T13:21:38Z</time>
      </trkpt>
      <trkpt lat="45.81937" lon="4.25044">
        <ele>513.4</ele>
        <time>2018-09-24T13:21:43Z</time>
      </trkpt>
      <trkpt lat="45.81937" lon="4.25043">
        <ele>513.314</ele>
        <time>2018-09-24T13:21:48Z</time>
      </trkpt>
      <trkpt lat="45.81938" lon="4.25043">
        <ele>513.979</ele>
        <time>2018-09-24T13:21:54Z</time>
      </trkpt>
      <trkpt lat="45.81935" lon="4.25044">
        <ele>514.091</ele>
        <time>2018-09-24T13:22:00Z</time>
      </trkpt>
      <trkpt lat="45.8193" lon="4.25045">
        <ele>514.052</ele>
        <time>2018-09-24T13:22:05Z</time>
      </trkpt>
      <trkpt lat="45.81927" lon="4.25041">
        <ele>514.623</ele>
        <time>2018-09-24T13:22:11Z</time>
      </trkpt>
      <trkpt lat="45.81923" lon="4.25038">
        <ele>515.185</ele>
        <time>2018-09-24T13:22:17Z</time>
      </trkpt>
      <trkpt lat="45.8192" lon="4.25035">
        <ele>515.276</ele>
        <time>2018-09-24T13:22:22Z</time>
      </trkpt>
      <trkpt lat="45.81915" lon="4.2503">
        <ele>515.342</ele>
        <time>2018-09-24T13:22:28Z</time>
      </trkpt>
      <trkpt lat="45.81909" lon="4.25024">
        <ele>514.929</ele>
        <time>2018-09-24T13:22:34Z</time>
      </trkpt>
      <trkpt lat="45.81904" lon="4.25019">
        <ele>514.39</ele>
        <time>2018-09-24T13:22:39Z</time>
      </trkpt>
      <trkpt lat="45.81898" lon="4.25015">
        <ele>513.876</ele>
        <time>2018-09-24T13:22:45Z</time>
      </trkpt>
      <trkpt lat="45.81894" lon="4.25012">
        <ele>513.708</ele>
        <time>2018-09-24T13:22:50Z</time>
      </trkpt>
      <trkpt lat="45.81886" lon="4.25008">
        <ele>513.639</ele>
        <time>2018-09-24T13:22:56Z</time>
      </trkpt>
      <trkpt lat="45.81883" lon="4.25004">
        <ele>513.554</ele>
        <time>2018-09-24T13:23:01Z</time>
      </trkpt>
      <trkpt lat="45.81877" lon="4.24997">
        <ele>513.556</ele>
        <time>2018-09-24T13:23:07Z</time>
      </trkpt>
      <trkpt lat="45.81871" lon="4.24994">
        <ele>513.192</ele>
        <time>2018-09-24T13:23:12Z</time>
      </trkpt>
      <trkpt lat="45.81865" lon="4.2499">
        <ele>512.542</ele>
        <time>2018-09-24T13:23:17Z</time>
      </trkpt>
      <trkpt lat="45.81857" lon="4.24988">
        <ele>511.63</ele>
        <time>2018-09-24T13:23:23Z</time>
      </trkpt>
      <trkpt lat="45.81852" lon="4.24982">
        <ele>511.001</ele>
        <time>2018-09-24T13:23:29Z</time>
      </trkpt>
      <trkpt lat="45.81846" lon="4.24977">
        <ele>511.054</ele>
        <time>2018-09-24T13:23:34Z</time>
      </trkpt>
      <trkpt lat="45.81842" lon="4.24971">
        <ele>510.936</ele>
        <time>2018-09-24T13:23:39Z</time>
      </trkpt>
      <trkpt lat="45.81838" lon="4.24965">
        <ele>510.749</ele>
        <time>2018-09-24T13:23:45Z</time>
      </trkpt>
      <trkpt lat="45.81835" lon="4.24958">
        <ele>510.665</ele>
        <time>2018-09-24T13:23:50Z</time>
      </trkpt>
      <trkpt lat="45.81831" lon="4.24953">
        <ele>510.54</ele>
        <time>2018-09-24T13:23:55Z</time>
      </trkpt>
      <trkpt lat="45.81828" lon="4.24949">
        <ele>510.419</ele>
        <time>2018-09-24T13:24:00Z</time>
      </trkpt>
      <trkpt lat="45.81824" lon="4.24943">
        <ele>510.156</ele>
        <time>2018-09-24T13:24:05Z</time>
      </trkpt>
      <trkpt lat="45.8182" lon="4.2494">
        <ele>509.453</ele>
        <time>2018-09-24T13:24:11Z</time>
      </trkpt>
      <trkpt lat="45.81816" lon="4.24937">
        <ele>508.973</ele>
        <time>2018-09-24T13:24:17Z</time>
      </trkpt>
      <trkpt lat="45.81811" lon="4.2494">
        <ele>508.15</ele>
        <time>2018-09-24T13:24:23Z</time>
      </trkpt>
      <trkpt lat="45.81807" lon="4.24942">
        <ele>507.855</ele>
        <time>2018-09-24T13:24:28Z</time>
      </trkpt>
      <trkpt lat="45.81804" lon="4.24948">
        <ele>506.877</ele>
        <time>2018-09-24T13:24:34Z</time>
      </trkpt>
      <trkpt lat="45.81806" lon="4.24957">
        <ele>506.171</ele>
        <time>2018-09-24T13:24:40Z</time>
      </trkpt>
      <trkpt lat="45.81805" lon="4.24963">
        <ele>505.505</ele>
        <time>2018-09-24T13:24:46Z</time>
      </trkpt>
      <trkpt lat="45.81804" lon="4.24968">
        <ele>504.518</ele>
        <time>2018-09-24T13:24:51Z</time>
      </trkpt>
      <trkpt lat="45.818" lon="4.24973">
        <ele>503.063</ele>
        <time>2018-09-24T13:24:57Z</time>
      </trkpt>
      <trkpt lat="45.81795" lon="4.24981">
        <ele>501.797</ele>
        <time>2018-09-24T13:25:02Z</time>
      </trkpt>
      <trkpt lat="45.81789" lon="4.24985">
        <ele>500.592</ele>
        <time>2018-09-24T13:25:08Z</time>
      </trkpt>
      <trkpt lat="45.81785" lon="4.24985">
        <ele>500.128</ele>
        <time>2018-09-24T13:25:13Z</time>
      </trkpt>
      <trkpt lat="45.81783" lon="4.24985">
        <ele>500.029</ele>
        <time>2018-09-24T13:25:19Z</time>
      </trkpt>
      <trkpt lat="45.8178" lon="4.24988">
        <ele>500.232</ele>
        <time>2018-09-24T13:25:25Z</time>
      </trkpt>
      <trkpt lat="45.81778" lon="4.2499">
        <ele>500.618</ele>
        <time>2018-09-24T13:25:31Z</time>
      </trkpt>
      <trkpt lat="45.81775" lon="4.24988">
        <ele>501.041</ele>
        <time>2018-09-24T13:25:37Z</time>
      </trkpt>
      <trkpt lat="45.81773" lon="4.24987">
        <ele>501.073</ele>
        <time>2018-09-24T13:25:42Z</time>
      </trkpt>
      <trkpt lat="45.81772" lon="4.24985">
        <ele>501.869</ele>
        <time>2018-09-24T13:25:48Z</time>
      </trkpt>
      <trkpt lat="45.81771" lon="4.24983">
        <ele>502.101</ele>
        <time>2018-09-24T13:25:54Z</time>
      </trkpt>
      <trkpt lat="45.8177" lon="4.2498">
        <ele>502.732</ele>
        <time>2018-09-24T13:26:00Z</time>
      </trkpt>
      <trkpt lat="45.81768" lon="4.24978">
        <ele>503.241</ele>
        <time>2018-09-24T13:26:05Z</time>
      </trkpt>
      <trkpt lat="45.81767" lon="4.24978">
        <ele>504.05</ele>
        <time>2018-09-24T13:26:11Z</time>
      </trkpt>
      <trkpt lat="45.81767" lon="4.24981">
        <ele>504.237</ele>
        <time>2018-09-24T13:26:16Z</time>
      </trkpt>
      <trkpt lat="45.81767" lon="4.24981">
        <ele>504.152</ele>
        <time>2018-09-24T13:26:22Z</time>
      </trkpt>
      <trkpt lat="45.81766" lon="4.24981">
        <ele>504.18</ele>
        <time>2018-09-24T13:26:27Z</time>
      </trkpt>
      <trkpt lat="45.81766" lon="4.24977">
        <ele>504.369</ele>
        <time>2018-09-24T13:26:33Z</time>
      </trkpt>
      <trkpt lat="45.81765" lon="4.24973">
        <ele>504.536</ele>
        <time>2018-09-24T13:26:38Z</time>
      </trkpt>
      <trkpt lat="45.81763" lon="4.24973">
        <ele>504.754</ele>
        <time>2018-09-24T13:26:44Z</time>
      </trkpt>
      <trkpt lat="45.81764" lon="4.24975">
        <ele>504.974</ele>
        <time>2018-09-24T13:26:50Z</time>
      </trkpt>
      <trkpt lat="45.81765" lon="4.24973">
        <ele>504.992</ele>
        <time>2018-09-24T13:26:56Z</time>
      </trkpt>
      <trkpt lat="45.81765" lon="4.24972">
        <ele>505.078</ele>
        <time>2018-09-24T13:27:01Z</time>
      </trkpt>
      <trkpt lat="45.81765" lon="4.2497">
        <ele>505.331</ele>
        <time>2018-09-24T13:27:07Z</time>
      </trkpt>
      <trkpt lat="45.81763" lon="4.2497">
        <ele>505.523</ele>
        <time>2018-09-24T13:27:12Z</time>
      </trkpt>
      <trkpt lat="45.81761" lon="4.24969">
        <ele>506.248</ele>
        <time>2018-09-24T13:27:18Z</time>
      </trkpt>
      <trkpt lat="45.81759" lon="4.24967">
        <ele>506.97</ele>
        <time>2018-09-24T13:27:24Z</time>
      </trkpt>
      <trkpt lat="45.81759" lon="4.24967">
        <ele>507.146</ele>
        <time>2018-09-24T13:27:29Z</time>
      </trkpt>
      <trkpt lat="45.81758" lon="4.24966">
        <ele>507.45</ele>
        <time>2018-09-24T13:27:35Z</time>
      </trkpt>
      <trkpt lat="45.81753" lon="4.24965">
        <ele>507.605</ele>
        <time>2018-09-24T13:27:41Z</time>
      </trkpt>
      <trkpt lat="45.81749" lon="4.24962">
        <ele>507.283</ele>
        <time>2018-09-24T13:27:47Z</time>
      </trkpt>
      <trkpt lat="45.81746" lon="4.2496">
        <ele>506.766</ele>
        <time>2018-09-24T13:27:52Z</time>
      </trkpt>
      <trkpt lat="45.81744" lon="4.24959">
        <ele>506.125</ele>
        <time>2018-09-24T13:27:57Z</time>
      </trkpt>
      <trkpt lat="45.8174" lon="4.24956">
        <ele>506.145</ele>
        <time>2018-09-24T13:28:03Z</time>
      </trkpt>
      <trkpt lat="45.81735" lon="4.24952">
        <ele>506.075</ele>
        <time>2018-09-24T13:28:08Z</time>
      </trkpt>
      <trkpt lat="45.81731" lon="4.24947">
        <ele>505.926</ele>
        <time>2018-09-24T13:28:13Z</time>
      </trkpt>
      <trkpt lat="45.81727" lon="4.24944">
        <ele>505.712</ele>
        <time>2018-09-24T13:28:18Z</time>
      </trkpt>
      <trkpt lat="45.81722" lon="4.24941">
        <ele>505.77</ele>
        <time>2018-09-24T13:28:23Z</time>
      </trkpt>
      <trkpt lat="45.81718" lon="4.24938">
        <ele>505.451</ele>
        <time>2018-09-24T13:28:29Z</time>
      </trkpt>
      <trkpt lat="45.81718" lon="4.24937">
        <ele>505.627</ele>
        <time>2018-09-24T13:28:34Z</time>
      </trkpt>
      <trkpt lat="45.81718" lon="4.24939">
        <ele>505.956</ele>
        <time>2018-09-24T13:28:39Z</time>
      </trkpt>
      <trkpt lat="45.81718" lon="4.24937">
        <ele>507.085</ele>
        <time>2018-09-24T13:28:45Z</time>
      </trkpt>
      <trkpt lat="45.81711" lon="4.24925">
        <ele>507.823</ele>
        <time>2018-09-24T13:28:51Z</time>
      </trkpt>
      <trkpt lat="45.81706" lon="4.24915">
        <ele>508.451</ele>
        <time>2018-09-24T13:28:56Z</time>
      </trkpt>
      <trkpt lat="45.81705" lon="4.24909">
        <ele>509.345</ele>
        <time>2018-09-24T13:29:02Z</time>
      </trkpt>
      <trkpt lat="45.81707" lon="4.24907">
        <ele>510.049</ele>
        <time>2018-09-24T13:29:07Z</time>
      </trkpt>
      <trkpt lat="45.81704" lon="4.24902">
        <ele>510.925</ele>
        <time>2018-09-24T13:29:13Z</time>
      </trkpt>
      <trkpt lat="45.81701" lon="4.24893">
        <ele>511.606</ele>
        <time>2018-09-24T13:29:19Z</time>
      </trkpt>
      <trkpt lat="45.81698" lon="4.24883">
        <ele>512.165</ele>
        <time>2018-09-24T13:29:25Z</time>
      </trkpt>
      <trkpt lat="45.81698" lon="4.24874">
        <ele>512.671</ele>
        <time>2018-09-24T13:29:31Z</time>
      </trkpt>
      <trkpt lat="45.81694" lon="4.24862">
        <ele>513.536</ele>
        <time>2018-09-24T13:29:37Z</time>
      </trkpt>
      <trkpt lat="45.81693" lon="4.24855">
        <ele>514.542</ele>
        <time>2018-09-24T13:29:43Z</time>
      </trkpt>
      <trkpt lat="45.81694" lon="4.24849">
        <ele>515.606</ele>
        <time>2018-09-24T13:29:49Z</time>
      </trkpt>
      <trkpt lat="45.81691" lon="4.24842">
        <ele>516.708</ele>
        <time>2018-09-24T13:29:54Z</time>
      </trkpt>
      <trkpt lat="45.81689" lon="4.24835">
        <ele>517.568</ele>
        <time>2018-09-24T13:29:59Z</time>
      </trkpt>
      <trkpt lat="45.81685" lon="4.24826">
        <ele>518.551</ele>
        <time>2018-09-24T13:30:05Z</time>
      </trkpt>
      <trkpt lat="45.81682" lon="4.24816">
        <ele>519.298</ele>
        <time>2018-09-24T13:30:10Z</time>
      </trkpt>
      <trkpt lat="45.8168" lon="4.24807">
        <ele>520.355</ele>
        <time>2018-09-24T13:30:16Z</time>
      </trkpt>
      <trkpt lat="45.81678" lon="4.24805">
        <ele>521.106</ele>
        <time>2018-09-24T13:30:21Z</time>
      </trkpt>
      <trkpt lat="45.81674" lon="4.24805">
        <ele>521.852</ele>
        <time>2018-09-24T13:30:26Z</time>
      </trkpt>
      <trkpt lat="45.81672" lon="4.24804">
        <ele>522.481</ele>
        <time>2018-09-24T13:30:31Z</time>
      </trkpt>
      <trkpt lat="45.81672" lon="4.248">
        <ele>523.122</ele>
        <time>2018-09-24T13:30:36Z</time>
      </trkpt>
      <trkpt lat="45.81671" lon="4.24798">
        <ele>523.34</ele>
        <time>2018-09-24T13:30:42Z</time>
      </trkpt>
      <trkpt lat="45.81672" lon="4.24796">
        <ele>523.629</ele>
        <time>2018-09-24T13:30:47Z</time>
      </trkpt>
      <trkpt lat="45.81672" lon="4.24798">
        <ele>523.936</ele>
        <time>2018-09-24T13:30:53Z</time>
      </trkpt>
      <trkpt lat="45.81673" lon="4.248">
        <ele>524.026</ele>
        <time>2018-09-24T13:30:58Z</time>
      </trkpt>
      <trkpt lat="45.81671" lon="4.24802">
        <ele>523.615</ele>
        <time>2018-09-24T13:31:04Z</time>
      </trkpt>
      <trkpt lat="45.81671" lon="4.24801">
        <ele>523.355</ele>
        <time>2018-09-24T13:31:09Z</time>
      </trkpt>
      <trkpt lat="45.81673" lon="4.24802">
        <ele>523.244</ele>
        <time>2018-09-24T13:31:15Z</time>
      </trkpt>
      <trkpt lat="45.81673" lon="4.248">
        <ele>523.307</ele>
        <time>2018-09-24T13:31:20Z</time>
      </trkpt>
      <trkpt lat="45.81674" lon="4.24798">
        <ele>523.411</ele>
        <time>2018-09-24T13:31:26Z</time>
      </trkpt>
      <trkpt lat="45.81674" lon="4.24797">
        <ele>523.503</ele>
        <time>2018-09-24T13:31:32Z</time>
      </trkpt>
      <trkpt lat="45.81674" lon="4.24796">
        <ele>523.79</ele>
        <time>2018-09-24T13:31:37Z</time>
      </trkpt>
      <trkpt lat="45.81673" lon="4.24795">
        <ele>524.832</ele>
        <time>2018-09-24T13:31:44Z</time>
      </trkpt>
      <trkpt lat="45.81674" lon="4.24795">
        <ele>525.736</ele>
        <time>2018-09-24T13:31:49Z</time>
      </trkpt>
      <trkpt lat="45.81673" lon="4.24795">
        <ele>526.01</ele>
        <time>2018-09-24T13:31:55Z</time>
      </trkpt>
      <trkpt lat="45.81673" lon="4.24794">
        <ele>526.447</ele>
        <time>2018-09-24T13:32:01Z</time>
      </trkpt>
      <trkpt lat="45.81671" lon="4.24791">
        <ele>527.076</ele>
        <time>2018-09-24T13:32:06Z</time>
      </trkpt>
      <trkpt lat="45.8167" lon="4.24787">
        <ele>527.833</ele>
        <time>2018-09-24T13:32:12Z</time>
      </trkpt>
      <trkpt lat="45.81667" lon="4.24784">
        <ele>528.423</ele>
        <time>2018-09-24T13:32:17Z</time>
      </trkpt>
      <trkpt lat="45.81664" lon="4.24779">
        <ele>528.766</ele>
        <time>2018-09-24T13:32:23Z</time>
      </trkpt>
      <trkpt lat="45.81661" lon="4.24779">
        <ele>528.745</ele>
        <time>2018-09-24T13:32:28Z</time>
      </trkpt>
      <trkpt lat="45.81653" lon="4.2477">
        <ele>528.572</ele>
        <time>2018-09-24T13:32:34Z</time>
      </trkpt>
      <trkpt lat="45.81648" lon="4.24767">
        <ele>528.093</ele>
        <time>2018-09-24T13:32:39Z</time>
      </trkpt>
      <trkpt lat="45.81642" lon="4.24766">
        <ele>528.037</ele>
        <time>2018-09-24T13:32:45Z</time>
      </trkpt>
      <trkpt lat="45.81639" lon="4.24762">
        <ele>528.025</ele>
        <time>2018-09-24T13:32:50Z</time>
      </trkpt>
      <trkpt lat="45.81634" lon="4.24757">
        <ele>528.227</ele>
        <time>2018-09-24T13:32:55Z</time>
      </trkpt>
      <trkpt lat="45.81629" lon="4.24751">
        <ele>528.133</ele>
        <time>2018-09-24T13:33:01Z</time>
      </trkpt>
      <trkpt lat="45.81623" lon="4.24749">
        <ele>528.153</ele>
        <time>2018-09-24T13:33:06Z</time>
      </trkpt>
      <trkpt lat="45.81613" lon="4.24742">
        <ele>528.27</ele>
        <time>2018-09-24T13:33:12Z</time>
      </trkpt>
      <trkpt lat="45.81608" lon="4.2474">
        <ele>528.478</ele>
        <time>2018-09-24T13:33:18Z</time>
      </trkpt>
      <trkpt lat="45.816" lon="4.24734">
        <ele>528.17</ele>
        <time>2018-09-24T13:33:24Z</time>
      </trkpt>
      <trkpt lat="45.81593" lon="4.24728">
        <ele>527.944</ele>
        <time>2018-09-24T13:33:29Z</time>
      </trkpt>
      <trkpt lat="45.81589" lon="4.24726">
        <ele>527.867</ele>
        <time>2018-09-24T13:33:35Z</time>
      </trkpt>
      <trkpt lat="45.81582" lon="4.24724">
        <ele>527.779</ele>
        <time>2018-09-24T13:33:40Z</time>
      </trkpt>
      <trkpt lat="45.81575" lon="4.24722">
        <ele>527.586</ele>
        <time>2018-09-24T13:33:46Z</time>
      </trkpt>
      <trkpt lat="45.81569" lon="4.24718">
        <ele>527.333</ele>
        <time>2018-09-24T13:33:51Z</time>
      </trkpt>
      <trkpt lat="45.81561" lon="4.24714">
        <ele>527.263</ele>
        <time>2018-09-24T13:33:57Z</time>
      </trkpt>
      <trkpt lat="45.81555" lon="4.24711">
        <ele>527.066</ele>
        <time>2018-09-24T13:34:02Z</time>
      </trkpt>
      <trkpt lat="45.81547" lon="4.24708">
        <ele>526.761</ele>
        <time>2018-09-24T13:34:07Z</time>
      </trkpt>
      <trkpt lat="45.81543" lon="4.2471">
        <ele>526.911</ele>
        <time>2018-09-24T13:34:13Z</time>
      </trkpt>
      <trkpt lat="45.81539" lon="4.24708">
        <ele>526.827</ele>
        <time>2018-09-24T13:34:18Z</time>
      </trkpt>
      <trkpt lat="45.81531" lon="4.24708">
        <ele>526.488</ele>
        <time>2018-09-24T13:34:23Z</time>
      </trkpt>
      <trkpt lat="45.81525" lon="4.24707">
        <ele>526.09</ele>
        <time>2018-09-24T13:34:29Z</time>
      </trkpt>
      <trkpt lat="45.81519" lon="4.24707">
        <ele>525.111</ele>
        <time>2018-09-24T13:34:34Z</time>
      </trkpt>
      <trkpt lat="45.81516" lon="4.24712">
        <ele>524.161</ele>
        <time>2018-09-24T13:34:39Z</time>
      </trkpt>
      <trkpt lat="45.81509" lon="4.24715">
        <ele>523.152</ele>
        <time>2018-09-24T13:34:45Z</time>
      </trkpt>
      <trkpt lat="45.81505" lon="4.24718">
        <ele>521.789</ele>
        <time>2018-09-24T13:34:52Z</time>
      </trkpt>
      <trkpt lat="45.81499" lon="4.24719">
        <ele>520.716</ele>
        <time>2018-09-24T13:34:57Z</time>
      </trkpt>
      <trkpt lat="45.81491" lon="4.24718">
        <ele>519.393</ele>
        <time>2018-09-24T13:35:03Z</time>
      </trkpt>
      <trkpt lat="45.81483" lon="4.2472">
        <ele>518.71</ele>
        <time>2018-09-24T13:35:08Z</time>
      </trkpt>
      <trkpt lat="45.81478" lon="4.2472">
        <ele>518.071</ele>
        <time>2018-09-24T13:35:13Z</time>
      </trkpt>
      <trkpt lat="45.81474" lon="4.24719">
        <ele>516.954</ele>
        <time>2018-09-24T13:35:19Z</time>
      </trkpt>
      <trkpt lat="45.81469" lon="4.24716">
        <ele>515.651</ele>
        <time>2018-09-24T13:35:24Z</time>
      </trkpt>
      <trkpt lat="45.81466" lon="4.24715">
        <ele>514.596</ele>
        <time>2018-09-24T13:35:29Z</time>
      </trkpt>
      <trkpt lat="45.81458" lon="4.24718">
        <ele>514.173</ele>
        <time>2018-09-24T13:35:34Z</time>
      </trkpt>
      <trkpt lat="45.81452" lon="4.24719">
        <ele>514.076</ele>
        <time>2018-09-24T13:35:40Z</time>
      </trkpt>
      <trkpt lat="45.81449" lon="4.24717">
        <ele>514.077</ele>
        <time>2018-09-24T13:35:46Z</time>
      </trkpt>
      <trkpt lat="45.81448" lon="4.24715">
        <ele>514.269</ele>
        <time>2018-09-24T13:35:52Z</time>
      </trkpt>
      <trkpt lat="45.81449" lon="4.24715">
        <ele>514.194</ele>
        <time>2018-09-24T13:35:58Z</time>
      </trkpt>
      <trkpt lat="45.81451" lon="4.24715">
        <ele>514.205</ele>
        <time>2018-09-24T13:36:04Z</time>
      </trkpt>
      <trkpt lat="45.81452" lon="4.24716">
        <ele>514.048</ele>
        <time>2018-09-24T13:36:10Z</time>
      </trkpt>
      <trkpt lat="45.81453" lon="4.24715">
        <ele>513.947</ele>
        <time>2018-09-24T13:36:15Z</time>
      </trkpt>
      <trkpt lat="45.8145" lon="4.24715">
        <ele>513.285</ele>
        <time>2018-09-24T13:36:21Z</time>
      </trkpt>
      <trkpt lat="45.81444" lon="4.24715">
        <ele>512.99</ele>
        <time>2018-09-24T13:36:27Z</time>
      </trkpt>
      <trkpt lat="45.81437" lon="4.24716">
        <ele>512.467</ele>
        <time>2018-09-24T13:36:33Z</time>
      </trkpt>
      <trkpt lat="45.8143" lon="4.24718">
        <ele>512.472</ele>
        <time>2018-09-24T13:36:38Z</time>
      </trkpt>
      <trkpt lat="45.81422" lon="4.24721">
        <ele>512.506</ele>
        <time>2018-09-24T13:36:44Z</time>
      </trkpt>
      <trkpt lat="45.81419" lon="4.24724">
        <ele>512.616</ele>
        <time>2018-09-24T13:36:49Z</time>
      </trkpt>
      <trkpt lat="45.81418" lon="4.24727">
        <ele>512.468</ele>
        <time>2018-09-24T13:36:55Z</time>
      </trkpt>
      <trkpt lat="45.81417" lon="4.24725">
        <ele>512.344</ele>
        <time>2018-09-24T13:37:00Z</time>
      </trkpt>
      <trkpt lat="45.81418" lon="4.24725">
        <ele>512.791</ele>
        <time>2018-09-24T13:37:06Z</time>
      </trkpt>
      <trkpt lat="45.8142" lon="4.2472">
        <ele>513.175</ele>
        <time>2018-09-24T13:37:11Z</time>
      </trkpt>
      <trkpt lat="45.81426" lon="4.24712">
        <ele>512.869</ele>
        <time>2018-09-24T13:37:17Z</time>
      </trkpt>
      <trkpt lat="45.81431" lon="4.24705">
        <ele>512.242</ele>
        <time>2018-09-24T13:37:22Z</time>
      </trkpt>
      <trkpt lat="45.81435" lon="4.24702">
        <ele>511.483</ele>
        <time>2018-09-24T13:37:28Z</time>
      </trkpt>
      <trkpt lat="45.81437" lon="4.24702">
        <ele>510.819</ele>
        <time>2018-09-24T13:37:34Z</time>
      </trkpt>
      <trkpt lat="45.81439" lon="4.24699">
        <ele>510.143</ele>
        <time>2018-09-24T13:37:39Z</time>
      </trkpt>
      <trkpt lat="45.81437" lon="4.24698">
        <ele>509.674</ele>
        <time>2018-09-24T13:37:44Z</time>
      </trkpt>
      <trkpt lat="45.81435" lon="4.24701">
        <ele>509.341</ele>
        <time>2018-09-24T13:37:49Z</time>
      </trkpt>
      <trkpt lat="45.81431" lon="4.24699">
        <ele>508.381</ele>
        <time>2018-09-24T13:37:55Z</time>
      </trkpt>
      <trkpt lat="45.81429" lon="4.247">
        <ele>507.174</ele>
        <time>2018-09-24T13:38:00Z</time>
      </trkpt>
      <trkpt lat="45.81425" lon="4.24701">
        <ele>505.896</ele>
        <time>2018-09-24T13:38:06Z</time>
      </trkpt>
      <trkpt lat="45.81423" lon="4.24697">
        <ele>505.295</ele>
        <time>2018-09-24T13:38:11Z</time>
      </trkpt>
      <trkpt lat="45.81422" lon="4.24698">
        <ele>504.865</ele>
        <time>2018-09-24T13:38:17Z</time>
      </trkpt>
      <trkpt lat="45.81418" lon="4.24696">
        <ele>504.77</ele>
        <time>2018-09-24T13:38:22Z</time>
      </trkpt>
      <trkpt lat="45.8141" lon="4.24692">
        <ele>504.57</ele>
        <time>2018-09-24T13:38:28Z</time>
      </trkpt>
      <trkpt lat="45.81405" lon="4.24693">
        <ele>504.006</ele>
        <time>2018-09-24T13:38:34Z</time>
      </trkpt>
      <trkpt lat="45.814" lon="4.24694">
        <ele>503.295</ele>
        <time>2018-09-24T13:38:39Z</time>
      </trkpt>
      <trkpt lat="45.81391" lon="4.24694">
        <ele>503.096</ele>
        <time>2018-09-24T13:38:44Z</time>
      </trkpt>
      <trkpt lat="45.81381" lon="4.24692">
        <ele>502.334</ele>
        <time>2018-09-24T13:38:50Z</time>
      </trkpt>
      <trkpt lat="45.81375" lon="4.24689">
        <ele>501.196</ele>
        <time>2018-09-24T13:38:56Z</time>
      </trkpt>
      <trkpt lat="45.8137" lon="4.24689">
        <ele>500.021</ele>
        <time>2018-09-24T13:39:02Z</time>
      </trkpt>
      <trkpt lat="45.81362" lon="4.24686">
        <ele>498.764</ele>
        <time>2018-09-24T13:39:08Z</time>
      </trkpt>
      <trkpt lat="45.81355" lon="4.24685">
        <ele>497.634</ele>
        <time>2018-09-24T13:39:14Z</time>
      </trkpt>
      <trkpt lat="45.81346" lon="4.24682">
        <ele>496.435</ele>
        <time>2018-09-24T13:39:21Z</time>
      </trkpt>
      <trkpt lat="45.81342" lon="4.24682">
        <ele>495.106</ele>
        <time>2018-09-24T13:39:27Z</time>
      </trkpt>
      <trkpt lat="45.81338" lon="4.24681">
        <ele>494.048</ele>
        <time>2018-09-24T13:39:32Z</time>
      </trkpt>
      <trkpt lat="45.81333" lon="4.24678">
        <ele>492.45</ele>
        <time>2018-09-24T13:39:38Z</time>
      </trkpt>
      <trkpt lat="45.81329" lon="4.24678">
        <ele>491.572</ele>
        <time>2018-09-24T13:39:44Z</time>
      </trkpt>
      <trkpt lat="45.81318" lon="4.24674">
        <ele>490.852</ele>
        <time>2018-09-24T13:39:50Z</time>
      </trkpt>
      <trkpt lat="45.81312" lon="4.24675">
        <ele>490.486</ele>
        <time>2018-09-24T13:39:55Z</time>
      </trkpt>
      <trkpt lat="45.81307" lon="4.24674">
        <ele>490.494</ele>
        <time>2018-09-24T13:40:00Z</time>
      </trkpt>
      <trkpt lat="45.81298" lon="4.24671">
        <ele>490.078</ele>
        <time>2018-09-24T13:40:06Z</time>
      </trkpt>
      <trkpt lat="45.81288" lon="4.24672">
        <ele>489.414</ele>
        <time>2018-09-24T13:40:12Z</time>
      </trkpt>
      <trkpt lat="45.8128" lon="4.24678">
        <ele>488.318</ele>
        <time>2018-09-24T13:40:18Z</time>
      </trkpt>
      <trkpt lat="45.81276" lon="4.24684">
        <ele>487.242</ele>
        <time>2018-09-24T13:40:23Z</time>
      </trkpt>
      <trkpt lat="45.81268" lon="4.24686">
        <ele>485.938</ele>
        <time>2018-09-24T13:40:29Z</time>
      </trkpt>
      <trkpt lat="45.8126" lon="4.24686">
        <ele>485.015</ele>
        <time>2018-09-24T13:40:34Z</time>
      </trkpt>
      <trkpt lat="45.81251" lon="4.24687">
        <ele>483.894</ele>
        <time>2018-09-24T13:40:40Z</time>
      </trkpt>
      <trkpt lat="45.81243" lon="4.24689">
        <ele>483.301</ele>
        <time>2018-09-24T13:40:45Z</time>
      </trkpt>
      <trkpt lat="45.81237" lon="4.24695">
        <ele>482.581</ele>
        <time>2018-09-24T13:40:51Z</time>
      </trkpt>
      <trkpt lat="45.81231" lon="4.24699">
        <ele>481.902</ele>
        <time>2018-09-24T13:40:56Z</time>
      </trkpt>
      <trkpt lat="45.81225" lon="4.24703">
        <ele>480.856</ele>
        <time>2018-09-24T13:41:01Z</time>
      </trkpt>
      <trkpt lat="45.81218" lon="4.24703">
        <ele>479.077</ele>
        <time>2018-09-24T13:41:07Z</time>
      </trkpt>
      <trkpt lat="45.81208" lon="4.24704">
        <ele>477.542</ele>
        <time>2018-09-24T13:41:13Z</time>
      </trkpt>
      <trkpt lat="45.812" lon="4.24708">
        <ele>476.549</ele>
        <time>2018-09-24T13:41:18Z</time>
      </trkpt>
      <trkpt lat="45.81193" lon="4.2471">
        <ele>476.465</ele>
        <time>2018-09-24T13:41:24Z</time>
      </trkpt>
      <trkpt lat="45.81186" lon="4.24713">
        <ele>476.583</ele>
        <time>2018-09-24T13:41:30Z</time>
      </trkpt>
      <trkpt lat="45.81175" lon="4.24719">
        <ele>476.292</ele>
        <time>2018-09-24T13:41:36Z</time>
      </trkpt>
      <trkpt lat="45.81169" lon="4.24721">
        <ele>474.966</ele>
        <time>2018-09-24T13:41:42Z</time>
      </trkpt>
      <trkpt lat="45.81163" lon="4.24724">
        <ele>473.842</ele>
        <time>2018-09-24T13:41:48Z</time>
      </trkpt>
      <trkpt lat="45.81153" lon="4.24726">
        <ele>473.748</ele>
        <time>2018-09-24T13:41:54Z</time>
      </trkpt>
      <trkpt lat="45.81147" lon="4.24731">
        <ele>473.938</ele>
        <time>2018-09-24T13:42:00Z</time>
      </trkpt>
      <trkpt lat="45.81145" lon="4.24732">
        <ele>473.942</ele>
        <time>2018-09-24T13:42:05Z</time>
      </trkpt>
      <trkpt lat="45.81145" lon="4.24731">
        <ele>473.837</ele>
        <time>2018-09-24T13:42:10Z</time>
      </trkpt>
      <trkpt lat="45.81145" lon="4.24731">
        <ele>474.578</ele>
        <time>2018-09-24T13:42:16Z</time>
      </trkpt>
      <trkpt lat="45.81145" lon="4.24731">
        <ele>474.759</ele>
        <time>2018-09-24T13:42:22Z</time>
      </trkpt>
      <trkpt lat="45.81145" lon="4.24731">
        <ele>474.879</ele>
        <time>2018-09-24T13:42:27Z</time>
      </trkpt>
      <trkpt lat="45.81145" lon="4.24731">
        <ele>475.013</ele>
        <time>2018-09-24T13:42:33Z</time>
      </trkpt>
      <trkpt lat="45.81145" lon="4.24731">
        <ele>475.525</ele>
        <time>2018-09-24T13:42:39Z</time>
      </trkpt>
      <trkpt lat="45.81145" lon="4.24731">
        <ele>475.512</ele>
        <time>2018-09-24T13:42:45Z</time>
      </trkpt>
      <trkpt lat="45.81145" lon="4.24731">
        <ele>475.557</ele>
        <time>2018-09-24T13:42:51Z</time>
      </trkpt>
      <trkpt lat="45.81145" lon="4.24731">
        <ele>475.601</ele>
        <time>2018-09-24T13:42:57Z</time>
      </trkpt>
      <trkpt lat="45.81145" lon="4.24731">
        <ele>475.592</ele>
        <time>2018-09-24T13:43:02Z</time>
      </trkpt>
      <trkpt lat="45.81145" lon="4.24731">
        <ele>475.425</ele>
        <time>2018-09-24T13:43:08Z</time>
      </trkpt>
      <trkpt lat="45.81145" lon="4.24731">
        <ele>475.938</ele>
        <time>2018-09-24T13:43:14Z</time>
      </trkpt>
      <trkpt lat="45.81145" lon="4.24731">
        <ele>476.571</ele>
        <time>2018-09-24T13:43:19Z</time>
      </trkpt>
      <trkpt lat="45.81143" lon="4.2473">
        <ele>476.864</ele>
        <time>2018-09-24T13:43:25Z</time>
      </trkpt>
      <trkpt lat="45.81142" lon="4.2473">
        <ele>476.942</ele>
        <time>2018-09-24T13:43:30Z</time>
      </trkpt>
      <trkpt lat="45.81142" lon="4.2473">
        <ele>477.032</ele>
        <time>2018-09-24T13:43:35Z</time>
      </trkpt>
      <trkpt lat="45.81142" lon="4.2473">
        <ele>477.098</ele>
        <time>2018-09-24T13:43:41Z</time>
      </trkpt>
      <trkpt lat="45.81142" lon="4.2473">
        <ele>477.136</ele>
        <time>2018-09-24T13:43:47Z</time>
      </trkpt>
      <trkpt lat="45.81142" lon="4.2473">
        <ele>477.643</ele>
        <time>2018-09-24T13:43:53Z</time>
      </trkpt>
      <trkpt lat="45.81139" lon="4.2473">
        <ele>477.747</ele>
        <time>2018-09-24T13:43:59Z</time>
      </trkpt>
      <trkpt lat="45.8114" lon="4.24731">
        <ele>477.835</ele>
        <time>2018-09-24T13:44:04Z</time>
      </trkpt>
      <trkpt lat="45.8114" lon="4.2473">
        <ele>477.913</ele>
        <time>2018-09-24T13:44:09Z</time>
      </trkpt>
      <trkpt lat="45.8114" lon="4.2473">
        <ele>477.871</ele>
        <time>2018-09-24T13:44:15Z</time>
      </trkpt>
      <trkpt lat="45.8114" lon="4.2473">
        <ele>478.06</ele>
        <time>2018-09-24T13:44:21Z</time>
      </trkpt>
      <trkpt lat="45.8114" lon="4.2473">
        <ele>478.2</ele>
        <time>2018-09-24T13:44:26Z</time>
      </trkpt>
      <trkpt lat="45.8114" lon="4.2473">
        <ele>478.33</ele>
        <time>2018-09-24T13:44:31Z</time>
      </trkpt>
      <trkpt lat="45.8114" lon="4.2473">
        <ele>478.363</ele>
        <time>2018-09-24T13:44:37Z</time>
      </trkpt>
      <trkpt lat="45.8114" lon="4.2473">
        <ele>478.317</ele>
        <time>2018-09-24T13:44:43Z</time>
      </trkpt>
      <trkpt lat="45.8114" lon="4.2473">
        <ele>478.392</ele>
        <time>2018-09-24T13:44:48Z</time>
      </trkpt>
      <trkpt lat="45.8114" lon="4.2473">
        <ele>478.522</ele>
        <time>2018-09-24T13:44:54Z</time>
      </trkpt>
      <trkpt lat="45.8114" lon="4.2473">
        <ele>478.564</ele>
        <time>2018-09-24T13:45:00Z</time>
      </trkpt>
      <trkpt lat="45.8114" lon="4.2473">
        <ele>478.563</ele>
        <time>2018-09-24T13:45:06Z</time>
      </trkpt>
      <trkpt lat="45.8114" lon="4.2473">
        <ele>478.627</ele>
        <time>2018-09-24T13:45:12Z</time>
      </trkpt>
      <trkpt lat="45.8114" lon="4.2473">
        <ele>478.679</ele>
        <time>2018-09-24T13:45:17Z</time>
      </trkpt>
      <trkpt lat="45.8114" lon="4.2473">
        <ele>478.774</ele>
        <time>2018-09-24T13:45:23Z</time>
      </trkpt>
      <trkpt lat="45.8114" lon="4.2473">
        <ele>478.839</ele>
        <time>2018-09-24T13:45:29Z</time>
      </trkpt>
      <trkpt lat="45.8114" lon="4.2473">
        <ele>478.927</ele>
        <time>2018-09-24T13:45:34Z</time>
      </trkpt>
      <trkpt lat="45.8114" lon="4.2473">
        <ele>479.117</ele>
        <time>2018-09-24T13:45:40Z</time>
      </trkpt>
      <trkpt lat="45.8114" lon="4.2473">
        <ele>479.184</ele>
        <time>2018-09-24T13:45:46Z</time>
      </trkpt>
      <trkpt lat="45.8114" lon="4.2473">
        <ele>479.18</ele>
        <time>2018-09-24T13:45:52Z</time>
      </trkpt>
      <trkpt lat="45.8114" lon="4.2473">
        <ele>479.156</ele>
        <time>2018-09-24T13:45:57Z</time>
      </trkpt>
      <trkpt lat="45.8114" lon="4.2473">
        <ele>479.106</ele>
        <time>2018-09-24T13:46:02Z</time>
      </trkpt>
      <trkpt lat="45.8114" lon="4.2473">
        <ele>478.964</ele>
        <time>2018-09-24T13:46:08Z</time>
      </trkpt>
      <trkpt lat="45.8114" lon="4.2473">
        <ele>478.752</ele>
        <time>2018-09-24T13:46:14Z</time>
      </trkpt>
      <trkpt lat="45.81138" lon="4.24731">
        <ele>477.831</ele>
        <time>2018-09-24T13:46:20Z</time>
      </trkpt>
      <trkpt lat="45.81138" lon="4.24731">
        <ele>477.764</ele>
        <time>2018-09-24T13:46:26Z</time>
      </trkpt>
      <trkpt lat="45.81138" lon="4.24731">
        <ele>477.846</ele>
        <time>2018-09-24T13:46:32Z</time>
      </trkpt>
      <trkpt lat="45.81138" lon="4.24731">
        <ele>477.908</ele>
        <time>2018-09-24T13:46:38Z</time>
      </trkpt>
      <trkpt lat="45.81138" lon="4.24731">
        <ele>477.848</ele>
        <time>2018-09-24T13:46:44Z</time>
      </trkpt>
      <trkpt lat="45.81138" lon="4.24731">
        <ele>477.8</ele>
        <time>2018-09-24T13:46:50Z</time>
      </trkpt>
      <trkpt lat="45.81137" lon="4.24731">
        <ele>477.415</ele>
        <time>2018-09-24T13:46:55Z</time>
      </trkpt>
      <trkpt lat="45.81136" lon="4.24732">
        <ele>477.335</ele>
        <time>2018-09-24T13:47:00Z</time>
      </trkpt>
      <trkpt lat="45.81132" lon="4.24733">
        <ele>477.283</ele>
        <time>2018-09-24T13:47:06Z</time>
      </trkpt>
      <trkpt lat="45.81132" lon="4.24733">
        <ele>477.389</ele>
        <time>2018-09-24T13:47:12Z</time>
      </trkpt>
      <trkpt lat="45.81132" lon="4.24733">
        <ele>477.419</ele>
        <time>2018-09-24T13:47:18Z</time>
      </trkpt>
      <trkpt lat="45.81132" lon="4.24733">
        <ele>477.377</ele>
        <time>2018-09-24T13:47:24Z</time>
      </trkpt>
      <trkpt lat="45.81132" lon="4.24733">
        <ele>477.445</ele>
        <time>2018-09-24T13:47:30Z</time>
      </trkpt>
      <trkpt lat="45.81132" lon="4.24733">
        <ele>477.647</ele>
        <time>2018-09-24T13:47:36Z</time>
      </trkpt>
      <trkpt lat="45.81129" lon="4.24735">
        <ele>477.768</ele>
        <time>2018-09-24T13:47:42Z</time>
      </trkpt>
      <trkpt lat="45.81129" lon="4.24735">
        <ele>477.624</ele>
        <time>2018-09-24T13:47:48Z</time>
      </trkpt>
      <trkpt lat="45.81129" lon="4.24735">
        <ele>477.555</ele>
        <time>2018-09-24T13:47:53Z</time>
      </trkpt>
      <trkpt lat="45.81129" lon="4.24735">
        <ele>477.54</ele>
        <time>2018-09-24T13:47:59Z</time>
      </trkpt>
      <trkpt lat="45.81129" lon="4.24735">
        <ele>477.76</ele>
        <time>2018-09-24T13:48:05Z</time>
      </trkpt>
      <trkpt lat="45.81129" lon="4.24735">
        <ele>477.934</ele>
        <time>2018-09-24T13:48:11Z</time>
      </trkpt>
      <trkpt lat="45.81129" lon="4.24735">
        <ele>478.462</ele>
        <time>2018-09-24T13:48:16Z</time>
      </trkpt>
      <trkpt lat="45.81129" lon="4.24735">
        <ele>478.844</ele>
        <time>2018-09-24T13:48:21Z</time>
      </trkpt>
      <trkpt lat="45.81129" lon="4.24735">
        <ele>478.911</ele>
        <time>2018-09-24T13:48:27Z</time>
      </trkpt>
      <trkpt lat="45.81129" lon="4.24735">
        <ele>478.918</ele>
        <time>2018-09-24T13:48:33Z</time>
      </trkpt>
      <trkpt lat="45.81129" lon="4.24735">
        <ele>478.901</ele>
        <time>2018-09-24T13:48:39Z</time>
      </trkpt>
      <trkpt lat="45.81129" lon="4.24735">
        <ele>478.8</ele>
        <time>2018-09-24T13:48:45Z</time>
      </trkpt>
      <trkpt lat="45.81129" lon="4.24735">
        <ele>478.325</ele>
        <time>2018-09-24T13:48:50Z</time>
      </trkpt>
      <trkpt lat="45.81129" lon="4.24735">
        <ele>478.32</ele>
        <time>2018-09-24T13:48:56Z</time>
      </trkpt>
      <trkpt lat="45.81129" lon="4.24734">
        <ele>478.303</ele>
        <time>2018-09-24T13:49:02Z</time>
      </trkpt>
      <trkpt lat="45.81129" lon="4.24734">
        <ele>478.059</ele>
        <time>2018-09-24T13:49:07Z</time>
      </trkpt>
      <trkpt lat="45.81129" lon="4.24734">
        <ele>477.945</ele>
        <time>2018-09-24T13:49:13Z</time>
      </trkpt>
      <trkpt lat="45.81129" lon="4.24734">
        <ele>477.884</ele>
        <time>2018-09-24T13:49:18Z</time>
      </trkpt>
      <trkpt lat="45.81129" lon="4.24734">
        <ele>477.854</ele>
        <time>2018-09-24T13:49:24Z</time>
      </trkpt>
      <trkpt lat="45.81129" lon="4.24734">
        <ele>478.168</ele>
        <time>2018-09-24T13:49:30Z</time>
      </trkpt>
      <trkpt lat="45.81128" lon="4.24734">
        <ele>478.117</ele>
        <time>2018-09-24T13:49:36Z</time>
      </trkpt>
      <trkpt lat="45.8112" lon="4.24736">
        <ele>477.86</ele>
        <time>2018-09-24T13:49:42Z</time>
      </trkpt>
      <trkpt lat="45.81113" lon="4.2474">
        <ele>477.827</ele>
        <time>2018-09-24T13:49:48Z</time>
      </trkpt>
      <trkpt lat="45.81108" lon="4.24741">
        <ele>478.158</ele>
        <time>2018-09-24T13:49:54Z</time>
      </trkpt>
      <trkpt lat="45.81103" lon="4.24743">
        <ele>478.978</ele>
        <time>2018-09-24T13:50:00Z</time>
      </trkpt>
      <trkpt lat="45.81099" lon="4.24744">
        <ele>479.502</ele>
        <time>2018-09-24T13:50:05Z</time>
      </trkpt>
      <trkpt lat="45.81095" lon="4.24746">
        <ele>479.702</ele>
        <time>2018-09-24T13:50:11Z</time>
      </trkpt>
      <trkpt lat="45.8109" lon="4.24751">
        <ele>479.346</ele>
        <time>2018-09-24T13:50:17Z</time>
      </trkpt>
      <trkpt lat="45.81085" lon="4.24755">
        <ele>479.079</ele>
        <time>2018-09-24T13:50:23Z</time>
      </trkpt>
      <trkpt lat="45.8108" lon="4.24761">
        <ele>479.027</ele>
        <time>2018-09-24T13:50:29Z</time>
      </trkpt>
      <trkpt lat="45.81075" lon="4.24765">
        <ele>478.833</ele>
        <time>2018-09-24T13:50:34Z</time>
      </trkpt>
      <trkpt lat="45.81068" lon="4.24767">
        <ele>478.818</ele>
        <time>2018-09-24T13:50:40Z</time>
      </trkpt>
      <trkpt lat="45.81064" lon="4.24769">
        <ele>478.439</ele>
        <time>2018-09-24T13:50:46Z</time>
      </trkpt>
      <trkpt lat="45.81057" lon="4.2477">
        <ele>478.12</ele>
        <time>2018-09-24T13:50:52Z</time>
      </trkpt>
      <trkpt lat="45.81051" lon="4.24772">
        <ele>477.297</ele>
        <time>2018-09-24T13:50:58Z</time>
      </trkpt>
      <trkpt lat="45.81044" lon="4.2477">
        <ele>476.51</ele>
        <time>2018-09-24T13:51:04Z</time>
      </trkpt>
      <trkpt lat="45.81038" lon="4.24771">
        <ele>475.988</ele>
        <time>2018-09-24T13:51:09Z</time>
      </trkpt>
      <trkpt lat="45.81033" lon="4.24769">
        <ele>475.504</ele>
        <time>2018-09-24T13:51:14Z</time>
      </trkpt>
      <trkpt lat="45.81027" lon="4.2477">
        <ele>475.081</ele>
        <time>2018-09-24T13:51:19Z</time>
      </trkpt>
      <trkpt lat="45.81022" lon="4.24769">
        <ele>474.77</ele>
        <time>2018-09-24T13:51:24Z</time>
      </trkpt>
      <trkpt lat="45.81016" lon="4.24767">
        <ele>474.635</ele>
        <time>2018-09-24T13:51:30Z</time>
      </trkpt>
      <trkpt lat="45.81009" lon="4.24767">
        <ele>474.306</ele>
        <time>2018-09-24T13:51:36Z</time>
      </trkpt>
      <trkpt lat="45.81001" lon="4.24766">
        <ele>474.107</ele>
        <time>2018-09-24T13:51:42Z</time>
      </trkpt>
      <trkpt lat="45.80997" lon="4.24765">
        <ele>473.98</ele>
        <time>2018-09-24T13:51:47Z</time>
      </trkpt>
      <trkpt lat="45.80991" lon="4.24765">
        <ele>474.024</ele>
        <time>2018-09-24T13:51:53Z</time>
      </trkpt>
      <trkpt lat="45.80986" lon="4.24765">
        <ele>473.593</ele>
        <time>2018-09-24T13:51:59Z</time>
      </trkpt>
      <trkpt lat="45.80978" lon="4.24762">
        <ele>472.814</ele>
        <time>2018-09-24T13:52:05Z</time>
      </trkpt>
      <trkpt lat="45.80971" lon="4.24764">
        <ele>471.738</ele>
        <time>2018-09-24T13:52:11Z</time>
      </trkpt>
      <trkpt lat="45.80964" lon="4.24765">
        <ele>471.141</ele>
        <time>2018-09-24T13:52:17Z</time>
      </trkpt>
      <trkpt lat="45.80956" lon="4.24762">
        <ele>470.763</ele>
        <time>2018-09-24T13:52:23Z</time>
      </trkpt>
      <trkpt lat="45.80949" lon="4.24761">
        <ele>470.284</ele>
        <time>2018-09-24T13:52:28Z</time>
      </trkpt>
      <trkpt lat="45.80943" lon="4.24761">
        <ele>469.615</ele>
        <time>2018-09-24T13:52:34Z</time>
      </trkpt>
      <trkpt lat="45.8094" lon="4.24765">
        <ele>468.966</ele>
        <time>2018-09-24T13:52:39Z</time>
      </trkpt>
      <trkpt lat="45.80943" lon="4.24768">
        <ele>468.819</ele>
        <time>2018-09-24T13:52:44Z</time>
      </trkpt>
      <trkpt lat="45.80949" lon="4.2477">
        <ele>469.387</ele>
        <time>2018-09-24T13:52:50Z</time>
      </trkpt>
      <trkpt lat="45.80952" lon="4.24772">
        <ele>469.605</ele>
        <time>2018-09-24T13:52:55Z</time>
      </trkpt>
      <trkpt lat="45.80951" lon="4.24782">
        <ele>470.003</ele>
        <time>2018-09-24T13:53:01Z</time>
      </trkpt>
      <trkpt lat="45.8095" lon="4.2479">
        <ele>469.844</ele>
        <time>2018-09-24T13:53:07Z</time>
      </trkpt>
      <trkpt lat="45.80951" lon="4.24794">
        <ele>469.677</ele>
        <time>2018-09-24T13:53:12Z</time>
      </trkpt>
      <trkpt lat="45.8096" lon="4.24799">
        <ele>468.615</ele>
        <time>2018-09-24T13:53:18Z</time>
      </trkpt>
      <trkpt lat="45.80966" lon="4.24801">
        <ele>468.569</ele>
        <time>2018-09-24T13:53:23Z</time>
      </trkpt>
      <trkpt lat="45.80972" lon="4.24802">
        <ele>469.285</ele>
        <time>2018-09-24T13:53:29Z</time>
      </trkpt>
      <trkpt lat="45.8098" lon="4.24803">
        <ele>470.146</ele>
        <time>2018-09-24T13:53:34Z</time>
      </trkpt>
      <trkpt lat="45.80988" lon="4.24803">
        <ele>471.189</ele>
        <time>2018-09-24T13:53:40Z</time>
      </trkpt>
      <trkpt lat="45.80995" lon="4.24805">
        <ele>472.007</ele>
        <time>2018-09-24T13:53:46Z</time>
      </trkpt>
      <trkpt lat="45.80999" lon="4.24807">
        <ele>473.404</ele>
        <time>2018-09-24T13:53:52Z</time>
      </trkpt>
      <trkpt lat="45.81002" lon="4.24809">
        <ele>474.308</ele>
        <time>2018-09-24T13:53:57Z</time>
      </trkpt>
      <trkpt lat="45.81011" lon="4.24813">
        <ele>475.447</ele>
        <time>2018-09-24T13:54:03Z</time>
      </trkpt>
      <trkpt lat="45.81015" lon="4.24818">
        <ele>476.071</ele>
        <time>2018-09-24T13:54:08Z</time>
      </trkpt>
      <trkpt lat="45.8102" lon="4.24822">
        <ele>476.516</ele>
        <time>2018-09-24T13:54:14Z</time>
      </trkpt>
      <trkpt lat="45.81028" lon="4.24826">
        <ele>477.021</ele>
        <time>2018-09-24T13:54:19Z</time>
      </trkpt>
      <trkpt lat="45.81033" lon="4.24827">
        <ele>477.2</ele>
        <time>2018-09-24T13:54:24Z</time>
      </trkpt>
      <trkpt lat="45.8104" lon="4.2483">
        <ele>477.645</ele>
        <time>2018-09-24T13:54:30Z</time>
      </trkpt>
      <trkpt lat="45.81045" lon="4.24832">
        <ele>477.652</ele>
        <time>2018-09-24T13:54:36Z</time>
      </trkpt>
      <trkpt lat="45.8105" lon="4.24834">
        <ele>477.847</ele>
        <time>2018-09-24T13:54:42Z</time>
      </trkpt>
      <trkpt lat="45.81055" lon="4.24836">
        <ele>478.117</ele>
        <time>2018-09-24T13:54:47Z</time>
      </trkpt>
      <trkpt lat="45.81062" lon="4.24841">
        <ele>478.299</ele>
        <time>2018-09-24T13:54:52Z</time>
      </trkpt>
      <trkpt lat="45.8107" lon="4.24843">
        <ele>478.86</ele>
        <time>2018-09-24T13:54:58Z</time>
      </trkpt>
      <trkpt lat="45.81075" lon="4.24846">
        <ele>479.908</ele>
        <time>2018-09-24T13:55:04Z</time>
      </trkpt>
      <trkpt lat="45.81079" lon="4.24847">
        <ele>480.61</ele>
        <time>2018-09-24T13:55:10Z</time>
      </trkpt>
      <trkpt lat="45.81086" lon="4.24849">
        <ele>481.063</ele>
        <time>2018-09-24T13:55:16Z</time>
      </trkpt>
      <trkpt lat="45.81091" lon="4.24849">
        <ele>481.201</ele>
        <time>2018-09-24T13:55:22Z</time>
      </trkpt>
      <trkpt lat="45.81097" lon="4.2485">
        <ele>481.814</ele>
        <time>2018-09-24T13:55:28Z</time>
      </trkpt>
      <trkpt lat="45.81104" lon="4.24854">
        <ele>482.237</ele>
        <time>2018-09-24T13:55:34Z</time>
      </trkpt>
      <trkpt lat="45.81111" lon="4.24857">
        <ele>483.017</ele>
        <time>2018-09-24T13:55:40Z</time>
      </trkpt>
      <trkpt lat="45.81115" lon="4.24856">
        <ele>483.983</ele>
        <time>2018-09-24T13:55:46Z</time>
      </trkpt>
      <trkpt lat="45.81122" lon="4.24861">
        <ele>484.861</ele>
        <time>2018-09-24T13:55:52Z</time>
      </trkpt>
      <trkpt lat="45.8113" lon="4.24861">
        <ele>485.533</ele>
        <time>2018-09-24T13:55:58Z</time>
      </trkpt>
      <trkpt lat="45.81132" lon="4.24862">
        <ele>486.227</ele>
        <time>2018-09-24T13:56:04Z</time>
      </trkpt>
      <trkpt lat="45.81137" lon="4.24863">
        <ele>486.614</ele>
        <time>2018-09-24T13:56:10Z</time>
      </trkpt>
      <trkpt lat="45.81141" lon="4.24867">
        <ele>486.487</ele>
        <time>2018-09-24T13:56:16Z</time>
      </trkpt>
      <trkpt lat="45.8114" lon="4.24874">
        <ele>486.232</ele>
        <time>2018-09-24T13:56:21Z</time>
      </trkpt>
      <trkpt lat="45.81142" lon="4.24879">
        <ele>486.678</ele>
        <time>2018-09-24T13:56:27Z</time>
      </trkpt>
      <trkpt lat="45.81142" lon="4.24882">
        <ele>487.757</ele>
        <time>2018-09-24T13:56:33Z</time>
      </trkpt>
      <trkpt lat="45.81138" lon="4.24887">
        <ele>487.737</ele>
        <time>2018-09-24T13:56:38Z</time>
      </trkpt>
      <trkpt lat="45.81134" lon="4.24888">
        <ele>487.123</ele>
        <time>2018-09-24T13:56:44Z</time>
      </trkpt>
      <trkpt lat="45.81131" lon="4.24889">
        <ele>486.8</ele>
        <time>2018-09-24T13:56:49Z</time>
      </trkpt>
      <trkpt lat="45.81127" lon="4.24894">
        <ele>486.89</ele>
        <time>2018-09-24T13:56:55Z</time>
      </trkpt>
      <trkpt lat="45.81126" lon="4.24898">
        <ele>487.314</ele>
        <time>2018-09-24T13:57:01Z</time>
      </trkpt>
      <trkpt lat="45.81127" lon="4.24902">
        <ele>487.689</ele>
        <time>2018-09-24T13:57:06Z</time>
      </trkpt>
      <trkpt lat="45.8113" lon="4.24904">
        <ele>488.648</ele>
        <time>2018-09-24T13:57:12Z</time>
      </trkpt>
      <trkpt lat="45.81132" lon="4.24909">
        <ele>489.481</ele>
        <time>2018-09-24T13:57:18Z</time>
      </trkpt>
      <trkpt lat="45.81137" lon="4.24917">
        <ele>490.17</ele>
        <time>2018-09-24T13:57:24Z</time>
      </trkpt>
      <trkpt lat="45.8114" lon="4.24923">
        <ele>490.914</ele>
        <time>2018-09-24T13:57:30Z</time>
      </trkpt>
      <trkpt lat="45.81142" lon="4.24927">
        <ele>491.052</ele>
        <time>2018-09-24T13:57:36Z</time>
      </trkpt>
      <trkpt lat="45.81149" lon="4.24936">
        <ele>491.416</ele>
        <time>2018-09-24T13:57:42Z</time>
      </trkpt>
      <trkpt lat="45.81153" lon="4.24941">
        <ele>491.986</ele>
        <time>2018-09-24T13:57:47Z</time>
      </trkpt>
      <trkpt lat="45.81154" lon="4.24946">
        <ele>493.207</ele>
        <time>2018-09-24T13:57:53Z</time>
      </trkpt>
      <trkpt lat="45.81156" lon="4.24952">
        <ele>494.201</ele>
        <time>2018-09-24T13:57:58Z</time>
      </trkpt>
      <trkpt lat="45.81159" lon="4.24958">
        <ele>495.372</ele>
        <time>2018-09-24T13:58:04Z</time>
      </trkpt>
      <trkpt lat="45.81162" lon="4.24966">
        <ele>496.656</ele>
        <time>2018-09-24T13:58:09Z</time>
      </trkpt>
      <trkpt lat="45.81165" lon="4.24976">
        <ele>498.241</ele>
        <time>2018-09-24T13:58:15Z</time>
      </trkpt>
      <trkpt lat="45.81168" lon="4.24984">
        <ele>500.376</ele>
        <time>2018-09-24T13:58:21Z</time>
      </trkpt>
      <trkpt lat="45.81171" lon="4.24986">
        <ele>501.952</ele>
        <time>2018-09-24T13:58:26Z</time>
      </trkpt>
      <trkpt lat="45.81175" lon="4.24992">
        <ele>502.846</ele>
        <time>2018-09-24T13:58:31Z</time>
      </trkpt>
      <trkpt lat="45.81179" lon="4.24993">
        <ele>504.218</ele>
        <time>2018-09-24T13:58:37Z</time>
      </trkpt>
      <trkpt lat="45.81185" lon="4.24998">
        <ele>505.325</ele>
        <time>2018-09-24T13:58:43Z</time>
      </trkpt>
      <trkpt lat="45.81191" lon="4.25007">
        <ele>506.113</ele>
        <time>2018-09-24T13:58:49Z</time>
      </trkpt>
      <trkpt lat="45.81196" lon="4.25015">
        <ele>507.083</ele>
        <time>2018-09-24T13:58:55Z</time>
      </trkpt>
      <trkpt lat="45.812" lon="4.25024">
        <ele>508.01</ele>
        <time>2018-09-24T13:59:00Z</time>
      </trkpt>
      <trkpt lat="45.81204" lon="4.25029">
        <ele>509.134</ele>
        <time>2018-09-24T13:59:06Z</time>
      </trkpt>
      <trkpt lat="45.81206" lon="4.25038">
        <ele>510.087</ele>
        <time>2018-09-24T13:59:12Z</time>
      </trkpt>
      <trkpt lat="45.81208" lon="4.25045">
        <ele>510.866</ele>
        <time>2018-09-24T13:59:17Z</time>
      </trkpt>
      <trkpt lat="45.81209" lon="4.25052">
        <ele>511.751</ele>
        <time>2018-09-24T13:59:22Z</time>
      </trkpt>
      <trkpt lat="45.81211" lon="4.25057">
        <ele>512.506</ele>
        <time>2018-09-24T13:59:27Z</time>
      </trkpt>
      <trkpt lat="45.81213" lon="4.25061">
        <ele>513.426</ele>
        <time>2018-09-24T13:59:32Z</time>
      </trkpt>
      <trkpt lat="45.81215" lon="4.2507">
        <ele>514.96</ele>
        <time>2018-09-24T13:59:38Z</time>
      </trkpt>
      <trkpt lat="45.81217" lon="4.25076">
        <ele>516.412</ele>
        <time>2018-09-24T13:59:43Z</time>
      </trkpt>
      <trkpt lat="45.81219" lon="4.25084">
        <ele>518.76</ele>
        <time>2018-09-24T13:59:49Z</time>
      </trkpt>
      <trkpt lat="45.8122" lon="4.25093">
        <ele>520.505</ele>
        <time>2018-09-24T13:59:54Z</time>
      </trkpt>
      <trkpt lat="45.81221" lon="4.251">
        <ele>521.963</ele>
        <time>2018-09-24T13:59:59Z</time>
      </trkpt>
      <trkpt lat="45.81221" lon="4.25112">
        <ele>523.317</ele>
        <time>2018-09-24T14:00:05Z</time>
      </trkpt>
      <trkpt lat="45.81219" lon="4.25122">
        <ele>524.914</ele>
        <time>2018-09-24T14:00:11Z</time>
      </trkpt>
      <trkpt lat="45.81219" lon="4.25126">
        <ele>525.833</ele>
        <time>2018-09-24T14:00:16Z</time>
      </trkpt>
      <trkpt lat="45.8122" lon="4.25135">
        <ele>526.747</ele>
        <time>2018-09-24T14:00:21Z</time>
      </trkpt>
      <trkpt lat="45.81221" lon="4.25151">
        <ele>527.029</ele>
        <time>2018-09-24T14:00:27Z</time>
      </trkpt>
      <trkpt lat="45.81224" lon="4.25161">
        <ele>527.156</ele>
        <time>2018-09-24T14:00:33Z</time>
      </trkpt>
      <trkpt lat="45.81224" lon="4.25169">
        <ele>527.259</ele>
        <time>2018-09-24T14:00:38Z</time>
      </trkpt>
      <trkpt lat="45.81224" lon="4.25179">
        <ele>527.534</ele>
        <time>2018-09-24T14:00:44Z</time>
      </trkpt>
      <trkpt lat="45.81223" lon="4.25185">
        <ele>527.704</ele>
        <time>2018-09-24T14:00:49Z</time>
      </trkpt>
      <trkpt lat="45.81223" lon="4.25195">
        <ele>528.242</ele>
        <time>2018-09-24T14:00:55Z</time>
      </trkpt>
      <trkpt lat="45.81222" lon="4.2521">
        <ele>529.269</ele>
        <time>2018-09-24T14:01:00Z</time>
      </trkpt>
      <trkpt lat="45.81218" lon="4.2522">
        <ele>529.867</ele>
        <time>2018-09-24T14:01:06Z</time>
      </trkpt>
      <trkpt lat="45.81215" lon="4.25226">
        <ele>530.14</ele>
        <time>2018-09-24T14:01:12Z</time>
      </trkpt>
      <trkpt lat="45.8121" lon="4.25233">
        <ele>530.291</ele>
        <time>2018-09-24T14:01:18Z</time>
      </trkpt>
      <trkpt lat="45.81207" lon="4.2524">
        <ele>530.699</ele>
        <time>2018-09-24T14:01:23Z</time>
      </trkpt>
      <trkpt lat="45.81203" lon="4.25252">
        <ele>530.323</ele>
        <time>2018-09-24T14:01:29Z</time>
      </trkpt>
      <trkpt lat="45.81201" lon="4.25269">
        <ele>530.117</ele>
        <time>2018-09-24T14:01:35Z</time>
      </trkpt>
      <trkpt lat="45.81199" lon="4.25278">
        <ele>530.103</ele>
        <time>2018-09-24T14:01:41Z</time>
      </trkpt>
      <trkpt lat="45.81198" lon="4.25283">
        <ele>530.153</ele>
        <time>2018-09-24T14:01:46Z</time>
      </trkpt>
      <trkpt lat="45.81194" lon="4.25293">
        <ele>530.198</ele>
        <time>2018-09-24T14:01:51Z</time>
      </trkpt>
      <trkpt lat="45.81192" lon="4.25303">
        <ele>530.221</ele>
        <time>2018-09-24T14:01:57Z</time>
      </trkpt>
      <trkpt lat="45.81193" lon="4.2531">
        <ele>529.914</ele>
        <time>2018-09-24T14:02:03Z</time>
      </trkpt>
      <trkpt lat="45.81193" lon="4.25312">
        <ele>530.513</ele>
        <time>2018-09-24T14:02:08Z</time>
      </trkpt>
      <trkpt lat="45.81191" lon="4.25315">
        <ele>531.034</ele>
        <time>2018-09-24T14:02:14Z</time>
      </trkpt>
      <trkpt lat="45.81188" lon="4.25317">
        <ele>532.817</ele>
        <time>2018-09-24T14:02:20Z</time>
      </trkpt>
      <trkpt lat="45.81187" lon="4.25317">
        <ele>533.795</ele>
        <time>2018-09-24T14:02:25Z</time>
      </trkpt>
      <trkpt lat="45.81186" lon="4.25319">
        <ele>534.519</ele>
        <time>2018-09-24T14:02:31Z</time>
      </trkpt>
      <trkpt lat="45.81184" lon="4.25318">
        <ele>534.794</ele>
        <time>2018-09-24T14:02:37Z</time>
      </trkpt>
      <trkpt lat="45.81185" lon="4.25318">
        <ele>535.331</ele>
        <time>2018-09-24T14:02:42Z</time>
      </trkpt>
      <trkpt lat="45.81184" lon="4.25319">
        <ele>536.209</ele>
        <time>2018-09-24T14:02:48Z</time>
      </trkpt>
      <trkpt lat="45.81183" lon="4.2532">
        <ele>536.775</ele>
        <time>2018-09-24T14:02:54Z</time>
      </trkpt>
      <trkpt lat="45.81184" lon="4.2532">
        <ele>536.985</ele>
        <time>2018-09-24T14:03:00Z</time>
      </trkpt>
      <trkpt lat="45.81184" lon="4.25319">
        <ele>537.135</ele>
        <time>2018-09-24T14:03:05Z</time>
      </trkpt>
      <trkpt lat="45.81185" lon="4.25319">
        <ele>537.985</ele>
        <time>2018-09-24T14:03:10Z</time>
      </trkpt>
      <trkpt lat="45.81186" lon="4.25318">
        <ele>538.225</ele>
        <time>2018-09-24T14:03:16Z</time>
      </trkpt>
      <trkpt lat="45.81184" lon="4.25318">
        <ele>538.423</ele>
        <time>2018-09-24T14:03:21Z</time>
      </trkpt>
      <trkpt lat="45.81184" lon="4.25319">
        <ele>538.863</ele>
        <time>2018-09-24T14:03:26Z</time>
      </trkpt>
      <trkpt lat="45.81185" lon="4.25319">
        <ele>539.353</ele>
        <time>2018-09-24T14:03:32Z</time>
      </trkpt>
      <trkpt lat="45.81185" lon="4.25319">
        <ele>539.506</ele>
        <time>2018-09-24T14:03:37Z</time>
      </trkpt>
      <trkpt lat="45.81185" lon="4.25319">
        <ele>539.718</ele>
        <time>2018-09-24T14:03:43Z</time>
      </trkpt>
      <trkpt lat="45.81185" lon="4.25319">
        <ele>539.915</ele>
        <time>2018-09-24T14:03:48Z</time>
      </trkpt>
      <trkpt lat="45.81182" lon="4.25307">
        <ele>541.99</ele>
        <time>2018-09-24T14:03:54Z</time>
      </trkpt>
      <trkpt lat="45.81182" lon="4.25304">
        <ele>542.786</ele>
        <time>2018-09-24T14:04:00Z</time>
      </trkpt>
      <trkpt lat="45.81182" lon="4.25302">
        <ele>543.54</ele>
        <time>2018-09-24T14:04:06Z</time>
      </trkpt>
      <trkpt lat="45.81182" lon="4.25302">
        <ele>544.445</ele>
        <time>2018-09-24T14:04:12Z</time>
      </trkpt>
      <trkpt lat="45.81182" lon="4.25302">
        <ele>544.518</ele>
        <time>2018-09-24T14:04:17Z</time>
      </trkpt>
      <trkpt lat="45.81182" lon="4.25302">
        <ele>544.382</ele>
        <time>2018-09-24T14:04:23Z</time>
      </trkpt>
      <trkpt lat="45.8118" lon="4.25298">
        <ele>544.997</ele>
        <time>2018-09-24T14:04:28Z</time>
      </trkpt>
      <trkpt lat="45.8118" lon="4.25298">
        <ele>546.292</ele>
        <time>2018-09-24T14:04:34Z</time>
      </trkpt>
      <trkpt lat="45.8118" lon="4.25298">
        <ele>547.432</ele>
        <time>2018-09-24T14:04:40Z</time>
      </trkpt>
      <trkpt lat="45.8118" lon="4.25298">
        <ele>547.868</ele>
        <time>2018-09-24T14:04:45Z</time>
      </trkpt>
      <trkpt lat="45.81181" lon="4.25299">
        <ele>548.675</ele>
        <time>2018-09-24T14:04:50Z</time>
      </trkpt>
      <trkpt lat="45.81181" lon="4.25299">
        <ele>549.036</ele>
        <time>2018-09-24T14:04:56Z</time>
      </trkpt>
      <trkpt lat="45.81181" lon="4.25299">
        <ele>550.061</ele>
        <time>2018-09-24T14:05:01Z</time>
      </trkpt>
      <trkpt lat="45.81183" lon="4.25302">
        <ele>550.518</ele>
        <time>2018-09-24T14:05:06Z</time>
      </trkpt>
      <trkpt lat="45.81183" lon="4.25302">
        <ele>550.395</ele>
        <time>2018-09-24T14:05:12Z</time>
      </trkpt>
      <trkpt lat="45.81183" lon="4.25302">
        <ele>549.997</ele>
        <time>2018-09-24T14:05:17Z</time>
      </trkpt>
      <trkpt lat="45.81183" lon="4.25302">
        <ele>548.202</ele>
        <time>2018-09-24T14:05:23Z</time>
      </trkpt>
      <trkpt lat="45.81185" lon="4.25303">
        <ele>547.066</ele>
        <time>2018-09-24T14:05:28Z</time>
      </trkpt>
      <trkpt lat="45.81185" lon="4.25303">
        <ele>546.899</ele>
        <time>2018-09-24T14:05:34Z</time>
      </trkpt>
      <trkpt lat="45.81185" lon="4.25303">
        <ele>546.865</ele>
        <time>2018-09-24T14:05:39Z</time>
      </trkpt>
      <trkpt lat="45.81185" lon="4.25303">
        <ele>546.74</ele>
        <time>2018-09-24T14:05:45Z</time>
      </trkpt>
      <trkpt lat="45.81185" lon="4.25303">
        <ele>546.574</ele>
        <time>2018-09-24T14:05:51Z</time>
      </trkpt>
      <trkpt lat="45.81185" lon="4.25303">
        <ele>546.409</ele>
        <time>2018-09-24T14:05:56Z</time>
      </trkpt>
      <trkpt lat="45.81185" lon="4.25303">
        <ele>546.241</ele>
        <time>2018-09-24T14:06:02Z</time>
      </trkpt>
      <trkpt lat="45.81185" lon="4.25303">
        <ele>546.168</ele>
        <time>2018-09-24T14:06:08Z</time>
      </trkpt>
      <trkpt lat="45.81185" lon="4.25303">
        <ele>545.938</ele>
        <time>2018-09-24T14:06:14Z</time>
      </trkpt>
      <trkpt lat="45.81185" lon="4.25303">
        <ele>545.826</ele>
        <time>2018-09-24T14:06:20Z</time>
      </trkpt>
      <trkpt lat="45.81185" lon="4.25303">
        <ele>545.556</ele>
        <time>2018-09-24T14:06:25Z</time>
      </trkpt>
      <trkpt lat="45.81185" lon="4.25303">
        <ele>545.327</ele>
        <time>2018-09-24T14:06:31Z</time>
      </trkpt>
      <trkpt lat="45.81185" lon="4.25303">
        <ele>545.309</ele>
        <time>2018-09-24T14:06:37Z</time>
      </trkpt>
      <trkpt lat="45.81185" lon="4.25303">
        <ele>545.112</ele>
        <time>2018-09-24T14:06:43Z</time>
      </trkpt>
      <trkpt lat="45.81185" lon="4.25303">
        <ele>544.669</ele>
        <time>2018-09-24T14:06:49Z</time>
      </trkpt>
      <trkpt lat="45.81185" lon="4.25303">
        <ele>544.538</ele>
        <time>2018-09-24T14:06:54Z</time>
      </trkpt>
      <trkpt lat="45.81185" lon="4.25303">
        <ele>544.408</ele>
        <time>2018-09-24T14:06:59Z</time>
      </trkpt>
      <trkpt lat="45.81185" lon="4.25303">
        <ele>544.372</ele>
        <time>2018-09-24T14:07:05Z</time>
      </trkpt>
      <trkpt lat="45.81184" lon="4.25303">
        <ele>544.385</ele>
        <time>2018-09-24T14:07:10Z</time>
      </trkpt>
      <trkpt lat="45.81184" lon="4.25303">
        <ele>544.517</ele>
        <time>2018-09-24T14:07:16Z</time>
      </trkpt>
      <trkpt lat="45.81184" lon="4.25303">
        <ele>544.497</ele>
        <time>2018-09-24T14:07:21Z</time>
      </trkpt>
      <trkpt lat="45.81184" lon="4.25303">
        <ele>544.353</ele>
        <time>2018-09-24T14:07:26Z</time>
      </trkpt>
      <trkpt lat="45.81184" lon="4.25303">
        <ele>544.243</ele>
        <time>2018-09-24T14:07:32Z</time>
      </trkpt>
      <trkpt lat="45.81184" lon="4.25303">
        <ele>544.279</ele>
        <time>2018-09-24T14:07:37Z</time>
      </trkpt>
      <trkpt lat="45.81184" lon="4.25303">
        <ele>544.381</ele>
        <time>2018-09-24T14:07:43Z</time>
      </trkpt>
      <trkpt lat="45.81184" lon="4.25303">
        <ele>544.477</ele>
        <time>2018-09-24T14:07:48Z</time>
      </trkpt>
      <trkpt lat="45.81184" lon="4.25303">
        <ele>544.648</ele>
        <time>2018-09-24T14:07:54Z</time>
      </trkpt>
      <trkpt lat="45.81185" lon="4.25301">
        <ele>545.029</ele>
        <time>2018-09-24T14:07:59Z</time>
      </trkpt>
      <trkpt lat="45.81185" lon="4.25301">
        <ele>544.707</ele>
        <time>2018-09-24T14:08:05Z</time>
      </trkpt>
      <trkpt lat="45.81185" lon="4.25301">
        <ele>544.012</ele>
        <time>2018-09-24T14:08:11Z</time>
      </trkpt>
      <trkpt lat="45.81185" lon="4.25301">
        <ele>543.884</ele>
        <time>2018-09-24T14:08:16Z</time>
      </trkpt>
      <trkpt lat="45.81185" lon="4.25301">
        <ele>543.68</ele>
        <time>2018-09-24T14:08:22Z</time>
      </trkpt>
      <trkpt lat="45.81185" lon="4.25301">
        <ele>543.079</ele>
        <time>2018-09-24T14:08:28Z</time>
      </trkpt>
      <trkpt lat="45.81186" lon="4.25302">
        <ele>542.181</ele>
        <time>2018-09-24T14:08:34Z</time>
      </trkpt>
      <trkpt lat="45.81186" lon="4.25302">
        <ele>541.869</ele>
        <time>2018-09-24T14:08:40Z</time>
      </trkpt>
      <trkpt lat="45.81186" lon="4.25302">
        <ele>541.748</ele>
        <time>2018-09-24T14:08:45Z</time>
      </trkpt>
      <trkpt lat="45.81186" lon="4.25302">
        <ele>541.645</ele>
        <time>2018-09-24T14:08:51Z</time>
      </trkpt>
      <trkpt lat="45.81186" lon="4.25302">
        <ele>541.593</ele>
        <time>2018-09-24T14:08:56Z</time>
      </trkpt>
      <trkpt lat="45.81186" lon="4.25302">
        <ele>541.553</ele>
        <time>2018-09-24T14:09:02Z</time>
      </trkpt>
      <trkpt lat="45.81186" lon="4.25301">
        <ele>541.53</ele>
        <time>2018-09-24T14:09:08Z</time>
      </trkpt>
      <trkpt lat="45.81186" lon="4.25301">
        <ele>541.465</ele>
        <time>2018-09-24T14:09:13Z</time>
      </trkpt>
      <trkpt lat="45.81186" lon="4.25301">
        <ele>541.418</ele>
        <time>2018-09-24T14:09:19Z</time>
      </trkpt>
      <trkpt lat="45.81186" lon="4.25301">
        <ele>541.477</ele>
        <time>2018-09-24T14:09:24Z</time>
      </trkpt>
      <trkpt lat="45.81186" lon="4.25301">
        <ele>541.729</ele>
        <time>2018-09-24T14:09:30Z</time>
      </trkpt>
      <trkpt lat="45.81184" lon="4.25299">
        <ele>542.927</ele>
        <time>2018-09-24T14:09:36Z</time>
      </trkpt>
      <trkpt lat="45.81184" lon="4.253">
        <ele>543.043</ele>
        <time>2018-09-24T14:09:42Z</time>
      </trkpt>
      <trkpt lat="45.81184" lon="4.253">
        <ele>543.215</ele>
        <time>2018-09-24T14:09:48Z</time>
      </trkpt>
      <trkpt lat="45.81184" lon="4.253">
        <ele>543.368</ele>
        <time>2018-09-24T14:09:53Z</time>
      </trkpt>
      <trkpt lat="45.81184" lon="4.253">
        <ele>543.488</ele>
        <time>2018-09-24T14:09:58Z</time>
      </trkpt>
      <trkpt lat="45.81184" lon="4.253">
        <ele>543.713</ele>
        <time>2018-09-24T14:10:04Z</time>
      </trkpt>
      <trkpt lat="45.81184" lon="4.253">
        <ele>544.225</ele>
        <time>2018-09-24T14:10:09Z</time>
      </trkpt>
      <trkpt lat="45.81184" lon="4.253">
        <ele>544.432</ele>
        <time>2018-09-24T14:10:15Z</time>
      </trkpt>
      <trkpt lat="45.81184" lon="4.253">
        <ele>544.498</ele>
        <time>2018-09-24T14:10:20Z</time>
      </trkpt>
      <trkpt lat="45.81184" lon="4.253">
        <ele>544.534</ele>
        <time>2018-09-24T14:10:26Z</time>
      </trkpt>
      <trkpt lat="45.81184" lon="4.253">
        <ele>544.533</ele>
        <time>2018-09-24T14:10:31Z</time>
      </trkpt>
      <trkpt lat="45.81184" lon="4.253">
        <ele>544.531</ele>
        <time>2018-09-24T14:10:37Z</time>
      </trkpt>
      <trkpt lat="45.81184" lon="4.253">
        <ele>544.509</ele>
        <time>2018-09-24T14:10:43Z</time>
      </trkpt>
      <trkpt lat="45.81184" lon="4.253">
        <ele>544.636</ele>
        <time>2018-09-24T14:10:48Z</time>
      </trkpt>
      <trkpt lat="45.81184" lon="4.25301">
        <ele>545.472</ele>
        <time>2018-09-24T14:10:54Z</time>
      </trkpt>
      <trkpt lat="45.81184" lon="4.25301">
        <ele>545.68</ele>
        <time>2018-09-24T14:11:00Z</time>
      </trkpt>
      <trkpt lat="45.81185" lon="4.25301">
        <ele>545.874</ele>
        <time>2018-09-24T14:11:06Z</time>
      </trkpt>
      <trkpt lat="45.81186" lon="4.25298">
        <ele>547.065</ele>
        <time>2018-09-24T14:11:12Z</time>
      </trkpt>
      <trkpt lat="45.81186" lon="4.25298">
        <ele>548.888</ele>
        <time>2018-09-24T14:11:17Z</time>
      </trkpt>
      <trkpt lat="45.81187" lon="4.25298">
        <ele>550.754</ele>
        <time>2018-09-24T14:11:22Z</time>
      </trkpt>
      <trkpt lat="45.81187" lon="4.25298">
        <ele>551.595</ele>
        <time>2018-09-24T14:11:28Z</time>
      </trkpt>
      <trkpt lat="45.81187" lon="4.25298">
        <ele>552.444</ele>
        <time>2018-09-24T14:11:34Z</time>
      </trkpt>
      <trkpt lat="45.81186" lon="4.25298">
        <ele>554.19</ele>
        <time>2018-09-24T14:11:39Z</time>
      </trkpt>
      <trkpt lat="45.81185" lon="4.25299">
        <ele>554.593</ele>
        <time>2018-09-24T14:11:45Z</time>
      </trkpt>
      <trkpt lat="45.81185" lon="4.25299">
        <ele>554.881</ele>
        <time>2018-09-24T14:11:51Z</time>
      </trkpt>
      <trkpt lat="45.81185" lon="4.25299">
        <ele>555.004</ele>
        <time>2018-09-24T14:11:57Z</time>
      </trkpt>
      <trkpt lat="45.81185" lon="4.25299">
        <ele>555.828</ele>
        <time>2018-09-24T14:12:03Z</time>
      </trkpt>
      <trkpt lat="45.81185" lon="4.25299">
        <ele>555.602</ele>
        <time>2018-09-24T14:12:08Z</time>
      </trkpt>
      <trkpt lat="45.81185" lon="4.25299">
        <ele>555.323</ele>
        <time>2018-09-24T14:12:14Z</time>
      </trkpt>
      <trkpt lat="45.81185" lon="4.25299">
        <ele>555.324</ele>
        <time>2018-09-24T14:12:19Z</time>
      </trkpt>
      <trkpt lat="45.81185" lon="4.25299">
        <ele>555.446</ele>
        <time>2018-09-24T14:12:25Z</time>
      </trkpt>
      <trkpt lat="45.81185" lon="4.25299">
        <ele>554.936</ele>
        <time>2018-09-24T14:12:30Z</time>
      </trkpt>
      <trkpt lat="45.81187" lon="4.253">
        <ele>554.513</ele>
        <time>2018-09-24T14:12:35Z</time>
      </trkpt>
      <trkpt lat="45.81187" lon="4.253">
        <ele>554.383</ele>
        <time>2018-09-24T14:12:41Z</time>
      </trkpt>
      <trkpt lat="45.81187" lon="4.253">
        <ele>554.349</ele>
        <time>2018-09-24T14:12:46Z</time>
      </trkpt>
      <trkpt lat="45.81187" lon="4.253">
        <ele>554.147</ele>
        <time>2018-09-24T14:12:51Z</time>
      </trkpt>
      <trkpt lat="45.81187" lon="4.253">
        <ele>553.736</ele>
        <time>2018-09-24T14:12:57Z</time>
      </trkpt>
      <trkpt lat="45.81187" lon="4.253">
        <ele>553.506</ele>
        <time>2018-09-24T14:13:02Z</time>
      </trkpt>
      <trkpt lat="45.81187" lon="4.253">
        <ele>553.57</ele>
        <time>2018-09-24T14:13:08Z</time>
      </trkpt>
      <trkpt lat="45.81187" lon="4.253">
        <ele>553.612</ele>
        <time>2018-09-24T14:13:14Z</time>
      </trkpt>
      <trkpt lat="45.81187" lon="4.253">
        <ele>553.677</ele>
        <time>2018-09-24T14:13:19Z</time>
      </trkpt>
      <trkpt lat="45.81187" lon="4.253">
        <ele>553.775</ele>
        <time>2018-09-24T14:13:24Z</time>
      </trkpt>
      <trkpt lat="45.81187" lon="4.253">
        <ele>553.829</ele>
        <time>2018-09-24T14:13:30Z</time>
      </trkpt>
      <trkpt lat="45.81187" lon="4.253">
        <ele>553.783</ele>
        <time>2018-09-24T14:13:36Z</time>
      </trkpt>
      <trkpt lat="45.81187" lon="4.253">
        <ele>553.737</ele>
        <time>2018-09-24T14:13:42Z</time>
      </trkpt>
      <trkpt lat="45.81187" lon="4.253">
        <ele>553.673</ele>
        <time>2018-09-24T14:13:48Z</time>
      </trkpt>
      <trkpt lat="45.81187" lon="4.253">
        <ele>553.67</ele>
        <time>2018-09-24T14:13:54Z</time>
      </trkpt>
      <trkpt lat="45.81187" lon="4.253">
        <ele>553.719</ele>
        <time>2018-09-24T14:14:00Z</time>
      </trkpt>
      <trkpt lat="45.81187" lon="4.253">
        <ele>553.994</ele>
        <time>2018-09-24T14:14:06Z</time>
      </trkpt>
      <trkpt lat="45.81188" lon="4.25301">
        <ele>554.187</ele>
        <time>2018-09-24T14:14:12Z</time>
      </trkpt>
      <trkpt lat="45.81188" lon="4.25301">
        <ele>554.216</ele>
        <time>2018-09-24T14:14:17Z</time>
      </trkpt>
      <trkpt lat="45.81188" lon="4.25301">
        <ele>554.101</ele>
        <time>2018-09-24T14:14:22Z</time>
      </trkpt>
      <trkpt lat="45.81189" lon="4.25301">
        <ele>553.956</ele>
        <time>2018-09-24T14:14:28Z</time>
      </trkpt>
      <trkpt lat="45.81189" lon="4.25301">
        <ele>553.838</ele>
        <time>2018-09-24T14:14:34Z</time>
      </trkpt>
      <trkpt lat="45.81189" lon="4.25301">
        <ele>553.686</ele>
        <time>2018-09-24T14:14:40Z</time>
      </trkpt>
      <trkpt lat="45.81189" lon="4.25301">
        <ele>553.175</ele>
        <time>2018-09-24T14:14:46Z</time>
      </trkpt>
      <trkpt lat="45.81189" lon="4.25301">
        <ele>553.036</ele>
        <time>2018-09-24T14:14:52Z</time>
      </trkpt>
      <trkpt lat="45.81189" lon="4.25301">
        <ele>552.996</ele>
        <time>2018-09-24T14:14:58Z</time>
      </trkpt>
      <trkpt lat="45.81189" lon="4.25301">
        <ele>552.834</ele>
        <time>2018-09-24T14:15:04Z</time>
      </trkpt>
      <trkpt lat="45.81189" lon="4.25301">
        <ele>552.551</ele>
        <time>2018-09-24T14:15:10Z</time>
      </trkpt>
      <trkpt lat="45.81189" lon="4.25301">
        <ele>552.249</ele>
        <time>2018-09-24T14:15:16Z</time>
      </trkpt>
      <trkpt lat="45.81189" lon="4.25301">
        <ele>551.902</ele>
        <time>2018-09-24T14:15:22Z</time>
      </trkpt>
      <trkpt lat="45.81189" lon="4.25301">
        <ele>551.655</ele>
        <time>2018-09-24T14:15:28Z</time>
      </trkpt>
      <trkpt lat="45.81189" lon="4.25301">
        <ele>551.436</ele>
        <time>2018-09-24T14:15:34Z</time>
      </trkpt>
      <trkpt lat="45.81189" lon="4.25301">
        <ele>551.324</ele>
        <time>2018-09-24T14:15:40Z</time>
      </trkpt>
      <trkpt lat="45.81189" lon="4.25301">
        <ele>551.105</ele>
        <time>2018-09-24T14:15:46Z</time>
      </trkpt>
      <trkpt lat="45.81189" lon="4.25301">
        <ele>549.914</ele>
        <time>2018-09-24T14:15:52Z</time>
      </trkpt>
      <trkpt lat="45.81189" lon="4.25301">
        <ele>548.721</ele>
        <time>2018-09-24T14:15:58Z</time>
      </trkpt>
      <trkpt lat="45.81189" lon="4.25301">
        <ele>548.329</ele>
        <time>2018-09-24T14:16:04Z</time>
      </trkpt>
      <trkpt lat="45.81189" lon="4.25301">
        <ele>547.806</ele>
        <time>2018-09-24T14:16:10Z</time>
      </trkpt>
      <trkpt lat="45.81189" lon="4.25301">
        <ele>547.559</ele>
        <time>2018-09-24T14:16:16Z</time>
      </trkpt>
      <trkpt lat="45.81189" lon="4.25301">
        <ele>547.515</ele>
        <time>2018-09-24T14:16:22Z</time>
      </trkpt>
      <trkpt lat="45.81189" lon="4.25301">
        <ele>547.669</ele>
        <time>2018-09-24T14:16:28Z</time>
      </trkpt>
      <trkpt lat="45.81189" lon="4.25301">
        <ele>547.842</ele>
        <time>2018-09-24T14:16:34Z</time>
      </trkpt>
      <trkpt lat="45.81189" lon="4.25301">
        <ele>548.012</ele>
        <time>2018-09-24T14:16:40Z</time>
      </trkpt>
      <trkpt lat="45.81189" lon="4.25301">
        <ele>548.213</ele>
        <time>2018-09-24T14:16:46Z</time>
      </trkpt>
      <trkpt lat="45.81189" lon="4.25301">
        <ele>548.508</ele>
        <time>2018-09-24T14:16:52Z</time>
      </trkpt>
      <trkpt lat="45.81189" lon="4.25301">
        <ele>548.69</ele>
        <time>2018-09-24T14:16:57Z</time>
      </trkpt>
      <trkpt lat="45.81189" lon="4.25301">
        <ele>548.841</ele>
        <time>2018-09-24T14:17:03Z</time>
      </trkpt>
      <trkpt lat="45.81189" lon="4.25301">
        <ele>548.945</ele>
        <time>2018-09-24T14:17:08Z</time>
      </trkpt>
      <trkpt lat="45.81189" lon="4.25301">
        <ele>549.016</ele>
        <time>2018-09-24T14:17:13Z</time>
      </trkpt>
      <trkpt lat="45.81188" lon="4.25301">
        <ele>549.259</ele>
        <time>2018-09-24T14:17:19Z</time>
      </trkpt>
      <trkpt lat="45.81186" lon="4.25304">
        <ele>549.87</ele>
        <time>2018-09-24T14:17:25Z</time>
      </trkpt>
      <trkpt lat="45.81183" lon="4.25307">
        <ele>550.076</ele>
        <time>2018-09-24T14:17:31Z</time>
      </trkpt>
      <trkpt lat="45.8118" lon="4.25308">
        <ele>550.196</ele>
        <time>2018-09-24T14:17:37Z</time>
      </trkpt>
      <trkpt lat="45.8118" lon="4.25308">
        <ele>550.263</ele>
        <time>2018-09-24T14:17:42Z</time>
      </trkpt>
      <trkpt lat="45.81178" lon="4.25309">
        <ele>550.439</ele>
        <time>2018-09-24T14:17:48Z</time>
      </trkpt>
      <trkpt lat="45.81176" lon="4.25313">
        <ele>550.141</ele>
        <time>2018-09-24T14:17:54Z</time>
      </trkpt>
      <trkpt lat="45.81173" lon="4.25316">
        <ele>550.5</ele>
        <time>2018-09-24T14:18:00Z</time>
      </trkpt>
      <trkpt lat="45.81172" lon="4.25316">
        <ele>550.979</ele>
        <time>2018-09-24T14:18:06Z</time>
      </trkpt>
      <trkpt lat="45.81168" lon="4.2532">
        <ele>551.491</ele>
        <time>2018-09-24T14:18:12Z</time>
      </trkpt>
      <trkpt lat="45.81164" lon="4.25322">
        <ele>552.187</ele>
        <time>2018-09-24T14:18:18Z</time>
      </trkpt>
      <trkpt lat="45.81162" lon="4.25324">
        <ele>552.893</ele>
        <time>2018-09-24T14:18:23Z</time>
      </trkpt>
      <trkpt lat="45.81159" lon="4.25324">
        <ele>552.852</ele>
        <time>2018-09-24T14:18:29Z</time>
      </trkpt>
      <trkpt lat="45.81156" lon="4.25327">
        <ele>552.523</ele>
        <time>2018-09-24T14:18:35Z</time>
      </trkpt>
      <trkpt lat="45.81156" lon="4.25327">
        <ele>552.254</ele>
        <time>2018-09-24T14:18:40Z</time>
      </trkpt>
      <trkpt lat="45.81145" lon="4.25335">
        <ele>551.963</ele>
        <time>2018-09-24T14:18:46Z</time>
      </trkpt>
      <trkpt lat="45.81137" lon="4.25343">
        <ele>551.282</ele>
        <time>2018-09-24T14:18:51Z</time>
      </trkpt>
      <trkpt lat="45.81128" lon="4.25352">
        <ele>550.694</ele>
        <time>2018-09-24T14:18:57Z</time>
      </trkpt>
      <trkpt lat="45.81122" lon="4.25353">
        <ele>549.908</ele>
        <time>2018-09-24T14:19:03Z</time>
      </trkpt>
      <trkpt lat="45.81117" lon="4.25357">
        <ele>549.285</ele>
        <time>2018-09-24T14:19:08Z</time>
      </trkpt>
      <trkpt lat="45.81115" lon="4.25357">
        <ele>548.89</ele>
        <time>2018-09-24T14:19:14Z</time>
      </trkpt>
      <trkpt lat="45.81112" lon="4.2536">
        <ele>548.365</ele>
        <time>2018-09-24T14:19:20Z</time>
      </trkpt>
      <trkpt lat="45.8111" lon="4.25364">
        <ele>547.721</ele>
        <time>2018-09-24T14:19:25Z</time>
      </trkpt>
      <trkpt lat="45.81106" lon="4.25367">
        <ele>547.172</ele>
        <time>2018-09-24T14:19:30Z</time>
      </trkpt>
      <trkpt lat="45.81103" lon="4.2537">
        <ele>546.493</ele>
        <time>2018-09-24T14:19:36Z</time>
      </trkpt>
      <trkpt lat="45.81097" lon="4.25373">
        <ele>546.31</ele>
        <time>2018-09-24T14:19:41Z</time>
      </trkpt>
      <trkpt lat="45.8109" lon="4.25367">
        <ele>546.641</ele>
        <time>2018-09-24T14:19:47Z</time>
      </trkpt>
      <trkpt lat="45.81085" lon="4.25361">
        <ele>547.311</ele>
        <time>2018-09-24T14:19:53Z</time>
      </trkpt>
      <trkpt lat="45.81078" lon="4.25353">
        <ele>548.326</ele>
        <time>2018-09-24T14:19:59Z</time>
      </trkpt>
      <trkpt lat="45.81076" lon="4.25347">
        <ele>549.42</ele>
        <time>2018-09-24T14:20:05Z</time>
      </trkpt>
      <trkpt lat="45.81073" lon="4.25342">
        <ele>550.187</ele>
        <time>2018-09-24T14:20:10Z</time>
      </trkpt>
      <trkpt lat="45.8107" lon="4.25337">
        <ele>551.042</ele>
        <time>2018-09-24T14:20:16Z</time>
      </trkpt>
      <trkpt lat="45.81069" lon="4.25331">
        <ele>551.544</ele>
        <time>2018-09-24T14:20:21Z</time>
      </trkpt>
      <trkpt lat="45.81067" lon="4.25324">
        <ele>551.949</ele>
        <time>2018-09-24T14:20:27Z</time>
      </trkpt>
      <trkpt lat="45.81066" lon="4.25319">
        <ele>552.041</ele>
        <time>2018-09-24T14:20:32Z</time>
      </trkpt>
      <trkpt lat="45.81065" lon="4.25311">
        <ele>551.95</ele>
        <time>2018-09-24T14:20:38Z</time>
      </trkpt>
      <trkpt lat="45.81062" lon="4.25305">
        <ele>551.672</ele>
        <time>2018-09-24T14:20:43Z</time>
      </trkpt>
      <trkpt lat="45.81058" lon="4.25299">
        <ele>551.496</ele>
        <time>2018-09-24T14:20:49Z</time>
      </trkpt>
      <trkpt lat="45.81054" lon="4.25287">
        <ele>551.142</ele>
        <time>2018-09-24T14:20:55Z</time>
      </trkpt>
      <trkpt lat="45.8105" lon="4.2528">
        <ele>550.836</ele>
        <time>2018-09-24T14:21:01Z</time>
      </trkpt>
      <trkpt lat="45.81048" lon="4.2527">
        <ele>550.845</ele>
        <time>2018-09-24T14:21:07Z</time>
      </trkpt>
      <trkpt lat="45.81043" lon="4.25261">
        <ele>551.068</ele>
        <time>2018-09-24T14:21:13Z</time>
      </trkpt>
      <trkpt lat="45.81042" lon="4.25254">
        <ele>551.055</ele>
        <time>2018-09-24T14:21:19Z</time>
      </trkpt>
      <trkpt lat="45.81041" lon="4.25247">
        <ele>550.83</ele>
        <time>2018-09-24T14:21:24Z</time>
      </trkpt>
      <trkpt lat="45.8104" lon="4.25242">
        <ele>551.002</ele>
        <time>2018-09-24T14:21:30Z</time>
      </trkpt>
      <trkpt lat="45.81039" lon="4.25235">
        <ele>551.277</ele>
        <time>2018-09-24T14:21:35Z</time>
      </trkpt>
      <trkpt lat="45.81036" lon="4.25223">
        <ele>551.641</ele>
        <time>2018-09-24T14:21:41Z</time>
      </trkpt>
      <trkpt lat="45.81032" lon="4.25219">
        <ele>551.733</ele>
        <time>2018-09-24T14:21:46Z</time>
      </trkpt>
      <trkpt lat="45.8103" lon="4.25213">
        <ele>551.742</ele>
        <time>2018-09-24T14:21:52Z</time>
      </trkpt>
      <trkpt lat="45.81028" lon="4.25207">
        <ele>551.756</ele>
        <time>2018-09-24T14:21:57Z</time>
      </trkpt>
      <trkpt lat="45.81026" lon="4.25201">
        <ele>551.967</ele>
        <time>2018-09-24T14:22:02Z</time>
      </trkpt>
      <trkpt lat="45.8102" lon="4.25195">
        <ele>552.363</ele>
        <time>2018-09-24T14:22:08Z</time>
      </trkpt>
      <trkpt lat="45.81016" lon="4.25192">
        <ele>552.951</ele>
        <time>2018-09-24T14:22:14Z</time>
      </trkpt>
      <trkpt lat="45.81012" lon="4.25188">
        <ele>553.563</ele>
        <time>2018-09-24T14:22:20Z</time>
      </trkpt>
      <trkpt lat="45.81004" lon="4.2518">
        <ele>554.459</ele>
        <time>2018-09-24T14:22:26Z</time>
      </trkpt>
      <trkpt lat="45.80999" lon="4.25174">
        <ele>554.532</ele>
        <time>2018-09-24T14:22:32Z</time>
      </trkpt>
      <trkpt lat="45.80995" lon="4.25168">
        <ele>554.589</ele>
        <time>2018-09-24T14:22:37Z</time>
      </trkpt>
      <trkpt lat="45.80992" lon="4.25157">
        <ele>554.619</ele>
        <time>2018-09-24T14:22:43Z</time>
      </trkpt>
      <trkpt lat="45.80988" lon="4.25147">
        <ele>554.321</ele>
        <time>2018-09-24T14:22:49Z</time>
      </trkpt>
      <trkpt lat="45.80985" lon="4.2514">
        <ele>553.819</ele>
        <time>2018-09-24T14:22:54Z</time>
      </trkpt>
      <trkpt lat="45.80982" lon="4.25132">
        <ele>553.677</ele>
        <time>2018-09-24T14:23:00Z</time>
      </trkpt>
      <trkpt lat="45.80977" lon="4.25125">
        <ele>553.262</ele>
        <time>2018-09-24T14:23:06Z</time>
      </trkpt>
      <trkpt lat="45.80972" lon="4.25116">
        <ele>552.593</ele>
        <time>2018-09-24T14:23:12Z</time>
      </trkpt>
      <trkpt lat="45.8097" lon="4.25109">
        <ele>551.596</ele>
        <time>2018-09-24T14:23:18Z</time>
      </trkpt>
      <trkpt lat="45.80967" lon="4.25103">
        <ele>550.772</ele>
        <time>2018-09-24T14:23:24Z</time>
      </trkpt>
      <trkpt lat="45.80962" lon="4.2509">
        <ele>550.035</ele>
        <time>2018-09-24T14:23:30Z</time>
      </trkpt>
      <trkpt lat="45.80959" lon="4.25083">
        <ele>549.151</ele>
        <time>2018-09-24T14:23:36Z</time>
      </trkpt>
      <trkpt lat="45.80954" lon="4.25076">
        <ele>548.712</ele>
        <time>2018-09-24T14:23:42Z</time>
      </trkpt>
      <trkpt lat="45.80953" lon="4.25071">
        <ele>548.233</ele>
        <time>2018-09-24T14:23:47Z</time>
      </trkpt>
      <trkpt lat="45.80948" lon="4.25063">
        <ele>547.789</ele>
        <time>2018-09-24T14:23:53Z</time>
      </trkpt>
      <trkpt lat="45.80943" lon="4.25058">
        <ele>547.713</ele>
        <time>2018-09-24T14:23:58Z</time>
      </trkpt>
      <trkpt lat="45.80938" lon="4.25054">
        <ele>547.568</ele>
        <time>2018-09-24T14:24:03Z</time>
      </trkpt>
      <trkpt lat="45.80932" lon="4.2505">
        <ele>547.217</ele>
        <time>2018-09-24T14:24:08Z</time>
      </trkpt>
      <trkpt lat="45.80927" lon="4.25047">
        <ele>546.874</ele>
        <time>2018-09-24T14:24:14Z</time>
      </trkpt>
      <trkpt lat="45.80923" lon="4.25045">
        <ele>546.54</ele>
        <time>2018-09-24T14:24:19Z</time>
      </trkpt>
      <trkpt lat="45.80915" lon="4.25044">
        <ele>546.061</ele>
        <time>2018-09-24T14:24:25Z</time>
      </trkpt>
      <trkpt lat="45.80912" lon="4.25042">
        <ele>545.865</ele>
        <time>2018-09-24T14:24:30Z</time>
      </trkpt>
      <trkpt lat="45.80909" lon="4.25043">
        <ele>545.423</ele>
        <time>2018-09-24T14:24:35Z</time>
      </trkpt>
      <trkpt lat="45.80903" lon="4.25042">
        <ele>545.091</ele>
        <time>2018-09-24T14:24:41Z</time>
      </trkpt>
      <trkpt lat="45.80895" lon="4.25039">
        <ele>544.756</ele>
        <time>2018-09-24T14:24:47Z</time>
      </trkpt>
      <trkpt lat="45.80887" lon="4.25038">
        <ele>544.198</ele>
        <time>2018-09-24T14:24:53Z</time>
      </trkpt>
      <trkpt lat="45.80881" lon="4.25036">
        <ele>543.85</ele>
        <time>2018-09-24T14:24:59Z</time>
      </trkpt>
      <trkpt lat="45.80873" lon="4.25033">
        <ele>543.626</ele>
        <time>2018-09-24T14:25:05Z</time>
      </trkpt>
      <trkpt lat="45.80867" lon="4.2503">
        <ele>543.502</ele>
        <time>2018-09-24T14:25:11Z</time>
      </trkpt>
      <trkpt lat="45.8086" lon="4.25031">
        <ele>543.641</ele>
        <time>2018-09-24T14:25:17Z</time>
      </trkpt>
      <trkpt lat="45.80856" lon="4.25029">
        <ele>543.575</ele>
        <time>2018-09-24T14:25:22Z</time>
      </trkpt>
      <trkpt lat="45.80852" lon="4.25028">
        <ele>543.088</ele>
        <time>2018-09-24T14:25:28Z</time>
      </trkpt>
      <trkpt lat="45.80848" lon="4.25026">
        <ele>542.613</ele>
        <time>2018-09-24T14:25:33Z</time>
      </trkpt>
      <trkpt lat="45.80846" lon="4.25024">
        <ele>542.425</ele>
        <time>2018-09-24T14:25:38Z</time>
      </trkpt>
      <trkpt lat="45.80841" lon="4.2502">
        <ele>542.278</ele>
        <time>2018-09-24T14:25:44Z</time>
      </trkpt>
      <trkpt lat="45.80837" lon="4.25016">
        <ele>542.092</ele>
        <time>2018-09-24T14:25:49Z</time>
      </trkpt>
      <trkpt lat="45.80833" lon="4.25014">
        <ele>541.56</ele>
        <time>2018-09-24T14:25:55Z</time>
      </trkpt>
      <trkpt lat="45.80828" lon="4.25012">
        <ele>540.936</ele>
        <time>2018-09-24T14:26:00Z</time>
      </trkpt>
      <trkpt lat="45.80823" lon="4.25007">
        <ele>540.331</ele>
        <time>2018-09-24T14:26:06Z</time>
      </trkpt>
      <trkpt lat="45.80818" lon="4.25">
        <ele>540.015</ele>
        <time>2018-09-24T14:26:12Z</time>
      </trkpt>
      <trkpt lat="45.80814" lon="4.24994">
        <ele>539.82</ele>
        <time>2018-09-24T14:26:18Z</time>
      </trkpt>
      <trkpt lat="45.80811" lon="4.24989">
        <ele>540.143</ele>
        <time>2018-09-24T14:26:23Z</time>
      </trkpt>
      <trkpt lat="45.80807" lon="4.24985">
        <ele>540.291</ele>
        <time>2018-09-24T14:26:28Z</time>
      </trkpt>
      <trkpt lat="45.80801" lon="4.24981">
        <ele>540.105</ele>
        <time>2018-09-24T14:26:34Z</time>
      </trkpt>
      <trkpt lat="45.80798" lon="4.24979">
        <ele>539.895</ele>
        <time>2018-09-24T14:26:39Z</time>
      </trkpt>
      <trkpt lat="45.80792" lon="4.24975">
        <ele>539.527</ele>
        <time>2018-09-24T14:26:44Z</time>
      </trkpt>
      <trkpt lat="45.80788" lon="4.24974">
        <ele>539.305</ele>
        <time>2018-09-24T14:26:49Z</time>
      </trkpt>
      <trkpt lat="45.80783" lon="4.24971">
        <ele>538.796</ele>
        <time>2018-09-24T14:26:55Z</time>
      </trkpt>
      <trkpt lat="45.8078" lon="4.2497">
        <ele>538.411</ele>
        <time>2018-09-24T14:27:00Z</time>
      </trkpt>
      <trkpt lat="45.80778" lon="4.24966">
        <ele>537.965</ele>
        <time>2018-09-24T14:27:05Z</time>
      </trkpt>
      <trkpt lat="45.80772" lon="4.24964">
        <ele>537.032</ele>
        <time>2018-09-24T14:27:11Z</time>
      </trkpt>
      <trkpt lat="45.80768" lon="4.24964">
        <ele>535.667</ele>
        <time>2018-09-24T14:27:17Z</time>
      </trkpt>
      <trkpt lat="45.80764" lon="4.24962">
        <ele>534.845</ele>
        <time>2018-09-24T14:27:22Z</time>
      </trkpt>
      <trkpt lat="45.80759" lon="4.2496">
        <ele>534.108</ele>
        <time>2018-09-24T14:27:28Z</time>
      </trkpt>
      <trkpt lat="45.80755" lon="4.24957">
        <ele>533.561</ele>
        <time>2018-09-24T14:27:33Z</time>
      </trkpt>
      <trkpt lat="45.80748" lon="4.24956">
        <ele>533.162</ele>
        <time>2018-09-24T14:27:39Z</time>
      </trkpt>
      <trkpt lat="45.80744" lon="4.24956">
        <ele>532.647</ele>
        <time>2018-09-24T14:27:45Z</time>
      </trkpt>
      <trkpt lat="45.80739" lon="4.24958">
        <ele>532.292</ele>
        <time>2018-09-24T14:27:50Z</time>
      </trkpt>
      <trkpt lat="45.80731" lon="4.2496">
        <ele>531.727</ele>
        <time>2018-09-24T14:27:56Z</time>
      </trkpt>
      <trkpt lat="45.80726" lon="4.24962">
        <ele>531.228</ele>
        <time>2018-09-24T14:28:01Z</time>
      </trkpt>
      <trkpt lat="45.80721" lon="4.2496">
        <ele>530.641</ele>
        <time>2018-09-24T14:28:07Z</time>
      </trkpt>
      <trkpt lat="45.80714" lon="4.24962">
        <ele>529.78</ele>
        <time>2018-09-24T14:28:12Z</time>
      </trkpt>
      <trkpt lat="45.80708" lon="4.24963">
        <ele>529.082</ele>
        <time>2018-09-24T14:28:17Z</time>
      </trkpt>
      <trkpt lat="45.80701" lon="4.24969">
        <ele>528.475</ele>
        <time>2018-09-24T14:28:23Z</time>
      </trkpt>
      <trkpt lat="45.80694" lon="4.24972">
        <ele>527.894</ele>
        <time>2018-09-24T14:28:29Z</time>
      </trkpt>
      <trkpt lat="45.80685" lon="4.24976">
        <ele>527.271</ele>
        <time>2018-09-24T14:28:35Z</time>
      </trkpt>
      <trkpt lat="45.80679" lon="4.2498">
        <ele>526.333</ele>
        <time>2018-09-24T14:28:40Z</time>
      </trkpt>
      <trkpt lat="45.8067" lon="4.24984">
        <ele>524.866</ele>
        <time>2018-09-24T14:28:46Z</time>
      </trkpt>
      <trkpt lat="45.80664" lon="4.24986">
        <ele>524.136</ele>
        <time>2018-09-24T14:28:52Z</time>
      </trkpt>
      <trkpt lat="45.80659" lon="4.24987">
        <ele>523.12</ele>
        <time>2018-09-24T14:28:57Z</time>
      </trkpt>
      <trkpt lat="45.80651" lon="4.24985">
        <ele>521.983</ele>
        <time>2018-09-24T14:29:03Z</time>
      </trkpt>
      <trkpt lat="45.80644" lon="4.24984">
        <ele>520.789</ele>
        <time>2018-09-24T14:29:08Z</time>
      </trkpt>
      <trkpt lat="45.80637" lon="4.24983">
        <ele>520.076</ele>
        <time>2018-09-24T14:29:13Z</time>
      </trkpt>
      <trkpt lat="45.80629" lon="4.24982">
        <ele>519.601</ele>
        <time>2018-09-24T14:29:19Z</time>
      </trkpt>
      <trkpt lat="45.80623" lon="4.24983">
        <ele>518.981</ele>
        <time>2018-09-24T14:29:24Z</time>
      </trkpt>
      <trkpt lat="45.80616" lon="4.24981">
        <ele>518.617</ele>
        <time>2018-09-24T14:29:30Z</time>
      </trkpt>
      <trkpt lat="45.80607" lon="4.24978">
        <ele>517.766</ele>
        <time>2018-09-24T14:29:36Z</time>
      </trkpt>
      <trkpt lat="45.80597" lon="4.24974">
        <ele>516.917</ele>
        <time>2018-09-24T14:29:42Z</time>
      </trkpt>
      <trkpt lat="45.80591" lon="4.24973">
        <ele>516.259</ele>
        <time>2018-09-24T14:29:48Z</time>
      </trkpt>
      <trkpt lat="45.80584" lon="4.24972">
        <ele>515.524</ele>
        <time>2018-09-24T14:29:54Z</time>
      </trkpt>
      <trkpt lat="45.80578" lon="4.2497">
        <ele>515.438</ele>
        <time>2018-09-24T14:30:00Z</time>
      </trkpt>
      <trkpt lat="45.80569" lon="4.24967">
        <ele>514.726</ele>
        <time>2018-09-24T14:30:06Z</time>
      </trkpt>
      <trkpt lat="45.80562" lon="4.24966">
        <ele>514.342</ele>
        <time>2018-09-24T14:30:12Z</time>
      </trkpt>
      <trkpt lat="45.80557" lon="4.24964">
        <ele>514.39</ele>
        <time>2018-09-24T14:30:18Z</time>
      </trkpt>
      <trkpt lat="45.80549" lon="4.24961">
        <ele>514.347</ele>
        <time>2018-09-24T14:30:23Z</time>
      </trkpt>
      <trkpt lat="45.80544" lon="4.24956">
        <ele>514.495</ele>
        <time>2018-09-24T14:30:29Z</time>
      </trkpt>
      <trkpt lat="45.80537" lon="4.2495">
        <ele>514.509</ele>
        <time>2018-09-24T14:30:34Z</time>
      </trkpt>
      <trkpt lat="45.8053" lon="4.24941">
        <ele>515.03</ele>
        <time>2018-09-24T14:30:40Z</time>
      </trkpt>
      <trkpt lat="45.80524" lon="4.24935">
        <ele>515.282</ele>
        <time>2018-09-24T14:30:45Z</time>
      </trkpt>
      <trkpt lat="45.8052" lon="4.24933">
        <ele>515.405</ele>
        <time>2018-09-24T14:30:50Z</time>
      </trkpt>
      <trkpt lat="45.80515" lon="4.24926">
        <ele>515.392</ele>
        <time>2018-09-24T14:30:56Z</time>
      </trkpt>
      <trkpt lat="45.80511" lon="4.24919">
        <ele>515.717</ele>
        <time>2018-09-24T14:31:01Z</time>
      </trkpt>
      <trkpt lat="45.80508" lon="4.24915">
        <ele>516.1</ele>
        <time>2018-09-24T14:31:07Z</time>
      </trkpt>
      <trkpt lat="45.80502" lon="4.24909">
        <ele>516.157</ele>
        <time>2018-09-24T14:31:13Z</time>
      </trkpt>
      <trkpt lat="45.80499" lon="4.24905">
        <ele>516.425</ele>
        <time>2018-09-24T14:31:19Z</time>
      </trkpt>
      <trkpt lat="45.80501" lon="4.24905">
        <ele>516.219</ele>
        <time>2018-09-24T14:31:26Z</time>
      </trkpt>
      <trkpt lat="45.80503" lon="4.24904">
        <ele>516.216</ele>
        <time>2018-09-24T14:31:32Z</time>
      </trkpt>
      <trkpt lat="45.80501" lon="4.24906">
        <ele>516.01</ele>
        <time>2018-09-24T14:31:38Z</time>
      </trkpt>
      <trkpt lat="45.805" lon="4.24907">
        <ele>515.586</ele>
        <time>2018-09-24T14:31:44Z</time>
      </trkpt>
      <trkpt lat="45.805" lon="4.24908">
        <ele>515.29</ele>
        <time>2018-09-24T14:31:49Z</time>
      </trkpt>
      <trkpt lat="45.80501" lon="4.24907">
        <ele>515.388</ele>
        <time>2018-09-24T14:31:55Z</time>
      </trkpt>
      <trkpt lat="45.80501" lon="4.24905">
        <ele>515.28</ele>
        <time>2018-09-24T14:32:01Z</time>
      </trkpt>
      <trkpt lat="45.80502" lon="4.24906">
        <ele>515.192</ele>
        <time>2018-09-24T14:32:06Z</time>
      </trkpt>
      <trkpt lat="45.805" lon="4.24907">
        <ele>515.188</ele>
        <time>2018-09-24T14:32:12Z</time>
      </trkpt>
      <trkpt lat="45.805" lon="4.24908">
        <ele>514.898</ele>
        <time>2018-09-24T14:32:17Z</time>
      </trkpt>
      <trkpt lat="45.80501" lon="4.24909">
        <ele>514.571</ele>
        <time>2018-09-24T14:32:23Z</time>
      </trkpt>
      <trkpt lat="45.805" lon="4.24909">
        <ele>514.56</ele>
        <time>2018-09-24T14:32:29Z</time>
      </trkpt>
      <trkpt lat="45.80498" lon="4.24909">
        <ele>514.764</ele>
        <time>2018-09-24T14:32:34Z</time>
      </trkpt>
      <trkpt lat="45.80495" lon="4.24908">
        <ele>514.913</ele>
        <time>2018-09-24T14:32:40Z</time>
      </trkpt>
      <trkpt lat="45.80492" lon="4.24904">
        <ele>515.107</ele>
        <time>2018-09-24T14:32:45Z</time>
      </trkpt>
      <trkpt lat="45.80487" lon="4.24902">
        <ele>515.343</ele>
        <time>2018-09-24T14:32:51Z</time>
      </trkpt>
      <trkpt lat="45.80479" lon="4.249">
        <ele>515.403</ele>
        <time>2018-09-24T14:32:57Z</time>
      </trkpt>
      <trkpt lat="45.80474" lon="4.24901">
        <ele>515.721</ele>
        <time>2018-09-24T14:33:02Z</time>
      </trkpt>
      <trkpt lat="45.8047" lon="4.24902">
        <ele>515.851</ele>
        <time>2018-09-24T14:33:07Z</time>
      </trkpt>
      <trkpt lat="45.80464" lon="4.24903">
        <ele>516.015</ele>
        <time>2018-09-24T14:33:13Z</time>
      </trkpt>
      <trkpt lat="45.80458" lon="4.24905">
        <ele>516.592</ele>
        <time>2018-09-24T14:33:18Z</time>
      </trkpt>
      <trkpt lat="45.80455" lon="4.24907">
        <ele>516.849</ele>
        <time>2018-09-24T14:33:24Z</time>
      </trkpt>
      <trkpt lat="45.80447" lon="4.24911">
        <ele>516.72</ele>
        <time>2018-09-24T14:33:30Z</time>
      </trkpt>
      <trkpt lat="45.80441" lon="4.2492">
        <ele>516.605</ele>
        <time>2018-09-24T14:33:35Z</time>
      </trkpt>
      <trkpt lat="45.80438" lon="4.24926">
        <ele>516.234</ele>
        <time>2018-09-24T14:33:40Z</time>
      </trkpt>
      <trkpt lat="45.80436" lon="4.24931">
        <ele>515.515</ele>
        <time>2018-09-24T14:33:46Z</time>
      </trkpt>
      <trkpt lat="45.80433" lon="4.24936">
        <ele>515.278</ele>
        <time>2018-09-24T14:33:51Z</time>
      </trkpt>
      <trkpt lat="45.80432" lon="4.24938">
        <ele>514.904</ele>
        <time>2018-09-24T14:33:56Z</time>
      </trkpt>
      <trkpt lat="45.8043" lon="4.24943">
        <ele>514.086</ele>
        <time>2018-09-24T14:34:02Z</time>
      </trkpt>
      <trkpt lat="45.80428" lon="4.24949">
        <ele>514.113</ele>
        <time>2018-09-24T14:34:07Z</time>
      </trkpt>
      <trkpt lat="45.80425" lon="4.24952">
        <ele>514.24</ele>
        <time>2018-09-24T14:34:13Z</time>
      </trkpt>
      <trkpt lat="45.80422" lon="4.24956">
        <ele>514.243</ele>
        <time>2018-09-24T14:34:19Z</time>
      </trkpt>
      <trkpt lat="45.80416" lon="4.24959">
        <ele>514.234</ele>
        <time>2018-09-24T14:34:24Z</time>
      </trkpt>
      <trkpt lat="45.80411" lon="4.24958">
        <ele>514.38</ele>
        <time>2018-09-24T14:34:30Z</time>
      </trkpt>
      <trkpt lat="45.80405" lon="4.24956">
        <ele>514.089</ele>
        <time>2018-09-24T14:34:35Z</time>
      </trkpt>
      <trkpt lat="45.804" lon="4.24954">
        <ele>513.818</ele>
        <time>2018-09-24T14:34:40Z</time>
      </trkpt>
      <trkpt lat="45.80393" lon="4.24951">
        <ele>513.459</ele>
        <time>2018-09-24T14:34:46Z</time>
      </trkpt>
      <trkpt lat="45.80385" lon="4.24949">
        <ele>512.532</ele>
        <time>2018-09-24T14:34:52Z</time>
      </trkpt>
      <trkpt lat="45.80381" lon="4.24949">
        <ele>511.841</ele>
        <time>2018-09-24T14:34:57Z</time>
      </trkpt>
      <trkpt lat="45.80375" lon="4.24948">
        <ele>511.15</ele>
        <time>2018-09-24T14:35:03Z</time>
      </trkpt>
      <trkpt lat="45.80369" lon="4.24948">
        <ele>509.818</ele>
        <time>2018-09-24T14:35:09Z</time>
      </trkpt>
      <trkpt lat="45.80362" lon="4.24948">
        <ele>509.108</ele>
        <time>2018-09-24T14:35:14Z</time>
      </trkpt>
      <trkpt lat="45.80356" lon="4.24947">
        <ele>508.894</ele>
        <time>2018-09-24T14:35:20Z</time>
      </trkpt>
      <trkpt lat="45.8035" lon="4.24943">
        <ele>508.945</ele>
        <time>2018-09-24T14:35:25Z</time>
      </trkpt>
      <trkpt lat="45.80342" lon="4.24943">
        <ele>509.017</ele>
        <time>2018-09-24T14:35:31Z</time>
      </trkpt>
      <trkpt lat="45.80338" lon="4.24943">
        <ele>509.515</ele>
        <time>2018-09-24T14:35:36Z</time>
      </trkpt>
      <trkpt lat="45.80332" lon="4.24943">
        <ele>509.556</ele>
        <time>2018-09-24T14:35:42Z</time>
      </trkpt>
      <trkpt lat="45.80326" lon="4.24942">
        <ele>509.783</ele>
        <time>2018-09-24T14:35:48Z</time>
      </trkpt>
      <trkpt lat="45.80317" lon="4.24942">
        <ele>509.971</ele>
        <time>2018-09-24T14:35:54Z</time>
      </trkpt>
      <trkpt lat="45.8031" lon="4.24943">
        <ele>509.352</ele>
        <time>2018-09-24T14:36:00Z</time>
      </trkpt>
      <trkpt lat="45.803" lon="4.24944">
        <ele>508.723</ele>
        <time>2018-09-24T14:36:06Z</time>
      </trkpt>
      <trkpt lat="45.80291" lon="4.24948">
        <ele>508.496</ele>
        <time>2018-09-24T14:36:12Z</time>
      </trkpt>
      <trkpt lat="45.80283" lon="4.24945">
        <ele>508.426</ele>
        <time>2018-09-24T14:36:17Z</time>
      </trkpt>
      <trkpt lat="45.80276" lon="4.24946">
        <ele>508.533</ele>
        <time>2018-09-24T14:36:22Z</time>
      </trkpt>
      <trkpt lat="45.8027" lon="4.24944">
        <ele>509.05</ele>
        <time>2018-09-24T14:36:27Z</time>
      </trkpt>
      <trkpt lat="45.80263" lon="4.24943">
        <ele>509.902</ele>
        <time>2018-09-24T14:36:33Z</time>
      </trkpt>
      <trkpt lat="45.80257" lon="4.24939">
        <ele>510.442</ele>
        <time>2018-09-24T14:36:39Z</time>
      </trkpt>
      <trkpt lat="45.80251" lon="4.24936">
        <ele>510.505</ele>
        <time>2018-09-24T14:36:44Z</time>
      </trkpt>
      <trkpt lat="45.80244" lon="4.24931">
        <ele>510.534</ele>
        <time>2018-09-24T14:36:49Z</time>
      </trkpt>
      <trkpt lat="45.80239" lon="4.24929">
        <ele>510.56</ele>
        <time>2018-09-24T14:36:54Z</time>
      </trkpt>
      <trkpt lat="45.80233" lon="4.24925">
        <ele>510.412</ele>
        <time>2018-09-24T14:36:59Z</time>
      </trkpt>
      <trkpt lat="45.80226" lon="4.24919">
        <ele>510.271</ele>
        <time>2018-09-24T14:37:05Z</time>
      </trkpt>
      <trkpt lat="45.80219" lon="4.24913">
        <ele>510.52</ele>
        <time>2018-09-24T14:37:11Z</time>
      </trkpt>
      <trkpt lat="45.80211" lon="4.24908">
        <ele>510.313</ele>
        <time>2018-09-24T14:37:17Z</time>
      </trkpt>
      <trkpt lat="45.80205" lon="4.24903">
        <ele>509.938</ele>
        <time>2018-09-24T14:37:23Z</time>
      </trkpt>
      <trkpt lat="45.80198" lon="4.24899">
        <ele>509.937</ele>
        <time>2018-09-24T14:37:28Z</time>
      </trkpt>
      <trkpt lat="45.80192" lon="4.24895">
        <ele>509.886</ele>
        <time>2018-09-24T14:37:34Z</time>
      </trkpt>
      <trkpt lat="45.80184" lon="4.24891">
        <ele>509.805</ele>
        <time>2018-09-24T14:37:41Z</time>
      </trkpt>
      <trkpt lat="45.80179" lon="4.24886">
        <ele>509.726</ele>
        <time>2018-09-24T14:37:46Z</time>
      </trkpt>
      <trkpt lat="45.80181" lon="4.24884">
        <ele>509.283</ele>
        <time>2018-09-24T14:37:52Z</time>
      </trkpt>
      <trkpt lat="45.80172" lon="4.2488">
        <ele>508.898</ele>
        <time>2018-09-24T14:37:58Z</time>
      </trkpt>
      <trkpt lat="45.80164" lon="4.24873">
        <ele>508.102</ele>
        <time>2018-09-24T14:38:04Z</time>
      </trkpt>
      <trkpt lat="45.80159" lon="4.2487">
        <ele>507.792</ele>
        <time>2018-09-24T14:38:09Z</time>
      </trkpt>
      <trkpt lat="45.8015" lon="4.24864">
        <ele>507.442</ele>
        <time>2018-09-24T14:38:16Z</time>
      </trkpt>
      <trkpt lat="45.80144" lon="4.24861">
        <ele>507.354</ele>
        <time>2018-09-24T14:38:22Z</time>
      </trkpt>
      <trkpt lat="45.80139" lon="4.24857">
        <ele>507.302</ele>
        <time>2018-09-24T14:38:27Z</time>
      </trkpt>
      <trkpt lat="45.80132" lon="4.24852">
        <ele>507.257</ele>
        <time>2018-09-24T14:38:33Z</time>
      </trkpt>
      <trkpt lat="45.80125" lon="4.24848">
        <ele>507.114</ele>
        <time>2018-09-24T14:38:38Z</time>
      </trkpt>
      <trkpt lat="45.80119" lon="4.24842">
        <ele>507.039</ele>
        <time>2018-09-24T14:38:44Z</time>
      </trkpt>
      <trkpt lat="45.80113" lon="4.24838">
        <ele>506.853</ele>
        <time>2018-09-24T14:38:49Z</time>
      </trkpt>
      <trkpt lat="45.80108" lon="4.24829">
        <ele>506.815</ele>
        <time>2018-09-24T14:38:55Z</time>
      </trkpt>
      <trkpt lat="45.80104" lon="4.24821">
        <ele>506.78</ele>
        <time>2018-09-24T14:39:00Z</time>
      </trkpt>
      <trkpt lat="45.801" lon="4.24812">
        <ele>506.824</ele>
        <time>2018-09-24T14:39:06Z</time>
      </trkpt>
      <trkpt lat="45.80097" lon="4.24802">
        <ele>506.723</ele>
        <time>2018-09-24T14:39:11Z</time>
      </trkpt>
      <trkpt lat="45.80095" lon="4.24792">
        <ele>506.611</ele>
        <time>2018-09-24T14:39:16Z</time>
      </trkpt>
      <trkpt lat="45.80094" lon="4.24783">
        <ele>506.689</ele>
        <time>2018-09-24T14:39:21Z</time>
      </trkpt>
      <trkpt lat="45.80092" lon="4.24775">
        <ele>506.916</ele>
        <time>2018-09-24T14:39:27Z</time>
      </trkpt>
      <trkpt lat="45.8009" lon="4.24765">
        <ele>507.183</ele>
        <time>2018-09-24T14:39:33Z</time>
      </trkpt>
      <trkpt lat="45.80089" lon="4.24756">
        <ele>507.067</ele>
        <time>2018-09-24T14:39:38Z</time>
      </trkpt>
      <trkpt lat="45.80084" lon="4.24747">
        <ele>506.724</ele>
        <time>2018-09-24T14:39:44Z</time>
      </trkpt>
      <trkpt lat="45.80078" lon="4.24737">
        <ele>506.515</ele>
        <time>2018-09-24T14:39:50Z</time>
      </trkpt>
      <trkpt lat="45.80074" lon="4.24729">
        <ele>506.475</ele>
        <time>2018-09-24T14:39:55Z</time>
      </trkpt>
      <trkpt lat="45.80069" lon="4.24722">
        <ele>506.549</ele>
        <time>2018-09-24T14:40:01Z</time>
      </trkpt>
      <trkpt lat="45.80063" lon="4.24714">
        <ele>506.408</ele>
        <time>2018-09-24T14:40:07Z</time>
      </trkpt>
      <trkpt lat="45.80057" lon="4.24705">
        <ele>506.061</ele>
        <time>2018-09-24T14:40:13Z</time>
      </trkpt>
      <trkpt lat="45.80052" lon="4.24699">
        <ele>505.93</ele>
        <time>2018-09-24T14:40:18Z</time>
      </trkpt>
      <trkpt lat="45.80049" lon="4.24693">
        <ele>505.652</ele>
        <time>2018-09-24T14:40:23Z</time>
      </trkpt>
      <trkpt lat="45.80044" lon="4.24686">
        <ele>505.408</ele>
        <time>2018-09-24T14:40:28Z</time>
      </trkpt>
      <trkpt lat="45.80039" lon="4.24678">
        <ele>505.082</ele>
        <time>2018-09-24T14:40:34Z</time>
      </trkpt>
      <trkpt lat="45.80033" lon="4.24671">
        <ele>504.798</ele>
        <time>2018-09-24T14:40:39Z</time>
      </trkpt>
      <trkpt lat="45.80027" lon="4.24663">
        <ele>504.687</ele>
        <time>2018-09-24T14:40:45Z</time>
      </trkpt>
      <trkpt lat="45.80021" lon="4.24655">
        <ele>504.619</ele>
        <time>2018-09-24T14:40:51Z</time>
      </trkpt>
      <trkpt lat="45.80015" lon="4.24649">
        <ele>504.469</ele>
        <time>2018-09-24T14:40:57Z</time>
      </trkpt>
      <trkpt lat="45.80008" lon="4.24642">
        <ele>504.032</ele>
        <time>2018-09-24T14:41:03Z</time>
      </trkpt>
      <trkpt lat="45.80002" lon="4.24636">
        <ele>503.561</ele>
        <time>2018-09-24T14:41:08Z</time>
      </trkpt>
      <trkpt lat="45.79996" lon="4.24629">
        <ele>503.317</ele>
        <time>2018-09-24T14:41:14Z</time>
      </trkpt>
      <trkpt lat="45.79989" lon="4.24622">
        <ele>503.027</ele>
        <time>2018-09-24T14:41:20Z</time>
      </trkpt>
      <trkpt lat="45.79984" lon="4.24614">
        <ele>502.88</ele>
        <time>2018-09-24T14:41:25Z</time>
      </trkpt>
      <trkpt lat="45.79978" lon="4.24608">
        <ele>502.62</ele>
        <time>2018-09-24T14:41:31Z</time>
      </trkpt>
      <trkpt lat="45.79973" lon="4.24602">
        <ele>502.212</ele>
        <time>2018-09-24T14:41:36Z</time>
      </trkpt>
      <trkpt lat="45.79969" lon="4.24596">
        <ele>501.872</ele>
        <time>2018-09-24T14:41:41Z</time>
      </trkpt>
      <trkpt lat="45.79966" lon="4.2459">
        <ele>501.65</ele>
        <time>2018-09-24T14:41:46Z</time>
      </trkpt>
      <trkpt lat="45.79964" lon="4.24587">
        <ele>501.375</ele>
        <time>2018-09-24T14:41:52Z</time>
      </trkpt>
      <trkpt lat="45.79965" lon="4.24583">
        <ele>501.264</ele>
        <time>2018-09-24T14:41:57Z</time>
      </trkpt>
      <trkpt lat="45.79967" lon="4.24582">
        <ele>500.514</ele>
        <time>2018-09-24T14:42:03Z</time>
      </trkpt>
      <trkpt lat="45.79967" lon="4.24581">
        <ele>500.478</ele>
        <time>2018-09-24T14:42:08Z</time>
      </trkpt>
      <trkpt lat="45.79967" lon="4.24581">
        <ele>500.148</ele>
        <time>2018-09-24T14:42:14Z</time>
      </trkpt>
      <trkpt lat="45.79966" lon="4.2458">
        <ele>500.209</ele>
        <time>2018-09-24T14:42:20Z</time>
      </trkpt>
      <trkpt lat="45.79966" lon="4.24581">
        <ele>500.002</ele>
        <time>2018-09-24T14:42:25Z</time>
      </trkpt>
      <trkpt lat="45.79966" lon="4.24581">
        <ele>499.987</ele>
        <time>2018-09-24T14:42:31Z</time>
      </trkpt>
      <trkpt lat="45.79967" lon="4.24581">
        <ele>500.151</ele>
        <time>2018-09-24T14:42:36Z</time>
      </trkpt>
      <trkpt lat="45.79967" lon="4.2458">
        <ele>500.029</ele>
        <time>2018-09-24T14:42:42Z</time>
      </trkpt>
      <trkpt lat="45.79967" lon="4.2458">
        <ele>499.963</ele>
        <time>2018-09-24T14:42:48Z</time>
      </trkpt>
      <trkpt lat="45.79967" lon="4.2458">
        <ele>500.037</ele>
        <time>2018-09-24T14:42:54Z</time>
      </trkpt>
      <trkpt lat="45.79968" lon="4.24581">
        <ele>500.093</ele>
        <time>2018-09-24T14:42:59Z</time>
      </trkpt>
      <trkpt lat="45.79967" lon="4.2458">
        <ele>500.142</ele>
        <time>2018-09-24T14:43:04Z</time>
      </trkpt>
      <trkpt lat="45.7997" lon="4.24575">
        <ele>500.021</ele>
        <time>2018-09-24T14:43:10Z</time>
      </trkpt>
      <trkpt lat="45.79974" lon="4.24567">
        <ele>499.864</ele>
        <time>2018-09-24T14:43:15Z</time>
      </trkpt>
      <trkpt lat="45.79979" lon="4.24556">
        <ele>499.285</ele>
        <time>2018-09-24T14:43:21Z</time>
      </trkpt>
      <trkpt lat="45.79982" lon="4.24549">
        <ele>498.728</ele>
        <time>2018-09-24T14:43:26Z</time>
      </trkpt>
      <trkpt lat="45.79988" lon="4.24541">
        <ele>498.351</ele>
        <time>2018-09-24T14:43:32Z</time>
      </trkpt>
      <trkpt lat="45.79993" lon="4.24533">
        <ele>497.915</ele>
        <time>2018-09-24T14:43:38Z</time>
      </trkpt>
      <trkpt lat="45.79997" lon="4.24527">
        <ele>497.638</ele>
        <time>2018-09-24T14:43:43Z</time>
      </trkpt>
      <trkpt lat="45.80003" lon="4.24519">
        <ele>497.24</ele>
        <time>2018-09-24T14:43:49Z</time>
      </trkpt>
      <trkpt lat="45.80008" lon="4.24512">
        <ele>496.559</ele>
        <time>2018-09-24T14:43:54Z</time>
      </trkpt>
      <trkpt lat="45.80012" lon="4.24505">
        <ele>495.7</ele>
        <time>2018-09-24T14:43:59Z</time>
      </trkpt>
      <trkpt lat="45.80015" lon="4.24498">
        <ele>494.955</ele>
        <time>2018-09-24T14:44:04Z</time>
      </trkpt>
      <trkpt lat="45.80021" lon="4.24486">
        <ele>494.401</ele>
        <time>2018-09-24T14:44:10Z</time>
      </trkpt>
      <trkpt lat="45.80024" lon="4.24477">
        <ele>493.773</ele>
        <time>2018-09-24T14:44:15Z</time>
      </trkpt>
      <trkpt lat="45.80028" lon="4.24469">
        <ele>493.074</ele>
        <time>2018-09-24T14:44:20Z</time>
      </trkpt>
      <trkpt lat="45.80033" lon="4.2446">
        <ele>492.586</ele>
        <time>2018-09-24T14:44:25Z</time>
      </trkpt>
      <trkpt lat="45.80037" lon="4.24453">
        <ele>491.897</ele>
        <time>2018-09-24T14:44:30Z</time>
      </trkpt>
      <trkpt lat="45.80041" lon="4.24443">
        <ele>490.729</ele>
        <time>2018-09-24T14:44:36Z</time>
      </trkpt>
      <trkpt lat="45.80045" lon="4.24436">
        <ele>489.888</ele>
        <time>2018-09-24T14:44:41Z</time>
      </trkpt>
      <trkpt lat="45.80047" lon="4.24425">
        <ele>488.872</ele>
        <time>2018-09-24T14:44:47Z</time>
      </trkpt>
      <trkpt lat="45.80048" lon="4.24415">
        <ele>488.298</ele>
        <time>2018-09-24T14:44:53Z</time>
      </trkpt>
      <trkpt lat="45.80044" lon="4.24409">
        <ele>487.651</ele>
        <time>2018-09-24T14:44:59Z</time>
      </trkpt>
      <trkpt lat="45.80037" lon="4.24403">
        <ele>487.269</ele>
        <time>2018-09-24T14:45:05Z</time>
      </trkpt>
      <trkpt lat="45.8003" lon="4.24395">
        <ele>486.822</ele>
        <time>2018-09-24T14:45:11Z</time>
      </trkpt>
      <trkpt lat="45.80024" lon="4.24386">
        <ele>486.369</ele>
        <time>2018-09-24T14:45:16Z</time>
      </trkpt>
      <trkpt lat="45.80022" lon="4.24378">
        <ele>485.498</ele>
        <time>2018-09-24T14:45:22Z</time>
      </trkpt>
      <trkpt lat="45.80018" lon="4.24366">
        <ele>484.806</ele>
        <time>2018-09-24T14:45:28Z</time>
      </trkpt>
      <trkpt lat="45.80017" lon="4.24354">
        <ele>484.16</ele>
        <time>2018-09-24T14:45:34Z</time>
      </trkpt>
      <trkpt lat="45.80014" lon="4.24343">
        <ele>483.429</ele>
        <time>2018-09-24T14:45:40Z</time>
      </trkpt>
      <trkpt lat="45.8001" lon="4.24333">
        <ele>482.741</ele>
        <time>2018-09-24T14:45:46Z</time>
      </trkpt>
      <trkpt lat="45.8001" lon="4.24323">
        <ele>482.172</ele>
        <time>2018-09-24T14:45:51Z</time>
      </trkpt>
      <trkpt lat="45.80011" lon="4.24313">
        <ele>481.474</ele>
        <time>2018-09-24T14:45:57Z</time>
      </trkpt>
      <trkpt lat="45.80011" lon="4.24303">
        <ele>480.518</ele>
        <time>2018-09-24T14:46:03Z</time>
      </trkpt>
      <trkpt lat="45.80011" lon="4.24296">
        <ele>479.6</ele>
        <time>2018-09-24T14:46:08Z</time>
      </trkpt>
      <trkpt lat="45.8001" lon="4.24289">
        <ele>478.957</ele>
        <time>2018-09-24T14:46:13Z</time>
      </trkpt>
      <trkpt lat="45.80012" lon="4.2428">
        <ele>478.404</ele>
        <time>2018-09-24T14:46:19Z</time>
      </trkpt>
      <trkpt lat="45.80012" lon="4.2427">
        <ele>478.415</ele>
        <time>2018-09-24T14:46:24Z</time>
      </trkpt>
      <trkpt lat="45.80011" lon="4.24259">
        <ele>478.133</ele>
        <time>2018-09-24T14:46:30Z</time>
      </trkpt>
      <trkpt lat="45.8001" lon="4.24249">
        <ele>477.441</ele>
        <time>2018-09-24T14:46:36Z</time>
      </trkpt>
      <trkpt lat="45.80009" lon="4.24236">
        <ele>476.695</ele>
        <time>2018-09-24T14:46:42Z</time>
      </trkpt>
      <trkpt lat="45.80006" lon="4.24225">
        <ele>476.305</ele>
        <time>2018-09-24T14:46:48Z</time>
      </trkpt>
      <trkpt lat="45.80004" lon="4.24213">
        <ele>475.742</ele>
        <time>2018-09-24T14:46:54Z</time>
      </trkpt>
      <trkpt lat="45.8" lon="4.24204">
        <ele>474.899</ele>
        <time>2018-09-24T14:47:00Z</time>
      </trkpt>
      <trkpt lat="45.79996" lon="4.24194">
        <ele>474.115</ele>
        <time>2018-09-24T14:47:05Z</time>
      </trkpt>
      <trkpt lat="45.79993" lon="4.24185">
        <ele>473.44</ele>
        <time>2018-09-24T14:47:11Z</time>
      </trkpt>
      <trkpt lat="45.7999" lon="4.24178">
        <ele>472.798</ele>
        <time>2018-09-24T14:47:16Z</time>
      </trkpt>
      <trkpt lat="45.79986" lon="4.24171">
        <ele>472.389</ele>
        <time>2018-09-24T14:47:21Z</time>
      </trkpt>
      <trkpt lat="45.79982" lon="4.24162">
        <ele>471.715</ele>
        <time>2018-09-24T14:47:27Z</time>
      </trkpt>
      <trkpt lat="45.79979" lon="4.24155">
        <ele>471.131</ele>
        <time>2018-09-24T14:47:32Z</time>
      </trkpt>
      <trkpt lat="45.79976" lon="4.24147">
        <ele>470.674</ele>
        <time>2018-09-24T14:47:38Z</time>
      </trkpt>
      <trkpt lat="45.79971" lon="4.24141">
        <ele>470.737</ele>
        <time>2018-09-24T14:47:44Z</time>
      </trkpt>
      <trkpt lat="45.79967" lon="4.24135">
        <ele>470.375</ele>
        <time>2018-09-24T14:47:49Z</time>
      </trkpt>
      <trkpt lat="45.79963" lon="4.24127">
        <ele>470.062</ele>
        <time>2018-09-24T14:47:55Z</time>
      </trkpt>
      <trkpt lat="45.79959" lon="4.24119">
        <ele>469.603</ele>
        <time>2018-09-24T14:48:01Z</time>
      </trkpt>
      <trkpt lat="45.79954" lon="4.24113">
        <ele>469.08</ele>
        <time>2018-09-24T14:48:06Z</time>
      </trkpt>
      <trkpt lat="45.7995" lon="4.24106">
        <ele>468.578</ele>
        <time>2018-09-24T14:48:12Z</time>
      </trkpt>
      <trkpt lat="45.79944" lon="4.241">
        <ele>468.396</ele>
        <time>2018-09-24T14:48:17Z</time>
      </trkpt>
      <trkpt lat="45.79939" lon="4.24095">
        <ele>468.3</ele>
        <time>2018-09-24T14:48:23Z</time>
      </trkpt>
      <trkpt lat="45.79935" lon="4.24086">
        <ele>467.987</ele>
        <time>2018-09-24T14:48:29Z</time>
      </trkpt>
      <trkpt lat="45.79929" lon="4.24079">
        <ele>467.679</ele>
        <time>2018-09-24T14:48:35Z</time>
      </trkpt>
      <trkpt lat="45.79926" lon="4.24074">
        <ele>467.367</ele>
        <time>2018-09-24T14:48:41Z</time>
      </trkpt>
      <trkpt lat="45.7992" lon="4.24066">
        <ele>466.901</ele>
        <time>2018-09-24T14:48:47Z</time>
      </trkpt>
      <trkpt lat="45.79914" lon="4.24058">
        <ele>466.648</ele>
        <time>2018-09-24T14:48:52Z</time>
      </trkpt>
      <trkpt lat="45.7991" lon="4.24054">
        <ele>466.276</ele>
        <time>2018-09-24T14:48:57Z</time>
      </trkpt>
      <trkpt lat="45.79905" lon="4.24048">
        <ele>465.707</ele>
        <time>2018-09-24T14:49:03Z</time>
      </trkpt>
      <trkpt lat="45.799" lon="4.2404">
        <ele>465.451</ele>
        <time>2018-09-24T14:49:09Z</time>
      </trkpt>
      <trkpt lat="45.79895" lon="4.24032">
        <ele>465.118</ele>
        <time>2018-09-24T14:49:14Z</time>
      </trkpt>
      <trkpt lat="45.79891" lon="4.24025">
        <ele>464.959</ele>
        <time>2018-09-24T14:49:20Z</time>
      </trkpt>
      <trkpt lat="45.79889" lon="4.24018">
        <ele>464.561</ele>
        <time>2018-09-24T14:49:26Z</time>
      </trkpt>
      <trkpt lat="45.79888" lon="4.24011">
        <ele>463.923</ele>
        <time>2018-09-24T14:49:31Z</time>
      </trkpt>
      <trkpt lat="45.79886" lon="4.24">
        <ele>463.216</ele>
        <time>2018-09-24T14:49:37Z</time>
      </trkpt>
      <trkpt lat="45.79883" lon="4.2399">
        <ele>462.306</ele>
        <time>2018-09-24T14:49:43Z</time>
      </trkpt>
      <trkpt lat="45.79881" lon="4.23983">
        <ele>461.307</ele>
        <time>2018-09-24T14:49:48Z</time>
      </trkpt>
      <trkpt lat="45.79879" lon="4.23979">
        <ele>460.225</ele>
        <time>2018-09-24T14:49:54Z</time>
      </trkpt>
      <trkpt lat="45.79877" lon="4.23973">
        <ele>459.515</ele>
        <time>2018-09-24T14:49:59Z</time>
      </trkpt>
      <trkpt lat="45.79874" lon="4.23967">
        <ele>458.679</ele>
        <time>2018-09-24T14:50:04Z</time>
      </trkpt>
      <trkpt lat="45.7987" lon="4.23961">
        <ele>457.656</ele>
        <time>2018-09-24T14:50:10Z</time>
      </trkpt>
      <trkpt lat="45.79867" lon="4.23955">
        <ele>456.829</ele>
        <time>2018-09-24T14:50:16Z</time>
      </trkpt>
      <trkpt lat="45.79864" lon="4.2395">
        <ele>456.124</ele>
        <time>2018-09-24T14:50:21Z</time>
      </trkpt>
      <trkpt lat="45.7986" lon="4.23941">
        <ele>455.424</ele>
        <time>2018-09-24T14:50:27Z</time>
      </trkpt>
      <trkpt lat="45.79857" lon="4.23935">
        <ele>454.495</ele>
        <time>2018-09-24T14:50:33Z</time>
      </trkpt>
      <trkpt lat="45.79852" lon="4.23928">
        <ele>453.64</ele>
        <time>2018-09-24T14:50:39Z</time>
      </trkpt>
      <trkpt lat="45.79849" lon="4.23923">
        <ele>453.049</ele>
        <time>2018-09-24T14:50:44Z</time>
      </trkpt>
      <trkpt lat="45.79845" lon="4.23915">
        <ele>452.342</ele>
        <time>2018-09-24T14:50:49Z</time>
      </trkpt>
      <trkpt lat="45.79843" lon="4.23908">
        <ele>451.216</ele>
        <time>2018-09-24T14:50:55Z</time>
      </trkpt>
      <trkpt lat="45.79842" lon="4.23901">
        <ele>450.052</ele>
        <time>2018-09-24T14:51:00Z</time>
      </trkpt>
      <trkpt lat="45.79839" lon="4.23892">
        <ele>448.995</ele>
        <time>2018-09-24T14:51:06Z</time>
      </trkpt>
      <trkpt lat="45.79838" lon="4.23884">
        <ele>448.168</ele>
        <time>2018-09-24T14:51:11Z</time>
      </trkpt>
      <trkpt lat="45.79838" lon="4.2388">
        <ele>447.405</ele>
        <time>2018-09-24T14:51:16Z</time>
      </trkpt>
      <trkpt lat="45.79837" lon="4.23871">
        <ele>446.655</ele>
        <time>2018-09-24T14:51:22Z</time>
      </trkpt>
      <trkpt lat="45.79833" lon="4.23864">
        <ele>445.921</ele>
        <time>2018-09-24T14:51:27Z</time>
      </trkpt>
      <trkpt lat="45.79832" lon="4.23859">
        <ele>445.098</ele>
        <time>2018-09-24T14:51:32Z</time>
      </trkpt>
      <trkpt lat="45.79832" lon="4.23854">
        <ele>444.023</ele>
        <time>2018-09-24T14:51:38Z</time>
      </trkpt>
      <trkpt lat="45.79831" lon="4.23845">
        <ele>443.197</ele>
        <time>2018-09-24T14:51:44Z</time>
      </trkpt>
      <trkpt lat="45.79831" lon="4.23838">
        <ele>442.251</ele>
        <time>2018-09-24T14:51:49Z</time>
      </trkpt>
      <trkpt lat="45.79829" lon="4.23833">
        <ele>441.488</ele>
        <time>2018-09-24T14:51:54Z</time>
      </trkpt>
      <trkpt lat="45.79825" lon="4.23827">
        <ele>440.397</ele>
        <time>2018-09-24T14:52:00Z</time>
      </trkpt>
      <trkpt lat="45.79818" lon="4.23818">
        <ele>439.846</ele>
        <time>2018-09-24T14:52:06Z</time>
      </trkpt>
      <trkpt lat="45.79814" lon="4.23814">
        <ele>439.469</ele>
        <time>2018-09-24T14:52:11Z</time>
      </trkpt>
      <trkpt lat="45.7981" lon="4.23808">
        <ele>438.795</ele>
        <time>2018-09-24T14:52:17Z</time>
      </trkpt>
      <trkpt lat="45.79804" lon="4.23803">
        <ele>438.217</ele>
        <time>2018-09-24T14:52:22Z</time>
      </trkpt>
      <trkpt lat="45.798" lon="4.23798">
        <ele>437.282</ele>
        <time>2018-09-24T14:52:28Z</time>
      </trkpt>
      <trkpt lat="45.79796" lon="4.23794">
        <ele>436.483</ele>
        <time>2018-09-24T14:52:33Z</time>
      </trkpt>
      <trkpt lat="45.79789" lon="4.23787">
        <ele>435.743</ele>
        <time>2018-09-24T14:52:39Z</time>
      </trkpt>
      <trkpt lat="45.79784" lon="4.23782">
        <ele>435.01</ele>
        <time>2018-09-24T14:52:44Z</time>
      </trkpt>
      <trkpt lat="45.79778" lon="4.23775">
        <ele>434.354</ele>
        <time>2018-09-24T14:52:50Z</time>
      </trkpt>
      <trkpt lat="45.79775" lon="4.23769">
        <ele>433.545</ele>
        <time>2018-09-24T14:52:56Z</time>
      </trkpt>
      <trkpt lat="45.79771" lon="4.23763">
        <ele>432.689</ele>
        <time>2018-09-24T14:53:01Z</time>
      </trkpt>
      <trkpt lat="45.79767" lon="4.23757">
        <ele>431.97</ele>
        <time>2018-09-24T14:53:07Z</time>
      </trkpt>
      <trkpt lat="45.79761" lon="4.23748">
        <ele>431.428</ele>
        <time>2018-09-24T14:53:13Z</time>
      </trkpt>
      <trkpt lat="45.79756" lon="4.23744">
        <ele>430.982</ele>
        <time>2018-09-24T14:53:18Z</time>
      </trkpt>
      <trkpt lat="45.79753" lon="4.23737">
        <ele>430.487</ele>
        <time>2018-09-24T14:53:24Z</time>
      </trkpt>
      <trkpt lat="45.79748" lon="4.23733">
        <ele>430.033</ele>
        <time>2018-09-24T14:53:29Z</time>
      </trkpt>
      <trkpt lat="45.79742" lon="4.23726">
        <ele>429.686</ele>
        <time>2018-09-24T14:53:34Z</time>
      </trkpt>
      <trkpt lat="45.79737" lon="4.23719">
        <ele>429.342</ele>
        <time>2018-09-24T14:53:40Z</time>
      </trkpt>
      <trkpt lat="45.79734" lon="4.23714">
        <ele>428.764</ele>
        <time>2018-09-24T14:53:45Z</time>
      </trkpt>
      <trkpt lat="45.79728" lon="4.23705">
        <ele>427.915</ele>
        <time>2018-09-24T14:53:53Z</time>
      </trkpt>
      <trkpt lat="45.79722" lon="4.23697">
        <ele>427.302</ele>
        <time>2018-09-24T14:53:59Z</time>
      </trkpt>
      <trkpt lat="45.79717" lon="4.23691">
        <ele>426.614</ele>
        <time>2018-09-24T14:54:04Z</time>
      </trkpt>
      <trkpt lat="45.79713" lon="4.23684">
        <ele>425.978</ele>
        <time>2018-09-24T14:54:10Z</time>
      </trkpt>
      <trkpt lat="45.7971" lon="4.2368">
        <ele>425.48</ele>
        <time>2018-09-24T14:54:15Z</time>
      </trkpt>
      <trkpt lat="45.79707" lon="4.23674">
        <ele>424.525</ele>
        <time>2018-09-24T14:54:21Z</time>
      </trkpt>
      <trkpt lat="45.79704" lon="4.23667">
        <ele>424.061</ele>
        <time>2018-09-24T14:54:27Z</time>
      </trkpt>
      <trkpt lat="45.797" lon="4.23659">
        <ele>423.383</ele>
        <time>2018-09-24T14:54:33Z</time>
      </trkpt>
      <trkpt lat="45.797" lon="4.23652">
        <ele>422.817</ele>
        <time>2018-09-24T14:54:38Z</time>
      </trkpt>
      <trkpt lat="45.79697" lon="4.23643">
        <ele>421.756</ele>
        <time>2018-09-24T14:54:44Z</time>
      </trkpt>
      <trkpt lat="45.79697" lon="4.23636">
        <ele>421.172</ele>
        <time>2018-09-24T14:54:49Z</time>
      </trkpt>
      <trkpt lat="45.79697" lon="4.2363">
        <ele>420.729</ele>
        <time>2018-09-24T14:54:54Z</time>
      </trkpt>
      <trkpt lat="45.79696" lon="4.23621">
        <ele>420.136</ele>
        <time>2018-09-24T14:55:00Z</time>
      </trkpt>
      <trkpt lat="45.79694" lon="4.2361">
        <ele>418.804</ele>
        <time>2018-09-24T14:55:06Z</time>
      </trkpt>
      <trkpt lat="45.79691" lon="4.23601">
        <ele>417.661</ele>
        <time>2018-09-24T14:55:11Z</time>
      </trkpt>
      <trkpt lat="45.7969" lon="4.23592">
        <ele>416.891</ele>
        <time>2018-09-24T14:55:16Z</time>
      </trkpt>
      <trkpt lat="45.79688" lon="4.23583">
        <ele>416.267</ele>
        <time>2018-09-24T14:55:22Z</time>
      </trkpt>
      <trkpt lat="45.79685" lon="4.23574">
        <ele>415.617</ele>
        <time>2018-09-24T14:55:28Z</time>
      </trkpt>
      <trkpt lat="45.79684" lon="4.23565">
        <ele>415.075</ele>
        <time>2018-09-24T14:55:33Z</time>
      </trkpt>
      <trkpt lat="45.79683" lon="4.23554">
        <ele>414.636</ele>
        <time>2018-09-24T14:55:39Z</time>
      </trkpt>
      <trkpt lat="45.79682" lon="4.23542">
        <ele>414.248</ele>
        <time>2018-09-24T14:55:45Z</time>
      </trkpt>
      <trkpt lat="45.79681" lon="4.23533">
        <ele>413.93</ele>
        <time>2018-09-24T14:55:51Z</time>
      </trkpt>
      <trkpt lat="45.79678" lon="4.23524">
        <ele>413.255</ele>
        <time>2018-09-24T14:55:57Z</time>
      </trkpt>
      <trkpt lat="45.79677" lon="4.23516">
        <ele>412.813</ele>
        <time>2018-09-24T14:56:02Z</time>
      </trkpt>
      <trkpt lat="45.79677" lon="4.23507">
        <ele>412.746</ele>
        <time>2018-09-24T14:56:07Z</time>
      </trkpt>
      <trkpt lat="45.79676" lon="4.23496">
        <ele>412.422</ele>
        <time>2018-09-24T14:56:13Z</time>
      </trkpt>
      <trkpt lat="45.79675" lon="4.23487">
        <ele>412.454</ele>
        <time>2018-09-24T14:56:19Z</time>
      </trkpt>
      <trkpt lat="45.79673" lon="4.23479">
        <ele>412.349</ele>
        <time>2018-09-24T14:56:24Z</time>
      </trkpt>
      <trkpt lat="45.79674" lon="4.23473">
        <ele>412.58</ele>
        <time>2018-09-24T14:56:30Z</time>
      </trkpt>
      <trkpt lat="45.79676" lon="4.23469">
        <ele>412.912</ele>
        <time>2018-09-24T14:56:36Z</time>
      </trkpt>
      <trkpt lat="45.79678" lon="4.23469">
        <ele>413.037</ele>
        <time>2018-09-24T14:56:42Z</time>
      </trkpt>
      <trkpt lat="45.79676" lon="4.23469">
        <ele>413.514</ele>
        <time>2018-09-24T14:56:48Z</time>
      </trkpt>
      <trkpt lat="45.79676" lon="4.23468">
        <ele>414.019</ele>
        <time>2018-09-24T14:56:53Z</time>
      </trkpt>
      <trkpt lat="45.79677" lon="4.23468">
        <ele>413.256</ele>
        <time>2018-09-24T14:56:58Z</time>
      </trkpt>
      <trkpt lat="45.79677" lon="4.2347">
        <ele>412.525</ele>
        <time>2018-09-24T14:57:03Z</time>
      </trkpt>
      <trkpt lat="45.79677" lon="4.23471">
        <ele>411.461</ele>
        <time>2018-09-24T14:57:09Z</time>
      </trkpt>
      <trkpt lat="45.79677" lon="4.2347">
        <ele>410.365</ele>
        <time>2018-09-24T14:57:15Z</time>
      </trkpt>
      <trkpt lat="45.79677" lon="4.2347">
        <ele>409.603</ele>
        <time>2018-09-24T14:57:20Z</time>
      </trkpt>
      <trkpt lat="45.79678" lon="4.2347">
        <ele>409.456</ele>
        <time>2018-09-24T14:57:26Z</time>
      </trkpt>
      <trkpt lat="45.79679" lon="4.23469">
        <ele>409</ele>
        <time>2018-09-24T14:57:31Z</time>
      </trkpt>
      <trkpt lat="45.79678" lon="4.2347">
        <ele>408.565</ele>
        <time>2018-09-24T14:57:37Z</time>
      </trkpt>
      <trkpt lat="45.79679" lon="4.23471">
        <ele>408.253</ele>
        <time>2018-09-24T14:57:43Z</time>
      </trkpt>
      <trkpt lat="45.79678" lon="4.23471">
        <ele>408.271</ele>
        <time>2018-09-24T14:57:48Z</time>
      </trkpt>
      <trkpt lat="45.79677" lon="4.23471">
        <ele>408.164</ele>
        <time>2018-09-24T14:57:53Z</time>
      </trkpt>
      <trkpt lat="45.79678" lon="4.2347">
        <ele>407.561</ele>
        <time>2018-09-24T14:57:59Z</time>
      </trkpt>
      <trkpt lat="45.79683" lon="4.23463">
        <ele>407.118</ele>
        <time>2018-09-24T14:58:04Z</time>
      </trkpt>
      <trkpt lat="45.79686" lon="4.23458">
        <ele>406.67</ele>
        <time>2018-09-24T14:58:10Z</time>
      </trkpt>
      <trkpt lat="45.79693" lon="4.2345">
        <ele>406.476</ele>
        <time>2018-09-24T14:58:16Z</time>
      </trkpt>
      <trkpt lat="45.79696" lon="4.23445">
        <ele>406.442</ele>
        <time>2018-09-24T14:58:22Z</time>
      </trkpt>
      <trkpt lat="45.79697" lon="4.23436">
        <ele>406.306</ele>
        <time>2018-09-24T14:58:28Z</time>
      </trkpt>
      <trkpt lat="45.79698" lon="4.23424">
        <ele>406.392</ele>
        <time>2018-09-24T14:58:34Z</time>
      </trkpt>
      <trkpt lat="45.79699" lon="4.23416">
        <ele>406.826</ele>
        <time>2018-09-24T14:58:40Z</time>
      </trkpt>
      <trkpt lat="45.79701" lon="4.23409">
        <ele>407.181</ele>
        <time>2018-09-24T14:58:45Z</time>
      </trkpt>
      <trkpt lat="45.79704" lon="4.234">
        <ele>407.309</ele>
        <time>2018-09-24T14:58:51Z</time>
      </trkpt>
      <trkpt lat="45.79705" lon="4.23389">
        <ele>407.331</ele>
        <time>2018-09-24T14:58:57Z</time>
      </trkpt>
      <trkpt lat="45.79706" lon="4.23382">
        <ele>407.584</ele>
        <time>2018-09-24T14:59:02Z</time>
      </trkpt>
      <trkpt lat="45.79709" lon="4.23373">
        <ele>407.428</ele>
        <time>2018-09-24T14:59:08Z</time>
      </trkpt>
      <trkpt lat="45.79711" lon="4.23362">
        <ele>407.734</ele>
        <time>2018-09-24T14:59:14Z</time>
      </trkpt>
      <trkpt lat="45.79713" lon="4.23353">
        <ele>407.953</ele>
        <time>2018-09-24T14:59:19Z</time>
      </trkpt>
      <trkpt lat="45.79717" lon="4.23342">
        <ele>408.231</ele>
        <time>2018-09-24T14:59:25Z</time>
      </trkpt>
      <trkpt lat="45.7972" lon="4.23333">
        <ele>407.997</ele>
        <time>2018-09-24T14:59:31Z</time>
      </trkpt>
      <trkpt lat="45.79722" lon="4.23322">
        <ele>407.458</ele>
        <time>2018-09-24T14:59:37Z</time>
      </trkpt>
      <trkpt lat="45.79722" lon="4.23314">
        <ele>407.036</ele>
        <time>2018-09-24T14:59:42Z</time>
      </trkpt>
      <trkpt lat="45.79723" lon="4.23303">
        <ele>406.748</ele>
        <time>2018-09-24T14:59:48Z</time>
      </trkpt>
      <trkpt lat="45.79723" lon="4.23297">
        <ele>406.401</ele>
        <time>2018-09-24T14:59:53Z</time>
      </trkpt>
      <trkpt lat="45.79725" lon="4.23285">
        <ele>406.632</ele>
        <time>2018-09-24T14:59:59Z</time>
      </trkpt>
      <trkpt lat="45.79726" lon="4.23275">
        <ele>406.761</ele>
        <time>2018-09-24T15:00:04Z</time>
      </trkpt>
      <trkpt lat="45.79731" lon="4.23268">
        <ele>406.611</ele>
        <time>2018-09-24T15:00:10Z</time>
      </trkpt>
      <trkpt lat="45.79737" lon="4.23264">
        <ele>406.333</ele>
        <time>2018-09-24T15:00:16Z</time>
      </trkpt>
      <trkpt lat="45.79742" lon="4.2326">
        <ele>406.51</ele>
        <time>2018-09-24T15:00:21Z</time>
      </trkpt>
      <trkpt lat="45.79751" lon="4.23255">
        <ele>406.756</ele>
        <time>2018-09-24T15:00:27Z</time>
      </trkpt>
      <trkpt lat="45.79756" lon="4.23253">
        <ele>406.972</ele>
        <time>2018-09-24T15:00:32Z</time>
      </trkpt>
      <trkpt lat="45.79762" lon="4.23249">
        <ele>407.589</ele>
        <time>2018-09-24T15:00:38Z</time>
      </trkpt>
      <trkpt lat="45.79768" lon="4.23246">
        <ele>407.969</ele>
        <time>2018-09-24T15:00:43Z</time>
      </trkpt>
      <trkpt lat="45.79776" lon="4.23245">
        <ele>407.624</ele>
        <time>2018-09-24T15:00:49Z</time>
      </trkpt>
      <trkpt lat="45.79781" lon="4.23245">
        <ele>407.565</ele>
        <time>2018-09-24T15:00:54Z</time>
      </trkpt>
      <trkpt lat="45.79788" lon="4.23244">
        <ele>407.206</ele>
        <time>2018-09-24T15:01:00Z</time>
      </trkpt>
      <trkpt lat="45.79794" lon="4.23245">
        <ele>406.965</ele>
        <time>2018-09-24T15:01:05Z</time>
      </trkpt>
      <trkpt lat="45.79801" lon="4.23245">
        <ele>406.638</ele>
        <time>2018-09-24T15:01:10Z</time>
      </trkpt>
      <trkpt lat="45.79806" lon="4.2324">
        <ele>406.328</ele>
        <time>2018-09-24T15:01:15Z</time>
      </trkpt>
      <trkpt lat="45.79815" lon="4.2324">
        <ele>406.744</ele>
        <time>2018-09-24T15:01:21Z</time>
      </trkpt>
      <trkpt lat="45.7982" lon="4.23239">
        <ele>406.976</ele>
        <time>2018-09-24T15:01:26Z</time>
      </trkpt>
      <trkpt lat="45.79826" lon="4.23236">
        <ele>407.178</ele>
        <time>2018-09-24T15:01:32Z</time>
      </trkpt>
      <trkpt lat="45.79828" lon="4.23238">
        <ele>406.893</ele>
        <time>2018-09-24T15:01:38Z</time>
      </trkpt>
      <trkpt lat="45.79833" lon="4.2324">
        <ele>407.547</ele>
        <time>2018-09-24T15:01:43Z</time>
      </trkpt>
      <trkpt lat="45.79838" lon="4.23241">
        <ele>408.179</ele>
        <time>2018-09-24T15:01:49Z</time>
      </trkpt>
      <trkpt lat="45.79838" lon="4.23241">
        <ele>408.339</ele>
        <time>2018-09-24T15:01:54Z</time>
      </trkpt>
      <trkpt lat="45.7984" lon="4.2324">
        <ele>408.563</ele>
        <time>2018-09-24T15:01:59Z</time>
      </trkpt>
      <trkpt lat="45.79841" lon="4.2324">
        <ele>409.26</ele>
        <time>2018-09-24T15:02:05Z</time>
      </trkpt>
      <trkpt lat="45.79842" lon="4.2324">
        <ele>409.598</ele>
        <time>2018-09-24T15:02:11Z</time>
      </trkpt>
      <trkpt lat="45.79843" lon="4.23241">
        <ele>410.119</ele>
        <time>2018-09-24T15:02:17Z</time>
      </trkpt>
      <trkpt lat="45.79844" lon="4.23241">
        <ele>410.676</ele>
        <time>2018-09-24T15:02:23Z</time>
      </trkpt>
      <trkpt lat="45.79844" lon="4.2324">
        <ele>410.918</ele>
        <time>2018-09-24T15:02:29Z</time>
      </trkpt>
      <trkpt lat="45.79845" lon="4.23242">
        <ele>411.417</ele>
        <time>2018-09-24T15:02:35Z</time>
      </trkpt>
      <trkpt lat="45.79845" lon="4.23242">
        <ele>411.486</ele>
        <time>2018-09-24T15:02:41Z</time>
      </trkpt>
      <trkpt lat="45.79845" lon="4.23243">
        <ele>411.737</ele>
        <time>2018-09-24T15:02:47Z</time>
      </trkpt>
      <trkpt lat="45.79844" lon="4.23241">
        <ele>411.988</ele>
        <time>2018-09-24T15:02:53Z</time>
      </trkpt>
      <trkpt lat="45.79843" lon="4.23242">
        <ele>411.845</ele>
        <time>2018-09-24T15:02:58Z</time>
      </trkpt>
      <trkpt lat="45.79844" lon="4.23245">
        <ele>412.046</ele>
        <time>2018-09-24T15:03:04Z</time>
      </trkpt>
      <trkpt lat="45.79845" lon="4.23245">
        <ele>412.208</ele>
        <time>2018-09-24T15:03:09Z</time>
      </trkpt>
      <trkpt lat="45.79845" lon="4.23244">
        <ele>412.118</ele>
        <time>2018-09-24T15:03:15Z</time>
      </trkpt>
      <trkpt lat="45.79844" lon="4.23244">
        <ele>412.215</ele>
        <time>2018-09-24T15:03:21Z</time>
      </trkpt>
      <trkpt lat="45.79845" lon="4.23245">
        <ele>412.377</ele>
        <time>2018-09-24T15:03:26Z</time>
      </trkpt>
      <trkpt lat="45.79845" lon="4.23244">
        <ele>412.34</ele>
        <time>2018-09-24T15:03:32Z</time>
      </trkpt>
      <trkpt lat="45.79846" lon="4.23243">
        <ele>412.342</ele>
        <time>2018-09-24T15:03:37Z</time>
      </trkpt>
      <trkpt lat="45.79845" lon="4.23243">
        <ele>412.517</ele>
        <time>2018-09-24T15:03:42Z</time>
      </trkpt>
      <trkpt lat="45.79845" lon="4.23243">
        <ele>412.692</ele>
        <time>2018-09-24T15:03:48Z</time>
      </trkpt>
      <trkpt lat="45.79845" lon="4.23243">
        <ele>412.462</ele>
        <time>2018-09-24T15:03:53Z</time>
      </trkpt>
      <trkpt lat="45.79844" lon="4.23243">
        <ele>412.26</ele>
        <time>2018-09-24T15:03:58Z</time>
      </trkpt>
      <trkpt lat="45.79844" lon="4.23244">
        <ele>411.949</ele>
        <time>2018-09-24T15:04:04Z</time>
      </trkpt>
      <trkpt lat="45.79844" lon="4.23244">
        <ele>411.337</ele>
        <time>2018-09-24T15:04:09Z</time>
      </trkpt>
      <trkpt lat="45.79845" lon="4.23247">
        <ele>410.83</ele>
        <time>2018-09-24T15:04:14Z</time>
      </trkpt>
      <trkpt lat="45.79844" lon="4.23249">
        <ele>410.649</ele>
        <time>2018-09-24T15:04:20Z</time>
      </trkpt>
      <trkpt lat="45.79846" lon="4.2325">
        <ele>410.667</ele>
        <time>2018-09-24T15:04:25Z</time>
      </trkpt>
      <trkpt lat="45.79847" lon="4.2325">
        <ele>410.335</ele>
        <time>2018-09-24T15:04:30Z</time>
      </trkpt>
      <trkpt lat="45.79846" lon="4.2325">
        <ele>410.249</ele>
        <time>2018-09-24T15:04:35Z</time>
      </trkpt>
      <trkpt lat="45.79846" lon="4.23253">
        <ele>410.51</ele>
        <time>2018-09-24T15:04:41Z</time>
      </trkpt>
      <trkpt lat="45.79845" lon="4.23253">
        <ele>410.778</ele>
        <time>2018-09-24T15:04:47Z</time>
      </trkpt>
      <trkpt lat="45.79845" lon="4.23251">
        <ele>410.953</ele>
        <time>2018-09-24T15:04:52Z</time>
      </trkpt>
      <trkpt lat="45.79846" lon="4.23251">
        <ele>411.081</ele>
        <time>2018-09-24T15:04:57Z</time>
      </trkpt>
      <trkpt lat="45.79846" lon="4.23247">
        <ele>411.054</ele>
        <time>2018-09-24T15:05:03Z</time>
      </trkpt>
      <trkpt lat="45.79847" lon="4.23247">
        <ele>410.781</ele>
        <time>2018-09-24T15:05:08Z</time>
      </trkpt>
      <trkpt lat="45.79847" lon="4.23247">
        <ele>410.319</ele>
        <time>2018-09-24T15:05:14Z</time>
      </trkpt>
      <trkpt lat="45.79847" lon="4.23249">
        <ele>410.184</ele>
        <time>2018-09-24T15:05:19Z</time>
      </trkpt>
      <trkpt lat="45.79847" lon="4.23248">
        <ele>410.318</ele>
        <time>2018-09-24T15:05:24Z</time>
      </trkpt>
      <trkpt lat="45.79847" lon="4.23246">
        <ele>410.35</ele>
        <time>2018-09-24T15:05:30Z</time>
      </trkpt>
      <trkpt lat="45.79846" lon="4.23246">
        <ele>410.547</ele>
        <time>2018-09-24T15:05:36Z</time>
      </trkpt>
      <trkpt lat="45.79846" lon="4.23246">
        <ele>410.544</ele>
        <time>2018-09-24T15:05:41Z</time>
      </trkpt>
      <trkpt lat="45.79846" lon="4.23247">
        <ele>410.365</ele>
        <time>2018-09-24T15:05:46Z</time>
      </trkpt>
      <trkpt lat="45.79846" lon="4.2325">
        <ele>410.419</ele>
        <time>2018-09-24T15:05:52Z</time>
      </trkpt>
      <trkpt lat="45.79847" lon="4.23249">
        <ele>410.426</ele>
        <time>2018-09-24T15:05:58Z</time>
      </trkpt>
      <trkpt lat="45.79847" lon="4.23249">
        <ele>410.48</ele>
        <time>2018-09-24T15:06:03Z</time>
      </trkpt>
      <trkpt lat="45.79847" lon="4.23251">
        <ele>410.519</ele>
        <time>2018-09-24T15:06:09Z</time>
      </trkpt>
      <trkpt lat="45.79847" lon="4.23251">
        <ele>410.508</ele>
        <time>2018-09-24T15:06:14Z</time>
      </trkpt>
      <trkpt lat="45.79847" lon="4.23251">
        <ele>410.668</ele>
        <time>2018-09-24T15:06:20Z</time>
      </trkpt>
      <trkpt lat="45.79848" lon="4.23251">
        <ele>410.909</ele>
        <time>2018-09-24T15:06:26Z</time>
      </trkpt>
      <trkpt lat="45.79849" lon="4.23251">
        <ele>410.861</ele>
        <time>2018-09-24T15:06:32Z</time>
      </trkpt>
      <trkpt lat="45.79849" lon="4.23251">
        <ele>410.757</ele>
        <time>2018-09-24T15:06:38Z</time>
      </trkpt>
      <trkpt lat="45.79848" lon="4.23249">
        <ele>410.976</ele>
        <time>2018-09-24T15:06:44Z</time>
      </trkpt>
      <trkpt lat="45.79848" lon="4.23247">
        <ele>411.078</ele>
        <time>2018-09-24T15:06:49Z</time>
      </trkpt>
      <trkpt lat="45.79847" lon="4.23246">
        <ele>411.194</ele>
        <time>2018-09-24T15:06:55Z</time>
      </trkpt>
      <trkpt lat="45.79846" lon="4.23247">
        <ele>411.686</ele>
        <time>2018-09-24T15:07:00Z</time>
      </trkpt>
      <trkpt lat="45.79845" lon="4.23249">
        <ele>411.708</ele>
        <time>2018-09-24T15:07:06Z</time>
      </trkpt>
      <trkpt lat="45.79845" lon="4.23248">
        <ele>411.579</ele>
        <time>2018-09-24T15:07:11Z</time>
      </trkpt>
      <trkpt lat="45.79847" lon="4.23248">
        <ele>411.026</ele>
        <time>2018-09-24T15:07:16Z</time>
      </trkpt>
      <trkpt lat="45.79848" lon="4.2325">
        <ele>410.803</ele>
        <time>2018-09-24T15:07:21Z</time>
      </trkpt>
      <trkpt lat="45.79846" lon="4.23251">
        <ele>410.462</ele>
        <time>2018-09-24T15:07:27Z</time>
      </trkpt>
      <trkpt lat="45.79845" lon="4.23251">
        <ele>410.517</ele>
        <time>2018-09-24T15:07:32Z</time>
      </trkpt>
      <trkpt lat="45.79847" lon="4.23251">
        <ele>410.491</ele>
        <time>2018-09-24T15:07:38Z</time>
      </trkpt>
      <trkpt lat="45.79846" lon="4.2325">
        <ele>410.842</ele>
        <time>2018-09-24T15:07:44Z</time>
      </trkpt>
      <trkpt lat="45.79846" lon="4.2325">
        <ele>411.448</ele>
        <time>2018-09-24T15:07:49Z</time>
      </trkpt>
      <trkpt lat="45.79846" lon="4.2325">
        <ele>411.9</ele>
        <time>2018-09-24T15:07:54Z</time>
      </trkpt>
      <trkpt lat="45.79846" lon="4.2325">
        <ele>412.175</ele>
        <time>2018-09-24T15:08:00Z</time>
      </trkpt>
      <trkpt lat="45.79846" lon="4.2325">
        <ele>412.274</ele>
        <time>2018-09-24T15:08:06Z</time>
      </trkpt>
      <trkpt lat="45.79846" lon="4.23251">
        <ele>412.102</ele>
        <time>2018-09-24T15:08:11Z</time>
      </trkpt>
      <trkpt lat="45.79847" lon="4.2325">
        <ele>412.145</ele>
        <time>2018-09-24T15:08:17Z</time>
      </trkpt>
      <trkpt lat="45.79849" lon="4.23253">
        <ele>411.75</ele>
        <time>2018-09-24T15:08:22Z</time>
      </trkpt>
      <trkpt lat="45.7985" lon="4.23255">
        <ele>410.851</ele>
        <time>2018-09-24T15:08:27Z</time>
      </trkpt>
      <trkpt lat="45.79853" lon="4.23256">
        <ele>410.284</ele>
        <time>2018-09-24T15:08:32Z</time>
      </trkpt>
      <trkpt lat="45.79853" lon="4.23255">
        <ele>409.87</ele>
        <time>2018-09-24T15:08:37Z</time>
      </trkpt>
      <trkpt lat="45.79854" lon="4.23251">
        <ele>409.005</ele>
        <time>2018-09-24T15:08:43Z</time>
      </trkpt>
      <trkpt lat="45.79849" lon="4.23248">
        <ele>408.139</ele>
        <time>2018-09-24T15:08:49Z</time>
      </trkpt>
      <trkpt lat="45.79849" lon="4.23248">
        <ele>408.095</ele>
        <time>2018-09-24T15:08:55Z</time>
      </trkpt>
      <trkpt lat="45.7985" lon="4.23243">
        <ele>408.306</ele>
        <time>2018-09-24T15:09:01Z</time>
      </trkpt>
    </trkseg>
  </trk>
  <trk>
    <name><![CDATA[20180924202326-dixA7]]></name>
    <trkseg>
      <trkpt lat="45.79843" lon="4.23239">
        <ele>415.014</ele>
        <time>2018-09-24T12:19:22Z</time>
      </trkpt>
      <trkpt lat="45.79843" lon="4.23239">
        <ele>415.028</ele>
        <time>2018-09-24T12:19:27Z</time>
      </trkpt>
      <trkpt lat="45.79843" lon="4.23239">
        <ele>414.993</ele>
        <time>2018-09-24T12:19:33Z</time>
      </trkpt>
      <trkpt lat="45.79843" lon="4.23239">
        <ele>414.945</ele>
        <time>2018-09-24T12:19:39Z</time>
      </trkpt>
      <trkpt lat="45.79843" lon="4.23239">
        <ele>414.946</ele>
        <time>2018-09-24T12:19:45Z</time>
      </trkpt>
      <trkpt lat="45.79843" lon="4.23239">
        <ele>414.94</ele>
        <time>2018-09-24T12:19:50Z</time>
      </trkpt>
      <trkpt lat="45.79843" lon="4.23239">
        <ele>414.897</ele>
        <time>2018-09-24T12:19:55Z</time>
      </trkpt>
      <trkpt lat="45.79843" lon="4.23239">
        <ele>414.866</ele>
        <time>2018-09-24T12:20:01Z</time>
      </trkpt>
      <trkpt lat="45.79843" lon="4.23239">
        <ele>414.855</ele>
        <time>2018-09-24T12:20:07Z</time>
      </trkpt>
      <trkpt lat="45.79843" lon="4.23239">
        <ele>414.861</ele>
        <time>2018-09-24T12:20:13Z</time>
      </trkpt>
      <trkpt lat="45.79843" lon="4.23239">
        <ele>415.185</ele>
        <time>2018-09-24T12:20:18Z</time>
      </trkpt>
      <trkpt lat="45.79843" lon="4.23239">
        <ele>415.301</ele>
        <time>2018-09-24T12:20:24Z</time>
      </trkpt>
      <trkpt lat="45.79846" lon="4.23225">
        <ele>415.596</ele>
        <time>2018-09-24T12:20:29Z</time>
      </trkpt>
      <trkpt lat="45.79854" lon="4.23227">
        <ele>415.66</ele>
        <time>2018-09-24T12:20:34Z</time>
      </trkpt>
      <trkpt lat="45.79861" lon="4.23229">
        <ele>415.867</ele>
        <time>2018-09-24T12:20:39Z</time>
      </trkpt>
      <trkpt lat="45.79861" lon="4.23229">
        <ele>416.189</ele>
        <time>2018-09-24T12:20:44Z</time>
      </trkpt>
      <trkpt lat="45.7987" lon="4.23236">
        <ele>416.272</ele>
        <time>2018-09-24T12:20:50Z</time>
      </trkpt>
      <trkpt lat="45.79875" lon="4.23243">
        <ele>415.865</ele>
        <time>2018-09-24T12:20:55Z</time>
      </trkpt>
      <trkpt lat="45.79877" lon="4.23249">
        <ele>415.588</ele>
        <time>2018-09-24T12:21:01Z</time>
      </trkpt>
      <trkpt lat="45.79879" lon="4.23255">
        <ele>415.392</ele>
        <time>2018-09-24T12:21:06Z</time>
      </trkpt>
      <trkpt lat="45.79881" lon="4.23265">
        <ele>415.272</ele>
        <time>2018-09-24T12:21:12Z</time>
      </trkpt>
      <trkpt lat="45.79884" lon="4.23271">
        <ele>415.221</ele>
        <time>2018-09-24T12:21:17Z</time>
      </trkpt>
      <trkpt lat="45.79888" lon="4.23278">
        <ele>415.714</ele>
        <time>2018-09-24T12:21:22Z</time>
      </trkpt>
      <trkpt lat="45.79892" lon="4.23284">
        <ele>416.018</ele>
        <time>2018-09-24T12:21:28Z</time>
      </trkpt>
      <trkpt lat="45.79896" lon="4.23293">
        <ele>416.334</ele>
        <time>2018-09-24T12:21:34Z</time>
      </trkpt>
      <trkpt lat="45.79898" lon="4.233">
        <ele>416.725</ele>
        <time>2018-09-24T12:21:39Z</time>
      </trkpt>
      <trkpt lat="45.799" lon="4.23307">
        <ele>417.426</ele>
        <time>2018-09-24T12:21:44Z</time>
      </trkpt>
      <trkpt lat="45.79904" lon="4.23314">
        <ele>417.874</ele>
        <time>2018-09-24T12:21:50Z</time>
      </trkpt>
      <trkpt lat="45.79907" lon="4.2332">
        <ele>417.916</ele>
        <time>2018-09-24T12:21:56Z</time>
      </trkpt>
      <trkpt lat="45.79908" lon="4.23325">
        <ele>418.156</ele>
        <time>2018-09-24T12:22:01Z</time>
      </trkpt>
      <trkpt lat="45.79911" lon="4.23335">
        <ele>418.339</ele>
        <time>2018-09-24T12:22:07Z</time>
      </trkpt>
      <trkpt lat="45.79913" lon="4.23341">
        <ele>418.577</ele>
        <time>2018-09-24T12:22:13Z</time>
      </trkpt>
      <trkpt lat="45.79915" lon="4.23345">
        <ele>418.838</ele>
        <time>2018-09-24T12:22:18Z</time>
      </trkpt>
      <trkpt lat="45.79919" lon="4.23351">
        <ele>419.03</ele>
        <time>2018-09-24T12:22:24Z</time>
      </trkpt>
      <trkpt lat="45.79921" lon="4.23356">
        <ele>419.062</ele>
        <time>2018-09-24T12:22:29Z</time>
      </trkpt>
      <trkpt lat="45.79923" lon="4.23363">
        <ele>419.15</ele>
        <time>2018-09-24T12:22:34Z</time>
      </trkpt>
      <trkpt lat="45.79927" lon="4.2337">
        <ele>419.589</ele>
        <time>2018-09-24T12:22:40Z</time>
      </trkpt>
      <trkpt lat="45.79929" lon="4.23378">
        <ele>419.722</ele>
        <time>2018-09-24T12:22:46Z</time>
      </trkpt>
      <trkpt lat="45.79932" lon="4.23386">
        <ele>420.023</ele>
        <time>2018-09-24T12:22:52Z</time>
      </trkpt>
      <trkpt lat="45.79934" lon="4.23391">
        <ele>420.527</ele>
        <time>2018-09-24T12:22:57Z</time>
      </trkpt>
      <trkpt lat="45.79936" lon="4.23396">
        <ele>420.828</ele>
        <time>2018-09-24T12:23:02Z</time>
      </trkpt>
      <trkpt lat="45.79937" lon="4.23399">
        <ele>421.236</ele>
        <time>2018-09-24T12:23:07Z</time>
      </trkpt>
      <trkpt lat="45.79941" lon="4.23402">
        <ele>421.421</ele>
        <time>2018-09-24T12:23:13Z</time>
      </trkpt>
      <trkpt lat="45.79947" lon="4.23403">
        <ele>421.367</ele>
        <time>2018-09-24T12:23:19Z</time>
      </trkpt>
      <trkpt lat="45.79954" lon="4.23405">
        <ele>421.761</ele>
        <time>2018-09-24T12:23:25Z</time>
      </trkpt>
      <trkpt lat="45.79959" lon="4.23408">
        <ele>422.28</ele>
        <time>2018-09-24T12:23:31Z</time>
      </trkpt>
      <trkpt lat="45.79965" lon="4.23407">
        <ele>422.807</ele>
        <time>2018-09-24T12:23:37Z</time>
      </trkpt>
      <trkpt lat="45.79972" lon="4.23408">
        <ele>423.047</ele>
        <time>2018-09-24T12:23:43Z</time>
      </trkpt>
      <trkpt lat="45.79977" lon="4.23408">
        <ele>422.797</ele>
        <time>2018-09-24T12:23:48Z</time>
      </trkpt>
      <trkpt lat="45.79982" lon="4.23409">
        <ele>422.335</ele>
        <time>2018-09-24T12:23:54Z</time>
      </trkpt>
      <trkpt lat="45.79989" lon="4.2341">
        <ele>422.634</ele>
        <time>2018-09-24T12:24:00Z</time>
      </trkpt>
      <trkpt lat="45.79995" lon="4.23413">
        <ele>423.101</ele>
        <time>2018-09-24T12:24:06Z</time>
      </trkpt>
      <trkpt lat="45.8" lon="4.23414">
        <ele>423.483</ele>
        <time>2018-09-24T12:24:12Z</time>
      </trkpt>
      <trkpt lat="45.80009" lon="4.23414">
        <ele>424.097</ele>
        <time>2018-09-24T12:24:18Z</time>
      </trkpt>
      <trkpt lat="45.80015" lon="4.23418">
        <ele>424.344</ele>
        <time>2018-09-24T12:24:23Z</time>
      </trkpt>
      <trkpt lat="45.80018" lon="4.23418">
        <ele>424.823</ele>
        <time>2018-09-24T12:24:28Z</time>
      </trkpt>
      <trkpt lat="45.80024" lon="4.23419">
        <ele>425.025</ele>
        <time>2018-09-24T12:24:34Z</time>
      </trkpt>
      <trkpt lat="45.80031" lon="4.23419">
        <ele>424.999</ele>
        <time>2018-09-24T12:24:40Z</time>
      </trkpt>
      <trkpt lat="45.80038" lon="4.2342">
        <ele>425.166</ele>
        <time>2018-09-24T12:24:46Z</time>
      </trkpt>
      <trkpt lat="45.80044" lon="4.23421">
        <ele>425.476</ele>
        <time>2018-09-24T12:24:52Z</time>
      </trkpt>
      <trkpt lat="45.80051" lon="4.23423">
        <ele>425.748</ele>
        <time>2018-09-24T12:24:58Z</time>
      </trkpt>
      <trkpt lat="45.80054" lon="4.23423">
        <ele>426.016</ele>
        <time>2018-09-24T12:25:03Z</time>
      </trkpt>
      <trkpt lat="45.80061" lon="4.23423">
        <ele>426.795</ele>
        <time>2018-09-24T12:25:09Z</time>
      </trkpt>
      <trkpt lat="45.80066" lon="4.23421">
        <ele>427.27</ele>
        <time>2018-09-24T12:25:14Z</time>
      </trkpt>
      <trkpt lat="45.80072" lon="4.23419">
        <ele>428.244</ele>
        <time>2018-09-24T12:25:20Z</time>
      </trkpt>
      <trkpt lat="45.80079" lon="4.2342">
        <ele>429.242</ele>
        <time>2018-09-24T12:25:26Z</time>
      </trkpt>
      <trkpt lat="45.80085" lon="4.23426">
        <ele>430.53</ele>
        <time>2018-09-24T12:25:31Z</time>
      </trkpt>
      <trkpt lat="45.80089" lon="4.23427">
        <ele>431.937</ele>
        <time>2018-09-24T12:25:37Z</time>
      </trkpt>
      <trkpt lat="45.80096" lon="4.23429">
        <ele>432.961</ele>
        <time>2018-09-24T12:25:42Z</time>
      </trkpt>
      <trkpt lat="45.80101" lon="4.2343">
        <ele>433.524</ele>
        <time>2018-09-24T12:25:48Z</time>
      </trkpt>
      <trkpt lat="45.80106" lon="4.23431">
        <ele>434.138</ele>
        <time>2018-09-24T12:25:53Z</time>
      </trkpt>
      <trkpt lat="45.80112" lon="4.23431">
        <ele>434.296</ele>
        <time>2018-09-24T12:25:59Z</time>
      </trkpt>
      <trkpt lat="45.80116" lon="4.23433">
        <ele>434.23</ele>
        <time>2018-09-24T12:26:05Z</time>
      </trkpt>
      <trkpt lat="45.80119" lon="4.23438">
        <ele>433.863</ele>
        <time>2018-09-24T12:26:11Z</time>
      </trkpt>
      <trkpt lat="45.80126" lon="4.23442">
        <ele>433.799</ele>
        <time>2018-09-24T12:26:16Z</time>
      </trkpt>
      <trkpt lat="45.80131" lon="4.23447">
        <ele>434.029</ele>
        <time>2018-09-24T12:26:21Z</time>
      </trkpt>
      <trkpt lat="45.80136" lon="4.2345">
        <ele>434.849</ele>
        <time>2018-09-24T12:26:27Z</time>
      </trkpt>
      <trkpt lat="45.80139" lon="4.23454">
        <ele>435.957</ele>
        <time>2018-09-24T12:26:32Z</time>
      </trkpt>
      <trkpt lat="45.80142" lon="4.23457">
        <ele>436.879</ele>
        <time>2018-09-24T12:26:37Z</time>
      </trkpt>
      <trkpt lat="45.80148" lon="4.2346">
        <ele>437.848</ele>
        <time>2018-09-24T12:26:43Z</time>
      </trkpt>
      <trkpt lat="45.80151" lon="4.23464">
        <ele>438.431</ele>
        <time>2018-09-24T12:26:48Z</time>
      </trkpt>
      <trkpt lat="45.80157" lon="4.23471">
        <ele>438.785</ele>
        <time>2018-09-24T12:26:54Z</time>
      </trkpt>
      <trkpt lat="45.80161" lon="4.23474">
        <ele>439.5</ele>
        <time>2018-09-24T12:26:59Z</time>
      </trkpt>
      <trkpt lat="45.80167" lon="4.23479">
        <ele>440.186</ele>
        <time>2018-09-24T12:27:04Z</time>
      </trkpt>
      <trkpt lat="45.80173" lon="4.23482">
        <ele>440.785</ele>
        <time>2018-09-24T12:27:10Z</time>
      </trkpt>
      <trkpt lat="45.80179" lon="4.23487">
        <ele>441.459</ele>
        <time>2018-09-24T12:27:15Z</time>
      </trkpt>
      <trkpt lat="45.80184" lon="4.23493">
        <ele>442.214</ele>
        <time>2018-09-24T12:27:21Z</time>
      </trkpt>
      <trkpt lat="45.80189" lon="4.23498">
        <ele>443.046</ele>
        <time>2018-09-24T12:27:27Z</time>
      </trkpt>
      <trkpt lat="45.80193" lon="4.23503">
        <ele>443.565</ele>
        <time>2018-09-24T12:27:32Z</time>
      </trkpt>
      <trkpt lat="45.80196" lon="4.23506">
        <ele>443.969</ele>
        <time>2018-09-24T12:27:37Z</time>
      </trkpt>
      <trkpt lat="45.80201" lon="4.23512">
        <ele>444.536</ele>
        <time>2018-09-24T12:27:43Z</time>
      </trkpt>
      <trkpt lat="45.80205" lon="4.23516">
        <ele>445.064</ele>
        <time>2018-09-24T12:27:48Z</time>
      </trkpt>
      <trkpt lat="45.80211" lon="4.23523">
        <ele>445.805</ele>
        <time>2018-09-24T12:27:54Z</time>
      </trkpt>
      <trkpt lat="45.80215" lon="4.23529">
        <ele>446.257</ele>
        <time>2018-09-24T12:27:59Z</time>
      </trkpt>
      <trkpt lat="45.80219" lon="4.23537">
        <ele>446.875</ele>
        <time>2018-09-24T12:28:05Z</time>
      </trkpt>
      <trkpt lat="45.80224" lon="4.23542">
        <ele>447.448</ele>
        <time>2018-09-24T12:28:10Z</time>
      </trkpt>
      <trkpt lat="45.80228" lon="4.23548">
        <ele>448.276</ele>
        <time>2018-09-24T12:28:16Z</time>
      </trkpt>
      <trkpt lat="45.80233" lon="4.23555">
        <ele>449.214</ele>
        <time>2018-09-24T12:28:22Z</time>
      </trkpt>
      <trkpt lat="45.80238" lon="4.23562">
        <ele>449.753</ele>
        <time>2018-09-24T12:28:27Z</time>
      </trkpt>
      <trkpt lat="45.80242" lon="4.23568">
        <ele>450.435</ele>
        <time>2018-09-24T12:28:32Z</time>
      </trkpt>
      <trkpt lat="45.80245" lon="4.23575">
        <ele>451.096</ele>
        <time>2018-09-24T12:28:37Z</time>
      </trkpt>
      <trkpt lat="45.80248" lon="4.23582">
        <ele>451.775</ele>
        <time>2018-09-24T12:28:42Z</time>
      </trkpt>
      <trkpt lat="45.80251" lon="4.2359">
        <ele>452.2</ele>
        <time>2018-09-24T12:28:48Z</time>
      </trkpt>
      <trkpt lat="45.80255" lon="4.23598">
        <ele>452.514</ele>
        <time>2018-09-24T12:28:54Z</time>
      </trkpt>
      <trkpt lat="45.8026" lon="4.23604">
        <ele>452.886</ele>
        <time>2018-09-24T12:28:59Z</time>
      </trkpt>
      <trkpt lat="45.80264" lon="4.23612">
        <ele>453.605</ele>
        <time>2018-09-24T12:29:05Z</time>
      </trkpt>
      <trkpt lat="45.80268" lon="4.23618">
        <ele>454.342</ele>
        <time>2018-09-24T12:29:10Z</time>
      </trkpt>
      <trkpt lat="45.80272" lon="4.23622">
        <ele>455.011</ele>
        <time>2018-09-24T12:29:16Z</time>
      </trkpt>
      <trkpt lat="45.80276" lon="4.23632">
        <ele>455.538</ele>
        <time>2018-09-24T12:29:22Z</time>
      </trkpt>
      <trkpt lat="45.80277" lon="4.2364">
        <ele>455.987</ele>
        <time>2018-09-24T12:29:27Z</time>
      </trkpt>
      <trkpt lat="45.8028" lon="4.2365">
        <ele>456.78</ele>
        <time>2018-09-24T12:29:33Z</time>
      </trkpt>
      <trkpt lat="45.80283" lon="4.23659">
        <ele>457.527</ele>
        <time>2018-09-24T12:29:38Z</time>
      </trkpt>
      <trkpt lat="45.80285" lon="4.23666">
        <ele>458.47</ele>
        <time>2018-09-24T12:29:44Z</time>
      </trkpt>
      <trkpt lat="45.80285" lon="4.23675">
        <ele>459.509</ele>
        <time>2018-09-24T12:29:50Z</time>
      </trkpt>
      <trkpt lat="45.80285" lon="4.23683">
        <ele>460.359</ele>
        <time>2018-09-24T12:29:55Z</time>
      </trkpt>
      <trkpt lat="45.80286" lon="4.23691">
        <ele>460.879</ele>
        <time>2018-09-24T12:30:01Z</time>
      </trkpt>
      <trkpt lat="45.80287" lon="4.23697">
        <ele>461.203</ele>
        <time>2018-09-24T12:30:06Z</time>
      </trkpt>
      <trkpt lat="45.80287" lon="4.23705">
        <ele>461.489</ele>
        <time>2018-09-24T12:30:12Z</time>
      </trkpt>
      <trkpt lat="45.80289" lon="4.23716">
        <ele>461.968</ele>
        <time>2018-09-24T12:30:18Z</time>
      </trkpt>
      <trkpt lat="45.80291" lon="4.23727">
        <ele>462.543</ele>
        <time>2018-09-24T12:30:24Z</time>
      </trkpt>
      <trkpt lat="45.80294" lon="4.23735">
        <ele>463.066</ele>
        <time>2018-09-24T12:30:30Z</time>
      </trkpt>
      <trkpt lat="45.80296" lon="4.23745">
        <ele>464.015</ele>
        <time>2018-09-24T12:30:35Z</time>
      </trkpt>
      <trkpt lat="45.80299" lon="4.23754">
        <ele>464.926</ele>
        <time>2018-09-24T12:30:41Z</time>
      </trkpt>
      <trkpt lat="45.80301" lon="4.23761">
        <ele>465.637</ele>
        <time>2018-09-24T12:30:46Z</time>
      </trkpt>
      <trkpt lat="45.80304" lon="4.2377">
        <ele>466.147</ele>
        <time>2018-09-24T12:30:51Z</time>
      </trkpt>
      <trkpt lat="45.80308" lon="4.23779">
        <ele>466.802</ele>
        <time>2018-09-24T12:30:57Z</time>
      </trkpt>
      <trkpt lat="45.80311" lon="4.23786">
        <ele>467.309</ele>
        <time>2018-09-24T12:31:02Z</time>
      </trkpt>
      <trkpt lat="45.80316" lon="4.23793">
        <ele>468.004</ele>
        <time>2018-09-24T12:31:08Z</time>
      </trkpt>
      <trkpt lat="45.8032" lon="4.23801">
        <ele>468.449</ele>
        <time>2018-09-24T12:31:13Z</time>
      </trkpt>
      <trkpt lat="45.80323" lon="4.2381">
        <ele>469.061</ele>
        <time>2018-09-24T12:31:19Z</time>
      </trkpt>
      <trkpt lat="45.80325" lon="4.23818">
        <ele>469.414</ele>
        <time>2018-09-24T12:31:24Z</time>
      </trkpt>
      <trkpt lat="45.80329" lon="4.23825">
        <ele>470.147</ele>
        <time>2018-09-24T12:31:30Z</time>
      </trkpt>
      <trkpt lat="45.80332" lon="4.23835">
        <ele>470.86</ele>
        <time>2018-09-24T12:31:35Z</time>
      </trkpt>
      <trkpt lat="45.80335" lon="4.2384">
        <ele>471.952</ele>
        <time>2018-09-24T12:31:41Z</time>
      </trkpt>
      <trkpt lat="45.8034" lon="4.23849">
        <ele>473.652</ele>
        <time>2018-09-24T12:31:47Z</time>
      </trkpt>
      <trkpt lat="45.80343" lon="4.23858">
        <ele>475</ele>
        <time>2018-09-24T12:31:53Z</time>
      </trkpt>
      <trkpt lat="45.80346" lon="4.23866">
        <ele>475.866</ele>
        <time>2018-09-24T12:31:59Z</time>
      </trkpt>
      <trkpt lat="45.80348" lon="4.23875">
        <ele>476.573</ele>
        <time>2018-09-24T12:32:04Z</time>
      </trkpt>
      <trkpt lat="45.80351" lon="4.23882">
        <ele>477.169</ele>
        <time>2018-09-24T12:32:10Z</time>
      </trkpt>
      <trkpt lat="45.80353" lon="4.23889">
        <ele>477.476</ele>
        <time>2018-09-24T12:32:15Z</time>
      </trkpt>
      <trkpt lat="45.80356" lon="4.23898">
        <ele>478.167</ele>
        <time>2018-09-24T12:32:21Z</time>
      </trkpt>
      <trkpt lat="45.80359" lon="4.23907">
        <ele>478.662</ele>
        <time>2018-09-24T12:32:26Z</time>
      </trkpt>
      <trkpt lat="45.80362" lon="4.23917">
        <ele>479.311</ele>
        <time>2018-09-24T12:32:32Z</time>
      </trkpt>
      <trkpt lat="45.80366" lon="4.23925">
        <ele>480.205</ele>
        <time>2018-09-24T12:32:37Z</time>
      </trkpt>
      <trkpt lat="45.80369" lon="4.23933">
        <ele>481.181</ele>
        <time>2018-09-24T12:32:43Z</time>
      </trkpt>
      <trkpt lat="45.80372" lon="4.23942">
        <ele>482.15</ele>
        <time>2018-09-24T12:32:49Z</time>
      </trkpt>
      <trkpt lat="45.80376" lon="4.2395">
        <ele>483.14</ele>
        <time>2018-09-24T12:32:55Z</time>
      </trkpt>
      <trkpt lat="45.80379" lon="4.2396">
        <ele>483.831</ele>
        <time>2018-09-24T12:33:01Z</time>
      </trkpt>
      <trkpt lat="45.80384" lon="4.23966">
        <ele>484.381</ele>
        <time>2018-09-24T12:33:06Z</time>
      </trkpt>
      <trkpt lat="45.80389" lon="4.2397">
        <ele>485.261</ele>
        <time>2018-09-24T12:33:12Z</time>
      </trkpt>
      <trkpt lat="45.80393" lon="4.23976">
        <ele>485.967</ele>
        <time>2018-09-24T12:33:17Z</time>
      </trkpt>
      <trkpt lat="45.80399" lon="4.23983">
        <ele>486.886</ele>
        <time>2018-09-24T12:33:23Z</time>
      </trkpt>
      <trkpt lat="45.80404" lon="4.23989">
        <ele>487.366</ele>
        <time>2018-09-24T12:33:28Z</time>
      </trkpt>
      <trkpt lat="45.80408" lon="4.23993">
        <ele>487.604</ele>
        <time>2018-09-24T12:33:34Z</time>
      </trkpt>
      <trkpt lat="45.80409" lon="4.23992">
        <ele>488.421</ele>
        <time>2018-09-24T12:33:40Z</time>
      </trkpt>
      <trkpt lat="45.80409" lon="4.23994">
        <ele>489.097</ele>
        <time>2018-09-24T12:33:45Z</time>
      </trkpt>
      <trkpt lat="45.80414" lon="4.23998">
        <ele>489.803</ele>
        <time>2018-09-24T12:33:51Z</time>
      </trkpt>
      <trkpt lat="45.80418" lon="4.24001">
        <ele>489.962</ele>
        <time>2018-09-24T12:33:56Z</time>
      </trkpt>
      <trkpt lat="45.80423" lon="4.24006">
        <ele>490.275</ele>
        <time>2018-09-24T12:34:02Z</time>
      </trkpt>
      <trkpt lat="45.80427" lon="4.2401">
        <ele>490.651</ele>
        <time>2018-09-24T12:34:07Z</time>
      </trkpt>
      <trkpt lat="45.80432" lon="4.24013">
        <ele>491.228</ele>
        <time>2018-09-24T12:34:13Z</time>
      </trkpt>
      <trkpt lat="45.80436" lon="4.24015">
        <ele>491.757</ele>
        <time>2018-09-24T12:34:19Z</time>
      </trkpt>
      <trkpt lat="45.80441" lon="4.24017">
        <ele>492.274</ele>
        <time>2018-09-24T12:34:25Z</time>
      </trkpt>
      <trkpt lat="45.80446" lon="4.24021">
        <ele>492.509</ele>
        <time>2018-09-24T12:34:31Z</time>
      </trkpt>
      <trkpt lat="45.80449" lon="4.24022">
        <ele>492.814</ele>
        <time>2018-09-24T12:34:37Z</time>
      </trkpt>
      <trkpt lat="45.80455" lon="4.24025">
        <ele>493.209</ele>
        <time>2018-09-24T12:34:43Z</time>
      </trkpt>
      <trkpt lat="45.80459" lon="4.24026">
        <ele>493.387</ele>
        <time>2018-09-24T12:34:48Z</time>
      </trkpt>
      <trkpt lat="45.80461" lon="4.24023">
        <ele>494.029</ele>
        <time>2018-09-24T12:34:54Z</time>
      </trkpt>
      <trkpt lat="45.80461" lon="4.24022">
        <ele>494.369</ele>
        <time>2018-09-24T12:35:00Z</time>
      </trkpt>
      <trkpt lat="45.8046" lon="4.24021">
        <ele>495.035</ele>
        <time>2018-09-24T12:35:06Z</time>
      </trkpt>
      <trkpt lat="45.80459" lon="4.24022">
        <ele>495.523</ele>
        <time>2018-09-24T12:35:11Z</time>
      </trkpt>
      <trkpt lat="45.80459" lon="4.24023">
        <ele>496.072</ele>
        <time>2018-09-24T12:35:17Z</time>
      </trkpt>
      <trkpt lat="45.8046" lon="4.24023">
        <ele>496.411</ele>
        <time>2018-09-24T12:35:22Z</time>
      </trkpt>
      <trkpt lat="45.8046" lon="4.24023">
        <ele>496.367</ele>
        <time>2018-09-24T12:35:28Z</time>
      </trkpt>
      <trkpt lat="45.80459" lon="4.24021">
        <ele>496.426</ele>
        <time>2018-09-24T12:35:34Z</time>
      </trkpt>
      <trkpt lat="45.80464" lon="4.24018">
        <ele>496.183</ele>
        <time>2018-09-24T12:35:39Z</time>
      </trkpt>
      <trkpt lat="45.80467" lon="4.24017">
        <ele>496.162</ele>
        <time>2018-09-24T12:35:44Z</time>
      </trkpt>
      <trkpt lat="45.8047" lon="4.24016">
        <ele>496.316</ele>
        <time>2018-09-24T12:35:50Z</time>
      </trkpt>
      <trkpt lat="45.80469" lon="4.24016">
        <ele>496.413</ele>
        <time>2018-09-24T12:35:55Z</time>
      </trkpt>
      <trkpt lat="45.80469" lon="4.24016">
        <ele>496.731</ele>
        <time>2018-09-24T12:36:01Z</time>
      </trkpt>
      <trkpt lat="45.80471" lon="4.24015">
        <ele>497.032</ele>
        <time>2018-09-24T12:36:06Z</time>
      </trkpt>
      <trkpt lat="45.80471" lon="4.24015">
        <ele>497.182</ele>
        <time>2018-09-24T12:36:12Z</time>
      </trkpt>
      <trkpt lat="45.80471" lon="4.24014">
        <ele>497.283</ele>
        <time>2018-09-24T12:36:17Z</time>
      </trkpt>
      <trkpt lat="45.80471" lon="4.24012">
        <ele>497.593</ele>
        <time>2018-09-24T12:36:23Z</time>
      </trkpt>
      <trkpt lat="45.80471" lon="4.2401">
        <ele>497.878</ele>
        <time>2018-09-24T12:36:28Z</time>
      </trkpt>
      <trkpt lat="45.8047" lon="4.24011">
        <ele>498.097</ele>
        <time>2018-09-24T12:36:34Z</time>
      </trkpt>
      <trkpt lat="45.8047" lon="4.24011">
        <ele>498.407</ele>
        <time>2018-09-24T12:36:40Z</time>
      </trkpt>
      <trkpt lat="45.80471" lon="4.24011">
        <ele>498.573</ele>
        <time>2018-09-24T12:36:45Z</time>
      </trkpt>
      <trkpt lat="45.80471" lon="4.24011">
        <ele>498.754</ele>
        <time>2018-09-24T12:36:51Z</time>
      </trkpt>
      <trkpt lat="45.80471" lon="4.24012">
        <ele>498.798</ele>
        <time>2018-09-24T12:36:57Z</time>
      </trkpt>
      <trkpt lat="45.80469" lon="4.24012">
        <ele>498.997</ele>
        <time>2018-09-24T12:37:02Z</time>
      </trkpt>
      <trkpt lat="45.80468" lon="4.24011">
        <ele>499.444</ele>
        <time>2018-09-24T12:37:08Z</time>
      </trkpt>
      <trkpt lat="45.80468" lon="4.2401">
        <ele>499.718</ele>
        <time>2018-09-24T12:37:14Z</time>
      </trkpt>
      <trkpt lat="45.80468" lon="4.2401">
        <ele>500.065</ele>
        <time>2018-09-24T12:37:19Z</time>
      </trkpt>
      <trkpt lat="45.80469" lon="4.2401">
        <ele>500.606</ele>
        <time>2018-09-24T12:37:25Z</time>
      </trkpt>
      <trkpt lat="45.80469" lon="4.24011">
        <ele>500.572</ele>
        <time>2018-09-24T12:37:31Z</time>
      </trkpt>
      <trkpt lat="45.80469" lon="4.24012">
        <ele>500.659</ele>
        <time>2018-09-24T12:37:36Z</time>
      </trkpt>
      <trkpt lat="45.80468" lon="4.24011">
        <ele>500.837</ele>
        <time>2018-09-24T12:37:41Z</time>
      </trkpt>
      <trkpt lat="45.80469" lon="4.24011">
        <ele>501.177</ele>
        <time>2018-09-24T12:37:47Z</time>
      </trkpt>
      <trkpt lat="45.8047" lon="4.2401">
        <ele>501.298</ele>
        <time>2018-09-24T12:37:52Z</time>
      </trkpt>
      <trkpt lat="45.80471" lon="4.2401">
        <ele>501.251</ele>
        <time>2018-09-24T12:37:58Z</time>
      </trkpt>
      <trkpt lat="45.80471" lon="4.24011">
        <ele>501.226</ele>
        <time>2018-09-24T12:38:03Z</time>
      </trkpt>
      <trkpt lat="45.80472" lon="4.24014">
        <ele>501.288</ele>
        <time>2018-09-24T12:38:09Z</time>
      </trkpt>
      <trkpt lat="45.80474" lon="4.24014">
        <ele>500.942</ele>
        <time>2018-09-24T12:38:15Z</time>
      </trkpt>
      <trkpt lat="45.80475" lon="4.24012">
        <ele>500.433</ele>
        <time>2018-09-24T12:38:21Z</time>
      </trkpt>
      <trkpt lat="45.80475" lon="4.24012">
        <ele>500.15</ele>
        <time>2018-09-24T12:38:27Z</time>
      </trkpt>
      <trkpt lat="45.80476" lon="4.24014">
        <ele>499.875</ele>
        <time>2018-09-24T12:38:33Z</time>
      </trkpt>
      <trkpt lat="45.80476" lon="4.24014">
        <ele>499.833</ele>
        <time>2018-09-24T12:38:38Z</time>
      </trkpt>
      <trkpt lat="45.80476" lon="4.24014">
        <ele>499.664</ele>
        <time>2018-09-24T12:38:44Z</time>
      </trkpt>
      <trkpt lat="45.80476" lon="4.24014">
        <ele>499.573</ele>
        <time>2018-09-24T12:38:50Z</time>
      </trkpt>
      <trkpt lat="45.80476" lon="4.24014">
        <ele>499.464</ele>
        <time>2018-09-24T12:38:55Z</time>
      </trkpt>
      <trkpt lat="45.80476" lon="4.24014">
        <ele>499.334</ele>
        <time>2018-09-24T12:39:01Z</time>
      </trkpt>
      <trkpt lat="45.80476" lon="4.24014">
        <ele>499.231</ele>
        <time>2018-09-24T12:39:06Z</time>
      </trkpt>
      <trkpt lat="45.80476" lon="4.24014">
        <ele>499.156</ele>
        <time>2018-09-24T12:39:12Z</time>
      </trkpt>
      <trkpt lat="45.80475" lon="4.24014">
        <ele>499.004</ele>
        <time>2018-09-24T12:39:18Z</time>
      </trkpt>
      <trkpt lat="45.80474" lon="4.24014">
        <ele>498.82</ele>
        <time>2018-09-24T12:39:24Z</time>
      </trkpt>
      <trkpt lat="45.80473" lon="4.24016">
        <ele>498.383</ele>
        <time>2018-09-24T12:39:29Z</time>
      </trkpt>
      <trkpt lat="45.80469" lon="4.24015">
        <ele>497.854</ele>
        <time>2018-09-24T12:39:35Z</time>
      </trkpt>
      <trkpt lat="45.80467" lon="4.24018">
        <ele>497.925</ele>
        <time>2018-09-24T12:39:40Z</time>
      </trkpt>
      <trkpt lat="45.80465" lon="4.24019">
        <ele>497.667</ele>
        <time>2018-09-24T12:39:46Z</time>
      </trkpt>
      <trkpt lat="45.80464" lon="4.2402">
        <ele>497.48</ele>
        <time>2018-09-24T12:39:51Z</time>
      </trkpt>
      <trkpt lat="45.80464" lon="4.2402">
        <ele>497.243</ele>
        <time>2018-09-24T12:39:57Z</time>
      </trkpt>
      <trkpt lat="45.80464" lon="4.2402">
        <ele>496.69</ele>
        <time>2018-09-24T12:40:02Z</time>
      </trkpt>
      <trkpt lat="45.80464" lon="4.2402">
        <ele>496.461</ele>
        <time>2018-09-24T12:40:08Z</time>
      </trkpt>
      <trkpt lat="45.80467" lon="4.24022">
        <ele>496.223</ele>
        <time>2018-09-24T12:40:14Z</time>
      </trkpt>
      <trkpt lat="45.80471" lon="4.24024">
        <ele>495.93</ele>
        <time>2018-09-24T12:40:19Z</time>
      </trkpt>
      <trkpt lat="45.80475" lon="4.24025">
        <ele>495.575</ele>
        <time>2018-09-24T12:40:25Z</time>
      </trkpt>
      <trkpt lat="45.80478" lon="4.24027">
        <ele>494.948</ele>
        <time>2018-09-24T12:40:31Z</time>
      </trkpt>
      <trkpt lat="45.80482" lon="4.24028">
        <ele>494.998</ele>
        <time>2018-09-24T12:40:37Z</time>
      </trkpt>
      <trkpt lat="45.80489" lon="4.24034">
        <ele>494.972</ele>
        <time>2018-09-24T12:40:43Z</time>
      </trkpt>
      <trkpt lat="45.80495" lon="4.2404">
        <ele>494.572</ele>
        <time>2018-09-24T12:40:48Z</time>
      </trkpt>
      <trkpt lat="45.805" lon="4.24044">
        <ele>494.851</ele>
        <time>2018-09-24T12:40:54Z</time>
      </trkpt>
      <trkpt lat="45.80505" lon="4.24048">
        <ele>494.894</ele>
        <time>2018-09-24T12:41:00Z</time>
      </trkpt>
      <trkpt lat="45.8051" lon="4.24052">
        <ele>494.989</ele>
        <time>2018-09-24T12:41:05Z</time>
      </trkpt>
      <trkpt lat="45.80517" lon="4.24058">
        <ele>495.123</ele>
        <time>2018-09-24T12:41:11Z</time>
      </trkpt>
      <trkpt lat="45.80523" lon="4.24062">
        <ele>495.59</ele>
        <time>2018-09-24T12:41:17Z</time>
      </trkpt>
      <trkpt lat="45.80528" lon="4.24064">
        <ele>496</ele>
        <time>2018-09-24T12:41:22Z</time>
      </trkpt>
      <trkpt lat="45.80533" lon="4.24068">
        <ele>496.182</ele>
        <time>2018-09-24T12:41:28Z</time>
      </trkpt>
      <trkpt lat="45.80539" lon="4.24073">
        <ele>496.524</ele>
        <time>2018-09-24T12:41:34Z</time>
      </trkpt>
      <trkpt lat="45.80544" lon="4.24077">
        <ele>496.785</ele>
        <time>2018-09-24T12:41:39Z</time>
      </trkpt>
      <trkpt lat="45.80549" lon="4.24081">
        <ele>496.985</ele>
        <time>2018-09-24T12:41:44Z</time>
      </trkpt>
      <trkpt lat="45.80554" lon="4.24084">
        <ele>497.389</ele>
        <time>2018-09-24T12:41:49Z</time>
      </trkpt>
      <trkpt lat="45.80558" lon="4.24088">
        <ele>497.674</ele>
        <time>2018-09-24T12:41:55Z</time>
      </trkpt>
      <trkpt lat="45.80563" lon="4.24092">
        <ele>497.973</ele>
        <time>2018-09-24T12:42:01Z</time>
      </trkpt>
      <trkpt lat="45.80568" lon="4.24095">
        <ele>498.211</ele>
        <time>2018-09-24T12:42:06Z</time>
      </trkpt>
      <trkpt lat="45.80573" lon="4.24099">
        <ele>498.504</ele>
        <time>2018-09-24T12:42:12Z</time>
      </trkpt>
      <trkpt lat="45.80578" lon="4.24103">
        <ele>499.036</ele>
        <time>2018-09-24T12:42:18Z</time>
      </trkpt>
      <trkpt lat="45.80583" lon="4.24104">
        <ele>499.615</ele>
        <time>2018-09-24T12:42:23Z</time>
      </trkpt>
      <trkpt lat="45.80588" lon="4.24107">
        <ele>500.054</ele>
        <time>2018-09-24T12:42:29Z</time>
      </trkpt>
      <trkpt lat="45.80592" lon="4.2411">
        <ele>500.401</ele>
        <time>2018-09-24T12:42:35Z</time>
      </trkpt>
      <trkpt lat="45.80597" lon="4.24113">
        <ele>500.853</ele>
        <time>2018-09-24T12:42:40Z</time>
      </trkpt>
      <trkpt lat="45.80602" lon="4.24116">
        <ele>501.502</ele>
        <time>2018-09-24T12:42:46Z</time>
      </trkpt>
      <trkpt lat="45.80605" lon="4.24119">
        <ele>501.787</ele>
        <time>2018-09-24T12:42:51Z</time>
      </trkpt>
      <trkpt lat="45.80611" lon="4.24123">
        <ele>501.991</ele>
        <time>2018-09-24T12:42:57Z</time>
      </trkpt>
      <trkpt lat="45.80615" lon="4.24126">
        <ele>502.361</ele>
        <time>2018-09-24T12:43:02Z</time>
      </trkpt>
      <trkpt lat="45.80619" lon="4.24128">
        <ele>502.597</ele>
        <time>2018-09-24T12:43:07Z</time>
      </trkpt>
      <trkpt lat="45.80624" lon="4.24134">
        <ele>503.412</ele>
        <time>2018-09-24T12:43:13Z</time>
      </trkpt>
      <trkpt lat="45.8063" lon="4.2414">
        <ele>503.946</ele>
        <time>2018-09-24T12:43:19Z</time>
      </trkpt>
      <trkpt lat="45.80633" lon="4.24143">
        <ele>504.392</ele>
        <time>2018-09-24T12:43:24Z</time>
      </trkpt>
      <trkpt lat="45.80638" lon="4.24146">
        <ele>505.017</ele>
        <time>2018-09-24T12:43:30Z</time>
      </trkpt>
      <trkpt lat="45.80642" lon="4.24149">
        <ele>505.861</ele>
        <time>2018-09-24T12:43:36Z</time>
      </trkpt>
      <trkpt lat="45.80648" lon="4.2415">
        <ele>506.51</ele>
        <time>2018-09-24T12:43:41Z</time>
      </trkpt>
      <trkpt lat="45.80653" lon="4.24152">
        <ele>507.188</ele>
        <time>2018-09-24T12:43:47Z</time>
      </trkpt>
      <trkpt lat="45.80658" lon="4.24151">
        <ele>507.906</ele>
        <time>2018-09-24T12:43:52Z</time>
      </trkpt>
      <trkpt lat="45.80664" lon="4.24151">
        <ele>508.934</ele>
        <time>2018-09-24T12:43:58Z</time>
      </trkpt>
      <trkpt lat="45.80669" lon="4.24152">
        <ele>509.54</ele>
        <time>2018-09-24T12:44:04Z</time>
      </trkpt>
      <trkpt lat="45.80676" lon="4.24153">
        <ele>510.251</ele>
        <time>2018-09-24T12:44:10Z</time>
      </trkpt>
      <trkpt lat="45.80681" lon="4.24154">
        <ele>510.969</ele>
        <time>2018-09-24T12:44:15Z</time>
      </trkpt>
      <trkpt lat="45.80686" lon="4.24155">
        <ele>511.572</ele>
        <time>2018-09-24T12:44:21Z</time>
      </trkpt>
      <trkpt lat="45.80687" lon="4.24155">
        <ele>512.026</ele>
        <time>2018-09-24T12:44:26Z</time>
      </trkpt>
      <trkpt lat="45.80687" lon="4.24155">
        <ele>512.323</ele>
        <time>2018-09-24T12:44:32Z</time>
      </trkpt>
      <trkpt lat="45.80686" lon="4.24156">
        <ele>513.057</ele>
        <time>2018-09-24T12:44:38Z</time>
      </trkpt>
      <trkpt lat="45.80687" lon="4.24157">
        <ele>513.731</ele>
        <time>2018-09-24T12:44:43Z</time>
      </trkpt>
      <trkpt lat="45.80687" lon="4.24157">
        <ele>514.234</ele>
        <time>2018-09-24T12:44:48Z</time>
      </trkpt>
      <trkpt lat="45.8069" lon="4.2416">
        <ele>514.5</ele>
        <time>2018-09-24T12:44:54Z</time>
      </trkpt>
      <trkpt lat="45.80697" lon="4.24159">
        <ele>514.618</ele>
        <time>2018-09-24T12:45:00Z</time>
      </trkpt>
      <trkpt lat="45.80701" lon="4.24156">
        <ele>514.646</ele>
        <time>2018-09-24T12:45:05Z</time>
      </trkpt>
      <trkpt lat="45.80704" lon="4.24154">
        <ele>515.061</ele>
        <time>2018-09-24T12:45:10Z</time>
      </trkpt>
      <trkpt lat="45.8071" lon="4.2415">
        <ele>515.315</ele>
        <time>2018-09-24T12:45:15Z</time>
      </trkpt>
      <trkpt lat="45.80714" lon="4.2415">
        <ele>515.734</ele>
        <time>2018-09-24T12:45:20Z</time>
      </trkpt>
      <trkpt lat="45.80717" lon="4.24148">
        <ele>516.074</ele>
        <time>2018-09-24T12:45:26Z</time>
      </trkpt>
      <trkpt lat="45.80722" lon="4.24149">
        <ele>516.273</ele>
        <time>2018-09-24T12:45:31Z</time>
      </trkpt>
      <trkpt lat="45.80727" lon="4.24149">
        <ele>516.57</ele>
        <time>2018-09-24T12:45:36Z</time>
      </trkpt>
      <trkpt lat="45.80733" lon="4.2415">
        <ele>516.755</ele>
        <time>2018-09-24T12:45:42Z</time>
      </trkpt>
      <trkpt lat="45.80739" lon="4.24153">
        <ele>517.012</ele>
        <time>2018-09-24T12:45:48Z</time>
      </trkpt>
      <trkpt lat="45.80744" lon="4.24155">
        <ele>517.314</ele>
        <time>2018-09-24T12:45:54Z</time>
      </trkpt>
      <trkpt lat="45.8075" lon="4.24156">
        <ele>517.808</ele>
        <time>2018-09-24T12:46:00Z</time>
      </trkpt>
      <trkpt lat="45.80757" lon="4.24159">
        <ele>518.225</ele>
        <time>2018-09-24T12:46:06Z</time>
      </trkpt>
      <trkpt lat="45.80763" lon="4.24161">
        <ele>518.615</ele>
        <time>2018-09-24T12:46:12Z</time>
      </trkpt>
      <trkpt lat="45.80767" lon="4.24161">
        <ele>518.957</ele>
        <time>2018-09-24T12:46:17Z</time>
      </trkpt>
      <trkpt lat="45.80773" lon="4.24165">
        <ele>519.162</ele>
        <time>2018-09-24T12:46:23Z</time>
      </trkpt>
      <trkpt lat="45.8078" lon="4.24168">
        <ele>519.553</ele>
        <time>2018-09-24T12:46:28Z</time>
      </trkpt>
      <trkpt lat="45.80785" lon="4.24171">
        <ele>520.084</ele>
        <time>2018-09-24T12:46:34Z</time>
      </trkpt>
      <trkpt lat="45.80789" lon="4.24172">
        <ele>520.507</ele>
        <time>2018-09-24T12:46:39Z</time>
      </trkpt>
      <trkpt lat="45.80794" lon="4.24175">
        <ele>520.652</ele>
        <time>2018-09-24T12:46:45Z</time>
      </trkpt>
      <trkpt lat="45.80798" lon="4.24177">
        <ele>520.843</ele>
        <time>2018-09-24T12:46:50Z</time>
      </trkpt>
      <trkpt lat="45.80805" lon="4.24181">
        <ele>520.999</ele>
        <time>2018-09-24T12:46:55Z</time>
      </trkpt>
      <trkpt lat="45.8081" lon="4.24182">
        <ele>521.333</ele>
        <time>2018-09-24T12:47:00Z</time>
      </trkpt>
      <trkpt lat="45.80817" lon="4.24185">
        <ele>521.768</ele>
        <time>2018-09-24T12:47:06Z</time>
      </trkpt>
      <trkpt lat="45.80821" lon="4.24187">
        <ele>521.882</ele>
        <time>2018-09-24T12:47:11Z</time>
      </trkpt>
      <trkpt lat="45.80827" lon="4.2419">
        <ele>521.898</ele>
        <time>2018-09-24T12:47:16Z</time>
      </trkpt>
      <trkpt lat="45.80833" lon="4.24194">
        <ele>522.09</ele>
        <time>2018-09-24T12:47:22Z</time>
      </trkpt>
      <trkpt lat="45.80838" lon="4.24198">
        <ele>522.537</ele>
        <time>2018-09-24T12:47:28Z</time>
      </trkpt>
      <trkpt lat="45.80846" lon="4.24203">
        <ele>522.734</ele>
        <time>2018-09-24T12:47:34Z</time>
      </trkpt>
      <trkpt lat="45.80852" lon="4.24207">
        <ele>522.903</ele>
        <time>2018-09-24T12:47:39Z</time>
      </trkpt>
      <trkpt lat="45.80856" lon="4.24212">
        <ele>523.112</ele>
        <time>2018-09-24T12:47:44Z</time>
      </trkpt>
      <trkpt lat="45.80862" lon="4.24218">
        <ele>523.331</ele>
        <time>2018-09-24T12:47:50Z</time>
      </trkpt>
      <trkpt lat="45.80868" lon="4.24223">
        <ele>523.696</ele>
        <time>2018-09-24T12:47:56Z</time>
      </trkpt>
      <trkpt lat="45.80875" lon="4.24229">
        <ele>523.955</ele>
        <time>2018-09-24T12:48:02Z</time>
      </trkpt>
      <trkpt lat="45.8088" lon="4.24232">
        <ele>524.217</ele>
        <time>2018-09-24T12:48:07Z</time>
      </trkpt>
      <trkpt lat="45.80885" lon="4.24235">
        <ele>524.49</ele>
        <time>2018-09-24T12:48:12Z</time>
      </trkpt>
      <trkpt lat="45.8089" lon="4.24239">
        <ele>524.691</ele>
        <time>2018-09-24T12:48:17Z</time>
      </trkpt>
      <trkpt lat="45.80896" lon="4.24241">
        <ele>525.086</ele>
        <time>2018-09-24T12:48:23Z</time>
      </trkpt>
      <trkpt lat="45.80902" lon="4.24244">
        <ele>525.185</ele>
        <time>2018-09-24T12:48:28Z</time>
      </trkpt>
      <trkpt lat="45.80908" lon="4.24247">
        <ele>525.572</ele>
        <time>2018-09-24T12:48:34Z</time>
      </trkpt>
      <trkpt lat="45.80913" lon="4.2425">
        <ele>526.121</ele>
        <time>2018-09-24T12:48:39Z</time>
      </trkpt>
      <trkpt lat="45.8092" lon="4.24251">
        <ele>526.833</ele>
        <time>2018-09-24T12:48:45Z</time>
      </trkpt>
      <trkpt lat="45.80926" lon="4.24251">
        <ele>527.089</ele>
        <time>2018-09-24T12:48:50Z</time>
      </trkpt>
      <trkpt lat="45.80934" lon="4.24251">
        <ele>527.417</ele>
        <time>2018-09-24T12:48:56Z</time>
      </trkpt>
      <trkpt lat="45.80941" lon="4.2425">
        <ele>527.779</ele>
        <time>2018-09-24T12:49:02Z</time>
      </trkpt>
      <trkpt lat="45.80949" lon="4.2425">
        <ele>527.921</ele>
        <time>2018-09-24T12:49:08Z</time>
      </trkpt>
      <trkpt lat="45.80954" lon="4.2425">
        <ele>528.334</ele>
        <time>2018-09-24T12:49:13Z</time>
      </trkpt>
      <trkpt lat="45.8096" lon="4.24249">
        <ele>528.776</ele>
        <time>2018-09-24T12:49:19Z</time>
      </trkpt>
      <trkpt lat="45.80967" lon="4.24248">
        <ele>529.149</ele>
        <time>2018-09-24T12:49:25Z</time>
      </trkpt>
      <trkpt lat="45.80972" lon="4.24247">
        <ele>529.471</ele>
        <time>2018-09-24T12:49:30Z</time>
      </trkpt>
      <trkpt lat="45.80979" lon="4.24247">
        <ele>529.749</ele>
        <time>2018-09-24T12:49:36Z</time>
      </trkpt>
      <trkpt lat="45.80986" lon="4.24247">
        <ele>530.022</ele>
        <time>2018-09-24T12:49:41Z</time>
      </trkpt>
      <trkpt lat="45.80993" lon="4.24246">
        <ele>530.226</ele>
        <time>2018-09-24T12:49:47Z</time>
      </trkpt>
      <trkpt lat="45.80998" lon="4.24246">
        <ele>530.644</ele>
        <time>2018-09-24T12:49:52Z</time>
      </trkpt>
      <trkpt lat="45.81004" lon="4.24245">
        <ele>530.992</ele>
        <time>2018-09-24T12:49:58Z</time>
      </trkpt>
      <trkpt lat="45.81011" lon="4.24245">
        <ele>531.376</ele>
        <time>2018-09-24T12:50:03Z</time>
      </trkpt>
      <trkpt lat="45.81017" lon="4.24246">
        <ele>531.706</ele>
        <time>2018-09-24T12:50:08Z</time>
      </trkpt>
      <trkpt lat="45.81023" lon="4.24246">
        <ele>531.917</ele>
        <time>2018-09-24T12:50:14Z</time>
      </trkpt>
      <trkpt lat="45.81027" lon="4.24246">
        <ele>532.289</ele>
        <time>2018-09-24T12:50:19Z</time>
      </trkpt>
      <trkpt lat="45.81033" lon="4.24246">
        <ele>532.396</ele>
        <time>2018-09-24T12:50:24Z</time>
      </trkpt>
      <trkpt lat="45.81039" lon="4.24247">
        <ele>532.35</ele>
        <time>2018-09-24T12:50:30Z</time>
      </trkpt>
      <trkpt lat="45.81047" lon="4.24247">
        <ele>532.269</ele>
        <time>2018-09-24T12:50:36Z</time>
      </trkpt>
      <trkpt lat="45.81054" lon="4.24245">
        <ele>532.301</ele>
        <time>2018-09-24T12:50:42Z</time>
      </trkpt>
      <trkpt lat="45.81062" lon="4.24246">
        <ele>532.32</ele>
        <time>2018-09-24T12:50:48Z</time>
      </trkpt>
      <trkpt lat="45.81067" lon="4.24247">
        <ele>532.854</ele>
        <time>2018-09-24T12:50:53Z</time>
      </trkpt>
      <trkpt lat="45.81074" lon="4.24246">
        <ele>533.294</ele>
        <time>2018-09-24T12:50:59Z</time>
      </trkpt>
      <trkpt lat="45.8108" lon="4.24246">
        <ele>533.87</ele>
        <time>2018-09-24T12:51:05Z</time>
      </trkpt>
      <trkpt lat="45.81087" lon="4.24244">
        <ele>534.363</ele>
        <time>2018-09-24T12:51:10Z</time>
      </trkpt>
      <trkpt lat="45.81095" lon="4.24247">
        <ele>534.631</ele>
        <time>2018-09-24T12:51:16Z</time>
      </trkpt>
      <trkpt lat="45.811" lon="4.24246">
        <ele>534.818</ele>
        <time>2018-09-24T12:51:22Z</time>
      </trkpt>
      <trkpt lat="45.81106" lon="4.24245">
        <ele>534.864</ele>
        <time>2018-09-24T12:51:27Z</time>
      </trkpt>
      <trkpt lat="45.81112" lon="4.24244">
        <ele>534.739</ele>
        <time>2018-09-24T12:51:32Z</time>
      </trkpt>
      <trkpt lat="45.81117" lon="4.24246">
        <ele>534.606</ele>
        <time>2018-09-24T12:51:37Z</time>
      </trkpt>
      <trkpt lat="45.81123" lon="4.24245">
        <ele>534.547</ele>
        <time>2018-09-24T12:51:43Z</time>
      </trkpt>
      <trkpt lat="45.81129" lon="4.24246">
        <ele>534.519</ele>
        <time>2018-09-24T12:51:48Z</time>
      </trkpt>
      <trkpt lat="45.81137" lon="4.24247">
        <ele>534.244</ele>
        <time>2018-09-24T12:51:54Z</time>
      </trkpt>
      <trkpt lat="45.81144" lon="4.24248">
        <ele>534.254</ele>
        <time>2018-09-24T12:52:00Z</time>
      </trkpt>
      <trkpt lat="45.81152" lon="4.24247">
        <ele>534.331</ele>
        <time>2018-09-24T12:52:06Z</time>
      </trkpt>
      <trkpt lat="45.81159" lon="4.24248">
        <ele>534.525</ele>
        <time>2018-09-24T12:52:12Z</time>
      </trkpt>
      <trkpt lat="45.81166" lon="4.24248">
        <ele>534.713</ele>
        <time>2018-09-24T12:52:17Z</time>
      </trkpt>
      <trkpt lat="45.81173" lon="4.24248">
        <ele>535.046</ele>
        <time>2018-09-24T12:52:23Z</time>
      </trkpt>
      <trkpt lat="45.81177" lon="4.24248">
        <ele>535.555</ele>
        <time>2018-09-24T12:52:28Z</time>
      </trkpt>
      <trkpt lat="45.81186" lon="4.24247">
        <ele>536.213</ele>
        <time>2018-09-24T12:52:34Z</time>
      </trkpt>
      <trkpt lat="45.81193" lon="4.24248">
        <ele>536.733</ele>
        <time>2018-09-24T12:52:39Z</time>
      </trkpt>
      <trkpt lat="45.81202" lon="4.24247">
        <ele>537.516</ele>
        <time>2018-09-24T12:52:45Z</time>
      </trkpt>
      <trkpt lat="45.8121" lon="4.24247">
        <ele>538.197</ele>
        <time>2018-09-24T12:52:51Z</time>
      </trkpt>
      <trkpt lat="45.81218" lon="4.24249">
        <ele>538.919</ele>
        <time>2018-09-24T12:52:57Z</time>
      </trkpt>
      <trkpt lat="45.81225" lon="4.24249">
        <ele>538.97</ele>
        <time>2018-09-24T12:53:03Z</time>
      </trkpt>
      <trkpt lat="45.81234" lon="4.2425">
        <ele>539.282</ele>
        <time>2018-09-24T12:53:09Z</time>
      </trkpt>
      <trkpt lat="45.81241" lon="4.24251">
        <ele>539.651</ele>
        <time>2018-09-24T12:53:14Z</time>
      </trkpt>
      <trkpt lat="45.81247" lon="4.24255">
        <ele>539.955</ele>
        <time>2018-09-24T12:53:20Z</time>
      </trkpt>
      <trkpt lat="45.81248" lon="4.24255">
        <ele>540.054</ele>
        <time>2018-09-24T12:53:25Z</time>
      </trkpt>
      <trkpt lat="45.8125" lon="4.24256">
        <ele>540.179</ele>
        <time>2018-09-24T12:53:30Z</time>
      </trkpt>
      <trkpt lat="45.81257" lon="4.24261">
        <ele>540.084</ele>
        <time>2018-09-24T12:53:36Z</time>
      </trkpt>
      <trkpt lat="45.81264" lon="4.24264">
        <ele>540.008</ele>
        <time>2018-09-24T12:53:41Z</time>
      </trkpt>
      <trkpt lat="45.81272" lon="4.24268">
        <ele>539.703</ele>
        <time>2018-09-24T12:53:47Z</time>
      </trkpt>
      <trkpt lat="45.81282" lon="4.24273">
        <ele>539.714</ele>
        <time>2018-09-24T12:53:53Z</time>
      </trkpt>
      <trkpt lat="45.81292" lon="4.24277">
        <ele>539.647</ele>
        <time>2018-09-24T12:53:59Z</time>
      </trkpt>
      <trkpt lat="45.81299" lon="4.24278">
        <ele>539.818</ele>
        <time>2018-09-24T12:54:04Z</time>
      </trkpt>
      <trkpt lat="45.81306" lon="4.24279">
        <ele>539.599</ele>
        <time>2018-09-24T12:54:10Z</time>
      </trkpt>
      <trkpt lat="45.81315" lon="4.24278">
        <ele>539.546</ele>
        <time>2018-09-24T12:54:15Z</time>
      </trkpt>
      <trkpt lat="45.81322" lon="4.24277">
        <ele>539.747</ele>
        <time>2018-09-24T12:54:20Z</time>
      </trkpt>
      <trkpt lat="45.8133" lon="4.24274">
        <ele>539.979</ele>
        <time>2018-09-24T12:54:25Z</time>
      </trkpt>
      <trkpt lat="45.81338" lon="4.24269">
        <ele>540.633</ele>
        <time>2018-09-24T12:54:31Z</time>
      </trkpt>
      <trkpt lat="45.81345" lon="4.24265">
        <ele>540.773</ele>
        <time>2018-09-24T12:54:37Z</time>
      </trkpt>
      <trkpt lat="45.81353" lon="4.24262">
        <ele>541.009</ele>
        <time>2018-09-24T12:54:43Z</time>
      </trkpt>
      <trkpt lat="45.81362" lon="4.24257">
        <ele>541.551</ele>
        <time>2018-09-24T12:54:49Z</time>
      </trkpt>
      <trkpt lat="45.8137" lon="4.24255">
        <ele>542.109</ele>
        <time>2018-09-24T12:54:54Z</time>
      </trkpt>
      <trkpt lat="45.81378" lon="4.24251">
        <ele>542.511</ele>
        <time>2018-09-24T12:55:00Z</time>
      </trkpt>
      <trkpt lat="45.81386" lon="4.24246">
        <ele>543.071</ele>
        <time>2018-09-24T12:55:06Z</time>
      </trkpt>
      <trkpt lat="45.81392" lon="4.24244">
        <ele>544.453</ele>
        <time>2018-09-24T12:55:11Z</time>
      </trkpt>
      <trkpt lat="45.81398" lon="4.24242">
        <ele>545.693</ele>
        <time>2018-09-24T12:55:17Z</time>
      </trkpt>
      <trkpt lat="45.81403" lon="4.24239">
        <ele>546.167</ele>
        <time>2018-09-24T12:55:22Z</time>
      </trkpt>
      <trkpt lat="45.81411" lon="4.24235">
        <ele>546.453</ele>
        <time>2018-09-24T12:55:27Z</time>
      </trkpt>
      <trkpt lat="45.8142" lon="4.24228">
        <ele>546.386</ele>
        <time>2018-09-24T12:55:32Z</time>
      </trkpt>
      <trkpt lat="45.81427" lon="4.24222">
        <ele>546.218</ele>
        <time>2018-09-24T12:55:38Z</time>
      </trkpt>
      <trkpt lat="45.81435" lon="4.24218">
        <ele>546.213</ele>
        <time>2018-09-24T12:55:44Z</time>
      </trkpt>
      <trkpt lat="45.81443" lon="4.24213">
        <ele>546.459</ele>
        <time>2018-09-24T12:55:49Z</time>
      </trkpt>
      <trkpt lat="45.81453" lon="4.24207">
        <ele>546.599</ele>
        <time>2018-09-24T12:55:55Z</time>
      </trkpt>
      <trkpt lat="45.81462" lon="4.24203">
        <ele>546.8</ele>
        <time>2018-09-24T12:56:01Z</time>
      </trkpt>
      <trkpt lat="45.81469" lon="4.24201">
        <ele>547.473</ele>
        <time>2018-09-24T12:56:07Z</time>
      </trkpt>
      <trkpt lat="45.81476" lon="4.24199">
        <ele>547.708</ele>
        <time>2018-09-24T12:56:12Z</time>
      </trkpt>
      <trkpt lat="45.81484" lon="4.24197">
        <ele>548.062</ele>
        <time>2018-09-24T12:56:17Z</time>
      </trkpt>
      <trkpt lat="45.8149" lon="4.24196">
        <ele>548.275</ele>
        <time>2018-09-24T12:56:23Z</time>
      </trkpt>
      <trkpt lat="45.815" lon="4.24195">
        <ele>548.405</ele>
        <time>2018-09-24T12:56:29Z</time>
      </trkpt>
      <trkpt lat="45.81507" lon="4.24191">
        <ele>548.7</ele>
        <time>2018-09-24T12:56:35Z</time>
      </trkpt>
      <trkpt lat="45.81515" lon="4.24189">
        <ele>548.996</ele>
        <time>2018-09-24T12:56:41Z</time>
      </trkpt>
      <trkpt lat="45.81523" lon="4.2419">
        <ele>548.891</ele>
        <time>2018-09-24T12:56:47Z</time>
      </trkpt>
      <trkpt lat="45.81533" lon="4.2419">
        <ele>549.163</ele>
        <time>2018-09-24T12:56:53Z</time>
      </trkpt>
      <trkpt lat="45.81541" lon="4.24191">
        <ele>549.355</ele>
        <time>2018-09-24T12:56:58Z</time>
      </trkpt>
      <trkpt lat="45.8155" lon="4.24189">
        <ele>549.239</ele>
        <time>2018-09-24T12:57:04Z</time>
      </trkpt>
      <trkpt lat="45.81557" lon="4.24188">
        <ele>549.081</ele>
        <time>2018-09-24T12:57:09Z</time>
      </trkpt>
      <trkpt lat="45.81558" lon="4.24184">
        <ele>549.046</ele>
        <time>2018-09-24T12:57:15Z</time>
      </trkpt>
      <trkpt lat="45.81559" lon="4.24184">
        <ele>549.611</ele>
        <time>2018-09-24T12:57:21Z</time>
      </trkpt>
      <trkpt lat="45.8156" lon="4.24184">
        <ele>550.279</ele>
        <time>2018-09-24T12:57:26Z</time>
      </trkpt>
      <trkpt lat="45.81561" lon="4.24182">
        <ele>550.6</ele>
        <time>2018-09-24T12:57:31Z</time>
      </trkpt>
      <trkpt lat="45.81558" lon="4.24181">
        <ele>550.261</ele>
        <time>2018-09-24T12:57:37Z</time>
      </trkpt>
      <trkpt lat="45.81556" lon="4.24181">
        <ele>549.92</ele>
        <time>2018-09-24T12:57:42Z</time>
      </trkpt>
      <trkpt lat="45.81556" lon="4.2418">
        <ele>549.871</ele>
        <time>2018-09-24T12:57:48Z</time>
      </trkpt>
      <trkpt lat="45.81556" lon="4.2418">
        <ele>550.492</ele>
        <time>2018-09-24T12:57:53Z</time>
      </trkpt>
      <trkpt lat="45.81557" lon="4.2418">
        <ele>550.648</ele>
        <time>2018-09-24T12:57:58Z</time>
      </trkpt>
      <trkpt lat="45.81556" lon="4.24184">
        <ele>550.528</ele>
        <time>2018-09-24T12:58:03Z</time>
      </trkpt>
      <trkpt lat="45.81556" lon="4.24186">
        <ele>550.418</ele>
        <time>2018-09-24T12:58:08Z</time>
      </trkpt>
      <trkpt lat="45.81557" lon="4.24188">
        <ele>550.464</ele>
        <time>2018-09-24T12:58:14Z</time>
      </trkpt>
      <trkpt lat="45.81557" lon="4.24186">
        <ele>550.508</ele>
        <time>2018-09-24T12:58:20Z</time>
      </trkpt>
      <trkpt lat="45.81559" lon="4.24183">
        <ele>550.475</ele>
        <time>2018-09-24T12:58:26Z</time>
      </trkpt>
      <trkpt lat="45.8156" lon="4.24182">
        <ele>550.063</ele>
        <time>2018-09-24T12:58:32Z</time>
      </trkpt>
      <trkpt lat="45.81559" lon="4.24182">
        <ele>550.032</ele>
        <time>2018-09-24T12:58:38Z</time>
      </trkpt>
      <trkpt lat="45.81558" lon="4.24183">
        <ele>549.84</ele>
        <time>2018-09-24T12:58:43Z</time>
      </trkpt>
      <trkpt lat="45.81562" lon="4.24183">
        <ele>549.916</ele>
        <time>2018-09-24T12:58:49Z</time>
      </trkpt>
      <trkpt lat="45.8157" lon="4.24183">
        <ele>550.002</ele>
        <time>2018-09-24T12:58:54Z</time>
      </trkpt>
      <trkpt lat="45.81576" lon="4.24184">
        <ele>550.244</ele>
        <time>2018-09-24T12:59:00Z</time>
      </trkpt>
      <trkpt lat="45.81582" lon="4.24182">
        <ele>550.222</ele>
        <time>2018-09-24T12:59:05Z</time>
      </trkpt>
      <trkpt lat="45.81589" lon="4.2418">
        <ele>549.874</ele>
        <time>2018-09-24T12:59:11Z</time>
      </trkpt>
      <trkpt lat="45.81597" lon="4.24178">
        <ele>549.489</ele>
        <time>2018-09-24T12:59:16Z</time>
      </trkpt>
      <trkpt lat="45.81604" lon="4.24179">
        <ele>549.403</ele>
        <time>2018-09-24T12:59:22Z</time>
      </trkpt>
      <trkpt lat="45.81609" lon="4.2418">
        <ele>549.748</ele>
        <time>2018-09-24T12:59:27Z</time>
      </trkpt>
      <trkpt lat="45.81614" lon="4.2418">
        <ele>550.041</ele>
        <time>2018-09-24T12:59:32Z</time>
      </trkpt>
      <trkpt lat="45.81618" lon="4.24178">
        <ele>550.455</ele>
        <time>2018-09-24T12:59:38Z</time>
      </trkpt>
      <trkpt lat="45.81628" lon="4.2418">
        <ele>550.716</ele>
        <time>2018-09-24T12:59:43Z</time>
      </trkpt>
      <trkpt lat="45.81635" lon="4.2418">
        <ele>550.747</ele>
        <time>2018-09-24T12:59:49Z</time>
      </trkpt>
      <trkpt lat="45.8164" lon="4.2418">
        <ele>550.849</ele>
        <time>2018-09-24T12:59:54Z</time>
      </trkpt>
      <trkpt lat="45.81642" lon="4.24181">
        <ele>551.044</ele>
        <time>2018-09-24T13:00:00Z</time>
      </trkpt>
      <trkpt lat="45.81648" lon="4.24183">
        <ele>551.589</ele>
        <time>2018-09-24T13:00:06Z</time>
      </trkpt>
      <trkpt lat="45.81655" lon="4.24185">
        <ele>552.07</ele>
        <time>2018-09-24T13:00:12Z</time>
      </trkpt>
      <trkpt lat="45.81662" lon="4.24187">
        <ele>552.208</ele>
        <time>2018-09-24T13:00:18Z</time>
      </trkpt>
      <trkpt lat="45.81667" lon="4.24188">
        <ele>551.497</ele>
        <time>2018-09-24T13:00:23Z</time>
      </trkpt>
      <trkpt lat="45.81676" lon="4.2419">
        <ele>550.656</ele>
        <time>2018-09-24T13:00:29Z</time>
      </trkpt>
      <trkpt lat="45.81683" lon="4.24191">
        <ele>550.213</ele>
        <time>2018-09-24T13:00:34Z</time>
      </trkpt>
      <trkpt lat="45.8169" lon="4.24194">
        <ele>549.709</ele>
        <time>2018-09-24T13:00:39Z</time>
      </trkpt>
      <trkpt lat="45.81696" lon="4.24195">
        <ele>549.7</ele>
        <time>2018-09-24T13:00:44Z</time>
      </trkpt>
      <trkpt lat="45.81703" lon="4.24195">
        <ele>549.092</ele>
        <time>2018-09-24T13:00:49Z</time>
      </trkpt>
      <trkpt lat="45.81711" lon="4.24192">
        <ele>548.782</ele>
        <time>2018-09-24T13:00:54Z</time>
      </trkpt>
      <trkpt lat="45.81716" lon="4.2419">
        <ele>548.861</ele>
        <time>2018-09-24T13:01:00Z</time>
      </trkpt>
      <trkpt lat="45.81722" lon="4.24188">
        <ele>548.984</ele>
        <time>2018-09-24T13:01:05Z</time>
      </trkpt>
      <trkpt lat="45.81728" lon="4.24188">
        <ele>549.384</ele>
        <time>2018-09-24T13:01:11Z</time>
      </trkpt>
      <trkpt lat="45.81734" lon="4.24188">
        <ele>549.88</ele>
        <time>2018-09-24T13:01:16Z</time>
      </trkpt>
      <trkpt lat="45.81738" lon="4.24189">
        <ele>550.547</ele>
        <time>2018-09-24T13:01:22Z</time>
      </trkpt>
      <trkpt lat="45.81743" lon="4.24189">
        <ele>551.056</ele>
        <time>2018-09-24T13:01:28Z</time>
      </trkpt>
      <trkpt lat="45.81745" lon="4.24188">
        <ele>551.835</ele>
        <time>2018-09-24T13:01:34Z</time>
      </trkpt>
      <trkpt lat="45.81746" lon="4.24184">
        <ele>552.975</ele>
        <time>2018-09-24T13:01:40Z</time>
      </trkpt>
      <trkpt lat="45.81746" lon="4.24185">
        <ele>553.071</ele>
        <time>2018-09-24T13:01:46Z</time>
      </trkpt>
      <trkpt lat="45.81746" lon="4.24186">
        <ele>552.97</ele>
        <time>2018-09-24T13:01:51Z</time>
      </trkpt>
      <trkpt lat="45.81747" lon="4.24186">
        <ele>552.72</ele>
        <time>2018-09-24T13:01:57Z</time>
      </trkpt>
      <trkpt lat="45.81747" lon="4.24187">
        <ele>552.657</ele>
        <time>2018-09-24T13:02:02Z</time>
      </trkpt>
      <trkpt lat="45.81746" lon="4.24186">
        <ele>552.409</ele>
        <time>2018-09-24T13:02:08Z</time>
      </trkpt>
      <trkpt lat="45.81746" lon="4.24187">
        <ele>552.364</ele>
        <time>2018-09-24T13:02:14Z</time>
      </trkpt>
      <trkpt lat="45.81746" lon="4.24188">
        <ele>552.421</ele>
        <time>2018-09-24T13:02:19Z</time>
      </trkpt>
      <trkpt lat="45.81745" lon="4.24187">
        <ele>552.697</ele>
        <time>2018-09-24T13:02:25Z</time>
      </trkpt>
      <trkpt lat="45.81746" lon="4.24187">
        <ele>552.682</ele>
        <time>2018-09-24T13:02:30Z</time>
      </trkpt>
      <trkpt lat="45.81746" lon="4.24187">
        <ele>552.645</ele>
        <time>2018-09-24T13:02:36Z</time>
      </trkpt>
      <trkpt lat="45.81746" lon="4.24189">
        <ele>552.736</ele>
        <time>2018-09-24T13:02:42Z</time>
      </trkpt>
      <trkpt lat="45.81747" lon="4.24189">
        <ele>552.72</ele>
        <time>2018-09-24T13:02:47Z</time>
      </trkpt>
      <trkpt lat="45.81748" lon="4.24191">
        <ele>553.131</ele>
        <time>2018-09-24T13:02:52Z</time>
      </trkpt>
      <trkpt lat="45.81749" lon="4.24192">
        <ele>553.367</ele>
        <time>2018-09-24T13:02:58Z</time>
      </trkpt>
      <trkpt lat="45.81753" lon="4.24195">
        <ele>553.525</ele>
        <time>2018-09-24T13:03:03Z</time>
      </trkpt>
      <trkpt lat="45.81756" lon="4.24199">
        <ele>554.298</ele>
        <time>2018-09-24T13:03:09Z</time>
      </trkpt>
      <trkpt lat="45.8176" lon="4.24202">
        <ele>554.621</ele>
        <time>2018-09-24T13:03:15Z</time>
      </trkpt>
      <trkpt lat="45.81762" lon="4.24204">
        <ele>554.548</ele>
        <time>2018-09-24T13:03:21Z</time>
      </trkpt>
      <trkpt lat="45.81764" lon="4.24207">
        <ele>554.296</ele>
        <time>2018-09-24T13:03:26Z</time>
      </trkpt>
      <trkpt lat="45.81772" lon="4.24219">
        <ele>553.781</ele>
        <time>2018-09-24T13:03:31Z</time>
      </trkpt>
      <trkpt lat="45.81777" lon="4.24222">
        <ele>553.759</ele>
        <time>2018-09-24T13:03:37Z</time>
      </trkpt>
      <trkpt lat="45.81781" lon="4.24225">
        <ele>554.127</ele>
        <time>2018-09-24T13:03:42Z</time>
      </trkpt>
      <trkpt lat="45.81788" lon="4.24231">
        <ele>554.69</ele>
        <time>2018-09-24T13:03:48Z</time>
      </trkpt>
      <trkpt lat="45.81792" lon="4.24235">
        <ele>554.677</ele>
        <time>2018-09-24T13:03:54Z</time>
      </trkpt>
      <trkpt lat="45.81796" lon="4.24242">
        <ele>554.934</ele>
        <time>2018-09-24T13:04:00Z</time>
      </trkpt>
      <trkpt lat="45.818" lon="4.24245">
        <ele>555.047</ele>
        <time>2018-09-24T13:04:06Z</time>
      </trkpt>
      <trkpt lat="45.81804" lon="4.2425">
        <ele>555.29</ele>
        <time>2018-09-24T13:04:12Z</time>
      </trkpt>
      <trkpt lat="45.81807" lon="4.24253">
        <ele>555.481</ele>
        <time>2018-09-24T13:04:17Z</time>
      </trkpt>
      <trkpt lat="45.81812" lon="4.24257">
        <ele>555.524</ele>
        <time>2018-09-24T13:04:22Z</time>
      </trkpt>
      <trkpt lat="45.81816" lon="4.2426">
        <ele>555.558</ele>
        <time>2018-09-24T13:04:28Z</time>
      </trkpt>
      <trkpt lat="45.8182" lon="4.24266">
        <ele>555.952</ele>
        <time>2018-09-24T13:04:34Z</time>
      </trkpt>
      <trkpt lat="45.81825" lon="4.24274">
        <ele>555.841</ele>
        <time>2018-09-24T13:04:40Z</time>
      </trkpt>
      <trkpt lat="45.81829" lon="4.24279">
        <ele>555.731</ele>
        <time>2018-09-24T13:04:45Z</time>
      </trkpt>
      <trkpt lat="45.81835" lon="4.24286">
        <ele>556.294</ele>
        <time>2018-09-24T13:04:51Z</time>
      </trkpt>
      <trkpt lat="45.8184" lon="4.24291">
        <ele>556.568</ele>
        <time>2018-09-24T13:04:56Z</time>
      </trkpt>
      <trkpt lat="45.81843" lon="4.24294">
        <ele>556.996</ele>
        <time>2018-09-24T13:05:01Z</time>
      </trkpt>
      <trkpt lat="45.81847" lon="4.24299">
        <ele>557.267</ele>
        <time>2018-09-24T13:05:07Z</time>
      </trkpt>
      <trkpt lat="45.8185" lon="4.24302">
        <ele>557.725</ele>
        <time>2018-09-24T13:05:12Z</time>
      </trkpt>
      <trkpt lat="45.81853" lon="4.24306">
        <ele>558.189</ele>
        <time>2018-09-24T13:05:18Z</time>
      </trkpt>
      <trkpt lat="45.81858" lon="4.24315">
        <ele>558.126</ele>
        <time>2018-09-24T13:05:23Z</time>
      </trkpt>
      <trkpt lat="45.81862" lon="4.24319">
        <ele>558.205</ele>
        <time>2018-09-24T13:05:28Z</time>
      </trkpt>
      <trkpt lat="45.81866" lon="4.24326">
        <ele>558.611</ele>
        <time>2018-09-24T13:05:34Z</time>
      </trkpt>
      <trkpt lat="45.81872" lon="4.24333">
        <ele>559.164</ele>
        <time>2018-09-24T13:05:40Z</time>
      </trkpt>
      <trkpt lat="45.81876" lon="4.24339">
        <ele>559.372</ele>
        <time>2018-09-24T13:05:46Z</time>
      </trkpt>
      <trkpt lat="45.81881" lon="4.24345">
        <ele>559.405</ele>
        <time>2018-09-24T13:05:52Z</time>
      </trkpt>
      <trkpt lat="45.81885" lon="4.2435">
        <ele>559.282</ele>
        <time>2018-09-24T13:05:57Z</time>
      </trkpt>
      <trkpt lat="45.8189" lon="4.24357">
        <ele>559.451</ele>
        <time>2018-09-24T13:06:03Z</time>
      </trkpt>
      <trkpt lat="45.81896" lon="4.24362">
        <ele>559.609</ele>
        <time>2018-09-24T13:06:08Z</time>
      </trkpt>
      <trkpt lat="45.81901" lon="4.24369">
        <ele>559.601</ele>
        <time>2018-09-24T13:06:14Z</time>
      </trkpt>
      <trkpt lat="45.81904" lon="4.24374">
        <ele>559.681</ele>
        <time>2018-09-24T13:06:19Z</time>
      </trkpt>
      <trkpt lat="45.81909" lon="4.24379">
        <ele>560.089</ele>
        <time>2018-09-24T13:06:24Z</time>
      </trkpt>
      <trkpt lat="45.81915" lon="4.24387">
        <ele>560.433</ele>
        <time>2018-09-24T13:06:30Z</time>
      </trkpt>
      <trkpt lat="45.81919" lon="4.24393">
        <ele>560.605</ele>
        <time>2018-09-24T13:06:35Z</time>
      </trkpt>
      <trkpt lat="45.81923" lon="4.244">
        <ele>560.959</ele>
        <time>2018-09-24T13:06:40Z</time>
      </trkpt>
      <trkpt lat="45.81929" lon="4.24406">
        <ele>561.28</ele>
        <time>2018-09-24T13:06:46Z</time>
      </trkpt>
      <trkpt lat="45.81935" lon="4.24412">
        <ele>561.758</ele>
        <time>2018-09-24T13:06:52Z</time>
      </trkpt>
      <trkpt lat="45.8194" lon="4.24418">
        <ele>561.984</ele>
        <time>2018-09-24T13:06:58Z</time>
      </trkpt>
      <trkpt lat="45.81945" lon="4.24426">
        <ele>561.985</ele>
        <time>2018-09-24T13:07:04Z</time>
      </trkpt>
      <trkpt lat="45.8195" lon="4.2443">
        <ele>562.227</ele>
        <time>2018-09-24T13:07:09Z</time>
      </trkpt>
      <trkpt lat="45.81956" lon="4.24435">
        <ele>562.646</ele>
        <time>2018-09-24T13:07:15Z</time>
      </trkpt>
      <trkpt lat="45.81962" lon="4.24443">
        <ele>563.108</ele>
        <time>2018-09-24T13:07:21Z</time>
      </trkpt>
      <trkpt lat="45.81966" lon="4.24448">
        <ele>563.249</ele>
        <time>2018-09-24T13:07:26Z</time>
      </trkpt>
      <trkpt lat="45.81972" lon="4.24454">
        <ele>563.632</ele>
        <time>2018-09-24T13:07:32Z</time>
      </trkpt>
      <trkpt lat="45.81976" lon="4.2446">
        <ele>564.001</ele>
        <time>2018-09-24T13:07:38Z</time>
      </trkpt>
      <trkpt lat="45.8198" lon="4.24465">
        <ele>564.559</ele>
        <time>2018-09-24T13:07:43Z</time>
      </trkpt>
      <trkpt lat="45.81984" lon="4.24471">
        <ele>565.032</ele>
        <time>2018-09-24T13:07:49Z</time>
      </trkpt>
      <trkpt lat="45.8199" lon="4.24478">
        <ele>565.411</ele>
        <time>2018-09-24T13:07:55Z</time>
      </trkpt>
      <trkpt lat="45.81997" lon="4.24484">
        <ele>565.751</ele>
        <time>2018-09-24T13:08:01Z</time>
      </trkpt>
      <trkpt lat="45.82003" lon="4.24493">
        <ele>566.16</ele>
        <time>2018-09-24T13:08:07Z</time>
      </trkpt>
      <trkpt lat="45.8201" lon="4.24499">
        <ele>566.66</ele>
        <time>2018-09-24T13:08:13Z</time>
      </trkpt>
      <trkpt lat="45.82015" lon="4.24504">
        <ele>567.189</ele>
        <time>2018-09-24T13:08:18Z</time>
      </trkpt>
      <trkpt lat="45.82021" lon="4.24509">
        <ele>567.647</ele>
        <time>2018-09-24T13:08:23Z</time>
      </trkpt>
      <trkpt lat="45.82028" lon="4.24514">
        <ele>568.442</ele>
        <time>2018-09-24T13:08:29Z</time>
      </trkpt>
      <trkpt lat="45.82034" lon="4.24519">
        <ele>568.953</ele>
        <time>2018-09-24T13:08:34Z</time>
      </trkpt>
      <trkpt lat="45.8204" lon="4.24525">
        <ele>569.39</ele>
        <time>2018-09-24T13:08:40Z</time>
      </trkpt>
      <trkpt lat="45.82045" lon="4.24529">
        <ele>569.883</ele>
        <time>2018-09-24T13:08:45Z</time>
      </trkpt>
      <trkpt lat="45.82053" lon="4.24536">
        <ele>570.535</ele>
        <time>2018-09-24T13:08:51Z</time>
      </trkpt>
      <trkpt lat="45.82059" lon="4.24539">
        <ele>571.177</ele>
        <time>2018-09-24T13:08:57Z</time>
      </trkpt>
      <trkpt lat="45.82065" lon="4.24547">
        <ele>571.451</ele>
        <time>2018-09-24T13:09:02Z</time>
      </trkpt>
      <trkpt lat="45.82072" lon="4.24553">
        <ele>571.825</ele>
        <time>2018-09-24T13:09:08Z</time>
      </trkpt>
      <trkpt lat="45.82079" lon="4.24557">
        <ele>572.416</ele>
        <time>2018-09-24T13:09:14Z</time>
      </trkpt>
      <trkpt lat="45.82083" lon="4.24562">
        <ele>572.834</ele>
        <time>2018-09-24T13:09:19Z</time>
      </trkpt>
      <trkpt lat="45.8209" lon="4.24569">
        <ele>573.36</ele>
        <time>2018-09-24T13:09:25Z</time>
      </trkpt>
      <trkpt lat="45.82095" lon="4.24575">
        <ele>573.404</ele>
        <time>2018-09-24T13:09:31Z</time>
      </trkpt>
      <trkpt lat="45.821" lon="4.24581">
        <ele>573.438</ele>
        <time>2018-09-24T13:09:36Z</time>
      </trkpt>
      <trkpt lat="45.82107" lon="4.24589">
        <ele>573.525</ele>
        <time>2018-09-24T13:09:42Z</time>
      </trkpt>
      <trkpt lat="45.82111" lon="4.24595">
        <ele>573.558</ele>
        <time>2018-09-24T13:09:48Z</time>
      </trkpt>
      <trkpt lat="45.82115" lon="4.24599">
        <ele>573.543</ele>
        <time>2018-09-24T13:09:53Z</time>
      </trkpt>
      <trkpt lat="45.82121" lon="4.24605">
        <ele>573.132</ele>
        <time>2018-09-24T13:09:58Z</time>
      </trkpt>
      <trkpt lat="45.82126" lon="4.24612">
        <ele>572.98</ele>
        <time>2018-09-24T13:10:04Z</time>
      </trkpt>
      <trkpt lat="45.82133" lon="4.24618">
        <ele>573.056</ele>
        <time>2018-09-24T13:10:09Z</time>
      </trkpt>
      <trkpt lat="45.82137" lon="4.24623">
        <ele>573.305</ele>
        <time>2018-09-24T13:10:14Z</time>
      </trkpt>
      <trkpt lat="45.82144" lon="4.24631">
        <ele>573.302</ele>
        <time>2018-09-24T13:10:20Z</time>
      </trkpt>
      <trkpt lat="45.82148" lon="4.24636">
        <ele>573.006</ele>
        <time>2018-09-24T13:10:25Z</time>
      </trkpt>
      <trkpt lat="45.82155" lon="4.24644">
        <ele>572.862</ele>
        <time>2018-09-24T13:10:31Z</time>
      </trkpt>
      <trkpt lat="45.82161" lon="4.24651">
        <ele>572.85</ele>
        <time>2018-09-24T13:10:36Z</time>
      </trkpt>
      <trkpt lat="45.82167" lon="4.24656">
        <ele>572.89</ele>
        <time>2018-09-24T13:10:41Z</time>
      </trkpt>
      <trkpt lat="45.82174" lon="4.24664">
        <ele>572.879</ele>
        <time>2018-09-24T13:10:47Z</time>
      </trkpt>
      <trkpt lat="45.82181" lon="4.24671">
        <ele>572.754</ele>
        <time>2018-09-24T13:10:53Z</time>
      </trkpt>
      <trkpt lat="45.82187" lon="4.24679">
        <ele>572.526</ele>
        <time>2018-09-24T13:10:58Z</time>
      </trkpt>
      <trkpt lat="45.82193" lon="4.24685">
        <ele>572.234</ele>
        <time>2018-09-24T13:11:04Z</time>
      </trkpt>
      <trkpt lat="45.82197" lon="4.24689">
        <ele>572.013</ele>
        <time>2018-09-24T13:11:09Z</time>
      </trkpt>
      <trkpt lat="45.82201" lon="4.24692">
        <ele>572.144</ele>
        <time>2018-09-24T13:11:15Z</time>
      </trkpt>
      <trkpt lat="45.82202" lon="4.24691">
        <ele>572.503</ele>
        <time>2018-09-24T13:11:20Z</time>
      </trkpt>
      <trkpt lat="45.82201" lon="4.24691">
        <ele>572.619</ele>
        <time>2018-09-24T13:11:26Z</time>
      </trkpt>
      <trkpt lat="45.82201" lon="4.24691">
        <ele>572.606</ele>
        <time>2018-09-24T13:11:31Z</time>
      </trkpt>
      <trkpt lat="45.82201" lon="4.24691">
        <ele>572.759</ele>
        <time>2018-09-24T13:11:37Z</time>
      </trkpt>
      <trkpt lat="45.82201" lon="4.24691">
        <ele>572.541</ele>
        <time>2018-09-24T13:11:42Z</time>
      </trkpt>
      <trkpt lat="45.82201" lon="4.24692">
        <ele>572.461</ele>
        <time>2018-09-24T13:11:48Z</time>
      </trkpt>
      <trkpt lat="45.82201" lon="4.24693">
        <ele>572.28</ele>
        <time>2018-09-24T13:11:54Z</time>
      </trkpt>
      <trkpt lat="45.82201" lon="4.24693">
        <ele>571.985</ele>
        <time>2018-09-24T13:11:59Z</time>
      </trkpt>
      <trkpt lat="45.82201" lon="4.24694">
        <ele>571.467</ele>
        <time>2018-09-24T13:12:04Z</time>
      </trkpt>
      <trkpt lat="45.822" lon="4.24693">
        <ele>571.222</ele>
        <time>2018-09-24T13:12:10Z</time>
      </trkpt>
      <trkpt lat="45.822" lon="4.24693">
        <ele>570.993</ele>
        <time>2018-09-24T13:12:16Z</time>
      </trkpt>
      <trkpt lat="45.82202" lon="4.24693">
        <ele>570.596</ele>
        <time>2018-09-24T13:12:22Z</time>
      </trkpt>
      <trkpt lat="45.82203" lon="4.24693">
        <ele>570.555</ele>
        <time>2018-09-24T13:12:27Z</time>
      </trkpt>
      <trkpt lat="45.82202" lon="4.24692">
        <ele>570.568</ele>
        <time>2018-09-24T13:12:33Z</time>
      </trkpt>
      <trkpt lat="45.82201" lon="4.24691">
        <ele>570.571</ele>
        <time>2018-09-24T13:12:39Z</time>
      </trkpt>
      <trkpt lat="45.82203" lon="4.24691">
        <ele>570.714</ele>
        <time>2018-09-24T13:12:45Z</time>
      </trkpt>
      <trkpt lat="45.82203" lon="4.2469">
        <ele>570.734</ele>
        <time>2018-09-24T13:12:50Z</time>
      </trkpt>
      <trkpt lat="45.82203" lon="4.2469">
        <ele>570.769</ele>
        <time>2018-09-24T13:12:56Z</time>
      </trkpt>
      <trkpt lat="45.82204" lon="4.2469">
        <ele>570.787</ele>
        <time>2018-09-24T13:13:01Z</time>
      </trkpt>
      <trkpt lat="45.82204" lon="4.24692">
        <ele>570.655</ele>
        <time>2018-09-24T13:13:06Z</time>
      </trkpt>
      <trkpt lat="45.82203" lon="4.24691">
        <ele>570.413</ele>
        <time>2018-09-24T13:13:13Z</time>
      </trkpt>
      <trkpt lat="45.82202" lon="4.2469">
        <ele>570.272</ele>
        <time>2018-09-24T13:13:18Z</time>
      </trkpt>
      <trkpt lat="45.82201" lon="4.24691">
        <ele>570.017</ele>
        <time>2018-09-24T13:13:24Z</time>
      </trkpt>
      <trkpt lat="45.82201" lon="4.24693">
        <ele>570.033</ele>
        <time>2018-09-24T13:13:30Z</time>
      </trkpt>
      <trkpt lat="45.822" lon="4.24701">
        <ele>569.838</ele>
        <time>2018-09-24T13:13:36Z</time>
      </trkpt>
      <trkpt lat="45.822" lon="4.24713">
        <ele>569.761</ele>
        <time>2018-09-24T13:13:42Z</time>
      </trkpt>
      <trkpt lat="45.822" lon="4.24722">
        <ele>569.765</ele>
        <time>2018-09-24T13:13:48Z</time>
      </trkpt>
      <trkpt lat="45.82202" lon="4.2473">
        <ele>569.606</ele>
        <time>2018-09-24T13:13:54Z</time>
      </trkpt>
      <trkpt lat="45.82202" lon="4.24736">
        <ele>569.302</ele>
        <time>2018-09-24T13:13:59Z</time>
      </trkpt>
      <trkpt lat="45.82202" lon="4.24747">
        <ele>568.761</ele>
        <time>2018-09-24T13:14:05Z</time>
      </trkpt>
      <trkpt lat="45.822" lon="4.24754">
        <ele>568.724</ele>
        <time>2018-09-24T13:14:10Z</time>
      </trkpt>
      <trkpt lat="45.822" lon="4.24761">
        <ele>568.599</ele>
        <time>2018-09-24T13:14:15Z</time>
      </trkpt>
      <trkpt lat="45.82199" lon="4.24773">
        <ele>568.463</ele>
        <time>2018-09-24T13:14:21Z</time>
      </trkpt>
      <trkpt lat="45.82198" lon="4.24778">
        <ele>568.089</ele>
        <time>2018-09-24T13:14:26Z</time>
      </trkpt>
      <trkpt lat="45.82196" lon="4.24787">
        <ele>567.379</ele>
        <time>2018-09-24T13:14:31Z</time>
      </trkpt>
      <trkpt lat="45.82194" lon="4.24799">
        <ele>566.429</ele>
        <time>2018-09-24T13:14:37Z</time>
      </trkpt>
      <trkpt lat="45.82192" lon="4.24806">
        <ele>565.506</ele>
        <time>2018-09-24T13:14:42Z</time>
      </trkpt>
      <trkpt lat="45.82189" lon="4.24815">
        <ele>564.34</ele>
        <time>2018-09-24T13:14:48Z</time>
      </trkpt>
      <trkpt lat="45.82185" lon="4.24825">
        <ele>563.337</ele>
        <time>2018-09-24T13:14:53Z</time>
      </trkpt>
      <trkpt lat="45.82182" lon="4.24832">
        <ele>562.509</ele>
        <time>2018-09-24T13:14:59Z</time>
      </trkpt>
      <trkpt lat="45.82179" lon="4.24843">
        <ele>561.876</ele>
        <time>2018-09-24T13:15:05Z</time>
      </trkpt>
      <trkpt lat="45.82178" lon="4.24852">
        <ele>560.899</ele>
        <time>2018-09-24T13:15:11Z</time>
      </trkpt>
      <trkpt lat="45.82177" lon="4.24857">
        <ele>560.03</ele>
        <time>2018-09-24T13:15:17Z</time>
      </trkpt>
      <trkpt lat="45.82177" lon="4.24854">
        <ele>559.438</ele>
        <time>2018-09-24T13:15:23Z</time>
      </trkpt>
      <trkpt lat="45.82176" lon="4.24854">
        <ele>559.094</ele>
        <time>2018-09-24T13:15:29Z</time>
      </trkpt>
      <trkpt lat="45.82175" lon="4.24855">
        <ele>558.386</ele>
        <time>2018-09-24T13:15:35Z</time>
      </trkpt>
      <trkpt lat="45.82174" lon="4.24858">
        <ele>557.79</ele>
        <time>2018-09-24T13:15:40Z</time>
      </trkpt>
      <trkpt lat="45.82171" lon="4.2486">
        <ele>557.557</ele>
        <time>2018-09-24T13:15:45Z</time>
      </trkpt>
      <trkpt lat="45.82165" lon="4.24863">
        <ele>557.219</ele>
        <time>2018-09-24T13:15:51Z</time>
      </trkpt>
      <trkpt lat="45.8216" lon="4.24866">
        <ele>556.48</ele>
        <time>2018-09-24T13:15:57Z</time>
      </trkpt>
      <trkpt lat="45.82152" lon="4.2487">
        <ele>556.008</ele>
        <time>2018-09-24T13:16:03Z</time>
      </trkpt>
      <trkpt lat="45.82146" lon="4.24872">
        <ele>555.41</ele>
        <time>2018-09-24T13:16:08Z</time>
      </trkpt>
      <trkpt lat="45.82139" lon="4.24873">
        <ele>555.01</ele>
        <time>2018-09-24T13:16:14Z</time>
      </trkpt>
      <trkpt lat="45.82133" lon="4.24874">
        <ele>554.984</ele>
        <time>2018-09-24T13:16:19Z</time>
      </trkpt>
      <trkpt lat="45.82127" lon="4.24876">
        <ele>554.715</ele>
        <time>2018-09-24T13:16:24Z</time>
      </trkpt>
      <trkpt lat="45.8212" lon="4.2488">
        <ele>554.28</ele>
        <time>2018-09-24T13:16:30Z</time>
      </trkpt>
      <trkpt lat="45.82114" lon="4.24885">
        <ele>554.103</ele>
        <time>2018-09-24T13:16:36Z</time>
      </trkpt>
      <trkpt lat="45.82109" lon="4.24886">
        <ele>553.794</ele>
        <time>2018-09-24T13:16:41Z</time>
      </trkpt>
      <trkpt lat="45.82108" lon="4.24886">
        <ele>552.785</ele>
        <time>2018-09-24T13:16:46Z</time>
      </trkpt>
      <trkpt lat="45.82107" lon="4.24885">
        <ele>552.556</ele>
        <time>2018-09-24T13:16:51Z</time>
      </trkpt>
      <trkpt lat="45.82107" lon="4.24885">
        <ele>551.831</ele>
        <time>2018-09-24T13:16:57Z</time>
      </trkpt>
      <trkpt lat="45.82103" lon="4.24888">
        <ele>551.274</ele>
        <time>2018-09-24T13:17:03Z</time>
      </trkpt>
      <trkpt lat="45.82095" lon="4.24893">
        <ele>550.918</ele>
        <time>2018-09-24T13:17:09Z</time>
      </trkpt>
      <trkpt lat="45.82088" lon="4.24895">
        <ele>550.8</ele>
        <time>2018-09-24T13:17:14Z</time>
      </trkpt>
      <trkpt lat="45.8208" lon="4.24897">
        <ele>550.378</ele>
        <time>2018-09-24T13:17:20Z</time>
      </trkpt>
      <trkpt lat="45.82075" lon="4.24899">
        <ele>550.227</ele>
        <time>2018-09-24T13:17:25Z</time>
      </trkpt>
      <trkpt lat="45.82068" lon="4.24904">
        <ele>550.04</ele>
        <time>2018-09-24T13:17:31Z</time>
      </trkpt>
      <trkpt lat="45.82062" lon="4.24909">
        <ele>549.567</ele>
        <time>2018-09-24T13:17:36Z</time>
      </trkpt>
      <trkpt lat="45.82055" lon="4.24913">
        <ele>548.745</ele>
        <time>2018-09-24T13:17:42Z</time>
      </trkpt>
      <trkpt lat="45.82048" lon="4.24917">
        <ele>547.981</ele>
        <time>2018-09-24T13:17:47Z</time>
      </trkpt>
      <trkpt lat="45.82041" lon="4.24921">
        <ele>547.253</ele>
        <time>2018-09-24T13:17:52Z</time>
      </trkpt>
      <trkpt lat="45.82035" lon="4.24926">
        <ele>546.668</ele>
        <time>2018-09-24T13:17:58Z</time>
      </trkpt>
      <trkpt lat="45.82028" lon="4.24932">
        <ele>545.705</ele>
        <time>2018-09-24T13:18:04Z</time>
      </trkpt>
      <trkpt lat="45.82023" lon="4.24936">
        <ele>545.158</ele>
        <time>2018-09-24T13:18:09Z</time>
      </trkpt>
      <trkpt lat="45.82017" lon="4.24939">
        <ele>544.826</ele>
        <time>2018-09-24T13:18:15Z</time>
      </trkpt>
      <trkpt lat="45.82009" lon="4.24944">
        <ele>544.46</ele>
        <time>2018-09-24T13:18:20Z</time>
      </trkpt>
      <trkpt lat="45.82003" lon="4.24949">
        <ele>543.624</ele>
        <time>2018-09-24T13:18:26Z</time>
      </trkpt>
      <trkpt lat="45.81997" lon="4.24955">
        <ele>543.07</ele>
        <time>2018-09-24T13:18:31Z</time>
      </trkpt>
      <trkpt lat="45.8199" lon="4.24958">
        <ele>542.098</ele>
        <time>2018-09-24T13:18:37Z</time>
      </trkpt>
      <trkpt lat="45.81984" lon="4.24962">
        <ele>541.179</ele>
        <time>2018-09-24T13:18:43Z</time>
      </trkpt>
      <trkpt lat="45.8198" lon="4.24964">
        <ele>540.321</ele>
        <time>2018-09-24T13:18:48Z</time>
      </trkpt>
      <trkpt lat="45.81975" lon="4.24967">
        <ele>539.22</ele>
        <time>2018-09-24T13:18:54Z</time>
      </trkpt>
      <trkpt lat="45.81969" lon="4.24967">
        <ele>538.611</ele>
        <time>2018-09-24T13:19:00Z</time>
      </trkpt>
      <trkpt lat="45.81964" lon="4.2497">
        <ele>537.793</ele>
        <time>2018-09-24T13:19:06Z</time>
      </trkpt>
      <trkpt lat="45.81956" lon="4.24971">
        <ele>536.799</ele>
        <time>2018-09-24T13:19:12Z</time>
      </trkpt>
      <trkpt lat="45.81951" lon="4.24969">
        <ele>535.768</ele>
        <time>2018-09-24T13:19:18Z</time>
      </trkpt>
      <trkpt lat="45.81943" lon="4.24967">
        <ele>534.66</ele>
        <time>2018-09-24T13:19:24Z</time>
      </trkpt>
      <trkpt lat="45.81936" lon="4.24967">
        <ele>533.437</ele>
        <time>2018-09-24T13:19:30Z</time>
      </trkpt>
      <trkpt lat="45.81929" lon="4.24966">
        <ele>532.705</ele>
        <time>2018-09-24T13:19:36Z</time>
      </trkpt>
      <trkpt lat="45.81924" lon="4.24966">
        <ele>531.94</ele>
        <time>2018-09-24T13:19:42Z</time>
      </trkpt>
      <trkpt lat="45.81917" lon="4.24967">
        <ele>530.603</ele>
        <time>2018-09-24T13:19:48Z</time>
      </trkpt>
      <trkpt lat="45.81911" lon="4.24968">
        <ele>529.436</ele>
        <time>2018-09-24T13:19:53Z</time>
      </trkpt>
      <trkpt lat="45.81904" lon="4.24969">
        <ele>528.206</ele>
        <time>2018-09-24T13:19:59Z</time>
      </trkpt>
      <trkpt lat="45.81898" lon="4.24973">
        <ele>527.446</ele>
        <time>2018-09-24T13:20:04Z</time>
      </trkpt>
      <trkpt lat="45.81897" lon="4.24983">
        <ele>526.93</ele>
        <time>2018-09-24T13:20:10Z</time>
      </trkpt>
      <trkpt lat="45.819" lon="4.24992">
        <ele>526.222</ele>
        <time>2018-09-24T13:20:15Z</time>
      </trkpt>
      <trkpt lat="45.81905" lon="4.24999">
        <ele>525.177</ele>
        <time>2018-09-24T13:20:21Z</time>
      </trkpt>
      <trkpt lat="45.8191" lon="4.25005">
        <ele>524.235</ele>
        <time>2018-09-24T13:20:26Z</time>
      </trkpt>
      <trkpt lat="45.81915" lon="4.25012">
        <ele>523.064</ele>
        <time>2018-09-24T13:20:32Z</time>
      </trkpt>
      <trkpt lat="45.8192" lon="4.25018">
        <ele>522.011</ele>
        <time>2018-09-24T13:20:37Z</time>
      </trkpt>
      <trkpt lat="45.81923" lon="4.25021">
        <ele>520.536</ele>
        <time>2018-09-24T13:20:42Z</time>
      </trkpt>
      <trkpt lat="45.81927" lon="4.25024">
        <ele>519.354</ele>
        <time>2018-09-24T13:20:47Z</time>
      </trkpt>
      <trkpt lat="45.81932" lon="4.25033">
        <ele>518.027</ele>
        <time>2018-09-24T13:20:53Z</time>
      </trkpt>
      <trkpt lat="45.81935" lon="4.25036">
        <ele>516.858</ele>
        <time>2018-09-24T13:20:58Z</time>
      </trkpt>
      <trkpt lat="45.81936" lon="4.2504">
        <ele>515.501</ele>
        <time>2018-09-24T13:21:04Z</time>
      </trkpt>
      <trkpt lat="45.81936" lon="4.2504">
        <ele>515.263</ele>
        <time>2018-09-24T13:21:10Z</time>
      </trkpt>
      <trkpt lat="45.81937" lon="4.2504">
        <ele>514.47</ele>
        <time>2018-09-24T13:21:15Z</time>
      </trkpt>
      <trkpt lat="45.81937" lon="4.2504">
        <ele>514.055</ele>
        <time>2018-09-24T13:21:20Z</time>
      </trkpt>
      <trkpt lat="45.81935" lon="4.25041">
        <ele>513.705</ele>
        <time>2018-09-24T13:21:26Z</time>
      </trkpt>
      <trkpt lat="45.81933" lon="4.2504">
        <ele>513.387</ele>
        <time>2018-09-24T13:21:32Z</time>
      </trkpt>
      <trkpt lat="45.81935" lon="4.25042">
        <ele>513.359</ele>
        <time>2018-09-24T13:21:38Z</time>
      </trkpt>
      <trkpt lat="45.81937" lon="4.25044">
        <ele>513.4</ele>
        <time>2018-09-24T13:21:43Z</time>
      </trkpt>
      <trkpt lat="45.81937" lon="4.25043">
        <ele>513.314</ele>
        <time>2018-09-24T13:21:48Z</time>
      </trkpt>
      <trkpt lat="45.81938" lon="4.25043">
        <ele>513.979</ele>
        <time>2018-09-24T13:21:54Z</time>
      </trkpt>
      <trkpt lat="45.81935" lon="4.25044">
        <ele>514.091</ele>
        <time>2018-09-24T13:22:00Z</time>
      </trkpt>
      <trkpt lat="45.8193" lon="4.25045">
        <ele>514.052</ele>
        <time>2018-09-24T13:22:05Z</time>
      </trkpt>
      <trkpt lat="45.81927" lon="4.25041">
        <ele>514.623</ele>
        <time>2018-09-24T13:22:11Z</time>
      </trkpt>
      <trkpt lat="45.81923" lon="4.25038">
        <ele>515.185</ele>
        <time>2018-09-24T13:22:17Z</time>
      </trkpt>
      <trkpt lat="45.8192" lon="4.25035">
        <ele>515.276</ele>
        <time>2018-09-24T13:22:22Z</time>
      </trkpt>
      <trkpt lat="45.81915" lon="4.2503">
        <ele>515.342</ele>
        <time>2018-09-24T13:22:28Z</time>
      </trkpt>
      <trkpt lat="45.81909" lon="4.25024">
        <ele>514.929</ele>
        <time>2018-09-24T13:22:34Z</time>
      </trkpt>
      <trkpt lat="45.81904" lon="4.25019">
        <ele>514.39</ele>
        <time>2018-09-24T13:22:39Z</time>
      </trkpt>
      <trkpt lat="45.81898" lon="4.25015">
        <ele>513.876</ele>
        <time>2018-09-24T13:22:45Z</time>
      </trkpt>
      <trkpt lat="45.81894" lon="4.25012">
        <ele>513.708</ele>
        <time>2018-09-24T13:22:50Z</time>
      </trkpt>
      <trkpt lat="45.81886" lon="4.25008">
        <ele>513.639</ele>
        <time>2018-09-24T13:22:56Z</time>
      </trkpt>
      <trkpt lat="45.81883" lon="4.25004">
        <ele>513.554</ele>
        <time>2018-09-24T13:23:01Z</time>
      </trkpt>
      <trkpt lat="45.81877" lon="4.24997">
        <ele>513.556</ele>
        <time>2018-09-24T13:23:07Z</time>
      </trkpt>
      <trkpt lat="45.81871" lon="4.24994">
        <ele>513.192</ele>
        <time>2018-09-24T13:23:12Z</time>
      </trkpt>
      <trkpt lat="45.81865" lon="4.2499">
        <ele>512.542</ele>
        <time>2018-09-24T13:23:17Z</time>
      </trkpt>
      <trkpt lat="45.81857" lon="4.24988">
        <ele>511.63</ele>
        <time>2018-09-24T13:23:23Z</time>
      </trkpt>
      <trkpt lat="45.81852" lon="4.24982">
        <ele>511.001</ele>
        <time>2018-09-24T13:23:29Z</time>
      </trkpt>
      <trkpt lat="45.81846" lon="4.24977">
        <ele>511.054</ele>
        <time>2018-09-24T13:23:34Z</time>
      </trkpt>
      <trkpt lat="45.81842" lon="4.24971">
        <ele>510.936</ele>
        <time>2018-09-24T13:23:39Z</time>
      </trkpt>
      <trkpt lat="45.81838" lon="4.24965">
        <ele>510.749</ele>
        <time>2018-09-24T13:23:45Z</time>
      </trkpt>
      <trkpt lat="45.81835" lon="4.24958">
        <ele>510.665</ele>
        <time>2018-09-24T13:23:50Z</time>
      </trkpt>
      <trkpt lat="45.81831" lon="4.24953">
        <ele>510.54</ele>
        <time>2018-09-24T13:23:55Z</time>
      </trkpt>
      <trkpt lat="45.81828" lon="4.24949">
        <ele>510.419</ele>
        <time>2018-09-24T13:24:00Z</time>
      </trkpt>
      <trkpt lat="45.81824" lon="4.24943">
        <ele>510.156</ele>
        <time>2018-09-24T13:24:05Z</time>
      </trkpt>
      <trkpt lat="45.8182" lon="4.2494">
        <ele>509.453</ele>
        <time>2018-09-24T13:24:11Z</time>
      </trkpt>
      <trkpt lat="45.81816" lon="4.24937">
        <ele>508.973</ele>
        <time>2018-09-24T13:24:17Z</time>
      </trkpt>
      <trkpt lat="45.81811" lon="4.2494">
        <ele>508.15</ele>
        <time>2018-09-24T13:24:23Z</time>
      </trkpt>
      <trkpt lat="45.81807" lon="4.24942">
        <ele>507.855</ele>
        <time>2018-09-24T13:24:28Z</time>
      </trkpt>
      <trkpt lat="45.81804" lon="4.24948">
        <ele>506.877</ele>
        <time>2018-09-24T13:24:34Z</time>
      </trkpt>
      <trkpt lat="45.81806" lon="4.24957">
        <ele>506.171</ele>
        <time>2018-09-24T13:24:40Z</time>
      </trkpt>
      <trkpt lat="45.81805" lon="4.24963">
        <ele>505.505</ele>
        <time>2018-09-24T13:24:46Z</time>
      </trkpt>
      <trkpt lat="45.81804" lon="4.24968">
        <ele>504.518</ele>
        <time>2018-09-24T13:24:51Z</time>
      </trkpt>
      <trkpt lat="45.818" lon="4.24973">
        <ele>503.063</ele>
        <time>2018-09-24T13:24:57Z</time>
      </trkpt>
      <trkpt lat="45.81795" lon="4.24981">
        <ele>501.797</ele>
        <time>2018-09-24T13:25:02Z</time>
      </trkpt>
      <trkpt lat="45.81789" lon="4.24985">
        <ele>500.592</ele>
        <time>2018-09-24T13:25:08Z</time>
      </trkpt>
      <trkpt lat="45.81785" lon="4.24985">
        <ele>500.128</ele>
        <time>2018-09-24T13:25:13Z</time>
      </trkpt>
      <trkpt lat="45.81783" lon="4.24985">
        <ele>500.029</ele>
        <time>2018-09-24T13:25:19Z</time>
      </trkpt>
      <trkpt lat="45.8178" lon="4.24988">
        <ele>500.232</ele>
        <time>2018-09-24T13:25:25Z</time>
      </trkpt>
      <trkpt lat="45.81778" lon="4.2499">
        <ele>500.618</ele>
        <time>2018-09-24T13:25:31Z</time>
      </trkpt>
      <trkpt lat="45.81775" lon="4.24988">
        <ele>501.041</ele>
        <time>2018-09-24T13:25:37Z</time>
      </trkpt>
      <trkpt lat="45.81773" lon="4.24987">
        <ele>501.073</ele>
        <time>2018-09-24T13:25:42Z</time>
      </trkpt>
      <trkpt lat="45.81772" lon="4.24985">
        <ele>501.869</ele>
        <time>2018-09-24T13:25:48Z</time>
      </trkpt>
      <trkpt lat="45.81771" lon="4.24983">
        <ele>502.101</ele>
        <time>2018-09-24T13:25:54Z</time>
      </trkpt>
      <trkpt lat="45.8177" lon="4.2498">
        <ele>502.732</ele>
        <time>2018-09-24T13:26:00Z</time>
      </trkpt>
      <trkpt lat="45.81768" lon="4.24978">
        <ele>503.241</ele>
        <time>2018-09-24T13:26:05Z</time>
      </trkpt>
      <trkpt lat="45.81767" lon="4.24978">
        <ele>504.05</ele>
        <time>2018-09-24T13:26:11Z</time>
      </trkpt>
      <trkpt lat="45.81767" lon="4.24981">
        <ele>504.237</ele>
        <time>2018-09-24T13:26:16Z</time>
      </trkpt>
      <trkpt lat="45.81767" lon="4.24981">
        <ele>504.152</ele>
        <time>2018-09-24T13:26:22Z</time>
      </trkpt>
      <trkpt lat="45.81766" lon="4.24981">
        <ele>504.18</ele>
        <time>2018-09-24T13:26:27Z</time>
      </trkpt>
      <trkpt lat="45.81766" lon="4.24977">
        <ele>504.369</ele>
        <time>2018-09-24T13:26:33Z</time>
      </trkpt>
      <trkpt lat="45.81765" lon="4.24973">
        <ele>504.536</ele>
        <time>2018-09-24T13:26:38Z</time>
      </trkpt>
      <trkpt lat="45.81763" lon="4.24973">
        <ele>504.754</ele>
        <time>2018-09-24T13:26:44Z</time>
      </trkpt>
      <trkpt lat="45.81764" lon="4.24975">
        <ele>504.974</ele>
        <time>2018-09-24T13:26:50Z</time>
      </trkpt>
      <trkpt lat="45.81765" lon="4.24973">
        <ele>504.992</ele>
        <time>2018-09-24T13:26:56Z</time>
      </trkpt>
      <trkpt lat="45.81765" lon="4.24972">
        <ele>505.078</ele>
        <time>2018-09-24T13:27:01Z</time>
      </trkpt>
      <trkpt lat="45.81765" lon="4.2497">
        <ele>505.331</ele>
        <time>2018-09-24T13:27:07Z</time>
      </trkpt>
      <trkpt lat="45.81763" lon="4.2497">
        <ele>505.523</ele>
        <time>2018-09-24T13:27:12Z</time>
      </trkpt>
      <trkpt lat="45.81761" lon="4.24969">
        <ele>506.248</ele>
        <time>2018-09-24T13:27:18Z</time>
      </trkpt>
      <trkpt lat="45.81759" lon="4.24967">
        <ele>506.97</ele>
        <time>2018-09-24T13:27:24Z</time>
      </trkpt>
      <trkpt lat="45.81759" lon="4.24967">
        <ele>507.146</ele>
        <time>2018-09-24T13:27:29Z</time>
      </trkpt>
      <trkpt lat="45.81758" lon="4.24966">
        <ele>507.45</ele>
        <time>2018-09-24T13:27:35Z</time>
      </trkpt>
      <trkpt lat="45.81753" lon="4.24965">
        <ele>507.605</ele>
        <time>2018-09-24T13:27:41Z</time>
      </trkpt>
      <trkpt lat="45.81749" lon="4.24962">
        <ele>507.283</ele>
        <time>2018-09-24T13:27:47Z</time>
      </trkpt>
      <trkpt lat="45.81746" lon="4.2496">
        <ele>506.766</ele>
        <time>2018-09-24T13:27:52Z</time>
      </trkpt>
      <trkpt lat="45.81744" lon="4.24959">
        <ele>506.125</ele>
        <time>2018-09-24T13:27:57Z</time>
      </trkpt>
      <trkpt lat="45.8174" lon="4.24956">
        <ele>506.145</ele>
        <time>2018-09-24T13:28:03Z</time>
      </trkpt>
      <trkpt lat="45.81735" lon="4.24952">
        <ele>506.075</ele>
        <time>2018-09-24T13:28:08Z</time>
      </trkpt>
      <trkpt lat="45.81731" lon="4.24947">
        <ele>505.926</ele>
        <time>2018-09-24T13:28:13Z</time>
      </trkpt>
      <trkpt lat="45.81727" lon="4.24944">
        <ele>505.712</ele>
        <time>2018-09-24T13:28:18Z</time>
      </trkpt>
      <trkpt lat="45.81722" lon="4.24941">
        <ele>505.77</ele>
        <time>2018-09-24T13:28:23Z</time>
      </trkpt>
      <trkpt lat="45.81718" lon="4.24938">
        <ele>505.451</ele>
        <time>2018-09-24T13:28:29Z</time>
      </trkpt>
      <trkpt lat="45.81718" lon="4.24937">
        <ele>505.627</ele>
        <time>2018-09-24T13:28:34Z</time>
      </trkpt>
      <trkpt lat="45.81718" lon="4.24939">
        <ele>505.956</ele>
        <time>2018-09-24T13:28:39Z</time>
      </trkpt>
      <trkpt lat="45.81718" lon="4.24937">
        <ele>507.085</ele>
        <time>2018-09-24T13:28:45Z</time>
      </trkpt>
      <trkpt lat="45.81711" lon="4.24925">
        <ele>507.823</ele>
        <time>2018-09-24T13:28:51Z</time>
      </trkpt>
      <trkpt lat="45.81706" lon="4.24915">
        <ele>508.451</ele>
        <time>2018-09-24T13:28:56Z</time>
      </trkpt>
      <trkpt lat="45.81705" lon="4.24909">
        <ele>509.345</ele>
        <time>2018-09-24T13:29:02Z</time>
      </trkpt>
      <trkpt lat="45.81707" lon="4.24907">
        <ele>510.049</ele>
        <time>2018-09-24T13:29:07Z</time>
      </trkpt>
      <trkpt lat="45.81704" lon="4.24902">
        <ele>510.925</ele>
        <time>2018-09-24T13:29:13Z</time>
      </trkpt>
      <trkpt lat="45.81701" lon="4.24893">
        <ele>511.606</ele>
        <time>2018-09-24T13:29:19Z</time>
      </trkpt>
      <trkpt lat="45.81698" lon="4.24883">
        <ele>512.165</ele>
        <time>2018-09-24T13:29:25Z</time>
      </trkpt>
      <trkpt lat="45.81698" lon="4.24874">
        <ele>512.671</ele>
        <time>2018-09-24T13:29:31Z</time>
      </trkpt>
      <trkpt lat="45.81694" lon="4.24862">
        <ele>513.536</ele>
        <time>2018-09-24T13:29:37Z</time>
      </trkpt>
      <trkpt lat="45.81693" lon="4.24855">
        <ele>514.542</ele>
        <time>2018-09-24T13:29:43Z</time>
      </trkpt>
      <trkpt lat="45.81694" lon="4.24849">
        <ele>515.606</ele>
        <time>2018-09-24T13:29:49Z</time>
      </trkpt>
      <trkpt lat="45.81691" lon="4.24842">
        <ele>516.708</ele>
        <time>2018-09-24T13:29:54Z</time>
      </trkpt>
      <trkpt lat="45.81689" lon="4.24835">
        <ele>517.568</ele>
        <time>2018-09-24T13:29:59Z</time>
      </trkpt>
      <trkpt lat="45.81685" lon="4.24826">
        <ele>518.551</ele>
        <time>2018-09-24T13:30:05Z</time>
      </trkpt>
      <trkpt lat="45.81682" lon="4.24816">
        <ele>519.298</ele>
        <time>2018-09-24T13:30:10Z</time>
      </trkpt>
      <trkpt lat="45.8168" lon="4.24807">
        <ele>520.355</ele>
        <time>2018-09-24T13:30:16Z</time>
      </trkpt>
      <trkpt lat="45.81678" lon="4.24805">
        <ele>521.106</ele>
        <time>2018-09-24T13:30:21Z</time>
      </trkpt>
      <trkpt lat="45.81674" lon="4.24805">
        <ele>521.852</ele>
        <time>2018-09-24T13:30:26Z</time>
      </trkpt>
      <trkpt lat="45.81672" lon="4.24804">
        <ele>522.481</ele>
        <time>2018-09-24T13:30:31Z</time>
      </trkpt>
      <trkpt lat="45.81672" lon="4.248">
        <ele>523.122</ele>
        <time>2018-09-24T13:30:36Z</time>
      </trkpt>
      <trkpt lat="45.81671" lon="4.24798">
        <ele>523.34</ele>
        <time>2018-09-24T13:30:42Z</time>
      </trkpt>
      <trkpt lat="45.81672" lon="4.24796">
        <ele>523.629</ele>
        <time>2018-09-24T13:30:47Z</time>
      </trkpt>
      <trkpt lat="45.81672" lon="4.24798">
        <ele>523.936</ele>
        <time>2018-09-24T13:30:53Z</time>
      </trkpt>
      <trkpt lat="45.81673" lon="4.248">
        <ele>524.026</ele>
        <time>2018-09-24T13:30:58Z</time>
      </trkpt>
      <trkpt lat="45.81671" lon="4.24802">
        <ele>523.615</ele>
        <time>2018-09-24T13:31:04Z</time>
      </trkpt>
      <trkpt lat="45.81671" lon="4.24801">
        <ele>523.355</ele>
        <time>2018-09-24T13:31:09Z</time>
      </trkpt>
      <trkpt lat="45.81673" lon="4.24802">
        <ele>523.244</ele>
        <time>2018-09-24T13:31:15Z</time>
      </trkpt>
      <trkpt lat="45.81673" lon="4.248">
        <ele>523.307</ele>
        <time>2018-09-24T13:31:20Z</time>
      </trkpt>
      <trkpt lat="45.81674" lon="4.24798">
        <ele>523.411</ele>
        <time>2018-09-24T13:31:26Z</time>
      </trkpt>
      <trkpt lat="45.81674" lon="4.24797">
        <ele>523.503</ele>
        <time>2018-09-24T13:31:32Z</time>
      </trkpt>
      <trkpt lat="45.81674" lon="4.24796">
        <ele>523.79</ele>
        <time>2018-09-24T13:31:37Z</time>
      </trkpt>
      <trkpt lat="45.81673" lon="4.24795">
        <ele>524.832</ele>
        <time>2018-09-24T13:31:44Z</time>
      </trkpt>
      <trkpt lat="45.81674" lon="4.24795">
        <ele>525.736</ele>
        <time>2018-09-24T13:31:49Z</time>
      </trkpt>
      <trkpt lat="45.81673" lon="4.24795">
        <ele>526.01</ele>
        <time>2018-09-24T13:31:55Z</time>
      </trkpt>
      <trkpt lat="45.81673" lon="4.24794">
        <ele>526.447</ele>
        <time>2018-09-24T13:32:01Z</time>
      </trkpt>
      <trkpt lat="45.81671" lon="4.24791">
        <ele>527.076</ele>
        <time>2018-09-24T13:32:06Z</time>
      </trkpt>
      <trkpt lat="45.8167" lon="4.24787">
        <ele>527.833</ele>
        <time>2018-09-24T13:32:12Z</time>
      </trkpt>
      <trkpt lat="45.81667" lon="4.24784">
        <ele>528.423</ele>
        <time>2018-09-24T13:32:17Z</time>
      </trkpt>
      <trkpt lat="45.81664" lon="4.24779">
        <ele>528.766</ele>
        <time>2018-09-24T13:32:23Z</time>
      </trkpt>
      <trkpt lat="45.81661" lon="4.24779">
        <ele>528.745</ele>
        <time>2018-09-24T13:32:28Z</time>
      </trkpt>
      <trkpt lat="45.81653" lon="4.2477">
        <ele>528.572</ele>
        <time>2018-09-24T13:32:34Z</time>
      </trkpt>
      <trkpt lat="45.81648" lon="4.24767">
        <ele>528.093</ele>
        <time>2018-09-24T13:32:39Z</time>
      </trkpt>
      <trkpt lat="45.81642" lon="4.24766">
        <ele>528.037</ele>
        <time>2018-09-24T13:32:45Z</time>
      </trkpt>
      <trkpt lat="45.81639" lon="4.24762">
        <ele>528.025</ele>
        <time>2018-09-24T13:32:50Z</time>
      </trkpt>
      <trkpt lat="45.81634" lon="4.24757">
        <ele>528.227</ele>
        <time>2018-09-24T13:32:55Z</time>
      </trkpt>
      <trkpt lat="45.81629" lon="4.24751">
        <ele>528.133</ele>
        <time>2018-09-24T13:33:01Z</time>
      </trkpt>
      <trkpt lat="45.81623" lon="4.24749">
        <ele>528.153</ele>
        <time>2018-09-24T13:33:06Z</time>
      </trkpt>
      <trkpt lat="45.81613" lon="4.24742">
        <ele>528.27</ele>
        <time>2018-09-24T13:33:12Z</time>
      </trkpt>
      <trkpt lat="45.81608" lon="4.2474">
        <ele>528.478</ele>
        <time>2018-09-24T13:33:18Z</time>
      </trkpt>
      <trkpt lat="45.816" lon="4.24734">
        <ele>528.17</ele>
        <time>2018-09-24T13:33:24Z</time>
      </trkpt>
      <trkpt lat="45.81593" lon="4.24728">
        <ele>527.944</ele>
        <time>2018-09-24T13:33:29Z</time>
      </trkpt>
      <trkpt lat="45.81589" lon="4.24726">
        <ele>527.867</ele>
        <time>2018-09-24T13:33:35Z</time>
      </trkpt>
      <trkpt lat="45.81582" lon="4.24724">
        <ele>527.779</ele>
        <time>2018-09-24T13:33:40Z</time>
      </trkpt>
      <trkpt lat="45.81575" lon="4.24722">
        <ele>527.586</ele>
        <time>2018-09-24T13:33:46Z</time>
      </trkpt>
      <trkpt lat="45.81569" lon="4.24718">
        <ele>527.333</ele>
        <time>2018-09-24T13:33:51Z</time>
      </trkpt>
      <trkpt lat="45.81561" lon="4.24714">
        <ele>527.263</ele>
        <time>2018-09-24T13:33:57Z</time>
      </trkpt>
      <trkpt lat="45.81555" lon="4.24711">
        <ele>527.066</ele>
        <time>2018-09-24T13:34:02Z</time>
      </trkpt>
      <trkpt lat="45.81547" lon="4.24708">
        <ele>526.761</ele>
        <time>2018-09-24T13:34:07Z</time>
      </trkpt>
      <trkpt lat="45.81543" lon="4.2471">
        <ele>526.911</ele>
        <time>2018-09-24T13:34:13Z</time>
      </trkpt>
      <trkpt lat="45.81539" lon="4.24708">
        <ele>526.827</ele>
        <time>2018-09-24T13:34:18Z</time>
      </trkpt>
      <trkpt lat="45.81531" lon="4.24708">
        <ele>526.488</ele>
        <time>2018-09-24T13:34:23Z</time>
      </trkpt>
      <trkpt lat="45.81525" lon="4.24707">
        <ele>526.09</ele>
        <time>2018-09-24T13:34:29Z</time>
      </trkpt>
      <trkpt lat="45.81519" lon="4.24707">
        <ele>525.111</ele>
        <time>2018-09-24T13:34:34Z</time>
      </trkpt>
      <trkpt lat="45.81516" lon="4.24712">
        <ele>524.161</ele>
        <time>2018-09-24T13:34:39Z</time>
      </trkpt>
      <trkpt lat="45.81509" lon="4.24715">
        <ele>523.152</ele>
        <time>2018-09-24T13:34:45Z</time>
      </trkpt>
      <trkpt lat="45.81505" lon="4.24718">
        <ele>521.789</ele>
        <time>2018-09-24T13:34:52Z</time>
      </trkpt>
      <trkpt lat="45.81499" lon="4.24719">
        <ele>520.716</ele>
        <time>2018-09-24T13:34:57Z</time>
      </trkpt>
      <trkpt lat="45.81491" lon="4.24718">
        <ele>519.393</ele>
        <time>2018-09-24T13:35:03Z</time>
      </trkpt>
      <trkpt lat="45.81483" lon="4.2472">
        <ele>518.71</ele>
        <time>2018-09-24T13:35:08Z</time>
      </trkpt>
      <trkpt lat="45.81478" lon="4.2472">
        <ele>518.071</ele>
        <time>2018-09-24T13:35:13Z</time>
      </trkpt>
      <trkpt lat="45.81474" lon="4.24719">
        <ele>516.954</ele>
        <time>2018-09-24T13:35:19Z</time>
      </trkpt>
      <trkpt lat="45.81469" lon="4.24716">
        <ele>515.651</ele>
        <time>2018-09-24T13:35:24Z</time>
      </trkpt>
      <trkpt lat="45.81466" lon="4.24715">
        <ele>514.596</ele>
        <time>2018-09-24T13:35:29Z</time>
      </trkpt>
      <trkpt lat="45.81458" lon="4.24718">
        <ele>514.173</ele>
        <time>2018-09-24T13:35:34Z</time>
      </trkpt>
      <trkpt lat="45.81452" lon="4.24719">
        <ele>514.076</ele>
        <time>2018-09-24T13:35:40Z</time>
      </trkpt>
      <trkpt lat="45.81449" lon="4.24717">
        <ele>514.077</ele>
        <time>2018-09-24T13:35:46Z</time>
      </trkpt>
      <trkpt lat="45.81448" lon="4.24715">
        <ele>514.269</ele>
        <time>2018-09-24T13:35:52Z</time>
      </trkpt>
      <trkpt lat="45.81449" lon="4.24715">
        <ele>514.194</ele>
        <time>2018-09-24T13:35:58Z</time>
      </trkpt>
      <trkpt lat="45.81451" lon="4.24715">
        <ele>514.205</ele>
        <time>2018-09-24T13:36:04Z</time>
      </trkpt>
      <trkpt lat="45.81452" lon="4.24716">
        <ele>514.048</ele>
        <time>2018-09-24T13:36:10Z</time>
      </trkpt>
      <trkpt lat="45.81453" lon="4.24715">
        <ele>513.947</ele>
        <time>2018-09-24T13:36:15Z</time>
      </trkpt>
      <trkpt lat="45.8145" lon="4.24715">
        <ele>513.285</ele>
        <time>2018-09-24T13:36:21Z</time>
      </trkpt>
      <trkpt lat="45.81444" lon="4.24715">
        <ele>512.99</ele>
        <time>2018-09-24T13:36:27Z</time>
      </trkpt>
      <trkpt lat="45.81437" lon="4.24716">
        <ele>512.467</ele>
        <time>2018-09-24T13:36:33Z</time>
      </trkpt>
      <trkpt lat="45.8143" lon="4.24718">
        <ele>512.472</ele>
        <time>2018-09-24T13:36:38Z</time>
      </trkpt>
      <trkpt lat="45.81422" lon="4.24721">
        <ele>512.506</ele>
        <time>2018-09-24T13:36:44Z</time>
      </trkpt>
      <trkpt lat="45.81419" lon="4.24724">
        <ele>512.616</ele>
        <time>2018-09-24T13:36:49Z</time>
      </trkpt>
      <trkpt lat="45.81418" lon="4.24727">
        <ele>512.468</ele>
        <time>2018-09-24T13:36:55Z</time>
      </trkpt>
      <trkpt lat="45.81417" lon="4.24725">
        <ele>512.344</ele>
        <time>2018-09-24T13:37:00Z</time>
      </trkpt>
      <trkpt lat="45.81418" lon="4.24725">
        <ele>512.791</ele>
        <time>2018-09-24T13:37:06Z</time>
      </trkpt>
      <trkpt lat="45.8142" lon="4.2472">
        <ele>513.175</ele>
        <time>2018-09-24T13:37:11Z</time>
      </trkpt>
      <trkpt lat="45.81426" lon="4.24712">
        <ele>512.869</ele>
        <time>2018-09-24T13:37:17Z</time>
      </trkpt>
      <trkpt lat="45.81431" lon="4.24705">
        <ele>512.242</ele>
        <time>2018-09-24T13:37:22Z</time>
      </trkpt>
      <trkpt lat="45.81435" lon="4.24702">
        <ele>511.483</ele>
        <time>2018-09-24T13:37:28Z</time>
      </trkpt>
      <trkpt lat="45.81437" lon="4.24702">
        <ele>510.819</ele>
        <time>2018-09-24T13:37:34Z</time>
      </trkpt>
      <trkpt lat="45.81439" lon="4.24699">
        <ele>510.143</ele>
        <time>2018-09-24T13:37:39Z</time>
      </trkpt>
      <trkpt lat="45.81437" lon="4.24698">
        <ele>509.674</ele>
        <time>2018-09-24T13:37:44Z</time>
      </trkpt>
      <trkpt lat="45.81435" lon="4.24701">
        <ele>509.341</ele>
        <time>2018-09-24T13:37:49Z</time>
      </trkpt>
      <trkpt lat="45.81431" lon="4.24699">
        <ele>508.381</ele>
        <time>2018-09-24T13:37:55Z</time>
      </trkpt>
      <trkpt lat="45.81429" lon="4.247">
        <ele>507.174</ele>
        <time>2018-09-24T13:38:00Z</time>
      </trkpt>
      <trkpt lat="45.81425" lon="4.24701">
        <ele>505.896</ele>
        <time>2018-09-24T13:38:06Z</time>
      </trkpt>
      <trkpt lat="45.81423" lon="4.24697">
        <ele>505.295</ele>
        <time>2018-09-24T13:38:11Z</time>
      </trkpt>
      <trkpt lat="45.81422" lon="4.24698">
        <ele>504.865</ele>
        <time>2018-09-24T13:38:17Z</time>
      </trkpt>
      <trkpt lat="45.81418" lon="4.24696">
        <ele>504.77</ele>
        <time>2018-09-24T13:38:22Z</time>
      </trkpt>
      <trkpt lat="45.8141" lon="4.24692">
        <ele>504.57</ele>
        <time>2018-09-24T13:38:28Z</time>
      </trkpt>
      <trkpt lat="45.81405" lon="4.24693">
        <ele>504.006</ele>
        <time>2018-09-24T13:38:34Z</time>
      </trkpt>
      <trkpt lat="45.814" lon="4.24694">
        <ele>503.295</ele>
        <time>2018-09-24T13:38:39Z</time>
      </trkpt>
      <trkpt lat="45.81391" lon="4.24694">
        <ele>503.096</ele>
        <time>2018-09-24T13:38:44Z</time>
      </trkpt>
      <trkpt lat="45.81381" lon="4.24692">
        <ele>502.334</ele>
        <time>2018-09-24T13:38:50Z</time>
      </trkpt>
      <trkpt lat="45.81375" lon="4.24689">
        <ele>501.196</ele>
        <time>2018-09-24T13:38:56Z</time>
      </trkpt>
      <trkpt lat="45.8137" lon="4.24689">
        <ele>500.021</ele>
        <time>2018-09-24T13:39:02Z</time>
      </trkpt>
      <trkpt lat="45.81362" lon="4.24686">
        <ele>498.764</ele>
        <time>2018-09-24T13:39:08Z</time>
      </trkpt>
      <trkpt lat="45.81355" lon="4.24685">
        <ele>497.634</ele>
        <time>2018-09-24T13:39:14Z</time>
      </trkpt>
      <trkpt lat="45.81346" lon="4.24682">
        <ele>496.435</ele>
        <time>2018-09-24T13:39:21Z</time>
      </trkpt>
      <trkpt lat="45.81342" lon="4.24682">
        <ele>495.106</ele>
        <time>2018-09-24T13:39:27Z</time>
      </trkpt>
      <trkpt lat="45.81338" lon="4.24681">
        <ele>494.048</ele>
        <time>2018-09-24T13:39:32Z</time>
      </trkpt>
      <trkpt lat="45.81333" lon="4.24678">
        <ele>492.45</ele>
        <time>2018-09-24T13:39:38Z</time>
      </trkpt>
      <trkpt lat="45.81329" lon="4.24678">
        <ele>491.572</ele>
        <time>2018-09-24T13:39:44Z</time>
      </trkpt>
      <trkpt lat="45.81318" lon="4.24674">
        <ele>490.852</ele>
        <time>2018-09-24T13:39:50Z</time>
      </trkpt>
      <trkpt lat="45.81312" lon="4.24675">
        <ele>490.486</ele>
        <time>2018-09-24T13:39:55Z</time>
      </trkpt>
      <trkpt lat="45.81307" lon="4.24674">
        <ele>490.494</ele>
        <time>2018-09-24T13:40:00Z</time>
      </trkpt>
      <trkpt lat="45.81298" lon="4.24671">
        <ele>490.078</ele>
        <time>2018-09-24T13:40:06Z</time>
      </trkpt>
      <trkpt lat="45.81288" lon="4.24672">
        <ele>489.414</ele>
        <time>2018-09-24T13:40:12Z</time>
      </trkpt>
      <trkpt lat="45.8128" lon="4.24678">
        <ele>488.318</ele>
        <time>2018-09-24T13:40:18Z</time>
      </trkpt>
      <trkpt lat="45.81276" lon="4.24684">
        <ele>487.242</ele>
        <time>2018-09-24T13:40:23Z</time>
      </trkpt>
      <trkpt lat="45.81268" lon="4.24686">
        <ele>485.938</ele>
        <time>2018-09-24T13:40:29Z</time>
      </trkpt>
      <trkpt lat="45.8126" lon="4.24686">
        <ele>485.015</ele>
        <time>2018-09-24T13:40:34Z</time>
      </trkpt>
      <trkpt lat="45.81251" lon="4.24687">
        <ele>483.894</ele>
        <time>2018-09-24T13:40:40Z</time>
      </trkpt>
      <trkpt lat="45.81243" lon="4.24689">
        <ele>483.301</ele>
        <time>2018-09-24T13:40:45Z</time>
      </trkpt>
      <trkpt lat="45.81237" lon="4.24695">
        <ele>482.581</ele>
        <time>2018-09-24T13:40:51Z</time>
      </trkpt>
      <trkpt lat="45.81231" lon="4.24699">
        <ele>481.902</ele>
        <time>2018-09-24T13:40:56Z</time>
      </trkpt>
      <trkpt lat="45.81225" lon="4.24703">
        <ele>480.856</ele>
        <time>2018-09-24T13:41:01Z</time>
      </trkpt>
      <trkpt lat="45.81218" lon="4.24703">
        <ele>479.077</ele>
        <time>2018-09-24T13:41:07Z</time>
      </trkpt>
      <trkpt lat="45.81208" lon="4.24704">
        <ele>477.542</ele>
        <time>2018-09-24T13:41:13Z</time>
      </trkpt>
      <trkpt lat="45.812" lon="4.24708">
        <ele>476.549</ele>
        <time>2018-09-24T13:41:18Z</time>
      </trkpt>
      <trkpt lat="45.81193" lon="4.2471">
        <ele>476.465</ele>
        <time>2018-09-24T13:41:24Z</time>
      </trkpt>
      <trkpt lat="45.81186" lon="4.24713">
        <ele>476.583</ele>
        <time>2018-09-24T13:41:30Z</time>
      </trkpt>
      <trkpt lat="45.81175" lon="4.24719">
        <ele>476.292</ele>
        <time>2018-09-24T13:41:36Z</time>
      </trkpt>
      <trkpt lat="45.81169" lon="4.24721">
        <ele>474.966</ele>
        <time>2018-09-24T13:41:42Z</time>
      </trkpt>
      <trkpt lat="45.81163" lon="4.24724">
        <ele>473.842</ele>
        <time>2018-09-24T13:41:48Z</time>
      </trkpt>
      <trkpt lat="45.81153" lon="4.24726">
        <ele>473.748</ele>
        <time>2018-09-24T13:41:54Z</time>
      </trkpt>
      <trkpt lat="45.81147" lon="4.24731">
        <ele>473.938</ele>
        <time>2018-09-24T13:42:00Z</time>
      </trkpt>
      <trkpt lat="45.81145" lon="4.24732">
        <ele>473.942</ele>
        <time>2018-09-24T13:42:05Z</time>
      </trkpt>
      <trkpt lat="45.81145" lon="4.24731">
        <ele>473.837</ele>
        <time>2018-09-24T13:42:10Z</time>
      </trkpt>
      <trkpt lat="45.81145" lon="4.24731">
        <ele>474.578</ele>
        <time>2018-09-24T13:42:16Z</time>
      </trkpt>
      <trkpt lat="45.81145" lon="4.24731">
        <ele>474.759</ele>
        <time>2018-09-24T13:42:22Z</time>
      </trkpt>
      <trkpt lat="45.81145" lon="4.24731">
        <ele>474.879</ele>
        <time>2018-09-24T13:42:27Z</time>
      </trkpt>
      <trkpt lat="45.81145" lon="4.24731">
        <ele>475.013</ele>
        <time>2018-09-24T13:42:33Z</time>
      </trkpt>
      <trkpt lat="45.81145" lon="4.24731">
        <ele>475.525</ele>
        <time>2018-09-24T13:42:39Z</time>
      </trkpt>
      <trkpt lat="45.81145" lon="4.24731">
        <ele>475.512</ele>
        <time>2018-09-24T13:42:45Z</time>
      </trkpt>
      <trkpt lat="45.81145" lon="4.24731">
        <ele>475.557</ele>
        <time>2018-09-24T13:42:51Z</time>
      </trkpt>
      <trkpt lat="45.81145" lon="4.24731">
        <ele>475.601</ele>
        <time>2018-09-24T13:42:57Z</time>
      </trkpt>
      <trkpt lat="45.81145" lon="4.24731">
        <ele>475.592</ele>
        <time>2018-09-24T13:43:02Z</time>
      </trkpt>
      <trkpt lat="45.81145" lon="4.24731">
        <ele>475.425</ele>
        <time>2018-09-24T13:43:08Z</time>
      </trkpt>
      <trkpt lat="45.81145" lon="4.24731">
        <ele>475.938</ele>
        <time>2018-09-24T13:43:14Z</time>
      </trkpt>
      <trkpt lat="45.81145" lon="4.24731">
        <ele>476.571</ele>
        <time>2018-09-24T13:43:19Z</time>
      </trkpt>
      <trkpt lat="45.81143" lon="4.2473">
        <ele>476.864</ele>
        <time>2018-09-24T13:43:25Z</time>
      </trkpt>
      <trkpt lat="45.81142" lon="4.2473">
        <ele>476.942</ele>
        <time>2018-09-24T13:43:30Z</time>
      </trkpt>
      <trkpt lat="45.81142" lon="4.2473">
        <ele>477.032</ele>
        <time>2018-09-24T13:43:35Z</time>
      </trkpt>
      <trkpt lat="45.81142" lon="4.2473">
        <ele>477.098</ele>
        <time>2018-09-24T13:43:41Z</time>
      </trkpt>
      <trkpt lat="45.81142" lon="4.2473">
        <ele>477.136</ele>
        <time>2018-09-24T13:43:47Z</time>
      </trkpt>
      <trkpt lat="45.81142" lon="4.2473">
        <ele>477.643</ele>
        <time>2018-09-24T13:43:53Z</time>
      </trkpt>
      <trkpt lat="45.81139" lon="4.2473">
        <ele>477.747</ele>
        <time>2018-09-24T13:43:59Z</time>
      </trkpt>
      <trkpt lat="45.8114" lon="4.24731">
        <ele>477.835</ele>
        <time>2018-09-24T13:44:04Z</time>
      </trkpt>
      <trkpt lat="45.8114" lon="4.2473">
        <ele>477.913</ele>
        <time>2018-09-24T13:44:09Z</time>
      </trkpt>
      <trkpt lat="45.8114" lon="4.2473">
        <ele>477.871</ele>
        <time>2018-09-24T13:44:15Z</time>
      </trkpt>
      <trkpt lat="45.8114" lon="4.2473">
        <ele>478.06</ele>
        <time>2018-09-24T13:44:21Z</time>
      </trkpt>
      <trkpt lat="45.8114" lon="4.2473">
        <ele>478.2</ele>
        <time>2018-09-24T13:44:26Z</time>
      </trkpt>
      <trkpt lat="45.8114" lon="4.2473">
        <ele>478.33</ele>
        <time>2018-09-24T13:44:31Z</time>
      </trkpt>
      <trkpt lat="45.8114" lon="4.2473">
        <ele>478.363</ele>
        <time>2018-09-24T13:44:37Z</time>
      </trkpt>
      <trkpt lat="45.8114" lon="4.2473">
        <ele>478.317</ele>
        <time>2018-09-24T13:44:43Z</time>
      </trkpt>
      <trkpt lat="45.8114" lon="4.2473">
        <ele>478.392</ele>
        <time>2018-09-24T13:44:48Z</time>
      </trkpt>
      <trkpt lat="45.8114" lon="4.2473">
        <ele>478.522</ele>
        <time>2018-09-24T13:44:54Z</time>
      </trkpt>
      <trkpt lat="45.8114" lon="4.2473">
        <ele>478.564</ele>
        <time>2018-09-24T13:45:00Z</time>
      </trkpt>
      <trkpt lat="45.8114" lon="4.2473">
        <ele>478.563</ele>
        <time>2018-09-24T13:45:06Z</time>
      </trkpt>
      <trkpt lat="45.8114" lon="4.2473">
        <ele>478.627</ele>
        <time>2018-09-24T13:45:12Z</time>
      </trkpt>
      <trkpt lat="45.8114" lon="4.2473">
        <ele>478.679</ele>
        <time>2018-09-24T13:45:17Z</time>
      </trkpt>
      <trkpt lat="45.8114" lon="4.2473">
        <ele>478.774</ele>
        <time>2018-09-24T13:45:23Z</time>
      </trkpt>
      <trkpt lat="45.8114" lon="4.2473">
        <ele>478.839</ele>
        <time>2018-09-24T13:45:29Z</time>
      </trkpt>
      <trkpt lat="45.8114" lon="4.2473">
        <ele>478.927</ele>
        <time>2018-09-24T13:45:34Z</time>
      </trkpt>
      <trkpt lat="45.8114" lon="4.2473">
        <ele>479.117</ele>
        <time>2018-09-24T13:45:40Z</time>
      </trkpt>
      <trkpt lat="45.8114" lon="4.2473">
        <ele>479.184</ele>
        <time>2018-09-24T13:45:46Z</time>
      </trkpt>
      <trkpt lat="45.8114" lon="4.2473">
        <ele>479.18</ele>
        <time>2018-09-24T13:45:52Z</time>
      </trkpt>
      <trkpt lat="45.8114" lon="4.2473">
        <ele>479.156</ele>
        <time>2018-09-24T13:45:57Z</time>
      </trkpt>
      <trkpt lat="45.8114" lon="4.2473">
        <ele>479.106</ele>
        <time>2018-09-24T13:46:02Z</time>
      </trkpt>
      <trkpt lat="45.8114" lon="4.2473">
        <ele>478.964</ele>
        <time>2018-09-24T13:46:08Z</time>
      </trkpt>
      <trkpt lat="45.8114" lon="4.2473">
        <ele>478.752</ele>
        <time>2018-09-24T13:46:14Z</time>
      </trkpt>
      <trkpt lat="45.81138" lon="4.24731">
        <ele>477.831</ele>
        <time>2018-09-24T13:46:20Z</time>
      </trkpt>
      <trkpt lat="45.81138" lon="4.24731">
        <ele>477.764</ele>
        <time>2018-09-24T13:46:26Z</time>
      </trkpt>
      <trkpt lat="45.81138" lon="4.24731">
        <ele>477.846</ele>
        <time>2018-09-24T13:46:32Z</time>
      </trkpt>
      <trkpt lat="45.81138" lon="4.24731">
        <ele>477.908</ele>
        <time>2018-09-24T13:46:38Z</time>
      </trkpt>
      <trkpt lat="45.81138" lon="4.24731">
        <ele>477.848</ele>
        <time>2018-09-24T13:46:44Z</time>
      </trkpt>
      <trkpt lat="45.81138" lon="4.24731">
        <ele>477.8</ele>
        <time>2018-09-24T13:46:50Z</time>
      </trkpt>
      <trkpt lat="45.81137" lon="4.24731">
        <ele>477.415</ele>
        <time>2018-09-24T13:46:55Z</time>
      </trkpt>
      <trkpt lat="45.81136" lon="4.24732">
        <ele>477.335</ele>
        <time>2018-09-24T13:47:00Z</time>
      </trkpt>
      <trkpt lat="45.81132" lon="4.24733">
        <ele>477.283</ele>
        <time>2018-09-24T13:47:06Z</time>
      </trkpt>
      <trkpt lat="45.81132" lon="4.24733">
        <ele>477.389</ele>
        <time>2018-09-24T13:47:12Z</time>
      </trkpt>
      <trkpt lat="45.81132" lon="4.24733">
        <ele>477.419</ele>
        <time>2018-09-24T13:47:18Z</time>
      </trkpt>
      <trkpt lat="45.81132" lon="4.24733">
        <ele>477.377</ele>
        <time>2018-09-24T13:47:24Z</time>
      </trkpt>
      <trkpt lat="45.81132" lon="4.24733">
        <ele>477.445</ele>
        <time>2018-09-24T13:47:30Z</time>
      </trkpt>
      <trkpt lat="45.81132" lon="4.24733">
        <ele>477.647</ele>
        <time>2018-09-24T13:47:36Z</time>
      </trkpt>
      <trkpt lat="45.81129" lon="4.24735">
        <ele>477.768</ele>
        <time>2018-09-24T13:47:42Z</time>
      </trkpt>
      <trkpt lat="45.81129" lon="4.24735">
        <ele>477.624</ele>
        <time>2018-09-24T13:47:48Z</time>
      </trkpt>
      <trkpt lat="45.81129" lon="4.24735">
        <ele>477.555</ele>
        <time>2018-09-24T13:47:53Z</time>
      </trkpt>
      <trkpt lat="45.81129" lon="4.24735">
        <ele>477.54</ele>
        <time>2018-09-24T13:47:59Z</time>
      </trkpt>
      <trkpt lat="45.81129" lon="4.24735">
        <ele>477.76</ele>
        <time>2018-09-24T13:48:05Z</time>
      </trkpt>
      <trkpt lat="45.81129" lon="4.24735">
        <ele>477.934</ele>
        <time>2018-09-24T13:48:11Z</time>
      </trkpt>
      <trkpt lat="45.81129" lon="4.24735">
        <ele>478.462</ele>
        <time>2018-09-24T13:48:16Z</time>
      </trkpt>
      <trkpt lat="45.81129" lon="4.24735">
        <ele>478.844</ele>
        <time>2018-09-24T13:48:21Z</time>
      </trkpt>
      <trkpt lat="45.81129" lon="4.24735">
        <ele>478.911</ele>
        <time>2018-09-24T13:48:27Z</time>
      </trkpt>
      <trkpt lat="45.81129" lon="4.24735">
        <ele>478.918</ele>
        <time>2018-09-24T13:48:33Z</time>
      </trkpt>
      <trkpt lat="45.81129" lon="4.24735">
        <ele>478.901</ele>
        <time>2018-09-24T13:48:39Z</time>
      </trkpt>
      <trkpt lat="45.81129" lon="4.24735">
        <ele>478.8</ele>
        <time>2018-09-24T13:48:45Z</time>
      </trkpt>
      <trkpt lat="45.81129" lon="4.24735">
        <ele>478.325</ele>
        <time>2018-09-24T13:48:50Z</time>
      </trkpt>
      <trkpt lat="45.81129" lon="4.24735">
        <ele>478.32</ele>
        <time>2018-09-24T13:48:56Z</time>
      </trkpt>
      <trkpt lat="45.81129" lon="4.24734">
        <ele>478.303</ele>
        <time>2018-09-24T13:49:02Z</time>
      </trkpt>
      <trkpt lat="45.81129" lon="4.24734">
        <ele>478.059</ele>
        <time>2018-09-24T13:49:07Z</time>
      </trkpt>
      <trkpt lat="45.81129" lon="4.24734">
        <ele>477.945</ele>
        <time>2018-09-24T13:49:13Z</time>
      </trkpt>
      <trkpt lat="45.81129" lon="4.24734">
        <ele>477.884</ele>
        <time>2018-09-24T13:49:18Z</time>
      </trkpt>
      <trkpt lat="45.81129" lon="4.24734">
        <ele>477.854</ele>
        <time>2018-09-24T13:49:24Z</time>
      </trkpt>
      <trkpt lat="45.81129" lon="4.24734">
        <ele>478.168</ele>
        <time>2018-09-24T13:49:30Z</time>
      </trkpt>
      <trkpt lat="45.81128" lon="4.24734">
        <ele>478.117</ele>
        <time>2018-09-24T13:49:36Z</time>
      </trkpt>
      <trkpt lat="45.8112" lon="4.24736">
        <ele>477.86</ele>
        <time>2018-09-24T13:49:42Z</time>
      </trkpt>
      <trkpt lat="45.81113" lon="4.2474">
        <ele>477.827</ele>
        <time>2018-09-24T13:49:48Z</time>
      </trkpt>
      <trkpt lat="45.81108" lon="4.24741">
        <ele>478.158</ele>
        <time>2018-09-24T13:49:54Z</time>
      </trkpt>
      <trkpt lat="45.81103" lon="4.24743">
        <ele>478.978</ele>
        <time>2018-09-24T13:50:00Z</time>
      </trkpt>
      <trkpt lat="45.81099" lon="4.24744">
        <ele>479.502</ele>
        <time>2018-09-24T13:50:05Z</time>
      </trkpt>
      <trkpt lat="45.81095" lon="4.24746">
        <ele>479.702</ele>
        <time>2018-09-24T13:50:11Z</time>
      </trkpt>
      <trkpt lat="45.8109" lon="4.24751">
        <ele>479.346</ele>
        <time>2018-09-24T13:50:17Z</time>
      </trkpt>
      <trkpt lat="45.81085" lon="4.24755">
        <ele>479.079</ele>
        <time>2018-09-24T13:50:23Z</time>
      </trkpt>
      <trkpt lat="45.8108" lon="4.24761">
        <ele>479.027</ele>
        <time>2018-09-24T13:50:29Z</time>
      </trkpt>
      <trkpt lat="45.81075" lon="4.24765">
        <ele>478.833</ele>
        <time>2018-09-24T13:50:34Z</time>
      </trkpt>
      <trkpt lat="45.81068" lon="4.24767">
        <ele>478.818</ele>
        <time>2018-09-24T13:50:40Z</time>
      </trkpt>
      <trkpt lat="45.81064" lon="4.24769">
        <ele>478.439</ele>
        <time>2018-09-24T13:50:46Z</time>
      </trkpt>
      <trkpt lat="45.81057" lon="4.2477">
        <ele>478.12</ele>
        <time>2018-09-24T13:50:52Z</time>
      </trkpt>
      <trkpt lat="45.81051" lon="4.24772">
        <ele>477.297</ele>
        <time>2018-09-24T13:50:58Z</time>
      </trkpt>
      <trkpt lat="45.81044" lon="4.2477">
        <ele>476.51</ele>
        <time>2018-09-24T13:51:04Z</time>
      </trkpt>
      <trkpt lat="45.81038" lon="4.24771">
        <ele>475.988</ele>
        <time>2018-09-24T13:51:09Z</time>
      </trkpt>
      <trkpt lat="45.81033" lon="4.24769">
        <ele>475.504</ele>
        <time>2018-09-24T13:51:14Z</time>
      </trkpt>
      <trkpt lat="45.81027" lon="4.2477">
        <ele>475.081</ele>
        <time>2018-09-24T13:51:19Z</time>
      </trkpt>
      <trkpt lat="45.81022" lon="4.24769">
        <ele>474.77</ele>
        <time>2018-09-24T13:51:24Z</time>
      </trkpt>
      <trkpt lat="45.81016" lon="4.24767">
        <ele>474.635</ele>
        <time>2018-09-24T13:51:30Z</time>
      </trkpt>
      <trkpt lat="45.81009" lon="4.24767">
        <ele>474.306</ele>
        <time>2018-09-24T13:51:36Z</time>
      </trkpt>
      <trkpt lat="45.81001" lon="4.24766">
        <ele>474.107</ele>
        <time>2018-09-24T13:51:42Z</time>
      </trkpt>
      <trkpt lat="45.80997" lon="4.24765">
        <ele>473.98</ele>
        <time>2018-09-24T13:51:47Z</time>
      </trkpt>
      <trkpt lat="45.80991" lon="4.24765">
        <ele>474.024</ele>
        <time>2018-09-24T13:51:53Z</time>
      </trkpt>
      <trkpt lat="45.80986" lon="4.24765">
        <ele>473.593</ele>
        <time>2018-09-24T13:51:59Z</time>
      </trkpt>
      <trkpt lat="45.80978" lon="4.24762">
        <ele>472.814</ele>
        <time>2018-09-24T13:52:05Z</time>
      </trkpt>
      <trkpt lat="45.80971" lon="4.24764">
        <ele>471.738</ele>
        <time>2018-09-24T13:52:11Z</time>
      </trkpt>
      <trkpt lat="45.80964" lon="4.24765">
        <ele>471.141</ele>
        <time>2018-09-24T13:52:17Z</time>
      </trkpt>
      <trkpt lat="45.80956" lon="4.24762">
        <ele>470.763</ele>
        <time>2018-09-24T13:52:23Z</time>
      </trkpt>
      <trkpt lat="45.80949" lon="4.24761">
        <ele>470.284</ele>
        <time>2018-09-24T13:52:28Z</time>
      </trkpt>
      <trkpt lat="45.80943" lon="4.24761">
        <ele>469.615</ele>
        <time>2018-09-24T13:52:34Z</time>
      </trkpt>
      <trkpt lat="45.8094" lon="4.24765">
        <ele>468.966</ele>
        <time>2018-09-24T13:52:39Z</time>
      </trkpt>
      <trkpt lat="45.80943" lon="4.24768">
        <ele>468.819</ele>
        <time>2018-09-24T13:52:44Z</time>
      </trkpt>
      <trkpt lat="45.80949" lon="4.2477">
        <ele>469.387</ele>
        <time>2018-09-24T13:52:50Z</time>
      </trkpt>
      <trkpt lat="45.80952" lon="4.24772">
        <ele>469.605</ele>
        <time>2018-09-24T13:52:55Z</time>
      </trkpt>
      <trkpt lat="45.80951" lon="4.24782">
        <ele>470.003</ele>
        <time>2018-09-24T13:53:01Z</time>
      </trkpt>
      <trkpt lat="45.8095" lon="4.2479">
        <ele>469.844</ele>
        <time>2018-09-24T13:53:07Z</time>
      </trkpt>
      <trkpt lat="45.80951" lon="4.24794">
        <ele>469.677</ele>
        <time>2018-09-24T13:53:12Z</time>
      </trkpt>
      <trkpt lat="45.8096" lon="4.24799">
        <ele>468.615</ele>
        <time>2018-09-24T13:53:18Z</time>
      </trkpt>
      <trkpt lat="45.80966" lon="4.24801">
        <ele>468.569</ele>
        <time>2018-09-24T13:53:23Z</time>
      </trkpt>
      <trkpt lat="45.80972" lon="4.24802">
        <ele>469.285</ele>
        <time>2018-09-24T13:53:29Z</time>
      </trkpt>
      <trkpt lat="45.8098" lon="4.24803">
        <ele>470.146</ele>
        <time>2018-09-24T13:53:34Z</time>
      </trkpt>
      <trkpt lat="45.80988" lon="4.24803">
        <ele>471.189</ele>
        <time>2018-09-24T13:53:40Z</time>
      </trkpt>
      <trkpt lat="45.80995" lon="4.24805">
        <ele>472.007</ele>
        <time>2018-09-24T13:53:46Z</time>
      </trkpt>
      <trkpt lat="45.80999" lon="4.24807">
        <ele>473.404</ele>
        <time>2018-09-24T13:53:52Z</time>
      </trkpt>
      <trkpt lat="45.81002" lon="4.24809">
        <ele>474.308</ele>
        <time>2018-09-24T13:53:57Z</time>
      </trkpt>
      <trkpt lat="45.81011" lon="4.24813">
        <ele>475.447</ele>
        <time>2018-09-24T13:54:03Z</time>
      </trkpt>
      <trkpt lat="45.81015" lon="4.24818">
        <ele>476.071</ele>
        <time>2018-09-24T13:54:08Z</time>
      </trkpt>
      <trkpt lat="45.8102" lon="4.24822">
        <ele>476.516</ele>
        <time>2018-09-24T13:54:14Z</time>
      </trkpt>
      <trkpt lat="45.81028" lon="4.24826">
        <ele>477.021</ele>
        <time>2018-09-24T13:54:19Z</time>
      </trkpt>
      <trkpt lat="45.81033" lon="4.24827">
        <ele>477.2</ele>
        <time>2018-09-24T13:54:24Z</time>
      </trkpt>
      <trkpt lat="45.8104" lon="4.2483">
        <ele>477.645</ele>
        <time>2018-09-24T13:54:30Z</time>
      </trkpt>
      <trkpt lat="45.81045" lon="4.24832">
        <ele>477.652</ele>
        <time>2018-09-24T13:54:36Z</time>
      </trkpt>
      <trkpt lat="45.8105" lon="4.24834">
        <ele>477.847</ele>
        <time>2018-09-24T13:54:42Z</time>
      </trkpt>
      <trkpt lat="45.81055" lon="4.24836">
        <ele>478.117</ele>
        <time>2018-09-24T13:54:47Z</time>
      </trkpt>
      <trkpt lat="45.81062" lon="4.24841">
        <ele>478.299</ele>
        <time>2018-09-24T13:54:52Z</time>
      </trkpt>
      <trkpt lat="45.8107" lon="4.24843">
        <ele>478.86</ele>
        <time>2018-09-24T13:54:58Z</time>
      </trkpt>
      <trkpt lat="45.81075" lon="4.24846">
        <ele>479.908</ele>
        <time>2018-09-24T13:55:04Z</time>
      </trkpt>
      <trkpt lat="45.81079" lon="4.24847">
        <ele>480.61</ele>
        <time>2018-09-24T13:55:10Z</time>
      </trkpt>
      <trkpt lat="45.81086" lon="4.24849">
        <ele>481.063</ele>
        <time>2018-09-24T13:55:16Z</time>
      </trkpt>
      <trkpt lat="45.81091" lon="4.24849">
        <ele>481.201</ele>
        <time>2018-09-24T13:55:22Z</time>
      </trkpt>
      <trkpt lat="45.81097" lon="4.2485">
        <ele>481.814</ele>
        <time>2018-09-24T13:55:28Z</time>
      </trkpt>
      <trkpt lat="45.81104" lon="4.24854">
        <ele>482.237</ele>
        <time>2018-09-24T13:55:34Z</time>
      </trkpt>
      <trkpt lat="45.81111" lon="4.24857">
        <ele>483.017</ele>
        <time>2018-09-24T13:55:40Z</time>
      </trkpt>
      <trkpt lat="45.81115" lon="4.24856">
        <ele>483.983</ele>
        <time>2018-09-24T13:55:46Z</time>
      </trkpt>
      <trkpt lat="45.81122" lon="4.24861">
        <ele>484.861</ele>
        <time>2018-09-24T13:55:52Z</time>
      </trkpt>
      <trkpt lat="45.8113" lon="4.24861">
        <ele>485.533</ele>
        <time>2018-09-24T13:55:58Z</time>
      </trkpt>
      <trkpt lat="45.81132" lon="4.24862">
        <ele>486.227</ele>
        <time>2018-09-24T13:56:04Z</time>
      </trkpt>
      <trkpt lat="45.81137" lon="4.24863">
        <ele>486.614</ele>
        <time>2018-09-24T13:56:10Z</time>
      </trkpt>
      <trkpt lat="45.81141" lon="4.24867">
        <ele>486.487</ele>
        <time>2018-09-24T13:56:16Z</time>
      </trkpt>
      <trkpt lat="45.8114" lon="4.24874">
        <ele>486.232</ele>
        <time>2018-09-24T13:56:21Z</time>
      </trkpt>
      <trkpt lat="45.81142" lon="4.24879">
        <ele>486.678</ele>
        <time>2018-09-24T13:56:27Z</time>
      </trkpt>
      <trkpt lat="45.81142" lon="4.24882">
        <ele>487.757</ele>
        <time>2018-09-24T13:56:33Z</time>
      </trkpt>
      <trkpt lat="45.81138" lon="4.24887">
        <ele>487.737</ele>
        <time>2018-09-24T13:56:38Z</time>
      </trkpt>
      <trkpt lat="45.81134" lon="4.24888">
        <ele>487.123</ele>
        <time>2018-09-24T13:56:44Z</time>
      </trkpt>
      <trkpt lat="45.81131" lon="4.24889">
        <ele>486.8</ele>
        <time>2018-09-24T13:56:49Z</time>
      </trkpt>
      <trkpt lat="45.81127" lon="4.24894">
        <ele>486.89</ele>
        <time>2018-09-24T13:56:55Z</time>
      </trkpt>
      <trkpt lat="45.81126" lon="4.24898">
        <ele>487.314</ele>
        <time>2018-09-24T13:57:01Z</time>
      </trkpt>
      <trkpt lat="45.81127" lon="4.24902">
        <ele>487.689</ele>
        <time>2018-09-24T13:57:06Z</time>
      </trkpt>
      <trkpt lat="45.8113" lon="4.24904">
        <ele>488.648</ele>
        <time>2018-09-24T13:57:12Z</time>
      </trkpt>
      <trkpt lat="45.81132" lon="4.24909">
        <ele>489.481</ele>
        <time>2018-09-24T13:57:18Z</time>
      </trkpt>
      <trkpt lat="45.81137" lon="4.24917">
        <ele>490.17</ele>
        <time>2018-09-24T13:57:24Z</time>
      </trkpt>
      <trkpt lat="45.8114" lon="4.24923">
        <ele>490.914</ele>
        <time>2018-09-24T13:57:30Z</time>
      </trkpt>
      <trkpt lat="45.81142" lon="4.24927">
        <ele>491.052</ele>
        <time>2018-09-24T13:57:36Z</time>
      </trkpt>
      <trkpt lat="45.81149" lon="4.24936">
        <ele>491.416</ele>
        <time>2018-09-24T13:57:42Z</time>
      </trkpt>
      <trkpt lat="45.81153" lon="4.24941">
        <ele>491.986</ele>
        <time>2018-09-24T13:57:47Z</time>
      </trkpt>
      <trkpt lat="45.81154" lon="4.24946">
        <ele>493.207</ele>
        <time>2018-09-24T13:57:53Z</time>
      </trkpt>
      <trkpt lat="45.81156" lon="4.24952">
        <ele>494.201</ele>
        <time>2018-09-24T13:57:58Z</time>
      </trkpt>
      <trkpt lat="45.81159" lon="4.24958">
        <ele>495.372</ele>
        <time>2018-09-24T13:58:04Z</time>
      </trkpt>
      <trkpt lat="45.81162" lon="4.24966">
        <ele>496.656</ele>
        <time>2018-09-24T13:58:09Z</time>
      </trkpt>
      <trkpt lat="45.81165" lon="4.24976">
        <ele>498.241</ele>
        <time>2018-09-24T13:58:15Z</time>
      </trkpt>
      <trkpt lat="45.81168" lon="4.24984">
        <ele>500.376</ele>
        <time>2018-09-24T13:58:21Z</time>
      </trkpt>
      <trkpt lat="45.81171" lon="4.24986">
        <ele>501.952</ele>
        <time>2018-09-24T13:58:26Z</time>
      </trkpt>
      <trkpt lat="45.81175" lon="4.24992">
        <ele>502.846</ele>
        <time>2018-09-24T13:58:31Z</time>
      </trkpt>
      <trkpt lat="45.81179" lon="4.24993">
        <ele>504.218</ele>
        <time>2018-09-24T13:58:37Z</time>
      </trkpt>
      <trkpt lat="45.81185" lon="4.24998">
        <ele>505.325</ele>
        <time>2018-09-24T13:58:43Z</time>
      </trkpt>
      <trkpt lat="45.81191" lon="4.25007">
        <ele>506.113</ele>
        <time>2018-09-24T13:58:49Z</time>
      </trkpt>
      <trkpt lat="45.81196" lon="4.25015">
        <ele>507.083</ele>
        <time>2018-09-24T13:58:55Z</time>
      </trkpt>
      <trkpt lat="45.812" lon="4.25024">
        <ele>508.01</ele>
        <time>2018-09-24T13:59:00Z</time>
      </trkpt>
      <trkpt lat="45.81204" lon="4.25029">
        <ele>509.134</ele>
        <time>2018-09-24T13:59:06Z</time>
      </trkpt>
      <trkpt lat="45.81206" lon="4.25038">
        <ele>510.087</ele>
        <time>2018-09-24T13:59:12Z</time>
      </trkpt>
      <trkpt lat="45.81208" lon="4.25045">
        <ele>510.866</ele>
        <time>2018-09-24T13:59:17Z</time>
      </trkpt>
      <trkpt lat="45.81209" lon="4.25052">
        <ele>511.751</ele>
        <time>2018-09-24T13:59:22Z</time>
      </trkpt>
      <trkpt lat="45.81211" lon="4.25057">
        <ele>512.506</ele>
        <time>2018-09-24T13:59:27Z</time>
      </trkpt>
      <trkpt lat="45.81213" lon="4.25061">
        <ele>513.426</ele>
        <time>2018-09-24T13:59:32Z</time>
      </trkpt>
      <trkpt lat="45.81215" lon="4.2507">
        <ele>514.96</ele>
        <time>2018-09-24T13:59:38Z</time>
      </trkpt>
      <trkpt lat="45.81217" lon="4.25076">
        <ele>516.412</ele>
        <time>2018-09-24T13:59:43Z</time>
      </trkpt>
      <trkpt lat="45.81219" lon="4.25084">
        <ele>518.76</ele>
        <time>2018-09-24T13:59:49Z</time>
      </trkpt>
      <trkpt lat="45.8122" lon="4.25093">
        <ele>520.505</ele>
        <time>2018-09-24T13:59:54Z</time>
      </trkpt>
      <trkpt lat="45.81221" lon="4.251">
        <ele>521.963</ele>
        <time>2018-09-24T13:59:59Z</time>
      </trkpt>
      <trkpt lat="45.81221" lon="4.25112">
        <ele>523.317</ele>
        <time>2018-09-24T14:00:05Z</time>
      </trkpt>
      <trkpt lat="45.81219" lon="4.25122">
        <ele>524.914</ele>
        <time>2018-09-24T14:00:11Z</time>
      </trkpt>
      <trkpt lat="45.81219" lon="4.25126">
        <ele>525.833</ele>
        <time>2018-09-24T14:00:16Z</time>
      </trkpt>
      <trkpt lat="45.8122" lon="4.25135">
        <ele>526.747</ele>
        <time>2018-09-24T14:00:21Z</time>
      </trkpt>
      <trkpt lat="45.81221" lon="4.25151">
        <ele>527.029</ele>
        <time>2018-09-24T14:00:27Z</time>
      </trkpt>
      <trkpt lat="45.81224" lon="4.25161">
        <ele>527.156</ele>
        <time>2018-09-24T14:00:33Z</time>
      </trkpt>
      <trkpt lat="45.81224" lon="4.25169">
        <ele>527.259</ele>
        <time>2018-09-24T14:00:38Z</time>
      </trkpt>
      <trkpt lat="45.81224" lon="4.25179">
        <ele>527.534</ele>
        <time>2018-09-24T14:00:44Z</time>
      </trkpt>
      <trkpt lat="45.81223" lon="4.25185">
        <ele>527.704</ele>
        <time>2018-09-24T14:00:49Z</time>
      </trkpt>
      <trkpt lat="45.81223" lon="4.25195">
        <ele>528.242</ele>
        <time>2018-09-24T14:00:55Z</time>
      </trkpt>
      <trkpt lat="45.81222" lon="4.2521">
        <ele>529.269</ele>
        <time>2018-09-24T14:01:00Z</time>
      </trkpt>
      <trkpt lat="45.81218" lon="4.2522">
        <ele>529.867</ele>
        <time>2018-09-24T14:01:06Z</time>
      </trkpt>
      <trkpt lat="45.81215" lon="4.25226">
        <ele>530.14</ele>
        <time>2018-09-24T14:01:12Z</time>
      </trkpt>
      <trkpt lat="45.8121" lon="4.25233">
        <ele>530.291</ele>
        <time>2018-09-24T14:01:18Z</time>
      </trkpt>
      <trkpt lat="45.81207" lon="4.2524">
        <ele>530.699</ele>
        <time>2018-09-24T14:01:23Z</time>
      </trkpt>
      <trkpt lat="45.81203" lon="4.25252">
        <ele>530.323</ele>
        <time>2018-09-24T14:01:29Z</time>
      </trkpt>
      <trkpt lat="45.81201" lon="4.25269">
        <ele>530.117</ele>
        <time>2018-09-24T14:01:35Z</time>
      </trkpt>
      <trkpt lat="45.81199" lon="4.25278">
        <ele>530.103</ele>
        <time>2018-09-24T14:01:41Z</time>
      </trkpt>
      <trkpt lat="45.81198" lon="4.25283">
        <ele>530.153</ele>
        <time>2018-09-24T14:01:46Z</time>
      </trkpt>
      <trkpt lat="45.81194" lon="4.25293">
        <ele>530.198</ele>
        <time>2018-09-24T14:01:51Z</time>
      </trkpt>
      <trkpt lat="45.81192" lon="4.25303">
        <ele>530.221</ele>
        <time>2018-09-24T14:01:57Z</time>
      </trkpt>
      <trkpt lat="45.81193" lon="4.2531">
        <ele>529.914</ele>
        <time>2018-09-24T14:02:03Z</time>
      </trkpt>
      <trkpt lat="45.81193" lon="4.25312">
        <ele>530.513</ele>
        <time>2018-09-24T14:02:08Z</time>
      </trkpt>
      <trkpt lat="45.81191" lon="4.25315">
        <ele>531.034</ele>
        <time>2018-09-24T14:02:14Z</time>
      </trkpt>
      <trkpt lat="45.81188" lon="4.25317">
        <ele>532.817</ele>
        <time>2018-09-24T14:02:20Z</time>
      </trkpt>
      <trkpt lat="45.81187" lon="4.25317">
        <ele>533.795</ele>
        <time>2018-09-24T14:02:25Z</time>
      </trkpt>
      <trkpt lat="45.81186" lon="4.25319">
        <ele>534.519</ele>
        <time>2018-09-24T14:02:31Z</time>
      </trkpt>
      <trkpt lat="45.81184" lon="4.25318">
        <ele>534.794</ele>
        <time>2018-09-24T14:02:37Z</time>
      </trkpt>
      <trkpt lat="45.81185" lon="4.25318">
        <ele>535.331</ele>
        <time>2018-09-24T14:02:42Z</time>
      </trkpt>
      <trkpt lat="45.81184" lon="4.25319">
        <ele>536.209</ele>
        <time>2018-09-24T14:02:48Z</time>
      </trkpt>
      <trkpt lat="45.81183" lon="4.2532">
        <ele>536.775</ele>
        <time>2018-09-24T14:02:54Z</time>
      </trkpt>
      <trkpt lat="45.81184" lon="4.2532">
        <ele>536.985</ele>
        <time>2018-09-24T14:03:00Z</time>
      </trkpt>
      <trkpt lat="45.81184" lon="4.25319">
        <ele>537.135</ele>
        <time>2018-09-24T14:03:05Z</time>
      </trkpt>
      <trkpt lat="45.81185" lon="4.25319">
        <ele>537.985</ele>
        <time>2018-09-24T14:03:10Z</time>
      </trkpt>
      <trkpt lat="45.81186" lon="4.25318">
        <ele>538.225</ele>
        <time>2018-09-24T14:03:16Z</time>
      </trkpt>
      <trkpt lat="45.81184" lon="4.25318">
        <ele>538.423</ele>
        <time>2018-09-24T14:03:21Z</time>
      </trkpt>
      <trkpt lat="45.81184" lon="4.25319">
        <ele>538.863</ele>
        <time>2018-09-24T14:03:26Z</time>
      </trkpt>
      <trkpt lat="45.81185" lon="4.25319">
        <ele>539.353</ele>
        <time>2018-09-24T14:03:32Z</time>
      </trkpt>
      <trkpt lat="45.81185" lon="4.25319">
        <ele>539.506</ele>
        <time>2018-09-24T14:03:37Z</time>
      </trkpt>
      <trkpt lat="45.81185" lon="4.25319">
        <ele>539.718</ele>
        <time>2018-09-24T14:03:43Z</time>
      </trkpt>
      <trkpt lat="45.81185" lon="4.25319">
        <ele>539.915</ele>
        <time>2018-09-24T14:03:48Z</time>
      </trkpt>
      <trkpt lat="45.81182" lon="4.25307">
        <ele>541.99</ele>
        <time>2018-09-24T14:03:54Z</time>
      </trkpt>
      <trkpt lat="45.81182" lon="4.25304">
        <ele>542.786</ele>
        <time>2018-09-24T14:04:00Z</time>
      </trkpt>
      <trkpt lat="45.81182" lon="4.25302">
        <ele>543.54</ele>
        <time>2018-09-24T14:04:06Z</time>
      </trkpt>
      <trkpt lat="45.81182" lon="4.25302">
        <ele>544.445</ele>
        <time>2018-09-24T14:04:12Z</time>
      </trkpt>
      <trkpt lat="45.81182" lon="4.25302">
        <ele>544.518</ele>
        <time>2018-09-24T14:04:17Z</time>
      </trkpt>
      <trkpt lat="45.81182" lon="4.25302">
        <ele>544.382</ele>
        <time>2018-09-24T14:04:23Z</time>
      </trkpt>
      <trkpt lat="45.8118" lon="4.25298">
        <ele>544.997</ele>
        <time>2018-09-24T14:04:28Z</time>
      </trkpt>
      <trkpt lat="45.8118" lon="4.25298">
        <ele>546.292</ele>
        <time>2018-09-24T14:04:34Z</time>
      </trkpt>
      <trkpt lat="45.8118" lon="4.25298">
        <ele>547.432</ele>
        <time>2018-09-24T14:04:40Z</time>
      </trkpt>
      <trkpt lat="45.8118" lon="4.25298">
        <ele>547.868</ele>
        <time>2018-09-24T14:04:45Z</time>
      </trkpt>
      <trkpt lat="45.81181" lon="4.25299">
        <ele>548.675</ele>
        <time>2018-09-24T14:04:50Z</time>
      </trkpt>
      <trkpt lat="45.81181" lon="4.25299">
        <ele>549.036</ele>
        <time>2018-09-24T14:04:56Z</time>
      </trkpt>
      <trkpt lat="45.81181" lon="4.25299">
        <ele>550.061</ele>
        <time>2018-09-24T14:05:01Z</time>
      </trkpt>
      <trkpt lat="45.81183" lon="4.25302">
        <ele>550.518</ele>
        <time>2018-09-24T14:05:06Z</time>
      </trkpt>
      <trkpt lat="45.81183" lon="4.25302">
        <ele>550.395</ele>
        <time>2018-09-24T14:05:12Z</time>
      </trkpt>
      <trkpt lat="45.81183" lon="4.25302">
        <ele>549.997</ele>
        <time>2018-09-24T14:05:17Z</time>
      </trkpt>
      <trkpt lat="45.81183" lon="4.25302">
        <ele>548.202</ele>
        <time>2018-09-24T14:05:23Z</time>
      </trkpt>
      <trkpt lat="45.81185" lon="4.25303">
        <ele>547.066</ele>
        <time>2018-09-24T14:05:28Z</time>
      </trkpt>
      <trkpt lat="45.81185" lon="4.25303">
        <ele>546.899</ele>
        <time>2018-09-24T14:05:34Z</time>
      </trkpt>
      <trkpt lat="45.81185" lon="4.25303">
        <ele>546.865</ele>
        <time>2018-09-24T14:05:39Z</time>
      </trkpt>
      <trkpt lat="45.81185" lon="4.25303">
        <ele>546.74</ele>
        <time>2018-09-24T14:05:45Z</time>
      </trkpt>
      <trkpt lat="45.81185" lon="4.25303">
        <ele>546.574</ele>
        <time>2018-09-24T14:05:51Z</time>
      </trkpt>
      <trkpt lat="45.81185" lon="4.25303">
        <ele>546.409</ele>
        <time>2018-09-24T14:05:56Z</time>
      </trkpt>
      <trkpt lat="45.81185" lon="4.25303">
        <ele>546.241</ele>
        <time>2018-09-24T14:06:02Z</time>
      </trkpt>
      <trkpt lat="45.81185" lon="4.25303">
        <ele>546.168</ele>
        <time>2018-09-24T14:06:08Z</time>
      </trkpt>
      <trkpt lat="45.81185" lon="4.25303">
        <ele>545.938</ele>
        <time>2018-09-24T14:06:14Z</time>
      </trkpt>
      <trkpt lat="45.81185" lon="4.25303">
        <ele>545.826</ele>
        <time>2018-09-24T14:06:20Z</time>
      </trkpt>
      <trkpt lat="45.81185" lon="4.25303">
        <ele>545.556</ele>
        <time>2018-09-24T14:06:25Z</time>
      </trkpt>
      <trkpt lat="45.81185" lon="4.25303">
        <ele>545.327</ele>
        <time>2018-09-24T14:06:31Z</time>
      </trkpt>
      <trkpt lat="45.81185" lon="4.25303">
        <ele>545.309</ele>
        <time>2018-09-24T14:06:37Z</time>
      </trkpt>
      <trkpt lat="45.81185" lon="4.25303">
        <ele>545.112</ele>
        <time>2018-09-24T14:06:43Z</time>
      </trkpt>
      <trkpt lat="45.81185" lon="4.25303">
        <ele>544.669</ele>
        <time>2018-09-24T14:06:49Z</time>
      </trkpt>
      <trkpt lat="45.81185" lon="4.25303">
        <ele>544.538</ele>
        <time>2018-09-24T14:06:54Z</time>
      </trkpt>
      <trkpt lat="45.81185" lon="4.25303">
        <ele>544.408</ele>
        <time>2018-09-24T14:06:59Z</time>
      </trkpt>
      <trkpt lat="45.81185" lon="4.25303">
        <ele>544.372</ele>
        <time>2018-09-24T14:07:05Z</time>
      </trkpt>
      <trkpt lat="45.81184" lon="4.25303">
        <ele>544.385</ele>
        <time>2018-09-24T14:07:10Z</time>
      </trkpt>
      <trkpt lat="45.81184" lon="4.25303">
        <ele>544.517</ele>
        <time>2018-09-24T14:07:16Z</time>
      </trkpt>
      <trkpt lat="45.81184" lon="4.25303">
        <ele>544.497</ele>
        <time>2018-09-24T14:07:21Z</time>
      </trkpt>
      <trkpt lat="45.81184" lon="4.25303">
        <ele>544.353</ele>
        <time>2018-09-24T14:07:26Z</time>
      </trkpt>
      <trkpt lat="45.81184" lon="4.25303">
        <ele>544.243</ele>
        <time>2018-09-24T14:07:32Z</time>
      </trkpt>
      <trkpt lat="45.81184" lon="4.25303">
        <ele>544.279</ele>
        <time>2018-09-24T14:07:37Z</time>
      </trkpt>
      <trkpt lat="45.81184" lon="4.25303">
        <ele>544.381</ele>
        <time>2018-09-24T14:07:43Z</time>
      </trkpt>
      <trkpt lat="45.81184" lon="4.25303">
        <ele>544.477</ele>
        <time>2018-09-24T14:07:48Z</time>
      </trkpt>
      <trkpt lat="45.81184" lon="4.25303">
        <ele>544.648</ele>
        <time>2018-09-24T14:07:54Z</time>
      </trkpt>
      <trkpt lat="45.81185" lon="4.25301">
        <ele>545.029</ele>
        <time>2018-09-24T14:07:59Z</time>
      </trkpt>
      <trkpt lat="45.81185" lon="4.25301">
        <ele>544.707</ele>
        <time>2018-09-24T14:08:05Z</time>
      </trkpt>
      <trkpt lat="45.81185" lon="4.25301">
        <ele>544.012</ele>
        <time>2018-09-24T14:08:11Z</time>
      </trkpt>
      <trkpt lat="45.81185" lon="4.25301">
        <ele>543.884</ele>
        <time>2018-09-24T14:08:16Z</time>
      </trkpt>
      <trkpt lat="45.81185" lon="4.25301">
        <ele>543.68</ele>
        <time>2018-09-24T14:08:22Z</time>
      </trkpt>
      <trkpt lat="45.81185" lon="4.25301">
        <ele>543.079</ele>
        <time>2018-09-24T14:08:28Z</time>
      </trkpt>
      <trkpt lat="45.81186" lon="4.25302">
        <ele>542.181</ele>
        <time>2018-09-24T14:08:34Z</time>
      </trkpt>
      <trkpt lat="45.81186" lon="4.25302">
        <ele>541.869</ele>
        <time>2018-09-24T14:08:40Z</time>
      </trkpt>
      <trkpt lat="45.81186" lon="4.25302">
        <ele>541.748</ele>
        <time>2018-09-24T14:08:45Z</time>
      </trkpt>
      <trkpt lat="45.81186" lon="4.25302">
        <ele>541.645</ele>
        <time>2018-09-24T14:08:51Z</time>
      </trkpt>
      <trkpt lat="45.81186" lon="4.25302">
        <ele>541.593</ele>
        <time>2018-09-24T14:08:56Z</time>
      </trkpt>
      <trkpt lat="45.81186" lon="4.25302">
        <ele>541.553</ele>
        <time>2018-09-24T14:09:02Z</time>
      </trkpt>
      <trkpt lat="45.81186" lon="4.25301">
        <ele>541.53</ele>
        <time>2018-09-24T14:09:08Z</time>
      </trkpt>
      <trkpt lat="45.81186" lon="4.25301">
        <ele>541.465</ele>
        <time>2018-09-24T14:09:13Z</time>
      </trkpt>
      <trkpt lat="45.81186" lon="4.25301">
        <ele>541.418</ele>
        <time>2018-09-24T14:09:19Z</time>
      </trkpt>
      <trkpt lat="45.81186" lon="4.25301">
        <ele>541.477</ele>
        <time>2018-09-24T14:09:24Z</time>
      </trkpt>
      <trkpt lat="45.81186" lon="4.25301">
        <ele>541.729</ele>
        <time>2018-09-24T14:09:30Z</time>
      </trkpt>
      <trkpt lat="45.81184" lon="4.25299">
        <ele>542.927</ele>
        <time>2018-09-24T14:09:36Z</time>
      </trkpt>
      <trkpt lat="45.81184" lon="4.253">
        <ele>543.043</ele>
        <time>2018-09-24T14:09:42Z</time>
      </trkpt>
      <trkpt lat="45.81184" lon="4.253">
        <ele>543.215</ele>
        <time>2018-09-24T14:09:48Z</time>
      </trkpt>
      <trkpt lat="45.81184" lon="4.253">
        <ele>543.368</ele>
        <time>2018-09-24T14:09:53Z</time>
      </trkpt>
      <trkpt lat="45.81184" lon="4.253">
        <ele>543.488</ele>
        <time>2018-09-24T14:09:58Z</time>
      </trkpt>
      <trkpt lat="45.81184" lon="4.253">
        <ele>543.713</ele>
        <time>2018-09-24T14:10:04Z</time>
      </trkpt>
      <trkpt lat="45.81184" lon="4.253">
        <ele>544.225</ele>
        <time>2018-09-24T14:10:09Z</time>
      </trkpt>
      <trkpt lat="45.81184" lon="4.253">
        <ele>544.432</ele>
        <time>2018-09-24T14:10:15Z</time>
      </trkpt>
      <trkpt lat="45.81184" lon="4.253">
        <ele>544.498</ele>
        <time>2018-09-24T14:10:20Z</time>
      </trkpt>
      <trkpt lat="45.81184" lon="4.253">
        <ele>544.534</ele>
        <time>2018-09-24T14:10:26Z</time>
      </trkpt>
      <trkpt lat="45.81184" lon="4.253">
        <ele>544.533</ele>
        <time>2018-09-24T14:10:31Z</time>
      </trkpt>
      <trkpt lat="45.81184" lon="4.253">
        <ele>544.531</ele>
        <time>2018-09-24T14:10:37Z</time>
      </trkpt>
      <trkpt lat="45.81184" lon="4.253">
        <ele>544.509</ele>
        <time>2018-09-24T14:10:43Z</time>
      </trkpt>
      <trkpt lat="45.81184" lon="4.253">
        <ele>544.636</ele>
        <time>2018-09-24T14:10:48Z</time>
      </trkpt>
      <trkpt lat="45.81184" lon="4.25301">
        <ele>545.472</ele>
        <time>2018-09-24T14:10:54Z</time>
      </trkpt>
      <trkpt lat="45.81184" lon="4.25301">
        <ele>545.68</ele>
        <time>2018-09-24T14:11:00Z</time>
      </trkpt>
      <trkpt lat="45.81185" lon="4.25301">
        <ele>545.874</ele>
        <time>2018-09-24T14:11:06Z</time>
      </trkpt>
      <trkpt lat="45.81186" lon="4.25298">
        <ele>547.065</ele>
        <time>2018-09-24T14:11:12Z</time>
      </trkpt>
      <trkpt lat="45.81186" lon="4.25298">
        <ele>548.888</ele>
        <time>2018-09-24T14:11:17Z</time>
      </trkpt>
      <trkpt lat="45.81187" lon="4.25298">
        <ele>550.754</ele>
        <time>2018-09-24T14:11:22Z</time>
      </trkpt>
      <trkpt lat="45.81187" lon="4.25298">
        <ele>551.595</ele>
        <time>2018-09-24T14:11:28Z</time>
      </trkpt>
      <trkpt lat="45.81187" lon="4.25298">
        <ele>552.444</ele>
        <time>2018-09-24T14:11:34Z</time>
      </trkpt>
      <trkpt lat="45.81186" lon="4.25298">
        <ele>554.19</ele>
        <time>2018-09-24T14:11:39Z</time>
      </trkpt>
      <trkpt lat="45.81185" lon="4.25299">
        <ele>554.593</ele>
        <time>2018-09-24T14:11:45Z</time>
      </trkpt>
      <trkpt lat="45.81185" lon="4.25299">
        <ele>554.881</ele>
        <time>2018-09-24T14:11:51Z</time>
      </trkpt>
      <trkpt lat="45.81185" lon="4.25299">
        <ele>555.004</ele>
        <time>2018-09-24T14:11:57Z</time>
      </trkpt>
      <trkpt lat="45.81185" lon="4.25299">
        <ele>555.828</ele>
        <time>2018-09-24T14:12:03Z</time>
      </trkpt>
      <trkpt lat="45.81185" lon="4.25299">
        <ele>555.602</ele>
        <time>2018-09-24T14:12:08Z</time>
      </trkpt>
      <trkpt lat="45.81185" lon="4.25299">
        <ele>555.323</ele>
        <time>2018-09-24T14:12:14Z</time>
      </trkpt>
      <trkpt lat="45.81185" lon="4.25299">
        <ele>555.324</ele>
        <time>2018-09-24T14:12:19Z</time>
      </trkpt>
      <trkpt lat="45.81185" lon="4.25299">
        <ele>555.446</ele>
        <time>2018-09-24T14:12:25Z</time>
      </trkpt>
      <trkpt lat="45.81185" lon="4.25299">
        <ele>554.936</ele>
        <time>2018-09-24T14:12:30Z</time>
      </trkpt>
      <trkpt lat="45.81187" lon="4.253">
        <ele>554.513</ele>
        <time>2018-09-24T14:12:35Z</time>
      </trkpt>
      <trkpt lat="45.81187" lon="4.253">
        <ele>554.383</ele>
        <time>2018-09-24T14:12:41Z</time>
      </trkpt>
      <trkpt lat="45.81187" lon="4.253">
        <ele>554.349</ele>
        <time>2018-09-24T14:12:46Z</time>
      </trkpt>
      <trkpt lat="45.81187" lon="4.253">
        <ele>554.147</ele>
        <time>2018-09-24T14:12:51Z</time>
      </trkpt>
      <trkpt lat="45.81187" lon="4.253">
        <ele>553.736</ele>
        <time>2018-09-24T14:12:57Z</time>
      </trkpt>
      <trkpt lat="45.81187" lon="4.253">
        <ele>553.506</ele>
        <time>2018-09-24T14:13:02Z</time>
      </trkpt>
      <trkpt lat="45.81187" lon="4.253">
        <ele>553.57</ele>
        <time>2018-09-24T14:13:08Z</time>
      </trkpt>
      <trkpt lat="45.81187" lon="4.253">
        <ele>553.612</ele>
        <time>2018-09-24T14:13:14Z</time>
      </trkpt>
      <trkpt lat="45.81187" lon="4.253">
        <ele>553.677</ele>
        <time>2018-09-24T14:13:19Z</time>
      </trkpt>
      <trkpt lat="45.81187" lon="4.253">
        <ele>553.775</ele>
        <time>2018-09-24T14:13:24Z</time>
      </trkpt>
      <trkpt lat="45.81187" lon="4.253">
        <ele>553.829</ele>
        <time>2018-09-24T14:13:30Z</time>
      </trkpt>
      <trkpt lat="45.81187" lon="4.253">
        <ele>553.783</ele>
        <time>2018-09-24T14:13:36Z</time>
      </trkpt>
      <trkpt lat="45.81187" lon="4.253">
        <ele>553.737</ele>
        <time>2018-09-24T14:13:42Z</time>
      </trkpt>
      <trkpt lat="45.81187" lon="4.253">
        <ele>553.673</ele>
        <time>2018-09-24T14:13:48Z</time>
      </trkpt>
      <trkpt lat="45.81187" lon="4.253">
        <ele>553.67</ele>
        <time>2018-09-24T14:13:54Z</time>
      </trkpt>
      <trkpt lat="45.81187" lon="4.253">
        <ele>553.719</ele>
        <time>2018-09-24T14:14:00Z</time>
      </trkpt>
      <trkpt lat="45.81187" lon="4.253">
        <ele>553.994</ele>
        <time>2018-09-24T14:14:06Z</time>
      </trkpt>
      <trkpt lat="45.81188" lon="4.25301">
        <ele>554.187</ele>
        <time>2018-09-24T14:14:12Z</time>
      </trkpt>
      <trkpt lat="45.81188" lon="4.25301">
        <ele>554.216</ele>
        <time>2018-09-24T14:14:17Z</time>
      </trkpt>
      <trkpt lat="45.81188" lon="4.25301">
        <ele>554.101</ele>
        <time>2018-09-24T14:14:22Z</time>
      </trkpt>
      <trkpt lat="45.81189" lon="4.25301">
        <ele>553.956</ele>
        <time>2018-09-24T14:14:28Z</time>
      </trkpt>
      <trkpt lat="45.81189" lon="4.25301">
        <ele>553.838</ele>
        <time>2018-09-24T14:14:34Z</time>
      </trkpt>
      <trkpt lat="45.81189" lon="4.25301">
        <ele>553.686</ele>
        <time>2018-09-24T14:14:40Z</time>
      </trkpt>
      <trkpt lat="45.81189" lon="4.25301">
        <ele>553.175</ele>
        <time>2018-09-24T14:14:46Z</time>
      </trkpt>
      <trkpt lat="45.81189" lon="4.25301">
        <ele>553.036</ele>
        <time>2018-09-24T14:14:52Z</time>
      </trkpt>
      <trkpt lat="45.81189" lon="4.25301">
        <ele>552.996</ele>
        <time>2018-09-24T14:14:58Z</time>
      </trkpt>
      <trkpt lat="45.81189" lon="4.25301">
        <ele>552.834</ele>
        <time>2018-09-24T14:15:04Z</time>
      </trkpt>
      <trkpt lat="45.81189" lon="4.25301">
        <ele>552.551</ele>
        <time>2018-09-24T14:15:10Z</time>
      </trkpt>
      <trkpt lat="45.81189" lon="4.25301">
        <ele>552.249</ele>
        <time>2018-09-24T14:15:16Z</time>
      </trkpt>
      <trkpt lat="45.81189" lon="4.25301">
        <ele>551.902</ele>
        <time>2018-09-24T14:15:22Z</time>
      </trkpt>
      <trkpt lat="45.81189" lon="4.25301">
        <ele>551.655</ele>
        <time>2018-09-24T14:15:28Z</time>
      </trkpt>
      <trkpt lat="45.81189" lon="4.25301">
        <ele>551.436</ele>
        <time>2018-09-24T14:15:34Z</time>
      </trkpt>
      <trkpt lat="45.81189" lon="4.25301">
        <ele>551.324</ele>
        <time>2018-09-24T14:15:40Z</time>
      </trkpt>
      <trkpt lat="45.81189" lon="4.25301">
        <ele>551.105</ele>
        <time>2018-09-24T14:15:46Z</time>
      </trkpt>
      <trkpt lat="45.81189" lon="4.25301">
        <ele>549.914</ele>
        <time>2018-09-24T14:15:52Z</time>
      </trkpt>
      <trkpt lat="45.81189" lon="4.25301">
        <ele>548.721</ele>
        <time>2018-09-24T14:15:58Z</time>
      </trkpt>
      <trkpt lat="45.81189" lon="4.25301">
        <ele>548.329</ele>
        <time>2018-09-24T14:16:04Z</time>
      </trkpt>
      <trkpt lat="45.81189" lon="4.25301">
        <ele>547.806</ele>
        <time>2018-09-24T14:16:10Z</time>
      </trkpt>
      <trkpt lat="45.81189" lon="4.25301">
        <ele>547.559</ele>
        <time>2018-09-24T14:16:16Z</time>
      </trkpt>
      <trkpt lat="45.81189" lon="4.25301">
        <ele>547.515</ele>
        <time>2018-09-24T14:16:22Z</time>
      </trkpt>
      <trkpt lat="45.81189" lon="4.25301">
        <ele>547.669</ele>
        <time>2018-09-24T14:16:28Z</time>
      </trkpt>
      <trkpt lat="45.81189" lon="4.25301">
        <ele>547.842</ele>
        <time>2018-09-24T14:16:34Z</time>
      </trkpt>
      <trkpt lat="45.81189" lon="4.25301">
        <ele>548.012</ele>
        <time>2018-09-24T14:16:40Z</time>
      </trkpt>
      <trkpt lat="45.81189" lon="4.25301">
        <ele>548.213</ele>
        <time>2018-09-24T14:16:46Z</time>
      </trkpt>
      <trkpt lat="45.81189" lon="4.25301">
        <ele>548.508</ele>
        <time>2018-09-24T14:16:52Z</time>
      </trkpt>
      <trkpt lat="45.81189" lon="4.25301">
        <ele>548.69</ele>
        <time>2018-09-24T14:16:57Z</time>
      </trkpt>
      <trkpt lat="45.81189" lon="4.25301">
        <ele>548.841</ele>
        <time>2018-09-24T14:17:03Z</time>
      </trkpt>
      <trkpt lat="45.81189" lon="4.25301">
        <ele>548.945</ele>
        <time>2018-09-24T14:17:08Z</time>
      </trkpt>
      <trkpt lat="45.81189" lon="4.25301">
        <ele>549.016</ele>
        <time>2018-09-24T14:17:13Z</time>
      </trkpt>
      <trkpt lat="45.81188" lon="4.25301">
        <ele>549.259</ele>
        <time>2018-09-24T14:17:19Z</time>
      </trkpt>
      <trkpt lat="45.81186" lon="4.25304">
        <ele>549.87</ele>
        <time>2018-09-24T14:17:25Z</time>
      </trkpt>
      <trkpt lat="45.81183" lon="4.25307">
        <ele>550.076</ele>
        <time>2018-09-24T14:17:31Z</time>
      </trkpt>
      <trkpt lat="45.8118" lon="4.25308">
        <ele>550.196</ele>
        <time>2018-09-24T14:17:37Z</time>
      </trkpt>
      <trkpt lat="45.8118" lon="4.25308">
        <ele>550.263</ele>
        <time>2018-09-24T14:17:42Z</time>
      </trkpt>
      <trkpt lat="45.81178" lon="4.25309">
        <ele>550.439</ele>
        <time>2018-09-24T14:17:48Z</time>
      </trkpt>
      <trkpt lat="45.81176" lon="4.25313">
        <ele>550.141</ele>
        <time>2018-09-24T14:17:54Z</time>
      </trkpt>
      <trkpt lat="45.81173" lon="4.25316">
        <ele>550.5</ele>
        <time>2018-09-24T14:18:00Z</time>
      </trkpt>
      <trkpt lat="45.81172" lon="4.25316">
        <ele>550.979</ele>
        <time>2018-09-24T14:18:06Z</time>
      </trkpt>
      <trkpt lat="45.81168" lon="4.2532">
        <ele>551.491</ele>
        <time>2018-09-24T14:18:12Z</time>
      </trkpt>
      <trkpt lat="45.81164" lon="4.25322">
        <ele>552.187</ele>
        <time>2018-09-24T14:18:18Z</time>
      </trkpt>
      <trkpt lat="45.81162" lon="4.25324">
        <ele>552.893</ele>
        <time>2018-09-24T14:18:23Z</time>
      </trkpt>
      <trkpt lat="45.81159" lon="4.25324">
        <ele>552.852</ele>
        <time>2018-09-24T14:18:29Z</time>
      </trkpt>
      <trkpt lat="45.81156" lon="4.25327">
        <ele>552.523</ele>
        <time>2018-09-24T14:18:35Z</time>
      </trkpt>
      <trkpt lat="45.81156" lon="4.25327">
        <ele>552.254</ele>
        <time>2018-09-24T14:18:40Z</time>
      </trkpt>
      <trkpt lat="45.81145" lon="4.25335">
        <ele>551.963</ele>
        <time>2018-09-24T14:18:46Z</time>
      </trkpt>
      <trkpt lat="45.81137" lon="4.25343">
        <ele>551.282</ele>
        <time>2018-09-24T14:18:51Z</time>
      </trkpt>
      <trkpt lat="45.81128" lon="4.25352">
        <ele>550.694</ele>
        <time>2018-09-24T14:18:57Z</time>
      </trkpt>
      <trkpt lat="45.81122" lon="4.25353">
        <ele>549.908</ele>
        <time>2018-09-24T14:19:03Z</time>
      </trkpt>
      <trkpt lat="45.81117" lon="4.25357">
        <ele>549.285</ele>
        <time>2018-09-24T14:19:08Z</time>
      </trkpt>
      <trkpt lat="45.81115" lon="4.25357">
        <ele>548.89</ele>
        <time>2018-09-24T14:19:14Z</time>
      </trkpt>
      <trkpt lat="45.81112" lon="4.2536">
        <ele>548.365</ele>
        <time>2018-09-24T14:19:20Z</time>
      </trkpt>
      <trkpt lat="45.8111" lon="4.25364">
        <ele>547.721</ele>
        <time>2018-09-24T14:19:25Z</time>
      </trkpt>
      <trkpt lat="45.81106" lon="4.25367">
        <ele>547.172</ele>
        <time>2018-09-24T14:19:30Z</time>
      </trkpt>
      <trkpt lat="45.81103" lon="4.2537">
        <ele>546.493</ele>
        <time>2018-09-24T14:19:36Z</time>
      </trkpt>
      <trkpt lat="45.81097" lon="4.25373">
        <ele>546.31</ele>
        <time>2018-09-24T14:19:41Z</time>
      </trkpt>
      <trkpt lat="45.8109" lon="4.25367">
        <ele>546.641</ele>
        <time>2018-09-24T14:19:47Z</time>
      </trkpt>
      <trkpt lat="45.81085" lon="4.25361">
        <ele>547.311</ele>
        <time>2018-09-24T14:19:53Z</time>
      </trkpt>
      <trkpt lat="45.81078" lon="4.25353">
        <ele>548.326</ele>
        <time>2018-09-24T14:19:59Z</time>
      </trkpt>
      <trkpt lat="45.81076" lon="4.25347">
        <ele>549.42</ele>
        <time>2018-09-24T14:20:05Z</time>
      </trkpt>
      <trkpt lat="45.81073" lon="4.25342">
        <ele>550.187</ele>
        <time>2018-09-24T14:20:10Z</time>
      </trkpt>
      <trkpt lat="45.8107" lon="4.25337">
        <ele>551.042</ele>
        <time>2018-09-24T14:20:16Z</time>
      </trkpt>
      <trkpt lat="45.81069" lon="4.25331">
        <ele>551.544</ele>
        <time>2018-09-24T14:20:21Z</time>
      </trkpt>
      <trkpt lat="45.81067" lon="4.25324">
        <ele>551.949</ele>
        <time>2018-09-24T14:20:27Z</time>
      </trkpt>
      <trkpt lat="45.81066" lon="4.25319">
        <ele>552.041</ele>
        <time>2018-09-24T14:20:32Z</time>
      </trkpt>
      <trkpt lat="45.81065" lon="4.25311">
        <ele>551.95</ele>
        <time>2018-09-24T14:20:38Z</time>
      </trkpt>
      <trkpt lat="45.81062" lon="4.25305">
        <ele>551.672</ele>
        <time>2018-09-24T14:20:43Z</time>
      </trkpt>
      <trkpt lat="45.81058" lon="4.25299">
        <ele>551.496</ele>
        <time>2018-09-24T14:20:49Z</time>
      </trkpt>
      <trkpt lat="45.81054" lon="4.25287">
        <ele>551.142</ele>
        <time>2018-09-24T14:20:55Z</time>
      </trkpt>
      <trkpt lat="45.8105" lon="4.2528">
        <ele>550.836</ele>
        <time>2018-09-24T14:21:01Z</time>
      </trkpt>
      <trkpt lat="45.81048" lon="4.2527">
        <ele>550.845</ele>
        <time>2018-09-24T14:21:07Z</time>
      </trkpt>
      <trkpt lat="45.81043" lon="4.25261">
        <ele>551.068</ele>
        <time>2018-09-24T14:21:13Z</time>
      </trkpt>
      <trkpt lat="45.81042" lon="4.25254">
        <ele>551.055</ele>
        <time>2018-09-24T14:21:19Z</time>
      </trkpt>
      <trkpt lat="45.81041" lon="4.25247">
        <ele>550.83</ele>
        <time>2018-09-24T14:21:24Z</time>
      </trkpt>
      <trkpt lat="45.8104" lon="4.25242">
        <ele>551.002</ele>
        <time>2018-09-24T14:21:30Z</time>
      </trkpt>
      <trkpt lat="45.81039" lon="4.25235">
        <ele>551.277</ele>
        <time>2018-09-24T14:21:35Z</time>
      </trkpt>
      <trkpt lat="45.81036" lon="4.25223">
        <ele>551.641</ele>
        <time>2018-09-24T14:21:41Z</time>
      </trkpt>
      <trkpt lat="45.81032" lon="4.25219">
        <ele>551.733</ele>
        <time>2018-09-24T14:21:46Z</time>
      </trkpt>
      <trkpt lat="45.8103" lon="4.25213">
        <ele>551.742</ele>
        <time>2018-09-24T14:21:52Z</time>
      </trkpt>
      <trkpt lat="45.81028" lon="4.25207">
        <ele>551.756</ele>
        <time>2018-09-24T14:21:57Z</time>
      </trkpt>
      <trkpt lat="45.81026" lon="4.25201">
        <ele>551.967</ele>
        <time>2018-09-24T14:22:02Z</time>
      </trkpt>
      <trkpt lat="45.8102" lon="4.25195">
        <ele>552.363</ele>
        <time>2018-09-24T14:22:08Z</time>
      </trkpt>
      <trkpt lat="45.81016" lon="4.25192">
        <ele>552.951</ele>
        <time>2018-09-24T14:22:14Z</time>
      </trkpt>
      <trkpt lat="45.81012" lon="4.25188">
        <ele>553.563</ele>
        <time>2018-09-24T14:22:20Z</time>
      </trkpt>
      <trkpt lat="45.81004" lon="4.2518">
        <ele>554.459</ele>
        <time>2018-09-24T14:22:26Z</time>
      </trkpt>
      <trkpt lat="45.80999" lon="4.25174">
        <ele>554.532</ele>
        <time>2018-09-24T14:22:32Z</time>
      </trkpt>
      <trkpt lat="45.80995" lon="4.25168">
        <ele>554.589</ele>
        <time>2018-09-24T14:22:37Z</time>
      </trkpt>
      <trkpt lat="45.80992" lon="4.25157">
        <ele>554.619</ele>
        <time>2018-09-24T14:22:43Z</time>
      </trkpt>
      <trkpt lat="45.80988" lon="4.25147">
        <ele>554.321</ele>
        <time>2018-09-24T14:22:49Z</time>
      </trkpt>
      <trkpt lat="45.80985" lon="4.2514">
        <ele>553.819</ele>
        <time>2018-09-24T14:22:54Z</time>
      </trkpt>
      <trkpt lat="45.80982" lon="4.25132">
        <ele>553.677</ele>
        <time>2018-09-24T14:23:00Z</time>
      </trkpt>
      <trkpt lat="45.80977" lon="4.25125">
        <ele>553.262</ele>
        <time>2018-09-24T14:23:06Z</time>
      </trkpt>
      <trkpt lat="45.80972" lon="4.25116">
        <ele>552.593</ele>
        <time>2018-09-24T14:23:12Z</time>
      </trkpt>
      <trkpt lat="45.8097" lon="4.25109">
        <ele>551.596</ele>
        <time>2018-09-24T14:23:18Z</time>
      </trkpt>
      <trkpt lat="45.80967" lon="4.25103">
        <ele>550.772</ele>
        <time>2018-09-24T14:23:24Z</time>
      </trkpt>
      <trkpt lat="45.80962" lon="4.2509">
        <ele>550.035</ele>
        <time>2018-09-24T14:23:30Z</time>
      </trkpt>
      <trkpt lat="45.80959" lon="4.25083">
        <ele>549.151</ele>
        <time>2018-09-24T14:23:36Z</time>
      </trkpt>
      <trkpt lat="45.80954" lon="4.25076">
        <ele>548.712</ele>
        <time>2018-09-24T14:23:42Z</time>
      </trkpt>
      <trkpt lat="45.80953" lon="4.25071">
        <ele>548.233</ele>
        <time>2018-09-24T14:23:47Z</time>
      </trkpt>
      <trkpt lat="45.80948" lon="4.25063">
        <ele>547.789</ele>
        <time>2018-09-24T14:23:53Z</time>
      </trkpt>
      <trkpt lat="45.80943" lon="4.25058">
        <ele>547.713</ele>
        <time>2018-09-24T14:23:58Z</time>
      </trkpt>
      <trkpt lat="45.80938" lon="4.25054">
        <ele>547.568</ele>
        <time>2018-09-24T14:24:03Z</time>
      </trkpt>
      <trkpt lat="45.80932" lon="4.2505">
        <ele>547.217</ele>
        <time>2018-09-24T14:24:08Z</time>
      </trkpt>
      <trkpt lat="45.80927" lon="4.25047">
        <ele>546.874</ele>
        <time>2018-09-24T14:24:14Z</time>
      </trkpt>
      <trkpt lat="45.80923" lon="4.25045">
        <ele>546.54</ele>
        <time>2018-09-24T14:24:19Z</time>
      </trkpt>
      <trkpt lat="45.80915" lon="4.25044">
        <ele>546.061</ele>
        <time>2018-09-24T14:24:25Z</time>
      </trkpt>
      <trkpt lat="45.80912" lon="4.25042">
        <ele>545.865</ele>
        <time>2018-09-24T14:24:30Z</time>
      </trkpt>
      <trkpt lat="45.80909" lon="4.25043">
        <ele>545.423</ele>
        <time>2018-09-24T14:24:35Z</time>
      </trkpt>
      <trkpt lat="45.80903" lon="4.25042">
        <ele>545.091</ele>
        <time>2018-09-24T14:24:41Z</time>
      </trkpt>
      <trkpt lat="45.80895" lon="4.25039">
        <ele>544.756</ele>
        <time>2018-09-24T14:24:47Z</time>
      </trkpt>
      <trkpt lat="45.80887" lon="4.25038">
        <ele>544.198</ele>
        <time>2018-09-24T14:24:53Z</time>
      </trkpt>
      <trkpt lat="45.80881" lon="4.25036">
        <ele>543.85</ele>
        <time>2018-09-24T14:24:59Z</time>
      </trkpt>
      <trkpt lat="45.80873" lon="4.25033">
        <ele>543.626</ele>
        <time>2018-09-24T14:25:05Z</time>
      </trkpt>
      <trkpt lat="45.80867" lon="4.2503">
        <ele>543.502</ele>
        <time>2018-09-24T14:25:11Z</time>
      </trkpt>
      <trkpt lat="45.8086" lon="4.25031">
        <ele>543.641</ele>
        <time>2018-09-24T14:25:17Z</time>
      </trkpt>
      <trkpt lat="45.80856" lon="4.25029">
        <ele>543.575</ele>
        <time>2018-09-24T14:25:22Z</time>
      </trkpt>
      <trkpt lat="45.80852" lon="4.25028">
        <ele>543.088</ele>
        <time>2018-09-24T14:25:28Z</time>
      </trkpt>
      <trkpt lat="45.80848" lon="4.25026">
        <ele>542.613</ele>
        <time>2018-09-24T14:25:33Z</time>
      </trkpt>
      <trkpt lat="45.80846" lon="4.25024">
        <ele>542.425</ele>
        <time>2018-09-24T14:25:38Z</time>
      </trkpt>
      <trkpt lat="45.80841" lon="4.2502">
        <ele>542.278</ele>
        <time>2018-09-24T14:25:44Z</time>
      </trkpt>
      <trkpt lat="45.80837" lon="4.25016">
        <ele>542.092</ele>
        <time>2018-09-24T14:25:49Z</time>
      </trkpt>
      <trkpt lat="45.80833" lon="4.25014">
        <ele>541.56</ele>
        <time>2018-09-24T14:25:55Z</time>
      </trkpt>
      <trkpt lat="45.80828" lon="4.25012">
        <ele>540.936</ele>
        <time>2018-09-24T14:26:00Z</time>
      </trkpt>
      <trkpt lat="45.80823" lon="4.25007">
        <ele>540.331</ele>
        <time>2018-09-24T14:26:06Z</time>
      </trkpt>
      <trkpt lat="45.80818" lon="4.25">
        <ele>540.015</ele>
        <time>2018-09-24T14:26:12Z</time>
      </trkpt>
      <trkpt lat="45.80814" lon="4.24994">
        <ele>539.82</ele>
        <time>2018-09-24T14:26:18Z</time>
      </trkpt>
      <trkpt lat="45.80811" lon="4.24989">
        <ele>540.143</ele>
        <time>2018-09-24T14:26:23Z</time>
      </trkpt>
      <trkpt lat="45.80807" lon="4.24985">
        <ele>540.291</ele>
        <time>2018-09-24T14:26:28Z</time>
      </trkpt>
      <trkpt lat="45.80801" lon="4.24981">
        <ele>540.105</ele>
        <time>2018-09-24T14:26:34Z</time>
      </trkpt>
      <trkpt lat="45.80798" lon="4.24979">
        <ele>539.895</ele>
        <time>2018-09-24T14:26:39Z</time>
      </trkpt>
      <trkpt lat="45.80792" lon="4.24975">
        <ele>539.527</ele>
        <time>2018-09-24T14:26:44Z</time>
      </trkpt>
      <trkpt lat="45.80788" lon="4.24974">
        <ele>539.305</ele>
        <time>2018-09-24T14:26:49Z</time>
      </trkpt>
      <trkpt lat="45.80783" lon="4.24971">
        <ele>538.796</ele>
        <time>2018-09-24T14:26:55Z</time>
      </trkpt>
      <trkpt lat="45.8078" lon="4.2497">
        <ele>538.411</ele>
        <time>2018-09-24T14:27:00Z</time>
      </trkpt>
      <trkpt lat="45.80778" lon="4.24966">
        <ele>537.965</ele>
        <time>2018-09-24T14:27:05Z</time>
      </trkpt>
      <trkpt lat="45.80772" lon="4.24964">
        <ele>537.032</ele>
        <time>2018-09-24T14:27:11Z</time>
      </trkpt>
      <trkpt lat="45.80768" lon="4.24964">
        <ele>535.667</ele>
        <time>2018-09-24T14:27:17Z</time>
      </trkpt>
      <trkpt lat="45.80764" lon="4.24962">
        <ele>534.845</ele>
        <time>2018-09-24T14:27:22Z</time>
      </trkpt>
      <trkpt lat="45.80759" lon="4.2496">
        <ele>534.108</ele>
        <time>2018-09-24T14:27:28Z</time>
      </trkpt>
      <trkpt lat="45.80755" lon="4.24957">
        <ele>533.561</ele>
        <time>2018-09-24T14:27:33Z</time>
      </trkpt>
      <trkpt lat="45.80748" lon="4.24956">
        <ele>533.162</ele>
        <time>2018-09-24T14:27:39Z</time>
      </trkpt>
      <trkpt lat="45.80744" lon="4.24956">
        <ele>532.647</ele>
        <time>2018-09-24T14:27:45Z</time>
      </trkpt>
      <trkpt lat="45.80739" lon="4.24958">
        <ele>532.292</ele>
        <time>2018-09-24T14:27:50Z</time>
      </trkpt>
      <trkpt lat="45.80731" lon="4.2496">
        <ele>531.727</ele>
        <time>2018-09-24T14:27:56Z</time>
      </trkpt>
      <trkpt lat="45.80726" lon="4.24962">
        <ele>531.228</ele>
        <time>2018-09-24T14:28:01Z</time>
      </trkpt>
      <trkpt lat="45.80721" lon="4.2496">
        <ele>530.641</ele>
        <time>2018-09-24T14:28:07Z</time>
      </trkpt>
      <trkpt lat="45.80714" lon="4.24962">
        <ele>529.78</ele>
        <time>2018-09-24T14:28:12Z</time>
      </trkpt>
      <trkpt lat="45.80708" lon="4.24963">
        <ele>529.082</ele>
        <time>2018-09-24T14:28:17Z</time>
      </trkpt>
      <trkpt lat="45.80701" lon="4.24969">
        <ele>528.475</ele>
        <time>2018-09-24T14:28:23Z</time>
      </trkpt>
      <trkpt lat="45.80694" lon="4.24972">
        <ele>527.894</ele>
        <time>2018-09-24T14:28:29Z</time>
      </trkpt>
      <trkpt lat="45.80685" lon="4.24976">
        <ele>527.271</ele>
        <time>2018-09-24T14:28:35Z</time>
      </trkpt>
      <trkpt lat="45.80679" lon="4.2498">
        <ele>526.333</ele>
        <time>2018-09-24T14:28:40Z</time>
      </trkpt>
      <trkpt lat="45.8067" lon="4.24984">
        <ele>524.866</ele>
        <time>2018-09-24T14:28:46Z</time>
      </trkpt>
      <trkpt lat="45.80664" lon="4.24986">
        <ele>524.136</ele>
        <time>2018-09-24T14:28:52Z</time>
      </trkpt>
      <trkpt lat="45.80659" lon="4.24987">
        <ele>523.12</ele>
        <time>2018-09-24T14:28:57Z</time>
      </trkpt>
      <trkpt lat="45.80651" lon="4.24985">
        <ele>521.983</ele>
        <time>2018-09-24T14:29:03Z</time>
      </trkpt>
      <trkpt lat="45.80644" lon="4.24984">
        <ele>520.789</ele>
        <time>2018-09-24T14:29:08Z</time>
      </trkpt>
      <trkpt lat="45.80637" lon="4.24983">
        <ele>520.076</ele>
        <time>2018-09-24T14:29:13Z</time>
      </trkpt>
      <trkpt lat="45.80629" lon="4.24982">
        <ele>519.601</ele>
        <time>2018-09-24T14:29:19Z</time>
      </trkpt>
      <trkpt lat="45.80623" lon="4.24983">
        <ele>518.981</ele>
        <time>2018-09-24T14:29:24Z</time>
      </trkpt>
      <trkpt lat="45.80616" lon="4.24981">
        <ele>518.617</ele>
        <time>2018-09-24T14:29:30Z</time>
      </trkpt>
      <trkpt lat="45.80607" lon="4.24978">
        <ele>517.766</ele>
        <time>2018-09-24T14:29:36Z</time>
      </trkpt>
      <trkpt lat="45.80597" lon="4.24974">
        <ele>516.917</ele>
        <time>2018-09-24T14:29:42Z</time>
      </trkpt>
      <trkpt lat="45.80591" lon="4.24973">
        <ele>516.259</ele>
        <time>2018-09-24T14:29:48Z</time>
      </trkpt>
      <trkpt lat="45.80584" lon="4.24972">
        <ele>515.524</ele>
        <time>2018-09-24T14:29:54Z</time>
      </trkpt>
      <trkpt lat="45.80578" lon="4.2497">
        <ele>515.438</ele>
        <time>2018-09-24T14:30:00Z</time>
      </trkpt>
      <trkpt lat="45.80569" lon="4.24967">
        <ele>514.726</ele>
        <time>2018-09-24T14:30:06Z</time>
      </trkpt>
      <trkpt lat="45.80562" lon="4.24966">
        <ele>514.342</ele>
        <time>2018-09-24T14:30:12Z</time>
      </trkpt>
      <trkpt lat="45.80557" lon="4.24964">
        <ele>514.39</ele>
        <time>2018-09-24T14:30:18Z</time>
      </trkpt>
      <trkpt lat="45.80549" lon="4.24961">
        <ele>514.347</ele>
        <time>2018-09-24T14:30:23Z</time>
      </trkpt>
      <trkpt lat="45.80544" lon="4.24956">
        <ele>514.495</ele>
        <time>2018-09-24T14:30:29Z</time>
      </trkpt>
      <trkpt lat="45.80537" lon="4.2495">
        <ele>514.509</ele>
        <time>2018-09-24T14:30:34Z</time>
      </trkpt>
      <trkpt lat="45.8053" lon="4.24941">
        <ele>515.03</ele>
        <time>2018-09-24T14:30:40Z</time>
      </trkpt>
      <trkpt lat="45.80524" lon="4.24935">
        <ele>515.282</ele>
        <time>2018-09-24T14:30:45Z</time>
      </trkpt>
      <trkpt lat="45.8052" lon="4.24933">
        <ele>515.405</ele>
        <time>2018-09-24T14:30:50Z</time>
      </trkpt>
      <trkpt lat="45.80515" lon="4.24926">
        <ele>515.392</ele>
        <time>2018-09-24T14:30:56Z</time>
      </trkpt>
      <trkpt lat="45.80511" lon="4.24919">
        <ele>515.717</ele>
        <time>2018-09-24T14:31:01Z</time>
      </trkpt>
      <trkpt lat="45.80508" lon="4.24915">
        <ele>516.1</ele>
        <time>2018-09-24T14:31:07Z</time>
      </trkpt>
      <trkpt lat="45.80502" lon="4.24909">
        <ele>516.157</ele>
        <time>2018-09-24T14:31:13Z</time>
      </trkpt>
      <trkpt lat="45.80499" lon="4.24905">
        <ele>516.425</ele>
        <time>2018-09-24T14:31:19Z</time>
      </trkpt>
      <trkpt lat="45.80501" lon="4.24905">
        <ele>516.219</ele>
        <time>2018-09-24T14:31:26Z</time>
      </trkpt>
      <trkpt lat="45.80503" lon="4.24904">
        <ele>516.216</ele>
        <time>2018-09-24T14:31:32Z</time>
      </trkpt>
      <trkpt lat="45.80501" lon="4.24906">
        <ele>516.01</ele>
        <time>2018-09-24T14:31:38Z</time>
      </trkpt>
      <trkpt lat="45.805" lon="4.24907">
        <ele>515.586</ele>
        <time>2018-09-24T14:31:44Z</time>
      </trkpt>
      <trkpt lat="45.805" lon="4.24908">
        <ele>515.29</ele>
        <time>2018-09-24T14:31:49Z</time>
      </trkpt>
      <trkpt lat="45.80501" lon="4.24907">
        <ele>515.388</ele>
        <time>2018-09-24T14:31:55Z</time>
      </trkpt>
      <trkpt lat="45.80501" lon="4.24905">
        <ele>515.28</ele>
        <time>2018-09-24T14:32:01Z</time>
      </trkpt>
      <trkpt lat="45.80502" lon="4.24906">
        <ele>515.192</ele>
        <time>2018-09-24T14:32:06Z</time>
      </trkpt>
      <trkpt lat="45.805" lon="4.24907">
        <ele>515.188</ele>
        <time>2018-09-24T14:32:12Z</time>
      </trkpt>
      <trkpt lat="45.805" lon="4.24908">
        <ele>514.898</ele>
        <time>2018-09-24T14:32:17Z</time>
      </trkpt>
      <trkpt lat="45.80501" lon="4.24909">
        <ele>514.571</ele>
        <time>2018-09-24T14:32:23Z</time>
      </trkpt>
      <trkpt lat="45.805" lon="4.24909">
        <ele>514.56</ele>
        <time>2018-09-24T14:32:29Z</time>
      </trkpt>
      <trkpt lat="45.80498" lon="4.24909">
        <ele>514.764</ele>
        <time>2018-09-24T14:32:34Z</time>
      </trkpt>
      <trkpt lat="45.80495" lon="4.24908">
        <ele>514.913</ele>
        <time>2018-09-24T14:32:40Z</time>
      </trkpt>
      <trkpt lat="45.80492" lon="4.24904">
        <ele>515.107</ele>
        <time>2018-09-24T14:32:45Z</time>
      </trkpt>
      <trkpt lat="45.80487" lon="4.24902">
        <ele>515.343</ele>
        <time>2018-09-24T14:32:51Z</time>
      </trkpt>
      <trkpt lat="45.80479" lon="4.249">
        <ele>515.403</ele>
        <time>2018-09-24T14:32:57Z</time>
      </trkpt>
      <trkpt lat="45.80474" lon="4.24901">
        <ele>515.721</ele>
        <time>2018-09-24T14:33:02Z</time>
      </trkpt>
      <trkpt lat="45.8047" lon="4.24902">
        <ele>515.851</ele>
        <time>2018-09-24T14:33:07Z</time>
      </trkpt>
      <trkpt lat="45.80464" lon="4.24903">
        <ele>516.015</ele>
        <time>2018-09-24T14:33:13Z</time>
      </trkpt>
      <trkpt lat="45.80458" lon="4.24905">
        <ele>516.592</ele>
        <time>2018-09-24T14:33:18Z</time>
      </trkpt>
      <trkpt lat="45.80455" lon="4.24907">
        <ele>516.849</ele>
        <time>2018-09-24T14:33:24Z</time>
      </trkpt>
      <trkpt lat="45.80447" lon="4.24911">
        <ele>516.72</ele>
        <time>2018-09-24T14:33:30Z</time>
      </trkpt>
      <trkpt lat="45.80441" lon="4.2492">
        <ele>516.605</ele>
        <time>2018-09-24T14:33:35Z</time>
      </trkpt>
      <trkpt lat="45.80438" lon="4.24926">
        <ele>516.234</ele>
        <time>2018-09-24T14:33:40Z</time>
      </trkpt>
      <trkpt lat="45.80436" lon="4.24931">
        <ele>515.515</ele>
        <time>2018-09-24T14:33:46Z</time>
      </trkpt>
      <trkpt lat="45.80433" lon="4.24936">
        <ele>515.278</ele>
        <time>2018-09-24T14:33:51Z</time>
      </trkpt>
      <trkpt lat="45.80432" lon="4.24938">
        <ele>514.904</ele>
        <time>2018-09-24T14:33:56Z</time>
      </trkpt>
      <trkpt lat="45.8043" lon="4.24943">
        <ele>514.086</ele>
        <time>2018-09-24T14:34:02Z</time>
      </trkpt>
      <trkpt lat="45.80428" lon="4.24949">
        <ele>514.113</ele>
        <time>2018-09-24T14:34:07Z</time>
      </trkpt>
      <trkpt lat="45.80425" lon="4.24952">
        <ele>514.24</ele>
        <time>2018-09-24T14:34:13Z</time>
      </trkpt>
      <trkpt lat="45.80422" lon="4.24956">
        <ele>514.243</ele>
        <time>2018-09-24T14:34:19Z</time>
      </trkpt>
      <trkpt lat="45.80416" lon="4.24959">
        <ele>514.234</ele>
        <time>2018-09-24T14:34:24Z</time>
      </trkpt>
      <trkpt lat="45.80411" lon="4.24958">
        <ele>514.38</ele>
        <time>2018-09-24T14:34:30Z</time>
      </trkpt>
      <trkpt lat="45.80405" lon="4.24956">
        <ele>514.089</ele>
        <time>2018-09-24T14:34:35Z</time>
      </trkpt>
      <trkpt lat="45.804" lon="4.24954">
        <ele>513.818</ele>
        <time>2018-09-24T14:34:40Z</time>
      </trkpt>
      <trkpt lat="45.80393" lon="4.24951">
        <ele>513.459</ele>
        <time>2018-09-24T14:34:46Z</time>
      </trkpt>
      <trkpt lat="45.80385" lon="4.24949">
        <ele>512.532</ele>
        <time>2018-09-24T14:34:52Z</time>
      </trkpt>
      <trkpt lat="45.80381" lon="4.24949">
        <ele>511.841</ele>
        <time>2018-09-24T14:34:57Z</time>
      </trkpt>
      <trkpt lat="45.80375" lon="4.24948">
        <ele>511.15</ele>
        <time>2018-09-24T14:35:03Z</time>
      </trkpt>
      <trkpt lat="45.80369" lon="4.24948">
        <ele>509.818</ele>
        <time>2018-09-24T14:35:09Z</time>
      </trkpt>
      <trkpt lat="45.80362" lon="4.24948">
        <ele>509.108</ele>
        <time>2018-09-24T14:35:14Z</time>
      </trkpt>
      <trkpt lat="45.80356" lon="4.24947">
        <ele>508.894</ele>
        <time>2018-09-24T14:35:20Z</time>
      </trkpt>
      <trkpt lat="45.8035" lon="4.24943">
        <ele>508.945</ele>
        <time>2018-09-24T14:35:25Z</time>
      </trkpt>
      <trkpt lat="45.80342" lon="4.24943">
        <ele>509.017</ele>
        <time>2018-09-24T14:35:31Z</time>
      </trkpt>
      <trkpt lat="45.80338" lon="4.24943">
        <ele>509.515</ele>
        <time>2018-09-24T14:35:36Z</time>
      </trkpt>
      <trkpt lat="45.80332" lon="4.24943">
        <ele>509.556</ele>
        <time>2018-09-24T14:35:42Z</time>
      </trkpt>
      <trkpt lat="45.80326" lon="4.24942">
        <ele>509.783</ele>
        <time>2018-09-24T14:35:48Z</time>
      </trkpt>
      <trkpt lat="45.80317" lon="4.24942">
        <ele>509.971</ele>
        <time>2018-09-24T14:35:54Z</time>
      </trkpt>
      <trkpt lat="45.8031" lon="4.24943">
        <ele>509.352</ele>
        <time>2018-09-24T14:36:00Z</time>
      </trkpt>
      <trkpt lat="45.803" lon="4.24944">
        <ele>508.723</ele>
        <time>2018-09-24T14:36:06Z</time>
      </trkpt>
      <trkpt lat="45.80291" lon="4.24948">
        <ele>508.496</ele>
        <time>2018-09-24T14:36:12Z</time>
      </trkpt>
      <trkpt lat="45.80283" lon="4.24945">
        <ele>508.426</ele>
        <time>2018-09-24T14:36:17Z</time>
      </trkpt>
      <trkpt lat="45.80276" lon="4.24946">
        <ele>508.533</ele>
        <time>2018-09-24T14:36:22Z</time>
      </trkpt>
      <trkpt lat="45.8027" lon="4.24944">
        <ele>509.05</ele>
        <time>2018-09-24T14:36:27Z</time>
      </trkpt>
      <trkpt lat="45.80263" lon="4.24943">
        <ele>509.902</ele>
        <time>2018-09-24T14:36:33Z</time>
      </trkpt>
      <trkpt lat="45.80257" lon="4.24939">
        <ele>510.442</ele>
        <time>2018-09-24T14:36:39Z</time>
      </trkpt>
      <trkpt lat="45.80251" lon="4.24936">
        <ele>510.505</ele>
        <time>2018-09-24T14:36:44Z</time>
      </trkpt>
      <trkpt lat="45.80244" lon="4.24931">
        <ele>510.534</ele>
        <time>2018-09-24T14:36:49Z</time>
      </trkpt>
      <trkpt lat="45.80239" lon="4.24929">
        <ele>510.56</ele>
        <time>2018-09-24T14:36:54Z</time>
      </trkpt>
      <trkpt lat="45.80233" lon="4.24925">
        <ele>510.412</ele>
        <time>2018-09-24T14:36:59Z</time>
      </trkpt>
      <trkpt lat="45.80226" lon="4.24919">
        <ele>510.271</ele>
        <time>2018-09-24T14:37:05Z</time>
      </trkpt>
      <trkpt lat="45.80219" lon="4.24913">
        <ele>510.52</ele>
        <time>2018-09-24T14:37:11Z</time>
      </trkpt>
      <trkpt lat="45.80211" lon="4.24908">
        <ele>510.313</ele>
        <time>2018-09-24T14:37:17Z</time>
      </trkpt>
      <trkpt lat="45.80205" lon="4.24903">
        <ele>509.938</ele>
        <time>2018-09-24T14:37:23Z</time>
      </trkpt>
      <trkpt lat="45.80198" lon="4.24899">
        <ele>509.937</ele>
        <time>2018-09-24T14:37:28Z</time>
      </trkpt>
      <trkpt lat="45.80192" lon="4.24895">
        <ele>509.886</ele>
        <time>2018-09-24T14:37:34Z</time>
      </trkpt>
      <trkpt lat="45.80184" lon="4.24891">
        <ele>509.805</ele>
        <time>2018-09-24T14:37:41Z</time>
      </trkpt>
      <trkpt lat="45.80179" lon="4.24886">
        <ele>509.726</ele>
        <time>2018-09-24T14:37:46Z</time>
      </trkpt>
      <trkpt lat="45.80181" lon="4.24884">
        <ele>509.283</ele>
        <time>2018-09-24T14:37:52Z</time>
      </trkpt>
      <trkpt lat="45.80172" lon="4.2488">
        <ele>508.898</ele>
        <time>2018-09-24T14:37:58Z</time>
      </trkpt>
      <trkpt lat="45.80164" lon="4.24873">
        <ele>508.102</ele>
        <time>2018-09-24T14:38:04Z</time>
      </trkpt>
      <trkpt lat="45.80159" lon="4.2487">
        <ele>507.792</ele>
        <time>2018-09-24T14:38:09Z</time>
      </trkpt>
      <trkpt lat="45.8015" lon="4.24864">
        <ele>507.442</ele>
        <time>2018-09-24T14:38:16Z</time>
      </trkpt>
      <trkpt lat="45.80144" lon="4.24861">
        <ele>507.354</ele>
        <time>2018-09-24T14:38:22Z</time>
      </trkpt>
      <trkpt lat="45.80139" lon="4.24857">
        <ele>507.302</ele>
        <time>2018-09-24T14:38:27Z</time>
      </trkpt>
      <trkpt lat="45.80132" lon="4.24852">
        <ele>507.257</ele>
        <time>2018-09-24T14:38:33Z</time>
      </trkpt>
      <trkpt lat="45.80125" lon="4.24848">
        <ele>507.114</ele>
        <time>2018-09-24T14:38:38Z</time>
      </trkpt>
      <trkpt lat="45.80119" lon="4.24842">
        <ele>507.039</ele>
        <time>2018-09-24T14:38:44Z</time>
      </trkpt>
      <trkpt lat="45.80113" lon="4.24838">
        <ele>506.853</ele>
        <time>2018-09-24T14:38:49Z</time>
      </trkpt>
      <trkpt lat="45.80108" lon="4.24829">
        <ele>506.815</ele>
        <time>2018-09-24T14:38:55Z</time>
      </trkpt>
      <trkpt lat="45.80104" lon="4.24821">
        <ele>506.78</ele>
        <time>2018-09-24T14:39:00Z</time>
      </trkpt>
      <trkpt lat="45.801" lon="4.24812">
        <ele>506.824</ele>
        <time>2018-09-24T14:39:06Z</time>
      </trkpt>
      <trkpt lat="45.80097" lon="4.24802">
        <ele>506.723</ele>
        <time>2018-09-24T14:39:11Z</time>
      </trkpt>
      <trkpt lat="45.80095" lon="4.24792">
        <ele>506.611</ele>
        <time>2018-09-24T14:39:16Z</time>
      </trkpt>
      <trkpt lat="45.80094" lon="4.24783">
        <ele>506.689</ele>
        <time>2018-09-24T14:39:21Z</time>
      </trkpt>
      <trkpt lat="45.80092" lon="4.24775">
        <ele>506.916</ele>
        <time>2018-09-24T14:39:27Z</time>
      </trkpt>
      <trkpt lat="45.8009" lon="4.24765">
        <ele>507.183</ele>
        <time>2018-09-24T14:39:33Z</time>
      </trkpt>
      <trkpt lat="45.80089" lon="4.24756">
        <ele>507.067</ele>
        <time>2018-09-24T14:39:38Z</time>
      </trkpt>
      <trkpt lat="45.80084" lon="4.24747">
        <ele>506.724</ele>
        <time>2018-09-24T14:39:44Z</time>
      </trkpt>
      <trkpt lat="45.80078" lon="4.24737">
        <ele>506.515</ele>
        <time>2018-09-24T14:39:50Z</time>
      </trkpt>
      <trkpt lat="45.80074" lon="4.24729">
        <ele>506.475</ele>
        <time>2018-09-24T14:39:55Z</time>
      </trkpt>
      <trkpt lat="45.80069" lon="4.24722">
        <ele>506.549</ele>
        <time>2018-09-24T14:40:01Z</time>
      </trkpt>
      <trkpt lat="45.80063" lon="4.24714">
        <ele>506.408</ele>
        <time>2018-09-24T14:40:07Z</time>
      </trkpt>
      <trkpt lat="45.80057" lon="4.24705">
        <ele>506.061</ele>
        <time>2018-09-24T14:40:13Z</time>
      </trkpt>
      <trkpt lat="45.80052" lon="4.24699">
        <ele>505.93</ele>
        <time>2018-09-24T14:40:18Z</time>
      </trkpt>
      <trkpt lat="45.80049" lon="4.24693">
        <ele>505.652</ele>
        <time>2018-09-24T14:40:23Z</time>
      </trkpt>
      <trkpt lat="45.80044" lon="4.24686">
        <ele>505.408</ele>
        <time>2018-09-24T14:40:28Z</time>
      </trkpt>
      <trkpt lat="45.80039" lon="4.24678">
        <ele>505.082</ele>
        <time>2018-09-24T14:40:34Z</time>
      </trkpt>
      <trkpt lat="45.80033" lon="4.24671">
        <ele>504.798</ele>
        <time>2018-09-24T14:40:39Z</time>
      </trkpt>
      <trkpt lat="45.80027" lon="4.24663">
        <ele>504.687</ele>
        <time>2018-09-24T14:40:45Z</time>
      </trkpt>
      <trkpt lat="45.80021" lon="4.24655">
        <ele>504.619</ele>
        <time>2018-09-24T14:40:51Z</time>
      </trkpt>
      <trkpt lat="45.80015" lon="4.24649">
        <ele>504.469</ele>
        <time>2018-09-24T14:40:57Z</time>
      </trkpt>
      <trkpt lat="45.80008" lon="4.24642">
        <ele>504.032</ele>
        <time>2018-09-24T14:41:03Z</time>
      </trkpt>
      <trkpt lat="45.80002" lon="4.24636">
        <ele>503.561</ele>
        <time>2018-09-24T14:41:08Z</time>
      </trkpt>
      <trkpt lat="45.79996" lon="4.24629">
        <ele>503.317</ele>
        <time>2018-09-24T14:41:14Z</time>
      </trkpt>
      <trkpt lat="45.79989" lon="4.24622">
        <ele>503.027</ele>
        <time>2018-09-24T14:41:20Z</time>
      </trkpt>
      <trkpt lat="45.79984" lon="4.24614">
        <ele>502.88</ele>
        <time>2018-09-24T14:41:25Z</time>
      </trkpt>
      <trkpt lat="45.79978" lon="4.24608">
        <ele>502.62</ele>
        <time>2018-09-24T14:41:31Z</time>
      </trkpt>
      <trkpt lat="45.79973" lon="4.24602">
        <ele>502.212</ele>
        <time>2018-09-24T14:41:36Z</time>
      </trkpt>
      <trkpt lat="45.79969" lon="4.24596">
        <ele>501.872</ele>
        <time>2018-09-24T14:41:41Z</time>
      </trkpt>
      <trkpt lat="45.79966" lon="4.2459">
        <ele>501.65</ele>
        <time>2018-09-24T14:41:46Z</time>
      </trkpt>
      <trkpt lat="45.79964" lon="4.24587">
        <ele>501.375</ele>
        <time>2018-09-24T14:41:52Z</time>
      </trkpt>
      <trkpt lat="45.79965" lon="4.24583">
        <ele>501.264</ele>
        <time>2018-09-24T14:41:57Z</time>
      </trkpt>
      <trkpt lat="45.79967" lon="4.24582">
        <ele>500.514</ele>
        <time>2018-09-24T14:42:03Z</time>
      </trkpt>
      <trkpt lat="45.79967" lon="4.24581">
        <ele>500.478</ele>
        <time>2018-09-24T14:42:08Z</time>
      </trkpt>
      <trkpt lat="45.79967" lon="4.24581">
        <ele>500.148</ele>
        <time>2018-09-24T14:42:14Z</time>
      </trkpt>
      <trkpt lat="45.79966" lon="4.2458">
        <ele>500.209</ele>
        <time>2018-09-24T14:42:20Z</time>
      </trkpt>
      <trkpt lat="45.79966" lon="4.24581">
        <ele>500.002</ele>
        <time>2018-09-24T14:42:25Z</time>
      </trkpt>
      <trkpt lat="45.79966" lon="4.24581">
        <ele>499.987</ele>
        <time>2018-09-24T14:42:31Z</time>
      </trkpt>
      <trkpt lat="45.79967" lon="4.24581">
        <ele>500.151</ele>
        <time>2018-09-24T14:42:36Z</time>
      </trkpt>
      <trkpt lat="45.79967" lon="4.2458">
        <ele>500.029</ele>
        <time>2018-09-24T14:42:42Z</time>
      </trkpt>
      <trkpt lat="45.79967" lon="4.2458">
        <ele>499.963</ele>
        <time>2018-09-24T14:42:48Z</time>
      </trkpt>
      <trkpt lat="45.79967" lon="4.2458">
        <ele>500.037</ele>
        <time>2018-09-24T14:42:54Z</time>
      </trkpt>
      <trkpt lat="45.79968" lon="4.24581">
        <ele>500.093</ele>
        <time>2018-09-24T14:42:59Z</time>
      </trkpt>
      <trkpt lat="45.79967" lon="4.2458">
        <ele>500.142</ele>
        <time>2018-09-24T14:43:04Z</time>
      </trkpt>
      <trkpt lat="45.7997" lon="4.24575">
        <ele>500.021</ele>
        <time>2018-09-24T14:43:10Z</time>
      </trkpt>
      <trkpt lat="45.79974" lon="4.24567">
        <ele>499.864</ele>
        <time>2018-09-24T14:43:15Z</time>
      </trkpt>
      <trkpt lat="45.79979" lon="4.24556">
        <ele>499.285</ele>
        <time>2018-09-24T14:43:21Z</time>
      </trkpt>
      <trkpt lat="45.79982" lon="4.24549">
        <ele>498.728</ele>
        <time>2018-09-24T14:43:26Z</time>
      </trkpt>
      <trkpt lat="45.79988" lon="4.24541">
        <ele>498.351</ele>
        <time>2018-09-24T14:43:32Z</time>
      </trkpt>
      <trkpt lat="45.79993" lon="4.24533">
        <ele>497.915</ele>
        <time>2018-09-24T14:43:38Z</time>
      </trkpt>
      <trkpt lat="45.79997" lon="4.24527">
        <ele>497.638</ele>
        <time>2018-09-24T14:43:43Z</time>
      </trkpt>
      <trkpt lat="45.80003" lon="4.24519">
        <ele>497.24</ele>
        <time>2018-09-24T14:43:49Z</time>
      </trkpt>
      <trkpt lat="45.80008" lon="4.24512">
        <ele>496.559</ele>
        <time>2018-09-24T14:43:54Z</time>
      </trkpt>
      <trkpt lat="45.80012" lon="4.24505">
        <ele>495.7</ele>
        <time>2018-09-24T14:43:59Z</time>
      </trkpt>
      <trkpt lat="45.80015" lon="4.24498">
        <ele>494.955</ele>
        <time>2018-09-24T14:44:04Z</time>
      </trkpt>
      <trkpt lat="45.80021" lon="4.24486">
        <ele>494.401</ele>
        <time>2018-09-24T14:44:10Z</time>
      </trkpt>
      <trkpt lat="45.80024" lon="4.24477">
        <ele>493.773</ele>
        <time>2018-09-24T14:44:15Z</time>
      </trkpt>
      <trkpt lat="45.80028" lon="4.24469">
        <ele>493.074</ele>
        <time>2018-09-24T14:44:20Z</time>
      </trkpt>
      <trkpt lat="45.80033" lon="4.2446">
        <ele>492.586</ele>
        <time>2018-09-24T14:44:25Z</time>
      </trkpt>
      <trkpt lat="45.80037" lon="4.24453">
        <ele>491.897</ele>
        <time>2018-09-24T14:44:30Z</time>
      </trkpt>
      <trkpt lat="45.80041" lon="4.24443">
        <ele>490.729</ele>
        <time>2018-09-24T14:44:36Z</time>
      </trkpt>
      <trkpt lat="45.80045" lon="4.24436">
        <ele>489.888</ele>
        <time>2018-09-24T14:44:41Z</time>
      </trkpt>
      <trkpt lat="45.80047" lon="4.24425">
        <ele>488.872</ele>
        <time>2018-09-24T14:44:47Z</time>
      </trkpt>
      <trkpt lat="45.80048" lon="4.24415">
        <ele>488.298</ele>
        <time>2018-09-24T14:44:53Z</time>
      </trkpt>
      <trkpt lat="45.80044" lon="4.24409">
        <ele>487.651</ele>
        <time>2018-09-24T14:44:59Z</time>
      </trkpt>
      <trkpt lat="45.80037" lon="4.24403">
        <ele>487.269</ele>
        <time>2018-09-24T14:45:05Z</time>
      </trkpt>
      <trkpt lat="45.8003" lon="4.24395">
        <ele>486.822</ele>
        <time>2018-09-24T14:45:11Z</time>
      </trkpt>
      <trkpt lat="45.80024" lon="4.24386">
        <ele>486.369</ele>
        <time>2018-09-24T14:45:16Z</time>
      </trkpt>
      <trkpt lat="45.80022" lon="4.24378">
        <ele>485.498</ele>
        <time>2018-09-24T14:45:22Z</time>
      </trkpt>
      <trkpt lat="45.80018" lon="4.24366">
        <ele>484.806</ele>
        <time>2018-09-24T14:45:28Z</time>
      </trkpt>
      <trkpt lat="45.80017" lon="4.24354">
        <ele>484.16</ele>
        <time>2018-09-24T14:45:34Z</time>
      </trkpt>
      <trkpt lat="45.80014" lon="4.24343">
        <ele>483.429</ele>
        <time>2018-09-24T14:45:40Z</time>
      </trkpt>
      <trkpt lat="45.8001" lon="4.24333">
        <ele>482.741</ele>
        <time>2018-09-24T14:45:46Z</time>
      </trkpt>
      <trkpt lat="45.8001" lon="4.24323">
        <ele>482.172</ele>
        <time>2018-09-24T14:45:51Z</time>
      </trkpt>
      <trkpt lat="45.80011" lon="4.24313">
        <ele>481.474</ele>
        <time>2018-09-24T14:45:57Z</time>
      </trkpt>
      <trkpt lat="45.80011" lon="4.24303">
        <ele>480.518</ele>
        <time>2018-09-24T14:46:03Z</time>
      </trkpt>
      <trkpt lat="45.80011" lon="4.24296">
        <ele>479.6</ele>
        <time>2018-09-24T14:46:08Z</time>
      </trkpt>
      <trkpt lat="45.8001" lon="4.24289">
        <ele>478.957</ele>
        <time>2018-09-24T14:46:13Z</time>
      </trkpt>
      <trkpt lat="45.80012" lon="4.2428">
        <ele>478.404</ele>
        <time>2018-09-24T14:46:19Z</time>
      </trkpt>
      <trkpt lat="45.80012" lon="4.2427">
        <ele>478.415</ele>
        <time>2018-09-24T14:46:24Z</time>
      </trkpt>
      <trkpt lat="45.80011" lon="4.24259">
        <ele>478.133</ele>
        <time>2018-09-24T14:46:30Z</time>
      </trkpt>
      <trkpt lat="45.8001" lon="4.24249">
        <ele>477.441</ele>
        <time>2018-09-24T14:46:36Z</time>
      </trkpt>
      <trkpt lat="45.80009" lon="4.24236">
        <ele>476.695</ele>
        <time>2018-09-24T14:46:42Z</time>
      </trkpt>
      <trkpt lat="45.80006" lon="4.24225">
        <ele>476.305</ele>
        <time>2018-09-24T14:46:48Z</time>
      </trkpt>
      <trkpt lat="45.80004" lon="4.24213">
        <ele>475.742</ele>
        <time>2018-09-24T14:46:54Z</time>
      </trkpt>
      <trkpt lat="45.8" lon="4.24204">
        <ele>474.899</ele>
        <time>2018-09-24T14:47:00Z</time>
      </trkpt>
      <trkpt lat="45.79996" lon="4.24194">
        <ele>474.115</ele>
        <time>2018-09-24T14:47:05Z</time>
      </trkpt>
      <trkpt lat="45.79993" lon="4.24185">
        <ele>473.44</ele>
        <time>2018-09-24T14:47:11Z</time>
      </trkpt>
      <trkpt lat="45.7999" lon="4.24178">
        <ele>472.798</ele>
        <time>2018-09-24T14:47:16Z</time>
      </trkpt>
      <trkpt lat="45.79986" lon="4.24171">
        <ele>472.389</ele>
        <time>2018-09-24T14:47:21Z</time>
      </trkpt>
      <trkpt lat="45.79982" lon="4.24162">
        <ele>471.715</ele>
        <time>2018-09-24T14:47:27Z</time>
      </trkpt>
      <trkpt lat="45.79979" lon="4.24155">
        <ele>471.131</ele>
        <time>2018-09-24T14:47:32Z</time>
      </trkpt>
      <trkpt lat="45.79976" lon="4.24147">
        <ele>470.674</ele>
        <time>2018-09-24T14:47:38Z</time>
      </trkpt>
      <trkpt lat="45.79971" lon="4.24141">
        <ele>470.737</ele>
        <time>2018-09-24T14:47:44Z</time>
      </trkpt>
      <trkpt lat="45.79967" lon="4.24135">
        <ele>470.375</ele>
        <time>2018-09-24T14:47:49Z</time>
      </trkpt>
      <trkpt lat="45.79963" lon="4.24127">
        <ele>470.062</ele>
        <time>2018-09-24T14:47:55Z</time>
      </trkpt>
      <trkpt lat="45.79959" lon="4.24119">
        <ele>469.603</ele>
        <time>2018-09-24T14:48:01Z</time>
      </trkpt>
      <trkpt lat="45.79954" lon="4.24113">
        <ele>469.08</ele>
        <time>2018-09-24T14:48:06Z</time>
      </trkpt>
      <trkpt lat="45.7995" lon="4.24106">
        <ele>468.578</ele>
        <time>2018-09-24T14:48:12Z</time>
      </trkpt>
      <trkpt lat="45.79944" lon="4.241">
        <ele>468.396</ele>
        <time>2018-09-24T14:48:17Z</time>
      </trkpt>
      <trkpt lat="45.79939" lon="4.24095">
        <ele>468.3</ele>
        <time>2018-09-24T14:48:23Z</time>
      </trkpt>
      <trkpt lat="45.79935" lon="4.24086">
        <ele>467.987</ele>
        <time>2018-09-24T14:48:29Z</time>
      </trkpt>
      <trkpt lat="45.79929" lon="4.24079">
        <ele>467.679</ele>
        <time>2018-09-24T14:48:35Z</time>
      </trkpt>
      <trkpt lat="45.79926" lon="4.24074">
        <ele>467.367</ele>
        <time>2018-09-24T14:48:41Z</time>
      </trkpt>
      <trkpt lat="45.7992" lon="4.24066">
        <ele>466.901</ele>
        <time>2018-09-24T14:48:47Z</time>
      </trkpt>
      <trkpt lat="45.79914" lon="4.24058">
        <ele>466.648</ele>
        <time>2018-09-24T14:48:52Z</time>
      </trkpt>
      <trkpt lat="45.7991" lon="4.24054">
        <ele>466.276</ele>
        <time>2018-09-24T14:48:57Z</time>
      </trkpt>
      <trkpt lat="45.79905" lon="4.24048">
        <ele>465.707</ele>
        <time>2018-09-24T14:49:03Z</time>
      </trkpt>
      <trkpt lat="45.799" lon="4.2404">
        <ele>465.451</ele>
        <time>2018-09-24T14:49:09Z</time>
      </trkpt>
      <trkpt lat="45.79895" lon="4.24032">
        <ele>465.118</ele>
        <time>2018-09-24T14:49:14Z</time>
      </trkpt>
      <trkpt lat="45.79891" lon="4.24025">
        <ele>464.959</ele>
        <time>2018-09-24T14:49:20Z</time>
      </trkpt>
      <trkpt lat="45.79889" lon="4.24018">
        <ele>464.561</ele>
        <time>2018-09-24T14:49:26Z</time>
      </trkpt>
      <trkpt lat="45.79888" lon="4.24011">
        <ele>463.923</ele>
        <time>2018-09-24T14:49:31Z</time>
      </trkpt>
      <trkpt lat="45.79886" lon="4.24">
        <ele>463.216</ele>
        <time>2018-09-24T14:49:37Z</time>
      </trkpt>
      <trkpt lat="45.79883" lon="4.2399">
        <ele>462.306</ele>
        <time>2018-09-24T14:49:43Z</time>
      </trkpt>
      <trkpt lat="45.79881" lon="4.23983">
        <ele>461.307</ele>
        <time>2018-09-24T14:49:48Z</time>
      </trkpt>
      <trkpt lat="45.79879" lon="4.23979">
        <ele>460.225</ele>
        <time>2018-09-24T14:49:54Z</time>
      </trkpt>
      <trkpt lat="45.79877" lon="4.23973">
        <ele>459.515</ele>
        <time>2018-09-24T14:49:59Z</time>
      </trkpt>
      <trkpt lat="45.79874" lon="4.23967">
        <ele>458.679</ele>
        <time>2018-09-24T14:50:04Z</time>
      </trkpt>
      <trkpt lat="45.7987" lon="4.23961">
        <ele>457.656</ele>
        <time>2018-09-24T14:50:10Z</time>
      </trkpt>
      <trkpt lat="45.79867" lon="4.23955">
        <ele>456.829</ele>
        <time>2018-09-24T14:50:16Z</time>
      </trkpt>
      <trkpt lat="45.79864" lon="4.2395">
        <ele>456.124</ele>
        <time>2018-09-24T14:50:21Z</time>
      </trkpt>
      <trkpt lat="45.7986" lon="4.23941">
        <ele>455.424</ele>
        <time>2018-09-24T14:50:27Z</time>
      </trkpt>
      <trkpt lat="45.79857" lon="4.23935">
        <ele>454.495</ele>
        <time>2018-09-24T14:50:33Z</time>
      </trkpt>
      <trkpt lat="45.79852" lon="4.23928">
        <ele>453.64</ele>
        <time>2018-09-24T14:50:39Z</time>
      </trkpt>
      <trkpt lat="45.79849" lon="4.23923">
        <ele>453.049</ele>
        <time>2018-09-24T14:50:44Z</time>
      </trkpt>
      <trkpt lat="45.79845" lon="4.23915">
        <ele>452.342</ele>
        <time>2018-09-24T14:50:49Z</time>
      </trkpt>
      <trkpt lat="45.79843" lon="4.23908">
        <ele>451.216</ele>
        <time>2018-09-24T14:50:55Z</time>
      </trkpt>
      <trkpt lat="45.79842" lon="4.23901">
        <ele>450.052</ele>
        <time>2018-09-24T14:51:00Z</time>
      </trkpt>
      <trkpt lat="45.79839" lon="4.23892">
        <ele>448.995</ele>
        <time>2018-09-24T14:51:06Z</time>
      </trkpt>
      <trkpt lat="45.79838" lon="4.23884">
        <ele>448.168</ele>
        <time>2018-09-24T14:51:11Z</time>
      </trkpt>
      <trkpt lat="45.79838" lon="4.2388">
        <ele>447.405</ele>
        <time>2018-09-24T14:51:16Z</time>
      </trkpt>
      <trkpt lat="45.79837" lon="4.23871">
        <ele>446.655</ele>
        <time>2018-09-24T14:51:22Z</time>
      </trkpt>
      <trkpt lat="45.79833" lon="4.23864">
        <ele>445.921</ele>
        <time>2018-09-24T14:51:27Z</time>
      </trkpt>
      <trkpt lat="45.79832" lon="4.23859">
        <ele>445.098</ele>
        <time>2018-09-24T14:51:32Z</time>
      </trkpt>
      <trkpt lat="45.79832" lon="4.23854">
        <ele>444.023</ele>
        <time>2018-09-24T14:51:38Z</time>
      </trkpt>
      <trkpt lat="45.79831" lon="4.23845">
        <ele>443.197</ele>
        <time>2018-09-24T14:51:44Z</time>
      </trkpt>
      <trkpt lat="45.79831" lon="4.23838">
        <ele>442.251</ele>
        <time>2018-09-24T14:51:49Z</time>
      </trkpt>
      <trkpt lat="45.79829" lon="4.23833">
        <ele>441.488</ele>
        <time>2018-09-24T14:51:54Z</time>
      </trkpt>
      <trkpt lat="45.79825" lon="4.23827">
        <ele>440.397</ele>
        <time>2018-09-24T14:52:00Z</time>
      </trkpt>
      <trkpt lat="45.79818" lon="4.23818">
        <ele>439.846</ele>
        <time>2018-09-24T14:52:06Z</time>
      </trkpt>
      <trkpt lat="45.79814" lon="4.23814">
        <ele>439.469</ele>
        <time>2018-09-24T14:52:11Z</time>
      </trkpt>
      <trkpt lat="45.7981" lon="4.23808">
        <ele>438.795</ele>
        <time>2018-09-24T14:52:17Z</time>
      </trkpt>
      <trkpt lat="45.79804" lon="4.23803">
        <ele>438.217</ele>
        <time>2018-09-24T14:52:22Z</time>
      </trkpt>
      <trkpt lat="45.798" lon="4.23798">
        <ele>437.282</ele>
        <time>2018-09-24T14:52:28Z</time>
      </trkpt>
      <trkpt lat="45.79796" lon="4.23794">
        <ele>436.483</ele>
        <time>2018-09-24T14:52:33Z</time>
      </trkpt>
      <trkpt lat="45.79789" lon="4.23787">
        <ele>435.743</ele>
        <time>2018-09-24T14:52:39Z</time>
      </trkpt>
      <trkpt lat="45.79784" lon="4.23782">
        <ele>435.01</ele>
        <time>2018-09-24T14:52:44Z</time>
      </trkpt>
      <trkpt lat="45.79778" lon="4.23775">
        <ele>434.354</ele>
        <time>2018-09-24T14:52:50Z</time>
      </trkpt>
      <trkpt lat="45.79775" lon="4.23769">
        <ele>433.545</ele>
        <time>2018-09-24T14:52:56Z</time>
      </trkpt>
      <trkpt lat="45.79771" lon="4.23763">
        <ele>432.689</ele>
        <time>2018-09-24T14:53:01Z</time>
      </trkpt>
      <trkpt lat="45.79767" lon="4.23757">
        <ele>431.97</ele>
        <time>2018-09-24T14:53:07Z</time>
      </trkpt>
      <trkpt lat="45.79761" lon="4.23748">
        <ele>431.428</ele>
        <time>2018-09-24T14:53:13Z</time>
      </trkpt>
      <trkpt lat="45.79756" lon="4.23744">
        <ele>430.982</ele>
        <time>2018-09-24T14:53:18Z</time>
      </trkpt>
      <trkpt lat="45.79753" lon="4.23737">
        <ele>430.487</ele>
        <time>2018-09-24T14:53:24Z</time>
      </trkpt>
      <trkpt lat="45.79748" lon="4.23733">
        <ele>430.033</ele>
        <time>2018-09-24T14:53:29Z</time>
      </trkpt>
      <trkpt lat="45.79742" lon="4.23726">
        <ele>429.686</ele>
        <time>2018-09-24T14:53:34Z</time>
      </trkpt>
      <trkpt lat="45.79737" lon="4.23719">
        <ele>429.342</ele>
        <time>2018-09-24T14:53:40Z</time>
      </trkpt>
      <trkpt lat="45.79734" lon="4.23714">
        <ele>428.764</ele>
        <time>2018-09-24T14:53:45Z</time>
      </trkpt>
      <trkpt lat="45.79728" lon="4.23705">
        <ele>427.915</ele>
        <time>2018-09-24T14:53:53Z</time>
      </trkpt>
      <trkpt lat="45.79722" lon="4.23697">
        <ele>427.302</ele>
        <time>2018-09-24T14:53:59Z</time>
      </trkpt>
      <trkpt lat="45.79717" lon="4.23691">
        <ele>426.614</ele>
        <time>2018-09-24T14:54:04Z</time>
      </trkpt>
      <trkpt lat="45.79713" lon="4.23684">
        <ele>425.978</ele>
        <time>2018-09-24T14:54:10Z</time>
      </trkpt>
      <trkpt lat="45.7971" lon="4.2368">
        <ele>425.48</ele>
        <time>2018-09-24T14:54:15Z</time>
      </trkpt>
      <trkpt lat="45.79707" lon="4.23674">
        <ele>424.525</ele>
        <time>2018-09-24T14:54:21Z</time>
      </trkpt>
      <trkpt lat="45.79704" lon="4.23667">
        <ele>424.061</ele>
        <time>2018-09-24T14:54:27Z</time>
      </trkpt>
      <trkpt lat="45.797" lon="4.23659">
        <ele>423.383</ele>
        <time>2018-09-24T14:54:33Z</time>
      </trkpt>
      <trkpt lat="45.797" lon="4.23652">
        <ele>422.817</ele>
        <time>2018-09-24T14:54:38Z</time>
      </trkpt>
      <trkpt lat="45.79697" lon="4.23643">
        <ele>421.756</ele>
        <time>2018-09-24T14:54:44Z</time>
      </trkpt>
      <trkpt lat="45.79697" lon="4.23636">
        <ele>421.172</ele>
        <time>2018-09-24T14:54:49Z</time>
      </trkpt>
      <trkpt lat="45.79697" lon="4.2363">
        <ele>420.729</ele>
        <time>2018-09-24T14:54:54Z</time>
      </trkpt>
      <trkpt lat="45.79696" lon="4.23621">
        <ele>420.136</ele>
        <time>2018-09-24T14:55:00Z</time>
      </trkpt>
      <trkpt lat="45.79694" lon="4.2361">
        <ele>418.804</ele>
        <time>2018-09-24T14:55:06Z</time>
      </trkpt>
      <trkpt lat="45.79691" lon="4.23601">
        <ele>417.661</ele>
        <time>2018-09-24T14:55:11Z</time>
      </trkpt>
      <trkpt lat="45.7969" lon="4.23592">
        <ele>416.891</ele>
        <time>2018-09-24T14:55:16Z</time>
      </trkpt>
      <trkpt lat="45.79688" lon="4.23583">
        <ele>416.267</ele>
        <time>2018-09-24T14:55:22Z</time>
      </trkpt>
      <trkpt lat="45.79685" lon="4.23574">
        <ele>415.617</ele>
        <time>2018-09-24T14:55:28Z</time>
      </trkpt>
      <trkpt lat="45.79684" lon="4.23565">
        <ele>415.075</ele>
        <time>2018-09-24T14:55:33Z</time>
      </trkpt>
      <trkpt lat="45.79683" lon="4.23554">
        <ele>414.636</ele>
        <time>2018-09-24T14:55:39Z</time>
      </trkpt>
      <trkpt lat="45.79682" lon="4.23542">
        <ele>414.248</ele>
        <time>2018-09-24T14:55:45Z</time>
      </trkpt>
      <trkpt lat="45.79681" lon="4.23533">
        <ele>413.93</ele>
        <time>2018-09-24T14:55:51Z</time>
      </trkpt>
      <trkpt lat="45.79678" lon="4.23524">
        <ele>413.255</ele>
        <time>2018-09-24T14:55:57Z</time>
      </trkpt>
      <trkpt lat="45.79677" lon="4.23516">
        <ele>412.813</ele>
        <time>2018-09-24T14:56:02Z</time>
      </trkpt>
      <trkpt lat="45.79677" lon="4.23507">
        <ele>412.746</ele>
        <time>2018-09-24T14:56:07Z</time>
      </trkpt>
      <trkpt lat="45.79676" lon="4.23496">
        <ele>412.422</ele>
        <time>2018-09-24T14:56:13Z</time>
      </trkpt>
      <trkpt lat="45.79675" lon="4.23487">
        <ele>412.454</ele>
        <time>2018-09-24T14:56:19Z</time>
      </trkpt>
      <trkpt lat="45.79673" lon="4.23479">
        <ele>412.349</ele>
        <time>2018-09-24T14:56:24Z</time>
      </trkpt>
      <trkpt lat="45.79674" lon="4.23473">
        <ele>412.58</ele>
        <time>2018-09-24T14:56:30Z</time>
      </trkpt>
      <trkpt lat="45.79676" lon="4.23469">
        <ele>412.912</ele>
        <time>2018-09-24T14:56:36Z</time>
      </trkpt>
      <trkpt lat="45.79678" lon="4.23469">
        <ele>413.037</ele>
        <time>2018-09-24T14:56:42Z</time>
      </trkpt>
      <trkpt lat="45.79676" lon="4.23469">
        <ele>413.514</ele>
        <time>2018-09-24T14:56:48Z</time>
      </trkpt>
      <trkpt lat="45.79676" lon="4.23468">
        <ele>414.019</ele>
        <time>2018-09-24T14:56:53Z</time>
      </trkpt>
      <trkpt lat="45.79677" lon="4.23468">
        <ele>413.256</ele>
        <time>2018-09-24T14:56:58Z</time>
      </trkpt>
      <trkpt lat="45.79677" lon="4.2347">
        <ele>412.525</ele>
        <time>2018-09-24T14:57:03Z</time>
      </trkpt>
      <trkpt lat="45.79677" lon="4.23471">
        <ele>411.461</ele>
        <time>2018-09-24T14:57:09Z</time>
      </trkpt>
      <trkpt lat="45.79677" lon="4.2347">
        <ele>410.365</ele>
        <time>2018-09-24T14:57:15Z</time>
      </trkpt>
      <trkpt lat="45.79677" lon="4.2347">
        <ele>409.603</ele>
        <time>2018-09-24T14:57:20Z</time>
      </trkpt>
      <trkpt lat="45.79678" lon="4.2347">
        <ele>409.456</ele>
        <time>2018-09-24T14:57:26Z</time>
      </trkpt>
      <trkpt lat="45.79679" lon="4.23469">
        <ele>409</ele>
        <time>2018-09-24T14:57:31Z</time>
      </trkpt>
      <trkpt lat="45.79678" lon="4.2347">
        <ele>408.565</ele>
        <time>2018-09-24T14:57:37Z</time>
      </trkpt>
      <trkpt lat="45.79679" lon="4.23471">
        <ele>408.253</ele>
        <time>2018-09-24T14:57:43Z</time>
      </trkpt>
      <trkpt lat="45.79678" lon="4.23471">
        <ele>408.271</ele>
        <time>2018-09-24T14:57:48Z</time>
      </trkpt>
      <trkpt lat="45.79677" lon="4.23471">
        <ele>408.164</ele>
        <time>2018-09-24T14:57:53Z</time>
      </trkpt>
      <trkpt lat="45.79678" lon="4.2347">
        <ele>407.561</ele>
        <time>2018-09-24T14:57:59Z</time>
      </trkpt>
      <trkpt lat="45.79683" lon="4.23463">
        <ele>407.118</ele>
        <time>2018-09-24T14:58:04Z</time>
      </trkpt>
      <trkpt lat="45.79686" lon="4.23458">
        <ele>406.67</ele>
        <time>2018-09-24T14:58:10Z</time>
      </trkpt>
      <trkpt lat="45.79693" lon="4.2345">
        <ele>406.476</ele>
        <time>2018-09-24T14:58:16Z</time>
      </trkpt>
      <trkpt lat="45.79696" lon="4.23445">
        <ele>406.442</ele>
        <time>2018-09-24T14:58:22Z</time>
      </trkpt>
      <trkpt lat="45.79697" lon="4.23436">
        <ele>406.306</ele>
        <time>2018-09-24T14:58:28Z</time>
      </trkpt>
      <trkpt lat="45.79698" lon="4.23424">
        <ele>406.392</ele>
        <time>2018-09-24T14:58:34Z</time>
      </trkpt>
      <trkpt lat="45.79699" lon="4.23416">
        <ele>406.826</ele>
        <time>2018-09-24T14:58:40Z</time>
      </trkpt>
      <trkpt lat="45.79701" lon="4.23409">
        <ele>407.181</ele>
        <time>2018-09-24T14:58:45Z</time>
      </trkpt>
      <trkpt lat="45.79704" lon="4.234">
        <ele>407.309</ele>
        <time>2018-09-24T14:58:51Z</time>
      </trkpt>
      <trkpt lat="45.79705" lon="4.23389">
        <ele>407.331</ele>
        <time>2018-09-24T14:58:57Z</time>
      </trkpt>
      <trkpt lat="45.79706" lon="4.23382">
        <ele>407.584</ele>
        <time>2018-09-24T14:59:02Z</time>
      </trkpt>
      <trkpt lat="45.79709" lon="4.23373">
        <ele>407.428</ele>
        <time>2018-09-24T14:59:08Z</time>
      </trkpt>
      <trkpt lat="45.79711" lon="4.23362">
        <ele>407.734</ele>
        <time>2018-09-24T14:59:14Z</time>
      </trkpt>
      <trkpt lat="45.79713" lon="4.23353">
        <ele>407.953</ele>
        <time>2018-09-24T14:59:19Z</time>
      </trkpt>
      <trkpt lat="45.79717" lon="4.23342">
        <ele>408.231</ele>
        <time>2018-09-24T14:59:25Z</time>
      </trkpt>
      <trkpt lat="45.7972" lon="4.23333">
        <ele>407.997</ele>
        <time>2018-09-24T14:59:31Z</time>
      </trkpt>
      <trkpt lat="45.79722" lon="4.23322">
        <ele>407.458</ele>
        <time>2018-09-24T14:59:37Z</time>
      </trkpt>
      <trkpt lat="45.79722" lon="4.23314">
        <ele>407.036</ele>
        <time>2018-09-24T14:59:42Z</time>
      </trkpt>
      <trkpt lat="45.79723" lon="4.23303">
        <ele>406.748</ele>
        <time>2018-09-24T14:59:48Z</time>
      </trkpt>
      <trkpt lat="45.79723" lon="4.23297">
        <ele>406.401</ele>
        <time>2018-09-24T14:59:53Z</time>
      </trkpt>
      <trkpt lat="45.79725" lon="4.23285">
        <ele>406.632</ele>
        <time>2018-09-24T14:59:59Z</time>
      </trkpt>
      <trkpt lat="45.79726" lon="4.23275">
        <ele>406.761</ele>
        <time>2018-09-24T15:00:04Z</time>
      </trkpt>
      <trkpt lat="45.79731" lon="4.23268">
        <ele>406.611</ele>
        <time>2018-09-24T15:00:10Z</time>
      </trkpt>
      <trkpt lat="45.79737" lon="4.23264">
        <ele>406.333</ele>
        <time>2018-09-24T15:00:16Z</time>
      </trkpt>
      <trkpt lat="45.79742" lon="4.2326">
        <ele>406.51</ele>
        <time>2018-09-24T15:00:21Z</time>
      </trkpt>
      <trkpt lat="45.79751" lon="4.23255">
        <ele>406.756</ele>
        <time>2018-09-24T15:00:27Z</time>
      </trkpt>
      <trkpt lat="45.79756" lon="4.23253">
        <ele>406.972</ele>
        <time>2018-09-24T15:00:32Z</time>
      </trkpt>
      <trkpt lat="45.79762" lon="4.23249">
        <ele>407.589</ele>
        <time>2018-09-24T15:00:38Z</time>
      </trkpt>
      <trkpt lat="45.79768" lon="4.23246">
        <ele>407.969</ele>
        <time>2018-09-24T15:00:43Z</time>
      </trkpt>
      <trkpt lat="45.79776" lon="4.23245">
        <ele>407.624</ele>
        <time>2018-09-24T15:00:49Z</time>
      </trkpt>
      <trkpt lat="45.79781" lon="4.23245">
        <ele>407.565</ele>
        <time>2018-09-24T15:00:54Z</time>
      </trkpt>
      <trkpt lat="45.79788" lon="4.23244">
        <ele>407.206</ele>
        <time>2018-09-24T15:01:00Z</time>
      </trkpt>
      <trkpt lat="45.79794" lon="4.23245">
        <ele>406.965</ele>
        <time>2018-09-24T15:01:05Z</time>
      </trkpt>
      <trkpt lat="45.79801" lon="4.23245">
        <ele>406.638</ele>
        <time>2018-09-24T15:01:10Z</time>
      </trkpt>
      <trkpt lat="45.79806" lon="4.2324">
        <ele>406.328</ele>
        <time>2018-09-24T15:01:15Z</time>
      </trkpt>
      <trkpt lat="45.79815" lon="4.2324">
        <ele>406.744</ele>
        <time>2018-09-24T15:01:21Z</time>
      </trkpt>
      <trkpt lat="45.7982" lon="4.23239">
        <ele>406.976</ele>
        <time>2018-09-24T15:01:26Z</time>
      </trkpt>
      <trkpt lat="45.79826" lon="4.23236">
        <ele>407.178</ele>
        <time>2018-09-24T15:01:32Z</time>
      </trkpt>
      <trkpt lat="45.79828" lon="4.23238">
        <ele>406.893</ele>
        <time>2018-09-24T15:01:38Z</time>
      </trkpt>
      <trkpt lat="45.79833" lon="4.2324">
        <ele>407.547</ele>
        <time>2018-09-24T15:01:43Z</time>
      </trkpt>
      <trkpt lat="45.79838" lon="4.23241">
        <ele>408.179</ele>
        <time>2018-09-24T15:01:49Z</time>
      </trkpt>
      <trkpt lat="45.79838" lon="4.23241">
        <ele>408.339</ele>
        <time>2018-09-24T15:01:54Z</time>
      </trkpt>
      <trkpt lat="45.7984" lon="4.2324">
        <ele>408.563</ele>
        <time>2018-09-24T15:01:59Z</time>
      </trkpt>
      <trkpt lat="45.79841" lon="4.2324">
        <ele>409.26</ele>
        <time>2018-09-24T15:02:05Z</time>
      </trkpt>
      <trkpt lat="45.79842" lon="4.2324">
        <ele>409.598</ele>
        <time>2018-09-24T15:02:11Z</time>
      </trkpt>
      <trkpt lat="45.79843" lon="4.23241">
        <ele>410.119</ele>
        <time>2018-09-24T15:02:17Z</time>
      </trkpt>
      <trkpt lat="45.79844" lon="4.23241">
        <ele>410.676</ele>
        <time>2018-09-24T15:02:23Z</time>
      </trkpt>
      <trkpt lat="45.79844" lon="4.2324">
        <ele>410.918</ele>
        <time>2018-09-24T15:02:29Z</time>
      </trkpt>
      <trkpt lat="45.79845" lon="4.23242">
        <ele>411.417</ele>
        <time>2018-09-24T15:02:35Z</time>
      </trkpt>
      <trkpt lat="45.79845" lon="4.23242">
        <ele>411.486</ele>
        <time>2018-09-24T15:02:41Z</time>
      </trkpt>
      <trkpt lat="45.79845" lon="4.23243">
        <ele>411.737</ele>
        <time>2018-09-24T15:02:47Z</time>
      </trkpt>
      <trkpt lat="45.79844" lon="4.23241">
        <ele>411.988</ele>
        <time>2018-09-24T15:02:53Z</time>
      </trkpt>
      <trkpt lat="45.79843" lon="4.23242">
        <ele>411.845</ele>
        <time>2018-09-24T15:02:58Z</time>
      </trkpt>
      <trkpt lat="45.79844" lon="4.23245">
        <ele>412.046</ele>
        <time>2018-09-24T15:03:04Z</time>
      </trkpt>
      <trkpt lat="45.79845" lon="4.23245">
        <ele>412.208</ele>
        <time>2018-09-24T15:03:09Z</time>
      </trkpt>
      <trkpt lat="45.79845" lon="4.23244">
        <ele>412.118</ele>
        <time>2018-09-24T15:03:15Z</time>
      </trkpt>
      <trkpt lat="45.79844" lon="4.23244">
        <ele>412.215</ele>
        <time>2018-09-24T15:03:21Z</time>
      </trkpt>
      <trkpt lat="45.79845" lon="4.23245">
        <ele>412.377</ele>
        <time>2018-09-24T15:03:26Z</time>
      </trkpt>
      <trkpt lat="45.79845" lon="4.23244">
        <ele>412.34</ele>
        <time>2018-09-24T15:03:32Z</time>
      </trkpt>
      <trkpt lat="45.79846" lon="4.23243">
        <ele>412.342</ele>
        <time>2018-09-24T15:03:37Z</time>
      </trkpt>
      <trkpt lat="45.79845" lon="4.23243">
        <ele>412.517</ele>
        <time>2018-09-24T15:03:42Z</time>
      </trkpt>
      <trkpt lat="45.79845" lon="4.23243">
        <ele>412.692</ele>
        <time>2018-09-24T15:03:48Z</time>
      </trkpt>
      <trkpt lat="45.79845" lon="4.23243">
        <ele>412.462</ele>
        <time>2018-09-24T15:03:53Z</time>
      </trkpt>
      <trkpt lat="45.79844" lon="4.23243">
        <ele>412.26</ele>
        <time>2018-09-24T15:03:58Z</time>
      </trkpt>
      <trkpt lat="45.79844" lon="4.23244">
        <ele>411.949</ele>
        <time>2018-09-24T15:04:04Z</time>
      </trkpt>
      <trkpt lat="45.79844" lon="4.23244">
        <ele>411.337</ele>
        <time>2018-09-24T15:04:09Z</time>
      </trkpt>
      <trkpt lat="45.79845" lon="4.23247">
        <ele>410.83</ele>
        <time>2018-09-24T15:04:14Z</time>
      </trkpt>
      <trkpt lat="45.79844" lon="4.23249">
        <ele>410.649</ele>
        <time>2018-09-24T15:04:20Z</time>
      </trkpt>
      <trkpt lat="45.79846" lon="4.2325">
        <ele>410.667</ele>
        <time>2018-09-24T15:04:25Z</time>
      </trkpt>
      <trkpt lat="45.79847" lon="4.2325">
        <ele>410.335</ele>
        <time>2018-09-24T15:04:30Z</time>
      </trkpt>
      <trkpt lat="45.79846" lon="4.2325">
        <ele>410.249</ele>
        <time>2018-09-24T15:04:35Z</time>
      </trkpt>
      <trkpt lat="45.79846" lon="4.23253">
        <ele>410.51</ele>
        <time>2018-09-24T15:04:41Z</time>
      </trkpt>
      <trkpt lat="45.79845" lon="4.23253">
        <ele>410.778</ele>
        <time>2018-09-24T15:04:47Z</time>
      </trkpt>
      <trkpt lat="45.79845" lon="4.23251">
        <ele>410.953</ele>
        <time>2018-09-24T15:04:52Z</time>
      </trkpt>
      <trkpt lat="45.79846" lon="4.23251">
        <ele>411.081</ele>
        <time>2018-09-24T15:04:57Z</time>
      </trkpt>
      <trkpt lat="45.79846" lon="4.23247">
        <ele>411.054</ele>
        <time>2018-09-24T15:05:03Z</time>
      </trkpt>
      <trkpt lat="45.79847" lon="4.23247">
        <ele>410.781</ele>
        <time>2018-09-24T15:05:08Z</time>
      </trkpt>
      <trkpt lat="45.79847" lon="4.23247">
        <ele>410.319</ele>
        <time>2018-09-24T15:05:14Z</time>
      </trkpt>
      <trkpt lat="45.79847" lon="4.23249">
        <ele>410.184</ele>
        <time>2018-09-24T15:05:19Z</time>
      </trkpt>
      <trkpt lat="45.79847" lon="4.23248">
        <ele>410.318</ele>
        <time>2018-09-24T15:05:24Z</time>
      </trkpt>
      <trkpt lat="45.79847" lon="4.23246">
        <ele>410.35</ele>
        <time>2018-09-24T15:05:30Z</time>
      </trkpt>
      <trkpt lat="45.79846" lon="4.23246">
        <ele>410.547</ele>
        <time>2018-09-24T15:05:36Z</time>
      </trkpt>
      <trkpt lat="45.79846" lon="4.23246">
        <ele>410.544</ele>
        <time>2018-09-24T15:05:41Z</time>
      </trkpt>
      <trkpt lat="45.79846" lon="4.23247">
        <ele>410.365</ele>
        <time>2018-09-24T15:05:46Z</time>
      </trkpt>
      <trkpt lat="45.79846" lon="4.2325">
        <ele>410.419</ele>
        <time>2018-09-24T15:05:52Z</time>
      </trkpt>
      <trkpt lat="45.79847" lon="4.23249">
        <ele>410.426</ele>
        <time>2018-09-24T15:05:58Z</time>
      </trkpt>
      <trkpt lat="45.79847" lon="4.23249">
        <ele>410.48</ele>
        <time>2018-09-24T15:06:03Z</time>
      </trkpt>
      <trkpt lat="45.79847" lon="4.23251">
        <ele>410.519</ele>
        <time>2018-09-24T15:06:09Z</time>
      </trkpt>
      <trkpt lat="45.79847" lon="4.23251">
        <ele>410.508</ele>
        <time>2018-09-24T15:06:14Z</time>
      </trkpt>
      <trkpt lat="45.79847" lon="4.23251">
        <ele>410.668</ele>
        <time>2018-09-24T15:06:20Z</time>
      </trkpt>
      <trkpt lat="45.79848" lon="4.23251">
        <ele>410.909</ele>
        <time>2018-09-24T15:06:26Z</time>
      </trkpt>
      <trkpt lat="45.79849" lon="4.23251">
        <ele>410.861</ele>
        <time>2018-09-24T15:06:32Z</time>
      </trkpt>
      <trkpt lat="45.79849" lon="4.23251">
        <ele>410.757</ele>
        <time>2018-09-24T15:06:38Z</time>
      </trkpt>
      <trkpt lat="45.79848" lon="4.23249">
        <ele>410.976</ele>
        <time>2018-09-24T15:06:44Z</time>
      </trkpt>
      <trkpt lat="45.79848" lon="4.23247">
        <ele>411.078</ele>
        <time>2018-09-24T15:06:49Z</time>
      </trkpt>
      <trkpt lat="45.79847" lon="4.23246">
        <ele>411.194</ele>
        <time>2018-09-24T15:06:55Z</time>
      </trkpt>
      <trkpt lat="45.79846" lon="4.23247">
        <ele>411.686</ele>
        <time>2018-09-24T15:07:00Z</time>
      </trkpt>
      <trkpt lat="45.79845" lon="4.23249">
        <ele>411.708</ele>
        <time>2018-09-24T15:07:06Z</time>
      </trkpt>
      <trkpt lat="45.79845" lon="4.23248">
        <ele>411.579</ele>
        <time>2018-09-24T15:07:11Z</time>
      </trkpt>
      <trkpt lat="45.79847" lon="4.23248">
        <ele>411.026</ele>
        <time>2018-09-24T15:07:16Z</time>
      </trkpt>
      <trkpt lat="45.79848" lon="4.2325">
        <ele>410.803</ele>
        <time>2018-09-24T15:07:21Z</time>
      </trkpt>
      <trkpt lat="45.79846" lon="4.23251">
        <ele>410.462</ele>
        <time>2018-09-24T15:07:27Z</time>
      </trkpt>
      <trkpt lat="45.79845" lon="4.23251">
        <ele>410.517</ele>
        <time>2018-09-24T15:07:32Z</time>
      </trkpt>
      <trkpt lat="45.79847" lon="4.23251">
        <ele>410.491</ele>
        <time>2018-09-24T15:07:38Z</time>
      </trkpt>
      <trkpt lat="45.79846" lon="4.2325">
        <ele>410.842</ele>
        <time>2018-09-24T15:07:44Z</time>
      </trkpt>
      <trkpt lat="45.79846" lon="4.2325">
        <ele>411.448</ele>
        <time>2018-09-24T15:07:49Z</time>
      </trkpt>
      <trkpt lat="45.79846" lon="4.2325">
        <ele>411.9</ele>
        <time>2018-09-24T15:07:54Z</time>
      </trkpt>
      <trkpt lat="45.79846" lon="4.2325">
        <ele>412.175</ele>
        <time>2018-09-24T15:08:00Z</time>
      </trkpt>
      <trkpt lat="45.79846" lon="4.2325">
        <ele>412.274</ele>
        <time>2018-09-24T15:08:06Z</time>
      </trkpt>
      <trkpt lat="45.79846" lon="4.23251">
        <ele>412.102</ele>
        <time>2018-09-24T15:08:11Z</time>
      </trkpt>
      <trkpt lat="45.79847" lon="4.2325">
        <ele>412.145</ele>
        <time>2018-09-24T15:08:17Z</time>
      </trkpt>
      <trkpt lat="45.79849" lon="4.23253">
        <ele>411.75</ele>
        <time>2018-09-24T15:08:22Z</time>
      </trkpt>
      <trkpt lat="45.7985" lon="4.23255">
        <ele>410.851</ele>
        <time>2018-09-24T15:08:27Z</time>
      </trkpt>
      <trkpt lat="45.79853" lon="4.23256">
        <ele>410.284</ele>
        <time>2018-09-24T15:08:32Z</time>
      </trkpt>
      <trkpt lat="45.79853" lon="4.23255">
        <ele>409.87</ele>
        <time>2018-09-24T15:08:37Z</time>
      </trkpt>
      <trkpt lat="45.79854" lon="4.23251">
        <ele>409.005</ele>
        <time>2018-09-24T15:08:43Z</time>
      </trkpt>
      <trkpt lat="45.79849" lon="4.23248">
        <ele>408.139</ele>
        <time>2018-09-24T15:08:49Z</time>
      </trkpt>
      <trkpt lat="45.79849" lon="4.23248">
        <ele>408.095</ele>
        <time>2018-09-24T15:08:55Z</time>
      </trkpt>
      <trkpt lat="45.7985" lon="4.23243">
        <ele>408.306</ele>
        <time>2018-09-24T15:09:01Z</time>
      </trkpt>
    </trkseg>
  </trk>
  <trk>
    <name><![CDATA[20180924202326-dixA7]]></name>
    <trkseg>
      <trkpt lat="45.79843" lon="4.23239">
        <ele>415.014</ele>
        <time>2018-09-24T12:19:22Z</time>
      </trkpt>
      <trkpt lat="45.79843" lon="4.23239">
        <ele>415.028</ele>
        <time>2018-09-24T12:19:27Z</time>
      </trkpt>
      <trkpt lat="45.79843" lon="4.23239">
        <ele>414.993</ele>
        <time>2018-09-24T12:19:33Z</time>
      </trkpt>
      <trkpt lat="45.79843" lon="4.23239">
        <ele>414.945</ele>
        <time>2018-09-24T12:19:39Z</time>
      </trkpt>
      <trkpt lat="45.79843" lon="4.23239">
        <ele>414.946</ele>
        <time>2018-09-24T12:19:45Z</time>
      </trkpt>
      <trkpt lat="45.79843" lon="4.23239">
        <ele>414.94</ele>
        <time>2018-09-24T12:19:50Z</time>
      </trkpt>
      <trkpt lat="45.79843" lon="4.23239">
        <ele>414.897</ele>
        <time>2018-09-24T12:19:55Z</time>
      </trkpt>
      <trkpt lat="45.79843" lon="4.23239">
        <ele>414.866</ele>
        <time>2018-09-24T12:20:01Z</time>
      </trkpt>
      <trkpt lat="45.79843" lon="4.23239">
        <ele>414.855</ele>
        <time>2018-09-24T12:20:07Z</time>
      </trkpt>
      <trkpt lat="45.79843" lon="4.23239">
        <ele>414.861</ele>
        <time>2018-09-24T12:20:13Z</time>
      </trkpt>
      <trkpt lat="45.79843" lon="4.23239">
        <ele>415.185</ele>
        <time>2018-09-24T12:20:18Z</time>
      </trkpt>
      <trkpt lat="45.79843" lon="4.23239">
        <ele>415.301</ele>
        <time>2018-09-24T12:20:24Z</time>
      </trkpt>
      <trkpt lat="45.79846" lon="4.23225">
        <ele>415.596</ele>
        <time>2018-09-24T12:20:29Z</time>
      </trkpt>
      <trkpt lat="45.79854" lon="4.23227">
        <ele>415.66</ele>
        <time>2018-09-24T12:20:34Z</time>
      </trkpt>
      <trkpt lat="45.79861" lon="4.23229">
        <ele>415.867</ele>
        <time>2018-09-24T12:20:39Z</time>
      </trkpt>
      <trkpt lat="45.79861" lon="4.23229">
        <ele>416.189</ele>
        <time>2018-09-24T12:20:44Z</time>
      </trkpt>
      <trkpt lat="45.7987" lon="4.23236">
        <ele>416.272</ele>
        <time>2018-09-24T12:20:50Z</time>
      </trkpt>
      <trkpt lat="45.79875" lon="4.23243">
        <ele>415.865</ele>
        <time>2018-09-24T12:20:55Z</time>
      </trkpt>
      <trkpt lat="45.79877" lon="4.23249">
        <ele>415.588</ele>
        <time>2018-09-24T12:21:01Z</time>
      </trkpt>
      <trkpt lat="45.79879" lon="4.23255">
        <ele>415.392</ele>
        <time>2018-09-24T12:21:06Z</time>
      </trkpt>
      <trkpt lat="45.79881" lon="4.23265">
        <ele>415.272</ele>
        <time>2018-09-24T12:21:12Z</time>
      </trkpt>
      <trkpt lat="45.79884" lon="4.23271">
        <ele>415.221</ele>
        <time>2018-09-24T12:21:17Z</time>
      </trkpt>
      <trkpt lat="45.79888" lon="4.23278">
        <ele>415.714</ele>
        <time>2018-09-24T12:21:22Z</time>
      </trkpt>
      <trkpt lat="45.79892" lon="4.23284">
        <ele>416.018</ele>
        <time>2018-09-24T12:21:28Z</time>
      </trkpt>
      <trkpt lat="45.79896" lon="4.23293">
        <ele>416.334</ele>
        <time>2018-09-24T12:21:34Z</time>
      </trkpt>
      <trkpt lat="45.79898" lon="4.233">
        <ele>416.725</ele>
        <time>2018-09-24T12:21:39Z</time>
      </trkpt>
      <trkpt lat="45.799" lon="4.23307">
        <ele>417.426</ele>
        <time>2018-09-24T12:21:44Z</time>
      </trkpt>
      <trkpt lat="45.79904" lon="4.23314">
        <ele>417.874</ele>
        <time>2018-09-24T12:21:50Z</time>
      </trkpt>
      <trkpt lat="45.79907" lon="4.2332">
        <ele>417.916</ele>
        <time>2018-09-24T12:21:56Z</time>
      </trkpt>
      <trkpt lat="45.79908" lon="4.23325">
        <ele>418.156</ele>
        <time>2018-09-24T12:22:01Z</time>
      </trkpt>
      <trkpt lat="45.79911" lon="4.23335">
        <ele>418.339</ele>
        <time>2018-09-24T12:22:07Z</time>
      </trkpt>
      <trkpt lat="45.79913" lon="4.23341">
        <ele>418.577</ele>
        <time>2018-09-24T12:22:13Z</time>
      </trkpt>
      <trkpt lat="45.79915" lon="4.23345">
        <ele>418.838</ele>
        <time>2018-09-24T12:22:18Z</time>
      </trkpt>
      <trkpt lat="45.79919" lon="4.23351">
        <ele>419.03</ele>
        <time>2018-09-24T12:22:24Z</time>
      </trkpt>
      <trkpt lat="45.79921" lon="4.23356">
        <ele>419.062</ele>
        <time>2018-09-24T12:22:29Z</time>
      </trkpt>
      <trkpt lat="45.79923" lon="4.23363">
        <ele>419.15</ele>
        <time>2018-09-24T12:22:34Z</time>
      </trkpt>
      <trkpt lat="45.79927" lon="4.2337">
        <ele>419.589</ele>
        <time>2018-09-24T12:22:40Z</time>
      </trkpt>
      <trkpt lat="45.79929" lon="4.23378">
        <ele>419.722</ele>
        <time>2018-09-24T12:22:46Z</time>
      </trkpt>
      <trkpt lat="45.79932" lon="4.23386">
        <ele>420.023</ele>
        <time>2018-09-24T12:22:52Z</time>
      </trkpt>
      <trkpt lat="45.79934" lon="4.23391">
        <ele>420.527</ele>
        <time>2018-09-24T12:22:57Z</time>
      </trkpt>
      <trkpt lat="45.79936" lon="4.23396">
        <ele>420.828</ele>
        <time>2018-09-24T12:23:02Z</time>
      </trkpt>
      <trkpt lat="45.79937" lon="4.23399">
        <ele>421.236</ele>
        <time>2018-09-24T12:23:07Z</time>
      </trkpt>
      <trkpt lat="45.79941" lon="4.23402">
        <ele>421.421</ele>
        <time>2018-09-24T12:23:13Z</time>
      </trkpt>
      <trkpt lat="45.79947" lon="4.23403">
        <ele>421.367</ele>
        <time>2018-09-24T12:23:19Z</time>
      </trkpt>
      <trkpt lat="45.79954" lon="4.23405">
        <ele>421.761</ele>
        <time>2018-09-24T12:23:25Z</time>
      </trkpt>
      <trkpt lat="45.79959" lon="4.23408">
        <ele>422.28</ele>
        <time>2018-09-24T12:23:31Z</time>
      </trkpt>
      <trkpt lat="45.79965" lon="4.23407">
        <ele>422.807</ele>
        <time>2018-09-24T12:23:37Z</time>
      </trkpt>
      <trkpt lat="45.79972" lon="4.23408">
        <ele>423.047</ele>
        <time>2018-09-24T12:23:43Z</time>
      </trkpt>
      <trkpt lat="45.79977" lon="4.23408">
        <ele>422.797</ele>
        <time>2018-09-24T12:23:48Z</time>
      </trkpt>
      <trkpt lat="45.79982" lon="4.23409">
        <ele>422.335</ele>
        <time>2018-09-24T12:23:54Z</time>
      </trkpt>
      <trkpt lat="45.79989" lon="4.2341">
        <ele>422.634</ele>
        <time>2018-09-24T12:24:00Z</time>
      </trkpt>
      <trkpt lat="45.79995" lon="4.23413">
        <ele>423.101</ele>
        <time>2018-09-24T12:24:06Z</time>
      </trkpt>
      <trkpt lat="45.8" lon="4.23414">
        <ele>423.483</ele>
        <time>2018-09-24T12:24:12Z</time>
      </trkpt>
      <trkpt lat="45.80009" lon="4.23414">
        <ele>424.097</ele>
        <time>2018-09-24T12:24:18Z</time>
      </trkpt>
      <trkpt lat="45.80015" lon="4.23418">
        <ele>424.344</ele>
        <time>2018-09-24T12:24:23Z</time>
      </trkpt>
      <trkpt lat="45.80018" lon="4.23418">
        <ele>424.823</ele>
        <time>2018-09-24T12:24:28Z</time>
      </trkpt>
      <trkpt lat="45.80024" lon="4.23419">
        <ele>425.025</ele>
        <time>2018-09-24T12:24:34Z</time>
      </trkpt>
      <trkpt lat="45.80031" lon="4.23419">
        <ele>424.999</ele>
        <time>2018-09-24T12:24:40Z</time>
      </trkpt>
      <trkpt lat="45.80038" lon="4.2342">
        <ele>425.166</ele>
        <time>2018-09-24T12:24:46Z</time>
      </trkpt>
      <trkpt lat="45.80044" lon="4.23421">
        <ele>425.476</ele>
        <time>2018-09-24T12:24:52Z</time>
      </trkpt>
      <trkpt lat="45.80051" lon="4.23423">
        <ele>425.748</ele>
        <time>2018-09-24T12:24:58Z</time>
      </trkpt>
      <trkpt lat="45.80054" lon="4.23423">
        <ele>426.016</ele>
        <time>2018-09-24T12:25:03Z</time>
      </trkpt>
      <trkpt lat="45.80061" lon="4.23423">
        <ele>426.795</ele>
        <time>2018-09-24T12:25:09Z</time>
      </trkpt>
      <trkpt lat="45.80066" lon="4.23421">
        <ele>427.27</ele>
        <time>2018-09-24T12:25:14Z</time>
      </trkpt>
      <trkpt lat="45.80072" lon="4.23419">
        <ele>428.244</ele>
        <time>2018-09-24T12:25:20Z</time>
      </trkpt>
      <trkpt lat="45.80079" lon="4.2342">
        <ele>429.242</ele>
        <time>2018-09-24T12:25:26Z</time>
      </trkpt>
      <trkpt lat="45.80085" lon="4.23426">
        <ele>430.53</ele>
        <time>2018-09-24T12:25:31Z</time>
      </trkpt>
      <trkpt lat="45.80089" lon="4.23427">
        <ele>431.937</ele>
        <time>2018-09-24T12:25:37Z</time>
      </trkpt>
      <trkpt lat="45.80096" lon="4.23429">
        <ele>432.961</ele>
        <time>2018-09-24T12:25:42Z</time>
      </trkpt>
      <trkpt lat="45.80101" lon="4.2343">
        <ele>433.524</ele>
        <time>2018-09-24T12:25:48Z</time>
      </trkpt>
      <trkpt lat="45.80106" lon="4.23431">
        <ele>434.138</ele>
        <time>2018-09-24T12:25:53Z</time>
      </trkpt>
      <trkpt lat="45.80112" lon="4.23431">
        <ele>434.296</ele>
        <time>2018-09-24T12:25:59Z</time>
      </trkpt>
      <trkpt lat="45.80116" lon="4.23433">
        <ele>434.23</ele>
        <time>2018-09-24T12:26:05Z</time>
      </trkpt>
      <trkpt lat="45.80119" lon="4.23438">
        <ele>433.863</ele>
        <time>2018-09-24T12:26:11Z</time>
      </trkpt>
      <trkpt lat="45.80126" lon="4.23442">
        <ele>433.799</ele>
        <time>2018-09-24T12:26:16Z</time>
      </trkpt>
      <trkpt lat="45.80131" lon="4.23447">
        <ele>434.029</ele>
        <time>2018-09-24T12:26:21Z</time>
      </trkpt>
      <trkpt lat="45.80136" lon="4.2345">
        <ele>434.849</ele>
        <time>2018-09-24T12:26:27Z</time>
      </trkpt>
      <trkpt lat="45.80139" lon="4.23454">
        <ele>435.957</ele>
        <time>2018-09-24T12:26:32Z</time>
      </trkpt>
      <trkpt lat="45.80142" lon="4.23457">
        <ele>436.879</ele>
        <time>2018-09-24T12:26:37Z</time>
      </trkpt>
      <trkpt lat="45.80148" lon="4.2346">
        <ele>437.848</ele>
        <time>2018-09-24T12:26:43Z</time>
      </trkpt>
      <trkpt lat="45.80151" lon="4.23464">
        <ele>438.431</ele>
        <time>2018-09-24T12:26:48Z</time>
      </trkpt>
      <trkpt lat="45.80157" lon="4.23471">
        <ele>438.785</ele>
        <time>2018-09-24T12:26:54Z</time>
      </trkpt>
      <trkpt lat="45.80161" lon="4.23474">
        <ele>439.5</ele>
        <time>2018-09-24T12:26:59Z</time>
      </trkpt>
      <trkpt lat="45.80167" lon="4.23479">
        <ele>440.186</ele>
        <time>2018-09-24T12:27:04Z</time>
      </trkpt>
      <trkpt lat="45.80173" lon="4.23482">
        <ele>440.785</ele>
        <time>2018-09-24T12:27:10Z</time>
      </trkpt>
      <trkpt lat="45.80179" lon="4.23487">
        <ele>441.459</ele>
        <time>2018-09-24T12:27:15Z</time>
      </trkpt>
      <trkpt lat="45.80184" lon="4.23493">
        <ele>442.214</ele>
        <time>2018-09-24T12:27:21Z</time>
      </trkpt>
      <trkpt lat="45.80189" lon="4.23498">
        <ele>443.046</ele>
        <time>2018-09-24T12:27:27Z</time>
      </trkpt>
      <trkpt lat="45.80193" lon="4.23503">
        <ele>443.565</ele>
        <time>2018-09-24T12:27:32Z</time>
      </trkpt>
      <trkpt lat="45.80196" lon="4.23506">
        <ele>443.969</ele>
        <time>2018-09-24T12:27:37Z</time>
      </trkpt>
      <trkpt lat="45.80201" lon="4.23512">
        <ele>444.536</ele>
        <time>2018-09-24T12:27:43Z</time>
      </trkpt>
      <trkpt lat="45.80205" lon="4.23516">
        <ele>445.064</ele>
        <time>2018-09-24T12:27:48Z</time>
      </trkpt>
      <trkpt lat="45.80211" lon="4.23523">
        <ele>445.805</ele>
        <time>2018-09-24T12:27:54Z</time>
      </trkpt>
      <trkpt lat="45.80215" lon="4.23529">
        <ele>446.257</ele>
        <time>2018-09-24T12:27:59Z</time>
      </trkpt>
      <trkpt lat="45.80219" lon="4.23537">
        <ele>446.875</ele>
        <time>2018-09-24T12:28:05Z</time>
      </trkpt>
      <trkpt lat="45.80224" lon="4.23542">
        <ele>447.448</ele>
        <time>2018-09-24T12:28:10Z</time>
      </trkpt>
      <trkpt lat="45.80228" lon="4.23548">
        <ele>448.276</ele>
        <time>2018-09-24T12:28:16Z</time>
      </trkpt>
      <trkpt lat="45.80233" lon="4.23555">
        <ele>449.214</ele>
        <time>2018-09-24T12:28:22Z</time>
      </trkpt>
      <trkpt lat="45.80238" lon="4.23562">
        <ele>449.753</ele>
        <time>2018-09-24T12:28:27Z</time>
      </trkpt>
      <trkpt lat="45.80242" lon="4.23568">
        <ele>450.435</ele>
        <time>2018-09-24T12:28:32Z</time>
      </trkpt>
      <trkpt lat="45.80245" lon="4.23575">
        <ele>451.096</ele>
        <time>2018-09-24T12:28:37Z</time>
      </trkpt>
      <trkpt lat="45.80248" lon="4.23582">
        <ele>451.775</ele>
        <time>2018-09-24T12:28:42Z</time>
      </trkpt>
      <trkpt lat="45.80251" lon="4.2359">
        <ele>452.2</ele>
        <time>2018-09-24T12:28:48Z</time>
      </trkpt>
      <trkpt lat="45.80255" lon="4.23598">
        <ele>452.514</ele>
        <time>2018-09-24T12:28:54Z</time>
      </trkpt>
      <trkpt lat="45.8026" lon="4.23604">
        <ele>452.886</ele>
        <time>2018-09-24T12:28:59Z</time>
      </trkpt>
      <trkpt lat="45.80264" lon="4.23612">
        <ele>453.605</ele>
        <time>2018-09-24T12:29:05Z</time>
      </trkpt>
      <trkpt lat="45.80268" lon="4.23618">
        <ele>454.342</ele>
        <time>2018-09-24T12:29:10Z</time>
      </trkpt>
      <trkpt lat="45.80272" lon="4.23622">
        <ele>455.011</ele>
        <time>2018-09-24T12:29:16Z</time>
      </trkpt>
      <trkpt lat="45.80276" lon="4.23632">
        <ele>455.538</ele>
        <time>2018-09-24T12:29:22Z</time>
      </trkpt>
      <trkpt lat="45.80277" lon="4.2364">
        <ele>455.987</ele>
        <time>2018-09-24T12:29:27Z</time>
      </trkpt>
      <trkpt lat="45.8028" lon="4.2365">
        <ele>456.78</ele>
        <time>2018-09-24T12:29:33Z</time>
      </trkpt>
      <trkpt lat="45.80283" lon="4.23659">
        <ele>457.527</ele>
        <time>2018-09-24T12:29:38Z</time>
      </trkpt>
      <trkpt lat="45.80285" lon="4.23666">
        <ele>458.47</ele>
        <time>2018-09-24T12:29:44Z</time>
      </trkpt>
      <trkpt lat="45.80285" lon="4.23675">
        <ele>459.509</ele>
        <time>2018-09-24T12:29:50Z</time>
      </trkpt>
      <trkpt lat="45.80285" lon="4.23683">
        <ele>460.359</ele>
        <time>2018-09-24T12:29:55Z</time>
      </trkpt>
      <trkpt lat="45.80286" lon="4.23691">
        <ele>460.879</ele>
        <time>2018-09-24T12:30:01Z</time>
      </trkpt>
      <trkpt lat="45.80287" lon="4.23697">
        <ele>461.203</ele>
        <time>2018-09-24T12:30:06Z</time>
      </trkpt>
      <trkpt lat="45.80287" lon="4.23705">
        <ele>461.489</ele>
        <time>2018-09-24T12:30:12Z</time>
      </trkpt>
      <trkpt lat="45.80289" lon="4.23716">
        <ele>461.968</ele>
        <time>2018-09-24T12:30:18Z</time>
      </trkpt>
      <trkpt lat="45.80291" lon="4.23727">
        <ele>462.543</ele>
        <time>2018-09-24T12:30:24Z</time>
      </trkpt>
      <trkpt lat="45.80294" lon="4.23735">
        <ele>463.066</ele>
        <time>2018-09-24T12:30:30Z</time>
      </trkpt>
      <trkpt lat="45.80296" lon="4.23745">
        <ele>464.015</ele>
        <time>2018-09-24T12:30:35Z</time>
      </trkpt>
      <trkpt lat="45.80299" lon="4.23754">
        <ele>464.926</ele>
        <time>2018-09-24T12:30:41Z</time>
      </trkpt>
      <trkpt lat="45.80301" lon="4.23761">
        <ele>465.637</ele>
        <time>2018-09-24T12:30:46Z</time>
      </trkpt>
      <trkpt lat="45.80304" lon="4.2377">
        <ele>466.147</ele>
        <time>2018-09-24T12:30:51Z</time>
      </trkpt>
      <trkpt lat="45.80308" lon="4.23779">
        <ele>466.802</ele>
        <time>2018-09-24T12:30:57Z</time>
      </trkpt>
      <trkpt lat="45.80311" lon="4.23786">
        <ele>467.309</ele>
        <time>2018-09-24T12:31:02Z</time>
      </trkpt>
      <trkpt lat="45.80316" lon="4.23793">
        <ele>468.004</ele>
        <time>2018-09-24T12:31:08Z</time>
      </trkpt>
      <trkpt lat="45.8032" lon="4.23801">
        <ele>468.449</ele>
        <time>2018-09-24T12:31:13Z</time>
      </trkpt>
      <trkpt lat="45.80323" lon="4.2381">
        <ele>469.061</ele>
        <time>2018-09-24T12:31:19Z</time>
      </trkpt>
      <trkpt lat="45.80325" lon="4.23818">
        <ele>469.414</ele>
        <time>2018-09-24T12:31:24Z</time>
      </trkpt>
      <trkpt lat="45.80329" lon="4.23825">
        <ele>470.147</ele>
        <time>2018-09-24T12:31:30Z</time>
      </trkpt>
      <trkpt lat="45.80332" lon="4.23835">
        <ele>470.86</ele>
        <time>2018-09-24T12:31:35Z</time>
      </trkpt>
      <trkpt lat="45.80335" lon="4.2384">
        <ele>471.952</ele>
        <time>2018-09-24T12:31:41Z</time>
      </trkpt>
      <trkpt lat="45.8034" lon="4.23849">
        <ele>473.652</ele>
        <time>2018-09-24T12:31:47Z</time>
      </trkpt>
      <trkpt lat="45.80343" lon="4.23858">
        <ele>475</ele>
        <time>2018-09-24T12:31:53Z</time>
      </trkpt>
      <trkpt lat="45.80346" lon="4.23866">
        <ele>475.866</ele>
        <time>2018-09-24T12:31:59Z</time>
      </trkpt>
      <trkpt lat="45.80348" lon="4.23875">
        <ele>476.573</ele>
        <time>2018-09-24T12:32:04Z</time>
      </trkpt>
      <trkpt lat="45.80351" lon="4.23882">
        <ele>477.169</ele>
        <time>2018-09-24T12:32:10Z</time>
      </trkpt>
      <trkpt lat="45.80353" lon="4.23889">
        <ele>477.476</ele>
        <time>2018-09-24T12:32:15Z</time>
      </trkpt>
      <trkpt lat="45.80356" lon="4.23898">
        <ele>478.167</ele>
        <time>2018-09-24T12:32:21Z</time>
      </trkpt>
      <trkpt lat="45.80359" lon="4.23907">
        <ele>478.662</ele>
        <time>2018-09-24T12:32:26Z</time>
      </trkpt>
      <trkpt lat="45.80362" lon="4.23917">
        <ele>479.311</ele>
        <time>2018-09-24T12:32:32Z</time>
      </trkpt>
      <trkpt lat="45.80366" lon="4.23925">
        <ele>480.205</ele>
        <time>2018-09-24T12:32:37Z</time>
      </trkpt>
      <trkpt lat="45.80369" lon="4.23933">
        <ele>481.181</ele>
        <time>2018-09-24T12:32:43Z</time>
      </trkpt>
      <trkpt lat="45.80372" lon="4.23942">
        <ele>482.15</ele>
        <time>2018-09-24T12:32:49Z</time>
      </trkpt>
      <trkpt lat="45.80376" lon="4.2395">
        <ele>483.14</ele>
        <time>2018-09-24T12:32:55Z</time>
      </trkpt>
      <trkpt lat="45.80379" lon="4.2396">
        <ele>483.831</ele>
        <time>2018-09-24T12:33:01Z</time>
      </trkpt>
      <trkpt lat="45.80384" lon="4.23966">
        <ele>484.381</ele>
        <time>2018-09-24T12:33:06Z</time>
      </trkpt>
      <trkpt lat="45.80389" lon="4.2397">
        <ele>485.261</ele>
        <time>2018-09-24T12:33:12Z</time>
      </trkpt>
      <trkpt lat="45.80393" lon="4.23976">
        <ele>485.967</ele>
        <time>2018-09-24T12:33:17Z</time>
      </trkpt>
      <trkpt lat="45.80399" lon="4.23983">
        <ele>486.886</ele>
        <time>2018-09-24T12:33:23Z</time>
      </trkpt>
      <trkpt lat="45.80404" lon="4.23989">
        <ele>487.366</ele>
        <time>2018-09-24T12:33:28Z</time>
      </trkpt>
      <trkpt lat="45.80408" lon="4.23993">
        <ele>487.604</ele>
        <time>2018-09-24T12:33:34Z</time>
      </trkpt>
      <trkpt lat="45.80409" lon="4.23992">
        <ele>488.421</ele>
        <time>2018-09-24T12:33:40Z</time>
      </trkpt>
      <trkpt lat="45.80409" lon="4.23994">
        <ele>489.097</ele>
        <time>2018-09-24T12:33:45Z</time>
      </trkpt>
      <trkpt lat="45.80414" lon="4.23998">
        <ele>489.803</ele>
        <time>2018-09-24T12:33:51Z</time>
      </trkpt>
      <trkpt lat="45.80418" lon="4.24001">
        <ele>489.962</ele>
        <time>2018-09-24T12:33:56Z</time>
      </trkpt>
      <trkpt lat="45.80423" lon="4.24006">
        <ele>490.275</ele>
        <time>2018-09-24T12:34:02Z</time>
      </trkpt>
      <trkpt lat="45.80427" lon="4.2401">
        <ele>490.651</ele>
        <time>2018-09-24T12:34:07Z</time>
      </trkpt>
      <trkpt lat="45.80432" lon="4.24013">
        <ele>491.228</ele>
        <time>2018-09-24T12:34:13Z</time>
      </trkpt>
      <trkpt lat="45.80436" lon="4.24015">
        <ele>491.757</ele>
        <time>2018-09-24T12:34:19Z</time>
      </trkpt>
      <trkpt lat="45.80441" lon="4.24017">
        <ele>492.274</ele>
        <time>2018-09-24T12:34:25Z</time>
      </trkpt>
      <trkpt lat="45.80446" lon="4.24021">
        <ele>492.509</ele>
        <time>2018-09-24T12:34:31Z</time>
      </trkpt>
      <trkpt lat="45.80449" lon="4.24022">
        <ele>492.814</ele>
        <time>2018-09-24T12:34:37Z</time>
      </trkpt>
      <trkpt lat="45.80455" lon="4.24025">
        <ele>493.209</ele>
        <time>2018-09-24T12:34:43Z</time>
      </trkpt>
      <trkpt lat="45.80459" lon="4.24026">
        <ele>493.387</ele>
        <time>2018-09-24T12:34:48Z</time>
      </trkpt>
      <trkpt lat="45.80461" lon="4.24023">
        <ele>494.029</ele>
        <time>2018-09-24T12:34:54Z</time>
      </trkpt>
      <trkpt lat="45.80461" lon="4.24022">
        <ele>494.369</ele>
        <time>2018-09-24T12:35:00Z</time>
      </trkpt>
      <trkpt lat="45.8046" lon="4.24021">
        <ele>495.035</ele>
        <time>2018-09-24T12:35:06Z</time>
      </trkpt>
      <trkpt lat="45.80459" lon="4.24022">
        <ele>495.523</ele>
        <time>2018-09-24T12:35:11Z</time>
      </trkpt>
      <trkpt lat="45.80459" lon="4.24023">
        <ele>496.072</ele>
        <time>2018-09-24T12:35:17Z</time>
      </trkpt>
      <trkpt lat="45.8046" lon="4.24023">
        <ele>496.411</ele>
        <time>2018-09-24T12:35:22Z</time>
      </trkpt>
      <trkpt lat="45.8046" lon="4.24023">
        <ele>496.367</ele>
        <time>2018-09-24T12:35:28Z</time>
      </trkpt>
      <trkpt lat="45.80459" lon="4.24021">
        <ele>496.426</ele>
        <time>2018-09-24T12:35:34Z</time>
      </trkpt>
      <trkpt lat="45.80464" lon="4.24018">
        <ele>496.183</ele>
        <time>2018-09-24T12:35:39Z</time>
      </trkpt>
      <trkpt lat="45.80467" lon="4.24017">
        <ele>496.162</ele>
        <time>2018-09-24T12:35:44Z</time>
      </trkpt>
      <trkpt lat="45.8047" lon="4.24016">
        <ele>496.316</ele>
        <time>2018-09-24T12:35:50Z</time>
      </trkpt>
      <trkpt lat="45.80469" lon="4.24016">
        <ele>496.413</ele>
        <time>2018-09-24T12:35:55Z</time>
      </trkpt>
      <trkpt lat="45.80469" lon="4.24016">
        <ele>496.731</ele>
        <time>2018-09-24T12:36:01Z</time>
      </trkpt>
      <trkpt lat="45.80471" lon="4.24015">
        <ele>497.032</ele>
        <time>2018-09-24T12:36:06Z</time>
      </trkpt>
      <trkpt lat="45.80471" lon="4.24015">
        <ele>497.182</ele>
        <time>2018-09-24T12:36:12Z</time>
      </trkpt>
      <trkpt lat="45.80471" lon="4.24014">
        <ele>497.283</ele>
        <time>2018-09-24T12:36:17Z</time>
      </trkpt>
      <trkpt lat="45.80471" lon="4.24012">
        <ele>497.593</ele>
        <time>2018-09-24T12:36:23Z</time>
      </trkpt>
      <trkpt lat="45.80471" lon="4.2401">
        <ele>497.878</ele>
        <time>2018-09-24T12:36:28Z</time>
      </trkpt>
      <trkpt lat="45.8047" lon="4.24011">
        <ele>498.097</ele>
        <time>2018-09-24T12:36:34Z</time>
      </trkpt>
      <trkpt lat="45.8047" lon="4.24011">
        <ele>498.407</ele>
        <time>2018-09-24T12:36:40Z</time>
      </trkpt>
      <trkpt lat="45.80471" lon="4.24011">
        <ele>498.573</ele>
        <time>2018-09-24T12:36:45Z</time>
      </trkpt>
      <trkpt lat="45.80471" lon="4.24011">
        <ele>498.754</ele>
        <time>2018-09-24T12:36:51Z</time>
      </trkpt>
      <trkpt lat="45.80471" lon="4.24012">
        <ele>498.798</ele>
        <time>2018-09-24T12:36:57Z</time>
      </trkpt>
      <trkpt lat="45.80469" lon="4.24012">
        <ele>498.997</ele>
        <time>2018-09-24T12:37:02Z</time>
      </trkpt>
      <trkpt lat="45.80468" lon="4.24011">
        <ele>499.444</ele>
        <time>2018-09-24T12:37:08Z</time>
      </trkpt>
      <trkpt lat="45.80468" lon="4.2401">
        <ele>499.718</ele>
        <time>2018-09-24T12:37:14Z</time>
      </trkpt>
      <trkpt lat="45.80468" lon="4.2401">
        <ele>500.065</ele>
        <time>2018-09-24T12:37:19Z</time>
      </trkpt>
      <trkpt lat="45.80469" lon="4.2401">
        <ele>500.606</ele>
        <time>2018-09-24T12:37:25Z</time>
      </trkpt>
      <trkpt lat="45.80469" lon="4.24011">
        <ele>500.572</ele>
        <time>2018-09-24T12:37:31Z</time>
      </trkpt>
      <trkpt lat="45.80469" lon="4.24012">
        <ele>500.659</ele>
        <time>2018-09-24T12:37:36Z</time>
      </trkpt>
      <trkpt lat="45.80468" lon="4.24011">
        <ele>500.837</ele>
        <time>2018-09-24T12:37:41Z</time>
      </trkpt>
      <trkpt lat="45.80469" lon="4.24011">
        <ele>501.177</ele>
        <time>2018-09-24T12:37:47Z</time>
      </trkpt>
      <trkpt lat="45.8047" lon="4.2401">
        <ele>501.298</ele>
        <time>2018-09-24T12:37:52Z</time>
      </trkpt>
      <trkpt lat="45.80471" lon="4.2401">
        <ele>501.251</ele>
        <time>2018-09-24T12:37:58Z</time>
      </trkpt>
      <trkpt lat="45.80471" lon="4.24011">
        <ele>501.226</ele>
        <time>2018-09-24T12:38:03Z</time>
      </trkpt>
      <trkpt lat="45.80472" lon="4.24014">
        <ele>501.288</ele>
        <time>2018-09-24T12:38:09Z</time>
      </trkpt>
      <trkpt lat="45.80474" lon="4.24014">
        <ele>500.942</ele>
        <time>2018-09-24T12:38:15Z</time>
      </trkpt>
      <trkpt lat="45.80475" lon="4.24012">
        <ele>500.433</ele>
        <time>2018-09-24T12:38:21Z</time>
      </trkpt>
      <trkpt lat="45.80475" lon="4.24012">
        <ele>500.15</ele>
        <time>2018-09-24T12:38:27Z</time>
      </trkpt>
      <trkpt lat="45.80476" lon="4.24014">
        <ele>499.875</ele>
        <time>2018-09-24T12:38:33Z</time>
      </trkpt>
      <trkpt lat="45.80476" lon="4.24014">
        <ele>499.833</ele>
        <time>2018-09-24T12:38:38Z</time>
      </trkpt>
      <trkpt lat="45.80476" lon="4.24014">
        <ele>499.664</ele>
        <time>2018-09-24T12:38:44Z</time>
      </trkpt>
      <trkpt lat="45.80476" lon="4.24014">
        <ele>499.573</ele>
        <time>2018-09-24T12:38:50Z</time>
      </trkpt>
      <trkpt lat="45.80476" lon="4.24014">
        <ele>499.464</ele>
        <time>2018-09-24T12:38:55Z</time>
      </trkpt>
      <trkpt lat="45.80476" lon="4.24014">
        <ele>499.334</ele>
        <time>2018-09-24T12:39:01Z</time>
      </trkpt>
      <trkpt lat="45.80476" lon="4.24014">
        <ele>499.231</ele>
        <time>2018-09-24T12:39:06Z</time>
      </trkpt>
      <trkpt lat="45.80476" lon="4.24014">
        <ele>499.156</ele>
        <time>2018-09-24T12:39:12Z</time>
      </trkpt>
      <trkpt lat="45.80475" lon="4.24014">
        <ele>499.004</ele>
        <time>2018-09-24T12:39:18Z</time>
      </trkpt>
      <trkpt lat="45.80474" lon="4.24014">
        <ele>498.82</ele>
        <time>2018-09-24T12:39:24Z</time>
      </trkpt>
      <trkpt lat="45.80473" lon="4.24016">
        <ele>498.383</ele>
        <time>2018-09-24T12:39:29Z</time>
      </trkpt>
      <trkpt lat="45.80469" lon="4.24015">
        <ele>497.854</ele>
        <time>2018-09-24T12:39:35Z</time>
      </trkpt>
      <trkpt lat="45.80467" lon="4.24018">
        <ele>497.925</ele>
        <time>2018-09-24T12:39:40Z</time>
      </trkpt>
      <trkpt lat="45.80465" lon="4.24019">
        <ele>497.667</ele>
        <time>2018-09-24T12:39:46Z</time>
      </trkpt>
      <trkpt lat="45.80464" lon="4.2402">
        <ele>497.48</ele>
        <time>2018-09-24T12:39:51Z</time>
      </trkpt>
      <trkpt lat="45.80464" lon="4.2402">
        <ele>497.243</ele>
        <time>2018-09-24T12:39:57Z</time>
      </trkpt>
      <trkpt lat="45.80464" lon="4.2402">
        <ele>496.69</ele>
        <time>2018-09-24T12:40:02Z</time>
      </trkpt>
      <trkpt lat="45.80464" lon="4.2402">
        <ele>496.461</ele>
        <time>2018-09-24T12:40:08Z</time>
      </trkpt>
      <trkpt lat="45.80467" lon="4.24022">
        <ele>496.223</ele>
        <time>2018-09-24T12:40:14Z</time>
      </trkpt>
      <trkpt lat="45.80471" lon="4.24024">
        <ele>495.93</ele>
        <time>2018-09-24T12:40:19Z</time>
      </trkpt>
      <trkpt lat="45.80475" lon="4.24025">
        <ele>495.575</ele>
        <time>2018-09-24T12:40:25Z</time>
      </trkpt>
      <trkpt lat="45.80478" lon="4.24027">
        <ele>494.948</ele>
        <time>2018-09-24T12:40:31Z</time>
      </trkpt>
      <trkpt lat="45.80482" lon="4.24028">
        <ele>494.998</ele>
        <time>2018-09-24T12:40:37Z</time>
      </trkpt>
      <trkpt lat="45.80489" lon="4.24034">
        <ele>494.972</ele>
        <time>2018-09-24T12:40:43Z</time>
      </trkpt>
      <trkpt lat="45.80495" lon="4.2404">
        <ele>494.572</ele>
        <time>2018-09-24T12:40:48Z</time>
      </trkpt>
      <trkpt lat="45.805" lon="4.24044">
        <ele>494.851</ele>
        <time>2018-09-24T12:40:54Z</time>
      </trkpt>
      <trkpt lat="45.80505" lon="4.24048">
        <ele>494.894</ele>
        <time>2018-09-24T12:41:00Z</time>
      </trkpt>
      <trkpt lat="45.8051" lon="4.24052">
        <ele>494.989</ele>
        <time>2018-09-24T12:41:05Z</time>
      </trkpt>
      <trkpt lat="45.80517" lon="4.24058">
        <ele>495.123</ele>
        <time>2018-09-24T12:41:11Z</time>
      </trkpt>
      <trkpt lat="45.80523" lon="4.24062">
        <ele>495.59</ele>
        <time>2018-09-24T12:41:17Z</time>
      </trkpt>
      <trkpt lat="45.80528" lon="4.24064">
        <ele>496</ele>
        <time>2018-09-24T12:41:22Z</time>
      </trkpt>
      <trkpt lat="45.80533" lon="4.24068">
        <ele>496.182</ele>
        <time>2018-09-24T12:41:28Z</time>
      </trkpt>
      <trkpt lat="45.80539" lon="4.24073">
        <ele>496.524</ele>
        <time>2018-09-24T12:41:34Z</time>
      </trkpt>
      <trkpt lat="45.80544" lon="4.24077">
        <ele>496.785</ele>
        <time>2018-09-24T12:41:39Z</time>
      </trkpt>
      <trkpt lat="45.80549" lon="4.24081">
        <ele>496.985</ele>
        <time>2018-09-24T12:41:44Z</time>
      </trkpt>
      <trkpt lat="45.80554" lon="4.24084">
        <ele>497.389</ele>
        <time>2018-09-24T12:41:49Z</time>
      </trkpt>
      <trkpt lat="45.80558" lon="4.24088">
        <ele>497.674</ele>
        <time>2018-09-24T12:41:55Z</time>
      </trkpt>
      <trkpt lat="45.80563" lon="4.24092">
        <ele>497.973</ele>
        <time>2018-09-24T12:42:01Z</time>
      </trkpt>
      <trkpt lat="45.80568" lon="4.24095">
        <ele>498.211</ele>
        <time>2018-09-24T12:42:06Z</time>
      </trkpt>
      <trkpt lat="45.80573" lon="4.24099">
        <ele>498.504</ele>
        <time>2018-09-24T12:42:12Z</time>
      </trkpt>
      <trkpt lat="45.80578" lon="4.24103">
        <ele>499.036</ele>
        <time>2018-09-24T12:42:18Z</time>
      </trkpt>
      <trkpt lat="45.80583" lon="4.24104">
        <ele>499.615</ele>
        <time>2018-09-24T12:42:23Z</time>
      </trkpt>
      <trkpt lat="45.80588" lon="4.24107">
        <ele>500.054</ele>
        <time>2018-09-24T12:42:29Z</time>
      </trkpt>
      <trkpt lat="45.80592" lon="4.2411">
        <ele>500.401</ele>
        <time>2018-09-24T12:42:35Z</time>
      </trkpt>
      <trkpt lat="45.80597" lon="4.24113">
        <ele>500.853</ele>
        <time>2018-09-24T12:42:40Z</time>
      </trkpt>
      <trkpt lat="45.80602" lon="4.24116">
        <ele>501.502</ele>
        <time>2018-09-24T12:42:46Z</time>
      </trkpt>
      <trkpt lat="45.80605" lon="4.24119">
        <ele>501.787</ele>
        <time>2018-09-24T12:42:51Z</time>
      </trkpt>
      <trkpt lat="45.80611" lon="4.24123">
        <ele>501.991</ele>
        <time>2018-09-24T12:42:57Z</time>
      </trkpt>
      <trkpt lat="45.80615" lon="4.24126">
        <ele>502.361</ele>
        <time>2018-09-24T12:43:02Z</time>
      </trkpt>
      <trkpt lat="45.80619" lon="4.24128">
        <ele>502.597</ele>
        <time>2018-09-24T12:43:07Z</time>
      </trkpt>
      <trkpt lat="45.80624" lon="4.24134">
        <ele>503.412</ele>
        <time>2018-09-24T12:43:13Z</time>
      </trkpt>
      <trkpt lat="45.8063" lon="4.2414">
        <ele>503.946</ele>
        <time>2018-09-24T12:43:19Z</time>
      </trkpt>
      <trkpt lat="45.80633" lon="4.24143">
        <ele>504.392</ele>
        <time>2018-09-24T12:43:24Z</time>
      </trkpt>
      <trkpt lat="45.80638" lon="4.24146">
        <ele>505.017</ele>
        <time>2018-09-24T12:43:30Z</time>
      </trkpt>
      <trkpt lat="45.80642" lon="4.24149">
        <ele>505.861</ele>
        <time>2018-09-24T12:43:36Z</time>
      </trkpt>
      <trkpt lat="45.80648" lon="4.2415">
        <ele>506.51</ele>
        <time>2018-09-24T12:43:41Z</time>
      </trkpt>
      <trkpt lat="45.80653" lon="4.24152">
        <ele>507.188</ele>
        <time>2018-09-24T12:43:47Z</time>
      </trkpt>
      <trkpt lat="45.80658" lon="4.24151">
        <ele>507.906</ele>
        <time>2018-09-24T12:43:52Z</time>
      </trkpt>
      <trkpt lat="45.80664" lon="4.24151">
        <ele>508.934</ele>
        <time>2018-09-24T12:43:58Z</time>
      </trkpt>
      <trkpt lat="45.80669" lon="4.24152">
        <ele>509.54</ele>
        <time>2018-09-24T12:44:04Z</time>
      </trkpt>
      <trkpt lat="45.80676" lon="4.24153">
        <ele>510.251</ele>
        <time>2018-09-24T12:44:10Z</time>
      </trkpt>
      <trkpt lat="45.80681" lon="4.24154">
        <ele>510.969</ele>
        <time>2018-09-24T12:44:15Z</time>
      </trkpt>
      <trkpt lat="45.80686" lon="4.24155">
        <ele>511.572</ele>
        <time>2018-09-24T12:44:21Z</time>
      </trkpt>
      <trkpt lat="45.80687" lon="4.24155">
        <ele>512.026</ele>
        <time>2018-09-24T12:44:26Z</time>
      </trkpt>
      <trkpt lat="45.80687" lon="4.24155">
        <ele>512.323</ele>
        <time>2018-09-24T12:44:32Z</time>
      </trkpt>
      <trkpt lat="45.80686" lon="4.24156">
        <ele>513.057</ele>
        <time>2018-09-24T12:44:38Z</time>
      </trkpt>
      <trkpt lat="45.80687" lon="4.24157">
        <ele>513.731</ele>
        <time>2018-09-24T12:44:43Z</time>
      </trkpt>
      <trkpt lat="45.80687" lon="4.24157">
        <ele>514.234</ele>
        <time>2018-09-24T12:44:48Z</time>
      </trkpt>
      <trkpt lat="45.8069" lon="4.2416">
        <ele>514.5</ele>
        <time>2018-09-24T12:44:54Z</time>
      </trkpt>
      <trkpt lat="45.80697" lon="4.24159">
        <ele>514.618</ele>
        <time>2018-09-24T12:45:00Z</time>
      </trkpt>
      <trkpt lat="45.80701" lon="4.24156">
        <ele>514.646</ele>
        <time>2018-09-24T12:45:05Z</time>
      </trkpt>
      <trkpt lat="45.80704" lon="4.24154">
        <ele>515.061</ele>
        <time>2018-09-24T12:45:10Z</time>
      </trkpt>
      <trkpt lat="45.8071" lon="4.2415">
        <ele>515.315</ele>
        <time>2018-09-24T12:45:15Z</time>
      </trkpt>
      <trkpt lat="45.80714" lon="4.2415">
        <ele>515.734</ele>
        <time>2018-09-24T12:45:20Z</time>
      </trkpt>
      <trkpt lat="45.80717" lon="4.24148">
        <ele>516.074</ele>
        <time>2018-09-24T12:45:26Z</time>
      </trkpt>
      <trkpt lat="45.80722" lon="4.24149">
        <ele>516.273</ele>
        <time>2018-09-24T12:45:31Z</time>
      </trkpt>
      <trkpt lat="45.80727" lon="4.24149">
        <ele>516.57</ele>
        <time>2018-09-24T12:45:36Z</time>
      </trkpt>
      <trkpt lat="45.80733" lon="4.2415">
        <ele>516.755</ele>
        <time>2018-09-24T12:45:42Z</time>
      </trkpt>
      <trkpt lat="45.80739" lon="4.24153">
        <ele>517.012</ele>
        <time>2018-09-24T12:45:48Z</time>
      </trkpt>
      <trkpt lat="45.80744" lon="4.24155">
        <ele>517.314</ele>
        <time>2018-09-24T12:45:54Z</time>
      </trkpt>
      <trkpt lat="45.8075" lon="4.24156">
        <ele>517.808</ele>
        <time>2018-09-24T12:46:00Z</time>
      </trkpt>
      <trkpt lat="45.80757" lon="4.24159">
        <ele>518.225</ele>
        <time>2018-09-24T12:46:06Z</time>
      </trkpt>
      <trkpt lat="45.80763" lon="4.24161">
        <ele>518.615</ele>
        <time>2018-09-24T12:46:12Z</time>
      </trkpt>
      <trkpt lat="45.80767" lon="4.24161">
        <ele>518.957</ele>
        <time>2018-09-24T12:46:17Z</time>
      </trkpt>
      <trkpt lat="45.80773" lon="4.24165">
        <ele>519.162</ele>
        <time>2018-09-24T12:46:23Z</time>
      </trkpt>
      <trkpt lat="45.8078" lon="4.24168">
        <ele>519.553</ele>
        <time>2018-09-24T12:46:28Z</time>
      </trkpt>
      <trkpt lat="45.80785" lon="4.24171">
        <ele>520.084</ele>
        <time>2018-09-24T12:46:34Z</time>
      </trkpt>
      <trkpt lat="45.80789" lon="4.24172">
        <ele>520.507</ele>
        <time>2018-09-24T12:46:39Z</time>
      </trkpt>
      <trkpt lat="45.80794" lon="4.24175">
        <ele>520.652</ele>
        <time>2018-09-24T12:46:45Z</time>
      </trkpt>
      <trkpt lat="45.80798" lon="4.24177">
        <ele>520.843</ele>
        <time>2018-09-24T12:46:50Z</time>
      </trkpt>
      <trkpt lat="45.80805" lon="4.24181">
        <ele>520.999</ele>
        <time>2018-09-24T12:46:55Z</time>
      </trkpt>
      <trkpt lat="45.8081" lon="4.24182">
        <ele>521.333</ele>
        <time>2018-09-24T12:47:00Z</time>
      </trkpt>
      <trkpt lat="45.80817" lon="4.24185">
        <ele>521.768</ele>
        <time>2018-09-24T12:47:06Z</time>
      </trkpt>
      <trkpt lat="45.80821" lon="4.24187">
        <ele>521.882</ele>
        <time>2018-09-24T12:47:11Z</time>
      </trkpt>
      <trkpt lat="45.80827" lon="4.2419">
        <ele>521.898</ele>
        <time>2018-09-24T12:47:16Z</time>
      </trkpt>
      <trkpt lat="45.80833" lon="4.24194">
        <ele>522.09</ele>
        <time>2018-09-24T12:47:22Z</time>
      </trkpt>
      <trkpt lat="45.80838" lon="4.24198">
        <ele>522.537</ele>
        <time>2018-09-24T12:47:28Z</time>
      </trkpt>
      <trkpt lat="45.80846" lon="4.24203">
        <ele>522.734</ele>
        <time>2018-09-24T12:47:34Z</time>
      </trkpt>
      <trkpt lat="45.80852" lon="4.24207">
        <ele>522.903</ele>
        <time>2018-09-24T12:47:39Z</time>
      </trkpt>
      <trkpt lat="45.80856" lon="4.24212">
        <ele>523.112</ele>
        <time>2018-09-24T12:47:44Z</time>
      </trkpt>
      <trkpt lat="45.80862" lon="4.24218">
        <ele>523.331</ele>
        <time>2018-09-24T12:47:50Z</time>
      </trkpt>
      <trkpt lat="45.80868" lon="4.24223">
        <ele>523.696</ele>
        <time>2018-09-24T12:47:56Z</time>
      </trkpt>
      <trkpt lat="45.80875" lon="4.24229">
        <ele>523.955</ele>
        <time>2018-09-24T12:48:02Z</time>
      </trkpt>
      <trkpt lat="45.8088" lon="4.24232">
        <ele>524.217</ele>
        <time>2018-09-24T12:48:07Z</time>
      </trkpt>
      <trkpt lat="45.80885" lon="4.24235">
        <ele>524.49</ele>
        <time>2018-09-24T12:48:12Z</time>
      </trkpt>
      <trkpt lat="45.8089" lon="4.24239">
        <ele>524.691</ele>
        <time>2018-09-24T12:48:17Z</time>
      </trkpt>
      <trkpt lat="45.80896" lon="4.24241">
        <ele>525.086</ele>
        <time>2018-09-24T12:48:23Z</time>
      </trkpt>
      <trkpt lat="45.80902" lon="4.24244">
        <ele>525.185</ele>
        <time>2018-09-24T12:48:28Z</time>
      </trkpt>
      <trkpt lat="45.80908" lon="4.24247">
        <ele>525.572</ele>
        <time>2018-09-24T12:48:34Z</time>
      </trkpt>
      <trkpt lat="45.80913" lon="4.2425">
        <ele>526.121</ele>
        <time>2018-09-24T12:48:39Z</time>
      </trkpt>
      <trkpt lat="45.8092" lon="4.24251">
        <ele>526.833</ele>
        <time>2018-09-24T12:48:45Z</time>
      </trkpt>
      <trkpt lat="45.80926" lon="4.24251">
        <ele>527.089</ele>
        <time>2018-09-24T12:48:50Z</time>
      </trkpt>
      <trkpt lat="45.80934" lon="4.24251">
        <ele>527.417</ele>
        <time>2018-09-24T12:48:56Z</time>
      </trkpt>
      <trkpt lat="45.80941" lon="4.2425">
        <ele>527.779</ele>
        <time>2018-09-24T12:49:02Z</time>
      </trkpt>
      <trkpt lat="45.80949" lon="4.2425">
        <ele>527.921</ele>
        <time>2018-09-24T12:49:08Z</time>
      </trkpt>
      <trkpt lat="45.80954" lon="4.2425">
        <ele>528.334</ele>
        <time>2018-09-24T12:49:13Z</time>
      </trkpt>
      <trkpt lat="45.8096" lon="4.24249">
        <ele>528.776</ele>
        <time>2018-09-24T12:49:19Z</time>
      </trkpt>
      <trkpt lat="45.80967" lon="4.24248">
        <ele>529.149</ele>
        <time>2018-09-24T12:49:25Z</time>
      </trkpt>
      <trkpt lat="45.80972" lon="4.24247">
        <ele>529.471</ele>
        <time>2018-09-24T12:49:30Z</time>
      </trkpt>
      <trkpt lat="45.80979" lon="4.24247">
        <ele>529.749</ele>
        <time>2018-09-24T12:49:36Z</time>
      </trkpt>
      <trkpt lat="45.80986" lon="4.24247">
        <ele>530.022</ele>
        <time>2018-09-24T12:49:41Z</time>
      </trkpt>
      <trkpt lat="45.80993" lon="4.24246">
        <ele>530.226</ele>
        <time>2018-09-24T12:49:47Z</time>
      </trkpt>
      <trkpt lat="45.80998" lon="4.24246">
        <ele>530.644</ele>
        <time>2018-09-24T12:49:52Z</time>
      </trkpt>
      <trkpt lat="45.81004" lon="4.24245">
        <ele>530.992</ele>
        <time>2018-09-24T12:49:58Z</time>
      </trkpt>
      <trkpt lat="45.81011" lon="4.24245">
        <ele>531.376</ele>
        <time>2018-09-24T12:50:03Z</time>
      </trkpt>
      <trkpt lat="45.81017" lon="4.24246">
        <ele>531.706</ele>
        <time>2018-09-24T12:50:08Z</time>
      </trkpt>
      <trkpt lat="45.81023" lon="4.24246">
        <ele>531.917</ele>
        <time>2018-09-24T12:50:14Z</time>
      </trkpt>
      <trkpt lat="45.81027" lon="4.24246">
        <ele>532.289</ele>
        <time>2018-09-24T12:50:19Z</time>
      </trkpt>
      <trkpt lat="45.81033" lon="4.24246">
        <ele>532.396</ele>
        <time>2018-09-24T12:50:24Z</time>
      </trkpt>
      <trkpt lat="45.81039" lon="4.24247">
        <ele>532.35</ele>
        <time>2018-09-24T12:50:30Z</time>
      </trkpt>
      <trkpt lat="45.81047" lon="4.24247">
        <ele>532.269</ele>
        <time>2018-09-24T12:50:36Z</time>
      </trkpt>
      <trkpt lat="45.81054" lon="4.24245">
        <ele>532.301</ele>
        <time>2018-09-24T12:50:42Z</time>
      </trkpt>
      <trkpt lat="45.81062" lon="4.24246">
        <ele>532.32</ele>
        <time>2018-09-24T12:50:48Z</time>
      </trkpt>
      <trkpt lat="45.81067" lon="4.24247">
        <ele>532.854</ele>
        <time>2018-09-24T12:50:53Z</time>
      </trkpt>
      <trkpt lat="45.81074" lon="4.24246">
        <ele>533.294</ele>
        <time>2018-09-24T12:50:59Z</time>
      </trkpt>
      <trkpt lat="45.8108" lon="4.24246">
        <ele>533.87</ele>
        <time>2018-09-24T12:51:05Z</time>
      </trkpt>
      <trkpt lat="45.81087" lon="4.24244">
        <ele>534.363</ele>
        <time>2018-09-24T12:51:10Z</time>
      </trkpt>
      <trkpt lat="45.81095" lon="4.24247">
        <ele>534.631</ele>
        <time>2018-09-24T12:51:16Z</time>
      </trkpt>
      <trkpt lat="45.811" lon="4.24246">
        <ele>534.818</ele>
        <time>2018-09-24T12:51:22Z</time>
      </trkpt>
      <trkpt lat="45.81106" lon="4.24245">
        <ele>534.864</ele>
        <time>2018-09-24T12:51:27Z</time>
      </trkpt>
      <trkpt lat="45.81112" lon="4.24244">
        <ele>534.739</ele>
        <time>2018-09-24T12:51:32Z</time>
      </trkpt>
      <trkpt lat="45.81117" lon="4.24246">
        <ele>534.606</ele>
        <time>2018-09-24T12:51:37Z</time>
      </trkpt>
      <trkpt lat="45.81123" lon="4.24245">
        <ele>534.547</ele>
        <time>2018-09-24T12:51:43Z</time>
      </trkpt>
      <trkpt lat="45.81129" lon="4.24246">
        <ele>534.519</ele>
        <time>2018-09-24T12:51:48Z</time>
      </trkpt>
      <trkpt lat="45.81137" lon="4.24247">
        <ele>534.244</ele>
        <time>2018-09-24T12:51:54Z</time>
      </trkpt>
      <trkpt lat="45.81144" lon="4.24248">
        <ele>534.254</ele>
        <time>2018-09-24T12:52:00Z</time>
      </trkpt>
      <trkpt lat="45.81152" lon="4.24247">
        <ele>534.331</ele>
        <time>2018-09-24T12:52:06Z</time>
      </trkpt>
      <trkpt lat="45.81159" lon="4.24248">
        <ele>534.525</ele>
        <time>2018-09-24T12:52:12Z</time>
      </trkpt>
      <trkpt lat="45.81166" lon="4.24248">
        <ele>534.713</ele>
        <time>2018-09-24T12:52:17Z</time>
      </trkpt>
      <trkpt lat="45.81173" lon="4.24248">
        <ele>535.046</ele>
        <time>2018-09-24T12:52:23Z</time>
      </trkpt>
      <trkpt lat="45.81177" lon="4.24248">
        <ele>535.555</ele>
        <time>2018-09-24T12:52:28Z</time>
      </trkpt>
      <trkpt lat="45.81186" lon="4.24247">
        <ele>536.213</ele>
        <time>2018-09-24T12:52:34Z</time>
      </trkpt>
      <trkpt lat="45.81193" lon="4.24248">
        <ele>536.733</ele>
        <time>2018-09-24T12:52:39Z</time>
      </trkpt>
      <trkpt lat="45.81202" lon="4.24247">
        <ele>537.516</ele>
        <time>2018-09-24T12:52:45Z</time>
      </trkpt>
      <trkpt lat="45.8121" lon="4.24247">
        <ele>538.197</ele>
        <time>2018-09-24T12:52:51Z</time>
      </trkpt>
      <trkpt lat="45.81218" lon="4.24249">
        <ele>538.919</ele>
        <time>2018-09-24T12:52:57Z</time>
      </trkpt>
      <trkpt lat="45.81225" lon="4.24249">
        <ele>538.97</ele>
        <time>2018-09-24T12:53:03Z</time>
      </trkpt>
      <trkpt lat="45.81234" lon="4.2425">
        <ele>539.282</ele>
        <time>2018-09-24T12:53:09Z</time>
      </trkpt>
      <trkpt lat="45.81241" lon="4.24251">
        <ele>539.651</ele>
        <time>2018-09-24T12:53:14Z</time>
      </trkpt>
      <trkpt lat="45.81247" lon="4.24255">
        <ele>539.955</ele>
        <time>2018-09-24T12:53:20Z</time>
      </trkpt>
      <trkpt lat="45.81248" lon="4.24255">
        <ele>540.054</ele>
        <time>2018-09-24T12:53:25Z</time>
      </trkpt>
      <trkpt lat="45.8125" lon="4.24256">
        <ele>540.179</ele>
        <time>2018-09-24T12:53:30Z</time>
      </trkpt>
      <trkpt lat="45.81257" lon="4.24261">
        <ele>540.084</ele>
        <time>2018-09-24T12:53:36Z</time>
      </trkpt>
      <trkpt lat="45.81264" lon="4.24264">
        <ele>540.008</ele>
        <time>2018-09-24T12:53:41Z</time>
      </trkpt>
      <trkpt lat="45.81272" lon="4.24268">
        <ele>539.703</ele>
        <time>2018-09-24T12:53:47Z</time>
      </trkpt>
      <trkpt lat="45.81282" lon="4.24273">
        <ele>539.714</ele>
        <time>2018-09-24T12:53:53Z</time>
      </trkpt>
      <trkpt lat="45.81292" lon="4.24277">
        <ele>539.647</ele>
        <time>2018-09-24T12:53:59Z</time>
      </trkpt>
      <trkpt lat="45.81299" lon="4.24278">
        <ele>539.818</ele>
        <time>2018-09-24T12:54:04Z</time>
      </trkpt>
      <trkpt lat="45.81306" lon="4.24279">
        <ele>539.599</ele>
        <time>2018-09-24T12:54:10Z</time>
      </trkpt>
      <trkpt lat="45.81315" lon="4.24278">
        <ele>539.546</ele>
        <time>2018-09-24T12:54:15Z</time>
      </trkpt>
      <trkpt lat="45.81322" lon="4.24277">
        <ele>539.747</ele>
        <time>2018-09-24T12:54:20Z</time>
      </trkpt>
      <trkpt lat="45.8133" lon="4.24274">
        <ele>539.979</ele>
        <time>2018-09-24T12:54:25Z</time>
      </trkpt>
      <trkpt lat="45.81338" lon="4.24269">
        <ele>540.633</ele>
        <time>2018-09-24T12:54:31Z</time>
      </trkpt>
      <trkpt lat="45.81345" lon="4.24265">
        <ele>540.773</ele>
        <time>2018-09-24T12:54:37Z</time>
      </trkpt>
      <trkpt lat="45.81353" lon="4.24262">
        <ele>541.009</ele>
        <time>2018-09-24T12:54:43Z</time>
      </trkpt>
      <trkpt lat="45.81362" lon="4.24257">
        <ele>541.551</ele>
        <time>2018-09-24T12:54:49Z</time>
      </trkpt>
      <trkpt lat="45.8137" lon="4.24255">
        <ele>542.109</ele>
        <time>2018-09-24T12:54:54Z</time>
      </trkpt>
      <trkpt lat="45.81378" lon="4.24251">
        <ele>542.511</ele>
        <time>2018-09-24T12:55:00Z</time>
      </trkpt>
      <trkpt lat="45.81386" lon="4.24246">
        <ele>543.071</ele>
        <time>2018-09-24T12:55:06Z</time>
      </trkpt>
      <trkpt lat="45.81392" lon="4.24244">
        <ele>544.453</ele>
        <time>2018-09-24T12:55:11Z</time>
      </trkpt>
      <trkpt lat="45.81398" lon="4.24242">
        <ele>545.693</ele>
        <time>2018-09-24T12:55:17Z</time>
      </trkpt>
      <trkpt lat="45.81403" lon="4.24239">
        <ele>546.167</ele>
        <time>2018-09-24T12:55:22Z</time>
      </trkpt>
      <trkpt lat="45.81411" lon="4.24235">
        <ele>546.453</ele>
        <time>2018-09-24T12:55:27Z</time>
      </trkpt>
      <trkpt lat="45.8142" lon="4.24228">
        <ele>546.386</ele>
        <time>2018-09-24T12:55:32Z</time>
      </trkpt>
      <trkpt lat="45.81427" lon="4.24222">
        <ele>546.218</ele>
        <time>2018-09-24T12:55:38Z</time>
      </trkpt>
      <trkpt lat="45.81435" lon="4.24218">
        <ele>546.213</ele>
        <time>2018-09-24T12:55:44Z</time>
      </trkpt>
      <trkpt lat="45.81443" lon="4.24213">
        <ele>546.459</ele>
        <time>2018-09-24T12:55:49Z</time>
      </trkpt>
      <trkpt lat="45.81453" lon="4.24207">
        <ele>546.599</ele>
        <time>2018-09-24T12:55:55Z</time>
      </trkpt>
      <trkpt lat="45.81462" lon="4.24203">
        <ele>546.8</ele>
        <time>2018-09-24T12:56:01Z</time>
      </trkpt>
      <trkpt lat="45.81469" lon="4.24201">
        <ele>547.473</ele>
        <time>2018-09-24T12:56:07Z</time>
      </trkpt>
      <trkpt lat="45.81476" lon="4.24199">
        <ele>547.708</ele>
        <time>2018-09-24T12:56:12Z</time>
      </trkpt>
      <trkpt lat="45.81484" lon="4.24197">
        <ele>548.062</ele>
        <time>2018-09-24T12:56:17Z</time>
      </trkpt>
      <trkpt lat="45.8149" lon="4.24196">
        <ele>548.275</ele>
        <time>2018-09-24T12:56:23Z</time>
      </trkpt>
      <trkpt lat="45.815" lon="4.24195">
        <ele>548.405</ele>
        <time>2018-09-24T12:56:29Z</time>
      </trkpt>
      <trkpt lat="45.81507" lon="4.24191">
        <ele>548.7</ele>
        <time>2018-09-24T12:56:35Z</time>
      </trkpt>
      <trkpt lat="45.81515" lon="4.24189">
        <ele>548.996</ele>
        <time>2018-09-24T12:56:41Z</time>
      </trkpt>
      <trkpt lat="45.81523" lon="4.2419">
        <ele>548.891</ele>
        <time>2018-09-24T12:56:47Z</time>
      </trkpt>
      <trkpt lat="45.81533" lon="4.2419">
        <ele>549.163</ele>
        <time>2018-09-24T12:56:53Z</time>
      </trkpt>
      <trkpt lat="45.81541" lon="4.24191">
        <ele>549.355</ele>
        <time>2018-09-24T12:56:58Z</time>
      </trkpt>
      <trkpt lat="45.8155" lon="4.24189">
        <ele>549.239</ele>
        <time>2018-09-24T12:57:04Z</time>
      </trkpt>
      <trkpt lat="45.81557" lon="4.24188">
        <ele>549.081</ele>
        <time>2018-09-24T12:57:09Z</time>
      </trkpt>
      <trkpt lat="45.81558" lon="4.24184">
        <ele>549.046</ele>
        <time>2018-09-24T12:57:15Z</time>
      </trkpt>
      <trkpt lat="45.81559" lon="4.24184">
        <ele>549.611</ele>
        <time>2018-09-24T12:57:21Z</time>
      </trkpt>
      <trkpt lat="45.8156" lon="4.24184">
        <ele>550.279</ele>
        <time>2018-09-24T12:57:26Z</time>
      </trkpt>
      <trkpt lat="45.81561" lon="4.24182">
        <ele>550.6</ele>
        <time>2018-09-24T12:57:31Z</time>
      </trkpt>
      <trkpt lat="45.81558" lon="4.24181">
        <ele>550.261</ele>
        <time>2018-09-24T12:57:37Z</time>
      </trkpt>
      <trkpt lat="45.81556" lon="4.24181">
        <ele>549.92</ele>
        <time>2018-09-24T12:57:42Z</time>
      </trkpt>
      <trkpt lat="45.81556" lon="4.2418">
        <ele>549.871</ele>
        <time>2018-09-24T12:57:48Z</time>
      </trkpt>
      <trkpt lat="45.81556" lon="4.2418">
        <ele>550.492</ele>
        <time>2018-09-24T12:57:53Z</time>
      </trkpt>
      <trkpt lat="45.81557" lon="4.2418">
        <ele>550.648</ele>
        <time>2018-09-24T12:57:58Z</time>
      </trkpt>
      <trkpt lat="45.81556" lon="4.24184">
        <ele>550.528</ele>
        <time>2018-09-24T12:58:03Z</time>
      </trkpt>
      <trkpt lat="45.81556" lon="4.24186">
        <ele>550.418</ele>
        <time>2018-09-24T12:58:08Z</time>
      </trkpt>
      <trkpt lat="45.81557" lon="4.24188">
        <ele>550.464</ele>
        <time>2018-09-24T12:58:14Z</time>
      </trkpt>
      <trkpt lat="45.81557" lon="4.24186">
        <ele>550.508</ele>
        <time>2018-09-24T12:58:20Z</time>
      </trkpt>
      <trkpt lat="45.81559" lon="4.24183">
        <ele>550.475</ele>
        <time>2018-09-24T12:58:26Z</time>
      </trkpt>
      <trkpt lat="45.8156" lon="4.24182">
        <ele>550.063</ele>
        <time>2018-09-24T12:58:32Z</time>
      </trkpt>
      <trkpt lat="45.81559" lon="4.24182">
        <ele>550.032</ele>
        <time>2018-09-24T12:58:38Z</time>
      </trkpt>
      <trkpt lat="45.81558" lon="4.24183">
        <ele>549.84</ele>
        <time>2018-09-24T12:58:43Z</time>
      </trkpt>
      <trkpt lat="45.81562" lon="4.24183">
        <ele>549.916</ele>
        <time>2018-09-24T12:58:49Z</time>
      </trkpt>
      <trkpt lat="45.8157" lon="4.24183">
        <ele>550.002</ele>
        <time>2018-09-24T12:58:54Z</time>
      </trkpt>
      <trkpt lat="45.81576" lon="4.24184">
        <ele>550.244</ele>
        <time>2018-09-24T12:59:00Z</time>
      </trkpt>
      <trkpt lat="45.81582" lon="4.24182">
        <ele>550.222</ele>
        <time>2018-09-24T12:59:05Z</time>
      </trkpt>
      <trkpt lat="45.81589" lon="4.2418">
        <ele>549.874</ele>
        <time>2018-09-24T12:59:11Z</time>
      </trkpt>
      <trkpt lat="45.81597" lon="4.24178">
        <ele>549.489</ele>
        <time>2018-09-24T12:59:16Z</time>
      </trkpt>
      <trkpt lat="45.81604" lon="4.24179">
        <ele>549.403</ele>
        <time>2018-09-24T12:59:22Z</time>
      </trkpt>
      <trkpt lat="45.81609" lon="4.2418">
        <ele>549.748</ele>
        <time>2018-09-24T12:59:27Z</time>
      </trkpt>
      <trkpt lat="45.81614" lon="4.2418">
        <ele>550.041</ele>
        <time>2018-09-24T12:59:32Z</time>
      </trkpt>
      <trkpt lat="45.81618" lon="4.24178">
        <ele>550.455</ele>
        <time>2018-09-24T12:59:38Z</time>
      </trkpt>
      <trkpt lat="45.81628" lon="4.2418">
        <ele>550.716</ele>
        <time>2018-09-24T12:59:43Z</time>
      </trkpt>
      <trkpt lat="45.81635" lon="4.2418">
        <ele>550.747</ele>
        <time>2018-09-24T12:59:49Z</time>
      </trkpt>
      <trkpt lat="45.8164" lon="4.2418">
        <ele>550.849</ele>
        <time>2018-09-24T12:59:54Z</time>
      </trkpt>
      <trkpt lat="45.81642" lon="4.24181">
        <ele>551.044</ele>
        <time>2018-09-24T13:00:00Z</time>
      </trkpt>
      <trkpt lat="45.81648" lon="4.24183">
        <ele>551.589</ele>
        <time>2018-09-24T13:00:06Z</time>
      </trkpt>
      <trkpt lat="45.81655" lon="4.24185">
        <ele>552.07</ele>
        <time>2018-09-24T13:00:12Z</time>
      </trkpt>
      <trkpt lat="45.81662" lon="4.24187">
        <ele>552.208</ele>
        <time>2018-09-24T13:00:18Z</time>
      </trkpt>
      <trkpt lat="45.81667" lon="4.24188">
        <ele>551.497</ele>
        <time>2018-09-24T13:00:23Z</time>
      </trkpt>
      <trkpt lat="45.81676" lon="4.2419">
        <ele>550.656</ele>
        <time>2018-09-24T13:00:29Z</time>
      </trkpt>
      <trkpt lat="45.81683" lon="4.24191">
        <ele>550.213</ele>
        <time>2018-09-24T13:00:34Z</time>
      </trkpt>
      <trkpt lat="45.8169" lon="4.24194">
        <ele>549.709</ele>
        <time>2018-09-24T13:00:39Z</time>
      </trkpt>
      <trkpt lat="45.81696" lon="4.24195">
        <ele>549.7</ele>
        <time>2018-09-24T13:00:44Z</time>
      </trkpt>
      <trkpt lat="45.81703" lon="4.24195">
        <ele>549.092</ele>
        <time>2018-09-24T13:00:49Z</time>
      </trkpt>
      <trkpt lat="45.81711" lon="4.24192">
        <ele>548.782</ele>
        <time>2018-09-24T13:00:54Z</time>
      </trkpt>
      <trkpt lat="45.81716" lon="4.2419">
        <ele>548.861</ele>
        <time>2018-09-24T13:01:00Z</time>
      </trkpt>
      <trkpt lat="45.81722" lon="4.24188">
        <ele>548.984</ele>
        <time>2018-09-24T13:01:05Z</time>
      </trkpt>
      <trkpt lat="45.81728" lon="4.24188">
        <ele>549.384</ele>
        <time>2018-09-24T13:01:11Z</time>
      </trkpt>
      <trkpt lat="45.81734" lon="4.24188">
        <ele>549.88</ele>
        <time>2018-09-24T13:01:16Z</time>
      </trkpt>
      <trkpt lat="45.81738" lon="4.24189">
        <ele>550.547</ele>
        <time>2018-09-24T13:01:22Z</time>
      </trkpt>
      <trkpt lat="45.81743" lon="4.24189">
        <ele>551.056</ele>
        <time>2018-09-24T13:01:28Z</time>
      </trkpt>
      <trkpt lat="45.81745" lon="4.24188">
        <ele>551.835</ele>
        <time>2018-09-24T13:01:34Z</time>
      </trkpt>
      <trkpt lat="45.81746" lon="4.24184">
        <ele>552.975</ele>
        <time>2018-09-24T13:01:40Z</time>
      </trkpt>
      <trkpt lat="45.81746" lon="4.24185">
        <ele>553.071</ele>
        <time>2018-09-24T13:01:46Z</time>
      </trkpt>
      <trkpt lat="45.81746" lon="4.24186">
        <ele>552.97</ele>
        <time>2018-09-24T13:01:51Z</time>
      </trkpt>
      <trkpt lat="45.81747" lon="4.24186">
        <ele>552.72</ele>
        <time>2018-09-24T13:01:57Z</time>
      </trkpt>
      <trkpt lat="45.81747" lon="4.24187">
        <ele>552.657</ele>
        <time>2018-09-24T13:02:02Z</time>
      </trkpt>
      <trkpt lat="45.81746" lon="4.24186">
        <ele>552.409</ele>
        <time>2018-09-24T13:02:08Z</time>
      </trkpt>
      <trkpt lat="45.81746" lon="4.24187">
        <ele>552.364</ele>
        <time>2018-09-24T13:02:14Z</time>
      </trkpt>
      <trkpt lat="45.81746" lon="4.24188">
        <ele>552.421</ele>
        <time>2018-09-24T13:02:19Z</time>
      </trkpt>
      <trkpt lat="45.81745" lon="4.24187">
        <ele>552.697</ele>
        <time>2018-09-24T13:02:25Z</time>
      </trkpt>
      <trkpt lat="45.81746" lon="4.24187">
        <ele>552.682</ele>
        <time>2018-09-24T13:02:30Z</time>
      </trkpt>
      <trkpt lat="45.81746" lon="4.24187">
        <ele>552.645</ele>
        <time>2018-09-24T13:02:36Z</time>
      </trkpt>
      <trkpt lat="45.81746" lon="4.24189">
        <ele>552.736</ele>
        <time>2018-09-24T13:02:42Z</time>
      </trkpt>
      <trkpt lat="45.81747" lon="4.24189">
        <ele>552.72</ele>
        <time>2018-09-24T13:02:47Z</time>
      </trkpt>
      <trkpt lat="45.81748" lon="4.24191">
        <ele>553.131</ele>
        <time>2018-09-24T13:02:52Z</time>
      </trkpt>
      <trkpt lat="45.81749" lon="4.24192">
        <ele>553.367</ele>
        <time>2018-09-24T13:02:58Z</time>
      </trkpt>
      <trkpt lat="45.81753" lon="4.24195">
        <ele>553.525</ele>
        <time>2018-09-24T13:03:03Z</time>
      </trkpt>
      <trkpt lat="45.81756" lon="4.24199">
        <ele>554.298</ele>
        <time>2018-09-24T13:03:09Z</time>
      </trkpt>
      <trkpt lat="45.8176" lon="4.24202">
        <ele>554.621</ele>
        <time>2018-09-24T13:03:15Z</time>
      </trkpt>
      <trkpt lat="45.81762" lon="4.24204">
        <ele>554.548</ele>
        <time>2018-09-24T13:03:21Z</time>
      </trkpt>
      <trkpt lat="45.81764" lon="4.24207">
        <ele>554.296</ele>
        <time>2018-09-24T13:03:26Z</time>
      </trkpt>
      <trkpt lat="45.81772" lon="4.24219">
        <ele>553.781</ele>
        <time>2018-09-24T13:03:31Z</time>
      </trkpt>
      <trkpt lat="45.81777" lon="4.24222">
        <ele>553.759</ele>
        <time>2018-09-24T13:03:37Z</time>
      </trkpt>
      <trkpt lat="45.81781" lon="4.24225">
        <ele>554.127</ele>
        <time>2018-09-24T13:03:42Z</time>
      </trkpt>
      <trkpt lat="45.81788" lon="4.24231">
        <ele>554.69</ele>
        <time>2018-09-24T13:03:48Z</time>
      </trkpt>
      <trkpt lat="45.81792" lon="4.24235">
        <ele>554.677</ele>
        <time>2018-09-24T13:03:54Z</time>
      </trkpt>
      <trkpt lat="45.81796" lon="4.24242">
        <ele>554.934</ele>
        <time>2018-09-24T13:04:00Z</time>
      </trkpt>
      <trkpt lat="45.818" lon="4.24245">
        <ele>555.047</ele>
        <time>2018-09-24T13:04:06Z</time>
      </trkpt>
      <trkpt lat="45.81804" lon="4.2425">
        <ele>555.29</ele>
        <time>2018-09-24T13:04:12Z</time>
      </trkpt>
      <trkpt lat="45.81807" lon="4.24253">
        <ele>555.481</ele>
        <time>2018-09-24T13:04:17Z</time>
      </trkpt>
      <trkpt lat="45.81812" lon="4.24257">
        <ele>555.524</ele>
        <time>2018-09-24T13:04:22Z</time>
      </trkpt>
      <trkpt lat="45.81816" lon="4.2426">
        <ele>555.558</ele>
        <time>2018-09-24T13:04:28Z</time>
      </trkpt>
      <trkpt lat="45.8182" lon="4.24266">
        <ele>555.952</ele>
        <time>2018-09-24T13:04:34Z</time>
      </trkpt>
      <trkpt lat="45.81825" lon="4.24274">
        <ele>555.841</ele>
        <time>2018-09-24T13:04:40Z</time>
      </trkpt>
      <trkpt lat="45.81829" lon="4.24279">
        <ele>555.731</ele>
        <time>2018-09-24T13:04:45Z</time>
      </trkpt>
      <trkpt lat="45.81835" lon="4.24286">
        <ele>556.294</ele>
        <time>2018-09-24T13:04:51Z</time>
      </trkpt>
      <trkpt lat="45.8184" lon="4.24291">
        <ele>556.568</ele>
        <time>2018-09-24T13:04:56Z</time>
      </trkpt>
      <trkpt lat="45.81843" lon="4.24294">
        <ele>556.996</ele>
        <time>2018-09-24T13:05:01Z</time>
      </trkpt>
      <trkpt lat="45.81847" lon="4.24299">
        <ele>557.267</ele>
        <time>2018-09-24T13:05:07Z</time>
      </trkpt>
      <trkpt lat="45.8185" lon="4.24302">
        <ele>557.725</ele>
        <time>2018-09-24T13:05:12Z</time>
      </trkpt>
      <trkpt lat="45.81853" lon="4.24306">
        <ele>558.189</ele>
        <time>2018-09-24T13:05:18Z</time>
      </trkpt>
      <trkpt lat="45.81858" lon="4.24315">
        <ele>558.126</ele>
        <time>2018-09-24T13:05:23Z</time>
      </trkpt>
      <trkpt lat="45.81862" lon="4.24319">
        <ele>558.205</ele>
        <time>2018-09-24T13:05:28Z</time>
      </trkpt>
      <trkpt lat="45.81866" lon="4.24326">
        <ele>558.611</ele>
        <time>2018-09-24T13:05:34Z</time>
      </trkpt>
      <trkpt lat="45.81872" lon="4.24333">
        <ele>559.164</ele>
        <time>2018-09-24T13:05:40Z</time>
      </trkpt>
      <trkpt lat="45.81876" lon="4.24339">
        <ele>559.372</ele>
        <time>2018-09-24T13:05:46Z</time>
      </trkpt>
      <trkpt lat="45.81881" lon="4.24345">
        <ele>559.405</ele>
        <time>2018-09-24T13:05:52Z</time>
      </trkpt>
      <trkpt lat="45.81885" lon="4.2435">
        <ele>559.282</ele>
        <time>2018-09-24T13:05:57Z</time>
      </trkpt>
      <trkpt lat="45.8189" lon="4.24357">
        <ele>559.451</ele>
        <time>2018-09-24T13:06:03Z</time>
      </trkpt>
      <trkpt lat="45.81896" lon="4.24362">
        <ele>559.609</ele>
        <time>2018-09-24T13:06:08Z</time>
      </trkpt>
      <trkpt lat="45.81901" lon="4.24369">
        <ele>559.601</ele>
        <time>2018-09-24T13:06:14Z</time>
      </trkpt>
      <trkpt lat="45.81904" lon="4.24374">
        <ele>559.681</ele>
        <time>2018-09-24T13:06:19Z</time>
      </trkpt>
      <trkpt lat="45.81909" lon="4.24379">
        <ele>560.089</ele>
        <time>2018-09-24T13:06:24Z</time>
      </trkpt>
      <trkpt lat="45.81915" lon="4.24387">
        <ele>560.433</ele>
        <time>2018-09-24T13:06:30Z</time>
      </trkpt>
      <trkpt lat="45.81919" lon="4.24393">
        <ele>560.605</ele>
        <time>2018-09-24T13:06:35Z</time>
      </trkpt>
      <trkpt lat="45.81923" lon="4.244">
        <ele>560.959</ele>
        <time>2018-09-24T13:06:40Z</time>
      </trkpt>
      <trkpt lat="45.81929" lon="4.24406">
        <ele>561.28</ele>
        <time>2018-09-24T13:06:46Z</time>
      </trkpt>
      <trkpt lat="45.81935" lon="4.24412">
        <ele>561.758</ele>
        <time>2018-09-24T13:06:52Z</time>
      </trkpt>
      <trkpt lat="45.8194" lon="4.24418">
        <ele>561.984</ele>
        <time>2018-09-24T13:06:58Z</time>
      </trkpt>
      <trkpt lat="45.81945" lon="4.24426">
        <ele>561.985</ele>
        <time>2018-09-24T13:07:04Z</time>
      </trkpt>
      <trkpt lat="45.8195" lon="4.2443">
        <ele>562.227</ele>
        <time>2018-09-24T13:07:09Z</time>
      </trkpt>
      <trkpt lat="45.81956" lon="4.24435">
        <ele>562.646</ele>
        <time>2018-09-24T13:07:15Z</time>
      </trkpt>
      <trkpt lat="45.81962" lon="4.24443">
        <ele>563.108</ele>
        <time>2018-09-24T13:07:21Z</time>
      </trkpt>
      <trkpt lat="45.81966" lon="4.24448">
        <ele>563.249</ele>
        <time>2018-09-24T13:07:26Z</time>
      </trkpt>
      <trkpt lat="45.81972" lon="4.24454">
        <ele>563.632</ele>
        <time>2018-09-24T13:07:32Z</time>
      </trkpt>
      <trkpt lat="45.81976" lon="4.2446">
        <ele>564.001</ele>
        <time>2018-09-24T13:07:38Z</time>
      </trkpt>
      <trkpt lat="45.8198" lon="4.24465">
        <ele>564.559</ele>
        <time>2018-09-24T13:07:43Z</time>
      </trkpt>
      <trkpt lat="45.81984" lon="4.24471">
        <ele>565.032</ele>
        <time>2018-09-24T13:07:49Z</time>
      </trkpt>
      <trkpt lat="45.8199" lon="4.24478">
        <ele>565.411</ele>
        <time>2018-09-24T13:07:55Z</time>
      </trkpt>
      <trkpt lat="45.81997" lon="4.24484">
        <ele>565.751</ele>
        <time>2018-09-24T13:08:01Z</time>
      </trkpt>
      <trkpt lat="45.82003" lon="4.24493">
        <ele>566.16</ele>
        <time>2018-09-24T13:08:07Z</time>
      </trkpt>
      <trkpt lat="45.8201" lon="4.24499">
        <ele>566.66</ele>
        <time>2018-09-24T13:08:13Z</time>
      </trkpt>
      <trkpt lat="45.82015" lon="4.24504">
        <ele>567.189</ele>
        <time>2018-09-24T13:08:18Z</time>
      </trkpt>
      <trkpt lat="45.82021" lon="4.24509">
        <ele>567.647</ele>
        <time>2018-09-24T13:08:23Z</time>
      </trkpt>
      <trkpt lat="45.82028" lon="4.24514">
        <ele>568.442</ele>
        <time>2018-09-24T13:08:29Z</time>
      </trkpt>
      <trkpt lat="45.82034" lon="4.24519">
        <ele>568.953</ele>
        <time>2018-09-24T13:08:34Z</time>
      </trkpt>
      <trkpt lat="45.8204" lon="4.24525">
        <ele>569.39</ele>
        <time>2018-09-24T13:08:40Z</time>
      </trkpt>
      <trkpt lat="45.82045" lon="4.24529">
        <ele>569.883</ele>
        <time>2018-09-24T13:08:45Z</time>
      </trkpt>
      <trkpt lat="45.82053" lon="4.24536">
        <ele>570.535</ele>
        <time>2018-09-24T13:08:51Z</time>
      </trkpt>
      <trkpt lat="45.82059" lon="4.24539">
        <ele>571.177</ele>
        <time>2018-09-24T13:08:57Z</time>
      </trkpt>
      <trkpt lat="45.82065" lon="4.24547">
        <ele>571.451</ele>
        <time>2018-09-24T13:09:02Z</time>
      </trkpt>
      <trkpt lat="45.82072" lon="4.24553">
        <ele>571.825</ele>
        <time>2018-09-24T13:09:08Z</time>
      </trkpt>
      <trkpt lat="45.82079" lon="4.24557">
        <ele>572.416</ele>
        <time>2018-09-24T13:09:14Z</time>
      </trkpt>
      <trkpt lat="45.82083" lon="4.24562">
        <ele>572.834</ele>
        <time>2018-09-24T13:09:19Z</time>
      </trkpt>
      <trkpt lat="45.8209" lon="4.24569">
        <ele>573.36</ele>
        <time>2018-09-24T13:09:25Z</time>
      </trkpt>
      <trkpt lat="45.82095" lon="4.24575">
        <ele>573.404</ele>
        <time>2018-09-24T13:09:31Z</time>
      </trkpt>
      <trkpt lat="45.821" lon="4.24581">
        <ele>573.438</ele>
        <time>2018-09-24T13:09:36Z</time>
      </trkpt>
      <trkpt lat="45.82107" lon="4.24589">
        <ele>573.525</ele>
        <time>2018-09-24T13:09:42Z</time>
      </trkpt>
      <trkpt lat="45.82111" lon="4.24595">
        <ele>573.558</ele>
        <time>2018-09-24T13:09:48Z</time>
      </trkpt>
      <trkpt lat="45.82115" lon="4.24599">
        <ele>573.543</ele>
        <time>2018-09-24T13:09:53Z</time>
      </trkpt>
      <trkpt lat="45.82121" lon="4.24605">
        <ele>573.132</ele>
        <time>2018-09-24T13:09:58Z</time>
      </trkpt>
      <trkpt lat="45.82126" lon="4.24612">
        <ele>572.98</ele>
        <time>2018-09-24T13:10:04Z</time>
      </trkpt>
      <trkpt lat="45.82133" lon="4.24618">
        <ele>573.056</ele>
        <time>2018-09-24T13:10:09Z</time>
      </trkpt>
      <trkpt lat="45.82137" lon="4.24623">
        <ele>573.305</ele>
        <time>2018-09-24T13:10:14Z</time>
      </trkpt>
      <trkpt lat="45.82144" lon="4.24631">
        <ele>573.302</ele>
        <time>2018-09-24T13:10:20Z</time>
      </trkpt>
      <trkpt lat="45.82148" lon="4.24636">
        <ele>573.006</ele>
        <time>2018-09-24T13:10:25Z</time>
      </trkpt>
      <trkpt lat="45.82155" lon="4.24644">
        <ele>572.862</ele>
        <time>2018-09-24T13:10:31Z</time>
      </trkpt>
      <trkpt lat="45.82161" lon="4.24651">
        <ele>572.85</ele>
        <time>2018-09-24T13:10:36Z</time>
      </trkpt>
      <trkpt lat="45.82167" lon="4.24656">
        <ele>572.89</ele>
        <time>2018-09-24T13:10:41Z</time>
      </trkpt>
      <trkpt lat="45.82174" lon="4.24664">
        <ele>572.879</ele>
        <time>2018-09-24T13:10:47Z</time>
      </trkpt>
      <trkpt lat="45.82181" lon="4.24671">
        <ele>572.754</ele>
        <time>2018-09-24T13:10:53Z</time>
      </trkpt>
      <trkpt lat="45.82187" lon="4.24679">
        <ele>572.526</ele>
        <time>2018-09-24T13:10:58Z</time>
      </trkpt>
      <trkpt lat="45.82193" lon="4.24685">
        <ele>572.234</ele>
        <time>2018-09-24T13:11:04Z</time>
      </trkpt>
      <trkpt lat="45.82197" lon="4.24689">
        <ele>572.013</ele>
        <time>2018-09-24T13:11:09Z</time>
      </trkpt>
      <trkpt lat="45.82201" lon="4.24692">
        <ele>572.144</ele>
        <time>2018-09-24T13:11:15Z</time>
      </trkpt>
      <trkpt lat="45.82202" lon="4.24691">
        <ele>572.503</ele>
        <time>2018-09-24T13:11:20Z</time>
      </trkpt>
      <trkpt lat="45.82201" lon="4.24691">
        <ele>572.619</ele>
        <time>2018-09-24T13:11:26Z</time>
      </trkpt>
      <trkpt lat="45.82201" lon="4.24691">
        <ele>572.606</ele>
        <time>2018-09-24T13:11:31Z</time>
      </trkpt>
      <trkpt lat="45.82201" lon="4.24691">
        <ele>572.759</ele>
        <time>2018-09-24T13:11:37Z</time>
      </trkpt>
      <trkpt lat="45.82201" lon="4.24691">
        <ele>572.541</ele>
        <time>2018-09-24T13:11:42Z</time>
      </trkpt>
      <trkpt lat="45.82201" lon="4.24692">
        <ele>572.461</ele>
        <time>2018-09-24T13:11:48Z</time>
      </trkpt>
      <trkpt lat="45.82201" lon="4.24693">
        <ele>572.28</ele>
        <time>2018-09-24T13:11:54Z</time>
      </trkpt>
      <trkpt lat="45.82201" lon="4.24693">
        <ele>571.985</ele>
        <time>2018-09-24T13:11:59Z</time>
      </trkpt>
      <trkpt lat="45.82201" lon="4.24694">
        <ele>571.467</ele>
        <time>2018-09-24T13:12:04Z</time>
      </trkpt>
      <trkpt lat="45.822" lon="4.24693">
        <ele>571.222</ele>
        <time>2018-09-24T13:12:10Z</time>
      </trkpt>
      <trkpt lat="45.822" lon="4.24693">
        <ele>570.993</ele>
        <time>2018-09-24T13:12:16Z</time>
      </trkpt>
      <trkpt lat="45.82202" lon="4.24693">
        <ele>570.596</ele>
        <time>2018-09-24T13:12:22Z</time>
      </trkpt>
      <trkpt lat="45.82203" lon="4.24693">
        <ele>570.555</ele>
        <time>2018-09-24T13:12:27Z</time>
      </trkpt>
      <trkpt lat="45.82202" lon="4.24692">
        <ele>570.568</ele>
        <time>2018-09-24T13:12:33Z</time>
      </trkpt>
      <trkpt lat="45.82201" lon="4.24691">
        <ele>570.571</ele>
        <time>2018-09-24T13:12:39Z</time>
      </trkpt>
      <trkpt lat="45.82203" lon="4.24691">
        <ele>570.714</ele>
        <time>2018-09-24T13:12:45Z</time>
      </trkpt>
      <trkpt lat="45.82203" lon="4.2469">
        <ele>570.734</ele>
        <time>2018-09-24T13:12:50Z</time>
      </trkpt>
      <trkpt lat="45.82203" lon="4.2469">
        <ele>570.769</ele>
        <time>2018-09-24T13:12:56Z</time>
      </trkpt>
      <trkpt lat="45.82204" lon="4.2469">
        <ele>570.787</ele>
        <time>2018-09-24T13:13:01Z</time>
      </trkpt>
      <trkpt lat="45.82204" lon="4.24692">
        <ele>570.655</ele>
        <time>2018-09-24T13:13:06Z</time>
      </trkpt>
      <trkpt lat="45.82203" lon="4.24691">
        <ele>570.413</ele>
        <time>2018-09-24T13:13:13Z</time>
      </trkpt>
      <trkpt lat="45.82202" lon="4.2469">
        <ele>570.272</ele>
        <time>2018-09-24T13:13:18Z</time>
      </trkpt>
      <trkpt lat="45.82201" lon="4.24691">
        <ele>570.017</ele>
        <time>2018-09-24T13:13:24Z</time>
      </trkpt>
      <trkpt lat="45.82201" lon="4.24693">
        <ele>570.033</ele>
        <time>2018-09-24T13:13:30Z</time>
      </trkpt>
      <trkpt lat="45.822" lon="4.24701">
        <ele>569.838</ele>
        <time>2018-09-24T13:13:36Z</time>
      </trkpt>
      <trkpt lat="45.822" lon="4.24713">
        <ele>569.761</ele>
        <time>2018-09-24T13:13:42Z</time>
      </trkpt>
      <trkpt lat="45.822" lon="4.24722">
        <ele>569.765</ele>
        <time>2018-09-24T13:13:48Z</time>
      </trkpt>
      <trkpt lat="45.82202" lon="4.2473">
        <ele>569.606</ele>
        <time>2018-09-24T13:13:54Z</time>
      </trkpt>
      <trkpt lat="45.82202" lon="4.24736">
        <ele>569.302</ele>
        <time>2018-09-24T13:13:59Z</time>
      </trkpt>
      <trkpt lat="45.82202" lon="4.24747">
        <ele>568.761</ele>
        <time>2018-09-24T13:14:05Z</time>
      </trkpt>
      <trkpt lat="45.822" lon="4.24754">
        <ele>568.724</ele>
        <time>2018-09-24T13:14:10Z</time>
      </trkpt>
      <trkpt lat="45.822" lon="4.24761">
        <ele>568.599</ele>
        <time>2018-09-24T13:14:15Z</time>
      </trkpt>
      <trkpt lat="45.82199" lon="4.24773">
        <ele>568.463</ele>
        <time>2018-09-24T13:14:21Z</time>
      </trkpt>
      <trkpt lat="45.82198" lon="4.24778">
        <ele>568.089</ele>
        <time>2018-09-24T13:14:26Z</time>
      </trkpt>
      <trkpt lat="45.82196" lon="4.24787">
        <ele>567.379</ele>
        <time>2018-09-24T13:14:31Z</time>
      </trkpt>
      <trkpt lat="45.82194" lon="4.24799">
        <ele>566.429</ele>
        <time>2018-09-24T13:14:37Z</time>
      </trkpt>
      <trkpt lat="45.82192" lon="4.24806">
        <ele>565.506</ele>
        <time>2018-09-24T13:14:42Z</time>
      </trkpt>
      <trkpt lat="45.82189" lon="4.24815">
        <ele>564.34</ele>
        <time>2018-09-24T13:14:48Z</time>
      </trkpt>
      <trkpt lat="45.82185" lon="4.24825">
        <ele>563.337</ele>
        <time>2018-09-24T13:14:53Z</time>
      </trkpt>
      <trkpt lat="45.82182" lon="4.24832">
        <ele>562.509</ele>
        <time>2018-09-24T13:14:59Z</time>
      </trkpt>
      <trkpt lat="45.82179" lon="4.24843">
        <ele>561.876</ele>
        <time>2018-09-24T13:15:05Z</time>
      </trkpt>
      <trkpt lat="45.82178" lon="4.24852">
        <ele>560.899</ele>
        <time>2018-09-24T13:15:11Z</time>
      </trkpt>
      <trkpt lat="45.82177" lon="4.24857">
        <ele>560.03</ele>
        <time>2018-09-24T13:15:17Z</time>
      </trkpt>
      <trkpt lat="45.82177" lon="4.24854">
        <ele>559.438</ele>
        <time>2018-09-24T13:15:23Z</time>
      </trkpt>
      <trkpt lat="45.82176" lon="4.24854">
        <ele>559.094</ele>
        <time>2018-09-24T13:15:29Z</time>
      </trkpt>
      <trkpt lat="45.82175" lon="4.24855">
        <ele>558.386</ele>
        <time>2018-09-24T13:15:35Z</time>
      </trkpt>
      <trkpt lat="45.82174" lon="4.24858">
        <ele>557.79</ele>
        <time>2018-09-24T13:15:40Z</time>
      </trkpt>
      <trkpt lat="45.82171" lon="4.2486">
        <ele>557.557</ele>
        <time>2018-09-24T13:15:45Z</time>
      </trkpt>
      <trkpt lat="45.82165" lon="4.24863">
        <ele>557.219</ele>
        <time>2018-09-24T13:15:51Z</time>
      </trkpt>
      <trkpt lat="45.8216" lon="4.24866">
        <ele>556.48</ele>
        <time>2018-09-24T13:15:57Z</time>
      </trkpt>
      <trkpt lat="45.82152" lon="4.2487">
        <ele>556.008</ele>
        <time>2018-09-24T13:16:03Z</time>
      </trkpt>
      <trkpt lat="45.82146" lon="4.24872">
        <ele>555.41</ele>
        <time>2018-09-24T13:16:08Z</time>
      </trkpt>
      <trkpt lat="45.82139" lon="4.24873">
        <ele>555.01</ele>
        <time>2018-09-24T13:16:14Z</time>
      </trkpt>
      <trkpt lat="45.82133" lon="4.24874">
        <ele>554.984</ele>
        <time>2018-09-24T13:16:19Z</time>
      </trkpt>
      <trkpt lat="45.82127" lon="4.24876">
        <ele>554.715</ele>
        <time>2018-09-24T13:16:24Z</time>
      </trkpt>
      <trkpt lat="45.8212" lon="4.2488">
        <ele>554.28</ele>
        <time>2018-09-24T13:16:30Z</time>
      </trkpt>
      <trkpt lat="45.82114" lon="4.24885">
        <ele>554.103</ele>
        <time>2018-09-24T13:16:36Z</time>
      </trkpt>
      <trkpt lat="45.82109" lon="4.24886">
        <ele>553.794</ele>
        <time>2018-09-24T13:16:41Z</time>
      </trkpt>
      <trkpt lat="45.82108" lon="4.24886">
        <ele>552.785</ele>
        <time>2018-09-24T13:16:46Z</time>
      </trkpt>
      <trkpt lat="45.82107" lon="4.24885">
        <ele>552.556</ele>
        <time>2018-09-24T13:16:51Z</time>
      </trkpt>
      <trkpt lat="45.82107" lon="4.24885">
        <ele>551.831</ele>
        <time>2018-09-24T13:16:57Z</time>
      </trkpt>
      <trkpt lat="45.82103" lon="4.24888">
        <ele>551.274</ele>
        <time>2018-09-24T13:17:03Z</time>
      </trkpt>
      <trkpt lat="45.82095" lon="4.24893">
        <ele>550.918</ele>
        <time>2018-09-24T13:17:09Z</time>
      </trkpt>
      <trkpt lat="45.82088" lon="4.24895">
        <ele>550.8</ele>
        <time>2018-09-24T13:17:14Z</time>
      </trkpt>
      <trkpt lat="45.8208" lon="4.24897">
        <ele>550.378</ele>
        <time>2018-09-24T13:17:20Z</time>
      </trkpt>
      <trkpt lat="45.82075" lon="4.24899">
        <ele>550.227</ele>
        <time>2018-09-24T13:17:25Z</time>
      </trkpt>
      <trkpt lat="45.82068" lon="4.24904">
        <ele>550.04</ele>
        <time>2018-09-24T13:17:31Z</time>
      </trkpt>
      <trkpt lat="45.82062" lon="4.24909">
        <ele>549.567</ele>
        <time>2018-09-24T13:17:36Z</time>
      </trkpt>
      <trkpt lat="45.82055" lon="4.24913">
        <ele>548.745</ele>
        <time>2018-09-24T13:17:42Z</time>
      </trkpt>
      <trkpt lat="45.82048" lon="4.24917">
        <ele>547.981</ele>
        <time>2018-09-24T13:17:47Z</time>
      </trkpt>
      <trkpt lat="45.82041" lon="4.24921">
        <ele>547.253</ele>
        <time>2018-09-24T13:17:52Z</time>
      </trkpt>
      <trkpt lat="45.82035" lon="4.24926">
        <ele>546.668</ele>
        <time>2018-09-24T13:17:58Z</time>
      </trkpt>
      <trkpt lat="45.82028" lon="4.24932">
        <ele>545.705</ele>
        <time>2018-09-24T13:18:04Z</time>
      </trkpt>
      <trkpt lat="45.82023" lon="4.24936">
        <ele>545.158</ele>
        <time>2018-09-24T13:18:09Z</time>
      </trkpt>
      <trkpt lat="45.82017" lon="4.24939">
        <ele>544.826</ele>
        <time>2018-09-24T13:18:15Z</time>
      </trkpt>
      <trkpt lat="45.82009" lon="4.24944">
        <ele>544.46</ele>
        <time>2018-09-24T13:18:20Z</time>
      </trkpt>
      <trkpt lat="45.82003" lon="4.24949">
        <ele>543.624</ele>
        <time>2018-09-24T13:18:26Z</time>
      </trkpt>
      <trkpt lat="45.81997" lon="4.24955">
        <ele>543.07</ele>
        <time>2018-09-24T13:18:31Z</time>
      </trkpt>
      <trkpt lat="45.8199" lon="4.24958">
        <ele>542.098</ele>
        <time>2018-09-24T13:18:37Z</time>
      </trkpt>
      <trkpt lat="45.81984" lon="4.24962">
        <ele>541.179</ele>
        <time>2018-09-24T13:18:43Z</time>
      </trkpt>
      <trkpt lat="45.8198" lon="4.24964">
        <ele>540.321</ele>
        <time>2018-09-24T13:18:48Z</time>
      </trkpt>
      <trkpt lat="45.81975" lon="4.24967">
        <ele>539.22</ele>
        <time>2018-09-24T13:18:54Z</time>
      </trkpt>
      <trkpt lat="45.81969" lon="4.24967">
        <ele>538.611</ele>
        <time>2018-09-24T13:19:00Z</time>
      </trkpt>
      <trkpt lat="45.81964" lon="4.2497">
        <ele>537.793</ele>
        <time>2018-09-24T13:19:06Z</time>
      </trkpt>
      <trkpt lat="45.81956" lon="4.24971">
        <ele>536.799</ele>
        <time>2018-09-24T13:19:12Z</time>
      </trkpt>
      <trkpt lat="45.81951" lon="4.24969">
        <ele>535.768</ele>
        <time>2018-09-24T13:19:18Z</time>
      </trkpt>
      <trkpt lat="45.81943" lon="4.24967">
        <ele>534.66</ele>
        <time>2018-09-24T13:19:24Z</time>
      </trkpt>
      <trkpt lat="45.81936" lon="4.24967">
        <ele>533.437</ele>
        <time>2018-09-24T13:19:30Z</time>
      </trkpt>
      <trkpt lat="45.81929" lon="4.24966">
        <ele>532.705</ele>
        <time>2018-09-24T13:19:36Z</time>
      </trkpt>
      <trkpt lat="45.81924" lon="4.24966">
        <ele>531.94</ele>
        <time>2018-09-24T13:19:42Z</time>
      </trkpt>
      <trkpt lat="45.81917" lon="4.24967">
        <ele>530.603</ele>
        <time>2018-09-24T13:19:48Z</time>
      </trkpt>
      <trkpt lat="45.81911" lon="4.24968">
        <ele>529.436</ele>
        <time>2018-09-24T13:19:53Z</time>
      </trkpt>
      <trkpt lat="45.81904" lon="4.24969">
        <ele>528.206</ele>
        <time>2018-09-24T13:19:59Z</time>
      </trkpt>
      <trkpt lat="45.81898" lon="4.24973">
        <ele>527.446</ele>
        <time>2018-09-24T13:20:04Z</time>
      </trkpt>
      <trkpt lat="45.81897" lon="4.24983">
        <ele>526.93</ele>
        <time>2018-09-24T13:20:10Z</time>
      </trkpt>
      <trkpt lat="45.819" lon="4.24992">
        <ele>526.222</ele>
        <time>2018-09-24T13:20:15Z</time>
      </trkpt>
      <trkpt lat="45.81905" lon="4.24999">
        <ele>525.177</ele>
        <time>2018-09-24T13:20:21Z</time>
      </trkpt>
      <trkpt lat="45.8191" lon="4.25005">
        <ele>524.235</ele>
        <time>2018-09-24T13:20:26Z</time>
      </trkpt>
      <trkpt lat="45.81915" lon="4.25012">
        <ele>523.064</ele>
        <time>2018-09-24T13:20:32Z</time>
      </trkpt>
      <trkpt lat="45.8192" lon="4.25018">
        <ele>522.011</ele>
        <time>2018-09-24T13:20:37Z</time>
      </trkpt>
      <trkpt lat="45.81923" lon="4.25021">
        <ele>520.536</ele>
        <time>2018-09-24T13:20:42Z</time>
      </trkpt>
      <trkpt lat="45.81927" lon="4.25024">
        <ele>519.354</ele>
        <time>2018-09-24T13:20:47Z</time>
      </trkpt>
      <trkpt lat="45.81932" lon="4.25033">
        <ele>518.027</ele>
        <time>2018-09-24T13:20:53Z</time>
      </trkpt>
      <trkpt lat="45.81935" lon="4.25036">
        <ele>516.858</ele>
        <time>2018-09-24T13:20:58Z</time>
      </trkpt>
      <trkpt lat="45.81936" lon="4.2504">
        <ele>515.501</ele>
        <time>2018-09-24T13:21:04Z</time>
      </trkpt>
      <trkpt lat="45.81936" lon="4.2504">
        <ele>515.263</ele>
        <time>2018-09-24T13:21:10Z</time>
      </trkpt>
      <trkpt lat="45.81937" lon="4.2504">
        <ele>514.47</ele>
        <time>2018-09-24T13:21:15Z</time>
      </trkpt>
      <trkpt lat="45.81937" lon="4.2504">
        <ele>514.055</ele>
        <time>2018-09-24T13:21:20Z</time>
      </trkpt>
      <trkpt lat="45.81935" lon="4.25041">
        <ele>513.705</ele>
        <time>2018-09-24T13:21:26Z</time>
      </trkpt>
      <trkpt lat="45.81933" lon="4.2504">
        <ele>513.387</ele>
        <time>2018-09-24T13:21:32Z</time>
      </trkpt>
      <trkpt lat="45.81935" lon="4.25042">
        <ele>513.359</ele>
        <time>2018-09-24T13:21:38Z</time>
      </trkpt>
      <trkpt lat="45.81937" lon="4.25044">
        <ele>513.4</ele>
        <time>2018-09-24T13:21:43Z</time>
      </trkpt>
      <trkpt lat="45.81937" lon="4.25043">
        <ele>513.314</ele>
        <time>2018-09-24T13:21:48Z</time>
      </trkpt>
      <trkpt lat="45.81938" lon="4.25043">
        <ele>513.979</ele>
        <time>2018-09-24T13:21:54Z</time>
      </trkpt>
      <trkpt lat="45.81935" lon="4.25044">
        <ele>514.091</ele>
        <time>2018-09-24T13:22:00Z</time>
      </trkpt>
      <trkpt lat="45.8193" lon="4.25045">
        <ele>514.052</ele>
        <time>2018-09-24T13:22:05Z</time>
      </trkpt>
      <trkpt lat="45.81927" lon="4.25041">
        <ele>514.623</ele>
        <time>2018-09-24T13:22:11Z</time>
      </trkpt>
      <trkpt lat="45.81923" lon="4.25038">
        <ele>515.185</ele>
        <time>2018-09-24T13:22:17Z</time>
      </trkpt>
      <trkpt lat="45.8192" lon="4.25035">
        <ele>515.276</ele>
        <time>2018-09-24T13:22:22Z</time>
      </trkpt>
      <trkpt lat="45.81915" lon="4.2503">
        <ele>515.342</ele>
        <time>2018-09-24T13:22:28Z</time>
      </trkpt>
      <trkpt lat="45.81909" lon="4.25024">
        <ele>514.929</ele>
        <time>2018-09-24T13:22:34Z</time>
      </trkpt>
      <trkpt lat="45.81904" lon="4.25019">
        <ele>514.39</ele>
        <time>2018-09-24T13:22:39Z</time>
      </trkpt>
      <trkpt lat="45.81898" lon="4.25015">
        <ele>513.876</ele>
        <time>2018-09-24T13:22:45Z</time>
      </trkpt>
      <trkpt lat="45.81894" lon="4.25012">
        <ele>513.708</ele>
        <time>2018-09-24T13:22:50Z</time>
      </trkpt>
      <trkpt lat="45.81886" lon="4.25008">
        <ele>513.639</ele>
        <time>2018-09-24T13:22:56Z</time>
      </trkpt>
      <trkpt lat="45.81883" lon="4.25004">
        <ele>513.554</ele>
        <time>2018-09-24T13:23:01Z</time>
      </trkpt>
      <trkpt lat="45.81877" lon="4.24997">
        <ele>513.556</ele>
        <time>2018-09-24T13:23:07Z</time>
      </trkpt>
      <trkpt lat="45.81871" lon="4.24994">
        <ele>513.192</ele>
        <time>2018-09-24T13:23:12Z</time>
      </trkpt>
      <trkpt lat="45.81865" lon="4.2499">
        <ele>512.542</ele>
        <time>2018-09-24T13:23:17Z</time>
      </trkpt>
      <trkpt lat="45.81857" lon="4.24988">
        <ele>511.63</ele>
        <time>2018-09-24T13:23:23Z</time>
      </trkpt>
      <trkpt lat="45.81852" lon="4.24982">
        <ele>511.001</ele>
        <time>2018-09-24T13:23:29Z</time>
      </trkpt>
      <trkpt lat="45.81846" lon="4.24977">
        <ele>511.054</ele>
        <time>2018-09-24T13:23:34Z</time>
      </trkpt>
      <trkpt lat="45.81842" lon="4.24971">
        <ele>510.936</ele>
        <time>2018-09-24T13:23:39Z</time>
      </trkpt>
      <trkpt lat="45.81838" lon="4.24965">
        <ele>510.749</ele>
        <time>2018-09-24T13:23:45Z</time>
      </trkpt>
      <trkpt lat="45.81835" lon="4.24958">
        <ele>510.665</ele>
        <time>2018-09-24T13:23:50Z</time>
      </trkpt>
      <trkpt lat="45.81831" lon="4.24953">
        <ele>510.54</ele>
        <time>2018-09-24T13:23:55Z</time>
      </trkpt>
      <trkpt lat="45.81828" lon="4.24949">
        <ele>510.419</ele>
        <time>2018-09-24T13:24:00Z</time>
      </trkpt>
      <trkpt lat="45.81824" lon="4.24943">
        <ele>510.156</ele>
        <time>2018-09-24T13:24:05Z</time>
      </trkpt>
      <trkpt lat="45.8182" lon="4.2494">
        <ele>509.453</ele>
        <time>2018-09-24T13:24:11Z</time>
      </trkpt>
      <trkpt lat="45.81816" lon="4.24937">
        <ele>508.973</ele>
        <time>2018-09-24T13:24:17Z</time>
      </trkpt>
      <trkpt lat="45.81811" lon="4.2494">
        <ele>508.15</ele>
        <time>2018-09-24T13:24:23Z</time>
      </trkpt>
      <trkpt lat="45.81807" lon="4.24942">
        <ele>507.855</ele>
        <time>2018-09-24T13:24:28Z</time>
      </trkpt>
      <trkpt lat="45.81804" lon="4.24948">
        <ele>506.877</ele>
        <time>2018-09-24T13:24:34Z</time>
      </trkpt>
      <trkpt lat="45.81806" lon="4.24957">
        <ele>506.171</ele>
        <time>2018-09-24T13:24:40Z</time>
      </trkpt>
      <trkpt lat="45.81805" lon="4.24963">
        <ele>505.505</ele>
        <time>2018-09-24T13:24:46Z</time>
      </trkpt>
      <trkpt lat="45.81804" lon="4.24968">
        <ele>504.518</ele>
        <time>2018-09-24T13:24:51Z</time>
      </trkpt>
      <trkpt lat="45.818" lon="4.24973">
        <ele>503.063</ele>
        <time>2018-09-24T13:24:57Z</time>
      </trkpt>
      <trkpt lat="45.81795" lon="4.24981">
        <ele>501.797</ele>
        <time>2018-09-24T13:25:02Z</time>
      </trkpt>
      <trkpt lat="45.81789" lon="4.24985">
        <ele>500.592</ele>
        <time>2018-09-24T13:25:08Z</time>
      </trkpt>
      <trkpt lat="45.81785" lon="4.24985">
        <ele>500.128</ele>
        <time>2018-09-24T13:25:13Z</time>
      </trkpt>
      <trkpt lat="45.81783" lon="4.24985">
        <ele>500.029</ele>
        <time>2018-09-24T13:25:19Z</time>
      </trkpt>
      <trkpt lat="45.8178" lon="4.24988">
        <ele>500.232</ele>
        <time>2018-09-24T13:25:25Z</time>
      </trkpt>
      <trkpt lat="45.81778" lon="4.2499">
        <ele>500.618</ele>
        <time>2018-09-24T13:25:31Z</time>
      </trkpt>
      <trkpt lat="45.81775" lon="4.24988">
        <ele>501.041</ele>
        <time>2018-09-24T13:25:37Z</time>
      </trkpt>
      <trkpt lat="45.81773" lon="4.24987">
        <ele>501.073</ele>
        <time>2018-09-24T13:25:42Z</time>
      </trkpt>
      <trkpt lat="45.81772" lon="4.24985">
        <ele>501.869</ele>
        <time>2018-09-24T13:25:48Z</time>
      </trkpt>
      <trkpt lat="45.81771" lon="4.24983">
        <ele>502.101</ele>
        <time>2018-09-24T13:25:54Z</time>
      </trkpt>
      <trkpt lat="45.8177" lon="4.2498">
        <ele>502.732</ele>
        <time>2018-09-24T13:26:00Z</time>
      </trkpt>
      <trkpt lat="45.81768" lon="4.24978">
        <ele>503.241</ele>
        <time>2018-09-24T13:26:05Z</time>
      </trkpt>
      <trkpt lat="45.81767" lon="4.24978">
        <ele>504.05</ele>
        <time>2018-09-24T13:26:11Z</time>
      </trkpt>
      <trkpt lat="45.81767" lon="4.24981">
        <ele>504.237</ele>
        <time>2018-09-24T13:26:16Z</time>
      </trkpt>
      <trkpt lat="45.81767" lon="4.24981">
        <ele>504.152</ele>
        <time>2018-09-24T13:26:22Z</time>
      </trkpt>
      <trkpt lat="45.81766" lon="4.24981">
        <ele>504.18</ele>
        <time>2018-09-24T13:26:27Z</time>
      </trkpt>
      <trkpt lat="45.81766" lon="4.24977">
        <ele>504.369</ele>
        <time>2018-09-24T13:26:33Z</time>
      </trkpt>
      <trkpt lat="45.81765" lon="4.24973">
        <ele>504.536</ele>
        <time>2018-09-24T13:26:38Z</time>
      </trkpt>
      <trkpt lat="45.81763" lon="4.24973">
        <ele>504.754</ele>
        <time>2018-09-24T13:26:44Z</time>
      </trkpt>
      <trkpt lat="45.81764" lon="4.24975">
        <ele>504.974</ele>
        <time>2018-09-24T13:26:50Z</time>
      </trkpt>
      <trkpt lat="45.81765" lon="4.24973">
        <ele>504.992</ele>
        <time>2018-09-24T13:26:56Z</time>
      </trkpt>
      <trkpt lat="45.81765" lon="4.24972">
        <ele>505.078</ele>
        <time>2018-09-24T13:27:01Z</time>
      </trkpt>
      <trkpt lat="45.81765" lon="4.2497">
        <ele>505.331</ele>
        <time>2018-09-24T13:27:07Z</time>
      </trkpt>
      <trkpt lat="45.81763" lon="4.2497">
        <ele>505.523</ele>
        <time>2018-09-24T13:27:12Z</time>
      </trkpt>
      <trkpt lat="45.81761" lon="4.24969">
        <ele>506.248</ele>
        <time>2018-09-24T13:27:18Z</time>
      </trkpt>
      <trkpt lat="45.81759" lon="4.24967">
        <ele>506.97</ele>
        <time>2018-09-24T13:27:24Z</time>
      </trkpt>
      <trkpt lat="45.81759" lon="4.24967">
        <ele>507.146</ele>
        <time>2018-09-24T13:27:29Z</time>
      </trkpt>
      <trkpt lat="45.81758" lon="4.24966">
        <ele>507.45</ele>
        <time>2018-09-24T13:27:35Z</time>
      </trkpt>
      <trkpt lat="45.81753" lon="4.24965">
        <ele>507.605</ele>
        <time>2018-09-24T13:27:41Z</time>
      </trkpt>
      <trkpt lat="45.81749" lon="4.24962">
        <ele>507.283</ele>
        <time>2018-09-24T13:27:47Z</time>
      </trkpt>
      <trkpt lat="45.81746" lon="4.2496">
        <ele>506.766</ele>
        <time>2018-09-24T13:27:52Z</time>
      </trkpt>
      <trkpt lat="45.81744" lon="4.24959">
        <ele>506.125</ele>
        <time>2018-09-24T13:27:57Z</time>
      </trkpt>
      <trkpt lat="45.8174" lon="4.24956">
        <ele>506.145</ele>
        <time>2018-09-24T13:28:03Z</time>
      </trkpt>
      <trkpt lat="45.81735" lon="4.24952">
        <ele>506.075</ele>
        <time>2018-09-24T13:28:08Z</time>
      </trkpt>
      <trkpt lat="45.81731" lon="4.24947">
        <ele>505.926</ele>
        <time>2018-09-24T13:28:13Z</time>
      </trkpt>
      <trkpt lat="45.81727" lon="4.24944">
        <ele>505.712</ele>
        <time>2018-09-24T13:28:18Z</time>
      </trkpt>
      <trkpt lat="45.81722" lon="4.24941">
        <ele>505.77</ele>
        <time>2018-09-24T13:28:23Z</time>
      </trkpt>
      <trkpt lat="45.81718" lon="4.24938">
        <ele>505.451</ele>
        <time>2018-09-24T13:28:29Z</time>
      </trkpt>
      <trkpt lat="45.81718" lon="4.24937">
        <ele>505.627</ele>
        <time>2018-09-24T13:28:34Z</time>
      </trkpt>
      <trkpt lat="45.81718" lon="4.24939">
        <ele>505.956</ele>
        <time>2018-09-24T13:28:39Z</time>
      </trkpt>
      <trkpt lat="45.81718" lon="4.24937">
        <ele>507.085</ele>
        <time>2018-09-24T13:28:45Z</time>
      </trkpt>
      <trkpt lat="45.81711" lon="4.24925">
        <ele>507.823</ele>
        <time>2018-09-24T13:28:51Z</time>
      </trkpt>
      <trkpt lat="45.81706" lon="4.24915">
        <ele>508.451</ele>
        <time>2018-09-24T13:28:56Z</time>
      </trkpt>
      <trkpt lat="45.81705" lon="4.24909">
        <ele>509.345</ele>
        <time>2018-09-24T13:29:02Z</time>
      </trkpt>
      <trkpt lat="45.81707" lon="4.24907">
        <ele>510.049</ele>
        <time>2018-09-24T13:29:07Z</time>
      </trkpt>
      <trkpt lat="45.81704" lon="4.24902">
        <ele>510.925</ele>
        <time>2018-09-24T13:29:13Z</time>
      </trkpt>
      <trkpt lat="45.81701" lon="4.24893">
        <ele>511.606</ele>
        <time>2018-09-24T13:29:19Z</time>
      </trkpt>
      <trkpt lat="45.81698" lon="4.24883">
        <ele>512.165</ele>
        <time>2018-09-24T13:29:25Z</time>
      </trkpt>
      <trkpt lat="45.81698" lon="4.24874">
        <ele>512.671</ele>
        <time>2018-09-24T13:29:31Z</time>
      </trkpt>
      <trkpt lat="45.81694" lon="4.24862">
        <ele>513.536</ele>
        <time>2018-09-24T13:29:37Z</time>
      </trkpt>
      <trkpt lat="45.81693" lon="4.24855">
        <ele>514.542</ele>
        <time>2018-09-24T13:29:43Z</time>
      </trkpt>
      <trkpt lat="45.81694" lon="4.24849">
        <ele>515.606</ele>
        <time>2018-09-24T13:29:49Z</time>
      </trkpt>
      <trkpt lat="45.81691" lon="4.24842">
        <ele>516.708</ele>
        <time>2018-09-24T13:29:54Z</time>
      </trkpt>
      <trkpt lat="45.81689" lon="4.24835">
        <ele>517.568</ele>
        <time>2018-09-24T13:29:59Z</time>
      </trkpt>
      <trkpt lat="45.81685" lon="4.24826">
        <ele>518.551</ele>
        <time>2018-09-24T13:30:05Z</time>
      </trkpt>
      <trkpt lat="45.81682" lon="4.24816">
        <ele>519.298</ele>
        <time>2018-09-24T13:30:10Z</time>
      </trkpt>
      <trkpt lat="45.8168" lon="4.24807">
        <ele>520.355</ele>
        <time>2018-09-24T13:30:16Z</time>
      </trkpt>
      <trkpt lat="45.81678" lon="4.24805">
        <ele>521.106</ele>
        <time>2018-09-24T13:30:21Z</time>
      </trkpt>
      <trkpt lat="45.81674" lon="4.24805">
        <ele>521.852</ele>
        <time>2018-09-24T13:30:26Z</time>
      </trkpt>
      <trkpt lat="45.81672" lon="4.24804">
        <ele>522.481</ele>
        <time>2018-09-24T13:30:31Z</time>
      </trkpt>
      <trkpt lat="45.81672" lon="4.248">
        <ele>523.122</ele>
        <time>2018-09-24T13:30:36Z</time>
      </trkpt>
      <trkpt lat="45.81671" lon="4.24798">
        <ele>523.34</ele>
        <time>2018-09-24T13:30:42Z</time>
      </trkpt>
      <trkpt lat="45.81672" lon="4.24796">
        <ele>523.629</ele>
        <time>2018-09-24T13:30:47Z</time>
      </trkpt>
      <trkpt lat="45.81672" lon="4.24798">
        <ele>523.936</ele>
        <time>2018-09-24T13:30:53Z</time>
      </trkpt>
      <trkpt lat="45.81673" lon="4.248">
        <ele>524.026</ele>
        <time>2018-09-24T13:30:58Z</time>
      </trkpt>
      <trkpt lat="45.81671" lon="4.24802">
        <ele>523.615</ele>
        <time>2018-09-24T13:31:04Z</time>
      </trkpt>
      <trkpt lat="45.81671" lon="4.24801">
        <ele>523.355</ele>
        <time>2018-09-24T13:31:09Z</time>
      </trkpt>
      <trkpt lat="45.81673" lon="4.24802">
        <ele>523.244</ele>
        <time>2018-09-24T13:31:15Z</time>
      </trkpt>
      <trkpt lat="45.81673" lon="4.248">
        <ele>523.307</ele>
        <time>2018-09-24T13:31:20Z</time>
      </trkpt>
      <trkpt lat="45.81674" lon="4.24798">
        <ele>523.411</ele>
        <time>2018-09-24T13:31:26Z</time>
      </trkpt>
      <trkpt lat="45.81674" lon="4.24797">
        <ele>523.503</ele>
        <time>2018-09-24T13:31:32Z</time>
      </trkpt>
      <trkpt lat="45.81674" lon="4.24796">
        <ele>523.79</ele>
        <time>2018-09-24T13:31:37Z</time>
      </trkpt>
      <trkpt lat="45.81673" lon="4.24795">
        <ele>524.832</ele>
        <time>2018-09-24T13:31:44Z</time>
      </trkpt>
      <trkpt lat="45.81674" lon="4.24795">
        <ele>525.736</ele>
        <time>2018-09-24T13:31:49Z</time>
      </trkpt>
      <trkpt lat="45.81673" lon="4.24795">
        <ele>526.01</ele>
        <time>2018-09-24T13:31:55Z</time>
      </trkpt>
      <trkpt lat="45.81673" lon="4.24794">
        <ele>526.447</ele>
        <time>2018-09-24T13:32:01Z</time>
      </trkpt>
      <trkpt lat="45.81671" lon="4.24791">
        <ele>527.076</ele>
        <time>2018-09-24T13:32:06Z</time>
      </trkpt>
      <trkpt lat="45.8167" lon="4.24787">
        <ele>527.833</ele>
        <time>2018-09-24T13:32:12Z</time>
      </trkpt>
      <trkpt lat="45.81667" lon="4.24784">
        <ele>528.423</ele>
        <time>2018-09-24T13:32:17Z</time>
      </trkpt>
      <trkpt lat="45.81664" lon="4.24779">
        <ele>528.766</ele>
        <time>2018-09-24T13:32:23Z</time>
      </trkpt>
      <trkpt lat="45.81661" lon="4.24779">
        <ele>528.745</ele>
        <time>2018-09-24T13:32:28Z</time>
      </trkpt>
      <trkpt lat="45.81653" lon="4.2477">
        <ele>528.572</ele>
        <time>2018-09-24T13:32:34Z</time>
      </trkpt>
      <trkpt lat="45.81648" lon="4.24767">
        <ele>528.093</ele>
        <time>2018-09-24T13:32:39Z</time>
      </trkpt>
      <trkpt lat="45.81642" lon="4.24766">
        <ele>528.037</ele>
        <time>2018-09-24T13:32:45Z</time>
      </trkpt>
      <trkpt lat="45.81639" lon="4.24762">
        <ele>528.025</ele>
        <time>2018-09-24T13:32:50Z</time>
      </trkpt>
      <trkpt lat="45.81634" lon="4.24757">
        <ele>528.227</ele>
        <time>2018-09-24T13:32:55Z</time>
      </trkpt>
      <trkpt lat="45.81629" lon="4.24751">
        <ele>528.133</ele>
        <time>2018-09-24T13:33:01Z</time>
      </trkpt>
      <trkpt lat="45.81623" lon="4.24749">
        <ele>528.153</ele>
        <time>2018-09-24T13:33:06Z</time>
      </trkpt>
      <trkpt lat="45.81613" lon="4.24742">
        <ele>528.27</ele>
        <time>2018-09-24T13:33:12Z</time>
      </trkpt>
      <trkpt lat="45.81608" lon="4.2474">
        <ele>528.478</ele>
        <time>2018-09-24T13:33:18Z</time>
      </trkpt>
      <trkpt lat="45.816" lon="4.24734">
        <ele>528.17</ele>
        <time>2018-09-24T13:33:24Z</time>
      </trkpt>
      <trkpt lat="45.81593" lon="4.24728">
        <ele>527.944</ele>
        <time>2018-09-24T13:33:29Z</time>
      </trkpt>
      <trkpt lat="45.81589" lon="4.24726">
        <ele>527.867</ele>
        <time>2018-09-24T13:33:35Z</time>
      </trkpt>
      <trkpt lat="45.81582" lon="4.24724">
        <ele>527.779</ele>
        <time>2018-09-24T13:33:40Z</time>
      </trkpt>
      <trkpt lat="45.81575" lon="4.24722">
        <ele>527.586</ele>
        <time>2018-09-24T13:33:46Z</time>
      </trkpt>
      <trkpt lat="45.81569" lon="4.24718">
        <ele>527.333</ele>
        <time>2018-09-24T13:33:51Z</time>
      </trkpt>
      <trkpt lat="45.81561" lon="4.24714">
        <ele>527.263</ele>
        <time>2018-09-24T13:33:57Z</time>
      </trkpt>
      <trkpt lat="45.81555" lon="4.24711">
        <ele>527.066</ele>
        <time>2018-09-24T13:34:02Z</time>
      </trkpt>
      <trkpt lat="45.81547" lon="4.24708">
        <ele>526.761</ele>
        <time>2018-09-24T13:34:07Z</time>
      </trkpt>
      <trkpt lat="45.81543" lon="4.2471">
        <ele>526.911</ele>
        <time>2018-09-24T13:34:13Z</time>
      </trkpt>
      <trkpt lat="45.81539" lon="4.24708">
        <ele>526.827</ele>
        <time>2018-09-24T13:34:18Z</time>
      </trkpt>
      <trkpt lat="45.81531" lon="4.24708">
        <ele>526.488</ele>
        <time>2018-09-24T13:34:23Z</time>
      </trkpt>
      <trkpt lat="45.81525" lon="4.24707">
        <ele>526.09</ele>
        <time>2018-09-24T13:34:29Z</time>
      </trkpt>
      <trkpt lat="45.81519" lon="4.24707">
        <ele>525.111</ele>
        <time>2018-09-24T13:34:34Z</time>
      </trkpt>
      <trkpt lat="45.81516" lon="4.24712">
        <ele>524.161</ele>
        <time>2018-09-24T13:34:39Z</time>
      </trkpt>
      <trkpt lat="45.81509" lon="4.24715">
        <ele>523.152</ele>
        <time>2018-09-24T13:34:45Z</time>
      </trkpt>
      <trkpt lat="45.81505" lon="4.24718">
        <ele>521.789</ele>
        <time>2018-09-24T13:34:52Z</time>
      </trkpt>
      <trkpt lat="45.81499" lon="4.24719">
        <ele>520.716</ele>
        <time>2018-09-24T13:34:57Z</time>
      </trkpt>
      <trkpt lat="45.81491" lon="4.24718">
        <ele>519.393</ele>
        <time>2018-09-24T13:35:03Z</time>
      </trkpt>
      <trkpt lat="45.81483" lon="4.2472">
        <ele>518.71</ele>
        <time>2018-09-24T13:35:08Z</time>
      </trkpt>
      <trkpt lat="45.81478" lon="4.2472">
        <ele>518.071</ele>
        <time>2018-09-24T13:35:13Z</time>
      </trkpt>
      <trkpt lat="45.81474" lon="4.24719">
        <ele>516.954</ele>
        <time>2018-09-24T13:35:19Z</time>
      </trkpt>
      <trkpt lat="45.81469" lon="4.24716">
        <ele>515.651</ele>
        <time>2018-09-24T13:35:24Z</time>
      </trkpt>
      <trkpt lat="45.81466" lon="4.24715">
        <ele>514.596</ele>
        <time>2018-09-24T13:35:29Z</time>
      </trkpt>
      <trkpt lat="45.81458" lon="4.24718">
        <ele>514.173</ele>
        <time>2018-09-24T13:35:34Z</time>
      </trkpt>
      <trkpt lat="45.81452" lon="4.24719">
        <ele>514.076</ele>
        <time>2018-09-24T13:35:40Z</time>
      </trkpt>
      <trkpt lat="45.81449" lon="4.24717">
        <ele>514.077</ele>
        <time>2018-09-24T13:35:46Z</time>
      </trkpt>
      <trkpt lat="45.81448" lon="4.24715">
        <ele>514.269</ele>
        <time>2018-09-24T13:35:52Z</time>
      </trkpt>
      <trkpt lat="45.81449" lon="4.24715">
        <ele>514.194</ele>
        <time>2018-09-24T13:35:58Z</time>
      </trkpt>
      <trkpt lat="45.81451" lon="4.24715">
        <ele>514.205</ele>
        <time>2018-09-24T13:36:04Z</time>
      </trkpt>
      <trkpt lat="45.81452" lon="4.24716">
        <ele>514.048</ele>
        <time>2018-09-24T13:36:10Z</time>
      </trkpt>
      <trkpt lat="45.81453" lon="4.24715">
        <ele>513.947</ele>
        <time>2018-09-24T13:36:15Z</time>
      </trkpt>
      <trkpt lat="45.8145" lon="4.24715">
        <ele>513.285</ele>
        <time>2018-09-24T13:36:21Z</time>
      </trkpt>
      <trkpt lat="45.81444" lon="4.24715">
        <ele>512.99</ele>
        <time>2018-09-24T13:36:27Z</time>
      </trkpt>
      <trkpt lat="45.81437" lon="4.24716">
        <ele>512.467</ele>
        <time>2018-09-24T13:36:33Z</time>
      </trkpt>
      <trkpt lat="45.8143" lon="4.24718">
        <ele>512.472</ele>
        <time>2018-09-24T13:36:38Z</time>
      </trkpt>
      <trkpt lat="45.81422" lon="4.24721">
        <ele>512.506</ele>
        <time>2018-09-24T13:36:44Z</time>
      </trkpt>
      <trkpt lat="45.81419" lon="4.24724">
        <ele>512.616</ele>
        <time>2018-09-24T13:36:49Z</time>
      </trkpt>
      <trkpt lat="45.81418" lon="4.24727">
        <ele>512.468</ele>
        <time>2018-09-24T13:36:55Z</time>
      </trkpt>
      <trkpt lat="45.81417" lon="4.24725">
        <ele>512.344</ele>
        <time>2018-09-24T13:37:00Z</time>
      </trkpt>
      <trkpt lat="45.81418" lon="4.24725">
        <ele>512.791</ele>
        <time>2018-09-24T13:37:06Z</time>
      </trkpt>
      <trkpt lat="45.8142" lon="4.2472">
        <ele>513.175</ele>
        <time>2018-09-24T13:37:11Z</time>
      </trkpt>
      <trkpt lat="45.81426" lon="4.24712">
        <ele>512.869</ele>
        <time>2018-09-24T13:37:17Z</time>
      </trkpt>
      <trkpt lat="45.81431" lon="4.24705">
        <ele>512.242</ele>
        <time>2018-09-24T13:37:22Z</time>
      </trkpt>
      <trkpt lat="45.81435" lon="4.24702">
        <ele>511.483</ele>
        <time>2018-09-24T13:37:28Z</time>
      </trkpt>
      <trkpt lat="45.81437" lon="4.24702">
        <ele>510.819</ele>
        <time>2018-09-24T13:37:34Z</time>
      </trkpt>
      <trkpt lat="45.81439" lon="4.24699">
        <ele>510.143</ele>
        <time>2018-09-24T13:37:39Z</time>
      </trkpt>
      <trkpt lat="45.81437" lon="4.24698">
        <ele>509.674</ele>
        <time>2018-09-24T13:37:44Z</time>
      </trkpt>
      <trkpt lat="45.81435" lon="4.24701">
        <ele>509.341</ele>
        <time>2018-09-24T13:37:49Z</time>
      </trkpt>
      <trkpt lat="45.81431" lon="4.24699">
        <ele>508.381</ele>
        <time>2018-09-24T13:37:55Z</time>
      </trkpt>
      <trkpt lat="45.81429" lon="4.247">
        <ele>507.174</ele>
        <time>2018-09-24T13:38:00Z</time>
      </trkpt>
      <trkpt lat="45.81425" lon="4.24701">
        <ele>505.896</ele>
        <time>2018-09-24T13:38:06Z</time>
      </trkpt>
      <trkpt lat="45.81423" lon="4.24697">
        <ele>505.295</ele>
        <time>2018-09-24T13:38:11Z</time>
      </trkpt>
      <trkpt lat="45.81422" lon="4.24698">
        <ele>504.865</ele>
        <time>2018-09-24T13:38:17Z</time>
      </trkpt>
      <trkpt lat="45.81418" lon="4.24696">
        <ele>504.77</ele>
        <time>2018-09-24T13:38:22Z</time>
      </trkpt>
      <trkpt lat="45.8141" lon="4.24692">
        <ele>504.57</ele>
        <time>2018-09-24T13:38:28Z</time>
      </trkpt>
      <trkpt lat="45.81405" lon="4.24693">
        <ele>504.006</ele>
        <time>2018-09-24T13:38:34Z</time>
      </trkpt>
      <trkpt lat="45.814" lon="4.24694">
        <ele>503.295</ele>
        <time>2018-09-24T13:38:39Z</time>
      </trkpt>
      <trkpt lat="45.81391" lon="4.24694">
        <ele>503.096</ele>
        <time>2018-09-24T13:38:44Z</time>
      </trkpt>
      <trkpt lat="45.81381" lon="4.24692">
        <ele>502.334</ele>
        <time>2018-09-24T13:38:50Z</time>
      </trkpt>
      <trkpt lat="45.81375" lon="4.24689">
        <ele>501.196</ele>
        <time>2018-09-24T13:38:56Z</time>
      </trkpt>
      <trkpt lat="45.8137" lon="4.24689">
        <ele>500.021</ele>
        <time>2018-09-24T13:39:02Z</time>
      </trkpt>
      <trkpt lat="45.81362" lon="4.24686">
        <ele>498.764</ele>
        <time>2018-09-24T13:39:08Z</time>
      </trkpt>
      <trkpt lat="45.81355" lon="4.24685">
        <ele>497.634</ele>
        <time>2018-09-24T13:39:14Z</time>
      </trkpt>
      <trkpt lat="45.81346" lon="4.24682">
        <ele>496.435</ele>
        <time>2018-09-24T13:39:21Z</time>
      </trkpt>
      <trkpt lat="45.81342" lon="4.24682">
        <ele>495.106</ele>
        <time>2018-09-24T13:39:27Z</time>
      </trkpt>
      <trkpt lat="45.81338" lon="4.24681">
        <ele>494.048</ele>
        <time>2018-09-24T13:39:32Z</time>
      </trkpt>
      <trkpt lat="45.81333" lon="4.24678">
        <ele>492.45</ele>
        <time>2018-09-24T13:39:38Z</time>
      </trkpt>
      <trkpt lat="45.81329" lon="4.24678">
        <ele>491.572</ele>
        <time>2018-09-24T13:39:44Z</time>
      </trkpt>
      <trkpt lat="45.81318" lon="4.24674">
        <ele>490.852</ele>
        <time>2018-09-24T13:39:50Z</time>
      </trkpt>
      <trkpt lat="45.81312" lon="4.24675">
        <ele>490.486</ele>
        <time>2018-09-24T13:39:55Z</time>
      </trkpt>
      <trkpt lat="45.81307" lon="4.24674">
        <ele>490.494</ele>
        <time>2018-09-24T13:40:00Z</time>
      </trkpt>
      <trkpt lat="45.81298" lon="4.24671">
        <ele>490.078</ele>
        <time>2018-09-24T13:40:06Z</time>
      </trkpt>
      <trkpt lat="45.81288" lon="4.24672">
        <ele>489.414</ele>
        <time>2018-09-24T13:40:12Z</time>
      </trkpt>
      <trkpt lat="45.8128" lon="4.24678">
        <ele>488.318</ele>
        <time>2018-09-24T13:40:18Z</time>
      </trkpt>
      <trkpt lat="45.81276" lon="4.24684">
        <ele>487.242</ele>
        <time>2018-09-24T13:40:23Z</time>
      </trkpt>
      <trkpt lat="45.81268" lon="4.24686">
        <ele>485.938</ele>
        <time>2018-09-24T13:40:29Z</time>
      </trkpt>
      <trkpt lat="45.8126" lon="4.24686">
        <ele>485.015</ele>
        <time>2018-09-24T13:40:34Z</time>
      </trkpt>
      <trkpt lat="45.81251" lon="4.24687">
        <ele>483.894</ele>
        <time>2018-09-24T13:40:40Z</time>
      </trkpt>
      <trkpt lat="45.81243" lon="4.24689">
        <ele>483.301</ele>
        <time>2018-09-24T13:40:45Z</time>
      </trkpt>
      <trkpt lat="45.81237" lon="4.24695">
        <ele>482.581</ele>
        <time>2018-09-24T13:40:51Z</time>
      </trkpt>
      <trkpt lat="45.81231" lon="4.24699">
        <ele>481.902</ele>
        <time>2018-09-24T13:40:56Z</time>
      </trkpt>
      <trkpt lat="45.81225" lon="4.24703">
        <ele>480.856</ele>
        <time>2018-09-24T13:41:01Z</time>
      </trkpt>
      <trkpt lat="45.81218" lon="4.24703">
        <ele>479.077</ele>
        <time>2018-09-24T13:41:07Z</time>
      </trkpt>
      <trkpt lat="45.81208" lon="4.24704">
        <ele>477.542</ele>
        <time>2018-09-24T13:41:13Z</time>
      </trkpt>
      <trkpt lat="45.812" lon="4.24708">
        <ele>476.549</ele>
        <time>2018-09-24T13:41:18Z</time>
      </trkpt>
      <trkpt lat="45.81193" lon="4.2471">
        <ele>476.465</ele>
        <time>2018-09-24T13:41:24Z</time>
      </trkpt>
      <trkpt lat="45.81186" lon="4.24713">
        <ele>476.583</ele>
        <time>2018-09-24T13:41:30Z</time>
      </trkpt>
      <trkpt lat="45.81175" lon="4.24719">
        <ele>476.292</ele>
        <time>2018-09-24T13:41:36Z</time>
      </trkpt>
      <trkpt lat="45.81169" lon="4.24721">
        <ele>474.966</ele>
        <time>2018-09-24T13:41:42Z</time>
      </trkpt>
      <trkpt lat="45.81163" lon="4.24724">
        <ele>473.842</ele>
        <time>2018-09-24T13:41:48Z</time>
      </trkpt>
      <trkpt lat="45.81153" lon="4.24726">
        <ele>473.748</ele>
        <time>2018-09-24T13:41:54Z</time>
      </trkpt>
      <trkpt lat="45.81147" lon="4.24731">
        <ele>473.938</ele>
        <time>2018-09-24T13:42:00Z</time>
      </trkpt>
      <trkpt lat="45.81145" lon="4.24732">
        <ele>473.942</ele>
        <time>2018-09-24T13:42:05Z</time>
      </trkpt>
      <trkpt lat="45.81145" lon="4.24731">
        <ele>473.837</ele>
        <time>2018-09-24T13:42:10Z</time>
      </trkpt>
      <trkpt lat="45.81145" lon="4.24731">
        <ele>474.578</ele>
        <time>2018-09-24T13:42:16Z</time>
      </trkpt>
      <trkpt lat="45.81145" lon="4.24731">
        <ele>474.759</ele>
        <time>2018-09-24T13:42:22Z</time>
      </trkpt>
      <trkpt lat="45.81145" lon="4.24731">
        <ele>474.879</ele>
        <time>2018-09-24T13:42:27Z</time>
      </trkpt>
      <trkpt lat="45.81145" lon="4.24731">
        <ele>475.013</ele>
        <time>2018-09-24T13:42:33Z</time>
      </trkpt>
      <trkpt lat="45.81145" lon="4.24731">
        <ele>475.525</ele>
        <time>2018-09-24T13:42:39Z</time>
      </trkpt>
      <trkpt lat="45.81145" lon="4.24731">
        <ele>475.512</ele>
        <time>2018-09-24T13:42:45Z</time>
      </trkpt>
      <trkpt lat="45.81145" lon="4.24731">
        <ele>475.557</ele>
        <time>2018-09-24T13:42:51Z</time>
      </trkpt>
      <trkpt lat="45.81145" lon="4.24731">
        <ele>475.601</ele>
        <time>2018-09-24T13:42:57Z</time>
      </trkpt>
      <trkpt lat="45.81145" lon="4.24731">
        <ele>475.592</ele>
        <time>2018-09-24T13:43:02Z</time>
      </trkpt>
      <trkpt lat="45.81145" lon="4.24731">
        <ele>475.425</ele>
        <time>2018-09-24T13:43:08Z</time>
      </trkpt>
      <trkpt lat="45.81145" lon="4.24731">
        <ele>475.938</ele>
        <time>2018-09-24T13:43:14Z</time>
      </trkpt>
      <trkpt lat="45.81145" lon="4.24731">
        <ele>476.571</ele>
        <time>2018-09-24T13:43:19Z</time>
      </trkpt>
      <trkpt lat="45.81143" lon="4.2473">
        <ele>476.864</ele>
        <time>2018-09-24T13:43:25Z</time>
      </trkpt>
      <trkpt lat="45.81142" lon="4.2473">
        <ele>476.942</ele>
        <time>2018-09-24T13:43:30Z</time>
      </trkpt>
      <trkpt lat="45.81142" lon="4.2473">
        <ele>477.032</ele>
        <time>2018-09-24T13:43:35Z</time>
      </trkpt>
      <trkpt lat="45.81142" lon="4.2473">
        <ele>477.098</ele>
        <time>2018-09-24T13:43:41Z</time>
      </trkpt>
      <trkpt lat="45.81142" lon="4.2473">
        <ele>477.136</ele>
        <time>2018-09-24T13:43:47Z</time>
      </trkpt>
      <trkpt lat="45.81142" lon="4.2473">
        <ele>477.643</ele>
        <time>2018-09-24T13:43:53Z</time>
      </trkpt>
      <trkpt lat="45.81139" lon="4.2473">
        <ele>477.747</ele>
        <time>2018-09-24T13:43:59Z</time>
      </trkpt>
      <trkpt lat="45.8114" lon="4.24731">
        <ele>477.835</ele>
        <time>2018-09-24T13:44:04Z</time>
      </trkpt>
      <trkpt lat="45.8114" lon="4.2473">
        <ele>477.913</ele>
        <time>2018-09-24T13:44:09Z</time>
      </trkpt>
      <trkpt lat="45.8114" lon="4.2473">
        <ele>477.871</ele>
        <time>2018-09-24T13:44:15Z</time>
      </trkpt>
      <trkpt lat="45.8114" lon="4.2473">
        <ele>478.06</ele>
        <time>2018-09-24T13:44:21Z</time>
      </trkpt>
      <trkpt lat="45.8114" lon="4.2473">
        <ele>478.2</ele>
        <time>2018-09-24T13:44:26Z</time>
      </trkpt>
      <trkpt lat="45.8114" lon="4.2473">
        <ele>478.33</ele>
        <time>2018-09-24T13:44:31Z</time>
      </trkpt>
      <trkpt lat="45.8114" lon="4.2473">
        <ele>478.363</ele>
        <time>2018-09-24T13:44:37Z</time>
      </trkpt>
      <trkpt lat="45.8114" lon="4.2473">
        <ele>478.317</ele>
        <time>2018-09-24T13:44:43Z</time>
      </trkpt>
      <trkpt lat="45.8114" lon="4.2473">
        <ele>478.392</ele>
        <time>2018-09-24T13:44:48Z</time>
      </trkpt>
      <trkpt lat="45.8114" lon="4.2473">
        <ele>478.522</ele>
        <time>2018-09-24T13:44:54Z</time>
      </trkpt>
      <trkpt lat="45.8114" lon="4.2473">
        <ele>478.564</ele>
        <time>2018-09-24T13:45:00Z</time>
      </trkpt>
      <trkpt lat="45.8114" lon="4.2473">
        <ele>478.563</ele>
        <time>2018-09-24T13:45:06Z</time>
      </trkpt>
      <trkpt lat="45.8114" lon="4.2473">
        <ele>478.627</ele>
        <time>2018-09-24T13:45:12Z</time>
      </trkpt>
      <trkpt lat="45.8114" lon="4.2473">
        <ele>478.679</ele>
        <time>2018-09-24T13:45:17Z</time>
      </trkpt>
      <trkpt lat="45.8114" lon="4.2473">
        <ele>478.774</ele>
        <time>2018-09-24T13:45:23Z</time>
      </trkpt>
      <trkpt lat="45.8114" lon="4.2473">
        <ele>478.839</ele>
        <time>2018-09-24T13:45:29Z</time>
      </trkpt>
      <trkpt lat="45.8114" lon="4.2473">
        <ele>478.927</ele>
        <time>2018-09-24T13:45:34Z</time>
      </trkpt>
      <trkpt lat="45.8114" lon="4.2473">
        <ele>479.117</ele>
        <time>2018-09-24T13:45:40Z</time>
      </trkpt>
      <trkpt lat="45.8114" lon="4.2473">
        <ele>479.184</ele>
        <time>2018-09-24T13:45:46Z</time>
      </trkpt>
      <trkpt lat="45.8114" lon="4.2473">
        <ele>479.18</ele>
        <time>2018-09-24T13:45:52Z</time>
      </trkpt>
      <trkpt lat="45.8114" lon="4.2473">
        <ele>479.156</ele>
        <time>2018-09-24T13:45:57Z</time>
      </trkpt>
      <trkpt lat="45.8114" lon="4.2473">
        <ele>479.106</ele>
        <time>2018-09-24T13:46:02Z</time>
      </trkpt>
      <trkpt lat="45.8114" lon="4.2473">
        <ele>478.964</ele>
        <time>2018-09-24T13:46:08Z</time>
      </trkpt>
      <trkpt lat="45.8114" lon="4.2473">
        <ele>478.752</ele>
        <time>2018-09-24T13:46:14Z</time>
      </trkpt>
      <trkpt lat="45.81138" lon="4.24731">
        <ele>477.831</ele>
        <time>2018-09-24T13:46:20Z</time>
      </trkpt>
      <trkpt lat="45.81138" lon="4.24731">
        <ele>477.764</ele>
        <time>2018-09-24T13:46:26Z</time>
      </trkpt>
      <trkpt lat="45.81138" lon="4.24731">
        <ele>477.846</ele>
        <time>2018-09-24T13:46:32Z</time>
      </trkpt>
      <trkpt lat="45.81138" lon="4.24731">
        <ele>477.908</ele>
        <time>2018-09-24T13:46:38Z</time>
      </trkpt>
      <trkpt lat="45.81138" lon="4.24731">
        <ele>477.848</ele>
        <time>2018-09-24T13:46:44Z</time>
      </trkpt>
      <trkpt lat="45.81138" lon="4.24731">
        <ele>477.8</ele>
        <time>2018-09-24T13:46:50Z</time>
      </trkpt>
      <trkpt lat="45.81137" lon="4.24731">
        <ele>477.415</ele>
        <time>2018-09-24T13:46:55Z</time>
      </trkpt>
      <trkpt lat="45.81136" lon="4.24732">
        <ele>477.335</ele>
        <time>2018-09-24T13:47:00Z</time>
      </trkpt>
      <trkpt lat="45.81132" lon="4.24733">
        <ele>477.283</ele>
        <time>2018-09-24T13:47:06Z</time>
      </trkpt>
      <trkpt lat="45.81132" lon="4.24733">
        <ele>477.389</ele>
        <time>2018-09-24T13:47:12Z</time>
      </trkpt>
      <trkpt lat="45.81132" lon="4.24733">
        <ele>477.419</ele>
        <time>2018-09-24T13:47:18Z</time>
      </trkpt>
      <trkpt lat="45.81132" lon="4.24733">
        <ele>477.377</ele>
        <time>2018-09-24T13:47:24Z</time>
      </trkpt>
      <trkpt lat="45.81132" lon="4.24733">
        <ele>477.445</ele>
        <time>2018-09-24T13:47:30Z</time>
      </trkpt>
      <trkpt lat="45.81132" lon="4.24733">
        <ele>477.647</ele>
        <time>2018-09-24T13:47:36Z</time>
      </trkpt>
      <trkpt lat="45.81129" lon="4.24735">
        <ele>477.768</ele>
        <time>2018-09-24T13:47:42Z</time>
      </trkpt>
      <trkpt lat="45.81129" lon="4.24735">
        <ele>477.624</ele>
        <time>2018-09-24T13:47:48Z</time>
      </trkpt>
      <trkpt lat="45.81129" lon="4.24735">
        <ele>477.555</ele>
        <time>2018-09-24T13:47:53Z</time>
      </trkpt>
      <trkpt lat="45.81129" lon="4.24735">
        <ele>477.54</ele>
        <time>2018-09-24T13:47:59Z</time>
      </trkpt>
      <trkpt lat="45.81129" lon="4.24735">
        <ele>477.76</ele>
        <time>2018-09-24T13:48:05Z</time>
      </trkpt>
      <trkpt lat="45.81129" lon="4.24735">
        <ele>477.934</ele>
        <time>2018-09-24T13:48:11Z</time>
      </trkpt>
      <trkpt lat="45.81129" lon="4.24735">
        <ele>478.462</ele>
        <time>2018-09-24T13:48:16Z</time>
      </trkpt>
      <trkpt lat="45.81129" lon="4.24735">
        <ele>478.844</ele>
        <time>2018-09-24T13:48:21Z</time>
      </trkpt>
      <trkpt lat="45.81129" lon="4.24735">
        <ele>478.911</ele>
        <time>2018-09-24T13:48:27Z</time>
      </trkpt>
      <trkpt lat="45.81129" lon="4.24735">
        <ele>478.918</ele>
        <time>2018-09-24T13:48:33Z</time>
      </trkpt>
      <trkpt lat="45.81129" lon="4.24735">
        <ele>478.901</ele>
        <time>2018-09-24T13:48:39Z</time>
      </trkpt>
      <trkpt lat="45.81129" lon="4.24735">
        <ele>478.8</ele>
        <time>2018-09-24T13:48:45Z</time>
      </trkpt>
      <trkpt lat="45.81129" lon="4.24735">
        <ele>478.325</ele>
        <time>2018-09-24T13:48:50Z</time>
      </trkpt>
      <trkpt lat="45.81129" lon="4.24735">
        <ele>478.32</ele>
        <time>2018-09-24T13:48:56Z</time>
      </trkpt>
      <trkpt lat="45.81129" lon="4.24734">
        <ele>478.303</ele>
        <time>2018-09-24T13:49:02Z</time>
      </trkpt>
      <trkpt lat="45.81129" lon="4.24734">
        <ele>478.059</ele>
        <time>2018-09-24T13:49:07Z</time>
      </trkpt>
      <trkpt lat="45.81129" lon="4.24734">
        <ele>477.945</ele>
        <time>2018-09-24T13:49:13Z</time>
      </trkpt>
      <trkpt lat="45.81129" lon="4.24734">
        <ele>477.884</ele>
        <time>2018-09-24T13:49:18Z</time>
      </trkpt>
      <trkpt lat="45.81129" lon="4.24734">
        <ele>477.854</ele>
        <time>2018-09-24T13:49:24Z</time>
      </trkpt>
      <trkpt lat="45.81129" lon="4.24734">
        <ele>478.168</ele>
        <time>2018-09-24T13:49:30Z</time>
      </trkpt>
      <trkpt lat="45.81128" lon="4.24734">
        <ele>478.117</ele>
        <time>2018-09-24T13:49:36Z</time>
      </trkpt>
      <trkpt lat="45.8112" lon="4.24736">
        <ele>477.86</ele>
        <time>2018-09-24T13:49:42Z</time>
      </trkpt>
      <trkpt lat="45.81113" lon="4.2474">
        <ele>477.827</ele>
        <time>2018-09-24T13:49:48Z</time>
      </trkpt>
      <trkpt lat="45.81108" lon="4.24741">
        <ele>478.158</ele>
        <time>2018-09-24T13:49:54Z</time>
      </trkpt>
      <trkpt lat="45.81103" lon="4.24743">
        <ele>478.978</ele>
        <time>2018-09-24T13:50:00Z</time>
      </trkpt>
      <trkpt lat="45.81099" lon="4.24744">
        <ele>479.502</ele>
        <time>2018-09-24T13:50:05Z</time>
      </trkpt>
      <trkpt lat="45.81095" lon="4.24746">
        <ele>479.702</ele>
        <time>2018-09-24T13:50:11Z</time>
      </trkpt>
      <trkpt lat="45.8109" lon="4.24751">
        <ele>479.346</ele>
        <time>2018-09-24T13:50:17Z</time>
      </trkpt>
      <trkpt lat="45.81085" lon="4.24755">
        <ele>479.079</ele>
        <time>2018-09-24T13:50:23Z</time>
      </trkpt>
      <trkpt lat="45.8108" lon="4.24761">
        <ele>479.027</ele>
        <time>2018-09-24T13:50:29Z</time>
      </trkpt>
      <trkpt lat="45.81075" lon="4.24765">
        <ele>478.833</ele>
        <time>2018-09-24T13:50:34Z</time>
      </trkpt>
      <trkpt lat="45.81068" lon="4.24767">
        <ele>478.818</ele>
        <time>2018-09-24T13:50:40Z</time>
      </trkpt>
      <trkpt lat="45.81064" lon="4.24769">
        <ele>478.439</ele>
        <time>2018-09-24T13:50:46Z</time>
      </trkpt>
      <trkpt lat="45.81057" lon="4.2477">
        <ele>478.12</ele>
        <time>2018-09-24T13:50:52Z</time>
      </trkpt>
      <trkpt lat="45.81051" lon="4.24772">
        <ele>477.297</ele>
        <time>2018-09-24T13:50:58Z</time>
      </trkpt>
      <trkpt lat="45.81044" lon="4.2477">
        <ele>476.51</ele>
        <time>2018-09-24T13:51:04Z</time>
      </trkpt>
      <trkpt lat="45.81038" lon="4.24771">
        <ele>475.988</ele>
        <time>2018-09-24T13:51:09Z</time>
      </trkpt>
      <trkpt lat="45.81033" lon="4.24769">
        <ele>475.504</ele>
        <time>2018-09-24T13:51:14Z</time>
      </trkpt>
      <trkpt lat="45.81027" lon="4.2477">
        <ele>475.081</ele>
        <time>2018-09-24T13:51:19Z</time>
      </trkpt>
      <trkpt lat="45.81022" lon="4.24769">
        <ele>474.77</ele>
        <time>2018-09-24T13:51:24Z</time>
      </trkpt>
      <trkpt lat="45.81016" lon="4.24767">
        <ele>474.635</ele>
        <time>2018-09-24T13:51:30Z</time>
      </trkpt>
      <trkpt lat="45.81009" lon="4.24767">
        <ele>474.306</ele>
        <time>2018-09-24T13:51:36Z</time>
      </trkpt>
      <trkpt lat="45.81001" lon="4.24766">
        <ele>474.107</ele>
        <time>2018-09-24T13:51:42Z</time>
      </trkpt>
      <trkpt lat="45.80997" lon="4.24765">
        <ele>473.98</ele>
        <time>2018-09-24T13:51:47Z</time>
      </trkpt>
      <trkpt lat="45.80991" lon="4.24765">
        <ele>474.024</ele>
        <time>2018-09-24T13:51:53Z</time>
      </trkpt>
      <trkpt lat="45.80986" lon="4.24765">
        <ele>473.593</ele>
        <time>2018-09-24T13:51:59Z</time>
      </trkpt>
      <trkpt lat="45.80978" lon="4.24762">
        <ele>472.814</ele>
        <time>2018-09-24T13:52:05Z</time>
      </trkpt>
      <trkpt lat="45.80971" lon="4.24764">
        <ele>471.738</ele>
        <time>2018-09-24T13:52:11Z</time>
      </trkpt>
      <trkpt lat="45.80964" lon="4.24765">
        <ele>471.141</ele>
        <time>2018-09-24T13:52:17Z</time>
      </trkpt>
      <trkpt lat="45.80956" lon="4.24762">
        <ele>470.763</ele>
        <time>2018-09-24T13:52:23Z</time>
      </trkpt>
      <trkpt lat="45.80949" lon="4.24761">
        <ele>470.284</ele>
        <time>2018-09-24T13:52:28Z</time>
      </trkpt>
      <trkpt lat="45.80943" lon="4.24761">
        <ele>469.615</ele>
        <time>2018-09-24T13:52:34Z</time>
      </trkpt>
      <trkpt lat="45.8094" lon="4.24765">
        <ele>468.966</ele>
        <time>2018-09-24T13:52:39Z</time>
      </trkpt>
      <trkpt lat="45.80943" lon="4.24768">
        <ele>468.819</ele>
        <time>2018-09-24T13:52:44Z</time>
      </trkpt>
      <trkpt lat="45.80949" lon="4.2477">
        <ele>469.387</ele>
        <time>2018-09-24T13:52:50Z</time>
      </trkpt>
      <trkpt lat="45.80952" lon="4.24772">
        <ele>469.605</ele>
        <time>2018-09-24T13:52:55Z</time>
      </trkpt>
      <trkpt lat="45.80951" lon="4.24782">
        <ele>470.003</ele>
        <time>2018-09-24T13:53:01Z</time>
      </trkpt>
      <trkpt lat="45.8095" lon="4.2479">
        <ele>469.844</ele>
        <time>2018-09-24T13:53:07Z</time>
      </trkpt>
      <trkpt lat="45.80951" lon="4.24794">
        <ele>469.677</ele>
        <time>2018-09-24T13:53:12Z</time>
      </trkpt>
      <trkpt lat="45.8096" lon="4.24799">
        <ele>468.615</ele>
        <time>2018-09-24T13:53:18Z</time>
      </trkpt>
      <trkpt lat="45.80966" lon="4.24801">
        <ele>468.569</ele>
        <time>2018-09-24T13:53:23Z</time>
      </trkpt>
      <trkpt lat="45.80972" lon="4.24802">
        <ele>469.285</ele>
        <time>2018-09-24T13:53:29Z</time>
      </trkpt>
      <trkpt lat="45.8098" lon="4.24803">
        <ele>470.146</ele>
        <time>2018-09-24T13:53:34Z</time>
      </trkpt>
      <trkpt lat="45.80988" lon="4.24803">
        <ele>471.189</ele>
        <time>2018-09-24T13:53:40Z</time>
      </trkpt>
      <trkpt lat="45.80995" lon="4.24805">
        <ele>472.007</ele>
        <time>2018-09-24T13:53:46Z</time>
      </trkpt>
      <trkpt lat="45.80999" lon="4.24807">
        <ele>473.404</ele>
        <time>2018-09-24T13:53:52Z</time>
      </trkpt>
      <trkpt lat="45.81002" lon="4.24809">
        <ele>474.308</ele>
        <time>2018-09-24T13:53:57Z</time>
      </trkpt>
      <trkpt lat="45.81011" lon="4.24813">
        <ele>475.447</ele>
        <time>2018-09-24T13:54:03Z</time>
      </trkpt>
      <trkpt lat="45.81015" lon="4.24818">
        <ele>476.071</ele>
        <time>2018-09-24T13:54:08Z</time>
      </trkpt>
      <trkpt lat="45.8102" lon="4.24822">
        <ele>476.516</ele>
        <time>2018-09-24T13:54:14Z</time>
      </trkpt>
      <trkpt lat="45.81028" lon="4.24826">
        <ele>477.021</ele>
        <time>2018-09-24T13:54:19Z</time>
      </trkpt>
      <trkpt lat="45.81033" lon="4.24827">
        <ele>477.2</ele>
        <time>2018-09-24T13:54:24Z</time>
      </trkpt>
      <trkpt lat="45.8104" lon="4.2483">
        <ele>477.645</ele>
        <time>2018-09-24T13:54:30Z</time>
      </trkpt>
      <trkpt lat="45.81045" lon="4.24832">
        <ele>477.652</ele>
        <time>2018-09-24T13:54:36Z</time>
      </trkpt>
      <trkpt lat="45.8105" lon="4.24834">
        <ele>477.847</ele>
        <time>2018-09-24T13:54:42Z</time>
      </trkpt>
      <trkpt lat="45.81055" lon="4.24836">
        <ele>478.117</ele>
        <time>2018-09-24T13:54:47Z</time>
      </trkpt>
      <trkpt lat="45.81062" lon="4.24841">
        <ele>478.299</ele>
        <time>2018-09-24T13:54:52Z</time>
      </trkpt>
      <trkpt lat="45.8107" lon="4.24843">
        <ele>478.86</ele>
        <time>2018-09-24T13:54:58Z</time>
      </trkpt>
      <trkpt lat="45.81075" lon="4.24846">
        <ele>479.908</ele>
        <time>2018-09-24T13:55:04Z</time>
      </trkpt>
      <trkpt lat="45.81079" lon="4.24847">
        <ele>480.61</ele>
        <time>2018-09-24T13:55:10Z</time>
      </trkpt>
      <trkpt lat="45.81086" lon="4.24849">
        <ele>481.063</ele>
        <time>2018-09-24T13:55:16Z</time>
      </trkpt>
      <trkpt lat="45.81091" lon="4.24849">
        <ele>481.201</ele>
        <time>2018-09-24T13:55:22Z</time>
      </trkpt>
      <trkpt lat="45.81097" lon="4.2485">
        <ele>481.814</ele>
        <time>2018-09-24T13:55:28Z</time>
      </trkpt>
      <trkpt lat="45.81104" lon="4.24854">
        <ele>482.237</ele>
        <time>2018-09-24T13:55:34Z</time>
      </trkpt>
      <trkpt lat="45.81111" lon="4.24857">
        <ele>483.017</ele>
        <time>2018-09-24T13:55:40Z</time>
      </trkpt>
      <trkpt lat="45.81115" lon="4.24856">
        <ele>483.983</ele>
        <time>2018-09-24T13:55:46Z</time>
      </trkpt>
      <trkpt lat="45.81122" lon="4.24861">
        <ele>484.861</ele>
        <time>2018-09-24T13:55:52Z</time>
      </trkpt>
      <trkpt lat="45.8113" lon="4.24861">
        <ele>485.533</ele>
        <time>2018-09-24T13:55:58Z</time>
      </trkpt>
      <trkpt lat="45.81132" lon="4.24862">
        <ele>486.227</ele>
        <time>2018-09-24T13:56:04Z</time>
      </trkpt>
      <trkpt lat="45.81137" lon="4.24863">
        <ele>486.614</ele>
        <time>2018-09-24T13:56:10Z</time>
      </trkpt>
      <trkpt lat="45.81141" lon="4.24867">
        <ele>486.487</ele>
        <time>2018-09-24T13:56:16Z</time>
      </trkpt>
      <trkpt lat="45.8114" lon="4.24874">
        <ele>486.232</ele>
        <time>2018-09-24T13:56:21Z</time>
      </trkpt>
      <trkpt lat="45.81142" lon="4.24879">
        <ele>486.678</ele>
        <time>2018-09-24T13:56:27Z</time>
      </trkpt>
      <trkpt lat="45.81142" lon="4.24882">
        <ele>487.757</ele>
        <time>2018-09-24T13:56:33Z</time>
      </trkpt>
      <trkpt lat="45.81138" lon="4.24887">
        <ele>487.737</ele>
        <time>2018-09-24T13:56:38Z</time>
      </trkpt>
      <trkpt lat="45.81134" lon="4.24888">
        <ele>487.123</ele>
        <time>2018-09-24T13:56:44Z</time>
      </trkpt>
      <trkpt lat="45.81131" lon="4.24889">
        <ele>486.8</ele>
        <time>2018-09-24T13:56:49Z</time>
      </trkpt>
      <trkpt lat="45.81127" lon="4.24894">
        <ele>486.89</ele>
        <time>2018-09-24T13:56:55Z</time>
      </trkpt>
      <trkpt lat="45.81126" lon="4.24898">
        <ele>487.314</ele>
        <time>2018-09-24T13:57:01Z</time>
      </trkpt>
      <trkpt lat="45.81127" lon="4.24902">
        <ele>487.689</ele>
        <time>2018-09-24T13:57:06Z</time>
      </trkpt>
      <trkpt lat="45.8113" lon="4.24904">
        <ele>488.648</ele>
        <time>2018-09-24T13:57:12Z</time>
      </trkpt>
      <trkpt lat="45.81132" lon="4.24909">
        <ele>489.481</ele>
        <time>2018-09-24T13:57:18Z</time>
      </trkpt>
      <trkpt lat="45.81137" lon="4.24917">
        <ele>490.17</ele>
        <time>2018-09-24T13:57:24Z</time>
      </trkpt>
      <trkpt lat="45.8114" lon="4.24923">
        <ele>490.914</ele>
        <time>2018-09-24T13:57:30Z</time>
      </trkpt>
      <trkpt lat="45.81142" lon="4.24927">
        <ele>491.052</ele>
        <time>2018-09-24T13:57:36Z</time>
      </trkpt>
      <trkpt lat="45.81149" lon="4.24936">
        <ele>491.416</ele>
        <time>2018-09-24T13:57:42Z</time>
      </trkpt>
      <trkpt lat="45.81153" lon="4.24941">
        <ele>491.986</ele>
        <time>2018-09-24T13:57:47Z</time>
      </trkpt>
      <trkpt lat="45.81154" lon="4.24946">
        <ele>493.207</ele>
        <time>2018-09-24T13:57:53Z</time>
      </trkpt>
      <trkpt lat="45.81156" lon="4.24952">
        <ele>494.201</ele>
        <time>2018-09-24T13:57:58Z</time>
      </trkpt>
      <trkpt lat="45.81159" lon="4.24958">
        <ele>495.372</ele>
        <time>2018-09-24T13:58:04Z</time>
      </trkpt>
      <trkpt lat="45.81162" lon="4.24966">
        <ele>496.656</ele>
        <time>2018-09-24T13:58:09Z</time>
      </trkpt>
      <trkpt lat="45.81165" lon="4.24976">
        <ele>498.241</ele>
        <time>2018-09-24T13:58:15Z</time>
      </trkpt>
      <trkpt lat="45.81168" lon="4.24984">
        <ele>500.376</ele>
        <time>2018-09-24T13:58:21Z</time>
      </trkpt>
      <trkpt lat="45.81171" lon="4.24986">
        <ele>501.952</ele>
        <time>2018-09-24T13:58:26Z</time>
      </trkpt>
      <trkpt lat="45.81175" lon="4.24992">
        <ele>502.846</ele>
        <time>2018-09-24T13:58:31Z</time>
      </trkpt>
      <trkpt lat="45.81179" lon="4.24993">
        <ele>504.218</ele>
        <time>2018-09-24T13:58:37Z</time>
      </trkpt>
      <trkpt lat="45.81185" lon="4.24998">
        <ele>505.325</ele>
        <time>2018-09-24T13:58:43Z</time>
      </trkpt>
      <trkpt lat="45.81191" lon="4.25007">
        <ele>506.113</ele>
        <time>2018-09-24T13:58:49Z</time>
      </trkpt>
      <trkpt lat="45.81196" lon="4.25015">
        <ele>507.083</ele>
        <time>2018-09-24T13:58:55Z</time>
      </trkpt>
      <trkpt lat="45.812" lon="4.25024">
        <ele>508.01</ele>
        <time>2018-09-24T13:59:00Z</time>
      </trkpt>
      <trkpt lat="45.81204" lon="4.25029">
        <ele>509.134</ele>
        <time>2018-09-24T13:59:06Z</time>
      </trkpt>
      <trkpt lat="45.81206" lon="4.25038">
        <ele>510.087</ele>
        <time>2018-09-24T13:59:12Z</time>
      </trkpt>
      <trkpt lat="45.81208" lon="4.25045">
        <ele>510.866</ele>
        <time>2018-09-24T13:59:17Z</time>
      </trkpt>
      <trkpt lat="45.81209" lon="4.25052">
        <ele>511.751</ele>
        <time>2018-09-24T13:59:22Z</time>
      </trkpt>
      <trkpt lat="45.81211" lon="4.25057">
        <ele>512.506</ele>
        <time>2018-09-24T13:59:27Z</time>
      </trkpt>
      <trkpt lat="45.81213" lon="4.25061">
        <ele>513.426</ele>
        <time>2018-09-24T13:59:32Z</time>
      </trkpt>
      <trkpt lat="45.81215" lon="4.2507">
        <ele>514.96</ele>
        <time>2018-09-24T13:59:38Z</time>
      </trkpt>
      <trkpt lat="45.81217" lon="4.25076">
        <ele>516.412</ele>
        <time>2018-09-24T13:59:43Z</time>
      </trkpt>
      <trkpt lat="45.81219" lon="4.25084">
        <ele>518.76</ele>
        <time>2018-09-24T13:59:49Z</time>
      </trkpt>
      <trkpt lat="45.8122" lon="4.25093">
        <ele>520.505</ele>
        <time>2018-09-24T13:59:54Z</time>
      </trkpt>
      <trkpt lat="45.81221" lon="4.251">
        <ele>521.963</ele>
        <time>2018-09-24T13:59:59Z</time>
      </trkpt>
      <trkpt lat="45.81221" lon="4.25112">
        <ele>523.317</ele>
        <time>2018-09-24T14:00:05Z</time>
      </trkpt>
      <trkpt lat="45.81219" lon="4.25122">
        <ele>524.914</ele>
        <time>2018-09-24T14:00:11Z</time>
      </trkpt>
      <trkpt lat="45.81219" lon="4.25126">
        <ele>525.833</ele>
        <time>2018-09-24T14:00:16Z</time>
      </trkpt>
      <trkpt lat="45.8122" lon="4.25135">
        <ele>526.747</ele>
        <time>2018-09-24T14:00:21Z</time>
      </trkpt>
      <trkpt lat="45.81221" lon="4.25151">
        <ele>527.029</ele>
        <time>2018-09-24T14:00:27Z</time>
      </trkpt>
      <trkpt lat="45.81224" lon="4.25161">
        <ele>527.156</ele>
        <time>2018-09-24T14:00:33Z</time>
      </trkpt>
      <trkpt lat="45.81224" lon="4.25169">
        <ele>527.259</ele>
        <time>2018-09-24T14:00:38Z</time>
      </trkpt>
      <trkpt lat="45.81224" lon="4.25179">
        <ele>527.534</ele>
        <time>2018-09-24T14:00:44Z</time>
      </trkpt>
      <trkpt lat="45.81223" lon="4.25185">
        <ele>527.704</ele>
        <time>2018-09-24T14:00:49Z</time>
      </trkpt>
      <trkpt lat="45.81223" lon="4.25195">
        <ele>528.242</ele>
        <time>2018-09-24T14:00:55Z</time>
      </trkpt>
      <trkpt lat="45.81222" lon="4.2521">
        <ele>529.269</ele>
        <time>2018-09-24T14:01:00Z</time>
      </trkpt>
      <trkpt lat="45.81218" lon="4.2522">
        <ele>529.867</ele>
        <time>2018-09-24T14:01:06Z</time>
      </trkpt>
      <trkpt lat="45.81215" lon="4.25226">
        <ele>530.14</ele>
        <time>2018-09-24T14:01:12Z</time>
      </trkpt>
      <trkpt lat="45.8121" lon="4.25233">
        <ele>530.291</ele>
        <time>2018-09-24T14:01:18Z</time>
      </trkpt>
      <trkpt lat="45.81207" lon="4.2524">
        <ele>530.699</ele>
        <time>2018-09-24T14:01:23Z</time>
      </trkpt>
      <trkpt lat="45.81203" lon="4.25252">
        <ele>530.323</ele>
        <time>2018-09-24T14:01:29Z</time>
      </trkpt>
      <trkpt lat="45.81201" lon="4.25269">
        <ele>530.117</ele>
        <time>2018-09-24T14:01:35Z</time>
      </trkpt>
      <trkpt lat="45.81199" lon="4.25278">
        <ele>530.103</ele>
        <time>2018-09-24T14:01:41Z</time>
      </trkpt>
      <trkpt lat="45.81198" lon="4.25283">
        <ele>530.153</ele>
        <time>2018-09-24T14:01:46Z</time>
      </trkpt>
      <trkpt lat="45.81194" lon="4.25293">
        <ele>530.198</ele>
        <time>2018-09-24T14:01:51Z</time>
      </trkpt>
      <trkpt lat="45.81192" lon="4.25303">
        <ele>530.221</ele>
        <time>2018-09-24T14:01:57Z</time>
      </trkpt>
      <trkpt lat="45.81193" lon="4.2531">
        <ele>529.914</ele>
        <time>2018-09-24T14:02:03Z</time>
      </trkpt>
      <trkpt lat="45.81193" lon="4.25312">
        <ele>530.513</ele>
        <time>2018-09-24T14:02:08Z</time>
      </trkpt>
      <trkpt lat="45.81191" lon="4.25315">
        <ele>531.034</ele>
        <time>2018-09-24T14:02:14Z</time>
      </trkpt>
      <trkpt lat="45.81188" lon="4.25317">
        <ele>532.817</ele>
        <time>2018-09-24T14:02:20Z</time>
      </trkpt>
      <trkpt lat="45.81187" lon="4.25317">
        <ele>533.795</ele>
        <time>2018-09-24T14:02:25Z</time>
      </trkpt>
      <trkpt lat="45.81186" lon="4.25319">
        <ele>534.519</ele>
        <time>2018-09-24T14:02:31Z</time>
      </trkpt>
      <trkpt lat="45.81184" lon="4.25318">
        <ele>534.794</ele>
        <time>2018-09-24T14:02:37Z</time>
      </trkpt>
      <trkpt lat="45.81185" lon="4.25318">
        <ele>535.331</ele>
        <time>2018-09-24T14:02:42Z</time>
      </trkpt>
      <trkpt lat="45.81184" lon="4.25319">
        <ele>536.209</ele>
        <time>2018-09-24T14:02:48Z</time>
      </trkpt>
      <trkpt lat="45.81183" lon="4.2532">
        <ele>536.775</ele>
        <time>2018-09-24T14:02:54Z</time>
      </trkpt>
      <trkpt lat="45.81184" lon="4.2532">
        <ele>536.985</ele>
        <time>2018-09-24T14:03:00Z</time>
      </trkpt>
      <trkpt lat="45.81184" lon="4.25319">
        <ele>537.135</ele>
        <time>2018-09-24T14:03:05Z</time>
      </trkpt>
      <trkpt lat="45.81185" lon="4.25319">
        <ele>537.985</ele>
        <time>2018-09-24T14:03:10Z</time>
      </trkpt>
      <trkpt lat="45.81186" lon="4.25318">
        <ele>538.225</ele>
        <time>2018-09-24T14:03:16Z</time>
      </trkpt>
      <trkpt lat="45.81184" lon="4.25318">
        <ele>538.423</ele>
        <time>2018-09-24T14:03:21Z</time>
      </trkpt>
      <trkpt lat="45.81184" lon="4.25319">
        <ele>538.863</ele>
        <time>2018-09-24T14:03:26Z</time>
      </trkpt>
      <trkpt lat="45.81185" lon="4.25319">
        <ele>539.353</ele>
        <time>2018-09-24T14:03:32Z</time>
      </trkpt>
      <trkpt lat="45.81185" lon="4.25319">
        <ele>539.506</ele>
        <time>2018-09-24T14:03:37Z</time>
      </trkpt>
      <trkpt lat="45.81185" lon="4.25319">
        <ele>539.718</ele>
        <time>2018-09-24T14:03:43Z</time>
      </trkpt>
      <trkpt lat="45.81185" lon="4.25319">
        <ele>539.915</ele>
        <time>2018-09-24T14:03:48Z</time>
      </trkpt>
      <trkpt lat="45.81182" lon="4.25307">
        <ele>541.99</ele>
        <time>2018-09-24T14:03:54Z</time>
      </trkpt>
      <trkpt lat="45.81182" lon="4.25304">
        <ele>542.786</ele>
        <time>2018-09-24T14:04:00Z</time>
      </trkpt>
      <trkpt lat="45.81182" lon="4.25302">
        <ele>543.54</ele>
        <time>2018-09-24T14:04:06Z</time>
      </trkpt>
      <trkpt lat="45.81182" lon="4.25302">
        <ele>544.445</ele>
        <time>2018-09-24T14:04:12Z</time>
      </trkpt>
      <trkpt lat="45.81182" lon="4.25302">
        <ele>544.518</ele>
        <time>2018-09-24T14:04:17Z</time>
      </trkpt>
      <trkpt lat="45.81182" lon="4.25302">
        <ele>544.382</ele>
        <time>2018-09-24T14:04:23Z</time>
      </trkpt>
      <trkpt lat="45.8118" lon="4.25298">
        <ele>544.997</ele>
        <time>2018-09-24T14:04:28Z</time>
      </trkpt>
      <trkpt lat="45.8118" lon="4.25298">
        <ele>546.292</ele>
        <time>2018-09-24T14:04:34Z</time>
      </trkpt>
      <trkpt lat="45.8118" lon="4.25298">
        <ele>547.432</ele>
        <time>2018-09-24T14:04:40Z</time>
      </trkpt>
      <trkpt lat="45.8118" lon="4.25298">
        <ele>547.868</ele>
        <time>2018-09-24T14:04:45Z</time>
      </trkpt>
      <trkpt lat="45.81181" lon="4.25299">
        <ele>548.675</ele>
        <time>2018-09-24T14:04:50Z</time>
      </trkpt>
      <trkpt lat="45.81181" lon="4.25299">
        <ele>549.036</ele>
        <time>2018-09-24T14:04:56Z</time>
      </trkpt>
      <trkpt lat="45.81181" lon="4.25299">
        <ele>550.061</ele>
        <time>2018-09-24T14:05:01Z</time>
      </trkpt>
      <trkpt lat="45.81183" lon="4.25302">
        <ele>550.518</ele>
        <time>2018-09-24T14:05:06Z</time>
      </trkpt>
      <trkpt lat="45.81183" lon="4.25302">
        <ele>550.395</ele>
        <time>2018-09-24T14:05:12Z</time>
      </trkpt>
      <trkpt lat="45.81183" lon="4.25302">
        <ele>549.997</ele>
        <time>2018-09-24T14:05:17Z</time>
      </trkpt>
      <trkpt lat="45.81183" lon="4.25302">
        <ele>548.202</ele>
        <time>2018-09-24T14:05:23Z</time>
      </trkpt>
      <trkpt lat="45.81185" lon="4.25303">
        <ele>547.066</ele>
        <time>2018-09-24T14:05:28Z</time>
      </trkpt>
      <trkpt lat="45.81185" lon="4.25303">
        <ele>546.899</ele>
        <time>2018-09-24T14:05:34Z</time>
      </trkpt>
      <trkpt lat="45.81185" lon="4.25303">
        <ele>546.865</ele>
        <time>2018-09-24T14:05:39Z</time>
      </trkpt>
      <trkpt lat="45.81185" lon="4.25303">
        <ele>546.74</ele>
        <time>2018-09-24T14:05:45Z</time>
      </trkpt>
      <trkpt lat="45.81185" lon="4.25303">
        <ele>546.574</ele>
        <time>2018-09-24T14:05:51Z</time>
      </trkpt>
      <trkpt lat="45.81185" lon="4.25303">
        <ele>546.409</ele>
        <time>2018-09-24T14:05:56Z</time>
      </trkpt>
      <trkpt lat="45.81185" lon="4.25303">
        <ele>546.241</ele>
        <time>2018-09-24T14:06:02Z</time>
      </trkpt>
      <trkpt lat="45.81185" lon="4.25303">
        <ele>546.168</ele>
        <time>2018-09-24T14:06:08Z</time>
      </trkpt>
      <trkpt lat="45.81185" lon="4.25303">
        <ele>545.938</ele>
        <time>2018-09-24T14:06:14Z</time>
      </trkpt>
      <trkpt lat="45.81185" lon="4.25303">
        <ele>545.826</ele>
        <time>2018-09-24T14:06:20Z</time>
      </trkpt>
      <trkpt lat="45.81185" lon="4.25303">
        <ele>545.556</ele>
        <time>2018-09-24T14:06:25Z</time>
      </trkpt>
      <trkpt lat="45.81185" lon="4.25303">
        <ele>545.327</ele>
        <time>2018-09-24T14:06:31Z</time>
      </trkpt>
      <trkpt lat="45.81185" lon="4.25303">
        <ele>545.309</ele>
        <time>2018-09-24T14:06:37Z</time>
      </trkpt>
      <trkpt lat="45.81185" lon="4.25303">
        <ele>545.112</ele>
        <time>2018-09-24T14:06:43Z</time>
      </trkpt>
      <trkpt lat="45.81185" lon="4.25303">
        <ele>544.669</ele>
        <time>2018-09-24T14:06:49Z</time>
      </trkpt>
      <trkpt lat="45.81185" lon="4.25303">
        <ele>544.538</ele>
        <time>2018-09-24T14:06:54Z</time>
      </trkpt>
      <trkpt lat="45.81185" lon="4.25303">
        <ele>544.408</ele>
        <time>2018-09-24T14:06:59Z</time>
      </trkpt>
      <trkpt lat="45.81185" lon="4.25303">
        <ele>544.372</ele>
        <time>2018-09-24T14:07:05Z</time>
      </trkpt>
      <trkpt lat="45.81184" lon="4.25303">
        <ele>544.385</ele>
        <time>2018-09-24T14:07:10Z</time>
      </trkpt>
      <trkpt lat="45.81184" lon="4.25303">
        <ele>544.517</ele>
        <time>2018-09-24T14:07:16Z</time>
      </trkpt>
      <trkpt lat="45.81184" lon="4.25303">
        <ele>544.497</ele>
        <time>2018-09-24T14:07:21Z</time>
      </trkpt>
      <trkpt lat="45.81184" lon="4.25303">
        <ele>544.353</ele>
        <time>2018-09-24T14:07:26Z</time>
      </trkpt>
      <trkpt lat="45.81184" lon="4.25303">
        <ele>544.243</ele>
        <time>2018-09-24T14:07:32Z</time>
      </trkpt>
      <trkpt lat="45.81184" lon="4.25303">
        <ele>544.279</ele>
        <time>2018-09-24T14:07:37Z</time>
      </trkpt>
      <trkpt lat="45.81184" lon="4.25303">
        <ele>544.381</ele>
        <time>2018-09-24T14:07:43Z</time>
      </trkpt>
      <trkpt lat="45.81184" lon="4.25303">
        <ele>544.477</ele>
        <time>2018-09-24T14:07:48Z</time>
      </trkpt>
      <trkpt lat="45.81184" lon="4.25303">
        <ele>544.648</ele>
        <time>2018-09-24T14:07:54Z</time>
      </trkpt>
      <trkpt lat="45.81185" lon="4.25301">
        <ele>545.029</ele>
        <time>2018-09-24T14:07:59Z</time>
      </trkpt>
      <trkpt lat="45.81185" lon="4.25301">
        <ele>544.707</ele>
        <time>2018-09-24T14:08:05Z</time>
      </trkpt>
      <trkpt lat="45.81185" lon="4.25301">
        <ele>544.012</ele>
        <time>2018-09-24T14:08:11Z</time>
      </trkpt>
      <trkpt lat="45.81185" lon="4.25301">
        <ele>543.884</ele>
        <time>2018-09-24T14:08:16Z</time>
      </trkpt>
      <trkpt lat="45.81185" lon="4.25301">
        <ele>543.68</ele>
        <time>2018-09-24T14:08:22Z</time>
      </trkpt>
      <trkpt lat="45.81185" lon="4.25301">
        <ele>543.079</ele>
        <time>2018-09-24T14:08:28Z</time>
      </trkpt>
      <trkpt lat="45.81186" lon="4.25302">
        <ele>542.181</ele>
        <time>2018-09-24T14:08:34Z</time>
      </trkpt>
      <trkpt lat="45.81186" lon="4.25302">
        <ele>541.869</ele>
        <time>2018-09-24T14:08:40Z</time>
      </trkpt>
      <trkpt lat="45.81186" lon="4.25302">
        <ele>541.748</ele>
        <time>2018-09-24T14:08:45Z</time>
      </trkpt>
      <trkpt lat="45.81186" lon="4.25302">
        <ele>541.645</ele>
        <time>2018-09-24T14:08:51Z</time>
      </trkpt>
      <trkpt lat="45.81186" lon="4.25302">
        <ele>541.593</ele>
        <time>2018-09-24T14:08:56Z</time>
      </trkpt>
      <trkpt lat="45.81186" lon="4.25302">
        <ele>541.553</ele>
        <time>2018-09-24T14:09:02Z</time>
      </trkpt>
      <trkpt lat="45.81186" lon="4.25301">
        <ele>541.53</ele>
        <time>2018-09-24T14:09:08Z</time>
      </trkpt>
      <trkpt lat="45.81186" lon="4.25301">
        <ele>541.465</ele>
        <time>2018-09-24T14:09:13Z</time>
      </trkpt>
      <trkpt lat="45.81186" lon="4.25301">
        <ele>541.418</ele>
        <time>2018-09-24T14:09:19Z</time>
      </trkpt>
      <trkpt lat="45.81186" lon="4.25301">
        <ele>541.477</ele>
        <time>2018-09-24T14:09:24Z</time>
      </trkpt>
      <trkpt lat="45.81186" lon="4.25301">
        <ele>541.729</ele>
        <time>2018-09-24T14:09:30Z</time>
      </trkpt>
      <trkpt lat="45.81184" lon="4.25299">
        <ele>542.927</ele>
        <time>2018-09-24T14:09:36Z</time>
      </trkpt>
      <trkpt lat="45.81184" lon="4.253">
        <ele>543.043</ele>
        <time>2018-09-24T14:09:42Z</time>
      </trkpt>
      <trkpt lat="45.81184" lon="4.253">
        <ele>543.215</ele>
        <time>2018-09-24T14:09:48Z</time>
      </trkpt>
      <trkpt lat="45.81184" lon="4.253">
        <ele>543.368</ele>
        <time>2018-09-24T14:09:53Z</time>
      </trkpt>
      <trkpt lat="45.81184" lon="4.253">
        <ele>543.488</ele>
        <time>2018-09-24T14:09:58Z</time>
      </trkpt>
      <trkpt lat="45.81184" lon="4.253">
        <ele>543.713</ele>
        <time>2018-09-24T14:10:04Z</time>
      </trkpt>
      <trkpt lat="45.81184" lon="4.253">
        <ele>544.225</ele>
        <time>2018-09-24T14:10:09Z</time>
      </trkpt>
      <trkpt lat="45.81184" lon="4.253">
        <ele>544.432</ele>
        <time>2018-09-24T14:10:15Z</time>
      </trkpt>
      <trkpt lat="45.81184" lon="4.253">
        <ele>544.498</ele>
        <time>2018-09-24T14:10:20Z</time>
      </trkpt>
      <trkpt lat="45.81184" lon="4.253">
        <ele>544.534</ele>
        <time>2018-09-24T14:10:26Z</time>
      </trkpt>
      <trkpt lat="45.81184" lon="4.253">
        <ele>544.533</ele>
        <time>2018-09-24T14:10:31Z</time>
      </trkpt>
      <trkpt lat="45.81184" lon="4.253">
        <ele>544.531</ele>
        <time>2018-09-24T14:10:37Z</time>
      </trkpt>
      <trkpt lat="45.81184" lon="4.253">
        <ele>544.509</ele>
        <time>2018-09-24T14:10:43Z</time>
      </trkpt>
      <trkpt lat="45.81184" lon="4.253">
        <ele>544.636</ele>
        <time>2018-09-24T14:10:48Z</time>
      </trkpt>
      <trkpt lat="45.81184" lon="4.25301">
        <ele>545.472</ele>
        <time>2018-09-24T14:10:54Z</time>
      </trkpt>
      <trkpt lat="45.81184" lon="4.25301">
        <ele>545.68</ele>
        <time>2018-09-24T14:11:00Z</time>
      </trkpt>
      <trkpt lat="45.81185" lon="4.25301">
        <ele>545.874</ele>
        <time>2018-09-24T14:11:06Z</time>
      </trkpt>
      <trkpt lat="45.81186" lon="4.25298">
        <ele>547.065</ele>
        <time>2018-09-24T14:11:12Z</time>
      </trkpt>
      <trkpt lat="45.81186" lon="4.25298">
        <ele>548.888</ele>
        <time>2018-09-24T14:11:17Z</time>
      </trkpt>
      <trkpt lat="45.81187" lon="4.25298">
        <ele>550.754</ele>
        <time>2018-09-24T14:11:22Z</time>
      </trkpt>
      <trkpt lat="45.81187" lon="4.25298">
        <ele>551.595</ele>
        <time>2018-09-24T14:11:28Z</time>
      </trkpt>
      <trkpt lat="45.81187" lon="4.25298">
        <ele>552.444</ele>
        <time>2018-09-24T14:11:34Z</time>
      </trkpt>
      <trkpt lat="45.81186" lon="4.25298">
        <ele>554.19</ele>
        <time>2018-09-24T14:11:39Z</time>
      </trkpt>
      <trkpt lat="45.81185" lon="4.25299">
        <ele>554.593</ele>
        <time>2018-09-24T14:11:45Z</time>
      </trkpt>
      <trkpt lat="45.81185" lon="4.25299">
        <ele>554.881</ele>
        <time>2018-09-24T14:11:51Z</time>
      </trkpt>
      <trkpt lat="45.81185" lon="4.25299">
        <ele>555.004</ele>
        <time>2018-09-24T14:11:57Z</time>
      </trkpt>
      <trkpt lat="45.81185" lon="4.25299">
        <ele>555.828</ele>
        <time>2018-09-24T14:12:03Z</time>
      </trkpt>
      <trkpt lat="45.81185" lon="4.25299">
        <ele>555.602</ele>
        <time>2018-09-24T14:12:08Z</time>
      </trkpt>
      <trkpt lat="45.81185" lon="4.25299">
        <ele>555.323</ele>
        <time>2018-09-24T14:12:14Z</time>
      </trkpt>
      <trkpt lat="45.81185" lon="4.25299">
        <ele>555.324</ele>
        <time>2018-09-24T14:12:19Z</time>
      </trkpt>
      <trkpt lat="45.81185" lon="4.25299">
        <ele>555.446</ele>
        <time>2018-09-24T14:12:25Z</time>
      </trkpt>
      <trkpt lat="45.81185" lon="4.25299">
        <ele>554.936</ele>
        <time>2018-09-24T14:12:30Z</time>
      </trkpt>
      <trkpt lat="45.81187" lon="4.253">
        <ele>554.513</ele>
        <time>2018-09-24T14:12:35Z</time>
      </trkpt>
      <trkpt lat="45.81187" lon="4.253">
        <ele>554.383</ele>
        <time>2018-09-24T14:12:41Z</time>
      </trkpt>
      <trkpt lat="45.81187" lon="4.253">
        <ele>554.349</ele>
        <time>2018-09-24T14:12:46Z</time>
      </trkpt>
      <trkpt lat="45.81187" lon="4.253">
        <ele>554.147</ele>
        <time>2018-09-24T14:12:51Z</time>
      </trkpt>
      <trkpt lat="45.81187" lon="4.253">
        <ele>553.736</ele>
        <time>2018-09-24T14:12:57Z</time>
      </trkpt>
      <trkpt lat="45.81187" lon="4.253">
        <ele>553.506</ele>
        <time>2018-09-24T14:13:02Z</time>
      </trkpt>
      <trkpt lat="45.81187" lon="4.253">
        <ele>553.57</ele>
        <time>2018-09-24T14:13:08Z</time>
      </trkpt>
      <trkpt lat="45.81187" lon="4.253">
        <ele>553.612</ele>
        <time>2018-09-24T14:13:14Z</time>
      </trkpt>
      <trkpt lat="45.81187" lon="4.253">
        <ele>553.677</ele>
        <time>2018-09-24T14:13:19Z</time>
      </trkpt>
      <trkpt lat="45.81187" lon="4.253">
        <ele>553.775</ele>
        <time>2018-09-24T14:13:24Z</time>
      </trkpt>
      <trkpt lat="45.81187" lon="4.253">
        <ele>553.829</ele>
        <time>2018-09-24T14:13:30Z</time>
      </trkpt>
      <trkpt lat="45.81187" lon="4.253">
        <ele>553.783</ele>
        <time>2018-09-24T14:13:36Z</time>
      </trkpt>
      <trkpt lat="45.81187" lon="4.253">
        <ele>553.737</ele>
        <time>2018-09-24T14:13:42Z</time>
      </trkpt>
      <trkpt lat="45.81187" lon="4.253">
        <ele>553.673</ele>
        <time>2018-09-24T14:13:48Z</time>
      </trkpt>
      <trkpt lat="45.81187" lon="4.253">
        <ele>553.67</ele>
        <time>2018-09-24T14:13:54Z</time>
      </trkpt>
      <trkpt lat="45.81187" lon="4.253">
        <ele>553.719</ele>
        <time>2018-09-24T14:14:00Z</time>
      </trkpt>
      <trkpt lat="45.81187" lon="4.253">
        <ele>553.994</ele>
        <time>2018-09-24T14:14:06Z</time>
      </trkpt>
      <trkpt lat="45.81188" lon="4.25301">
        <ele>554.187</ele>
        <time>2018-09-24T14:14:12Z</time>
      </trkpt>
      <trkpt lat="45.81188" lon="4.25301">
        <ele>554.216</ele>
        <time>2018-09-24T14:14:17Z</time>
      </trkpt>
      <trkpt lat="45.81188" lon="4.25301">
        <ele>554.101</ele>
        <time>2018-09-24T14:14:22Z</time>
      </trkpt>
      <trkpt lat="45.81189" lon="4.25301">
        <ele>553.956</ele>
        <time>2018-09-24T14:14:28Z</time>
      </trkpt>
      <trkpt lat="45.81189" lon="4.25301">
        <ele>553.838</ele>
        <time>2018-09-24T14:14:34Z</time>
      </trkpt>
      <trkpt lat="45.81189" lon="4.25301">
        <ele>553.686</ele>
        <time>2018-09-24T14:14:40Z</time>
      </trkpt>
      <trkpt lat="45.81189" lon="4.25301">
        <ele>553.175</ele>
        <time>2018-09-24T14:14:46Z</time>
      </trkpt>
      <trkpt lat="45.81189" lon="4.25301">
        <ele>553.036</ele>
        <time>2018-09-24T14:14:52Z</time>
      </trkpt>
      <trkpt lat="45.81189" lon="4.25301">
        <ele>552.996</ele>
        <time>2018-09-24T14:14:58Z</time>
      </trkpt>
      <trkpt lat="45.81189" lon="4.25301">
        <ele>552.834</ele>
        <time>2018-09-24T14:15:04Z</time>
      </trkpt>
      <trkpt lat="45.81189" lon="4.25301">
        <ele>552.551</ele>
        <time>2018-09-24T14:15:10Z</time>
      </trkpt>
      <trkpt lat="45.81189" lon="4.25301">
        <ele>552.249</ele>
        <time>2018-09-24T14:15:16Z</time>
      </trkpt>
      <trkpt lat="45.81189" lon="4.25301">
        <ele>551.902</ele>
        <time>2018-09-24T14:15:22Z</time>
      </trkpt>
      <trkpt lat="45.81189" lon="4.25301">
        <ele>551.655</ele>
        <time>2018-09-24T14:15:28Z</time>
      </trkpt>
      <trkpt lat="45.81189" lon="4.25301">
        <ele>551.436</ele>
        <time>2018-09-24T14:15:34Z</time>
      </trkpt>
      <trkpt lat="45.81189" lon="4.25301">
        <ele>551.324</ele>
        <time>2018-09-24T14:15:40Z</time>
      </trkpt>
      <trkpt lat="45.81189" lon="4.25301">
        <ele>551.105</ele>
        <time>2018-09-24T14:15:46Z</time>
      </trkpt>
      <trkpt lat="45.81189" lon="4.25301">
        <ele>549.914</ele>
        <time>2018-09-24T14:15:52Z</time>
      </trkpt>
      <trkpt lat="45.81189" lon="4.25301">
        <ele>548.721</ele>
        <time>2018-09-24T14:15:58Z</time>
      </trkpt>
      <trkpt lat="45.81189" lon="4.25301">
        <ele>548.329</ele>
        <time>2018-09-24T14:16:04Z</time>
      </trkpt>
      <trkpt lat="45.81189" lon="4.25301">
        <ele>547.806</ele>
        <time>2018-09-24T14:16:10Z</time>
      </trkpt>
      <trkpt lat="45.81189" lon="4.25301">
        <ele>547.559</ele>
        <time>2018-09-24T14:16:16Z</time>
      </trkpt>
      <trkpt lat="45.81189" lon="4.25301">
        <ele>547.515</ele>
        <time>2018-09-24T14:16:22Z</time>
      </trkpt>
      <trkpt lat="45.81189" lon="4.25301">
        <ele>547.669</ele>
        <time>2018-09-24T14:16:28Z</time>
      </trkpt>
      <trkpt lat="45.81189" lon="4.25301">
        <ele>547.842</ele>
        <time>2018-09-24T14:16:34Z</time>
      </trkpt>
      <trkpt lat="45.81189" lon="4.25301">
        <ele>548.012</ele>
        <time>2018-09-24T14:16:40Z</time>
      </trkpt>
      <trkpt lat="45.81189" lon="4.25301">
        <ele>548.213</ele>
        <time>2018-09-24T14:16:46Z</time>
      </trkpt>
      <trkpt lat="45.81189" lon="4.25301">
        <ele>548.508</ele>
        <time>2018-09-24T14:16:52Z</time>
      </trkpt>
      <trkpt lat="45.81189" lon="4.25301">
        <ele>548.69</ele>
        <time>2018-09-24T14:16:57Z</time>
      </trkpt>
      <trkpt lat="45.81189" lon="4.25301">
        <ele>548.841</ele>
        <time>2018-09-24T14:17:03Z</time>
      </trkpt>
      <trkpt lat="45.81189" lon="4.25301">
        <ele>548.945</ele>
        <time>2018-09-24T14:17:08Z</time>
      </trkpt>
      <trkpt lat="45.81189" lon="4.25301">
        <ele>549.016</ele>
        <time>2018-09-24T14:17:13Z</time>
      </trkpt>
      <trkpt lat="45.81188" lon="4.25301">
        <ele>549.259</ele>
        <time>2018-09-24T14:17:19Z</time>
      </trkpt>
      <trkpt lat="45.81186" lon="4.25304">
        <ele>549.87</ele>
        <time>2018-09-24T14:17:25Z</time>
      </trkpt>
      <trkpt lat="45.81183" lon="4.25307">
        <ele>550.076</ele>
        <time>2018-09-24T14:17:31Z</time>
      </trkpt>
      <trkpt lat="45.8118" lon="4.25308">
        <ele>550.196</ele>
        <time>2018-09-24T14:17:37Z</time>
      </trkpt>
      <trkpt lat="45.8118" lon="4.25308">
        <ele>550.263</ele>
        <time>2018-09-24T14:17:42Z</time>
      </trkpt>
      <trkpt lat="45.81178" lon="4.25309">
        <ele>550.439</ele>
        <time>2018-09-24T14:17:48Z</time>
      </trkpt>
      <trkpt lat="45.81176" lon="4.25313">
        <ele>550.141</ele>
        <time>2018-09-24T14:17:54Z</time>
      </trkpt>
      <trkpt lat="45.81173" lon="4.25316">
        <ele>550.5</ele>
        <time>2018-09-24T14:18:00Z</time>
      </trkpt>
      <trkpt lat="45.81172" lon="4.25316">
        <ele>550.979</ele>
        <time>2018-09-24T14:18:06Z</time>
      </trkpt>
      <trkpt lat="45.81168" lon="4.2532">
        <ele>551.491</ele>
        <time>2018-09-24T14:18:12Z</time>
      </trkpt>
      <trkpt lat="45.81164" lon="4.25322">
        <ele>552.187</ele>
        <time>2018-09-24T14:18:18Z</time>
      </trkpt>
      <trkpt lat="45.81162" lon="4.25324">
        <ele>552.893</ele>
        <time>2018-09-24T14:18:23Z</time>
      </trkpt>
      <trkpt lat="45.81159" lon="4.25324">
        <ele>552.852</ele>
        <time>2018-09-24T14:18:29Z</time>
      </trkpt>
      <trkpt lat="45.81156" lon="4.25327">
        <ele>552.523</ele>
        <time>2018-09-24T14:18:35Z</time>
      </trkpt>
      <trkpt lat="45.81156" lon="4.25327">
        <ele>552.254</ele>
        <time>2018-09-24T14:18:40Z</time>
      </trkpt>
      <trkpt lat="45.81145" lon="4.25335">
        <ele>551.963</ele>
        <time>2018-09-24T14:18:46Z</time>
      </trkpt>
      <trkpt lat="45.81137" lon="4.25343">
        <ele>551.282</ele>
        <time>2018-09-24T14:18:51Z</time>
      </trkpt>
      <trkpt lat="45.81128" lon="4.25352">
        <ele>550.694</ele>
        <time>2018-09-24T14:18:57Z</time>
      </trkpt>
      <trkpt lat="45.81122" lon="4.25353">
        <ele>549.908</ele>
        <time>2018-09-24T14:19:03Z</time>
      </trkpt>
      <trkpt lat="45.81117" lon="4.25357">
        <ele>549.285</ele>
        <time>2018-09-24T14:19:08Z</time>
      </trkpt>
      <trkpt lat="45.81115" lon="4.25357">
        <ele>548.89</ele>
        <time>2018-09-24T14:19:14Z</time>
      </trkpt>
      <trkpt lat="45.81112" lon="4.2536">
        <ele>548.365</ele>
        <time>2018-09-24T14:19:20Z</time>
      </trkpt>
      <trkpt lat="45.8111" lon="4.25364">
        <ele>547.721</ele>
        <time>2018-09-24T14:19:25Z</time>
      </trkpt>
      <trkpt lat="45.81106" lon="4.25367">
        <ele>547.172</ele>
        <time>2018-09-24T14:19:30Z</time>
      </trkpt>
      <trkpt lat="45.81103" lon="4.2537">
        <ele>546.493</ele>
        <time>2018-09-24T14:19:36Z</time>
      </trkpt>
      <trkpt lat="45.81097" lon="4.25373">
        <ele>546.31</ele>
        <time>2018-09-24T14:19:41Z</time>
      </trkpt>
      <trkpt lat="45.8109" lon="4.25367">
        <ele>546.641</ele>
        <time>2018-09-24T14:19:47Z</time>
      </trkpt>
      <trkpt lat="45.81085" lon="4.25361">
        <ele>547.311</ele>
        <time>2018-09-24T14:19:53Z</time>
      </trkpt>
      <trkpt lat="45.81078" lon="4.25353">
        <ele>548.326</ele>
        <time>2018-09-24T14:19:59Z</time>
      </trkpt>
      <trkpt lat="45.81076" lon="4.25347">
        <ele>549.42</ele>
        <time>2018-09-24T14:20:05Z</time>
      </trkpt>
      <trkpt lat="45.81073" lon="4.25342">
        <ele>550.187</ele>
        <time>2018-09-24T14:20:10Z</time>
      </trkpt>
      <trkpt lat="45.8107" lon="4.25337">
        <ele>551.042</ele>
        <time>2018-09-24T14:20:16Z</time>
      </trkpt>
      <trkpt lat="45.81069" lon="4.25331">
        <ele>551.544</ele>
        <time>2018-09-24T14:20:21Z</time>
      </trkpt>
      <trkpt lat="45.81067" lon="4.25324">
        <ele>551.949</ele>
        <time>2018-09-24T14:20:27Z</time>
      </trkpt>
      <trkpt lat="45.81066" lon="4.25319">
        <ele>552.041</ele>
        <time>2018-09-24T14:20:32Z</time>
      </trkpt>
      <trkpt lat="45.81065" lon="4.25311">
        <ele>551.95</ele>
        <time>2018-09-24T14:20:38Z</time>
      </trkpt>
      <trkpt lat="45.81062" lon="4.25305">
        <ele>551.672</ele>
        <time>2018-09-24T14:20:43Z</time>
      </trkpt>
      <trkpt lat="45.81058" lon="4.25299">
        <ele>551.496</ele>
        <time>2018-09-24T14:20:49Z</time>
      </trkpt>
      <trkpt lat="45.81054" lon="4.25287">
        <ele>551.142</ele>
        <time>2018-09-24T14:20:55Z</time>
      </trkpt>
      <trkpt lat="45.8105" lon="4.2528">
        <ele>550.836</ele>
        <time>2018-09-24T14:21:01Z</time>
      </trkpt>
      <trkpt lat="45.81048" lon="4.2527">
        <ele>550.845</ele>
        <time>2018-09-24T14:21:07Z</time>
      </trkpt>
      <trkpt lat="45.81043" lon="4.25261">
        <ele>551.068</ele>
        <time>2018-09-24T14:21:13Z</time>
      </trkpt>
      <trkpt lat="45.81042" lon="4.25254">
        <ele>551.055</ele>
        <time>2018-09-24T14:21:19Z</time>
      </trkpt>
      <trkpt lat="45.81041" lon="4.25247">
        <ele>550.83</ele>
        <time>2018-09-24T14:21:24Z</time>
      </trkpt>
      <trkpt lat="45.8104" lon="4.25242">
        <ele>551.002</ele>
        <time>2018-09-24T14:21:30Z</time>
      </trkpt>
      <trkpt lat="45.81039" lon="4.25235">
        <ele>551.277</ele>
        <time>2018-09-24T14:21:35Z</time>
      </trkpt>
      <trkpt lat="45.81036" lon="4.25223">
        <ele>551.641</ele>
        <time>2018-09-24T14:21:41Z</time>
      </trkpt>
      <trkpt lat="45.81032" lon="4.25219">
        <ele>551.733</ele>
        <time>2018-09-24T14:21:46Z</time>
      </trkpt>
      <trkpt lat="45.8103" lon="4.25213">
        <ele>551.742</ele>
        <time>2018-09-24T14:21:52Z</time>
      </trkpt>
      <trkpt lat="45.81028" lon="4.25207">
        <ele>551.756</ele>
        <time>2018-09-24T14:21:57Z</time>
      </trkpt>
      <trkpt lat="45.81026" lon="4.25201">
        <ele>551.967</ele>
        <time>2018-09-24T14:22:02Z</time>
      </trkpt>
      <trkpt lat="45.8102" lon="4.25195">
        <ele>552.363</ele>
        <time>2018-09-24T14:22:08Z</time>
      </trkpt>
      <trkpt lat="45.81016" lon="4.25192">
        <ele>552.951</ele>
        <time>2018-09-24T14:22:14Z</time>
      </trkpt>
      <trkpt lat="45.81012" lon="4.25188">
        <ele>553.563</ele>
        <time>2018-09-24T14:22:20Z</time>
      </trkpt>
      <trkpt lat="45.81004" lon="4.2518">
        <ele>554.459</ele>
        <time>2018-09-24T14:22:26Z</time>
      </trkpt>
      <trkpt lat="45.80999" lon="4.25174">
        <ele>554.532</ele>
        <time>2018-09-24T14:22:32Z</time>
      </trkpt>
      <trkpt lat="45.80995" lon="4.25168">
        <ele>554.589</ele>
        <time>2018-09-24T14:22:37Z</time>
      </trkpt>
      <trkpt lat="45.80992" lon="4.25157">
        <ele>554.619</ele>
        <time>2018-09-24T14:22:43Z</time>
      </trkpt>
      <trkpt lat="45.80988" lon="4.25147">
        <ele>554.321</ele>
        <time>2018-09-24T14:22:49Z</time>
      </trkpt>
      <trkpt lat="45.80985" lon="4.2514">
        <ele>553.819</ele>
        <time>2018-09-24T14:22:54Z</time>
      </trkpt>
      <trkpt lat="45.80982" lon="4.25132">
        <ele>553.677</ele>
        <time>2018-09-24T14:23:00Z</time>
      </trkpt>
      <trkpt lat="45.80977" lon="4.25125">
        <ele>553.262</ele>
        <time>2018-09-24T14:23:06Z</time>
      </trkpt>
      <trkpt lat="45.80972" lon="4.25116">
        <ele>552.593</ele>
        <time>2018-09-24T14:23:12Z</time>
      </trkpt>
      <trkpt lat="45.8097" lon="4.25109">
        <ele>551.596</ele>
        <time>2018-09-24T14:23:18Z</time>
      </trkpt>
      <trkpt lat="45.80967" lon="4.25103">
        <ele>550.772</ele>
        <time>2018-09-24T14:23:24Z</time>
      </trkpt>
      <trkpt lat="45.80962" lon="4.2509">
        <ele>550.035</ele>
        <time>2018-09-24T14:23:30Z</time>
      </trkpt>
      <trkpt lat="45.80959" lon="4.25083">
        <ele>549.151</ele>
        <time>2018-09-24T14:23:36Z</time>
      </trkpt>
      <trkpt lat="45.80954" lon="4.25076">
        <ele>548.712</ele>
        <time>2018-09-24T14:23:42Z</time>
      </trkpt>
      <trkpt lat="45.80953" lon="4.25071">
        <ele>548.233</ele>
        <time>2018-09-24T14:23:47Z</time>
      </trkpt>
      <trkpt lat="45.80948" lon="4.25063">
        <ele>547.789</ele>
        <time>2018-09-24T14:23:53Z</time>
      </trkpt>
      <trkpt lat="45.80943" lon="4.25058">
        <ele>547.713</ele>
        <time>2018-09-24T14:23:58Z</time>
      </trkpt>
      <trkpt lat="45.80938" lon="4.25054">
        <ele>547.568</ele>
        <time>2018-09-24T14:24:03Z</time>
      </trkpt>
      <trkpt lat="45.80932" lon="4.2505">
        <ele>547.217</ele>
        <time>2018-09-24T14:24:08Z</time>
      </trkpt>
      <trkpt lat="45.80927" lon="4.25047">
        <ele>546.874</ele>
        <time>2018-09-24T14:24:14Z</time>
      </trkpt>
      <trkpt lat="45.80923" lon="4.25045">
        <ele>546.54</ele>
        <time>2018-09-24T14:24:19Z</time>
      </trkpt>
      <trkpt lat="45.80915" lon="4.25044">
        <ele>546.061</ele>
        <time>2018-09-24T14:24:25Z</time>
      </trkpt>
      <trkpt lat="45.80912" lon="4.25042">
        <ele>545.865</ele>
        <time>2018-09-24T14:24:30Z</time>
      </trkpt>
      <trkpt lat="45.80909" lon="4.25043">
        <ele>545.423</ele>
        <time>2018-09-24T14:24:35Z</time>
      </trkpt>
      <trkpt lat="45.80903" lon="4.25042">
        <ele>545.091</ele>
        <time>2018-09-24T14:24:41Z</time>
      </trkpt>
      <trkpt lat="45.80895" lon="4.25039">
        <ele>544.756</ele>
        <time>2018-09-24T14:24:47Z</time>
      </trkpt>
      <trkpt lat="45.80887" lon="4.25038">
        <ele>544.198</ele>
        <time>2018-09-24T14:24:53Z</time>
      </trkpt>
      <trkpt lat="45.80881" lon="4.25036">
        <ele>543.85</ele>
        <time>2018-09-24T14:24:59Z</time>
      </trkpt>
      <trkpt lat="45.80873" lon="4.25033">
        <ele>543.626</ele>
        <time>2018-09-24T14:25:05Z</time>
      </trkpt>
      <trkpt lat="45.80867" lon="4.2503">
        <ele>543.502</ele>
        <time>2018-09-24T14:25:11Z</time>
      </trkpt>
      <trkpt lat="45.8086" lon="4.25031">
        <ele>543.641</ele>
        <time>2018-09-24T14:25:17Z</time>
      </trkpt>
      <trkpt lat="45.80856" lon="4.25029">
        <ele>543.575</ele>
        <time>2018-09-24T14:25:22Z</time>
      </trkpt>
      <trkpt lat="45.80852" lon="4.25028">
        <ele>543.088</ele>
        <time>2018-09-24T14:25:28Z</time>
      </trkpt>
      <trkpt lat="45.80848" lon="4.25026">
        <ele>542.613</ele>
        <time>2018-09-24T14:25:33Z</time>
      </trkpt>
      <trkpt lat="45.80846" lon="4.25024">
        <ele>542.425</ele>
        <time>2018-09-24T14:25:38Z</time>
      </trkpt>
      <trkpt lat="45.80841" lon="4.2502">
        <ele>542.278</ele>
        <time>2018-09-24T14:25:44Z</time>
      </trkpt>
      <trkpt lat="45.80837" lon="4.25016">
        <ele>542.092</ele>
        <time>2018-09-24T14:25:49Z</time>
      </trkpt>
      <trkpt lat="45.80833" lon="4.25014">
        <ele>541.56</ele>
        <time>2018-09-24T14:25:55Z</time>
      </trkpt>
      <trkpt lat="45.80828" lon="4.25012">
        <ele>540.936</ele>
        <time>2018-09-24T14:26:00Z</time>
      </trkpt>
      <trkpt lat="45.80823" lon="4.25007">
        <ele>540.331</ele>
        <time>2018-09-24T14:26:06Z</time>
      </trkpt>
      <trkpt lat="45.80818" lon="4.25">
        <ele>540.015</ele>
        <time>2018-09-24T14:26:12Z</time>
      </trkpt>
      <trkpt lat="45.80814" lon="4.24994">
        <ele>539.82</ele>
        <time>2018-09-24T14:26:18Z</time>
      </trkpt>
      <trkpt lat="45.80811" lon="4.24989">
        <ele>540.143</ele>
        <time>2018-09-24T14:26:23Z</time>
      </trkpt>
      <trkpt lat="45.80807" lon="4.24985">
        <ele>540.291</ele>
        <time>2018-09-24T14:26:28Z</time>
      </trkpt>
      <trkpt lat="45.80801" lon="4.24981">
        <ele>540.105</ele>
        <time>2018-09-24T14:26:34Z</time>
      </trkpt>
      <trkpt lat="45.80798" lon="4.24979">
        <ele>539.895</ele>
        <time>2018-09-24T14:26:39Z</time>
      </trkpt>
      <trkpt lat="45.80792" lon="4.24975">
        <ele>539.527</ele>
        <time>2018-09-24T14:26:44Z</time>
      </trkpt>
      <trkpt lat="45.80788" lon="4.24974">
        <ele>539.305</ele>
        <time>2018-09-24T14:26:49Z</time>
      </trkpt>
      <trkpt lat="45.80783" lon="4.24971">
        <ele>538.796</ele>
        <time>2018-09-24T14:26:55Z</time>
      </trkpt>
      <trkpt lat="45.8078" lon="4.2497">
        <ele>538.411</ele>
        <time>2018-09-24T14:27:00Z</time>
      </trkpt>
      <trkpt lat="45.80778" lon="4.24966">
        <ele>537.965</ele>
        <time>2018-09-24T14:27:05Z</time>
      </trkpt>
      <trkpt lat="45.80772" lon="4.24964">
        <ele>537.032</ele>
        <time>2018-09-24T14:27:11Z</time>
      </trkpt>
      <trkpt lat="45.80768" lon="4.24964">
        <ele>535.667</ele>
        <time>2018-09-24T14:27:17Z</time>
      </trkpt>
      <trkpt lat="45.80764" lon="4.24962">
        <ele>534.845</ele>
        <time>2018-09-24T14:27:22Z</time>
      </trkpt>
      <trkpt lat="45.80759" lon="4.2496">
        <ele>534.108</ele>
        <time>2018-09-24T14:27:28Z</time>
      </trkpt>
      <trkpt lat="45.80755" lon="4.24957">
        <ele>533.561</ele>
        <time>2018-09-24T14:27:33Z</time>
      </trkpt>
      <trkpt lat="45.80748" lon="4.24956">
        <ele>533.162</ele>
        <time>2018-09-24T14:27:39Z</time>
      </trkpt>
      <trkpt lat="45.80744" lon="4.24956">
        <ele>532.647</ele>
        <time>2018-09-24T14:27:45Z</time>
      </trkpt>
      <trkpt lat="45.80739" lon="4.24958">
        <ele>532.292</ele>
        <time>2018-09-24T14:27:50Z</time>
      </trkpt>
      <trkpt lat="45.80731" lon="4.2496">
        <ele>531.727</ele>
        <time>2018-09-24T14:27:56Z</time>
      </trkpt>
      <trkpt lat="45.80726" lon="4.24962">
        <ele>531.228</ele>
        <time>2018-09-24T14:28:01Z</time>
      </trkpt>
      <trkpt lat="45.80721" lon="4.2496">
        <ele>530.641</ele>
        <time>2018-09-24T14:28:07Z</time>
      </trkpt>
      <trkpt lat="45.80714" lon="4.24962">
        <ele>529.78</ele>
        <time>2018-09-24T14:28:12Z</time>
      </trkpt>
      <trkpt lat="45.80708" lon="4.24963">
        <ele>529.082</ele>
        <time>2018-09-24T14:28:17Z</time>
      </trkpt>
      <trkpt lat="45.80701" lon="4.24969">
        <ele>528.475</ele>
        <time>2018-09-24T14:28:23Z</time>
      </trkpt>
      <trkpt lat="45.80694" lon="4.24972">
        <ele>527.894</ele>
        <time>2018-09-24T14:28:29Z</time>
      </trkpt>
      <trkpt lat="45.80685" lon="4.24976">
        <ele>527.271</ele>
        <time>2018-09-24T14:28:35Z</time>
      </trkpt>
      <trkpt lat="45.80679" lon="4.2498">
        <ele>526.333</ele>
        <time>2018-09-24T14:28:40Z</time>
      </trkpt>
      <trkpt lat="45.8067" lon="4.24984">
        <ele>524.866</ele>
        <time>2018-09-24T14:28:46Z</time>
      </trkpt>
      <trkpt lat="45.80664" lon="4.24986">
        <ele>524.136</ele>
        <time>2018-09-24T14:28:52Z</time>
      </trkpt>
      <trkpt lat="45.80659" lon="4.24987">
        <ele>523.12</ele>
        <time>2018-09-24T14:28:57Z</time>
      </trkpt>
      <trkpt lat="45.80651" lon="4.24985">
        <ele>521.983</ele>
        <time>2018-09-24T14:29:03Z</time>
      </trkpt>
      <trkpt lat="45.80644" lon="4.24984">
        <ele>520.789</ele>
        <time>2018-09-24T14:29:08Z</time>
      </trkpt>
      <trkpt lat="45.80637" lon="4.24983">
        <ele>520.076</ele>
        <time>2018-09-24T14:29:13Z</time>
      </trkpt>
      <trkpt lat="45.80629" lon="4.24982">
        <ele>519.601</ele>
        <time>2018-09-24T14:29:19Z</time>
      </trkpt>
      <trkpt lat="45.80623" lon="4.24983">
        <ele>518.981</ele>
        <time>2018-09-24T14:29:24Z</time>
      </trkpt>
      <trkpt lat="45.80616" lon="4.24981">
        <ele>518.617</ele>
        <time>2018-09-24T14:29:30Z</time>
      </trkpt>
      <trkpt lat="45.80607" lon="4.24978">
        <ele>517.766</ele>
        <time>2018-09-24T14:29:36Z</time>
      </trkpt>
      <trkpt lat="45.80597" lon="4.24974">
        <ele>516.917</ele>
        <time>2018-09-24T14:29:42Z</time>
      </trkpt>
      <trkpt lat="45.80591" lon="4.24973">
        <ele>516.259</ele>
        <time>2018-09-24T14:29:48Z</time>
      </trkpt>
      <trkpt lat="45.80584" lon="4.24972">
        <ele>515.524</ele>
        <time>2018-09-24T14:29:54Z</time>
      </trkpt>
      <trkpt lat="45.80578" lon="4.2497">
        <ele>515.438</ele>
        <time>2018-09-24T14:30:00Z</time>
      </trkpt>
      <trkpt lat="45.80569" lon="4.24967">
        <ele>514.726</ele>
        <time>2018-09-24T14:30:06Z</time>
      </trkpt>
      <trkpt lat="45.80562" lon="4.24966">
        <ele>514.342</ele>
        <time>2018-09-24T14:30:12Z</time>
      </trkpt>
      <trkpt lat="45.80557" lon="4.24964">
        <ele>514.39</ele>
        <time>2018-09-24T14:30:18Z</time>
      </trkpt>
      <trkpt lat="45.80549" lon="4.24961">
        <ele>514.347</ele>
        <time>2018-09-24T14:30:23Z</time>
      </trkpt>
      <trkpt lat="45.80544" lon="4.24956">
        <ele>514.495</ele>
        <time>2018-09-24T14:30:29Z</time>
      </trkpt>
      <trkpt lat="45.80537" lon="4.2495">
        <ele>514.509</ele>
        <time>2018-09-24T14:30:34Z</time>
      </trkpt>
      <trkpt lat="45.8053" lon="4.24941">
        <ele>515.03</ele>
        <time>2018-09-24T14:30:40Z</time>
      </trkpt>
      <trkpt lat="45.80524" lon="4.24935">
        <ele>515.282</ele>
        <time>2018-09-24T14:30:45Z</time>
      </trkpt>
      <trkpt lat="45.8052" lon="4.24933">
        <ele>515.405</ele>
        <time>2018-09-24T14:30:50Z</time>
      </trkpt>
      <trkpt lat="45.80515" lon="4.24926">
        <ele>515.392</ele>
        <time>2018-09-24T14:30:56Z</time>
      </trkpt>
      <trkpt lat="45.80511" lon="4.24919">
        <ele>515.717</ele>
        <time>2018-09-24T14:31:01Z</time>
      </trkpt>
      <trkpt lat="45.80508" lon="4.24915">
        <ele>516.1</ele>
        <time>2018-09-24T14:31:07Z</time>
      </trkpt>
      <trkpt lat="45.80502" lon="4.24909">
        <ele>516.157</ele>
        <time>2018-09-24T14:31:13Z</time>
      </trkpt>
      <trkpt lat="45.80499" lon="4.24905">
        <ele>516.425</ele>
        <time>2018-09-24T14:31:19Z</time>
      </trkpt>
      <trkpt lat="45.80501" lon="4.24905">
        <ele>516.219</ele>
        <time>2018-09-24T14:31:26Z</time>
      </trkpt>
      <trkpt lat="45.80503" lon="4.24904">
        <ele>516.216</ele>
        <time>2018-09-24T14:31:32Z</time>
      </trkpt>
      <trkpt lat="45.80501" lon="4.24906">
        <ele>516.01</ele>
        <time>2018-09-24T14:31:38Z</time>
      </trkpt>
      <trkpt lat="45.805" lon="4.24907">
        <ele>515.586</ele>
        <time>2018-09-24T14:31:44Z</time>
      </trkpt>
      <trkpt lat="45.805" lon="4.24908">
        <ele>515.29</ele>
        <time>2018-09-24T14:31:49Z</time>
      </trkpt>
      <trkpt lat="45.80501" lon="4.24907">
        <ele>515.388</ele>
        <time>2018-09-24T14:31:55Z</time>
      </trkpt>
      <trkpt lat="45.80501" lon="4.24905">
        <ele>515.28</ele>
        <time>2018-09-24T14:32:01Z</time>
      </trkpt>
      <trkpt lat="45.80502" lon="4.24906">
        <ele>515.192</ele>
        <time>2018-09-24T14:32:06Z</time>
      </trkpt>
      <trkpt lat="45.805" lon="4.24907">
        <ele>515.188</ele>
        <time>2018-09-24T14:32:12Z</time>
      </trkpt>
      <trkpt lat="45.805" lon="4.24908">
        <ele>514.898</ele>
        <time>2018-09-24T14:32:17Z</time>
      </trkpt>
      <trkpt lat="45.80501" lon="4.24909">
        <ele>514.571</ele>
        <time>2018-09-24T14:32:23Z</time>
      </trkpt>
      <trkpt lat="45.805" lon="4.24909">
        <ele>514.56</ele>
        <time>2018-09-24T14:32:29Z</time>
      </trkpt>
      <trkpt lat="45.80498" lon="4.24909">
        <ele>514.764</ele>
        <time>2018-09-24T14:32:34Z</time>
      </trkpt>
      <trkpt lat="45.80495" lon="4.24908">
        <ele>514.913</ele>
        <time>2018-09-24T14:32:40Z</time>
      </trkpt>
      <trkpt lat="45.80492" lon="4.24904">
        <ele>515.107</ele>
        <time>2018-09-24T14:32:45Z</time>
      </trkpt>
      <trkpt lat="45.80487" lon="4.24902">
        <ele>515.343</ele>
        <time>2018-09-24T14:32:51Z</time>
      </trkpt>
      <trkpt lat="45.80479" lon="4.249">
        <ele>515.403</ele>
        <time>2018-09-24T14:32:57Z</time>
      </trkpt>
      <trkpt lat="45.80474" lon="4.24901">
        <ele>515.721</ele>
        <time>2018-09-24T14:33:02Z</time>
      </trkpt>
      <trkpt lat="45.8047" lon="4.24902">
        <ele>515.851</ele>
        <time>2018-09-24T14:33:07Z</time>
      </trkpt>
      <trkpt lat="45.80464" lon="4.24903">
        <ele>516.015</ele>
        <time>2018-09-24T14:33:13Z</time>
      </trkpt>
      <trkpt lat="45.80458" lon="4.24905">
        <ele>516.592</ele>
        <time>2018-09-24T14:33:18Z</time>
      </trkpt>
      <trkpt lat="45.80455" lon="4.24907">
        <ele>516.849</ele>
        <time>2018-09-24T14:33:24Z</time>
      </trkpt>
      <trkpt lat="45.80447" lon="4.24911">
        <ele>516.72</ele>
        <time>2018-09-24T14:33:30Z</time>
      </trkpt>
      <trkpt lat="45.80441" lon="4.2492">
        <ele>516.605</ele>
        <time>2018-09-24T14:33:35Z</time>
      </trkpt>
      <trkpt lat="45.80438" lon="4.24926">
        <ele>516.234</ele>
        <time>2018-09-24T14:33:40Z</time>
      </trkpt>
      <trkpt lat="45.80436" lon="4.24931">
        <ele>515.515</ele>
        <time>2018-09-24T14:33:46Z</time>
      </trkpt>
      <trkpt lat="45.80433" lon="4.24936">
        <ele>515.278</ele>
        <time>2018-09-24T14:33:51Z</time>
      </trkpt>
      <trkpt lat="45.80432" lon="4.24938">
        <ele>514.904</ele>
        <time>2018-09-24T14:33:56Z</time>
      </trkpt>
      <trkpt lat="45.8043" lon="4.24943">
        <ele>514.086</ele>
        <time>2018-09-24T14:34:02Z</time>
      </trkpt>
      <trkpt lat="45.80428" lon="4.24949">
        <ele>514.113</ele>
        <time>2018-09-24T14:34:07Z</time>
      </trkpt>
      <trkpt lat="45.80425" lon="4.24952">
        <ele>514.24</ele>
        <time>2018-09-24T14:34:13Z</time>
      </trkpt>
      <trkpt lat="45.80422" lon="4.24956">
        <ele>514.243</ele>
        <time>2018-09-24T14:34:19Z</time>
      </trkpt>
      <trkpt lat="45.80416" lon="4.24959">
        <ele>514.234</ele>
        <time>2018-09-24T14:34:24Z</time>
      </trkpt>
      <trkpt lat="45.80411" lon="4.24958">
        <ele>514.38</ele>
        <time>2018-09-24T14:34:30Z</time>
      </trkpt>
      <trkpt lat="45.80405" lon="4.24956">
        <ele>514.089</ele>
        <time>2018-09-24T14:34:35Z</time>
      </trkpt>
      <trkpt lat="45.804" lon="4.24954">
        <ele>513.818</ele>
        <time>2018-09-24T14:34:40Z</time>
      </trkpt>
      <trkpt lat="45.80393" lon="4.24951">
        <ele>513.459</ele>
        <time>2018-09-24T14:34:46Z</time>
      </trkpt>
      <trkpt lat="45.80385" lon="4.24949">
        <ele>512.532</ele>
        <time>2018-09-24T14:34:52Z</time>
      </trkpt>
      <trkpt lat="45.80381" lon="4.24949">
        <ele>511.841</ele>
        <time>2018-09-24T14:34:57Z</time>
      </trkpt>
      <trkpt lat="45.80375" lon="4.24948">
        <ele>511.15</ele>
        <time>2018-09-24T14:35:03Z</time>
      </trkpt>
      <trkpt lat="45.80369" lon="4.24948">
        <ele>509.818</ele>
        <time>2018-09-24T14:35:09Z</time>
      </trkpt>
      <trkpt lat="45.80362" lon="4.24948">
        <ele>509.108</ele>
        <time>2018-09-24T14:35:14Z</time>
      </trkpt>
      <trkpt lat="45.80356" lon="4.24947">
        <ele>508.894</ele>
        <time>2018-09-24T14:35:20Z</time>
      </trkpt>
      <trkpt lat="45.8035" lon="4.24943">
        <ele>508.945</ele>
        <time>2018-09-24T14:35:25Z</time>
      </trkpt>
      <trkpt lat="45.80342" lon="4.24943">
        <ele>509.017</ele>
        <time>2018-09-24T14:35:31Z</time>
      </trkpt>
      <trkpt lat="45.80338" lon="4.24943">
        <ele>509.515</ele>
        <time>2018-09-24T14:35:36Z</time>
      </trkpt>
      <trkpt lat="45.80332" lon="4.24943">
        <ele>509.556</ele>
        <time>2018-09-24T14:35:42Z</time>
      </trkpt>
      <trkpt lat="45.80326" lon="4.24942">
        <ele>509.783</ele>
        <time>2018-09-24T14:35:48Z</time>
      </trkpt>
      <trkpt lat="45.80317" lon="4.24942">
        <ele>509.971</ele>
        <time>2018-09-24T14:35:54Z</time>
      </trkpt>
      <trkpt lat="45.8031" lon="4.24943">
        <ele>509.352</ele>
        <time>2018-09-24T14:36:00Z</time>
      </trkpt>
      <trkpt lat="45.803" lon="4.24944">
        <ele>508.723</ele>
        <time>2018-09-24T14:36:06Z</time>
      </trkpt>
      <trkpt lat="45.80291" lon="4.24948">
        <ele>508.496</ele>
        <time>2018-09-24T14:36:12Z</time>
      </trkpt>
      <trkpt lat="45.80283" lon="4.24945">
        <ele>508.426</ele>
        <time>2018-09-24T14:36:17Z</time>
      </trkpt>
      <trkpt lat="45.80276" lon="4.24946">
        <ele>508.533</ele>
        <time>2018-09-24T14:36:22Z</time>
      </trkpt>
      <trkpt lat="45.8027" lon="4.24944">
        <ele>509.05</ele>
        <time>2018-09-24T14:36:27Z</time>
      </trkpt>
      <trkpt lat="45.80263" lon="4.24943">
        <ele>509.902</ele>
        <time>2018-09-24T14:36:33Z</time>
      </trkpt>
      <trkpt lat="45.80257" lon="4.24939">
        <ele>510.442</ele>
        <time>2018-09-24T14:36:39Z</time>
      </trkpt>
      <trkpt lat="45.80251" lon="4.24936">
        <ele>510.505</ele>
        <time>2018-09-24T14:36:44Z</time>
      </trkpt>
      <trkpt lat="45.80244" lon="4.24931">
        <ele>510.534</ele>
        <time>2018-09-24T14:36:49Z</time>
      </trkpt>
      <trkpt lat="45.80239" lon="4.24929">
        <ele>510.56</ele>
        <time>2018-09-24T14:36:54Z</time>
      </trkpt>
      <trkpt lat="45.80233" lon="4.24925">
        <ele>510.412</ele>
        <time>2018-09-24T14:36:59Z</time>
      </trkpt>
      <trkpt lat="45.80226" lon="4.24919">
        <ele>510.271</ele>
        <time>2018-09-24T14:37:05Z</time>
      </trkpt>
      <trkpt lat="45.80219" lon="4.24913">
        <ele>510.52</ele>
        <time>2018-09-24T14:37:11Z</time>
      </trkpt>
      <trkpt lat="45.80211" lon="4.24908">
        <ele>510.313</ele>
        <time>2018-09-24T14:37:17Z</time>
      </trkpt>
      <trkpt lat="45.80205" lon="4.24903">
        <ele>509.938</ele>
        <time>2018-09-24T14:37:23Z</time>
      </trkpt>
      <trkpt lat="45.80198" lon="4.24899">
        <ele>509.937</ele>
        <time>2018-09-24T14:37:28Z</time>
      </trkpt>
      <trkpt lat="45.80192" lon="4.24895">
        <ele>509.886</ele>
        <time>2018-09-24T14:37:34Z</time>
      </trkpt>
      <trkpt lat="45.80184" lon="4.24891">
        <ele>509.805</ele>
        <time>2018-09-24T14:37:41Z</time>
      </trkpt>
      <trkpt lat="45.80179" lon="4.24886">
        <ele>509.726</ele>
        <time>2018-09-24T14:37:46Z</time>
      </trkpt>
      <trkpt lat="45.80181" lon="4.24884">
        <ele>509.283</ele>
        <time>2018-09-24T14:37:52Z</time>
      </trkpt>
      <trkpt lat="45.80172" lon="4.2488">
        <ele>508.898</ele>
        <time>2018-09-24T14:37:58Z</time>
      </trkpt>
      <trkpt lat="45.80164" lon="4.24873">
        <ele>508.102</ele>
        <time>2018-09-24T14:38:04Z</time>
      </trkpt>
      <trkpt lat="45.80159" lon="4.2487">
        <ele>507.792</ele>
        <time>2018-09-24T14:38:09Z</time>
      </trkpt>
      <trkpt lat="45.8015" lon="4.24864">
        <ele>507.442</ele>
        <time>2018-09-24T14:38:16Z</time>
      </trkpt>
      <trkpt lat="45.80144" lon="4.24861">
        <ele>507.354</ele>
        <time>2018-09-24T14:38:22Z</time>
      </trkpt>
      <trkpt lat="45.80139" lon="4.24857">
        <ele>507.302</ele>
        <time>2018-09-24T14:38:27Z</time>
      </trkpt>
      <trkpt lat="45.80132" lon="4.24852">
        <ele>507.257</ele>
        <time>2018-09-24T14:38:33Z</time>
      </trkpt>
      <trkpt lat="45.80125" lon="4.24848">
        <ele>507.114</ele>
        <time>2018-09-24T14:38:38Z</time>
      </trkpt>
      <trkpt lat="45.80119" lon="4.24842">
        <ele>507.039</ele>
        <time>2018-09-24T14:38:44Z</time>
      </trkpt>
      <trkpt lat="45.80113" lon="4.24838">
        <ele>506.853</ele>
        <time>2018-09-24T14:38:49Z</time>
      </trkpt>
      <trkpt lat="45.80108" lon="4.24829">
        <ele>506.815</ele>
        <time>2018-09-24T14:38:55Z</time>
      </trkpt>
      <trkpt lat="45.80104" lon="4.24821">
        <ele>506.78</ele>
        <time>2018-09-24T14:39:00Z</time>
      </trkpt>
      <trkpt lat="45.801" lon="4.24812">
        <ele>506.824</ele>
        <time>2018-09-24T14:39:06Z</time>
      </trkpt>
      <trkpt lat="45.80097" lon="4.24802">
        <ele>506.723</ele>
        <time>2018-09-24T14:39:11Z</time>
      </trkpt>
      <trkpt lat="45.80095" lon="4.24792">
        <ele>506.611</ele>
        <time>2018-09-24T14:39:16Z</time>
      </trkpt>
      <trkpt lat="45.80094" lon="4.24783">
        <ele>506.689</ele>
        <time>2018-09-24T14:39:21Z</time>
      </trkpt>
      <trkpt lat="45.80092" lon="4.24775">
        <ele>506.916</ele>
        <time>2018-09-24T14:39:27Z</time>
      </trkpt>
      <trkpt lat="45.8009" lon="4.24765">
        <ele>507.183</ele>
        <time>2018-09-24T14:39:33Z</time>
      </trkpt>
      <trkpt lat="45.80089" lon="4.24756">
        <ele>507.067</ele>
        <time>2018-09-24T14:39:38Z</time>
      </trkpt>
      <trkpt lat="45.80084" lon="4.24747">
        <ele>506.724</ele>
        <time>2018-09-24T14:39:44Z</time>
      </trkpt>
      <trkpt lat="45.80078" lon="4.24737">
        <ele>506.515</ele>
        <time>2018-09-24T14:39:50Z</time>
      </trkpt>
      <trkpt lat="45.80074" lon="4.24729">
        <ele>506.475</ele>
        <time>2018-09-24T14:39:55Z</time>
      </trkpt>
      <trkpt lat="45.80069" lon="4.24722">
        <ele>506.549</ele>
        <time>2018-09-24T14:40:01Z</time>
      </trkpt>
      <trkpt lat="45.80063" lon="4.24714">
        <ele>506.408</ele>
        <time>2018-09-24T14:40:07Z</time>
      </trkpt>
      <trkpt lat="45.80057" lon="4.24705">
        <ele>506.061</ele>
        <time>2018-09-24T14:40:13Z</time>
      </trkpt>
      <trkpt lat="45.80052" lon="4.24699">
        <ele>505.93</ele>
        <time>2018-09-24T14:40:18Z</time>
      </trkpt>
      <trkpt lat="45.80049" lon="4.24693">
        <ele>505.652</ele>
        <time>2018-09-24T14:40:23Z</time>
      </trkpt>
      <trkpt lat="45.80044" lon="4.24686">
        <ele>505.408</ele>
        <time>2018-09-24T14:40:28Z</time>
      </trkpt>
      <trkpt lat="45.80039" lon="4.24678">
        <ele>505.082</ele>
        <time>2018-09-24T14:40:34Z</time>
      </trkpt>
      <trkpt lat="45.80033" lon="4.24671">
        <ele>504.798</ele>
        <time>2018-09-24T14:40:39Z</time>
      </trkpt>
      <trkpt lat="45.80027" lon="4.24663">
        <ele>504.687</ele>
        <time>2018-09-24T14:40:45Z</time>
      </trkpt>
      <trkpt lat="45.80021" lon="4.24655">
        <ele>504.619</ele>
        <time>2018-09-24T14:40:51Z</time>
      </trkpt>
      <trkpt lat="45.80015" lon="4.24649">
        <ele>504.469</ele>
        <time>2018-09-24T14:40:57Z</time>
      </trkpt>
      <trkpt lat="45.80008" lon="4.24642">
        <ele>504.032</ele>
        <time>2018-09-24T14:41:03Z</time>
      </trkpt>
      <trkpt lat="45.80002" lon="4.24636">
        <ele>503.561</ele>
        <time>2018-09-24T14:41:08Z</time>
      </trkpt>
      <trkpt lat="45.79996" lon="4.24629">
        <ele>503.317</ele>
        <time>2018-09-24T14:41:14Z</time>
      </trkpt>
      <trkpt lat="45.79989" lon="4.24622">
        <ele>503.027</ele>
        <time>2018-09-24T14:41:20Z</time>
      </trkpt>
      <trkpt lat="45.79984" lon="4.24614">
        <ele>502.88</ele>
        <time>2018-09-24T14:41:25Z</time>
      </trkpt>
      <trkpt lat="45.79978" lon="4.24608">
        <ele>502.62</ele>
        <time>2018-09-24T14:41:31Z</time>
      </trkpt>
      <trkpt lat="45.79973" lon="4.24602">
        <ele>502.212</ele>
        <time>2018-09-24T14:41:36Z</time>
      </trkpt>
      <trkpt lat="45.79969" lon="4.24596">
        <ele>501.872</ele>
        <time>2018-09-24T14:41:41Z</time>
      </trkpt>
      <trkpt lat="45.79966" lon="4.2459">
        <ele>501.65</ele>
        <time>2018-09-24T14:41:46Z</time>
      </trkpt>
      <trkpt lat="45.79964" lon="4.24587">
        <ele>501.375</ele>
        <time>2018-09-24T14:41:52Z</time>
      </trkpt>
      <trkpt lat="45.79965" lon="4.24583">
        <ele>501.264</ele>
        <time>2018-09-24T14:41:57Z</time>
      </trkpt>
      <trkpt lat="45.79967" lon="4.24582">
        <ele>500.514</ele>
        <time>2018-09-24T14:42:03Z</time>
      </trkpt>
      <trkpt lat="45.79967" lon="4.24581">
        <ele>500.478</ele>
        <time>2018-09-24T14:42:08Z</time>
      </trkpt>
      <trkpt lat="45.79967" lon="4.24581">
        <ele>500.148</ele>
        <time>2018-09-24T14:42:14Z</time>
      </trkpt>
      <trkpt lat="45.79966" lon="4.2458">
        <ele>500.209</ele>
        <time>2018-09-24T14:42:20Z</time>
      </trkpt>
      <trkpt lat="45.79966" lon="4.24581">
        <ele>500.002</ele>
        <time>2018-09-24T14:42:25Z</time>
      </trkpt>
      <trkpt lat="45.79966" lon="4.24581">
        <ele>499.987</ele>
        <time>2018-09-24T14:42:31Z</time>
      </trkpt>
      <trkpt lat="45.79967" lon="4.24581">
        <ele>500.151</ele>
        <time>2018-09-24T14:42:36Z</time>
      </trkpt>
      <trkpt lat="45.79967" lon="4.2458">
        <ele>500.029</ele>
        <time>2018-09-24T14:42:42Z</time>
      </trkpt>
      <trkpt lat="45.79967" lon="4.2458">
        <ele>499.963</ele>
        <time>2018-09-24T14:42:48Z</time>
      </trkpt>
      <trkpt lat="45.79967" lon="4.2458">
        <ele>500.037</ele>
        <time>2018-09-24T14:42:54Z</time>
      </trkpt>
      <trkpt lat="45.79968" lon="4.24581">
        <ele>500.093</ele>
        <time>2018-09-24T14:42:59Z</time>
      </trkpt>
      <trkpt lat="45.79967" lon="4.2458">
        <ele>500.142</ele>
        <time>2018-09-24T14:43:04Z</time>
      </trkpt>
      <trkpt lat="45.7997" lon="4.24575">
        <ele>500.021</ele>
        <time>2018-09-24T14:43:10Z</time>
      </trkpt>
      <trkpt lat="45.79974" lon="4.24567">
        <ele>499.864</ele>
        <time>2018-09-24T14:43:15Z</time>
      </trkpt>
      <trkpt lat="45.79979" lon="4.24556">
        <ele>499.285</ele>
        <time>2018-09-24T14:43:21Z</time>
      </trkpt>
      <trkpt lat="45.79982" lon="4.24549">
        <ele>498.728</ele>
        <time>2018-09-24T14:43:26Z</time>
      </trkpt>
      <trkpt lat="45.79988" lon="4.24541">
        <ele>498.351</ele>
        <time>2018-09-24T14:43:32Z</time>
      </trkpt>
      <trkpt lat="45.79993" lon="4.24533">
        <ele>497.915</ele>
        <time>2018-09-24T14:43:38Z</time>
      </trkpt>
      <trkpt lat="45.79997" lon="4.24527">
        <ele>497.638</ele>
        <time>2018-09-24T14:43:43Z</time>
      </trkpt>
      <trkpt lat="45.80003" lon="4.24519">
        <ele>497.24</ele>
        <time>2018-09-24T14:43:49Z</time>
      </trkpt>
      <trkpt lat="45.80008" lon="4.24512">
        <ele>496.559</ele>
        <time>2018-09-24T14:43:54Z</time>
      </trkpt>
      <trkpt lat="45.80012" lon="4.24505">
        <ele>495.7</ele>
        <time>2018-09-24T14:43:59Z</time>
      </trkpt>
      <trkpt lat="45.80015" lon="4.24498">
        <ele>494.955</ele>
        <time>2018-09-24T14:44:04Z</time>
      </trkpt>
      <trkpt lat="45.80021" lon="4.24486">
        <ele>494.401</ele>
        <time>2018-09-24T14:44:10Z</time>
      </trkpt>
      <trkpt lat="45.80024" lon="4.24477">
        <ele>493.773</ele>
        <time>2018-09-24T14:44:15Z</time>
      </trkpt>
      <trkpt lat="45.80028" lon="4.24469">
        <ele>493.074</ele>
        <time>2018-09-24T14:44:20Z</time>
      </trkpt>
      <trkpt lat="45.80033" lon="4.2446">
        <ele>492.586</ele>
        <time>2018-09-24T14:44:25Z</time>
      </trkpt>
      <trkpt lat="45.80037" lon="4.24453">
        <ele>491.897</ele>
        <time>2018-09-24T14:44:30Z</time>
      </trkpt>
      <trkpt lat="45.80041" lon="4.24443">
        <ele>490.729</ele>
        <time>2018-09-24T14:44:36Z</time>
      </trkpt>
      <trkpt lat="45.80045" lon="4.24436">
        <ele>489.888</ele>
        <time>2018-09-24T14:44:41Z</time>
      </trkpt>
      <trkpt lat="45.80047" lon="4.24425">
        <ele>488.872</ele>
        <time>2018-09-24T14:44:47Z</time>
      </trkpt>
      <trkpt lat="45.80048" lon="4.24415">
        <ele>488.298</ele>
        <time>2018-09-24T14:44:53Z</time>
      </trkpt>
      <trkpt lat="45.80044" lon="4.24409">
        <ele>487.651</ele>
        <time>2018-09-24T14:44:59Z</time>
      </trkpt>
      <trkpt lat="45.80037" lon="4.24403">
        <ele>487.269</ele>
        <time>2018-09-24T14:45:05Z</time>
      </trkpt>
      <trkpt lat="45.8003" lon="4.24395">
        <ele>486.822</ele>
        <time>2018-09-24T14:45:11Z</time>
      </trkpt>
      <trkpt lat="45.80024" lon="4.24386">
        <ele>486.369</ele>
        <time>2018-09-24T14:45:16Z</time>
      </trkpt>
      <trkpt lat="45.80022" lon="4.24378">
        <ele>485.498</ele>
        <time>2018-09-24T14:45:22Z</time>
      </trkpt>
      <trkpt lat="45.80018" lon="4.24366">
        <ele>484.806</ele>
        <time>2018-09-24T14:45:28Z</time>
      </trkpt>
      <trkpt lat="45.80017" lon="4.24354">
        <ele>484.16</ele>
        <time>2018-09-24T14:45:34Z</time>
      </trkpt>
      <trkpt lat="45.80014" lon="4.24343">
        <ele>483.429</ele>
        <time>2018-09-24T14:45:40Z</time>
      </trkpt>
      <trkpt lat="45.8001" lon="4.24333">
        <ele>482.741</ele>
        <time>2018-09-24T14:45:46Z</time>
      </trkpt>
      <trkpt lat="45.8001" lon="4.24323">
        <ele>482.172</ele>
        <time>2018-09-24T14:45:51Z</time>
      </trkpt>
      <trkpt lat="45.80011" lon="4.24313">
        <ele>481.474</ele>
        <time>2018-09-24T14:45:57Z</time>
      </trkpt>
      <trkpt lat="45.80011" lon="4.24303">
        <ele>480.518</ele>
        <time>2018-09-24T14:46:03Z</time>
      </trkpt>
      <trkpt lat="45.80011" lon="4.24296">
        <ele>479.6</ele>
        <time>2018-09-24T14:46:08Z</time>
      </trkpt>
      <trkpt lat="45.8001" lon="4.24289">
        <ele>478.957</ele>
        <time>2018-09-24T14:46:13Z</time>
      </trkpt>
      <trkpt lat="45.80012" lon="4.2428">
        <ele>478.404</ele>
        <time>2018-09-24T14:46:19Z</time>
      </trkpt>
      <trkpt lat="45.80012" lon="4.2427">
        <ele>478.415</ele>
        <time>2018-09-24T14:46:24Z</time>
      </trkpt>
      <trkpt lat="45.80011" lon="4.24259">
        <ele>478.133</ele>
        <time>2018-09-24T14:46:30Z</time>
      </trkpt>
      <trkpt lat="45.8001" lon="4.24249">
        <ele>477.441</ele>
        <time>2018-09-24T14:46:36Z</time>
      </trkpt>
      <trkpt lat="45.80009" lon="4.24236">
        <ele>476.695</ele>
        <time>2018-09-24T14:46:42Z</time>
      </trkpt>
      <trkpt lat="45.80006" lon="4.24225">
        <ele>476.305</ele>
        <time>2018-09-24T14:46:48Z</time>
      </trkpt>
      <trkpt lat="45.80004" lon="4.24213">
        <ele>475.742</ele>
        <time>2018-09-24T14:46:54Z</time>
      </trkpt>
      <trkpt lat="45.8" lon="4.24204">
        <ele>474.899</ele>
        <time>2018-09-24T14:47:00Z</time>
      </trkpt>
      <trkpt lat="45.79996" lon="4.24194">
        <ele>474.115</ele>
        <time>2018-09-24T14:47:05Z</time>
      </trkpt>
      <trkpt lat="45.79993" lon="4.24185">
        <ele>473.44</ele>
        <time>2018-09-24T14:47:11Z</time>
      </trkpt>
      <trkpt lat="45.7999" lon="4.24178">
        <ele>472.798</ele>
        <time>2018-09-24T14:47:16Z</time>
      </trkpt>
      <trkpt lat="45.79986" lon="4.24171">
        <ele>472.389</ele>
        <time>2018-09-24T14:47:21Z</time>
      </trkpt>
      <trkpt lat="45.79982" lon="4.24162">
        <ele>471.715</ele>
        <time>2018-09-24T14:47:27Z</time>
      </trkpt>
      <trkpt lat="45.79979" lon="4.24155">
        <ele>471.131</ele>
        <time>2018-09-24T14:47:32Z</time>
      </trkpt>
      <trkpt lat="45.79976" lon="4.24147">
        <ele>470.674</ele>
        <time>2018-09-24T14:47:38Z</time>
      </trkpt>
      <trkpt lat="45.79971" lon="4.24141">
        <ele>470.737</ele>
        <time>2018-09-24T14:47:44Z</time>
      </trkpt>
      <trkpt lat="45.79967" lon="4.24135">
        <ele>470.375</ele>
        <time>2018-09-24T14:47:49Z</time>
      </trkpt>
      <trkpt lat="45.79963" lon="4.24127">
        <ele>470.062</ele>
        <time>2018-09-24T14:47:55Z</time>
      </trkpt>
      <trkpt lat="45.79959" lon="4.24119">
        <ele>469.603</ele>
        <time>2018-09-24T14:48:01Z</time>
      </trkpt>
      <trkpt lat="45.79954" lon="4.24113">
        <ele>469.08</ele>
        <time>2018-09-24T14:48:06Z</time>
      </trkpt>
      <trkpt lat="45.7995" lon="4.24106">
        <ele>468.578</ele>
        <time>2018-09-24T14:48:12Z</time>
      </trkpt>
      <trkpt lat="45.79944" lon="4.241">
        <ele>468.396</ele>
        <time>2018-09-24T14:48:17Z</time>
      </trkpt>
      <trkpt lat="45.79939" lon="4.24095">
        <ele>468.3</ele>
        <time>2018-09-24T14:48:23Z</time>
      </trkpt>
      <trkpt lat="45.79935" lon="4.24086">
        <ele>467.987</ele>
        <time>2018-09-24T14:48:29Z</time>
      </trkpt>
      <trkpt lat="45.79929" lon="4.24079">
        <ele>467.679</ele>
        <time>2018-09-24T14:48:35Z</time>
      </trkpt>
      <trkpt lat="45.79926" lon="4.24074">
        <ele>467.367</ele>
        <time>2018-09-24T14:48:41Z</time>
      </trkpt>
      <trkpt lat="45.7992" lon="4.24066">
        <ele>466.901</ele>
        <time>2018-09-24T14:48:47Z</time>
      </trkpt>
      <trkpt lat="45.79914" lon="4.24058">
        <ele>466.648</ele>
        <time>2018-09-24T14:48:52Z</time>
      </trkpt>
      <trkpt lat="45.7991" lon="4.24054">
        <ele>466.276</ele>
        <time>2018-09-24T14:48:57Z</time>
      </trkpt>
      <trkpt lat="45.79905" lon="4.24048">
        <ele>465.707</ele>
        <time>2018-09-24T14:49:03Z</time>
      </trkpt>
      <trkpt lat="45.799" lon="4.2404">
        <ele>465.451</ele>
        <time>2018-09-24T14:49:09Z</time>
      </trkpt>
      <trkpt lat="45.79895" lon="4.24032">
        <ele>465.118</ele>
        <time>2018-09-24T14:49:14Z</time>
      </trkpt>
      <trkpt lat="45.79891" lon="4.24025">
        <ele>464.959</ele>
        <time>2018-09-24T14:49:20Z</time>
      </trkpt>
      <trkpt lat="45.79889" lon="4.24018">
        <ele>464.561</ele>
        <time>2018-09-24T14:49:26Z</time>
      </trkpt>
      <trkpt lat="45.79888" lon="4.24011">
        <ele>463.923</ele>
        <time>2018-09-24T14:49:31Z</time>
      </trkpt>
      <trkpt lat="45.79886" lon="4.24">
        <ele>463.216</ele>
        <time>2018-09-24T14:49:37Z</time>
      </trkpt>
      <trkpt lat="45.79883" lon="4.2399">
        <ele>462.306</ele>
        <time>2018-09-24T14:49:43Z</time>
      </trkpt>
      <trkpt lat="45.79881" lon="4.23983">
        <ele>461.307</ele>
        <time>2018-09-24T14:49:48Z</time>
      </trkpt>
      <trkpt lat="45.79879" lon="4.23979">
        <ele>460.225</ele>
        <time>2018-09-24T14:49:54Z</time>
      </trkpt>
      <trkpt lat="45.79877" lon="4.23973">
        <ele>459.515</ele>
        <time>2018-09-24T14:49:59Z</time>
      </trkpt>
      <trkpt lat="45.79874" lon="4.23967">
        <ele>458.679</ele>
        <time>2018-09-24T14:50:04Z</time>
      </trkpt>
      <trkpt lat="45.7987" lon="4.23961">
        <ele>457.656</ele>
        <time>2018-09-24T14:50:10Z</time>
      </trkpt>
      <trkpt lat="45.79867" lon="4.23955">
        <ele>456.829</ele>
        <time>2018-09-24T14:50:16Z</time>
      </trkpt>
      <trkpt lat="45.79864" lon="4.2395">
        <ele>456.124</ele>
        <time>2018-09-24T14:50:21Z</time>
      </trkpt>
      <trkpt lat="45.7986" lon="4.23941">
        <ele>455.424</ele>
        <time>2018-09-24T14:50:27Z</time>
      </trkpt>
      <trkpt lat="45.79857" lon="4.23935">
        <ele>454.495</ele>
        <time>2018-09-24T14:50:33Z</time>
      </trkpt>
      <trkpt lat="45.79852" lon="4.23928">
        <ele>453.64</ele>
        <time>2018-09-24T14:50:39Z</time>
      </trkpt>
      <trkpt lat="45.79849" lon="4.23923">
        <ele>453.049</ele>
        <time>2018-09-24T14:50:44Z</time>
      </trkpt>
      <trkpt lat="45.79845" lon="4.23915">
        <ele>452.342</ele>
        <time>2018-09-24T14:50:49Z</time>
      </trkpt>
      <trkpt lat="45.79843" lon="4.23908">
        <ele>451.216</ele>
        <time>2018-09-24T14:50:55Z</time>
      </trkpt>
      <trkpt lat="45.79842" lon="4.23901">
        <ele>450.052</ele>
        <time>2018-09-24T14:51:00Z</time>
      </trkpt>
      <trkpt lat="45.79839" lon="4.23892">
        <ele>448.995</ele>
        <time>2018-09-24T14:51:06Z</time>
      </trkpt>
      <trkpt lat="45.79838" lon="4.23884">
        <ele>448.168</ele>
        <time>2018-09-24T14:51:11Z</time>
      </trkpt>
      <trkpt lat="45.79838" lon="4.2388">
        <ele>447.405</ele>
        <time>2018-09-24T14:51:16Z</time>
      </trkpt>
      <trkpt lat="45.79837" lon="4.23871">
        <ele>446.655</ele>
        <time>2018-09-24T14:51:22Z</time>
      </trkpt>
      <trkpt lat="45.79833" lon="4.23864">
        <ele>445.921</ele>
        <time>2018-09-24T14:51:27Z</time>
      </trkpt>
      <trkpt lat="45.79832" lon="4.23859">
        <ele>445.098</ele>
        <time>2018-09-24T14:51:32Z</time>
      </trkpt>
      <trkpt lat="45.79832" lon="4.23854">
        <ele>444.023</ele>
        <time>2018-09-24T14:51:38Z</time>
      </trkpt>
      <trkpt lat="45.79831" lon="4.23845">
        <ele>443.197</ele>
        <time>2018-09-24T14:51:44Z</time>
      </trkpt>
      <trkpt lat="45.79831" lon="4.23838">
        <ele>442.251</ele>
        <time>2018-09-24T14:51:49Z</time>
      </trkpt>
      <trkpt lat="45.79829" lon="4.23833">
        <ele>441.488</ele>
        <time>2018-09-24T14:51:54Z</time>
      </trkpt>
      <trkpt lat="45.79825" lon="4.23827">
        <ele>440.397</ele>
        <time>2018-09-24T14:52:00Z</time>
      </trkpt>
      <trkpt lat="45.79818" lon="4.23818">
        <ele>439.846</ele>
        <time>2018-09-24T14:52:06Z</time>
      </trkpt>
      <trkpt lat="45.79814" lon="4.23814">
        <ele>439.469</ele>
        <time>2018-09-24T14:52:11Z</time>
      </trkpt>
      <trkpt lat="45.7981" lon="4.23808">
        <ele>438.795</ele>
        <time>2018-09-24T14:52:17Z</time>
      </trkpt>
      <trkpt lat="45.79804" lon="4.23803">
        <ele>438.217</ele>
        <time>2018-09-24T14:52:22Z</time>
      </trkpt>
      <trkpt lat="45.798" lon="4.23798">
        <ele>437.282</ele>
        <time>2018-09-24T14:52:28Z</time>
      </trkpt>
      <trkpt lat="45.79796" lon="4.23794">
        <ele>436.483</ele>
        <time>2018-09-24T14:52:33Z</time>
      </trkpt>
      <trkpt lat="45.79789" lon="4.23787">
        <ele>435.743</ele>
        <time>2018-09-24T14:52:39Z</time>
      </trkpt>
      <trkpt lat="45.79784" lon="4.23782">
        <ele>435.01</ele>
        <time>2018-09-24T14:52:44Z</time>
      </trkpt>
      <trkpt lat="45.79778" lon="4.23775">
        <ele>434.354</ele>
        <time>2018-09-24T14:52:50Z</time>
      </trkpt>
      <trkpt lat="45.79775" lon="4.23769">
        <ele>433.545</ele>
        <time>2018-09-24T14:52:56Z</time>
      </trkpt>
      <trkpt lat="45.79771" lon="4.23763">
        <ele>432.689</ele>
        <time>2018-09-24T14:53:01Z</time>
      </trkpt>
      <trkpt lat="45.79767" lon="4.23757">
        <ele>431.97</ele>
        <time>2018-09-24T14:53:07Z</time>
      </trkpt>
      <trkpt lat="45.79761" lon="4.23748">
        <ele>431.428</ele>
        <time>2018-09-24T14:53:13Z</time>
      </trkpt>
      <trkpt lat="45.79756" lon="4.23744">
        <ele>430.982</ele>
        <time>2018-09-24T14:53:18Z</time>
      </trkpt>
      <trkpt lat="45.79753" lon="4.23737">
        <ele>430.487</ele>
        <time>2018-09-24T14:53:24Z</time>
      </trkpt>
      <trkpt lat="45.79748" lon="4.23733">
        <ele>430.033</ele>
        <time>2018-09-24T14:53:29Z</time>
      </trkpt>
      <trkpt lat="45.79742" lon="4.23726">
        <ele>429.686</ele>
        <time>2018-09-24T14:53:34Z</time>
      </trkpt>
      <trkpt lat="45.79737" lon="4.23719">
        <ele>429.342</ele>
        <time>2018-09-24T14:53:40Z</time>
      </trkpt>
      <trkpt lat="45.79734" lon="4.23714">
        <ele>428.764</ele>
        <time>2018-09-24T14:53:45Z</time>
      </trkpt>
      <trkpt lat="45.79728" lon="4.23705">
        <ele>427.915</ele>
        <time>2018-09-24T14:53:53Z</time>
      </trkpt>
      <trkpt lat="45.79722" lon="4.23697">
        <ele>427.302</ele>
        <time>2018-09-24T14:53:59Z</time>
      </trkpt>
      <trkpt lat="45.79717" lon="4.23691">
        <ele>426.614</ele>
        <time>2018-09-24T14:54:04Z</time>
      </trkpt>
      <trkpt lat="45.79713" lon="4.23684">
        <ele>425.978</ele>
        <time>2018-09-24T14:54:10Z</time>
      </trkpt>
      <trkpt lat="45.7971" lon="4.2368">
        <ele>425.48</ele>
        <time>2018-09-24T14:54:15Z</time>
      </trkpt>
      <trkpt lat="45.79707" lon="4.23674">
        <ele>424.525</ele>
        <time>2018-09-24T14:54:21Z</time>
      </trkpt>
      <trkpt lat="45.79704" lon="4.23667">
        <ele>424.061</ele>
        <time>2018-09-24T14:54:27Z</time>
      </trkpt>
      <trkpt lat="45.797" lon="4.23659">
        <ele>423.383</ele>
        <time>2018-09-24T14:54:33Z</time>
      </trkpt>
      <trkpt lat="45.797" lon="4.23652">
        <ele>422.817</ele>
        <time>2018-09-24T14:54:38Z</time>
      </trkpt>
      <trkpt lat="45.79697" lon="4.23643">
        <ele>421.756</ele>
        <time>2018-09-24T14:54:44Z</time>
      </trkpt>
      <trkpt lat="45.79697" lon="4.23636">
        <ele>421.172</ele>
        <time>2018-09-24T14:54:49Z</time>
      </trkpt>
      <trkpt lat="45.79697" lon="4.2363">
        <ele>420.729</ele>
        <time>2018-09-24T14:54:54Z</time>
      </trkpt>
      <trkpt lat="45.79696" lon="4.23621">
        <ele>420.136</ele>
        <time>2018-09-24T14:55:00Z</time>
      </trkpt>
      <trkpt lat="45.79694" lon="4.2361">
        <ele>418.804</ele>
        <time>2018-09-24T14:55:06Z</time>
      </trkpt>
      <trkpt lat="45.79691" lon="4.23601">
        <ele>417.661</ele>
        <time>2018-09-24T14:55:11Z</time>
      </trkpt>
      <trkpt lat="45.7969" lon="4.23592">
        <ele>416.891</ele>
        <time>2018-09-24T14:55:16Z</time>
      </trkpt>
      <trkpt lat="45.79688" lon="4.23583">
        <ele>416.267</ele>
        <time>2018-09-24T14:55:22Z</time>
      </trkpt>
      <trkpt lat="45.79685" lon="4.23574">
        <ele>415.617</ele>
        <time>2018-09-24T14:55:28Z</time>
      </trkpt>
      <trkpt lat="45.79684" lon="4.23565">
        <ele>415.075</ele>
        <time>2018-09-24T14:55:33Z</time>
      </trkpt>
      <trkpt lat="45.79683" lon="4.23554">
        <ele>414.636</ele>
        <time>2018-09-24T14:55:39Z</time>
      </trkpt>
      <trkpt lat="45.79682" lon="4.23542">
        <ele>414.248</ele>
        <time>2018-09-24T14:55:45Z</time>
      </trkpt>
      <trkpt lat="45.79681" lon="4.23533">
        <ele>413.93</ele>
        <time>2018-09-24T14:55:51Z</time>
      </trkpt>
      <trkpt lat="45.79678" lon="4.23524">
        <ele>413.255</ele>
        <time>2018-09-24T14:55:57Z</time>
      </trkpt>
      <trkpt lat="45.79677" lon="4.23516">
        <ele>412.813</ele>
        <time>2018-09-24T14:56:02Z</time>
      </trkpt>
      <trkpt lat="45.79677" lon="4.23507">
        <ele>412.746</ele>
        <time>2018-09-24T14:56:07Z</time>
      </trkpt>
      <trkpt lat="45.79676" lon="4.23496">
        <ele>412.422</ele>
        <time>2018-09-24T14:56:13Z</time>
      </trkpt>
      <trkpt lat="45.79675" lon="4.23487">
        <ele>412.454</ele>
        <time>2018-09-24T14:56:19Z</time>
      </trkpt>
      <trkpt lat="45.79673" lon="4.23479">
        <ele>412.349</ele>
        <time>2018-09-24T14:56:24Z</time>
      </trkpt>
      <trkpt lat="45.79674" lon="4.23473">
        <ele>412.58</ele>
        <time>2018-09-24T14:56:30Z</time>
      </trkpt>
      <trkpt lat="45.79676" lon="4.23469">
        <ele>412.912</ele>
        <time>2018-09-24T14:56:36Z</time>
      </trkpt>
      <trkpt lat="45.79678" lon="4.23469">
        <ele>413.037</ele>
        <time>2018-09-24T14:56:42Z</time>
      </trkpt>
      <trkpt lat="45.79676" lon="4.23469">
        <ele>413.514</ele>
        <time>2018-09-24T14:56:48Z</time>
      </trkpt>
      <trkpt lat="45.79676" lon="4.23468">
        <ele>414.019</ele>
        <time>2018-09-24T14:56:53Z</time>
      </trkpt>
      <trkpt lat="45.79677" lon="4.23468">
        <ele>413.256</ele>
        <time>2018-09-24T14:56:58Z</time>
      </trkpt>
      <trkpt lat="45.79677" lon="4.2347">
        <ele>412.525</ele>
        <time>2018-09-24T14:57:03Z</time>
      </trkpt>
      <trkpt lat="45.79677" lon="4.23471">
        <ele>411.461</ele>
        <time>2018-09-24T14:57:09Z</time>
      </trkpt>
      <trkpt lat="45.79677" lon="4.2347">
        <ele>410.365</ele>
        <time>2018-09-24T14:57:15Z</time>
      </trkpt>
      <trkpt lat="45.79677" lon="4.2347">
        <ele>409.603</ele>
        <time>2018-09-24T14:57:20Z</time>
      </trkpt>
      <trkpt lat="45.79678" lon="4.2347">
        <ele>409.456</ele>
        <time>2018-09-24T14:57:26Z</time>
      </trkpt>
      <trkpt lat="45.79679" lon="4.23469">
        <ele>409</ele>
        <time>2018-09-24T14:57:31Z</time>
      </trkpt>
      <trkpt lat="45.79678" lon="4.2347">
        <ele>408.565</ele>
        <time>2018-09-24T14:57:37Z</time>
      </trkpt>
      <trkpt lat="45.79679" lon="4.23471">
        <ele>408.253</ele>
        <time>2018-09-24T14:57:43Z</time>
      </trkpt>
      <trkpt lat="45.79678" lon="4.23471">
        <ele>408.271</ele>
        <time>2018-09-24T14:57:48Z</time>
      </trkpt>
      <trkpt lat="45.79677" lon="4.23471">
        <ele>408.164</ele>
        <time>2018-09-24T14:57:53Z</time>
      </trkpt>
      <trkpt lat="45.79678" lon="4.2347">
        <ele>407.561</ele>
        <time>2018-09-24T14:57:59Z</time>
      </trkpt>
      <trkpt lat="45.79683" lon="4.23463">
        <ele>407.118</ele>
        <time>2018-09-24T14:58:04Z</time>
      </trkpt>
      <trkpt lat="45.79686" lon="4.23458">
        <ele>406.67</ele>
        <time>2018-09-24T14:58:10Z</time>
      </trkpt>
      <trkpt lat="45.79693" lon="4.2345">
        <ele>406.476</ele>
        <time>2018-09-24T14:58:16Z</time>
      </trkpt>
      <trkpt lat="45.79696" lon="4.23445">
        <ele>406.442</ele>
        <time>2018-09-24T14:58:22Z</time>
      </trkpt>
      <trkpt lat="45.79697" lon="4.23436">
        <ele>406.306</ele>
        <time>2018-09-24T14:58:28Z</time>
      </trkpt>
      <trkpt lat="45.79698" lon="4.23424">
        <ele>406.392</ele>
        <time>2018-09-24T14:58:34Z</time>
      </trkpt>
      <trkpt lat="45.79699" lon="4.23416">
        <ele>406.826</ele>
        <time>2018-09-24T14:58:40Z</time>
      </trkpt>
      <trkpt lat="45.79701" lon="4.23409">
        <ele>407.181</ele>
        <time>2018-09-24T14:58:45Z</time>
      </trkpt>
      <trkpt lat="45.79704" lon="4.234">
        <ele>407.309</ele>
        <time>2018-09-24T14:58:51Z</time>
      </trkpt>
      <trkpt lat="45.79705" lon="4.23389">
        <ele>407.331</ele>
        <time>2018-09-24T14:58:57Z</time>
      </trkpt>
      <trkpt lat="45.79706" lon="4.23382">
        <ele>407.584</ele>
        <time>2018-09-24T14:59:02Z</time>
      </trkpt>
      <trkpt lat="45.79709" lon="4.23373">
        <ele>407.428</ele>
        <time>2018-09-24T14:59:08Z</time>
      </trkpt>
      <trkpt lat="45.79711" lon="4.23362">
        <ele>407.734</ele>
        <time>2018-09-24T14:59:14Z</time>
      </trkpt>
      <trkpt lat="45.79713" lon="4.23353">
        <ele>407.953</ele>
        <time>2018-09-24T14:59:19Z</time>
      </trkpt>
      <trkpt lat="45.79717" lon="4.23342">
        <ele>408.231</ele>
        <time>2018-09-24T14:59:25Z</time>
      </trkpt>
      <trkpt lat="45.7972" lon="4.23333">
        <ele>407.997</ele>
        <time>2018-09-24T14:59:31Z</time>
      </trkpt>
      <trkpt lat="45.79722" lon="4.23322">
        <ele>407.458</ele>
        <time>2018-09-24T14:59:37Z</time>
      </trkpt>
      <trkpt lat="45.79722" lon="4.23314">
        <ele>407.036</ele>
        <time>2018-09-24T14:59:42Z</time>
      </trkpt>
      <trkpt lat="45.79723" lon="4.23303">
        <ele>406.748</ele>
        <time>2018-09-24T14:59:48Z</time>
      </trkpt>
      <trkpt lat="45.79723" lon="4.23297">
        <ele>406.401</ele>
        <time>2018-09-24T14:59:53Z</time>
      </trkpt>
      <trkpt lat="45.79725" lon="4.23285">
        <ele>406.632</ele>
        <time>2018-09-24T14:59:59Z</time>
      </trkpt>
      <trkpt lat="45.79726" lon="4.23275">
        <ele>406.761</ele>
        <time>2018-09-24T15:00:04Z</time>
      </trkpt>
      <trkpt lat="45.79731" lon="4.23268">
        <ele>406.611</ele>
        <time>2018-09-24T15:00:10Z</time>
      </trkpt>
      <trkpt lat="45.79737" lon="4.23264">
        <ele>406.333</ele>
        <time>2018-09-24T15:00:16Z</time>
      </trkpt>
      <trkpt lat="45.79742" lon="4.2326">
        <ele>406.51</ele>
        <time>2018-09-24T15:00:21Z</time>
      </trkpt>
      <trkpt lat="45.79751" lon="4.23255">
        <ele>406.756</ele>
        <time>2018-09-24T15:00:27Z</time>
      </trkpt>
      <trkpt lat="45.79756" lon="4.23253">
        <ele>406.972</ele>
        <time>2018-09-24T15:00:32Z</time>
      </trkpt>
      <trkpt lat="45.79762" lon="4.23249">
        <ele>407.589</ele>
        <time>2018-09-24T15:00:38Z</time>
      </trkpt>
      <trkpt lat="45.79768" lon="4.23246">
        <ele>407.969</ele>
        <time>2018-09-24T15:00:43Z</time>
      </trkpt>
      <trkpt lat="45.79776" lon="4.23245">
        <ele>407.624</ele>
        <time>2018-09-24T15:00:49Z</time>
      </trkpt>
      <trkpt lat="45.79781" lon="4.23245">
        <ele>407.565</ele>
        <time>2018-09-24T15:00:54Z</time>
      </trkpt>
      <trkpt lat="45.79788" lon="4.23244">
        <ele>407.206</ele>
        <time>2018-09-24T15:01:00Z</time>
      </trkpt>
      <trkpt lat="45.79794" lon="4.23245">
        <ele>406.965</ele>
        <time>2018-09-24T15:01:05Z</time>
      </trkpt>
      <trkpt lat="45.79801" lon="4.23245">
        <ele>406.638</ele>
        <time>2018-09-24T15:01:10Z</time>
      </trkpt>
      <trkpt lat="45.79806" lon="4.2324">
        <ele>406.328</ele>
        <time>2018-09-24T15:01:15Z</time>
      </trkpt>
      <trkpt lat="45.79815" lon="4.2324">
        <ele>406.744</ele>
        <time>2018-09-24T15:01:21Z</time>
      </trkpt>
      <trkpt lat="45.7982" lon="4.23239">
        <ele>406.976</ele>
        <time>2018-09-24T15:01:26Z</time>
      </trkpt>
      <trkpt lat="45.79826" lon="4.23236">
        <ele>407.178</ele>
        <time>2018-09-24T15:01:32Z</time>
      </trkpt>
      <trkpt lat="45.79828" lon="4.23238">
        <ele>406.893</ele>
        <time>2018-09-24T15:01:38Z</time>
      </trkpt>
      <trkpt lat="45.79833" lon="4.2324">
        <ele>407.547</ele>
        <time>2018-09-24T15:01:43Z</time>
      </trkpt>
      <trkpt lat="45.79838" lon="4.23241">
        <ele>408.179</ele>
        <time>2018-09-24T15:01:49Z</time>
      </trkpt>
      <trkpt lat="45.79838" lon="4.23241">
        <ele>408.339</ele>
        <time>2018-09-24T15:01:54Z</time>
      </trkpt>
      <trkpt lat="45.7984" lon="4.2324">
        <ele>408.563</ele>
        <time>2018-09-24T15:01:59Z</time>
      </trkpt>
      <trkpt lat="45.79841" lon="4.2324">
        <ele>409.26</ele>
        <time>2018-09-24T15:02:05Z</time>
      </trkpt>
      <trkpt lat="45.79842" lon="4.2324">
        <ele>409.598</ele>
        <time>2018-09-24T15:02:11Z</time>
      </trkpt>
      <trkpt lat="45.79843" lon="4.23241">
        <ele>410.119</ele>
        <time>2018-09-24T15:02:17Z</time>
      </trkpt>
      <trkpt lat="45.79844" lon="4.23241">
        <ele>410.676</ele>
        <time>2018-09-24T15:02:23Z</time>
      </trkpt>
      <trkpt lat="45.79844" lon="4.2324">
        <ele>410.918</ele>
        <time>2018-09-24T15:02:29Z</time>
      </trkpt>
      <trkpt lat="45.79845" lon="4.23242">
        <ele>411.417</ele>
        <time>2018-09-24T15:02:35Z</time>
      </trkpt>
      <trkpt lat="45.79845" lon="4.23242">
        <ele>411.486</ele>
        <time>2018-09-24T15:02:41Z</time>
      </trkpt>
      <trkpt lat="45.79845" lon="4.23243">
        <ele>411.737</ele>
        <time>2018-09-24T15:02:47Z</time>
      </trkpt>
      <trkpt lat="45.79844" lon="4.23241">
        <ele>411.988</ele>
        <time>2018-09-24T15:02:53Z</time>
      </trkpt>
      <trkpt lat="45.79843" lon="4.23242">
        <ele>411.845</ele>
        <time>2018-09-24T15:02:58Z</time>
      </trkpt>
      <trkpt lat="45.79844" lon="4.23245">
        <ele>412.046</ele>
        <time>2018-09-24T15:03:04Z</time>
      </trkpt>
      <trkpt lat="45.79845" lon="4.23245">
        <ele>412.208</ele>
        <time>2018-09-24T15:03:09Z</time>
      </trkpt>
      <trkpt lat="45.79845" lon="4.23244">
        <ele>412.118</ele>
        <time>2018-09-24T15:03:15Z</time>
      </trkpt>
      <trkpt lat="45.79844" lon="4.23244">
        <ele>412.215</ele>
        <time>2018-09-24T15:03:21Z</time>
      </trkpt>
      <trkpt lat="45.79845" lon="4.23245">
        <ele>412.377</ele>
        <time>2018-09-24T15:03:26Z</time>
      </trkpt>
      <trkpt lat="45.79845" lon="4.23244">
        <ele>412.34</ele>
        <time>2018-09-24T15:03:32Z</time>
      </trkpt>
      <trkpt lat="45.79846" lon="4.23243">
        <ele>412.342</ele>
        <time>2018-09-24T15:03:37Z</time>
      </trkpt>
      <trkpt lat="45.79845" lon="4.23243">
        <ele>412.517</ele>
        <time>2018-09-24T15:03:42Z</time>
      </trkpt>
      <trkpt lat="45.79845" lon="4.23243">
        <ele>412.692</ele>
        <time>2018-09-24T15:03:48Z</time>
      </trkpt>
      <trkpt lat="45.79845" lon="4.23243">
        <ele>412.462</ele>
        <time>2018-09-24T15:03:53Z</time>
      </trkpt>
      <trkpt lat="45.79844" lon="4.23243">
        <ele>412.26</ele>
        <time>2018-09-24T15:03:58Z</time>
      </trkpt>
      <trkpt lat="45.79844" lon="4.23244">
        <ele>411.949</ele>
        <time>2018-09-24T15:04:04Z</time>
      </trkpt>
      <trkpt lat="45.79844" lon="4.23244">
        <ele>411.337</ele>
        <time>2018-09-24T15:04:09Z</time>
      </trkpt>
      <trkpt lat="45.79845" lon="4.23247">
        <ele>410.83</ele>
        <time>2018-09-24T15:04:14Z</time>
      </trkpt>
      <trkpt lat="45.79844" lon="4.23249">
        <ele>410.649</ele>
        <time>2018-09-24T15:04:20Z</time>
      </trkpt>
      <trkpt lat="45.79846" lon="4.2325">
        <ele>410.667</ele>
        <time>2018-09-24T15:04:25Z</time>
      </trkpt>
      <trkpt lat="45.79847" lon="4.2325">
        <ele>410.335</ele>
        <time>2018-09-24T15:04:30Z</time>
      </trkpt>
      <trkpt lat="45.79846" lon="4.2325">
        <ele>410.249</ele>
        <time>2018-09-24T15:04:35Z</time>
      </trkpt>
      <trkpt lat="45.79846" lon="4.23253">
        <ele>410.51</ele>
        <time>2018-09-24T15:04:41Z</time>
      </trkpt>
      <trkpt lat="45.79845" lon="4.23253">
        <ele>410.778</ele>
        <time>2018-09-24T15:04:47Z</time>
      </trkpt>
      <trkpt lat="45.79845" lon="4.23251">
        <ele>410.953</ele>
        <time>2018-09-24T15:04:52Z</time>
      </trkpt>
      <trkpt lat="45.79846" lon="4.23251">
        <ele>411.081</ele>
        <time>2018-09-24T15:04:57Z</time>
      </trkpt>
      <trkpt lat="45.79846" lon="4.23247">
        <ele>411.054</ele>
        <time>2018-09-24T15:05:03Z</time>
      </trkpt>
      <trkpt lat="45.79847" lon="4.23247">
        <ele>410.781</ele>
        <time>2018-09-24T15:05:08Z</time>
      </trkpt>
      <trkpt lat="45.79847" lon="4.23247">
        <ele>410.319</ele>
        <time>2018-09-24T15:05:14Z</time>
      </trkpt>
      <trkpt lat="45.79847" lon="4.23249">
        <ele>410.184</ele>
        <time>2018-09-24T15:05:19Z</time>
      </trkpt>
      <trkpt lat="45.79847" lon="4.23248">
        <ele>410.318</ele>
        <time>2018-09-24T15:05:24Z</time>
      </trkpt>
      <trkpt lat="45.79847" lon="4.23246">
        <ele>410.35</ele>
        <time>2018-09-24T15:05:30Z</time>
      </trkpt>
      <trkpt lat="45.79846" lon="4.23246">
        <ele>410.547</ele>
        <time>2018-09-24T15:05:36Z</time>
      </trkpt>
      <trkpt lat="45.79846" lon="4.23246">
        <ele>410.544</ele>
        <time>2018-09-24T15:05:41Z</time>
      </trkpt>
      <trkpt lat="45.79846" lon="4.23247">
        <ele>410.365</ele>
        <time>2018-09-24T15:05:46Z</time>
      </trkpt>
      <trkpt lat="45.79846" lon="4.2325">
        <ele>410.419</ele>
        <time>2018-09-24T15:05:52Z</time>
      </trkpt>
      <trkpt lat="45.79847" lon="4.23249">
        <ele>410.426</ele>
        <time>2018-09-24T15:05:58Z</time>
      </trkpt>
      <trkpt lat="45.79847" lon="4.23249">
        <ele>410.48</ele>
        <time>2018-09-24T15:06:03Z</time>
      </trkpt>
      <trkpt lat="45.79847" lon="4.23251">
        <ele>410.519</ele>
        <time>2018-09-24T15:06:09Z</time>
      </trkpt>
      <trkpt lat="45.79847" lon="4.23251">
        <ele>410.508</ele>
        <time>2018-09-24T15:06:14Z</time>
      </trkpt>
      <trkpt lat="45.79847" lon="4.23251">
        <ele>410.668</ele>
        <time>2018-09-24T15:06:20Z</time>
      </trkpt>
      <trkpt lat="45.79848" lon="4.23251">
        <ele>410.909</ele>
        <time>2018-09-24T15:06:26Z</time>
      </trkpt>
      <trkpt lat="45.79849" lon="4.23251">
        <ele>410.861</ele>
        <time>2018-09-24T15:06:32Z</time>
      </trkpt>
      <trkpt lat="45.79849" lon="4.23251">
        <ele>410.757</ele>
        <time>2018-09-24T15:06:38Z</time>
      </trkpt>
      <trkpt lat="45.79848" lon="4.23249">
        <ele>410.976</ele>
        <time>2018-09-24T15:06:44Z</time>
      </trkpt>
      <trkpt lat="45.79848" lon="4.23247">
        <ele>411.078</ele>
        <time>2018-09-24T15:06:49Z</time>
      </trkpt>
      <trkpt lat="45.79847" lon="4.23246">
        <ele>411.194</ele>
        <time>2018-09-24T15:06:55Z</time>
      </trkpt>
      <trkpt lat="45.79846" lon="4.23247">
        <ele>411.686</ele>
        <time>2018-09-24T15:07:00Z</time>
      </trkpt>
      <trkpt lat="45.79845" lon="4.23249">
        <ele>411.708</ele>
        <time>2018-09-24T15:07:06Z</time>
      </trkpt>
      <trkpt lat="45.79845" lon="4.23248">
        <ele>411.579</ele>
        <time>2018-09-24T15:07:11Z</time>
      </trkpt>
      <trkpt lat="45.79847" lon="4.23248">
        <ele>411.026</ele>
        <time>2018-09-24T15:07:16Z</time>
      </trkpt>
      <trkpt lat="45.79848" lon="4.2325">
        <ele>410.803</ele>
        <time>2018-09-24T15:07:21Z</time>
      </trkpt>
      <trkpt lat="45.79846" lon="4.23251">
        <ele>410.462</ele>
        <time>2018-09-24T15:07:27Z</time>
      </trkpt>
      <trkpt lat="45.79845" lon="4.23251">
        <ele>410.517</ele>
        <time>2018-09-24T15:07:32Z</time>
      </trkpt>
      <trkpt lat="45.79847" lon="4.23251">
        <ele>410.491</ele>
        <time>2018-09-24T15:07:38Z</time>
      </trkpt>
      <trkpt lat="45.79846" lon="4.2325">
        <ele>410.842</ele>
        <time>2018-09-24T15:07:44Z</time>
      </trkpt>
      <trkpt lat="45.79846" lon="4.2325">
        <ele>411.448</ele>
        <time>2018-09-24T15:07:49Z</time>
      </trkpt>
      <trkpt lat="45.79846" lon="4.2325">
        <ele>411.9</ele>
        <time>2018-09-24T15:07:54Z</time>
      </trkpt>
      <trkpt lat="45.79846" lon="4.2325">
        <ele>412.175</ele>
        <time>2018-09-24T15:08:00Z</time>
      </trkpt>
      <trkpt lat="45.79846" lon="4.2325">
        <ele>412.274</ele>
        <time>2018-09-24T15:08:06Z</time>
      </trkpt>
      <trkpt lat="45.79846" lon="4.23251">
        <ele>412.102</ele>
        <time>2018-09-24T15:08:11Z</time>
      </trkpt>
      <trkpt lat="45.79847" lon="4.2325">
        <ele>412.145</ele>
        <time>2018-09-24T15:08:17Z</time>
      </trkpt>
      <trkpt lat="45.79849" lon="4.23253">
        <ele>411.75</ele>
        <time>2018-09-24T15:08:22Z</time>
      </trkpt>
      <trkpt lat="45.7985" lon="4.23255">
        <ele>410.851</ele>
        <time>2018-09-24T15:08:27Z</time>
      </trkpt>
      <trkpt lat="45.79853" lon="4.23256">
        <ele>410.284</ele>
        <time>2018-09-24T15:08:32Z</time>
      </trkpt>
      <trkpt lat="45.79853" lon="4.23255">
        <ele>409.87</ele>
        <time>2018-09-24T15:08:37Z</time>
      </trkpt>
      <trkpt lat="45.79854" lon="4.23251">
        <ele>409.005</ele>
        <time>2018-09-24T15:08:43Z</time>
      </trkpt>
      <trkpt lat="45.79849" lon="4.23248">
        <ele>408.139</ele>
        <time>2018-09-24T15:08:49Z</time>
      </trkpt>
      <trkpt lat="45.79849" lon="4.23248">
        <ele>408.095</ele>
        <time>2018-09-24T15:08:55Z</time>
      </trkpt>
      <trkpt lat="45.7985" lon="4.23243">
        <ele>408.306</ele>
        <time>2018-09-24T15:09:01Z</time>
      </trkpt>
    </trkseg>
  </trk>
</gpx>